<?xml version="1.0" encoding="UTF-8"?>
<gpx version="1.1" creator="https://www.youtrack.es" xsi:schemaLocation="http://www.topografix.com/GPX/1/1 http://www.topografix.com/GPX/1/1/gpx.xsd http://www.garmin.com/xmlschemas/GpxExtensions/v3 http://www.garmin.com/xmlschemas/GpxExtensionsv3.xsd http://www.garmin.com/xmlschemas/TrackPointExtension/v1 http://www.garmin.com/xmlschemas/TrackPointExtensionv1.xsd" xmlns:gpxtpx="http://www.garmin.com/xmlschemas/TrackPointExtension/v1" xmlns:gpxx="http://www.garmin.com/xmlschemas/GpxExtensions/v3" xmlns:xsi="http://www.w3.org/2001/XMLSchema-instance">
  <metadata>
    <link href="https://www.youtrack.es">
      <text>YouTrack.es</text>
    </link>
    <time>2026-05-08T00:57:47Z</time>
  </metadata>
  <trk>
    <src>https://www.youtrack.es</src>
    <link href="https://www.youtrack.es/ruta/20906-vallter-2000">
      <text>YouTrack.es</text>
    </link>
    <trkseg>
      <trkpt lat="42.4266816" lon="2.2650447">
        <ele>2154.40991211</ele>
        <time>2021-03-30T09:29:43Z</time>
      </trkpt>
      <trkpt lat="42.4266731" lon="2.2650782">
        <ele>2154.01000977</ele>
        <time>2021-03-30T09:29:44Z</time>
      </trkpt>
      <trkpt lat="42.4266657" lon="2.2651151">
        <ele>2153.7800293</ele>
        <time>2021-03-30T09:29:45Z</time>
      </trkpt>
      <trkpt lat="42.4266634" lon="2.2651442">
        <ele>2153.59008789</ele>
        <time>2021-03-30T09:29:46Z</time>
      </trkpt>
      <trkpt lat="42.4266598" lon="2.2651695">
        <ele>2153.52001953</ele>
        <time>2021-03-30T09:29:47Z</time>
      </trkpt>
      <trkpt lat="42.4266513" lon="2.2652033">
        <ele>2153.42993164</ele>
        <time>2021-03-30T09:29:48Z</time>
      </trkpt>
      <trkpt lat="42.4266395" lon="2.2652219">
        <ele>2153.23999023</ele>
        <time>2021-03-30T09:29:49Z</time>
      </trkpt>
      <trkpt lat="42.4266323" lon="2.2652452">
        <ele>2152.95996094</ele>
        <time>2021-03-30T09:29:50Z</time>
      </trkpt>
      <trkpt lat="42.4266248" lon="2.265274">
        <ele>2152.77001953</ele>
        <time>2021-03-30T09:29:51Z</time>
      </trkpt>
      <trkpt lat="42.4266159" lon="2.2652962">
        <ele>2152.59008789</ele>
        <time>2021-03-30T09:29:52Z</time>
      </trkpt>
      <trkpt lat="42.4266107" lon="2.265315">
        <ele>2152.37011719</ele>
        <time>2021-03-30T09:29:53Z</time>
      </trkpt>
      <trkpt lat="42.4266027" lon="2.2653415">
        <ele>2152.23999023</ele>
        <time>2021-03-30T09:29:54Z</time>
      </trkpt>
      <trkpt lat="42.4265949" lon="2.2653734">
        <ele>2152.05004883</ele>
        <time>2021-03-30T09:29:55Z</time>
      </trkpt>
      <trkpt lat="42.4265929" lon="2.2654045">
        <ele>2151.86010742</ele>
        <time>2021-03-30T09:29:56Z</time>
      </trkpt>
      <trkpt lat="42.4265886" lon="2.2654377">
        <ele>2151.79003906</ele>
        <time>2021-03-30T09:29:57Z</time>
      </trkpt>
      <trkpt lat="42.4265835" lon="2.2654754">
        <ele>2151.68994141</ele>
        <time>2021-03-30T09:29:58Z</time>
      </trkpt>
      <trkpt lat="42.4265815" lon="2.2655133">
        <ele>2151.57006836</ele>
        <time>2021-03-30T09:29:59Z</time>
      </trkpt>
      <trkpt lat="42.426575" lon="2.2655499">
        <ele>2151.51000977</ele>
        <time>2021-03-30T09:30:00Z</time>
      </trkpt>
      <trkpt lat="42.4265703" lon="2.2655802">
        <ele>2151.36010742</ele>
        <time>2021-03-30T09:30:01Z</time>
      </trkpt>
      <trkpt lat="42.4265576" lon="2.2656114">
        <ele>2151.42993164</ele>
        <time>2021-03-30T09:30:02Z</time>
      </trkpt>
      <trkpt lat="42.4265432" lon="2.2656614">
        <ele>2151.44995117</ele>
        <time>2021-03-30T09:30:03Z</time>
      </trkpt>
      <trkpt lat="42.4265342" lon="2.2657018">
        <ele>2151.68994141</ele>
        <time>2021-03-30T09:30:04Z</time>
      </trkpt>
      <trkpt lat="42.4265538" lon="2.2657225">
        <ele>2152.02001953</ele>
        <time>2021-03-30T09:30:05Z</time>
      </trkpt>
      <trkpt lat="42.4265643" lon="2.2657361">
        <ele>2152.43994141</ele>
        <time>2021-03-30T09:30:06Z</time>
      </trkpt>
      <trkpt lat="42.4265771" lon="2.2657477">
        <ele>2152.68994141</ele>
        <time>2021-03-30T09:30:07Z</time>
      </trkpt>
      <trkpt lat="42.426596" lon="2.2657667">
        <ele>2152.88989258</ele>
        <time>2021-03-30T09:30:08Z</time>
      </trkpt>
      <trkpt lat="42.4266" lon="2.265774">
        <ele>2153.14990234</ele>
        <time>2021-03-30T09:30:09Z</time>
      </trkpt>
      <trkpt lat="42.4266064" lon="2.2657683">
        <ele>2153.22998047</ele>
        <time>2021-03-30T09:30:10Z</time>
      </trkpt>
      <trkpt lat="42.4266197" lon="2.2657382">
        <ele>2153.25</ele>
        <time>2021-03-30T09:30:11Z</time>
      </trkpt>
      <trkpt lat="42.4266322" lon="2.2657161">
        <ele>2153.19995117</ele>
        <time>2021-03-30T09:30:12Z</time>
      </trkpt>
      <trkpt lat="42.4266378" lon="2.2656915">
        <ele>2153.22998047</ele>
        <time>2021-03-30T09:30:13Z</time>
      </trkpt>
      <trkpt lat="42.4266449" lon="2.2656597">
        <ele>2153.22998047</ele>
        <time>2021-03-30T09:30:14Z</time>
      </trkpt>
      <trkpt lat="42.426655" lon="2.2656269">
        <ele>2153.26000977</ele>
        <time>2021-03-30T09:30:15Z</time>
      </trkpt>
      <trkpt lat="42.4266622" lon="2.265607">
        <ele>2153.37011719</ele>
        <time>2021-03-30T09:30:16Z</time>
      </trkpt>
      <trkpt lat="42.4266691" lon="2.2655663">
        <ele>2153.48999023</ele>
        <time>2021-03-30T09:30:17Z</time>
      </trkpt>
      <trkpt lat="42.4266744" lon="2.2655344">
        <ele>2153.63989258</ele>
        <time>2021-03-30T09:30:18Z</time>
      </trkpt>
      <trkpt lat="42.4266853" lon="2.2654956">
        <ele>2153.77001953</ele>
        <time>2021-03-30T09:30:19Z</time>
      </trkpt>
      <trkpt lat="42.4266945" lon="2.2654598">
        <ele>2154.02001953</ele>
        <time>2021-03-30T09:30:20Z</time>
      </trkpt>
      <trkpt lat="42.4267066" lon="2.2654275">
        <ele>2154.25</ele>
        <time>2021-03-30T09:30:21Z</time>
      </trkpt>
      <trkpt lat="42.4267133" lon="2.2653985">
        <ele>2154.54003906</ele>
        <time>2021-03-30T09:30:22Z</time>
      </trkpt>
      <trkpt lat="42.4267191" lon="2.2653641">
        <ele>2154.7199707</ele>
        <time>2021-03-30T09:30:23Z</time>
      </trkpt>
      <trkpt lat="42.4267248" lon="2.2653355">
        <ele>2154.86010742</ele>
        <time>2021-03-30T09:30:24Z</time>
      </trkpt>
      <trkpt lat="42.4267312" lon="2.2653099">
        <ele>2155</ele>
        <time>2021-03-30T09:30:25Z</time>
      </trkpt>
      <trkpt lat="42.4267257" lon="2.2652825">
        <ele>2155.15991211</ele>
        <time>2021-03-30T09:30:26Z</time>
      </trkpt>
      <trkpt lat="42.4267232" lon="2.2652597">
        <ele>2155.05004883</ele>
        <time>2021-03-30T09:30:27Z</time>
      </trkpt>
      <trkpt lat="42.4267187" lon="2.2652347">
        <ele>2154.98999023</ele>
        <time>2021-03-30T09:30:28Z</time>
      </trkpt>
      <trkpt lat="42.4267085" lon="2.2652062">
        <ele>2154.87988281</ele>
        <time>2021-03-30T09:30:29Z</time>
      </trkpt>
      <trkpt lat="42.4267072" lon="2.2651624">
        <ele>2154.64990234</ele>
        <time>2021-03-30T09:30:30Z</time>
      </trkpt>
      <trkpt lat="42.4266932" lon="2.2651381">
        <ele>2154.59008789</ele>
        <time>2021-03-30T09:30:31Z</time>
      </trkpt>
      <trkpt lat="42.4266795" lon="2.2651211">
        <ele>2154.2800293</ele>
        <time>2021-03-30T09:30:32Z</time>
      </trkpt>
      <trkpt lat="42.4266678" lon="2.2651231">
        <ele>2153.94995117</ele>
        <time>2021-03-30T09:30:33Z</time>
      </trkpt>
      <trkpt lat="42.4266622" lon="2.2651372">
        <ele>2153.64990234</ele>
        <time>2021-03-30T09:30:34Z</time>
      </trkpt>
      <trkpt lat="42.426655" lon="2.2651619">
        <ele>2153.5</ele>
        <time>2021-03-30T09:30:35Z</time>
      </trkpt>
      <trkpt lat="42.4266324" lon="2.2651847">
        <ele>2153.33007812</ele>
        <time>2021-03-30T09:30:36Z</time>
      </trkpt>
      <trkpt lat="42.4266113" lon="2.2652139">
        <ele>2152.81005859</ele>
        <time>2021-03-30T09:30:37Z</time>
      </trkpt>
      <trkpt lat="42.4266012" lon="2.2652563">
        <ele>2152.29003906</ele>
        <time>2021-03-30T09:30:38Z</time>
      </trkpt>
      <trkpt lat="42.4266005" lon="2.2652954">
        <ele>2152.02001953</ele>
        <time>2021-03-30T09:30:39Z</time>
      </trkpt>
      <trkpt lat="42.4266066" lon="2.2653247">
        <ele>2151.97998047</ele>
        <time>2021-03-30T09:30:40Z</time>
      </trkpt>
      <trkpt lat="42.4266159" lon="2.2653656">
        <ele>2152.11010742</ele>
        <time>2021-03-30T09:30:41Z</time>
      </trkpt>
      <trkpt lat="42.4266146" lon="2.2654046">
        <ele>2152.33007812</ele>
        <time>2021-03-30T09:30:42Z</time>
      </trkpt>
      <trkpt lat="42.4266093" lon="2.2654477">
        <ele>2152.32006836</ele>
        <time>2021-03-30T09:30:43Z</time>
      </trkpt>
      <trkpt lat="42.4266017" lon="2.2654867">
        <ele>2152.19995117</ele>
        <time>2021-03-30T09:30:44Z</time>
      </trkpt>
      <trkpt lat="42.4265966" lon="2.2655329">
        <ele>2152.02001953</ele>
        <time>2021-03-30T09:30:45Z</time>
      </trkpt>
      <trkpt lat="42.4265979" lon="2.2655804">
        <ele>2151.88989258</ele>
        <time>2021-03-30T09:30:46Z</time>
      </trkpt>
      <trkpt lat="42.4265911" lon="2.2656161">
        <ele>2152.04003906</ele>
        <time>2021-03-30T09:30:47Z</time>
      </trkpt>
      <trkpt lat="42.4265785" lon="2.2656643">
        <ele>2152.12988281</ele>
        <time>2021-03-30T09:30:48Z</time>
      </trkpt>
      <trkpt lat="42.426576" lon="2.2656985">
        <ele>2152.26000977</ele>
        <time>2021-03-30T09:30:49Z</time>
      </trkpt>
      <trkpt lat="42.426577" lon="2.2657383">
        <ele>2152.48999023</ele>
        <time>2021-03-30T09:30:50Z</time>
      </trkpt>
      <trkpt lat="42.4265847" lon="2.2657702">
        <ele>2152.81005859</ele>
        <time>2021-03-30T09:30:51Z</time>
      </trkpt>
      <trkpt lat="42.4266047" lon="2.2657858">
        <ele>2153.10009766</ele>
        <time>2021-03-30T09:30:52Z</time>
      </trkpt>
      <trkpt lat="42.4266193" lon="2.2657798">
        <ele>2153.2199707</ele>
        <time>2021-03-30T09:30:53Z</time>
      </trkpt>
      <trkpt lat="42.4266346" lon="2.2657522">
        <ele>2153.2800293</ele>
        <time>2021-03-30T09:30:54Z</time>
      </trkpt>
      <trkpt lat="42.4266456" lon="2.265721">
        <ele>2153.30004883</ele>
        <time>2021-03-30T09:30:55Z</time>
      </trkpt>
      <trkpt lat="42.4266534" lon="2.2656915">
        <ele>2153.32006836</ele>
        <time>2021-03-30T09:30:56Z</time>
      </trkpt>
      <trkpt lat="42.4266655" lon="2.2656653">
        <ele>2153.34008789</ele>
        <time>2021-03-30T09:30:57Z</time>
      </trkpt>
      <trkpt lat="42.4266742" lon="2.2656287">
        <ele>2153.37988281</ele>
        <time>2021-03-30T09:30:58Z</time>
      </trkpt>
      <trkpt lat="42.4266762" lon="2.2655941">
        <ele>2153.42993164</ele>
        <time>2021-03-30T09:30:59Z</time>
      </trkpt>
      <trkpt lat="42.4266816" lon="2.2655432">
        <ele>2153.48999023</ele>
        <time>2021-03-30T09:31:00Z</time>
      </trkpt>
      <trkpt lat="42.4266877" lon="2.2655123">
        <ele>2153.55004883</ele>
        <time>2021-03-30T09:31:01Z</time>
      </trkpt>
      <trkpt lat="42.4266974" lon="2.2654793">
        <ele>2153.62011719</ele>
        <time>2021-03-30T09:31:02Z</time>
      </trkpt>
      <trkpt lat="42.4267019" lon="2.2654383">
        <ele>2153.70996094</ele>
        <time>2021-03-30T09:31:03Z</time>
      </trkpt>
      <trkpt lat="42.426712" lon="2.2654061">
        <ele>2153.80004883</ele>
        <time>2021-03-30T09:31:04Z</time>
      </trkpt>
      <trkpt lat="42.4267223" lon="2.2653799">
        <ele>2153.89990234</ele>
        <time>2021-03-30T09:31:05Z</time>
      </trkpt>
      <trkpt lat="42.4267329" lon="2.2653527">
        <ele>2154.02001953</ele>
        <time>2021-03-30T09:31:06Z</time>
      </trkpt>
      <trkpt lat="42.4267404" lon="2.2653153">
        <ele>2154.14990234</ele>
        <time>2021-03-30T09:31:07Z</time>
      </trkpt>
      <trkpt lat="42.4267507" lon="2.2652776">
        <ele>2154.29003906</ele>
        <time>2021-03-30T09:31:08Z</time>
      </trkpt>
      <trkpt lat="42.4267532" lon="2.2652426">
        <ele>2154.43994141</ele>
        <time>2021-03-30T09:31:09Z</time>
      </trkpt>
      <trkpt lat="42.4267476" lon="2.2652174">
        <ele>2154.58007812</ele>
        <time>2021-03-30T09:31:10Z</time>
      </trkpt>
      <trkpt lat="42.4267368" lon="2.2651967">
        <ele>2154.68994141</ele>
        <time>2021-03-30T09:31:11Z</time>
      </trkpt>
      <trkpt lat="42.4267262" lon="2.2651652">
        <ele>2154.76000977</ele>
        <time>2021-03-30T09:31:12Z</time>
      </trkpt>
      <trkpt lat="42.4267111" lon="2.265148">
        <ele>2154.80004883</ele>
        <time>2021-03-30T09:31:13Z</time>
      </trkpt>
      <trkpt lat="42.4266999" lon="2.2651337">
        <ele>2154.79003906</ele>
        <time>2021-03-30T09:31:14Z</time>
      </trkpt>
      <trkpt lat="42.4266938" lon="2.2651226">
        <ele>2154.75</ele>
        <time>2021-03-30T09:31:15Z</time>
      </trkpt>
      <trkpt lat="42.426672" lon="2.265118">
        <ele>2154.69995117</ele>
        <time>2021-03-30T09:31:16Z</time>
      </trkpt>
      <trkpt lat="42.4266676" lon="2.2651153">
        <ele>2154.60009766</ele>
        <time>2021-03-30T09:31:17Z</time>
      </trkpt>
      <trkpt lat="42.4266696" lon="2.2651192">
        <ele>2154.5</ele>
        <time>2021-03-30T09:31:18Z</time>
      </trkpt>
      <trkpt lat="42.4266722" lon="2.2651343">
        <ele>2154.40991211</ele>
        <time>2021-03-30T09:31:19Z</time>
      </trkpt>
      <trkpt lat="42.426671" lon="2.2651488">
        <ele>2154.33007812</ele>
        <time>2021-03-30T09:31:20Z</time>
      </trkpt>
      <trkpt lat="42.4266649" lon="2.2651659">
        <ele>2154.26000977</ele>
        <time>2021-03-30T09:31:21Z</time>
      </trkpt>
      <trkpt lat="42.4266478" lon="2.2651836">
        <ele>2154.18994141</ele>
        <time>2021-03-30T09:31:22Z</time>
      </trkpt>
      <trkpt lat="42.4266388" lon="2.2652214">
        <ele>2154.08007812</ele>
        <time>2021-03-30T09:31:23Z</time>
      </trkpt>
      <trkpt lat="42.4266265" lon="2.2652439">
        <ele>2153.95996094</ele>
        <time>2021-03-30T09:31:24Z</time>
      </trkpt>
      <trkpt lat="42.4266148" lon="2.2652553">
        <ele>2153.82006836</ele>
        <time>2021-03-30T09:31:25Z</time>
      </trkpt>
      <trkpt lat="42.4266072" lon="2.2652727">
        <ele>2153.65991211</ele>
        <time>2021-03-30T09:31:26Z</time>
      </trkpt>
      <trkpt lat="42.4265976" lon="2.2652894">
        <ele>2153.5</ele>
        <time>2021-03-30T09:31:27Z</time>
      </trkpt>
      <trkpt lat="42.4265921" lon="2.2653235">
        <ele>2153.33007812</ele>
        <time>2021-03-30T09:31:28Z</time>
      </trkpt>
      <trkpt lat="42.4266002" lon="2.2653347">
        <ele>2153.15991211</ele>
        <time>2021-03-30T09:31:29Z</time>
      </trkpt>
      <trkpt lat="42.4266007" lon="2.2653645">
        <ele>2153.0300293</ele>
        <time>2021-03-30T09:31:30Z</time>
      </trkpt>
      <trkpt lat="42.4265988" lon="2.2653956">
        <ele>2152.91992188</ele>
        <time>2021-03-30T09:31:31Z</time>
      </trkpt>
      <trkpt lat="42.4265918" lon="2.2654404">
        <ele>2152.81005859</ele>
        <time>2021-03-30T09:31:32Z</time>
      </trkpt>
      <trkpt lat="42.4265927" lon="2.2654854">
        <ele>2152.69995117</ele>
        <time>2021-03-30T09:31:33Z</time>
      </trkpt>
      <trkpt lat="42.4265914" lon="2.2655245">
        <ele>2152.60009766</ele>
        <time>2021-03-30T09:31:34Z</time>
      </trkpt>
      <trkpt lat="42.4265943" lon="2.2655594">
        <ele>2152.51000977</ele>
        <time>2021-03-30T09:31:35Z</time>
      </trkpt>
      <trkpt lat="42.4265938" lon="2.2655924">
        <ele>2152.43994141</ele>
        <time>2021-03-30T09:31:36Z</time>
      </trkpt>
      <trkpt lat="42.4265752" lon="2.2656255">
        <ele>2152.38989258</ele>
        <time>2021-03-30T09:31:37Z</time>
      </trkpt>
      <trkpt lat="42.4265623" lon="2.2656667">
        <ele>2152.34008789</ele>
        <time>2021-03-30T09:31:38Z</time>
      </trkpt>
      <trkpt lat="42.4265701" lon="2.265699">
        <ele>2152.31005859</ele>
        <time>2021-03-30T09:31:39Z</time>
      </trkpt>
      <trkpt lat="42.4265809" lon="2.2657282">
        <ele>2152.32006836</ele>
        <time>2021-03-30T09:31:40Z</time>
      </trkpt>
      <trkpt lat="42.4265935" lon="2.2657514">
        <ele>2152.37011719</ele>
        <time>2021-03-30T09:31:41Z</time>
      </trkpt>
      <trkpt lat="42.4266094" lon="2.2657731">
        <ele>2152.43994141</ele>
        <time>2021-03-30T09:31:42Z</time>
      </trkpt>
      <trkpt lat="42.4266171" lon="2.2657715">
        <ele>2152.5300293</ele>
        <time>2021-03-30T09:31:43Z</time>
      </trkpt>
      <trkpt lat="42.4266338" lon="2.2657558">
        <ele>2152.61010742</ele>
        <time>2021-03-30T09:31:44Z</time>
      </trkpt>
      <trkpt lat="42.4266467" lon="2.2657251">
        <ele>2152.68994141</ele>
        <time>2021-03-30T09:31:45Z</time>
      </trkpt>
      <trkpt lat="42.426658" lon="2.2656959">
        <ele>2152.77001953</ele>
        <time>2021-03-30T09:31:46Z</time>
      </trkpt>
      <trkpt lat="42.4266607" lon="2.2656688">
        <ele>2152.85009766</ele>
        <time>2021-03-30T09:31:47Z</time>
      </trkpt>
      <trkpt lat="42.42667" lon="2.2656383">
        <ele>2152.91992188</ele>
        <time>2021-03-30T09:31:48Z</time>
      </trkpt>
      <trkpt lat="42.4266839" lon="2.2655986">
        <ele>2153</ele>
        <time>2021-03-30T09:31:49Z</time>
      </trkpt>
      <trkpt lat="42.4266961" lon="2.2655535">
        <ele>2153.10009766</ele>
        <time>2021-03-30T09:31:50Z</time>
      </trkpt>
      <trkpt lat="42.4266952" lon="2.2655167">
        <ele>2153.22998047</ele>
        <time>2021-03-30T09:31:51Z</time>
      </trkpt>
      <trkpt lat="42.4267061" lon="2.2654761">
        <ele>2153.34008789</ele>
        <time>2021-03-30T09:31:52Z</time>
      </trkpt>
      <trkpt lat="42.4267198" lon="2.2654361">
        <ele>2153.4699707</ele>
        <time>2021-03-30T09:31:53Z</time>
      </trkpt>
      <trkpt lat="42.4267342" lon="2.2654009">
        <ele>2153.62011719</ele>
        <time>2021-03-30T09:31:54Z</time>
      </trkpt>
      <trkpt lat="42.4267443" lon="2.2653659">
        <ele>2153.79003906</ele>
        <time>2021-03-30T09:31:55Z</time>
      </trkpt>
      <trkpt lat="42.426752" lon="2.2653199">
        <ele>2153.9699707</ele>
        <time>2021-03-30T09:31:56Z</time>
      </trkpt>
      <trkpt lat="42.4267522" lon="2.2652924">
        <ele>2154.15991211</ele>
        <time>2021-03-30T09:31:57Z</time>
      </trkpt>
      <trkpt lat="42.4267638" lon="2.2652591">
        <ele>2154.32006836</ele>
        <time>2021-03-30T09:31:58Z</time>
      </trkpt>
      <trkpt lat="42.4267675" lon="2.2652247">
        <ele>2154.5</ele>
        <time>2021-03-30T09:31:59Z</time>
      </trkpt>
      <trkpt lat="42.4267541" lon="2.2651985">
        <ele>2154.65991211</ele>
        <time>2021-03-30T09:32:00Z</time>
      </trkpt>
      <trkpt lat="42.4267326" lon="2.2651785">
        <ele>2154.7800293</ele>
        <time>2021-03-30T09:32:01Z</time>
      </trkpt>
      <trkpt lat="42.4267121" lon="2.2651606">
        <ele>2154.84008789</ele>
        <time>2021-03-30T09:32:02Z</time>
      </trkpt>
      <trkpt lat="42.426689" lon="2.2651428">
        <ele>2154.83007812</ele>
        <time>2021-03-30T09:32:03Z</time>
      </trkpt>
      <trkpt lat="42.4266681" lon="2.2651235">
        <ele>2154.76000977</ele>
        <time>2021-03-30T09:32:04Z</time>
      </trkpt>
      <trkpt lat="42.4266564" lon="2.2651123">
        <ele>2154.64990234</ele>
        <time>2021-03-30T09:32:05Z</time>
      </trkpt>
      <trkpt lat="42.4266559" lon="2.2650969">
        <ele>2154.51000977</ele>
        <time>2021-03-30T09:32:06Z</time>
      </trkpt>
      <trkpt lat="42.4266471" lon="2.2651022">
        <ele>2154.37988281</ele>
        <time>2021-03-30T09:32:07Z</time>
      </trkpt>
      <trkpt lat="42.4266437" lon="2.2651137">
        <ele>2154.25</ele>
        <time>2021-03-30T09:32:08Z</time>
      </trkpt>
      <trkpt lat="42.4266561" lon="2.265119">
        <ele>2153.32006836</ele>
        <time>2021-03-30T09:33:03Z</time>
      </trkpt>
      <trkpt lat="42.4266469" lon="2.2651178">
        <ele>2153.33007812</ele>
        <time>2021-03-30T09:33:04Z</time>
      </trkpt>
      <trkpt lat="42.4266289" lon="2.2651269">
        <ele>2153.12988281</ele>
        <time>2021-03-30T09:33:05Z</time>
      </trkpt>
      <trkpt lat="42.4266088" lon="2.2651312">
        <ele>2152.70996094</ele>
        <time>2021-03-30T09:33:06Z</time>
      </trkpt>
      <trkpt lat="42.426601" lon="2.2651429">
        <ele>2152.22998047</ele>
        <time>2021-03-30T09:33:07Z</time>
      </trkpt>
      <trkpt lat="42.4265982" lon="2.265167">
        <ele>2152.01000977</ele>
        <time>2021-03-30T09:33:08Z</time>
      </trkpt>
      <trkpt lat="42.4265935" lon="2.2651992">
        <ele>2151.91992188</ele>
        <time>2021-03-30T09:33:09Z</time>
      </trkpt>
      <trkpt lat="42.4265999" lon="2.2652358">
        <ele>2151.81005859</ele>
        <time>2021-03-30T09:33:10Z</time>
      </trkpt>
      <trkpt lat="42.4265965" lon="2.2652715">
        <ele>2151.93994141</ele>
        <time>2021-03-30T09:33:11Z</time>
      </trkpt>
      <trkpt lat="42.4265911" lon="2.2653031">
        <ele>2151.87988281</ele>
        <time>2021-03-30T09:33:12Z</time>
      </trkpt>
      <trkpt lat="42.426586" lon="2.265343">
        <ele>2151.75</ele>
        <time>2021-03-30T09:33:13Z</time>
      </trkpt>
      <trkpt lat="42.4265831" lon="2.2653852">
        <ele>2151.62988281</ele>
        <time>2021-03-30T09:33:14Z</time>
      </trkpt>
      <trkpt lat="42.4265802" lon="2.2654209">
        <ele>2151.55004883</ele>
        <time>2021-03-30T09:33:15Z</time>
      </trkpt>
      <trkpt lat="42.426578" lon="2.2654607">
        <ele>2151.47998047</ele>
        <time>2021-03-30T09:33:16Z</time>
      </trkpt>
      <trkpt lat="42.4265751" lon="2.2654969">
        <ele>2151.42993164</ele>
        <time>2021-03-30T09:33:17Z</time>
      </trkpt>
      <trkpt lat="42.4265712" lon="2.2655306">
        <ele>2151.36010742</ele>
        <time>2021-03-30T09:33:18Z</time>
      </trkpt>
      <trkpt lat="42.4265795" lon="2.2655669">
        <ele>2151.26000977</ele>
        <time>2021-03-30T09:33:19Z</time>
      </trkpt>
      <trkpt lat="42.4265812" lon="2.2656001">
        <ele>2151.52001953</ele>
        <time>2021-03-30T09:33:20Z</time>
      </trkpt>
      <trkpt lat="42.4265601" lon="2.2656291">
        <ele>2151.80004883</ele>
        <time>2021-03-30T09:33:21Z</time>
      </trkpt>
      <trkpt lat="42.4265414" lon="2.2656575">
        <ele>2151.67993164</ele>
        <time>2021-03-30T09:33:22Z</time>
      </trkpt>
      <trkpt lat="42.4265415" lon="2.2656934">
        <ele>2151.64990234</ele>
        <time>2021-03-30T09:33:23Z</time>
      </trkpt>
      <trkpt lat="42.4265408" lon="2.2657398">
        <ele>2152.01000977</ele>
        <time>2021-03-30T09:33:24Z</time>
      </trkpt>
      <trkpt lat="42.4265492" lon="2.2657647">
        <ele>2152.5</ele>
        <time>2021-03-30T09:33:25Z</time>
      </trkpt>
      <trkpt lat="42.4265565" lon="2.2657921">
        <ele>2152.84008789</ele>
        <time>2021-03-30T09:33:26Z</time>
      </trkpt>
      <trkpt lat="42.4265709" lon="2.2657938">
        <ele>2153.15991211</ele>
        <time>2021-03-30T09:33:27Z</time>
      </trkpt>
      <trkpt lat="42.4265868" lon="2.2657876">
        <ele>2153.25</ele>
        <time>2021-03-30T09:33:28Z</time>
      </trkpt>
      <trkpt lat="42.4266037" lon="2.26576">
        <ele>2153.27001953</ele>
        <time>2021-03-30T09:33:29Z</time>
      </trkpt>
      <trkpt lat="42.42662" lon="2.265738">
        <ele>2153.18994141</ele>
        <time>2021-03-30T09:33:30Z</time>
      </trkpt>
      <trkpt lat="42.4266293" lon="2.2657127">
        <ele>2153.19995117</ele>
        <time>2021-03-30T09:33:31Z</time>
      </trkpt>
      <trkpt lat="42.4266366" lon="2.2656745">
        <ele>2153.19995117</ele>
        <time>2021-03-30T09:33:32Z</time>
      </trkpt>
      <trkpt lat="42.4266529" lon="2.265638">
        <ele>2153.16992188</ele>
        <time>2021-03-30T09:33:33Z</time>
      </trkpt>
      <trkpt lat="42.4266633" lon="2.2656159">
        <ele>2153.34008789</ele>
        <time>2021-03-30T09:33:34Z</time>
      </trkpt>
      <trkpt lat="42.4266779" lon="2.265589">
        <ele>2153.51000977</ele>
        <time>2021-03-30T09:33:35Z</time>
      </trkpt>
      <trkpt lat="42.4266894" lon="2.2655532">
        <ele>2153.83007812</ele>
        <time>2021-03-30T09:33:36Z</time>
      </trkpt>
      <trkpt lat="42.4267007" lon="2.2655213">
        <ele>2154.12011719</ele>
        <time>2021-03-30T09:33:37Z</time>
      </trkpt>
      <trkpt lat="42.4267103" lon="2.2654936">
        <ele>2154.39990234</ele>
        <time>2021-03-30T09:33:38Z</time>
      </trkpt>
      <trkpt lat="42.4267186" lon="2.2654635">
        <ele>2154.63989258</ele>
        <time>2021-03-30T09:33:39Z</time>
      </trkpt>
      <trkpt lat="42.4267289" lon="2.2654367">
        <ele>2154.84008789</ele>
        <time>2021-03-30T09:33:40Z</time>
      </trkpt>
      <trkpt lat="42.4267375" lon="2.2654154">
        <ele>2155.09008789</ele>
        <time>2021-03-30T09:33:41Z</time>
      </trkpt>
      <trkpt lat="42.4267468" lon="2.2653787">
        <ele>2155.31005859</ele>
        <time>2021-03-30T09:33:42Z</time>
      </trkpt>
      <trkpt lat="42.4267621" lon="2.2653524">
        <ele>2155.5300293</ele>
        <time>2021-03-30T09:33:43Z</time>
      </trkpt>
      <trkpt lat="42.4267756" lon="2.2653225">
        <ele>2155.89990234</ele>
        <time>2021-03-30T09:33:44Z</time>
      </trkpt>
      <trkpt lat="42.4267839" lon="2.2653048">
        <ele>2156.22998047</ele>
        <time>2021-03-30T09:33:45Z</time>
      </trkpt>
      <trkpt lat="42.4267894" lon="2.2652732">
        <ele>2156.44995117</ele>
        <time>2021-03-30T09:33:46Z</time>
      </trkpt>
      <trkpt lat="42.4267955" lon="2.2652549">
        <ele>2156.59008789</ele>
        <time>2021-03-30T09:33:47Z</time>
      </trkpt>
      <trkpt lat="42.4267938" lon="2.2652356">
        <ele>2156.73999023</ele>
        <time>2021-03-30T09:33:48Z</time>
      </trkpt>
      <trkpt lat="42.4267744" lon="2.2652112">
        <ele>2156.70996094</ele>
        <time>2021-03-30T09:33:49Z</time>
      </trkpt>
      <trkpt lat="42.4267556" lon="2.2651934">
        <ele>2156.29003906</ele>
        <time>2021-03-30T09:33:50Z</time>
      </trkpt>
      <trkpt lat="42.4267329" lon="2.2651751">
        <ele>2155.83007812</ele>
        <time>2021-03-30T09:33:51Z</time>
      </trkpt>
      <trkpt lat="42.426721" lon="2.2651664">
        <ele>2155.2800293</ele>
        <time>2021-03-30T09:33:52Z</time>
      </trkpt>
      <trkpt lat="42.426712" lon="2.2651536">
        <ele>2154.95996094</ele>
        <time>2021-03-30T09:33:53Z</time>
      </trkpt>
      <trkpt lat="42.4267034" lon="2.2651419">
        <ele>2154.72998047</ele>
        <time>2021-03-30T09:33:54Z</time>
      </trkpt>
      <trkpt lat="42.4266944" lon="2.2651382">
        <ele>2154.52001953</ele>
        <time>2021-03-30T09:33:55Z</time>
      </trkpt>
      <trkpt lat="42.4266868" lon="2.2651337">
        <ele>2154.30004883</ele>
        <time>2021-03-30T09:33:56Z</time>
      </trkpt>
      <trkpt lat="42.4266763" lon="2.2651319">
        <ele>2154.11010742</ele>
        <time>2021-03-30T09:33:57Z</time>
      </trkpt>
      <trkpt lat="42.4266699" lon="2.2651395">
        <ele>2153.86010742</ele>
        <time>2021-03-30T09:33:58Z</time>
      </trkpt>
      <trkpt lat="42.4266741" lon="2.265095">
        <ele>2153.81005859</ele>
        <time>2021-03-30T09:34:11Z</time>
      </trkpt>
      <trkpt lat="42.4266684" lon="2.265076">
        <ele>2153.7800293</ele>
        <time>2021-03-30T09:34:12Z</time>
      </trkpt>
      <trkpt lat="42.4266561" lon="2.2650797">
        <ele>2153.64990234</ele>
        <time>2021-03-30T09:34:13Z</time>
      </trkpt>
      <trkpt lat="42.4266391" lon="2.2650689">
        <ele>2153.37011719</ele>
        <time>2021-03-30T09:34:14Z</time>
      </trkpt>
      <trkpt lat="42.426616" lon="2.2650501">
        <ele>2152.95996094</ele>
        <time>2021-03-30T09:34:15Z</time>
      </trkpt>
      <trkpt lat="42.4265619" lon="2.2650081">
        <ele>2152.40991211</ele>
        <time>2021-03-30T09:34:16Z</time>
      </trkpt>
      <trkpt lat="42.4265226" lon="2.2649855">
        <ele>2151.15991211</ele>
        <time>2021-03-30T09:34:17Z</time>
      </trkpt>
      <trkpt lat="42.426482" lon="2.2649642">
        <ele>2150.34008789</ele>
        <time>2021-03-30T09:34:18Z</time>
      </trkpt>
      <trkpt lat="42.4264415" lon="2.2649389">
        <ele>2149.7199707</ele>
        <time>2021-03-30T09:34:19Z</time>
      </trkpt>
      <trkpt lat="42.4264041" lon="2.2649109">
        <ele>2149.33007812</ele>
        <time>2021-03-30T09:34:20Z</time>
      </trkpt>
      <trkpt lat="42.4263833" lon="2.2648799">
        <ele>2149.22998047</ele>
        <time>2021-03-30T09:34:21Z</time>
      </trkpt>
      <trkpt lat="42.4263543" lon="2.264865">
        <ele>2149.62011719</ele>
        <time>2021-03-30T09:34:22Z</time>
      </trkpt>
      <trkpt lat="42.4263094" lon="2.2648493">
        <ele>2149.66992188</ele>
        <time>2021-03-30T09:34:23Z</time>
      </trkpt>
      <trkpt lat="42.4262585" lon="2.2648505">
        <ele>2149.43994141</ele>
        <time>2021-03-30T09:34:24Z</time>
      </trkpt>
      <trkpt lat="42.4262105" lon="2.2648465">
        <ele>2148.80004883</ele>
        <time>2021-03-30T09:34:25Z</time>
      </trkpt>
      <trkpt lat="42.4261556" lon="2.2648472">
        <ele>2148.18994141</ele>
        <time>2021-03-30T09:34:26Z</time>
      </trkpt>
      <trkpt lat="42.4261044" lon="2.2648492">
        <ele>2147.45996094</ele>
        <time>2021-03-30T09:34:27Z</time>
      </trkpt>
      <trkpt lat="42.4260533" lon="2.2648382">
        <ele>2146.7800293</ele>
        <time>2021-03-30T09:34:28Z</time>
      </trkpt>
      <trkpt lat="42.4260087" lon="2.2648099">
        <ele>2146.47998047</ele>
        <time>2021-03-30T09:34:29Z</time>
      </trkpt>
      <trkpt lat="42.4259679" lon="2.2647619">
        <ele>2146.31005859</ele>
        <time>2021-03-30T09:34:30Z</time>
      </trkpt>
      <trkpt lat="42.4259415" lon="2.2647012">
        <ele>2146.29003906</ele>
        <time>2021-03-30T09:34:31Z</time>
      </trkpt>
      <trkpt lat="42.425917" lon="2.2646391">
        <ele>2146.41992188</ele>
        <time>2021-03-30T09:34:32Z</time>
      </trkpt>
      <trkpt lat="42.4258945" lon="2.2645885">
        <ele>2146.59008789</ele>
        <time>2021-03-30T09:34:33Z</time>
      </trkpt>
      <trkpt lat="42.4258734" lon="2.2645408">
        <ele>2146.73999023</ele>
        <time>2021-03-30T09:34:34Z</time>
      </trkpt>
      <trkpt lat="42.4258477" lon="2.2644815">
        <ele>2146.85009766</ele>
        <time>2021-03-30T09:34:35Z</time>
      </trkpt>
      <trkpt lat="42.4258173" lon="2.2644216">
        <ele>2146.88989258</ele>
        <time>2021-03-30T09:34:36Z</time>
      </trkpt>
      <trkpt lat="42.4257836" lon="2.2643683">
        <ele>2146.87988281</ele>
        <time>2021-03-30T09:34:37Z</time>
      </trkpt>
      <trkpt lat="42.4257431" lon="2.2643388">
        <ele>2146.82006836</ele>
        <time>2021-03-30T09:34:38Z</time>
      </trkpt>
      <trkpt lat="42.4256977" lon="2.2643504">
        <ele>2146.7199707</ele>
        <time>2021-03-30T09:34:39Z</time>
      </trkpt>
      <trkpt lat="42.4256573" lon="2.2643632">
        <ele>2146.60009766</ele>
        <time>2021-03-30T09:34:40Z</time>
      </trkpt>
      <trkpt lat="42.4256122" lon="2.2643979">
        <ele>2146.4699707</ele>
        <time>2021-03-30T09:34:41Z</time>
      </trkpt>
      <trkpt lat="42.4255684" lon="2.264435">
        <ele>2146.39990234</ele>
        <time>2021-03-30T09:34:42Z</time>
      </trkpt>
      <trkpt lat="42.4255233" lon="2.2644848">
        <ele>2146.40991211</ele>
        <time>2021-03-30T09:34:43Z</time>
      </trkpt>
      <trkpt lat="42.4254822" lon="2.2645358">
        <ele>2146.38989258</ele>
        <time>2021-03-30T09:34:44Z</time>
      </trkpt>
      <trkpt lat="42.425447" lon="2.2645876">
        <ele>2146.32006836</ele>
        <time>2021-03-30T09:34:45Z</time>
      </trkpt>
      <trkpt lat="42.4254079" lon="2.2646363">
        <ele>2145.90991211</ele>
        <time>2021-03-30T09:34:46Z</time>
      </trkpt>
      <trkpt lat="42.4253754" lon="2.2646983">
        <ele>2145.44995117</ele>
        <time>2021-03-30T09:34:47Z</time>
      </trkpt>
      <trkpt lat="42.425349" lon="2.2647462">
        <ele>2145.0300293</ele>
        <time>2021-03-30T09:34:48Z</time>
      </trkpt>
      <trkpt lat="42.4253345" lon="2.2647995">
        <ele>2144.59008789</ele>
        <time>2021-03-30T09:34:49Z</time>
      </trkpt>
      <trkpt lat="42.4253311" lon="2.2648599">
        <ele>2144.01000977</ele>
        <time>2021-03-30T09:34:50Z</time>
      </trkpt>
      <trkpt lat="42.4253365" lon="2.2649067">
        <ele>2143.34008789</ele>
        <time>2021-03-30T09:34:51Z</time>
      </trkpt>
      <trkpt lat="42.4253583" lon="2.2649563">
        <ele>2142.62011719</ele>
        <time>2021-03-30T09:34:52Z</time>
      </trkpt>
      <trkpt lat="42.4253868" lon="2.2650037">
        <ele>2141.91992188</ele>
        <time>2021-03-30T09:34:53Z</time>
      </trkpt>
      <trkpt lat="42.4254274" lon="2.2650368">
        <ele>2141.23999023</ele>
        <time>2021-03-30T09:34:54Z</time>
      </trkpt>
      <trkpt lat="42.4254835" lon="2.2650629">
        <ele>2140.60009766</ele>
        <time>2021-03-30T09:34:55Z</time>
      </trkpt>
      <trkpt lat="42.4255407" lon="2.2650832">
        <ele>2140.04003906</ele>
        <time>2021-03-30T09:34:56Z</time>
      </trkpt>
      <trkpt lat="42.4256001" lon="2.2650975">
        <ele>2139.56005859</ele>
        <time>2021-03-30T09:34:57Z</time>
      </trkpt>
      <trkpt lat="42.4256643" lon="2.2651079">
        <ele>2139.12011719</ele>
        <time>2021-03-30T09:34:58Z</time>
      </trkpt>
      <trkpt lat="42.4257216" lon="2.265107">
        <ele>2138.75</ele>
        <time>2021-03-30T09:34:59Z</time>
      </trkpt>
      <trkpt lat="42.4257755" lon="2.265113">
        <ele>2138.47998047</ele>
        <time>2021-03-30T09:35:00Z</time>
      </trkpt>
      <trkpt lat="42.4258337" lon="2.2651201">
        <ele>2138.27001953</ele>
        <time>2021-03-30T09:35:01Z</time>
      </trkpt>
      <trkpt lat="42.425888" lon="2.2651245">
        <ele>2138.12988281</ele>
        <time>2021-03-30T09:35:02Z</time>
      </trkpt>
      <trkpt lat="42.4259456" lon="2.2651352">
        <ele>2138.07006836</ele>
        <time>2021-03-30T09:35:03Z</time>
      </trkpt>
      <trkpt lat="42.4259997" lon="2.2651515">
        <ele>2138.07006836</ele>
        <time>2021-03-30T09:35:04Z</time>
      </trkpt>
      <trkpt lat="42.4260542" lon="2.2651577">
        <ele>2138.07006836</ele>
        <time>2021-03-30T09:35:05Z</time>
      </trkpt>
      <trkpt lat="42.4261072" lon="2.2651643">
        <ele>2138.11010742</ele>
        <time>2021-03-30T09:35:06Z</time>
      </trkpt>
      <trkpt lat="42.4261543" lon="2.2651758">
        <ele>2138.15991211</ele>
        <time>2021-03-30T09:35:07Z</time>
      </trkpt>
      <trkpt lat="42.4261926" lon="2.2651882">
        <ele>2138.30004883</ele>
        <time>2021-03-30T09:35:08Z</time>
      </trkpt>
      <trkpt lat="42.4262233" lon="2.2652061">
        <ele>2138.5</ele>
        <time>2021-03-30T09:35:09Z</time>
      </trkpt>
      <trkpt lat="42.4262491" lon="2.2652378">
        <ele>2138.73999023</ele>
        <time>2021-03-30T09:35:10Z</time>
      </trkpt>
      <trkpt lat="42.4262641" lon="2.2652689">
        <ele>2138.9699707</ele>
        <time>2021-03-30T09:35:11Z</time>
      </trkpt>
      <trkpt lat="42.426275" lon="2.2653171">
        <ele>2139.16992188</ele>
        <time>2021-03-30T09:35:12Z</time>
      </trkpt>
      <trkpt lat="42.4262867" lon="2.265348">
        <ele>2139.38989258</ele>
        <time>2021-03-30T09:35:13Z</time>
      </trkpt>
      <trkpt lat="42.4262875" lon="2.2653731">
        <ele>2139.63989258</ele>
        <time>2021-03-30T09:35:14Z</time>
      </trkpt>
      <trkpt lat="42.4262737" lon="2.2653841">
        <ele>2141.59008789</ele>
        <time>2021-03-30T09:35:15Z</time>
      </trkpt>
      <trkpt lat="42.4262789" lon="2.2653976">
        <ele>2141.17993164</ele>
        <time>2021-03-30T09:35:16Z</time>
      </trkpt>
      <trkpt lat="42.4263225" lon="2.2654331">
        <ele>2143.45996094</ele>
        <time>2021-03-30T09:39:19Z</time>
      </trkpt>
      <trkpt lat="42.4263208" lon="2.2654316">
        <ele>2143.52001953</ele>
        <time>2021-03-30T09:39:20Z</time>
      </trkpt>
      <trkpt lat="42.4263178" lon="2.2654356">
        <ele>2143.44995117</ele>
        <time>2021-03-30T09:39:21Z</time>
      </trkpt>
      <trkpt lat="42.4263187" lon="2.2654404">
        <ele>2143.31005859</ele>
        <time>2021-03-30T09:39:22Z</time>
      </trkpt>
      <trkpt lat="42.426324" lon="2.2654427">
        <ele>2143.33007812</ele>
        <time>2021-03-30T09:39:24Z</time>
      </trkpt>
      <trkpt lat="42.4263266" lon="2.26544">
        <ele>2143.57006836</ele>
        <time>2021-03-30T09:39:25Z</time>
      </trkpt>
      <trkpt lat="42.4263207" lon="2.2654433">
        <ele>2143.70996094</ele>
        <time>2021-03-30T09:39:26Z</time>
      </trkpt>
      <trkpt lat="42.4263109" lon="2.2654479">
        <ele>2143.45996094</ele>
        <time>2021-03-30T09:39:27Z</time>
      </trkpt>
      <trkpt lat="42.4263026" lon="2.2654547">
        <ele>2143.01000977</ele>
        <time>2021-03-30T09:39:28Z</time>
      </trkpt>
      <trkpt lat="42.4262944" lon="2.2654563">
        <ele>2142.59008789</ele>
        <time>2021-03-30T09:39:29Z</time>
      </trkpt>
      <trkpt lat="42.4261565" lon="2.2653879">
        <ele>2135.41992188</ele>
        <time>2021-03-30T09:41:37Z</time>
      </trkpt>
      <trkpt lat="42.4261554" lon="2.2653871">
        <ele>2135.38989258</ele>
        <time>2021-03-30T09:41:38Z</time>
      </trkpt>
      <trkpt lat="42.4261517" lon="2.2653846">
        <ele>2135.33007812</ele>
        <time>2021-03-30T09:41:39Z</time>
      </trkpt>
      <trkpt lat="42.4261473" lon="2.2653783">
        <ele>2135.16992188</ele>
        <time>2021-03-30T09:41:40Z</time>
      </trkpt>
      <trkpt lat="42.4261367" lon="2.2653706">
        <ele>2134.95996094</ele>
        <time>2021-03-30T09:41:41Z</time>
      </trkpt>
      <trkpt lat="42.426095" lon="2.2653719">
        <ele>2134.4699707</ele>
        <time>2021-03-30T09:41:42Z</time>
      </trkpt>
      <trkpt lat="42.4260569" lon="2.2653701">
        <ele>2133.29003906</ele>
        <time>2021-03-30T09:41:43Z</time>
      </trkpt>
      <trkpt lat="42.4260464" lon="2.2653668">
        <ele>2133.16992188</ele>
        <time>2021-03-30T09:41:44Z</time>
      </trkpt>
      <trkpt lat="42.4260375" lon="2.2653591">
        <ele>2133.15991211</ele>
        <time>2021-03-30T09:41:45Z</time>
      </trkpt>
      <trkpt lat="42.4260336" lon="2.2653508">
        <ele>2133.14990234</ele>
        <time>2021-03-30T09:41:46Z</time>
      </trkpt>
      <trkpt lat="42.4260353" lon="2.2653485">
        <ele>2133.14990234</ele>
        <time>2021-03-30T09:41:47Z</time>
      </trkpt>
      <trkpt lat="42.4260184" lon="2.2653484">
        <ele>2133.14990234</ele>
        <time>2021-03-30T09:42:06Z</time>
      </trkpt>
      <trkpt lat="42.426012" lon="2.2653545">
        <ele>2133.14990234</ele>
        <time>2021-03-30T09:42:07Z</time>
      </trkpt>
      <trkpt lat="42.4259929" lon="2.2653571">
        <ele>2133.14990234</ele>
        <time>2021-03-30T09:42:08Z</time>
      </trkpt>
      <trkpt lat="42.4259719" lon="2.2653485">
        <ele>2133.14990234</ele>
        <time>2021-03-30T09:42:09Z</time>
      </trkpt>
      <trkpt lat="42.425916" lon="2.265331">
        <ele>2133.14990234</ele>
        <time>2021-03-30T09:42:10Z</time>
      </trkpt>
      <trkpt lat="42.4258641" lon="2.265312">
        <ele>2133.14990234</ele>
        <time>2021-03-30T09:42:11Z</time>
      </trkpt>
      <trkpt lat="42.4258229" lon="2.2652991">
        <ele>2133.14990234</ele>
        <time>2021-03-30T09:42:12Z</time>
      </trkpt>
      <trkpt lat="42.4257872" lon="2.2652795">
        <ele>2132.90991211</ele>
        <time>2021-03-30T09:42:13Z</time>
      </trkpt>
      <trkpt lat="42.4257398" lon="2.2652623">
        <ele>2132.10009766</ele>
        <time>2021-03-30T09:42:14Z</time>
      </trkpt>
      <trkpt lat="42.4256925" lon="2.2652541">
        <ele>2131.43994141</ele>
        <time>2021-03-30T09:42:15Z</time>
      </trkpt>
      <trkpt lat="42.4256396" lon="2.265242">
        <ele>2130.65991211</ele>
        <time>2021-03-30T09:42:16Z</time>
      </trkpt>
      <trkpt lat="42.4255814" lon="2.2652096">
        <ele>2129.9699707</ele>
        <time>2021-03-30T09:42:17Z</time>
      </trkpt>
      <trkpt lat="42.4255116" lon="2.2651933">
        <ele>2130.13989258</ele>
        <time>2021-03-30T09:42:18Z</time>
      </trkpt>
      <trkpt lat="42.4254453" lon="2.2651896">
        <ele>2130.14990234</ele>
        <time>2021-03-30T09:42:19Z</time>
      </trkpt>
      <trkpt lat="42.4253804" lon="2.2651911">
        <ele>2129.84008789</ele>
        <time>2021-03-30T09:42:20Z</time>
      </trkpt>
      <trkpt lat="42.4253288" lon="2.2651872">
        <ele>2129.31005859</ele>
        <time>2021-03-30T09:42:21Z</time>
      </trkpt>
      <trkpt lat="42.4252789" lon="2.2651817">
        <ele>2129</ele>
        <time>2021-03-30T09:42:22Z</time>
      </trkpt>
      <trkpt lat="42.4252431" lon="2.2651797">
        <ele>2128.73999023</ele>
        <time>2021-03-30T09:42:23Z</time>
      </trkpt>
      <trkpt lat="42.4252023" lon="2.2651888">
        <ele>2127.97998047</ele>
        <time>2021-03-30T09:42:24Z</time>
      </trkpt>
      <trkpt lat="42.4251584" lon="2.2652074">
        <ele>2126.80004883</ele>
        <time>2021-03-30T09:42:25Z</time>
      </trkpt>
      <trkpt lat="42.4251116" lon="2.2652318">
        <ele>2125.31005859</ele>
        <time>2021-03-30T09:42:26Z</time>
      </trkpt>
      <trkpt lat="42.4250663" lon="2.265266">
        <ele>2123.58007812</ele>
        <time>2021-03-30T09:42:27Z</time>
      </trkpt>
      <trkpt lat="42.4250098" lon="2.2652851">
        <ele>2121.65991211</ele>
        <time>2021-03-30T09:42:28Z</time>
      </trkpt>
      <trkpt lat="42.4249639" lon="2.265287">
        <ele>2119.79003906</ele>
        <time>2021-03-30T09:42:29Z</time>
      </trkpt>
      <trkpt lat="42.4249231" lon="2.2652631">
        <ele>2118.58007812</ele>
        <time>2021-03-30T09:42:30Z</time>
      </trkpt>
      <trkpt lat="42.4248749" lon="2.2652246">
        <ele>2117.9699707</ele>
        <time>2021-03-30T09:42:31Z</time>
      </trkpt>
      <trkpt lat="42.4248285" lon="2.2651744">
        <ele>2117.26000977</ele>
        <time>2021-03-30T09:42:32Z</time>
      </trkpt>
      <trkpt lat="42.4247966" lon="2.2651173">
        <ele>2116.38989258</ele>
        <time>2021-03-30T09:42:33Z</time>
      </trkpt>
      <trkpt lat="42.4247656" lon="2.2650551">
        <ele>2115.66992188</ele>
        <time>2021-03-30T09:42:34Z</time>
      </trkpt>
      <trkpt lat="42.4247436" lon="2.2649872">
        <ele>2114.73999023</ele>
        <time>2021-03-30T09:42:35Z</time>
      </trkpt>
      <trkpt lat="42.4247386" lon="2.2649163">
        <ele>2114.12011719</ele>
        <time>2021-03-30T09:42:36Z</time>
      </trkpt>
      <trkpt lat="42.4247329" lon="2.2648458">
        <ele>2115.32006836</ele>
        <time>2021-03-30T09:42:37Z</time>
      </trkpt>
      <trkpt lat="42.4247317" lon="2.2647639">
        <ele>2116.7199707</ele>
        <time>2021-03-30T09:42:38Z</time>
      </trkpt>
      <trkpt lat="42.4247438" lon="2.2646934">
        <ele>2118.57006836</ele>
        <time>2021-03-30T09:42:39Z</time>
      </trkpt>
      <trkpt lat="42.4247686" lon="2.2646245">
        <ele>2119.2800293</ele>
        <time>2021-03-30T09:42:40Z</time>
      </trkpt>
      <trkpt lat="42.4248054" lon="2.2645457">
        <ele>2118.37011719</ele>
        <time>2021-03-30T09:42:41Z</time>
      </trkpt>
      <trkpt lat="42.424836" lon="2.2644649">
        <ele>2117.35009766</ele>
        <time>2021-03-30T09:42:42Z</time>
      </trkpt>
      <trkpt lat="42.4248595" lon="2.2643831">
        <ele>2116.13989258</ele>
        <time>2021-03-30T09:42:43Z</time>
      </trkpt>
      <trkpt lat="42.4248695" lon="2.2643111">
        <ele>2116.09008789</ele>
        <time>2021-03-30T09:42:44Z</time>
      </trkpt>
      <trkpt lat="42.4248676" lon="2.2642296">
        <ele>2116.31005859</ele>
        <time>2021-03-30T09:42:45Z</time>
      </trkpt>
      <trkpt lat="42.4248426" lon="2.2641499">
        <ele>2116.2800293</ele>
        <time>2021-03-30T09:42:46Z</time>
      </trkpt>
      <trkpt lat="42.424813" lon="2.2640832">
        <ele>2115.93994141</ele>
        <time>2021-03-30T09:42:47Z</time>
      </trkpt>
      <trkpt lat="42.4247813" lon="2.2640054">
        <ele>2116.2800293</ele>
        <time>2021-03-30T09:42:48Z</time>
      </trkpt>
      <trkpt lat="42.4247376" lon="2.2639333">
        <ele>2117.17993164</ele>
        <time>2021-03-30T09:42:49Z</time>
      </trkpt>
      <trkpt lat="42.4246733" lon="2.2638665">
        <ele>2118.37011719</ele>
        <time>2021-03-30T09:42:50Z</time>
      </trkpt>
      <trkpt lat="42.4246099" lon="2.2638194">
        <ele>2118.90991211</ele>
        <time>2021-03-30T09:42:51Z</time>
      </trkpt>
      <trkpt lat="42.4245412" lon="2.2637962">
        <ele>2119.13989258</ele>
        <time>2021-03-30T09:42:52Z</time>
      </trkpt>
      <trkpt lat="42.4244691" lon="2.2637754">
        <ele>2118.87011719</ele>
        <time>2021-03-30T09:42:53Z</time>
      </trkpt>
      <trkpt lat="42.4244083" lon="2.2637603">
        <ele>2118.65991211</ele>
        <time>2021-03-30T09:42:54Z</time>
      </trkpt>
      <trkpt lat="42.4243567" lon="2.2637567">
        <ele>2118.62011719</ele>
        <time>2021-03-30T09:42:55Z</time>
      </trkpt>
      <trkpt lat="42.4242984" lon="2.2637508">
        <ele>2118.2199707</ele>
        <time>2021-03-30T09:42:56Z</time>
      </trkpt>
      <trkpt lat="42.4242343" lon="2.263753">
        <ele>2117.76000977</ele>
        <time>2021-03-30T09:42:57Z</time>
      </trkpt>
      <trkpt lat="42.4241746" lon="2.2637431">
        <ele>2116.94995117</ele>
        <time>2021-03-30T09:42:58Z</time>
      </trkpt>
      <trkpt lat="42.4241102" lon="2.2637284">
        <ele>2116.44995117</ele>
        <time>2021-03-30T09:42:59Z</time>
      </trkpt>
      <trkpt lat="42.4240463" lon="2.2637019">
        <ele>2116.10009766</ele>
        <time>2021-03-30T09:43:00Z</time>
      </trkpt>
      <trkpt lat="42.4239757" lon="2.263704">
        <ele>2116.31005859</ele>
        <time>2021-03-30T09:43:01Z</time>
      </trkpt>
      <trkpt lat="42.4239031" lon="2.2637138">
        <ele>2115.75</ele>
        <time>2021-03-30T09:43:02Z</time>
      </trkpt>
      <trkpt lat="42.4238294" lon="2.2637265">
        <ele>2114.72998047</ele>
        <time>2021-03-30T09:43:03Z</time>
      </trkpt>
      <trkpt lat="42.4237547" lon="2.2637389">
        <ele>2113.94995117</ele>
        <time>2021-03-30T09:43:04Z</time>
      </trkpt>
      <trkpt lat="42.4236807" lon="2.2637576">
        <ele>2113.33007812</ele>
        <time>2021-03-30T09:43:05Z</time>
      </trkpt>
      <trkpt lat="42.4236077" lon="2.2637862">
        <ele>2112.43994141</ele>
        <time>2021-03-30T09:43:06Z</time>
      </trkpt>
      <trkpt lat="42.4235325" lon="2.2638095">
        <ele>2111.09008789</ele>
        <time>2021-03-30T09:43:07Z</time>
      </trkpt>
      <trkpt lat="42.4234593" lon="2.2638339">
        <ele>2109.91992188</ele>
        <time>2021-03-30T09:43:08Z</time>
      </trkpt>
      <trkpt lat="42.4233887" lon="2.263865">
        <ele>2108.72998047</ele>
        <time>2021-03-30T09:43:09Z</time>
      </trkpt>
      <trkpt lat="42.4233176" lon="2.2638976">
        <ele>2107.23999023</ele>
        <time>2021-03-30T09:43:10Z</time>
      </trkpt>
      <trkpt lat="42.4232442" lon="2.263916">
        <ele>2106.45996094</ele>
        <time>2021-03-30T09:43:11Z</time>
      </trkpt>
      <trkpt lat="42.4231721" lon="2.263936">
        <ele>2106.0300293</ele>
        <time>2021-03-30T09:43:12Z</time>
      </trkpt>
      <trkpt lat="42.423096" lon="2.2639552">
        <ele>2105.69995117</ele>
        <time>2021-03-30T09:43:13Z</time>
      </trkpt>
      <trkpt lat="42.4230154" lon="2.263978">
        <ele>2105.39990234</ele>
        <time>2021-03-30T09:43:14Z</time>
      </trkpt>
      <trkpt lat="42.4229323" lon="2.2639938">
        <ele>2105.09008789</ele>
        <time>2021-03-30T09:43:15Z</time>
      </trkpt>
      <trkpt lat="42.4228482" lon="2.2640129">
        <ele>2104.80004883</ele>
        <time>2021-03-30T09:43:16Z</time>
      </trkpt>
      <trkpt lat="42.422759" lon="2.264016">
        <ele>2104.51000977</ele>
        <time>2021-03-30T09:43:17Z</time>
      </trkpt>
      <trkpt lat="42.4226687" lon="2.2640025">
        <ele>2104.20996094</ele>
        <time>2021-03-30T09:43:18Z</time>
      </trkpt>
      <trkpt lat="42.4225814" lon="2.2639848">
        <ele>2104.08007812</ele>
        <time>2021-03-30T09:43:19Z</time>
      </trkpt>
      <trkpt lat="42.4224986" lon="2.2639634">
        <ele>2103.38989258</ele>
        <time>2021-03-30T09:43:20Z</time>
      </trkpt>
      <trkpt lat="42.4224161" lon="2.2639465">
        <ele>2102.60009766</ele>
        <time>2021-03-30T09:43:21Z</time>
      </trkpt>
      <trkpt lat="42.4223335" lon="2.2639209">
        <ele>2101.9699707</ele>
        <time>2021-03-30T09:43:22Z</time>
      </trkpt>
      <trkpt lat="42.4222561" lon="2.2638848">
        <ele>2101.51000977</ele>
        <time>2021-03-30T09:43:23Z</time>
      </trkpt>
      <trkpt lat="42.4221837" lon="2.2638462">
        <ele>2101.2199707</ele>
        <time>2021-03-30T09:43:24Z</time>
      </trkpt>
      <trkpt lat="42.4221171" lon="2.2638052">
        <ele>2100.97998047</ele>
        <time>2021-03-30T09:43:25Z</time>
      </trkpt>
      <trkpt lat="42.4220552" lon="2.2637542">
        <ele>2100.70996094</ele>
        <time>2021-03-30T09:43:26Z</time>
      </trkpt>
      <trkpt lat="42.4219941" lon="2.2637093">
        <ele>2100.43994141</ele>
        <time>2021-03-30T09:43:27Z</time>
      </trkpt>
      <trkpt lat="42.4219344" lon="2.2636692">
        <ele>2100.15991211</ele>
        <time>2021-03-30T09:43:28Z</time>
      </trkpt>
      <trkpt lat="42.4218725" lon="2.2636466">
        <ele>2099.87988281</ele>
        <time>2021-03-30T09:43:29Z</time>
      </trkpt>
      <trkpt lat="42.421813" lon="2.2636451">
        <ele>2099.68994141</ele>
        <time>2021-03-30T09:43:30Z</time>
      </trkpt>
      <trkpt lat="42.4217606" lon="2.2636441">
        <ele>2099.5300293</ele>
        <time>2021-03-30T09:43:31Z</time>
      </trkpt>
      <trkpt lat="42.4217173" lon="2.2636607">
        <ele>2099.38989258</ele>
        <time>2021-03-30T09:43:32Z</time>
      </trkpt>
      <trkpt lat="42.4216778" lon="2.2636809">
        <ele>2099.22998047</ele>
        <time>2021-03-30T09:43:33Z</time>
      </trkpt>
      <trkpt lat="42.4216348" lon="2.2637104">
        <ele>2099.04003906</ele>
        <time>2021-03-30T09:43:34Z</time>
      </trkpt>
      <trkpt lat="42.4215962" lon="2.2637588">
        <ele>2098.94995117</ele>
        <time>2021-03-30T09:43:35Z</time>
      </trkpt>
      <trkpt lat="42.4215708" lon="2.2638243">
        <ele>2098.90991211</ele>
        <time>2021-03-30T09:43:36Z</time>
      </trkpt>
      <trkpt lat="42.421575" lon="2.2638968">
        <ele>2098.86010742</ele>
        <time>2021-03-30T09:43:37Z</time>
      </trkpt>
      <trkpt lat="42.4215885" lon="2.2639749">
        <ele>2098.61010742</ele>
        <time>2021-03-30T09:43:38Z</time>
      </trkpt>
      <trkpt lat="42.4216218" lon="2.2640494">
        <ele>2098.29003906</ele>
        <time>2021-03-30T09:43:39Z</time>
      </trkpt>
      <trkpt lat="42.4216776" lon="2.2640915">
        <ele>2096.80004883</ele>
        <time>2021-03-30T09:43:40Z</time>
      </trkpt>
      <trkpt lat="42.4217415" lon="2.2641268">
        <ele>2095.48999023</ele>
        <time>2021-03-30T09:43:41Z</time>
      </trkpt>
      <trkpt lat="42.421811" lon="2.2641524">
        <ele>2094.31005859</ele>
        <time>2021-03-30T09:43:42Z</time>
      </trkpt>
      <trkpt lat="42.4218808" lon="2.264183">
        <ele>2093.25</ele>
        <time>2021-03-30T09:43:43Z</time>
      </trkpt>
      <trkpt lat="42.4219504" lon="2.264223">
        <ele>2092.25</ele>
        <time>2021-03-30T09:43:44Z</time>
      </trkpt>
      <trkpt lat="42.4220219" lon="2.2642646">
        <ele>2091.31005859</ele>
        <time>2021-03-30T09:43:45Z</time>
      </trkpt>
      <trkpt lat="42.4221009" lon="2.2642846">
        <ele>2090.56005859</ele>
        <time>2021-03-30T09:43:46Z</time>
      </trkpt>
      <trkpt lat="42.4221786" lon="2.2643096">
        <ele>2090.06005859</ele>
        <time>2021-03-30T09:43:47Z</time>
      </trkpt>
      <trkpt lat="42.4222556" lon="2.2643363">
        <ele>2089.7800293</ele>
        <time>2021-03-30T09:43:48Z</time>
      </trkpt>
      <trkpt lat="42.4223276" lon="2.2643683">
        <ele>2089.59008789</ele>
        <time>2021-03-30T09:43:49Z</time>
      </trkpt>
      <trkpt lat="42.422391" lon="2.264406">
        <ele>2089.34008789</ele>
        <time>2021-03-30T09:43:50Z</time>
      </trkpt>
      <trkpt lat="42.4224509" lon="2.2644436">
        <ele>2089.0300293</ele>
        <time>2021-03-30T09:43:51Z</time>
      </trkpt>
      <trkpt lat="42.4225088" lon="2.2644761">
        <ele>2088.64990234</ele>
        <time>2021-03-30T09:43:52Z</time>
      </trkpt>
      <trkpt lat="42.4225576" lon="2.2645165">
        <ele>2088.32006836</ele>
        <time>2021-03-30T09:43:53Z</time>
      </trkpt>
      <trkpt lat="42.422601" lon="2.2645661">
        <ele>2088.11010742</ele>
        <time>2021-03-30T09:43:54Z</time>
      </trkpt>
      <trkpt lat="42.422646" lon="2.264619">
        <ele>2087.9699707</ele>
        <time>2021-03-30T09:43:55Z</time>
      </trkpt>
      <trkpt lat="42.4226859" lon="2.2646792">
        <ele>2087.85009766</ele>
        <time>2021-03-30T09:43:56Z</time>
      </trkpt>
      <trkpt lat="42.4227167" lon="2.2647419">
        <ele>2087.66992188</ele>
        <time>2021-03-30T09:43:57Z</time>
      </trkpt>
      <trkpt lat="42.4227387" lon="2.2648016">
        <ele>2087.42993164</ele>
        <time>2021-03-30T09:43:58Z</time>
      </trkpt>
      <trkpt lat="42.4227402" lon="2.2648639">
        <ele>2087.18994141</ele>
        <time>2021-03-30T09:43:59Z</time>
      </trkpt>
      <trkpt lat="42.4227106" lon="2.2649202">
        <ele>2086.94995117</ele>
        <time>2021-03-30T09:44:00Z</time>
      </trkpt>
      <trkpt lat="42.4226721" lon="2.2649735">
        <ele>2086.66992188</ele>
        <time>2021-03-30T09:44:01Z</time>
      </trkpt>
      <trkpt lat="42.4226174" lon="2.2650142">
        <ele>2086.57006836</ele>
        <time>2021-03-30T09:44:02Z</time>
      </trkpt>
      <trkpt lat="42.4225483" lon="2.2650299">
        <ele>2086.43994141</ele>
        <time>2021-03-30T09:44:03Z</time>
      </trkpt>
      <trkpt lat="42.422479" lon="2.2650028">
        <ele>2086.23999023</ele>
        <time>2021-03-30T09:44:04Z</time>
      </trkpt>
      <trkpt lat="42.422411" lon="2.2649525">
        <ele>2085.27001953</ele>
        <time>2021-03-30T09:44:05Z</time>
      </trkpt>
      <trkpt lat="42.4223439" lon="2.2648937">
        <ele>2084.32006836</ele>
        <time>2021-03-30T09:44:06Z</time>
      </trkpt>
      <trkpt lat="42.4222751" lon="2.2648331">
        <ele>2083.47998047</ele>
        <time>2021-03-30T09:44:07Z</time>
      </trkpt>
      <trkpt lat="42.4222047" lon="2.2647734">
        <ele>2082.73999023</ele>
        <time>2021-03-30T09:44:08Z</time>
      </trkpt>
      <trkpt lat="42.4221269" lon="2.2647389">
        <ele>2082.12011719</ele>
        <time>2021-03-30T09:44:09Z</time>
      </trkpt>
      <trkpt lat="42.4220446" lon="2.2647184">
        <ele>2081.65991211</ele>
        <time>2021-03-30T09:44:10Z</time>
      </trkpt>
      <trkpt lat="42.4219635" lon="2.2647117">
        <ele>2081.32006836</ele>
        <time>2021-03-30T09:44:11Z</time>
      </trkpt>
      <trkpt lat="42.4218896" lon="2.2647093">
        <ele>2081.02001953</ele>
        <time>2021-03-30T09:44:12Z</time>
      </trkpt>
      <trkpt lat="42.4218246" lon="2.2646976">
        <ele>2080.76000977</ele>
        <time>2021-03-30T09:44:13Z</time>
      </trkpt>
      <trkpt lat="42.4217654" lon="2.2646962">
        <ele>2080.52001953</ele>
        <time>2021-03-30T09:44:14Z</time>
      </trkpt>
      <trkpt lat="42.4217065" lon="2.2647035">
        <ele>2080.32006836</ele>
        <time>2021-03-30T09:44:15Z</time>
      </trkpt>
      <trkpt lat="42.4216605" lon="2.2647429">
        <ele>2080.13989258</ele>
        <time>2021-03-30T09:44:16Z</time>
      </trkpt>
      <trkpt lat="42.4216123" lon="2.2647835">
        <ele>2082.13989258</ele>
        <time>2021-03-30T09:44:17Z</time>
      </trkpt>
      <trkpt lat="42.4215811" lon="2.2648464">
        <ele>2083.68994141</ele>
        <time>2021-03-30T09:44:18Z</time>
      </trkpt>
      <trkpt lat="42.4215714" lon="2.2649303">
        <ele>2080.18994141</ele>
        <time>2021-03-30T09:44:19Z</time>
      </trkpt>
      <trkpt lat="42.4215835" lon="2.2650278">
        <ele>2082.01000977</ele>
        <time>2021-03-30T09:44:20Z</time>
      </trkpt>
      <trkpt lat="42.4216232" lon="2.2651107">
        <ele>2083.43994141</ele>
        <time>2021-03-30T09:44:21Z</time>
      </trkpt>
      <trkpt lat="42.4216833" lon="2.2651834">
        <ele>2084.48999023</ele>
        <time>2021-03-30T09:44:22Z</time>
      </trkpt>
      <trkpt lat="42.4217624" lon="2.2652194">
        <ele>2085.26000977</ele>
        <time>2021-03-30T09:44:23Z</time>
      </trkpt>
      <trkpt lat="42.4218458" lon="2.2652589">
        <ele>2085.80004883</ele>
        <time>2021-03-30T09:44:24Z</time>
      </trkpt>
      <trkpt lat="42.4219323" lon="2.265295">
        <ele>2086.13989258</ele>
        <time>2021-03-30T09:44:25Z</time>
      </trkpt>
      <trkpt lat="42.4220187" lon="2.2653368">
        <ele>2086.32006836</ele>
        <time>2021-03-30T09:44:26Z</time>
      </trkpt>
      <trkpt lat="42.422105" lon="2.2653774">
        <ele>2086.36010742</ele>
        <time>2021-03-30T09:44:27Z</time>
      </trkpt>
      <trkpt lat="42.4221859" lon="2.2654182">
        <ele>2086.08007812</ele>
        <time>2021-03-30T09:44:28Z</time>
      </trkpt>
      <trkpt lat="42.4222635" lon="2.2654518">
        <ele>2085.66992188</ele>
        <time>2021-03-30T09:44:29Z</time>
      </trkpt>
      <trkpt lat="42.4223391" lon="2.2654821">
        <ele>2085.27001953</ele>
        <time>2021-03-30T09:44:30Z</time>
      </trkpt>
      <trkpt lat="42.4224106" lon="2.2655072">
        <ele>2084.84008789</ele>
        <time>2021-03-30T09:44:31Z</time>
      </trkpt>
      <trkpt lat="42.4224723" lon="2.2655346">
        <ele>2084.39990234</ele>
        <time>2021-03-30T09:44:32Z</time>
      </trkpt>
      <trkpt lat="42.4225268" lon="2.2655571">
        <ele>2083.90991211</ele>
        <time>2021-03-30T09:44:33Z</time>
      </trkpt>
      <trkpt lat="42.4225727" lon="2.2655795">
        <ele>2083.58007812</ele>
        <time>2021-03-30T09:44:34Z</time>
      </trkpt>
      <trkpt lat="42.4226119" lon="2.2656043">
        <ele>2083.26000977</ele>
        <time>2021-03-30T09:44:35Z</time>
      </trkpt>
      <trkpt lat="42.4226463" lon="2.2656454">
        <ele>2082.91992188</ele>
        <time>2021-03-30T09:44:36Z</time>
      </trkpt>
      <trkpt lat="42.4226733" lon="2.265703">
        <ele>2082.66992188</ele>
        <time>2021-03-30T09:44:37Z</time>
      </trkpt>
      <trkpt lat="42.4226917" lon="2.2657679">
        <ele>2082.41992188</ele>
        <time>2021-03-30T09:44:38Z</time>
      </trkpt>
      <trkpt lat="42.4226918" lon="2.2658367">
        <ele>2082.23999023</ele>
        <time>2021-03-30T09:44:39Z</time>
      </trkpt>
      <trkpt lat="42.4226728" lon="2.265907">
        <ele>2082.06005859</ele>
        <time>2021-03-30T09:44:40Z</time>
      </trkpt>
      <trkpt lat="42.4226294" lon="2.2659642">
        <ele>2081.76000977</ele>
        <time>2021-03-30T09:44:41Z</time>
      </trkpt>
      <trkpt lat="42.4225624" lon="2.2659967">
        <ele>2081.5</ele>
        <time>2021-03-30T09:44:42Z</time>
      </trkpt>
      <trkpt lat="42.4224871" lon="2.2659959">
        <ele>2081.11010742</ele>
        <time>2021-03-30T09:44:43Z</time>
      </trkpt>
      <trkpt lat="42.4224146" lon="2.2659585">
        <ele>2080.69995117</ele>
        <time>2021-03-30T09:44:44Z</time>
      </trkpt>
      <trkpt lat="42.4223438" lon="2.2659054">
        <ele>2080.2800293</ele>
        <time>2021-03-30T09:44:45Z</time>
      </trkpt>
      <trkpt lat="42.4222654" lon="2.2658602">
        <ele>2079.84008789</ele>
        <time>2021-03-30T09:44:46Z</time>
      </trkpt>
      <trkpt lat="42.4221867" lon="2.2658194">
        <ele>2079.34008789</ele>
        <time>2021-03-30T09:44:47Z</time>
      </trkpt>
      <trkpt lat="42.4221089" lon="2.2657796">
        <ele>2078.85009766</ele>
        <time>2021-03-30T09:44:48Z</time>
      </trkpt>
      <trkpt lat="42.4220353" lon="2.2657368">
        <ele>2078.31005859</ele>
        <time>2021-03-30T09:44:49Z</time>
      </trkpt>
      <trkpt lat="42.4219621" lon="2.2656942">
        <ele>2077.73999023</ele>
        <time>2021-03-30T09:44:50Z</time>
      </trkpt>
      <trkpt lat="42.4218905" lon="2.265658">
        <ele>2077.13989258</ele>
        <time>2021-03-30T09:44:51Z</time>
      </trkpt>
      <trkpt lat="42.4218216" lon="2.2656271">
        <ele>2076.56005859</ele>
        <time>2021-03-30T09:44:52Z</time>
      </trkpt>
      <trkpt lat="42.421758" lon="2.2656012">
        <ele>2075.98999023</ele>
        <time>2021-03-30T09:44:53Z</time>
      </trkpt>
      <trkpt lat="42.4216978" lon="2.265579">
        <ele>2075.42993164</ele>
        <time>2021-03-30T09:44:54Z</time>
      </trkpt>
      <trkpt lat="42.4216403" lon="2.2655706">
        <ele>2074.70996094</ele>
        <time>2021-03-30T09:44:55Z</time>
      </trkpt>
      <trkpt lat="42.4215832" lon="2.2655801">
        <ele>2074.14990234</ele>
        <time>2021-03-30T09:44:56Z</time>
      </trkpt>
      <trkpt lat="42.4215319" lon="2.2656215">
        <ele>2073.77001953</ele>
        <time>2021-03-30T09:44:57Z</time>
      </trkpt>
      <trkpt lat="42.4214916" lon="2.2656883">
        <ele>2073.4699707</ele>
        <time>2021-03-30T09:44:58Z</time>
      </trkpt>
      <trkpt lat="42.4214786" lon="2.2657776">
        <ele>2073.2199707</ele>
        <time>2021-03-30T09:44:59Z</time>
      </trkpt>
      <trkpt lat="42.4214951" lon="2.265873">
        <ele>2073.04003906</ele>
        <time>2021-03-30T09:45:00Z</time>
      </trkpt>
      <trkpt lat="42.4215455" lon="2.2659532">
        <ele>2072.80004883</ele>
        <time>2021-03-30T09:45:01Z</time>
      </trkpt>
      <trkpt lat="42.4216169" lon="2.2659997">
        <ele>2072.65991211</ele>
        <time>2021-03-30T09:45:02Z</time>
      </trkpt>
      <trkpt lat="42.4216965" lon="2.2660056">
        <ele>2072.37988281</ele>
        <time>2021-03-30T09:45:03Z</time>
      </trkpt>
      <trkpt lat="42.4217802" lon="2.266012">
        <ele>2071.91992188</ele>
        <time>2021-03-30T09:45:04Z</time>
      </trkpt>
      <trkpt lat="42.4218613" lon="2.2660282">
        <ele>2071.4699707</ele>
        <time>2021-03-30T09:45:05Z</time>
      </trkpt>
      <trkpt lat="42.4219414" lon="2.266064">
        <ele>2071.09008789</ele>
        <time>2021-03-30T09:45:06Z</time>
      </trkpt>
      <trkpt lat="42.4220249" lon="2.266116">
        <ele>2070.68994141</ele>
        <time>2021-03-30T09:45:07Z</time>
      </trkpt>
      <trkpt lat="42.4221106" lon="2.2661665">
        <ele>2070.27001953</ele>
        <time>2021-03-30T09:45:08Z</time>
      </trkpt>
      <trkpt lat="42.4221944" lon="2.26622">
        <ele>2069.79003906</ele>
        <time>2021-03-30T09:45:09Z</time>
      </trkpt>
      <trkpt lat="42.4222727" lon="2.2662703">
        <ele>2069.41992188</ele>
        <time>2021-03-30T09:45:10Z</time>
      </trkpt>
      <trkpt lat="42.4223446" lon="2.2663218">
        <ele>2069.0300293</ele>
        <time>2021-03-30T09:45:11Z</time>
      </trkpt>
      <trkpt lat="42.4224097" lon="2.2663715">
        <ele>2068.7199707</ele>
        <time>2021-03-30T09:45:12Z</time>
      </trkpt>
      <trkpt lat="42.4224705" lon="2.2664181">
        <ele>2068.4699707</ele>
        <time>2021-03-30T09:45:13Z</time>
      </trkpt>
      <trkpt lat="42.4225228" lon="2.2664661">
        <ele>2068.22998047</ele>
        <time>2021-03-30T09:45:14Z</time>
      </trkpt>
      <trkpt lat="42.4225675" lon="2.2665141">
        <ele>2067.95996094</ele>
        <time>2021-03-30T09:45:15Z</time>
      </trkpt>
      <trkpt lat="42.4226034" lon="2.2665634">
        <ele>2067.76000977</ele>
        <time>2021-03-30T09:45:16Z</time>
      </trkpt>
      <trkpt lat="42.422634" lon="2.2666212">
        <ele>2067.52001953</ele>
        <time>2021-03-30T09:45:17Z</time>
      </trkpt>
      <trkpt lat="42.4226402" lon="2.2666874">
        <ele>2067.17993164</ele>
        <time>2021-03-30T09:45:18Z</time>
      </trkpt>
      <trkpt lat="42.4226277" lon="2.2667553">
        <ele>2066.73999023</ele>
        <time>2021-03-30T09:45:19Z</time>
      </trkpt>
      <trkpt lat="42.422584" lon="2.2668061">
        <ele>2066.42993164</ele>
        <time>2021-03-30T09:45:20Z</time>
      </trkpt>
      <trkpt lat="42.4225196" lon="2.2668318">
        <ele>2065.98999023</ele>
        <time>2021-03-30T09:45:21Z</time>
      </trkpt>
      <trkpt lat="42.4224459" lon="2.2668146">
        <ele>2065.5300293</ele>
        <time>2021-03-30T09:45:22Z</time>
      </trkpt>
      <trkpt lat="42.4223695" lon="2.26677">
        <ele>2064.9699707</ele>
        <time>2021-03-30T09:45:23Z</time>
      </trkpt>
      <trkpt lat="42.4222978" lon="2.2667166">
        <ele>2064.45996094</ele>
        <time>2021-03-30T09:45:24Z</time>
      </trkpt>
      <trkpt lat="42.4222147" lon="2.2666764">
        <ele>2063.84008789</ele>
        <time>2021-03-30T09:45:25Z</time>
      </trkpt>
      <trkpt lat="42.4221323" lon="2.2666283">
        <ele>2063.10009766</ele>
        <time>2021-03-30T09:45:26Z</time>
      </trkpt>
      <trkpt lat="42.4220511" lon="2.2665756">
        <ele>2062.30004883</ele>
        <time>2021-03-30T09:45:27Z</time>
      </trkpt>
      <trkpt lat="42.4219716" lon="2.2665235">
        <ele>2061.5300293</ele>
        <time>2021-03-30T09:45:28Z</time>
      </trkpt>
      <trkpt lat="42.4218938" lon="2.2664827">
        <ele>2060.87011719</ele>
        <time>2021-03-30T09:45:29Z</time>
      </trkpt>
      <trkpt lat="42.4218227" lon="2.2664445">
        <ele>2060.18994141</ele>
        <time>2021-03-30T09:45:30Z</time>
      </trkpt>
      <trkpt lat="42.4217547" lon="2.2664179">
        <ele>2059.43994141</ele>
        <time>2021-03-30T09:45:31Z</time>
      </trkpt>
      <trkpt lat="42.4216862" lon="2.2664125">
        <ele>2058.95996094</ele>
        <time>2021-03-30T09:45:32Z</time>
      </trkpt>
      <trkpt lat="42.4216206" lon="2.2664321">
        <ele>2058.47998047</ele>
        <time>2021-03-30T09:45:33Z</time>
      </trkpt>
      <trkpt lat="42.4215637" lon="2.2664738">
        <ele>2058.05004883</ele>
        <time>2021-03-30T09:45:34Z</time>
      </trkpt>
      <trkpt lat="42.4215185" lon="2.2665334">
        <ele>2057.7800293</ele>
        <time>2021-03-30T09:45:35Z</time>
      </trkpt>
      <trkpt lat="42.4214886" lon="2.2666091">
        <ele>2057.52001953</ele>
        <time>2021-03-30T09:45:36Z</time>
      </trkpt>
      <trkpt lat="42.4214821" lon="2.2667036">
        <ele>2057.2800293</ele>
        <time>2021-03-30T09:45:37Z</time>
      </trkpt>
      <trkpt lat="42.4215225" lon="2.2667796">
        <ele>2057.14990234</ele>
        <time>2021-03-30T09:45:38Z</time>
      </trkpt>
      <trkpt lat="42.4215851" lon="2.2668371">
        <ele>2056.87988281</ele>
        <time>2021-03-30T09:45:39Z</time>
      </trkpt>
      <trkpt lat="42.4216623" lon="2.266878">
        <ele>2056.5300293</ele>
        <time>2021-03-30T09:45:40Z</time>
      </trkpt>
      <trkpt lat="42.4217439" lon="2.2669177">
        <ele>2056.20996094</ele>
        <time>2021-03-30T09:45:41Z</time>
      </trkpt>
      <trkpt lat="42.421828" lon="2.2669582">
        <ele>2055.88989258</ele>
        <time>2021-03-30T09:45:42Z</time>
      </trkpt>
      <trkpt lat="42.4219088" lon="2.267006">
        <ele>2055.55004883</ele>
        <time>2021-03-30T09:45:43Z</time>
      </trkpt>
      <trkpt lat="42.4219872" lon="2.2670522">
        <ele>2055.23999023</ele>
        <time>2021-03-30T09:45:44Z</time>
      </trkpt>
      <trkpt lat="42.4220626" lon="2.2670909">
        <ele>2054.87011719</ele>
        <time>2021-03-30T09:45:45Z</time>
      </trkpt>
      <trkpt lat="42.4221303" lon="2.2671306">
        <ele>2054.56005859</ele>
        <time>2021-03-30T09:45:46Z</time>
      </trkpt>
      <trkpt lat="42.4221896" lon="2.26718">
        <ele>2054.17993164</ele>
        <time>2021-03-30T09:45:47Z</time>
      </trkpt>
      <trkpt lat="42.4222368" lon="2.2672411">
        <ele>2053.86010742</ele>
        <time>2021-03-30T09:45:48Z</time>
      </trkpt>
      <trkpt lat="42.4222769" lon="2.2673039">
        <ele>2053.63989258</ele>
        <time>2021-03-30T09:45:49Z</time>
      </trkpt>
      <trkpt lat="42.4223116" lon="2.2673678">
        <ele>2053.43994141</ele>
        <time>2021-03-30T09:45:50Z</time>
      </trkpt>
      <trkpt lat="42.4223361" lon="2.2674364">
        <ele>2053.12011719</ele>
        <time>2021-03-30T09:45:51Z</time>
      </trkpt>
      <trkpt lat="42.4223308" lon="2.2675173">
        <ele>2052.90991211</ele>
        <time>2021-03-30T09:45:52Z</time>
      </trkpt>
      <trkpt lat="42.422298" lon="2.2676053">
        <ele>2052.67993164</ele>
        <time>2021-03-30T09:45:53Z</time>
      </trkpt>
      <trkpt lat="42.4222483" lon="2.2676855">
        <ele>2052.47998047</ele>
        <time>2021-03-30T09:45:54Z</time>
      </trkpt>
      <trkpt lat="42.4221821" lon="2.2677504">
        <ele>2052.2199707</ele>
        <time>2021-03-30T09:45:55Z</time>
      </trkpt>
      <trkpt lat="42.4221055" lon="2.2678021">
        <ele>2051.83007812</ele>
        <time>2021-03-30T09:45:56Z</time>
      </trkpt>
      <trkpt lat="42.4220207" lon="2.2678455">
        <ele>2051.57006836</ele>
        <time>2021-03-30T09:45:57Z</time>
      </trkpt>
      <trkpt lat="42.4219372" lon="2.2678935">
        <ele>2051.38989258</ele>
        <time>2021-03-30T09:45:58Z</time>
      </trkpt>
      <trkpt lat="42.4218561" lon="2.2679475">
        <ele>2051.15991211</ele>
        <time>2021-03-30T09:45:59Z</time>
      </trkpt>
      <trkpt lat="42.4217773" lon="2.268016">
        <ele>2050.92993164</ele>
        <time>2021-03-30T09:46:00Z</time>
      </trkpt>
      <trkpt lat="42.4217086" lon="2.2681068">
        <ele>2050.62988281</ele>
        <time>2021-03-30T09:46:01Z</time>
      </trkpt>
      <trkpt lat="42.4216441" lon="2.2682102">
        <ele>2050.29003906</ele>
        <time>2021-03-30T09:46:02Z</time>
      </trkpt>
      <trkpt lat="42.4215833" lon="2.2683131">
        <ele>2049.98999023</ele>
        <time>2021-03-30T09:46:03Z</time>
      </trkpt>
      <trkpt lat="42.4215255" lon="2.2684119">
        <ele>2049.7199707</ele>
        <time>2021-03-30T09:46:04Z</time>
      </trkpt>
      <trkpt lat="42.4214723" lon="2.2685097">
        <ele>2049.43994141</ele>
        <time>2021-03-30T09:46:05Z</time>
      </trkpt>
      <trkpt lat="42.421422" lon="2.2686044">
        <ele>2049.22998047</ele>
        <time>2021-03-30T09:46:06Z</time>
      </trkpt>
      <trkpt lat="42.4213699" lon="2.2686975">
        <ele>2049.02001953</ele>
        <time>2021-03-30T09:46:07Z</time>
      </trkpt>
      <trkpt lat="42.4213189" lon="2.2687907">
        <ele>2048.77001953</ele>
        <time>2021-03-30T09:46:08Z</time>
      </trkpt>
      <trkpt lat="42.4212665" lon="2.2688796">
        <ele>2048.62011719</ele>
        <time>2021-03-30T09:46:09Z</time>
      </trkpt>
      <trkpt lat="42.4212067" lon="2.2689613">
        <ele>2048.4699707</ele>
        <time>2021-03-30T09:46:10Z</time>
      </trkpt>
      <trkpt lat="42.4211368" lon="2.2690268">
        <ele>2048.14990234</ele>
        <time>2021-03-30T09:46:11Z</time>
      </trkpt>
      <trkpt lat="42.4210654" lon="2.269084">
        <ele>2047.90002441</ele>
        <time>2021-03-30T09:46:12Z</time>
      </trkpt>
      <trkpt lat="42.4209939" lon="2.2691361">
        <ele>2047.69995117</ele>
        <time>2021-03-30T09:46:13Z</time>
      </trkpt>
      <trkpt lat="42.4209193" lon="2.2691834">
        <ele>2047.51000977</ele>
        <time>2021-03-30T09:46:14Z</time>
      </trkpt>
      <trkpt lat="42.4208402" lon="2.2692342">
        <ele>2047.19995117</ele>
        <time>2021-03-30T09:46:15Z</time>
      </trkpt>
      <trkpt lat="42.4207608" lon="2.2693076">
        <ele>2046.86999512</ele>
        <time>2021-03-30T09:46:16Z</time>
      </trkpt>
      <trkpt lat="42.4206887" lon="2.2694023">
        <ele>2046.67004395</ele>
        <time>2021-03-30T09:46:17Z</time>
      </trkpt>
      <trkpt lat="42.4206306" lon="2.269516">
        <ele>2046.42004395</ele>
        <time>2021-03-30T09:46:18Z</time>
      </trkpt>
      <trkpt lat="42.420573" lon="2.2696352">
        <ele>2046.11999512</ele>
        <time>2021-03-30T09:46:19Z</time>
      </trkpt>
      <trkpt lat="42.4205147" lon="2.2697625">
        <ele>2045.80004883</ele>
        <time>2021-03-30T09:46:20Z</time>
      </trkpt>
      <trkpt lat="42.4204525" lon="2.2698881">
        <ele>2045.43005371</ele>
        <time>2021-03-30T09:46:21Z</time>
      </trkpt>
      <trkpt lat="42.4203927" lon="2.2700117">
        <ele>2045.05004883</ele>
        <time>2021-03-30T09:46:22Z</time>
      </trkpt>
      <trkpt lat="42.4203328" lon="2.2701319">
        <ele>2044.61999512</ele>
        <time>2021-03-30T09:46:23Z</time>
      </trkpt>
      <trkpt lat="42.4202774" lon="2.2702489">
        <ele>2044.18005371</ele>
        <time>2021-03-30T09:46:24Z</time>
      </trkpt>
      <trkpt lat="42.4202215" lon="2.2703563">
        <ele>2043.68994141</ele>
        <time>2021-03-30T09:46:25Z</time>
      </trkpt>
      <trkpt lat="42.4201679" lon="2.2704648">
        <ele>2043.25</ele>
        <time>2021-03-30T09:46:26Z</time>
      </trkpt>
      <trkpt lat="42.4201168" lon="2.270578">
        <ele>2042.84997559</ele>
        <time>2021-03-30T09:46:27Z</time>
      </trkpt>
      <trkpt lat="42.4200625" lon="2.270688">
        <ele>2042.5</ele>
        <time>2021-03-30T09:46:28Z</time>
      </trkpt>
      <trkpt lat="42.4200087" lon="2.2707982">
        <ele>2042.19995117</ele>
        <time>2021-03-30T09:46:29Z</time>
      </trkpt>
      <trkpt lat="42.4199539" lon="2.2709051">
        <ele>2041.86999512</ele>
        <time>2021-03-30T09:46:30Z</time>
      </trkpt>
      <trkpt lat="42.4199023" lon="2.271014">
        <ele>2041.56005859</ele>
        <time>2021-03-30T09:46:31Z</time>
      </trkpt>
      <trkpt lat="42.4198465" lon="2.2711142">
        <ele>2041.22998047</ele>
        <time>2021-03-30T09:46:32Z</time>
      </trkpt>
      <trkpt lat="42.4197745" lon="2.2711885">
        <ele>2040.77001953</ele>
        <time>2021-03-30T09:46:33Z</time>
      </trkpt>
      <trkpt lat="42.4196904" lon="2.2712503">
        <ele>2040.30004883</ele>
        <time>2021-03-30T09:46:34Z</time>
      </trkpt>
      <trkpt lat="42.4195995" lon="2.2713028">
        <ele>2039.73999023</ele>
        <time>2021-03-30T09:46:35Z</time>
      </trkpt>
      <trkpt lat="42.4195126" lon="2.2713487">
        <ele>2039.26000977</ele>
        <time>2021-03-30T09:46:36Z</time>
      </trkpt>
      <trkpt lat="42.4194275" lon="2.2713877">
        <ele>2038.9699707</ele>
        <time>2021-03-30T09:46:37Z</time>
      </trkpt>
      <trkpt lat="42.4193369" lon="2.2714186">
        <ele>2038.69995117</ele>
        <time>2021-03-30T09:46:38Z</time>
      </trkpt>
      <trkpt lat="42.4192414" lon="2.2714488">
        <ele>2038.42004395</ele>
        <time>2021-03-30T09:46:39Z</time>
      </trkpt>
      <trkpt lat="42.419144" lon="2.2714918">
        <ele>2038.18005371</ele>
        <time>2021-03-30T09:46:40Z</time>
      </trkpt>
      <trkpt lat="42.4190615" lon="2.2715673">
        <ele>2038.01000977</ele>
        <time>2021-03-30T09:46:41Z</time>
      </trkpt>
      <trkpt lat="42.4189919" lon="2.2716568">
        <ele>2037.68005371</ele>
        <time>2021-03-30T09:46:42Z</time>
      </trkpt>
      <trkpt lat="42.4189288" lon="2.2717481">
        <ele>2037.31994629</ele>
        <time>2021-03-30T09:46:43Z</time>
      </trkpt>
      <trkpt lat="42.4188664" lon="2.2718313">
        <ele>2037.01000977</ele>
        <time>2021-03-30T09:46:44Z</time>
      </trkpt>
      <trkpt lat="42.4188041" lon="2.2719116">
        <ele>2036.68005371</ele>
        <time>2021-03-30T09:46:45Z</time>
      </trkpt>
      <trkpt lat="42.4187402" lon="2.27199">
        <ele>2036.32995605</ele>
        <time>2021-03-30T09:46:46Z</time>
      </trkpt>
      <trkpt lat="42.4186743" lon="2.272067">
        <ele>2035.98999023</ele>
        <time>2021-03-30T09:46:47Z</time>
      </trkpt>
      <trkpt lat="42.4185996" lon="2.2721352">
        <ele>2035.64001465</ele>
        <time>2021-03-30T09:46:48Z</time>
      </trkpt>
      <trkpt lat="42.418523" lon="2.2721977">
        <ele>2035.35998535</ele>
        <time>2021-03-30T09:46:49Z</time>
      </trkpt>
      <trkpt lat="42.4184399" lon="2.272245">
        <ele>2035.11999512</ele>
        <time>2021-03-30T09:46:50Z</time>
      </trkpt>
      <trkpt lat="42.4183542" lon="2.2722981">
        <ele>2034.72998047</ele>
        <time>2021-03-30T09:46:51Z</time>
      </trkpt>
      <trkpt lat="42.4182801" lon="2.2723865">
        <ele>2034.31005859</ele>
        <time>2021-03-30T09:46:52Z</time>
      </trkpt>
      <trkpt lat="42.4182192" lon="2.2725004">
        <ele>2033.7199707</ele>
        <time>2021-03-30T09:46:53Z</time>
      </trkpt>
      <trkpt lat="42.4181693" lon="2.2726348">
        <ele>2033.17004395</ele>
        <time>2021-03-30T09:46:54Z</time>
      </trkpt>
      <trkpt lat="42.4181423" lon="2.2727866">
        <ele>2032.4699707</ele>
        <time>2021-03-30T09:46:55Z</time>
      </trkpt>
      <trkpt lat="42.418137" lon="2.2729358">
        <ele>2031.66003418</ele>
        <time>2021-03-30T09:46:56Z</time>
      </trkpt>
      <trkpt lat="42.4181397" lon="2.2730752">
        <ele>2030.77001953</ele>
        <time>2021-03-30T09:46:57Z</time>
      </trkpt>
      <trkpt lat="42.4181459" lon="2.2732021">
        <ele>2029.83996582</ele>
        <time>2021-03-30T09:46:58Z</time>
      </trkpt>
      <trkpt lat="42.4181543" lon="2.2733171">
        <ele>2028.93005371</ele>
        <time>2021-03-30T09:46:59Z</time>
      </trkpt>
      <trkpt lat="42.4181618" lon="2.2734243">
        <ele>2028.06005859</ele>
        <time>2021-03-30T09:47:00Z</time>
      </trkpt>
      <trkpt lat="42.4181652" lon="2.2735291">
        <ele>2027.31994629</ele>
        <time>2021-03-30T09:47:01Z</time>
      </trkpt>
      <trkpt lat="42.4181472" lon="2.2736307">
        <ele>2026.57995605</ele>
        <time>2021-03-30T09:47:02Z</time>
      </trkpt>
      <trkpt lat="42.4181194" lon="2.2737309">
        <ele>2025.81994629</ele>
        <time>2021-03-30T09:47:03Z</time>
      </trkpt>
      <trkpt lat="42.4180818" lon="2.2738287">
        <ele>2024.95996094</ele>
        <time>2021-03-30T09:47:04Z</time>
      </trkpt>
      <trkpt lat="42.4180328" lon="2.2739201">
        <ele>2024.2800293</ele>
        <time>2021-03-30T09:47:05Z</time>
      </trkpt>
      <trkpt lat="42.4179706" lon="2.2739988">
        <ele>2023.68994141</ele>
        <time>2021-03-30T09:47:06Z</time>
      </trkpt>
      <trkpt lat="42.4178957" lon="2.2740591">
        <ele>2023.15002441</ele>
        <time>2021-03-30T09:47:07Z</time>
      </trkpt>
      <trkpt lat="42.4178166" lon="2.2741085">
        <ele>2022.80004883</ele>
        <time>2021-03-30T09:47:08Z</time>
      </trkpt>
      <trkpt lat="42.417738" lon="2.2741568">
        <ele>2022.41003418</ele>
        <time>2021-03-30T09:47:09Z</time>
      </trkpt>
      <trkpt lat="42.417656" lon="2.2741879">
        <ele>2022.2800293</ele>
        <time>2021-03-30T09:47:10Z</time>
      </trkpt>
      <trkpt lat="42.4175775" lon="2.2741998">
        <ele>2022.06005859</ele>
        <time>2021-03-30T09:47:11Z</time>
      </trkpt>
      <trkpt lat="42.4175062" lon="2.2742242">
        <ele>2021.82995605</ele>
        <time>2021-03-30T09:47:12Z</time>
      </trkpt>
      <trkpt lat="42.4174416" lon="2.2742792">
        <ele>2021.58996582</ele>
        <time>2021-03-30T09:47:13Z</time>
      </trkpt>
      <trkpt lat="42.4173932" lon="2.274361">
        <ele>2021.44995117</ele>
        <time>2021-03-30T09:47:14Z</time>
      </trkpt>
      <trkpt lat="42.4173626" lon="2.2744509">
        <ele>2021.40002441</ele>
        <time>2021-03-30T09:47:15Z</time>
      </trkpt>
      <trkpt lat="42.4173334" lon="2.2745394">
        <ele>2021.32995605</ele>
        <time>2021-03-30T09:47:16Z</time>
      </trkpt>
      <trkpt lat="42.4173139" lon="2.2746229">
        <ele>2021.17004395</ele>
        <time>2021-03-30T09:47:17Z</time>
      </trkpt>
      <trkpt lat="42.4172963" lon="2.2747067">
        <ele>2020.80004883</ele>
        <time>2021-03-30T09:47:18Z</time>
      </trkpt>
      <trkpt lat="42.4172633" lon="2.2747872">
        <ele>2020.40002441</ele>
        <time>2021-03-30T09:47:19Z</time>
      </trkpt>
      <trkpt lat="42.4172199" lon="2.2748604">
        <ele>2020.18994141</ele>
        <time>2021-03-30T09:47:20Z</time>
      </trkpt>
      <trkpt lat="42.4171752" lon="2.2749344">
        <ele>2019.88000488</ele>
        <time>2021-03-30T09:47:21Z</time>
      </trkpt>
      <trkpt lat="42.4171284" lon="2.274998">
        <ele>2019.57995605</ele>
        <time>2021-03-30T09:47:22Z</time>
      </trkpt>
      <trkpt lat="42.4170817" lon="2.2750627">
        <ele>2019.44995117</ele>
        <time>2021-03-30T09:47:23Z</time>
      </trkpt>
      <trkpt lat="42.4170185" lon="2.2751078">
        <ele>2019.09997559</ele>
        <time>2021-03-30T09:47:24Z</time>
      </trkpt>
      <trkpt lat="42.4169474" lon="2.2751593">
        <ele>2018.5</ele>
        <time>2021-03-30T09:47:25Z</time>
      </trkpt>
      <trkpt lat="42.4168787" lon="2.2752154">
        <ele>2017.94995117</ele>
        <time>2021-03-30T09:47:26Z</time>
      </trkpt>
      <trkpt lat="42.4168141" lon="2.2752753">
        <ele>2017.57995605</ele>
        <time>2021-03-30T09:47:27Z</time>
      </trkpt>
      <trkpt lat="42.4167507" lon="2.2753333">
        <ele>2017.17004395</ele>
        <time>2021-03-30T09:47:28Z</time>
      </trkpt>
      <trkpt lat="42.41669" lon="2.275395">
        <ele>2016.7199707</ele>
        <time>2021-03-30T09:47:29Z</time>
      </trkpt>
      <trkpt lat="42.4166145" lon="2.275439">
        <ele>2015.85998535</ele>
        <time>2021-03-30T09:47:30Z</time>
      </trkpt>
      <trkpt lat="42.4165382" lon="2.2754806">
        <ele>2014.70996094</ele>
        <time>2021-03-30T09:47:31Z</time>
      </trkpt>
      <trkpt lat="42.4164662" lon="2.2755303">
        <ele>2013.56994629</ele>
        <time>2021-03-30T09:47:32Z</time>
      </trkpt>
      <trkpt lat="42.4164013" lon="2.2755812">
        <ele>2012.57995605</ele>
        <time>2021-03-30T09:47:33Z</time>
      </trkpt>
      <trkpt lat="42.4163403" lon="2.2756354">
        <ele>2011.77001953</ele>
        <time>2021-03-30T09:47:34Z</time>
      </trkpt>
      <trkpt lat="42.4162786" lon="2.2757014">
        <ele>2010.93005371</ele>
        <time>2021-03-30T09:47:35Z</time>
      </trkpt>
      <trkpt lat="42.4162221" lon="2.2757711">
        <ele>2010.04003906</ele>
        <time>2021-03-30T09:47:36Z</time>
      </trkpt>
      <trkpt lat="42.4161695" lon="2.2758311">
        <ele>2009.08996582</ele>
        <time>2021-03-30T09:47:37Z</time>
      </trkpt>
      <trkpt lat="42.4161179" lon="2.2758979">
        <ele>2008.19995117</ele>
        <time>2021-03-30T09:47:38Z</time>
      </trkpt>
      <trkpt lat="42.4160882" lon="2.2759897">
        <ele>2007.32995605</ele>
        <time>2021-03-30T09:47:39Z</time>
      </trkpt>
      <trkpt lat="42.416081" lon="2.2760696">
        <ele>2006.10998535</ele>
        <time>2021-03-30T09:47:40Z</time>
      </trkpt>
      <trkpt lat="42.4160975" lon="2.276158">
        <ele>2004.81005859</ele>
        <time>2021-03-30T09:47:41Z</time>
      </trkpt>
      <trkpt lat="42.416131" lon="2.2762485">
        <ele>2003.44995117</ele>
        <time>2021-03-30T09:47:42Z</time>
      </trkpt>
      <trkpt lat="42.4161617" lon="2.2763376">
        <ele>2002.22998047</ele>
        <time>2021-03-30T09:47:43Z</time>
      </trkpt>
      <trkpt lat="42.4161922" lon="2.2764234">
        <ele>2001.15002441</ele>
        <time>2021-03-30T09:47:44Z</time>
      </trkpt>
      <trkpt lat="42.416228" lon="2.2765163">
        <ele>2000.04003906</ele>
        <time>2021-03-30T09:47:45Z</time>
      </trkpt>
      <trkpt lat="42.4162648" lon="2.2766126">
        <ele>1998.81994629</ele>
        <time>2021-03-30T09:47:46Z</time>
      </trkpt>
      <trkpt lat="42.4162934" lon="2.2767092">
        <ele>1997.48999023</ele>
        <time>2021-03-30T09:47:47Z</time>
      </trkpt>
      <trkpt lat="42.416315" lon="2.2768122">
        <ele>1996.36999512</ele>
        <time>2021-03-30T09:47:48Z</time>
      </trkpt>
      <trkpt lat="42.4163293" lon="2.2769223">
        <ele>1995.34997559</ele>
        <time>2021-03-30T09:47:49Z</time>
      </trkpt>
      <trkpt lat="42.416352" lon="2.2770238">
        <ele>1994.33996582</ele>
        <time>2021-03-30T09:47:50Z</time>
      </trkpt>
      <trkpt lat="42.4163826" lon="2.2771117">
        <ele>1993.42004395</ele>
        <time>2021-03-30T09:47:51Z</time>
      </trkpt>
      <trkpt lat="42.4164199" lon="2.2771921">
        <ele>1992.5300293</ele>
        <time>2021-03-30T09:47:52Z</time>
      </trkpt>
      <trkpt lat="42.4164573" lon="2.277269">
        <ele>1991.69995117</ele>
        <time>2021-03-30T09:47:53Z</time>
      </trkpt>
      <trkpt lat="42.4164939" lon="2.2773472">
        <ele>1990.93994141</ele>
        <time>2021-03-30T09:47:54Z</time>
      </trkpt>
      <trkpt lat="42.4165191" lon="2.277426">
        <ele>1990.09997559</ele>
        <time>2021-03-30T09:47:55Z</time>
      </trkpt>
      <trkpt lat="42.4165258" lon="2.2775182">
        <ele>1989.31994629</ele>
        <time>2021-03-30T09:47:56Z</time>
      </trkpt>
      <trkpt lat="42.4165028" lon="2.2776238">
        <ele>1988.41003418</ele>
        <time>2021-03-30T09:47:57Z</time>
      </trkpt>
      <trkpt lat="42.416473" lon="2.2777222">
        <ele>1987.76000977</ele>
        <time>2021-03-30T09:47:58Z</time>
      </trkpt>
      <trkpt lat="42.4164481" lon="2.2778289">
        <ele>1987</ele>
        <time>2021-03-30T09:47:59Z</time>
      </trkpt>
      <trkpt lat="42.4164215" lon="2.2779192">
        <ele>1986.22998047</ele>
        <time>2021-03-30T09:48:00Z</time>
      </trkpt>
      <trkpt lat="42.4163874" lon="2.278008">
        <ele>1985.31994629</ele>
        <time>2021-03-30T09:48:01Z</time>
      </trkpt>
      <trkpt lat="42.4163532" lon="2.2780823">
        <ele>1984.47998047</ele>
        <time>2021-03-30T09:48:02Z</time>
      </trkpt>
      <trkpt lat="42.4163049" lon="2.278147">
        <ele>1983.2800293</ele>
        <time>2021-03-30T09:48:03Z</time>
      </trkpt>
      <trkpt lat="42.4162475" lon="2.278202">
        <ele>1981.61999512</ele>
        <time>2021-03-30T09:48:04Z</time>
      </trkpt>
      <trkpt lat="42.4162044" lon="2.278234">
        <ele>1979.7199707</ele>
        <time>2021-03-30T09:48:05Z</time>
      </trkpt>
      <trkpt lat="42.4161603" lon="2.2782556">
        <ele>1977.60998535</ele>
        <time>2021-03-30T09:48:06Z</time>
      </trkpt>
      <trkpt lat="42.4160964" lon="2.2782574">
        <ele>1975.47998047</ele>
        <time>2021-03-30T09:48:07Z</time>
      </trkpt>
      <trkpt lat="42.4160351" lon="2.2782317">
        <ele>1973.31005859</ele>
        <time>2021-03-30T09:48:08Z</time>
      </trkpt>
      <trkpt lat="42.4159782" lon="2.2781972">
        <ele>1970.92004395</ele>
        <time>2021-03-30T09:48:09Z</time>
      </trkpt>
      <trkpt lat="42.4159167" lon="2.2781528">
        <ele>1968.0300293</ele>
        <time>2021-03-30T09:48:10Z</time>
      </trkpt>
      <trkpt lat="42.4158627" lon="2.2781094">
        <ele>1964.60998535</ele>
        <time>2021-03-30T09:48:11Z</time>
      </trkpt>
      <trkpt lat="42.4158264" lon="2.2780804">
        <ele>1961.18005371</ele>
        <time>2021-03-30T09:48:12Z</time>
      </trkpt>
      <trkpt lat="42.415783" lon="2.2780568">
        <ele>1956.77001953</ele>
        <time>2021-03-30T09:48:13Z</time>
      </trkpt>
      <trkpt lat="42.4157381" lon="2.2780404">
        <ele>1952.25</ele>
        <time>2021-03-30T09:48:14Z</time>
      </trkpt>
      <trkpt lat="42.4156823" lon="2.278023">
        <ele>1947.85998535</ele>
        <time>2021-03-30T09:48:15Z</time>
      </trkpt>
      <trkpt lat="42.4156228" lon="2.2780085">
        <ele>1943.4699707</ele>
        <time>2021-03-30T09:48:16Z</time>
      </trkpt>
      <trkpt lat="42.4155531" lon="2.2779887">
        <ele>1939.58996582</ele>
        <time>2021-03-30T09:48:17Z</time>
      </trkpt>
      <trkpt lat="42.4154894" lon="2.2779748">
        <ele>1936.01000977</ele>
        <time>2021-03-30T09:48:18Z</time>
      </trkpt>
      <trkpt lat="42.4154138" lon="2.2779573">
        <ele>1933.02001953</ele>
        <time>2021-03-30T09:48:19Z</time>
      </trkpt>
      <trkpt lat="42.415344" lon="2.2779422">
        <ele>1930.16003418</ele>
        <time>2021-03-30T09:48:20Z</time>
      </trkpt>
      <trkpt lat="42.4152815" lon="2.2779269">
        <ele>1927.76000977</ele>
        <time>2021-03-30T09:48:21Z</time>
      </trkpt>
      <trkpt lat="42.4152145" lon="2.277908">
        <ele>1925.56994629</ele>
        <time>2021-03-30T09:48:22Z</time>
      </trkpt>
      <trkpt lat="42.4151429" lon="2.2778878">
        <ele>1923.5</ele>
        <time>2021-03-30T09:48:23Z</time>
      </trkpt>
      <trkpt lat="42.415079" lon="2.277871">
        <ele>1921.56005859</ele>
        <time>2021-03-30T09:48:24Z</time>
      </trkpt>
      <trkpt lat="42.415004" lon="2.2778506">
        <ele>1919.88000488</ele>
        <time>2021-03-30T09:48:25Z</time>
      </trkpt>
      <trkpt lat="42.4149275" lon="2.2778296">
        <ele>1918.40002441</ele>
        <time>2021-03-30T09:48:26Z</time>
      </trkpt>
      <trkpt lat="42.4148495" lon="2.2778117">
        <ele>1917.16003418</ele>
        <time>2021-03-30T09:48:27Z</time>
      </trkpt>
      <trkpt lat="42.4147778" lon="2.2778016">
        <ele>1916.27001953</ele>
        <time>2021-03-30T09:48:28Z</time>
      </trkpt>
      <trkpt lat="42.4147048" lon="2.2777907">
        <ele>1915.20996094</ele>
        <time>2021-03-30T09:48:29Z</time>
      </trkpt>
      <trkpt lat="42.4146315" lon="2.2777737">
        <ele>1914.2800293</ele>
        <time>2021-03-30T09:48:30Z</time>
      </trkpt>
      <trkpt lat="42.4145584" lon="2.2777524">
        <ele>1913.47998047</ele>
        <time>2021-03-30T09:48:31Z</time>
      </trkpt>
      <trkpt lat="42.4144857" lon="2.2777322">
        <ele>1912.92004395</ele>
        <time>2021-03-30T09:48:32Z</time>
      </trkpt>
      <trkpt lat="42.4144112" lon="2.2777072">
        <ele>1912.41003418</ele>
        <time>2021-03-30T09:48:33Z</time>
      </trkpt>
      <trkpt lat="42.414347" lon="2.2776761">
        <ele>1911.85998535</ele>
        <time>2021-03-30T09:48:34Z</time>
      </trkpt>
      <trkpt lat="42.4142714" lon="2.2776468">
        <ele>1911.32995605</ele>
        <time>2021-03-30T09:48:35Z</time>
      </trkpt>
      <trkpt lat="42.4141957" lon="2.2776182">
        <ele>1910.60998535</ele>
        <time>2021-03-30T09:48:36Z</time>
      </trkpt>
      <trkpt lat="42.4141321" lon="2.2775948">
        <ele>1910.06005859</ele>
        <time>2021-03-30T09:48:37Z</time>
      </trkpt>
      <trkpt lat="42.4140626" lon="2.2775733">
        <ele>1909.48999023</ele>
        <time>2021-03-30T09:48:38Z</time>
      </trkpt>
      <trkpt lat="42.4139819" lon="2.2775472">
        <ele>1909.05004883</ele>
        <time>2021-03-30T09:48:39Z</time>
      </trkpt>
      <trkpt lat="42.4139172" lon="2.2775277">
        <ele>1908.61999512</ele>
        <time>2021-03-30T09:48:40Z</time>
      </trkpt>
      <trkpt lat="42.4138468" lon="2.2775137">
        <ele>1908.09997559</ele>
        <time>2021-03-30T09:48:41Z</time>
      </trkpt>
      <trkpt lat="42.4137705" lon="2.2775051">
        <ele>1907.58996582</ele>
        <time>2021-03-30T09:48:42Z</time>
      </trkpt>
      <trkpt lat="42.4136945" lon="2.2775125">
        <ele>1906.9699707</ele>
        <time>2021-03-30T09:48:43Z</time>
      </trkpt>
      <trkpt lat="42.4136093" lon="2.2775202">
        <ele>1906.25</ele>
        <time>2021-03-30T09:48:44Z</time>
      </trkpt>
      <trkpt lat="42.4135237" lon="2.2775344">
        <ele>1905.65002441</ele>
        <time>2021-03-30T09:48:45Z</time>
      </trkpt>
      <trkpt lat="42.4134358" lon="2.2775512">
        <ele>1905.26000977</ele>
        <time>2021-03-30T09:48:46Z</time>
      </trkpt>
      <trkpt lat="42.413347" lon="2.277567">
        <ele>1904.89001465</ele>
        <time>2021-03-30T09:48:47Z</time>
      </trkpt>
      <trkpt lat="42.4132571" lon="2.2775768">
        <ele>1904.39001465</ele>
        <time>2021-03-30T09:48:48Z</time>
      </trkpt>
      <trkpt lat="42.4131722" lon="2.2775647">
        <ele>1903.89001465</ele>
        <time>2021-03-30T09:48:49Z</time>
      </trkpt>
      <trkpt lat="42.4130871" lon="2.2775502">
        <ele>1903.42004395</ele>
        <time>2021-03-30T09:48:50Z</time>
      </trkpt>
      <trkpt lat="42.4130058" lon="2.2775264">
        <ele>1902.91003418</ele>
        <time>2021-03-30T09:48:51Z</time>
      </trkpt>
      <trkpt lat="42.4129235" lon="2.2775009">
        <ele>1902.54003906</ele>
        <time>2021-03-30T09:48:52Z</time>
      </trkpt>
      <trkpt lat="42.4128399" lon="2.2774737">
        <ele>1902.30004883</ele>
        <time>2021-03-30T09:48:53Z</time>
      </trkpt>
      <trkpt lat="42.4127546" lon="2.2774477">
        <ele>1902.08996582</ele>
        <time>2021-03-30T09:48:54Z</time>
      </trkpt>
      <trkpt lat="42.4126642" lon="2.2774397">
        <ele>1901.83996582</ele>
        <time>2021-03-30T09:48:55Z</time>
      </trkpt>
      <trkpt lat="42.4125701" lon="2.2774419">
        <ele>1901.52001953</ele>
        <time>2021-03-30T09:48:56Z</time>
      </trkpt>
      <trkpt lat="42.4124712" lon="2.2774529">
        <ele>1901.29003906</ele>
        <time>2021-03-30T09:48:57Z</time>
      </trkpt>
      <trkpt lat="42.4123715" lon="2.2774466">
        <ele>1901.07995605</ele>
        <time>2021-03-30T09:48:58Z</time>
      </trkpt>
      <trkpt lat="42.412272" lon="2.2774195">
        <ele>1900.95996094</ele>
        <time>2021-03-30T09:48:59Z</time>
      </trkpt>
      <trkpt lat="42.4121701" lon="2.277393">
        <ele>1900.79003906</ele>
        <time>2021-03-30T09:49:00Z</time>
      </trkpt>
      <trkpt lat="42.4120697" lon="2.2773661">
        <ele>1900.59997559</ele>
        <time>2021-03-30T09:49:01Z</time>
      </trkpt>
      <trkpt lat="42.4119726" lon="2.2773372">
        <ele>1900.33996582</ele>
        <time>2021-03-30T09:49:02Z</time>
      </trkpt>
      <trkpt lat="42.4118723" lon="2.2773248">
        <ele>1900.26000977</ele>
        <time>2021-03-30T09:49:03Z</time>
      </trkpt>
      <trkpt lat="42.4117703" lon="2.2773344">
        <ele>1900.19995117</ele>
        <time>2021-03-30T09:49:04Z</time>
      </trkpt>
      <trkpt lat="42.4116717" lon="2.2773569">
        <ele>1900.05004883</ele>
        <time>2021-03-30T09:49:05Z</time>
      </trkpt>
      <trkpt lat="42.4115786" lon="2.2773805">
        <ele>1899.82995605</ele>
        <time>2021-03-30T09:49:06Z</time>
      </trkpt>
      <trkpt lat="42.411486" lon="2.2773976">
        <ele>1899.52001953</ele>
        <time>2021-03-30T09:49:07Z</time>
      </trkpt>
      <trkpt lat="42.4113888" lon="2.2773893">
        <ele>1899.42004395</ele>
        <time>2021-03-30T09:49:08Z</time>
      </trkpt>
      <trkpt lat="42.4112948" lon="2.2773793">
        <ele>1899.30004883</ele>
        <time>2021-03-30T09:49:09Z</time>
      </trkpt>
      <trkpt lat="42.4112058" lon="2.2773553">
        <ele>1899.32995605</ele>
        <time>2021-03-30T09:49:10Z</time>
      </trkpt>
      <trkpt lat="42.4111158" lon="2.2773362">
        <ele>1899.4699707</ele>
        <time>2021-03-30T09:49:11Z</time>
      </trkpt>
      <trkpt lat="42.4110271" lon="2.2773298">
        <ele>1899.40002441</ele>
        <time>2021-03-30T09:49:12Z</time>
      </trkpt>
      <trkpt lat="42.4109434" lon="2.2773349">
        <ele>1899.2199707</ele>
        <time>2021-03-30T09:49:13Z</time>
      </trkpt>
      <trkpt lat="42.41086" lon="2.2773314">
        <ele>1899.04003906</ele>
        <time>2021-03-30T09:49:14Z</time>
      </trkpt>
      <trkpt lat="42.4107744" lon="2.2773301">
        <ele>1898.81994629</ele>
        <time>2021-03-30T09:49:15Z</time>
      </trkpt>
      <trkpt lat="42.4106934" lon="2.2773281">
        <ele>1898.60998535</ele>
        <time>2021-03-30T09:49:16Z</time>
      </trkpt>
      <trkpt lat="42.4106146" lon="2.2773287">
        <ele>1898.52001953</ele>
        <time>2021-03-30T09:49:17Z</time>
      </trkpt>
      <trkpt lat="42.4105359" lon="2.2773314">
        <ele>1898.42004395</ele>
        <time>2021-03-30T09:49:18Z</time>
      </trkpt>
      <trkpt lat="42.4104573" lon="2.2773447">
        <ele>1898.36999512</ele>
        <time>2021-03-30T09:49:19Z</time>
      </trkpt>
      <trkpt lat="42.410384" lon="2.2773835">
        <ele>1898.39001465</ele>
        <time>2021-03-30T09:49:20Z</time>
      </trkpt>
      <trkpt lat="42.4103244" lon="2.2774533">
        <ele>1898.2800293</ele>
        <time>2021-03-30T09:49:21Z</time>
      </trkpt>
      <trkpt lat="42.4102806" lon="2.2775438">
        <ele>1898.16003418</ele>
        <time>2021-03-30T09:49:22Z</time>
      </trkpt>
      <trkpt lat="42.4102439" lon="2.277641">
        <ele>1898.07995605</ele>
        <time>2021-03-30T09:49:23Z</time>
      </trkpt>
      <trkpt lat="42.4102077" lon="2.2777365">
        <ele>1897.93994141</ele>
        <time>2021-03-30T09:49:24Z</time>
      </trkpt>
      <trkpt lat="42.4101692" lon="2.2778303">
        <ele>1897.83996582</ele>
        <time>2021-03-30T09:49:25Z</time>
      </trkpt>
      <trkpt lat="42.4101211" lon="2.2779236">
        <ele>1897.59997559</ele>
        <time>2021-03-30T09:49:26Z</time>
      </trkpt>
      <trkpt lat="42.4100675" lon="2.2780103">
        <ele>1897.38000488</ele>
        <time>2021-03-30T09:49:27Z</time>
      </trkpt>
      <trkpt lat="42.410011" lon="2.2780922">
        <ele>1897.18994141</ele>
        <time>2021-03-30T09:49:28Z</time>
      </trkpt>
      <trkpt lat="42.4099556" lon="2.2781738">
        <ele>1896.95996094</ele>
        <time>2021-03-30T09:49:29Z</time>
      </trkpt>
      <trkpt lat="42.409901" lon="2.2782491">
        <ele>1896.81005859</ele>
        <time>2021-03-30T09:49:30Z</time>
      </trkpt>
      <trkpt lat="42.4098452" lon="2.2783174">
        <ele>1896.72998047</ele>
        <time>2021-03-30T09:49:31Z</time>
      </trkpt>
      <trkpt lat="42.4097835" lon="2.2783783">
        <ele>1896.45996094</ele>
        <time>2021-03-30T09:49:32Z</time>
      </trkpt>
      <trkpt lat="42.40972" lon="2.278433">
        <ele>1896.18994141</ele>
        <time>2021-03-30T09:49:33Z</time>
      </trkpt>
      <trkpt lat="42.4096581" lon="2.278487">
        <ele>1895.93994141</ele>
        <time>2021-03-30T09:49:34Z</time>
      </trkpt>
      <trkpt lat="42.4095913" lon="2.2785351">
        <ele>1895.73999023</ele>
        <time>2021-03-30T09:49:35Z</time>
      </trkpt>
      <trkpt lat="42.4095201" lon="2.2785757">
        <ele>1895.56994629</ele>
        <time>2021-03-30T09:49:36Z</time>
      </trkpt>
      <trkpt lat="42.4094464" lon="2.2786093">
        <ele>1895.36999512</ele>
        <time>2021-03-30T09:49:37Z</time>
      </trkpt>
      <trkpt lat="42.4093753" lon="2.2786392">
        <ele>1895.07995605</ele>
        <time>2021-03-30T09:49:38Z</time>
      </trkpt>
      <trkpt lat="42.4093062" lon="2.2786697">
        <ele>1894.72998047</ele>
        <time>2021-03-30T09:49:39Z</time>
      </trkpt>
      <trkpt lat="42.4092374" lon="2.2787015">
        <ele>1894.39001465</ele>
        <time>2021-03-30T09:49:40Z</time>
      </trkpt>
      <trkpt lat="42.4091665" lon="2.2787347">
        <ele>1894.07995605</ele>
        <time>2021-03-30T09:49:41Z</time>
      </trkpt>
      <trkpt lat="42.4090961" lon="2.2787635">
        <ele>1893.80004883</ele>
        <time>2021-03-30T09:49:42Z</time>
      </trkpt>
      <trkpt lat="42.4090288" lon="2.2787938">
        <ele>1893.79003906</ele>
        <time>2021-03-30T09:49:43Z</time>
      </trkpt>
      <trkpt lat="42.4089609" lon="2.2788252">
        <ele>1893.77001953</ele>
        <time>2021-03-30T09:49:44Z</time>
      </trkpt>
      <trkpt lat="42.4088935" lon="2.2788525">
        <ele>1893.63000488</ele>
        <time>2021-03-30T09:49:45Z</time>
      </trkpt>
      <trkpt lat="42.4088253" lon="2.2788754">
        <ele>1893.43994141</ele>
        <time>2021-03-30T09:49:46Z</time>
      </trkpt>
      <trkpt lat="42.4087533" lon="2.2788942">
        <ele>1893.02001953</ele>
        <time>2021-03-30T09:49:47Z</time>
      </trkpt>
      <trkpt lat="42.4086805" lon="2.2789005">
        <ele>1892.51000977</ele>
        <time>2021-03-30T09:49:48Z</time>
      </trkpt>
      <trkpt lat="42.4086079" lon="2.2789135">
        <ele>1892.11999512</ele>
        <time>2021-03-30T09:49:49Z</time>
      </trkpt>
      <trkpt lat="42.4085355" lon="2.2789287">
        <ele>1891.61999512</ele>
        <time>2021-03-30T09:49:50Z</time>
      </trkpt>
      <trkpt lat="42.4084661" lon="2.2789341">
        <ele>1890.9699707</ele>
        <time>2021-03-30T09:49:51Z</time>
      </trkpt>
      <trkpt lat="42.4083958" lon="2.2789383">
        <ele>1890.43994141</ele>
        <time>2021-03-30T09:49:52Z</time>
      </trkpt>
      <trkpt lat="42.4083238" lon="2.2789431">
        <ele>1889.92004395</ele>
        <time>2021-03-30T09:49:53Z</time>
      </trkpt>
      <trkpt lat="42.4082489" lon="2.2789395">
        <ele>1889.52001953</ele>
        <time>2021-03-30T09:49:54Z</time>
      </trkpt>
      <trkpt lat="42.4081742" lon="2.2789393">
        <ele>1889.22998047</ele>
        <time>2021-03-30T09:49:55Z</time>
      </trkpt>
      <trkpt lat="42.4081027" lon="2.2789433">
        <ele>1889.11999512</ele>
        <time>2021-03-30T09:49:56Z</time>
      </trkpt>
      <trkpt lat="42.4080345" lon="2.2789434">
        <ele>1889.02001953</ele>
        <time>2021-03-30T09:49:57Z</time>
      </trkpt>
      <trkpt lat="42.4079711" lon="2.278954">
        <ele>1888.83996582</ele>
        <time>2021-03-30T09:49:58Z</time>
      </trkpt>
      <trkpt lat="42.4079103" lon="2.2789696">
        <ele>1888.69995117</ele>
        <time>2021-03-30T09:49:59Z</time>
      </trkpt>
      <trkpt lat="42.4078575" lon="2.2790051">
        <ele>1888.56005859</ele>
        <time>2021-03-30T09:50:00Z</time>
      </trkpt>
      <trkpt lat="42.4078078" lon="2.2790599">
        <ele>1888.42004395</ele>
        <time>2021-03-30T09:50:01Z</time>
      </trkpt>
      <trkpt lat="42.407764" lon="2.2791282">
        <ele>1888.27001953</ele>
        <time>2021-03-30T09:50:02Z</time>
      </trkpt>
      <trkpt lat="42.4077341" lon="2.2792084">
        <ele>1888.17004395</ele>
        <time>2021-03-30T09:50:03Z</time>
      </trkpt>
      <trkpt lat="42.4077092" lon="2.2792956">
        <ele>1888.06005859</ele>
        <time>2021-03-30T09:50:04Z</time>
      </trkpt>
      <trkpt lat="42.4076802" lon="2.2793851">
        <ele>1887.81994629</ele>
        <time>2021-03-30T09:50:05Z</time>
      </trkpt>
      <trkpt lat="42.4076482" lon="2.279474">
        <ele>1887.47998047</ele>
        <time>2021-03-30T09:50:06Z</time>
      </trkpt>
      <trkpt lat="42.4076067" lon="2.2795561">
        <ele>1887.16003418</ele>
        <time>2021-03-30T09:50:07Z</time>
      </trkpt>
      <trkpt lat="42.4075574" lon="2.2796236">
        <ele>1886.82995605</ele>
        <time>2021-03-30T09:50:08Z</time>
      </trkpt>
      <trkpt lat="42.4075064" lon="2.2796781">
        <ele>1886.56994629</ele>
        <time>2021-03-30T09:50:09Z</time>
      </trkpt>
      <trkpt lat="42.4074494" lon="2.2797211">
        <ele>1886.29003906</ele>
        <time>2021-03-30T09:50:10Z</time>
      </trkpt>
      <trkpt lat="42.4073899" lon="2.2797563">
        <ele>1885.97998047</ele>
        <time>2021-03-30T09:50:11Z</time>
      </trkpt>
      <trkpt lat="42.407332" lon="2.279781">
        <ele>1885.7199707</ele>
        <time>2021-03-30T09:50:12Z</time>
      </trkpt>
      <trkpt lat="42.4072789" lon="2.2798057">
        <ele>1885.52001953</ele>
        <time>2021-03-30T09:50:13Z</time>
      </trkpt>
      <trkpt lat="42.407229" lon="2.2798287">
        <ele>1885.31005859</ele>
        <time>2021-03-30T09:50:14Z</time>
      </trkpt>
      <trkpt lat="42.4071858" lon="2.2798593">
        <ele>1885.14001465</ele>
        <time>2021-03-30T09:50:15Z</time>
      </trkpt>
      <trkpt lat="42.4071421" lon="2.2798881">
        <ele>1884.98999023</ele>
        <time>2021-03-30T09:50:16Z</time>
      </trkpt>
      <trkpt lat="42.4071123" lon="2.2799473">
        <ele>1884.86999512</ele>
        <time>2021-03-30T09:50:17Z</time>
      </trkpt>
      <trkpt lat="42.4071066" lon="2.2800324">
        <ele>1884.97998047</ele>
        <time>2021-03-30T09:50:18Z</time>
      </trkpt>
      <trkpt lat="42.407115" lon="2.2801199">
        <ele>1884.91003418</ele>
        <time>2021-03-30T09:50:19Z</time>
      </trkpt>
      <trkpt lat="42.4071354" lon="2.2802069">
        <ele>1884.68994141</ele>
        <time>2021-03-30T09:50:20Z</time>
      </trkpt>
      <trkpt lat="42.407164" lon="2.2802928">
        <ele>1884.34997559</ele>
        <time>2021-03-30T09:50:21Z</time>
      </trkpt>
      <trkpt lat="42.4071948" lon="2.2803787">
        <ele>1884.01000977</ele>
        <time>2021-03-30T09:50:22Z</time>
      </trkpt>
      <trkpt lat="42.407228" lon="2.2804671">
        <ele>1883.68994141</ele>
        <time>2021-03-30T09:50:23Z</time>
      </trkpt>
      <trkpt lat="42.4072607" lon="2.2805622">
        <ele>1883.35998535</ele>
        <time>2021-03-30T09:50:24Z</time>
      </trkpt>
      <trkpt lat="42.4072861" lon="2.280666">
        <ele>1883.06005859</ele>
        <time>2021-03-30T09:50:25Z</time>
      </trkpt>
      <trkpt lat="42.4073145" lon="2.2807679">
        <ele>1882.70996094</ele>
        <time>2021-03-30T09:50:26Z</time>
      </trkpt>
      <trkpt lat="42.4073415" lon="2.2808623">
        <ele>1882.44995117</ele>
        <time>2021-03-30T09:50:27Z</time>
      </trkpt>
      <trkpt lat="42.4073677" lon="2.2809535">
        <ele>1882.14001465</ele>
        <time>2021-03-30T09:50:28Z</time>
      </trkpt>
      <trkpt lat="42.4073923" lon="2.2810426">
        <ele>1881.81994629</ele>
        <time>2021-03-30T09:50:29Z</time>
      </trkpt>
      <trkpt lat="42.4074178" lon="2.2811279">
        <ele>1881.54003906</ele>
        <time>2021-03-30T09:50:30Z</time>
      </trkpt>
      <trkpt lat="42.4074416" lon="2.2812154">
        <ele>1881.11999512</ele>
        <time>2021-03-30T09:50:31Z</time>
      </trkpt>
      <trkpt lat="42.4074607" lon="2.2813074">
        <ele>1880.77001953</ele>
        <time>2021-03-30T09:50:32Z</time>
      </trkpt>
      <trkpt lat="42.4074793" lon="2.2814025">
        <ele>1880.51000977</ele>
        <time>2021-03-30T09:50:33Z</time>
      </trkpt>
      <trkpt lat="42.4075017" lon="2.2814974">
        <ele>1880.27001953</ele>
        <time>2021-03-30T09:50:34Z</time>
      </trkpt>
      <trkpt lat="42.4075154" lon="2.2815976">
        <ele>1880.02001953</ele>
        <time>2021-03-30T09:50:35Z</time>
      </trkpt>
      <trkpt lat="42.4075163" lon="2.2817062">
        <ele>1879.66003418</ele>
        <time>2021-03-30T09:50:36Z</time>
      </trkpt>
      <trkpt lat="42.4074949" lon="2.2818225">
        <ele>1879.29003906</ele>
        <time>2021-03-30T09:50:37Z</time>
      </trkpt>
      <trkpt lat="42.4074572" lon="2.2819389">
        <ele>1878.93005371</ele>
        <time>2021-03-30T09:50:38Z</time>
      </trkpt>
      <trkpt lat="42.4074225" lon="2.2820616">
        <ele>1878.7800293</ele>
        <time>2021-03-30T09:50:39Z</time>
      </trkpt>
      <trkpt lat="42.4073895" lon="2.2821847">
        <ele>1878.51000977</ele>
        <time>2021-03-30T09:50:40Z</time>
      </trkpt>
      <trkpt lat="42.4073604" lon="2.2823072">
        <ele>1878.10998535</ele>
        <time>2021-03-30T09:50:41Z</time>
      </trkpt>
      <trkpt lat="42.4073383" lon="2.2824324">
        <ele>1877.77001953</ele>
        <time>2021-03-30T09:50:42Z</time>
      </trkpt>
      <trkpt lat="42.4073221" lon="2.2825637">
        <ele>1877.59997559</ele>
        <time>2021-03-30T09:50:43Z</time>
      </trkpt>
      <trkpt lat="42.4073138" lon="2.2826982">
        <ele>1877.42004395</ele>
        <time>2021-03-30T09:50:44Z</time>
      </trkpt>
      <trkpt lat="42.4073041" lon="2.2828295">
        <ele>1877.23999023</ele>
        <time>2021-03-30T09:50:45Z</time>
      </trkpt>
      <trkpt lat="42.407291" lon="2.2829558">
        <ele>1877.04003906</ele>
        <time>2021-03-30T09:50:46Z</time>
      </trkpt>
      <trkpt lat="42.4072759" lon="2.2830798">
        <ele>1876.91003418</ele>
        <time>2021-03-30T09:50:47Z</time>
      </trkpt>
      <trkpt lat="42.4072566" lon="2.2832015">
        <ele>1876.75</ele>
        <time>2021-03-30T09:50:48Z</time>
      </trkpt>
      <trkpt lat="42.4072198" lon="2.283316">
        <ele>1876.56005859</ele>
        <time>2021-03-30T09:50:49Z</time>
      </trkpt>
      <trkpt lat="42.4071768" lon="2.2834268">
        <ele>1876.19995117</ele>
        <time>2021-03-30T09:50:50Z</time>
      </trkpt>
      <trkpt lat="42.4071321" lon="2.2835368">
        <ele>1875.90002441</ele>
        <time>2021-03-30T09:50:51Z</time>
      </trkpt>
      <trkpt lat="42.4070889" lon="2.283648">
        <ele>1875.63000488</ele>
        <time>2021-03-30T09:50:52Z</time>
      </trkpt>
      <trkpt lat="42.4070465" lon="2.2837614">
        <ele>1875.41003418</ele>
        <time>2021-03-30T09:50:53Z</time>
      </trkpt>
      <trkpt lat="42.4070056" lon="2.2838715">
        <ele>1875.2800293</ele>
        <time>2021-03-30T09:50:54Z</time>
      </trkpt>
      <trkpt lat="42.4069605" lon="2.283973">
        <ele>1875.06005859</ele>
        <time>2021-03-30T09:50:55Z</time>
      </trkpt>
      <trkpt lat="42.4069187" lon="2.2840692">
        <ele>1874.84997559</ele>
        <time>2021-03-30T09:50:56Z</time>
      </trkpt>
      <trkpt lat="42.4068795" lon="2.2841668">
        <ele>1874.65002441</ele>
        <time>2021-03-30T09:50:57Z</time>
      </trkpt>
      <trkpt lat="42.4068594" lon="2.2842711">
        <ele>1874.20996094</ele>
        <time>2021-03-30T09:50:58Z</time>
      </trkpt>
      <trkpt lat="42.4068623" lon="2.284379">
        <ele>1873.77001953</ele>
        <time>2021-03-30T09:50:59Z</time>
      </trkpt>
      <trkpt lat="42.4068775" lon="2.2844874">
        <ele>1873.29003906</ele>
        <time>2021-03-30T09:51:00Z</time>
      </trkpt>
      <trkpt lat="42.4068994" lon="2.2845895">
        <ele>1872.86999512</ele>
        <time>2021-03-30T09:51:01Z</time>
      </trkpt>
      <trkpt lat="42.4069253" lon="2.284685">
        <ele>1872.43994141</ele>
        <time>2021-03-30T09:51:02Z</time>
      </trkpt>
      <trkpt lat="42.4069497" lon="2.2847723">
        <ele>1872.17004395</ele>
        <time>2021-03-30T09:51:03Z</time>
      </trkpt>
      <trkpt lat="42.4069681" lon="2.2848624">
        <ele>1872.06005859</ele>
        <time>2021-03-30T09:51:04Z</time>
      </trkpt>
      <trkpt lat="42.4069605" lon="2.2849605">
        <ele>1871.89001465</ele>
        <time>2021-03-30T09:51:05Z</time>
      </trkpt>
      <trkpt lat="42.4069293" lon="2.2850541">
        <ele>1871.68005371</ele>
        <time>2021-03-30T09:51:06Z</time>
      </trkpt>
      <trkpt lat="42.4068744" lon="2.2851357">
        <ele>1871.34997559</ele>
        <time>2021-03-30T09:51:07Z</time>
      </trkpt>
      <trkpt lat="42.4067983" lon="2.2851891">
        <ele>1870.91003418</ele>
        <time>2021-03-30T09:51:08Z</time>
      </trkpt>
      <trkpt lat="42.406717" lon="2.2852238">
        <ele>1870.2800293</ele>
        <time>2021-03-30T09:51:09Z</time>
      </trkpt>
      <trkpt lat="42.406635" lon="2.2852573">
        <ele>1869.7199707</ele>
        <time>2021-03-30T09:51:10Z</time>
      </trkpt>
      <trkpt lat="42.406556" lon="2.285313">
        <ele>1869.2199707</ele>
        <time>2021-03-30T09:51:11Z</time>
      </trkpt>
      <trkpt lat="42.4064744" lon="2.28537">
        <ele>1868.70996094</ele>
        <time>2021-03-30T09:51:12Z</time>
      </trkpt>
      <trkpt lat="42.4064001" lon="2.285435">
        <ele>1868.15002441</ele>
        <time>2021-03-30T09:51:13Z</time>
      </trkpt>
      <trkpt lat="42.4063255" lon="2.2855009">
        <ele>1867.56005859</ele>
        <time>2021-03-30T09:51:14Z</time>
      </trkpt>
      <trkpt lat="42.406254" lon="2.2855621">
        <ele>1867.01000977</ele>
        <time>2021-03-30T09:51:15Z</time>
      </trkpt>
      <trkpt lat="42.4061858" lon="2.2856161">
        <ele>1866.69995117</ele>
        <time>2021-03-30T09:51:16Z</time>
      </trkpt>
      <trkpt lat="42.4061206" lon="2.2856755">
        <ele>1866.43994141</ele>
        <time>2021-03-30T09:51:17Z</time>
      </trkpt>
      <trkpt lat="42.4060558" lon="2.2857453">
        <ele>1866.09997559</ele>
        <time>2021-03-30T09:51:18Z</time>
      </trkpt>
      <trkpt lat="42.4059905" lon="2.2858149">
        <ele>1865.72998047</ele>
        <time>2021-03-30T09:51:19Z</time>
      </trkpt>
      <trkpt lat="42.4059243" lon="2.2858887">
        <ele>1865.31005859</ele>
        <time>2021-03-30T09:51:20Z</time>
      </trkpt>
      <trkpt lat="42.4058587" lon="2.285967">
        <ele>1864.95996094</ele>
        <time>2021-03-30T09:51:21Z</time>
      </trkpt>
      <trkpt lat="42.4057923" lon="2.2860472">
        <ele>1864.51000977</ele>
        <time>2021-03-30T09:51:22Z</time>
      </trkpt>
      <trkpt lat="42.4057274" lon="2.2861264">
        <ele>1864.20996094</ele>
        <time>2021-03-30T09:51:23Z</time>
      </trkpt>
      <trkpt lat="42.405657" lon="2.2862053">
        <ele>1863.82995605</ele>
        <time>2021-03-30T09:51:24Z</time>
      </trkpt>
      <trkpt lat="42.4055828" lon="2.2862869">
        <ele>1863.31005859</ele>
        <time>2021-03-30T09:51:25Z</time>
      </trkpt>
      <trkpt lat="42.4055078" lon="2.2863647">
        <ele>1862.76000977</ele>
        <time>2021-03-30T09:51:26Z</time>
      </trkpt>
      <trkpt lat="42.40543" lon="2.2864424">
        <ele>1862.18994141</ele>
        <time>2021-03-30T09:51:27Z</time>
      </trkpt>
      <trkpt lat="42.4053473" lon="2.2865202">
        <ele>1861.63000488</ele>
        <time>2021-03-30T09:51:28Z</time>
      </trkpt>
      <trkpt lat="42.4052637" lon="2.2866046">
        <ele>1861</ele>
        <time>2021-03-30T09:51:29Z</time>
      </trkpt>
      <trkpt lat="42.4051801" lon="2.2866944">
        <ele>1860.43005371</ele>
        <time>2021-03-30T09:51:30Z</time>
      </trkpt>
      <trkpt lat="42.405099" lon="2.2867881">
        <ele>1859.92004395</ele>
        <time>2021-03-30T09:51:31Z</time>
      </trkpt>
      <trkpt lat="42.4050171" lon="2.286883">
        <ele>1859.40002441</ele>
        <time>2021-03-30T09:51:32Z</time>
      </trkpt>
      <trkpt lat="42.4049411" lon="2.2869816">
        <ele>1859.04003906</ele>
        <time>2021-03-30T09:51:33Z</time>
      </trkpt>
      <trkpt lat="42.4048705" lon="2.2870874">
        <ele>1858.72998047</ele>
        <time>2021-03-30T09:51:34Z</time>
      </trkpt>
      <trkpt lat="42.4048044" lon="2.2872011">
        <ele>1858.52001953</ele>
        <time>2021-03-30T09:51:35Z</time>
      </trkpt>
      <trkpt lat="42.4047341" lon="2.2873148">
        <ele>1858.23999023</ele>
        <time>2021-03-30T09:51:36Z</time>
      </trkpt>
      <trkpt lat="42.4046642" lon="2.2874287">
        <ele>1857.93994141</ele>
        <time>2021-03-30T09:51:37Z</time>
      </trkpt>
      <trkpt lat="42.4045918" lon="2.2875336">
        <ele>1857.61999512</ele>
        <time>2021-03-30T09:51:38Z</time>
      </trkpt>
      <trkpt lat="42.4045245" lon="2.2876357">
        <ele>1857.2800293</ele>
        <time>2021-03-30T09:51:39Z</time>
      </trkpt>
      <trkpt lat="42.4044559" lon="2.2877291">
        <ele>1856.9699707</ele>
        <time>2021-03-30T09:51:40Z</time>
      </trkpt>
      <trkpt lat="42.4043849" lon="2.2878161">
        <ele>1856.64001465</ele>
        <time>2021-03-30T09:51:41Z</time>
      </trkpt>
      <trkpt lat="42.4043138" lon="2.2879024">
        <ele>1856.35998535</ele>
        <time>2021-03-30T09:51:42Z</time>
      </trkpt>
      <trkpt lat="42.4042316" lon="2.2879779">
        <ele>1856.23999023</ele>
        <time>2021-03-30T09:51:43Z</time>
      </trkpt>
      <trkpt lat="42.4041345" lon="2.2880391">
        <ele>1856.0300293</ele>
        <time>2021-03-30T09:51:44Z</time>
      </trkpt>
      <trkpt lat="42.4040318" lon="2.2880933">
        <ele>1855.7199707</ele>
        <time>2021-03-30T09:51:45Z</time>
      </trkpt>
      <trkpt lat="42.4039359" lon="2.2881461">
        <ele>1855.31005859</ele>
        <time>2021-03-30T09:51:46Z</time>
      </trkpt>
      <trkpt lat="42.403846" lon="2.2881905">
        <ele>1854.72998047</ele>
        <time>2021-03-30T09:51:47Z</time>
      </trkpt>
      <trkpt lat="42.4037572" lon="2.2882375">
        <ele>1854.26000977</ele>
        <time>2021-03-30T09:51:48Z</time>
      </trkpt>
      <trkpt lat="42.4036627" lon="2.288282">
        <ele>1853.76000977</ele>
        <time>2021-03-30T09:51:49Z</time>
      </trkpt>
      <trkpt lat="42.4035699" lon="2.2883082">
        <ele>1853.25</ele>
        <time>2021-03-30T09:51:50Z</time>
      </trkpt>
      <trkpt lat="42.4034796" lon="2.2883248">
        <ele>1852.83996582</ele>
        <time>2021-03-30T09:51:51Z</time>
      </trkpt>
      <trkpt lat="42.4033901" lon="2.2883306">
        <ele>1852.56994629</ele>
        <time>2021-03-30T09:51:52Z</time>
      </trkpt>
      <trkpt lat="42.4033026" lon="2.288342">
        <ele>1852.25</ele>
        <time>2021-03-30T09:51:53Z</time>
      </trkpt>
      <trkpt lat="42.4032164" lon="2.2883586">
        <ele>1852.13000488</ele>
        <time>2021-03-30T09:51:54Z</time>
      </trkpt>
      <trkpt lat="42.4031364" lon="2.2884152">
        <ele>1851.92004395</ele>
        <time>2021-03-30T09:51:55Z</time>
      </trkpt>
      <trkpt lat="42.4030519" lon="2.2884813">
        <ele>1851.58996582</ele>
        <time>2021-03-30T09:51:56Z</time>
      </trkpt>
      <trkpt lat="42.4029682" lon="2.2885618">
        <ele>1851.29003906</ele>
        <time>2021-03-30T09:51:57Z</time>
      </trkpt>
      <trkpt lat="42.4028822" lon="2.288649">
        <ele>1851</ele>
        <time>2021-03-30T09:51:58Z</time>
      </trkpt>
      <trkpt lat="42.4027989" lon="2.2887435">
        <ele>1850.61999512</ele>
        <time>2021-03-30T09:51:59Z</time>
      </trkpt>
      <trkpt lat="42.4027264" lon="2.2888401">
        <ele>1850.34997559</ele>
        <time>2021-03-30T09:52:00Z</time>
      </trkpt>
      <trkpt lat="42.4026699" lon="2.2889481">
        <ele>1850.29003906</ele>
        <time>2021-03-30T09:52:01Z</time>
      </trkpt>
      <trkpt lat="42.4026067" lon="2.2890634">
        <ele>1850.23999023</ele>
        <time>2021-03-30T09:52:02Z</time>
      </trkpt>
      <trkpt lat="42.4025468" lon="2.2891841">
        <ele>1850.09997559</ele>
        <time>2021-03-30T09:52:03Z</time>
      </trkpt>
      <trkpt lat="42.4025125" lon="2.2893082">
        <ele>1849.86999512</ele>
        <time>2021-03-30T09:52:04Z</time>
      </trkpt>
      <trkpt lat="42.4024915" lon="2.2894304">
        <ele>1849.68994141</ele>
        <time>2021-03-30T09:52:05Z</time>
      </trkpt>
      <trkpt lat="42.4024776" lon="2.2895587">
        <ele>1849.39001465</ele>
        <time>2021-03-30T09:52:06Z</time>
      </trkpt>
      <trkpt lat="42.4024706" lon="2.2896875">
        <ele>1848.93005371</ele>
        <time>2021-03-30T09:52:07Z</time>
      </trkpt>
      <trkpt lat="42.4024454" lon="2.2898018">
        <ele>1848.31994629</ele>
        <time>2021-03-30T09:52:08Z</time>
      </trkpt>
      <trkpt lat="42.4024073" lon="2.2899026">
        <ele>1847.77001953</ele>
        <time>2021-03-30T09:52:09Z</time>
      </trkpt>
      <trkpt lat="42.4023606" lon="2.2899998">
        <ele>1847.47998047</ele>
        <time>2021-03-30T09:52:10Z</time>
      </trkpt>
      <trkpt lat="42.4023128" lon="2.2901037">
        <ele>1847.11999512</ele>
        <time>2021-03-30T09:52:11Z</time>
      </trkpt>
      <trkpt lat="42.4022644" lon="2.2902025">
        <ele>1846.77001953</ele>
        <time>2021-03-30T09:52:12Z</time>
      </trkpt>
      <trkpt lat="42.402219" lon="2.2902923">
        <ele>1846.33996582</ele>
        <time>2021-03-30T09:52:13Z</time>
      </trkpt>
      <trkpt lat="42.4021746" lon="2.2903706">
        <ele>1845.90002441</ele>
        <time>2021-03-30T09:52:14Z</time>
      </trkpt>
      <trkpt lat="42.4021319" lon="2.2904438">
        <ele>1845.2800293</ele>
        <time>2021-03-30T09:52:15Z</time>
      </trkpt>
      <trkpt lat="42.4020919" lon="2.2905097">
        <ele>1844.63000488</ele>
        <time>2021-03-30T09:52:16Z</time>
      </trkpt>
      <trkpt lat="42.4020495" lon="2.2905696">
        <ele>1844.06994629</ele>
        <time>2021-03-30T09:52:17Z</time>
      </trkpt>
      <trkpt lat="42.4020012" lon="2.2906224">
        <ele>1843.66003418</ele>
        <time>2021-03-30T09:52:18Z</time>
      </trkpt>
      <trkpt lat="42.4019497" lon="2.2906681">
        <ele>1843.10998535</ele>
        <time>2021-03-30T09:52:19Z</time>
      </trkpt>
      <trkpt lat="42.4018965" lon="2.2907067">
        <ele>1842.59997559</ele>
        <time>2021-03-30T09:52:20Z</time>
      </trkpt>
      <trkpt lat="42.4018394" lon="2.2907436">
        <ele>1841.97998047</ele>
        <time>2021-03-30T09:52:21Z</time>
      </trkpt>
      <trkpt lat="42.4017773" lon="2.2907371">
        <ele>1841.44995117</ele>
        <time>2021-03-30T09:52:22Z</time>
      </trkpt>
      <trkpt lat="42.401729" lon="2.2906874">
        <ele>1840.64001465</ele>
        <time>2021-03-30T09:52:23Z</time>
      </trkpt>
      <trkpt lat="42.4017045" lon="2.2906016">
        <ele>1839.81994629</ele>
        <time>2021-03-30T09:52:24Z</time>
      </trkpt>
      <trkpt lat="42.4017041" lon="2.2904983">
        <ele>1838.88000488</ele>
        <time>2021-03-30T09:52:25Z</time>
      </trkpt>
      <trkpt lat="42.4017404" lon="2.2903972">
        <ele>1837.95996094</ele>
        <time>2021-03-30T09:52:26Z</time>
      </trkpt>
      <trkpt lat="42.4018136" lon="2.2903145">
        <ele>1836.86999512</ele>
        <time>2021-03-30T09:52:27Z</time>
      </trkpt>
      <trkpt lat="42.4018923" lon="2.2902478">
        <ele>1835.39001465</ele>
        <time>2021-03-30T09:52:28Z</time>
      </trkpt>
      <trkpt lat="42.401958" lon="2.2901931">
        <ele>1833.59997559</ele>
        <time>2021-03-30T09:52:29Z</time>
      </trkpt>
      <trkpt lat="42.4020258" lon="2.2901342">
        <ele>1831.84997559</ele>
        <time>2021-03-30T09:52:30Z</time>
      </trkpt>
      <trkpt lat="42.4020956" lon="2.290058">
        <ele>1829.90002441</ele>
        <time>2021-03-30T09:52:31Z</time>
      </trkpt>
      <trkpt lat="42.4021442" lon="2.2899586">
        <ele>1827.80004883</ele>
        <time>2021-03-30T09:52:32Z</time>
      </trkpt>
      <trkpt lat="42.4021921" lon="2.2898577">
        <ele>1825.23999023</ele>
        <time>2021-03-30T09:52:33Z</time>
      </trkpt>
      <trkpt lat="42.4022304" lon="2.2897573">
        <ele>1822.41003418</ele>
        <time>2021-03-30T09:52:34Z</time>
      </trkpt>
      <trkpt lat="42.4022673" lon="2.2896445">
        <ele>1819.92004395</ele>
        <time>2021-03-30T09:52:35Z</time>
      </trkpt>
      <trkpt lat="42.402292" lon="2.289539">
        <ele>1817.79003906</ele>
        <time>2021-03-30T09:52:36Z</time>
      </trkpt>
      <trkpt lat="42.4022983" lon="2.289411">
        <ele>1815.45996094</ele>
        <time>2021-03-30T09:52:37Z</time>
      </trkpt>
      <trkpt lat="42.4023013" lon="2.2892765">
        <ele>1813.11999512</ele>
        <time>2021-03-30T09:52:38Z</time>
      </trkpt>
      <trkpt lat="42.4022937" lon="2.2891304">
        <ele>1810.90002441</ele>
        <time>2021-03-30T09:52:39Z</time>
      </trkpt>
      <trkpt lat="42.4022892" lon="2.2889808">
        <ele>1809.01000977</ele>
        <time>2021-03-30T09:52:40Z</time>
      </trkpt>
      <trkpt lat="42.4022837" lon="2.288831">
        <ele>1806.95996094</ele>
        <time>2021-03-30T09:52:41Z</time>
      </trkpt>
      <trkpt lat="42.4022845" lon="2.2886706">
        <ele>1805</ele>
        <time>2021-03-30T09:52:42Z</time>
      </trkpt>
      <trkpt lat="42.4023085" lon="2.2885223">
        <ele>1802.61999512</ele>
        <time>2021-03-30T09:52:43Z</time>
      </trkpt>
      <trkpt lat="42.4023422" lon="2.2883884">
        <ele>1800.26000977</ele>
        <time>2021-03-30T09:52:44Z</time>
      </trkpt>
      <trkpt lat="42.402383" lon="2.2882524">
        <ele>1797.72998047</ele>
        <time>2021-03-30T09:52:45Z</time>
      </trkpt>
      <trkpt lat="42.402423" lon="2.2881322">
        <ele>1795.04003906</ele>
        <time>2021-03-30T09:52:46Z</time>
      </trkpt>
      <trkpt lat="42.402487" lon="2.2880188">
        <ele>1792.2800293</ele>
        <time>2021-03-30T09:52:47Z</time>
      </trkpt>
      <trkpt lat="42.4025542" lon="2.2879197">
        <ele>1789.91003418</ele>
        <time>2021-03-30T09:52:48Z</time>
      </trkpt>
      <trkpt lat="42.402628" lon="2.2878023">
        <ele>1787.91003418</ele>
        <time>2021-03-30T09:52:49Z</time>
      </trkpt>
      <trkpt lat="42.4026935" lon="2.2876728">
        <ele>1785.11999512</ele>
        <time>2021-03-30T09:52:50Z</time>
      </trkpt>
      <trkpt lat="42.4027622" lon="2.2875442">
        <ele>1782.14001465</ele>
        <time>2021-03-30T09:52:51Z</time>
      </trkpt>
      <trkpt lat="42.4028246" lon="2.2874162">
        <ele>1779.36999512</ele>
        <time>2021-03-30T09:52:52Z</time>
      </trkpt>
      <trkpt lat="42.4028883" lon="2.287288">
        <ele>1775.86999512</ele>
        <time>2021-03-30T09:52:53Z</time>
      </trkpt>
      <trkpt lat="42.4029586" lon="2.2871485">
        <ele>1772.18994141</ele>
        <time>2021-03-30T09:52:54Z</time>
      </trkpt>
      <trkpt lat="42.403026" lon="2.2870105">
        <ele>1768.5</ele>
        <time>2021-03-30T09:52:55Z</time>
      </trkpt>
      <trkpt lat="42.403083" lon="2.286883">
        <ele>1764.91003418</ele>
        <time>2021-03-30T09:52:56Z</time>
      </trkpt>
      <trkpt lat="42.4031349" lon="2.2867669">
        <ele>1761.5300293</ele>
        <time>2021-03-30T09:52:57Z</time>
      </trkpt>
      <trkpt lat="42.4031908" lon="2.2866505">
        <ele>1758.38000488</ele>
        <time>2021-03-30T09:52:58Z</time>
      </trkpt>
      <trkpt lat="42.4032433" lon="2.2865232">
        <ele>1755.40002441</ele>
        <time>2021-03-30T09:52:59Z</time>
      </trkpt>
      <trkpt lat="42.4032914" lon="2.2863966">
        <ele>1752.81994629</ele>
        <time>2021-03-30T09:53:00Z</time>
      </trkpt>
      <trkpt lat="42.4033334" lon="2.2862626">
        <ele>1750.57995605</ele>
        <time>2021-03-30T09:53:01Z</time>
      </trkpt>
      <trkpt lat="42.4033745" lon="2.2861273">
        <ele>1748.55004883</ele>
        <time>2021-03-30T09:53:02Z</time>
      </trkpt>
      <trkpt lat="42.4034159" lon="2.2860085">
        <ele>1746.67004395</ele>
        <time>2021-03-30T09:53:03Z</time>
      </trkpt>
      <trkpt lat="42.4034569" lon="2.2858918">
        <ele>1744.91003418</ele>
        <time>2021-03-30T09:53:04Z</time>
      </trkpt>
      <trkpt lat="42.4034946" lon="2.2857705">
        <ele>1743.31005859</ele>
        <time>2021-03-30T09:53:05Z</time>
      </trkpt>
      <trkpt lat="42.4035364" lon="2.2856412">
        <ele>1741.70996094</ele>
        <time>2021-03-30T09:53:06Z</time>
      </trkpt>
      <trkpt lat="42.4035733" lon="2.2855136">
        <ele>1740.2800293</ele>
        <time>2021-03-30T09:53:07Z</time>
      </trkpt>
      <trkpt lat="42.4036075" lon="2.2853926">
        <ele>1738.93994141</ele>
        <time>2021-03-30T09:53:08Z</time>
      </trkpt>
      <trkpt lat="42.4036398" lon="2.2852818">
        <ele>1737.68005371</ele>
        <time>2021-03-30T09:53:09Z</time>
      </trkpt>
      <trkpt lat="42.4036781" lon="2.2851711">
        <ele>1736.5</ele>
        <time>2021-03-30T09:53:10Z</time>
      </trkpt>
      <trkpt lat="42.4037154" lon="2.2850655">
        <ele>1735.40002441</ele>
        <time>2021-03-30T09:53:11Z</time>
      </trkpt>
      <trkpt lat="42.4037518" lon="2.284978">
        <ele>1734.42004395</ele>
        <time>2021-03-30T09:53:12Z</time>
      </trkpt>
      <trkpt lat="42.4037903" lon="2.2849111">
        <ele>1733.42004395</ele>
        <time>2021-03-30T09:53:13Z</time>
      </trkpt>
      <trkpt lat="42.4038426" lon="2.2848462">
        <ele>1732.43005371</ele>
        <time>2021-03-30T09:53:14Z</time>
      </trkpt>
      <trkpt lat="42.4039027" lon="2.2847826">
        <ele>1731.26000977</ele>
        <time>2021-03-30T09:53:15Z</time>
      </trkpt>
      <trkpt lat="42.4039531" lon="2.2847271">
        <ele>1730.19995117</ele>
        <time>2021-03-30T09:53:16Z</time>
      </trkpt>
      <trkpt lat="42.4040108" lon="2.2846666">
        <ele>1729.08996582</ele>
        <time>2021-03-30T09:53:17Z</time>
      </trkpt>
      <trkpt lat="42.4040585" lon="2.2846118">
        <ele>1727.93994141</ele>
        <time>2021-03-30T09:53:18Z</time>
      </trkpt>
      <trkpt lat="42.4041049" lon="2.2845473">
        <ele>1726.89001465</ele>
        <time>2021-03-30T09:53:19Z</time>
      </trkpt>
      <trkpt lat="42.4041301" lon="2.2844757">
        <ele>1726.05004883</ele>
        <time>2021-03-30T09:53:20Z</time>
      </trkpt>
      <trkpt lat="42.4041313" lon="2.2843885">
        <ele>1725.16003418</ele>
        <time>2021-03-30T09:53:21Z</time>
      </trkpt>
      <trkpt lat="42.4040839" lon="2.2843102">
        <ele>1724.29003906</ele>
        <time>2021-03-30T09:53:22Z</time>
      </trkpt>
      <trkpt lat="42.4040166" lon="2.2842605">
        <ele>1723.41003418</ele>
        <time>2021-03-30T09:53:23Z</time>
      </trkpt>
      <trkpt lat="42.4039359" lon="2.2842486">
        <ele>1722.68994141</ele>
        <time>2021-03-30T09:53:24Z</time>
      </trkpt>
      <trkpt lat="42.4038532" lon="2.2842673">
        <ele>1722.22998047</ele>
        <time>2021-03-30T09:53:25Z</time>
      </trkpt>
      <trkpt lat="42.4037772" lon="2.2843243">
        <ele>1721.68994141</ele>
        <time>2021-03-30T09:53:26Z</time>
      </trkpt>
      <trkpt lat="42.4037037" lon="2.284402">
        <ele>1721.16003418</ele>
        <time>2021-03-30T09:53:27Z</time>
      </trkpt>
      <trkpt lat="42.4036326" lon="2.2844841">
        <ele>1720.81994629</ele>
        <time>2021-03-30T09:53:28Z</time>
      </trkpt>
      <trkpt lat="42.4035618" lon="2.284579">
        <ele>1720.56994629</ele>
        <time>2021-03-30T09:53:29Z</time>
      </trkpt>
      <trkpt lat="42.4034926" lon="2.2846698">
        <ele>1720.35998535</ele>
        <time>2021-03-30T09:53:30Z</time>
      </trkpt>
      <trkpt lat="42.4034238" lon="2.2847584">
        <ele>1720.07995605</ele>
        <time>2021-03-30T09:53:31Z</time>
      </trkpt>
      <trkpt lat="42.4033551" lon="2.2848526">
        <ele>1719.7800293</ele>
        <time>2021-03-30T09:53:32Z</time>
      </trkpt>
      <trkpt lat="42.4032836" lon="2.284945">
        <ele>1719.56994629</ele>
        <time>2021-03-30T09:53:33Z</time>
      </trkpt>
      <trkpt lat="42.403212" lon="2.2850408">
        <ele>1719.39001465</ele>
        <time>2021-03-30T09:53:34Z</time>
      </trkpt>
      <trkpt lat="42.4031466" lon="2.285136">
        <ele>1719.0300293</ele>
        <time>2021-03-30T09:53:35Z</time>
      </trkpt>
      <trkpt lat="42.403082" lon="2.2852295">
        <ele>1718.57995605</ele>
        <time>2021-03-30T09:53:36Z</time>
      </trkpt>
      <trkpt lat="42.4030166" lon="2.2853194">
        <ele>1718.16003418</ele>
        <time>2021-03-30T09:53:37Z</time>
      </trkpt>
      <trkpt lat="42.4029461" lon="2.2854139">
        <ele>1717.73999023</ele>
        <time>2021-03-30T09:53:38Z</time>
      </trkpt>
      <trkpt lat="42.4028753" lon="2.2855049">
        <ele>1717.35998535</ele>
        <time>2021-03-30T09:53:39Z</time>
      </trkpt>
      <trkpt lat="42.402813" lon="2.2855934">
        <ele>1717</ele>
        <time>2021-03-30T09:53:40Z</time>
      </trkpt>
      <trkpt lat="42.402749" lon="2.2856718">
        <ele>1716.73999023</ele>
        <time>2021-03-30T09:53:41Z</time>
      </trkpt>
      <trkpt lat="42.4026742" lon="2.2857353">
        <ele>1716.40002441</ele>
        <time>2021-03-30T09:53:42Z</time>
      </trkpt>
      <trkpt lat="42.4025854" lon="2.2857738">
        <ele>1716.19995117</ele>
        <time>2021-03-30T09:53:43Z</time>
      </trkpt>
      <trkpt lat="42.4024852" lon="2.2857893">
        <ele>1715.81005859</ele>
        <time>2021-03-30T09:53:44Z</time>
      </trkpt>
      <trkpt lat="42.4023867" lon="2.2857922">
        <ele>1715.23999023</ele>
        <time>2021-03-30T09:53:45Z</time>
      </trkpt>
      <trkpt lat="42.4022974" lon="2.2858075">
        <ele>1714.69995117</ele>
        <time>2021-03-30T09:53:46Z</time>
      </trkpt>
      <trkpt lat="42.4022183" lon="2.2858476">
        <ele>1714.06005859</ele>
        <time>2021-03-30T09:53:47Z</time>
      </trkpt>
      <trkpt lat="42.4021424" lon="2.2858898">
        <ele>1713.47998047</ele>
        <time>2021-03-30T09:53:48Z</time>
      </trkpt>
      <trkpt lat="42.4020757" lon="2.2859486">
        <ele>1713.15002441</ele>
        <time>2021-03-30T09:53:49Z</time>
      </trkpt>
      <trkpt lat="42.402025" lon="2.2860242">
        <ele>1712.79003906</ele>
        <time>2021-03-30T09:53:50Z</time>
      </trkpt>
      <trkpt lat="42.4019878" lon="2.2861192">
        <ele>1712.43994141</ele>
        <time>2021-03-30T09:53:51Z</time>
      </trkpt>
      <trkpt lat="42.4019721" lon="2.2862296">
        <ele>1712.19995117</ele>
        <time>2021-03-30T09:53:52Z</time>
      </trkpt>
      <trkpt lat="42.4019537" lon="2.2863478">
        <ele>1712.06994629</ele>
        <time>2021-03-30T09:53:53Z</time>
      </trkpt>
      <trkpt lat="42.401926" lon="2.2864741">
        <ele>1711.82995605</ele>
        <time>2021-03-30T09:53:54Z</time>
      </trkpt>
      <trkpt lat="42.4018756" lon="2.2865916">
        <ele>1711.68005371</ele>
        <time>2021-03-30T09:53:55Z</time>
      </trkpt>
      <trkpt lat="42.4018162" lon="2.2867048">
        <ele>1711.26000977</ele>
        <time>2021-03-30T09:53:56Z</time>
      </trkpt>
      <trkpt lat="42.4017501" lon="2.2868155">
        <ele>1710.72998047</ele>
        <time>2021-03-30T09:53:57Z</time>
      </trkpt>
      <trkpt lat="42.4016814" lon="2.2869254">
        <ele>1710.14001465</ele>
        <time>2021-03-30T09:53:58Z</time>
      </trkpt>
      <trkpt lat="42.4016099" lon="2.2870343">
        <ele>1709.7800293</ele>
        <time>2021-03-30T09:53:59Z</time>
      </trkpt>
      <trkpt lat="42.4015392" lon="2.2871414">
        <ele>1709.68994141</ele>
        <time>2021-03-30T09:54:00Z</time>
      </trkpt>
      <trkpt lat="42.4014554" lon="2.2872266">
        <ele>1709.40002441</ele>
        <time>2021-03-30T09:54:01Z</time>
      </trkpt>
      <trkpt lat="42.401373" lon="2.2873114">
        <ele>1708.7800293</ele>
        <time>2021-03-30T09:54:02Z</time>
      </trkpt>
      <trkpt lat="42.4012906" lon="2.287387">
        <ele>1708.11999512</ele>
        <time>2021-03-30T09:54:03Z</time>
      </trkpt>
      <trkpt lat="42.4012108" lon="2.2874557">
        <ele>1707.38000488</ele>
        <time>2021-03-30T09:54:04Z</time>
      </trkpt>
      <trkpt lat="42.4011313" lon="2.287526">
        <ele>1706.60998535</ele>
        <time>2021-03-30T09:54:05Z</time>
      </trkpt>
      <trkpt lat="42.4010495" lon="2.2876017">
        <ele>1705.82995605</ele>
        <time>2021-03-30T09:54:06Z</time>
      </trkpt>
      <trkpt lat="42.4009692" lon="2.2876752">
        <ele>1704.93005371</ele>
        <time>2021-03-30T09:54:07Z</time>
      </trkpt>
      <trkpt lat="42.4008927" lon="2.2877411">
        <ele>1704.04003906</ele>
        <time>2021-03-30T09:54:08Z</time>
      </trkpt>
      <trkpt lat="42.4008191" lon="2.2878081">
        <ele>1703.2199707</ele>
        <time>2021-03-30T09:54:09Z</time>
      </trkpt>
      <trkpt lat="42.4007487" lon="2.2878633">
        <ele>1702.43994141</ele>
        <time>2021-03-30T09:54:10Z</time>
      </trkpt>
      <trkpt lat="42.4006876" lon="2.2879174">
        <ele>1701.79003906</ele>
        <time>2021-03-30T09:54:11Z</time>
      </trkpt>
      <trkpt lat="42.4006264" lon="2.287954">
        <ele>1701.07995605</ele>
        <time>2021-03-30T09:54:12Z</time>
      </trkpt>
      <trkpt lat="42.4005648" lon="2.287969">
        <ele>1700.68005371</ele>
        <time>2021-03-30T09:54:13Z</time>
      </trkpt>
      <trkpt lat="42.4005012" lon="2.2879618">
        <ele>1700.52001953</ele>
        <time>2021-03-30T09:54:14Z</time>
      </trkpt>
      <trkpt lat="42.4004477" lon="2.2879309">
        <ele>1700.36999512</ele>
        <time>2021-03-30T09:54:15Z</time>
      </trkpt>
      <trkpt lat="42.4004022" lon="2.287883">
        <ele>1700.15002441</ele>
        <time>2021-03-30T09:54:16Z</time>
      </trkpt>
      <trkpt lat="42.4003877" lon="2.2878089">
        <ele>1699.85998535</ele>
        <time>2021-03-30T09:54:17Z</time>
      </trkpt>
      <trkpt lat="42.4004173" lon="2.2877246">
        <ele>1699.76000977</ele>
        <time>2021-03-30T09:54:18Z</time>
      </trkpt>
      <trkpt lat="42.4004663" lon="2.2876594">
        <ele>1699.33996582</ele>
        <time>2021-03-30T09:54:19Z</time>
      </trkpt>
      <trkpt lat="42.4005223" lon="2.2875998">
        <ele>1698.7800293</ele>
        <time>2021-03-30T09:54:20Z</time>
      </trkpt>
      <trkpt lat="42.4005848" lon="2.2875391">
        <ele>1697.9699707</ele>
        <time>2021-03-30T09:54:21Z</time>
      </trkpt>
      <trkpt lat="42.4006499" lon="2.2874836">
        <ele>1697.20996094</ele>
        <time>2021-03-30T09:54:22Z</time>
      </trkpt>
      <trkpt lat="42.4007153" lon="2.2874248">
        <ele>1696.5</ele>
        <time>2021-03-30T09:54:23Z</time>
      </trkpt>
      <trkpt lat="42.4007799" lon="2.2873618">
        <ele>1695.86999512</ele>
        <time>2021-03-30T09:54:24Z</time>
      </trkpt>
      <trkpt lat="42.4008491" lon="2.2873013">
        <ele>1695.2800293</ele>
        <time>2021-03-30T09:54:25Z</time>
      </trkpt>
      <trkpt lat="42.4009198" lon="2.2872345">
        <ele>1694.70996094</ele>
        <time>2021-03-30T09:54:26Z</time>
      </trkpt>
      <trkpt lat="42.400989" lon="2.2871646">
        <ele>1694.26000977</ele>
        <time>2021-03-30T09:54:27Z</time>
      </trkpt>
      <trkpt lat="42.4010518" lon="2.287078">
        <ele>1693.79003906</ele>
        <time>2021-03-30T09:54:28Z</time>
      </trkpt>
      <trkpt lat="42.4011025" lon="2.2869713">
        <ele>1692.84997559</ele>
        <time>2021-03-30T09:54:29Z</time>
      </trkpt>
      <trkpt lat="42.4011513" lon="2.2868616">
        <ele>1691.64001465</ele>
        <time>2021-03-30T09:54:30Z</time>
      </trkpt>
      <trkpt lat="42.4011908" lon="2.286751">
        <ele>1690.48999023</ele>
        <time>2021-03-30T09:54:31Z</time>
      </trkpt>
      <trkpt lat="42.4012204" lon="2.2866365">
        <ele>1688.79003906</ele>
        <time>2021-03-30T09:54:32Z</time>
      </trkpt>
      <trkpt lat="42.4012569" lon="2.2865179">
        <ele>1687.17004395</ele>
        <time>2021-03-30T09:54:33Z</time>
      </trkpt>
      <trkpt lat="42.4012886" lon="2.2863927">
        <ele>1685.5300293</ele>
        <time>2021-03-30T09:54:34Z</time>
      </trkpt>
      <trkpt lat="42.4013248" lon="2.2862694">
        <ele>1684.06994629</ele>
        <time>2021-03-30T09:54:35Z</time>
      </trkpt>
      <trkpt lat="42.4013297" lon="2.2861434">
        <ele>1682.95996094</ele>
        <time>2021-03-30T09:54:36Z</time>
      </trkpt>
      <trkpt lat="42.4013328" lon="2.2860257">
        <ele>1681.81994629</ele>
        <time>2021-03-30T09:54:37Z</time>
      </trkpt>
      <trkpt lat="42.4013317" lon="2.2859165">
        <ele>1680.56994629</ele>
        <time>2021-03-30T09:54:38Z</time>
      </trkpt>
      <trkpt lat="42.4013273" lon="2.2858044">
        <ele>1679.56994629</ele>
        <time>2021-03-30T09:54:39Z</time>
      </trkpt>
      <trkpt lat="42.4013232" lon="2.2856937">
        <ele>1678.76000977</ele>
        <time>2021-03-30T09:54:40Z</time>
      </trkpt>
      <trkpt lat="42.4013184" lon="2.2855897">
        <ele>1678.06994629</ele>
        <time>2021-03-30T09:54:41Z</time>
      </trkpt>
      <trkpt lat="42.4013171" lon="2.285488">
        <ele>1677.43005371</ele>
        <time>2021-03-30T09:54:42Z</time>
      </trkpt>
      <trkpt lat="42.4013235" lon="2.2853864">
        <ele>1676.82995605</ele>
        <time>2021-03-30T09:54:43Z</time>
      </trkpt>
      <trkpt lat="42.4013356" lon="2.2852819">
        <ele>1676.29003906</ele>
        <time>2021-03-30T09:54:44Z</time>
      </trkpt>
      <trkpt lat="42.4013596" lon="2.2851743">
        <ele>1675.72998047</ele>
        <time>2021-03-30T09:54:45Z</time>
      </trkpt>
      <trkpt lat="42.4014184" lon="2.2850718">
        <ele>1675.09997559</ele>
        <time>2021-03-30T09:54:46Z</time>
      </trkpt>
      <trkpt lat="42.4014944" lon="2.2849804">
        <ele>1674.66003418</ele>
        <time>2021-03-30T09:54:47Z</time>
      </trkpt>
      <trkpt lat="42.4015703" lon="2.284886">
        <ele>1674.2199707</ele>
        <time>2021-03-30T09:54:48Z</time>
      </trkpt>
      <trkpt lat="42.4016434" lon="2.2847808">
        <ele>1673.51000977</ele>
        <time>2021-03-30T09:54:49Z</time>
      </trkpt>
      <trkpt lat="42.4017092" lon="2.284664">
        <ele>1672.65002441</ele>
        <time>2021-03-30T09:54:50Z</time>
      </trkpt>
      <trkpt lat="42.4017735" lon="2.2845441">
        <ele>1671.83996582</ele>
        <time>2021-03-30T09:54:51Z</time>
      </trkpt>
      <trkpt lat="42.4018312" lon="2.2844166">
        <ele>1670.83996582</ele>
        <time>2021-03-30T09:54:52Z</time>
      </trkpt>
      <trkpt lat="42.4018936" lon="2.2842888">
        <ele>1669.77001953</ele>
        <time>2021-03-30T09:54:53Z</time>
      </trkpt>
      <trkpt lat="42.4019466" lon="2.2841533">
        <ele>1668.65002441</ele>
        <time>2021-03-30T09:54:54Z</time>
      </trkpt>
      <trkpt lat="42.4019959" lon="2.2840115">
        <ele>1667.66003418</ele>
        <time>2021-03-30T09:54:55Z</time>
      </trkpt>
      <trkpt lat="42.4020413" lon="2.2838635">
        <ele>1666.92004395</ele>
        <time>2021-03-30T09:54:56Z</time>
      </trkpt>
      <trkpt lat="42.4020851" lon="2.2837159">
        <ele>1666.29003906</ele>
        <time>2021-03-30T09:54:57Z</time>
      </trkpt>
      <trkpt lat="42.4021181" lon="2.2835664">
        <ele>1665.73999023</ele>
        <time>2021-03-30T09:54:58Z</time>
      </trkpt>
      <trkpt lat="42.402148" lon="2.2834241">
        <ele>1665.26000977</ele>
        <time>2021-03-30T09:54:59Z</time>
      </trkpt>
      <trkpt lat="42.4021659" lon="2.2832867">
        <ele>1664.90002441</ele>
        <time>2021-03-30T09:55:00Z</time>
      </trkpt>
      <trkpt lat="42.402189" lon="2.2831632">
        <ele>1664.68994141</ele>
        <time>2021-03-30T09:55:01Z</time>
      </trkpt>
      <trkpt lat="42.4022104" lon="2.2830423">
        <ele>1664.52001953</ele>
        <time>2021-03-30T09:55:02Z</time>
      </trkpt>
      <trkpt lat="42.4022313" lon="2.2829216">
        <ele>1664.33996582</ele>
        <time>2021-03-30T09:55:03Z</time>
      </trkpt>
      <trkpt lat="42.4022491" lon="2.2828038">
        <ele>1664.10998535</ele>
        <time>2021-03-30T09:55:04Z</time>
      </trkpt>
      <trkpt lat="42.4022713" lon="2.2826949">
        <ele>1663.7199707</ele>
        <time>2021-03-30T09:55:05Z</time>
      </trkpt>
      <trkpt lat="42.4022932" lon="2.282598">
        <ele>1663.40002441</ele>
        <time>2021-03-30T09:55:06Z</time>
      </trkpt>
      <trkpt lat="42.4023101" lon="2.2825094">
        <ele>1663.04003906</ele>
        <time>2021-03-30T09:55:07Z</time>
      </trkpt>
      <trkpt lat="42.4023072" lon="2.2824204">
        <ele>1662.54003906</ele>
        <time>2021-03-30T09:55:08Z</time>
      </trkpt>
      <trkpt lat="42.4022824" lon="2.2823342">
        <ele>1661.94995117</ele>
        <time>2021-03-30T09:55:09Z</time>
      </trkpt>
      <trkpt lat="42.4022289" lon="2.2822705">
        <ele>1661.56005859</ele>
        <time>2021-03-30T09:55:10Z</time>
      </trkpt>
      <trkpt lat="42.4021632" lon="2.2822179">
        <ele>1661.35998535</ele>
        <time>2021-03-30T09:55:11Z</time>
      </trkpt>
      <trkpt lat="42.4020895" lon="2.2821817">
        <ele>1661.06994629</ele>
        <time>2021-03-30T09:55:12Z</time>
      </trkpt>
      <trkpt lat="42.4020154" lon="2.2821564">
        <ele>1660.82995605</ele>
        <time>2021-03-30T09:55:13Z</time>
      </trkpt>
      <trkpt lat="42.4019352" lon="2.282135">
        <ele>1660.59997559</ele>
        <time>2021-03-30T09:55:14Z</time>
      </trkpt>
      <trkpt lat="42.4018524" lon="2.282126">
        <ele>1660.40002441</ele>
        <time>2021-03-30T09:55:15Z</time>
      </trkpt>
      <trkpt lat="42.4017756" lon="2.282118">
        <ele>1660.04003906</ele>
        <time>2021-03-30T09:55:16Z</time>
      </trkpt>
      <trkpt lat="42.4017026" lon="2.2821046">
        <ele>1659.68994141</ele>
        <time>2021-03-30T09:55:17Z</time>
      </trkpt>
      <trkpt lat="42.401635" lon="2.2821005">
        <ele>1659.34997559</ele>
        <time>2021-03-30T09:55:18Z</time>
      </trkpt>
      <trkpt lat="42.4015713" lon="2.2820949">
        <ele>1658.69995117</ele>
        <time>2021-03-30T09:55:19Z</time>
      </trkpt>
      <trkpt lat="42.4015072" lon="2.2820953">
        <ele>1658.04003906</ele>
        <time>2021-03-30T09:55:20Z</time>
      </trkpt>
      <trkpt lat="42.4014403" lon="2.2820997">
        <ele>1657.54003906</ele>
        <time>2021-03-30T09:55:21Z</time>
      </trkpt>
      <trkpt lat="42.4013675" lon="2.2820957">
        <ele>1657.41003418</ele>
        <time>2021-03-30T09:55:22Z</time>
      </trkpt>
      <trkpt lat="42.4012936" lon="2.2820727">
        <ele>1657.43005371</ele>
        <time>2021-03-30T09:55:23Z</time>
      </trkpt>
      <trkpt lat="42.4012157" lon="2.2820384">
        <ele>1657.79003906</ele>
        <time>2021-03-30T09:55:24Z</time>
      </trkpt>
      <trkpt lat="42.401141" lon="2.2819967">
        <ele>1658.06994629</ele>
        <time>2021-03-30T09:55:25Z</time>
      </trkpt>
      <trkpt lat="42.401069" lon="2.281942">
        <ele>1657.89001465</ele>
        <time>2021-03-30T09:55:26Z</time>
      </trkpt>
      <trkpt lat="42.4009896" lon="2.2818867">
        <ele>1657.30004883</ele>
        <time>2021-03-30T09:55:27Z</time>
      </trkpt>
      <trkpt lat="42.4009187" lon="2.2818135">
        <ele>1656.65002441</ele>
        <time>2021-03-30T09:55:28Z</time>
      </trkpt>
      <trkpt lat="42.4008473" lon="2.2817295">
        <ele>1656.06005859</ele>
        <time>2021-03-30T09:55:29Z</time>
      </trkpt>
      <trkpt lat="42.400792" lon="2.2816196">
        <ele>1655.77001953</ele>
        <time>2021-03-30T09:55:30Z</time>
      </trkpt>
      <trkpt lat="42.4007477" lon="2.2814923">
        <ele>1655.73999023</ele>
        <time>2021-03-30T09:55:31Z</time>
      </trkpt>
      <trkpt lat="42.4007141" lon="2.2813517">
        <ele>1655.68994141</ele>
        <time>2021-03-30T09:55:32Z</time>
      </trkpt>
      <trkpt lat="42.4006895" lon="2.2812052">
        <ele>1655.59997559</ele>
        <time>2021-03-30T09:55:33Z</time>
      </trkpt>
      <trkpt lat="42.4006661" lon="2.281057">
        <ele>1655.42004395</ele>
        <time>2021-03-30T09:55:34Z</time>
      </trkpt>
      <trkpt lat="42.4006433" lon="2.2809052">
        <ele>1655.17004395</ele>
        <time>2021-03-30T09:55:35Z</time>
      </trkpt>
      <trkpt lat="42.4006207" lon="2.2807508">
        <ele>1654.92004395</ele>
        <time>2021-03-30T09:55:36Z</time>
      </trkpt>
      <trkpt lat="42.4005895" lon="2.2805995">
        <ele>1654.63000488</ele>
        <time>2021-03-30T09:55:37Z</time>
      </trkpt>
      <trkpt lat="42.4005615" lon="2.2804501">
        <ele>1654.35998535</ele>
        <time>2021-03-30T09:55:38Z</time>
      </trkpt>
      <trkpt lat="42.400532" lon="2.2803022">
        <ele>1654.13000488</ele>
        <time>2021-03-30T09:55:39Z</time>
      </trkpt>
      <trkpt lat="42.4004913" lon="2.2801705">
        <ele>1653.94995117</ele>
        <time>2021-03-30T09:55:40Z</time>
      </trkpt>
      <trkpt lat="42.4004451" lon="2.2800466">
        <ele>1653.81005859</ele>
        <time>2021-03-30T09:55:41Z</time>
      </trkpt>
      <trkpt lat="42.4004047" lon="2.27993">
        <ele>1653.55004883</ele>
        <time>2021-03-30T09:55:42Z</time>
      </trkpt>
      <trkpt lat="42.4003657" lon="2.2798192">
        <ele>1653.2800293</ele>
        <time>2021-03-30T09:55:43Z</time>
      </trkpt>
      <trkpt lat="42.4003408" lon="2.279703">
        <ele>1652.95996094</ele>
        <time>2021-03-30T09:55:44Z</time>
      </trkpt>
      <trkpt lat="42.4003324" lon="2.2795847">
        <ele>1652.63000488</ele>
        <time>2021-03-30T09:55:45Z</time>
      </trkpt>
      <trkpt lat="42.4003273" lon="2.2794601">
        <ele>1652.31005859</ele>
        <time>2021-03-30T09:55:46Z</time>
      </trkpt>
      <trkpt lat="42.4003371" lon="2.2793317">
        <ele>1651.94995117</ele>
        <time>2021-03-30T09:55:47Z</time>
      </trkpt>
      <trkpt lat="42.4003576" lon="2.2792021">
        <ele>1651.57995605</ele>
        <time>2021-03-30T09:55:48Z</time>
      </trkpt>
      <trkpt lat="42.4003815" lon="2.2790749">
        <ele>1651.31994629</ele>
        <time>2021-03-30T09:55:49Z</time>
      </trkpt>
      <trkpt lat="42.4004068" lon="2.2789528">
        <ele>1651.06994629</ele>
        <time>2021-03-30T09:55:50Z</time>
      </trkpt>
      <trkpt lat="42.4004302" lon="2.2788401">
        <ele>1650.81005859</ele>
        <time>2021-03-30T09:55:51Z</time>
      </trkpt>
      <trkpt lat="42.4004541" lon="2.2787346">
        <ele>1650.56005859</ele>
        <time>2021-03-30T09:55:52Z</time>
      </trkpt>
      <trkpt lat="42.4004762" lon="2.2786348">
        <ele>1650.38000488</ele>
        <time>2021-03-30T09:55:53Z</time>
      </trkpt>
      <trkpt lat="42.4004925" lon="2.2785441">
        <ele>1650.11999512</ele>
        <time>2021-03-30T09:55:54Z</time>
      </trkpt>
      <trkpt lat="42.4005074" lon="2.278461">
        <ele>1649.86999512</ele>
        <time>2021-03-30T09:55:55Z</time>
      </trkpt>
      <trkpt lat="42.4005213" lon="2.2783875">
        <ele>1649.68005371</ele>
        <time>2021-03-30T09:55:56Z</time>
      </trkpt>
      <trkpt lat="42.4005248" lon="2.2783269">
        <ele>1649.58996582</ele>
        <time>2021-03-30T09:55:57Z</time>
      </trkpt>
      <trkpt lat="42.4005122" lon="2.2782813">
        <ele>1649.25</ele>
        <time>2021-03-30T09:55:58Z</time>
      </trkpt>
      <trkpt lat="42.4004952" lon="2.2782464">
        <ele>1648.7800293</ele>
        <time>2021-03-30T09:55:59Z</time>
      </trkpt>
      <trkpt lat="42.4004728" lon="2.2782241">
        <ele>1648.51000977</ele>
        <time>2021-03-30T09:56:00Z</time>
      </trkpt>
      <trkpt lat="42.4004551" lon="2.2782052">
        <ele>1648.38000488</ele>
        <time>2021-03-30T09:56:01Z</time>
      </trkpt>
      <trkpt lat="42.4004394" lon="2.27819">
        <ele>1648.06994629</ele>
        <time>2021-03-30T09:56:02Z</time>
      </trkpt>
      <trkpt lat="42.4004233" lon="2.2781785">
        <ele>1647.80004883</ele>
        <time>2021-03-30T09:56:03Z</time>
      </trkpt>
      <trkpt lat="42.4004121" lon="2.2781693">
        <ele>1647.60998535</ele>
        <time>2021-03-30T09:56:04Z</time>
      </trkpt>
      <trkpt lat="42.4003998" lon="2.27817">
        <ele>1647.55004883</ele>
        <time>2021-03-30T09:56:05Z</time>
      </trkpt>
      <trkpt lat="42.4003888" lon="2.2781735">
        <ele>1647.38000488</ele>
        <time>2021-03-30T09:56:06Z</time>
      </trkpt>
      <trkpt lat="42.4003756" lon="2.2781721">
        <ele>1647.16003418</ele>
        <time>2021-03-30T09:56:07Z</time>
      </trkpt>
      <trkpt lat="42.4003634" lon="2.2781747">
        <ele>1646.83996582</ele>
        <time>2021-03-30T09:56:08Z</time>
      </trkpt>
      <trkpt lat="42.400355" lon="2.2781733">
        <ele>1646.39001465</ele>
        <time>2021-03-30T09:56:09Z</time>
      </trkpt>
      <trkpt lat="42.4003503" lon="2.2781768">
        <ele>1645.93994141</ele>
        <time>2021-03-30T09:56:10Z</time>
      </trkpt>
      <trkpt lat="42.4003471" lon="2.2781769">
        <ele>1645.57995605</ele>
        <time>2021-03-30T09:56:11Z</time>
      </trkpt>
      <trkpt lat="42.4003281" lon="2.2782436">
        <ele>1582.56005859</ele>
        <time>2021-03-30T09:58:18Z</time>
      </trkpt>
      <trkpt lat="42.4003253" lon="2.2782326">
        <ele>1582.54003906</ele>
        <time>2021-03-30T09:58:19Z</time>
      </trkpt>
      <trkpt lat="42.4003325" lon="2.2782496">
        <ele>1582.47998047</ele>
        <time>2021-03-30T09:58:20Z</time>
      </trkpt>
      <trkpt lat="42.4003231" lon="2.2782686">
        <ele>1582.63000488</ele>
        <time>2021-03-30T09:58:21Z</time>
      </trkpt>
      <trkpt lat="42.4003191" lon="2.2783194">
        <ele>1582.43994141</ele>
        <time>2021-03-30T09:58:22Z</time>
      </trkpt>
      <trkpt lat="42.4003152" lon="2.2783881">
        <ele>1582.32995605</ele>
        <time>2021-03-30T09:58:23Z</time>
      </trkpt>
      <trkpt lat="42.4003163" lon="2.278463">
        <ele>1582.40002441</ele>
        <time>2021-03-30T09:58:24Z</time>
      </trkpt>
      <trkpt lat="42.4003105" lon="2.2785381">
        <ele>1582.66003418</ele>
        <time>2021-03-30T09:58:25Z</time>
      </trkpt>
      <trkpt lat="42.4002845" lon="2.2786073">
        <ele>1582.69995117</ele>
        <time>2021-03-30T09:58:26Z</time>
      </trkpt>
      <trkpt lat="42.4002737" lon="2.2786757">
        <ele>1581.73999023</ele>
        <time>2021-03-30T09:58:27Z</time>
      </trkpt>
      <trkpt lat="42.4002615" lon="2.2787441">
        <ele>1581.26000977</ele>
        <time>2021-03-30T09:58:28Z</time>
      </trkpt>
      <trkpt lat="42.4002585" lon="2.2788122">
        <ele>1580.93994141</ele>
        <time>2021-03-30T09:58:29Z</time>
      </trkpt>
      <trkpt lat="42.4002454" lon="2.2788819">
        <ele>1580.83996582</ele>
        <time>2021-03-30T09:58:30Z</time>
      </trkpt>
      <trkpt lat="42.4002331" lon="2.2789552">
        <ele>1580.55004883</ele>
        <time>2021-03-30T09:58:31Z</time>
      </trkpt>
      <trkpt lat="42.4002204" lon="2.2790395">
        <ele>1581.4699707</ele>
        <time>2021-03-30T09:58:32Z</time>
      </trkpt>
      <trkpt lat="42.4002026" lon="2.2791197">
        <ele>1582.68994141</ele>
        <time>2021-03-30T09:58:33Z</time>
      </trkpt>
      <trkpt lat="42.4001748" lon="2.2792046">
        <ele>1583.5</ele>
        <time>2021-03-30T09:58:34Z</time>
      </trkpt>
      <trkpt lat="42.4001551" lon="2.2792945">
        <ele>1583.10998535</ele>
        <time>2021-03-30T09:58:35Z</time>
      </trkpt>
      <trkpt lat="42.4001241" lon="2.2793883">
        <ele>1582.19995117</ele>
        <time>2021-03-30T09:58:36Z</time>
      </trkpt>
      <trkpt lat="42.4000949" lon="2.279483">
        <ele>1580.75</ele>
        <time>2021-03-30T09:58:37Z</time>
      </trkpt>
      <trkpt lat="42.4000691" lon="2.2795745">
        <ele>1579.31005859</ele>
        <time>2021-03-30T09:58:38Z</time>
      </trkpt>
      <trkpt lat="42.4000479" lon="2.2796712">
        <ele>1578.0300293</ele>
        <time>2021-03-30T09:58:39Z</time>
      </trkpt>
      <trkpt lat="42.4000254" lon="2.2797702">
        <ele>1576.95996094</ele>
        <time>2021-03-30T09:58:40Z</time>
      </trkpt>
      <trkpt lat="42.3999996" lon="2.2798679">
        <ele>1575.85998535</ele>
        <time>2021-03-30T09:58:41Z</time>
      </trkpt>
      <trkpt lat="42.3999724" lon="2.2799709">
        <ele>1574.61999512</ele>
        <time>2021-03-30T09:58:42Z</time>
      </trkpt>
      <trkpt lat="42.3999441" lon="2.280081">
        <ele>1573.90002441</ele>
        <time>2021-03-30T09:58:43Z</time>
      </trkpt>
      <trkpt lat="42.3999191" lon="2.280192">
        <ele>1573.32995605</ele>
        <time>2021-03-30T09:58:44Z</time>
      </trkpt>
      <trkpt lat="42.3998962" lon="2.2803096">
        <ele>1572.61999512</ele>
        <time>2021-03-30T09:58:45Z</time>
      </trkpt>
      <trkpt lat="42.3998787" lon="2.2804322">
        <ele>1571.81005859</ele>
        <time>2021-03-30T09:58:46Z</time>
      </trkpt>
      <trkpt lat="42.3998607" lon="2.2805552">
        <ele>1571.10998535</ele>
        <time>2021-03-30T09:58:47Z</time>
      </trkpt>
      <trkpt lat="42.3998474" lon="2.280677">
        <ele>1570.47998047</ele>
        <time>2021-03-30T09:58:48Z</time>
      </trkpt>
      <trkpt lat="42.399822" lon="2.2807976">
        <ele>1569.91003418</ele>
        <time>2021-03-30T09:58:49Z</time>
      </trkpt>
      <trkpt lat="42.3997972" lon="2.2809207">
        <ele>1569.30004883</ele>
        <time>2021-03-30T09:58:50Z</time>
      </trkpt>
      <trkpt lat="42.3997766" lon="2.2810479">
        <ele>1568.64001465</ele>
        <time>2021-03-30T09:58:51Z</time>
      </trkpt>
      <trkpt lat="42.39976" lon="2.2811788">
        <ele>1567.9699707</ele>
        <time>2021-03-30T09:58:52Z</time>
      </trkpt>
      <trkpt lat="42.3997442" lon="2.2813127">
        <ele>1567.30004883</ele>
        <time>2021-03-30T09:58:53Z</time>
      </trkpt>
      <trkpt lat="42.3997285" lon="2.2814468">
        <ele>1566.65002441</ele>
        <time>2021-03-30T09:58:54Z</time>
      </trkpt>
      <trkpt lat="42.3997122" lon="2.2815798">
        <ele>1566.42004395</ele>
        <time>2021-03-30T09:58:55Z</time>
      </trkpt>
      <trkpt lat="42.3996981" lon="2.2817107">
        <ele>1566.32995605</ele>
        <time>2021-03-30T09:58:56Z</time>
      </trkpt>
      <trkpt lat="42.3996889" lon="2.2818398">
        <ele>1565.98999023</ele>
        <time>2021-03-30T09:58:57Z</time>
      </trkpt>
      <trkpt lat="42.3996821" lon="2.2819608">
        <ele>1564.43005371</ele>
        <time>2021-03-30T09:58:58Z</time>
      </trkpt>
      <trkpt lat="42.3996741" lon="2.2820717">
        <ele>1563.0300293</ele>
        <time>2021-03-30T09:58:59Z</time>
      </trkpt>
      <trkpt lat="42.39966" lon="2.2821788">
        <ele>1561.81005859</ele>
        <time>2021-03-30T09:59:00Z</time>
      </trkpt>
      <trkpt lat="42.3996466" lon="2.2822843">
        <ele>1560.68994141</ele>
        <time>2021-03-30T09:59:01Z</time>
      </trkpt>
      <trkpt lat="42.399634" lon="2.2823857">
        <ele>1560.34997559</ele>
        <time>2021-03-30T09:59:02Z</time>
      </trkpt>
      <trkpt lat="42.3996219" lon="2.2824818">
        <ele>1560.0300293</ele>
        <time>2021-03-30T09:59:03Z</time>
      </trkpt>
      <trkpt lat="42.399598" lon="2.2825791">
        <ele>1559.66003418</ele>
        <time>2021-03-30T09:59:04Z</time>
      </trkpt>
      <trkpt lat="42.3995552" lon="2.2826747">
        <ele>1557.94995117</ele>
        <time>2021-03-30T09:59:05Z</time>
      </trkpt>
      <trkpt lat="42.3994995" lon="2.2827652">
        <ele>1557.43005371</ele>
        <time>2021-03-30T09:59:06Z</time>
      </trkpt>
      <trkpt lat="42.399431" lon="2.2828437">
        <ele>1556.93994141</ele>
        <time>2021-03-30T09:59:07Z</time>
      </trkpt>
      <trkpt lat="42.3993552" lon="2.2829151">
        <ele>1554.73999023</ele>
        <time>2021-03-30T09:59:08Z</time>
      </trkpt>
      <trkpt lat="42.3992641" lon="2.28297">
        <ele>1552.79003906</ele>
        <time>2021-03-30T09:59:09Z</time>
      </trkpt>
      <trkpt lat="42.3991736" lon="2.2830261">
        <ele>1551.17004395</ele>
        <time>2021-03-30T09:59:10Z</time>
      </trkpt>
      <trkpt lat="42.3990896" lon="2.2830763">
        <ele>1549.81994629</ele>
        <time>2021-03-30T09:59:11Z</time>
      </trkpt>
      <trkpt lat="42.3990071" lon="2.2831266">
        <ele>1549.42004395</ele>
        <time>2021-03-30T09:59:12Z</time>
      </trkpt>
      <trkpt lat="42.3989226" lon="2.2831764">
        <ele>1549.05004883</ele>
        <time>2021-03-30T09:59:13Z</time>
      </trkpt>
      <trkpt lat="42.3988362" lon="2.2832426">
        <ele>1548.60998535</ele>
        <time>2021-03-30T09:59:14Z</time>
      </trkpt>
      <trkpt lat="42.3987543" lon="2.2833358">
        <ele>1548.09997559</ele>
        <time>2021-03-30T09:59:15Z</time>
      </trkpt>
      <trkpt lat="42.3987005" lon="2.2834672">
        <ele>1545.70996094</ele>
        <time>2021-03-30T09:59:16Z</time>
      </trkpt>
      <trkpt lat="42.3986681" lon="2.2836158">
        <ele>1543.42004395</ele>
        <time>2021-03-30T09:59:17Z</time>
      </trkpt>
      <trkpt lat="42.3986329" lon="2.2837687">
        <ele>1541.43005371</ele>
        <time>2021-03-30T09:59:18Z</time>
      </trkpt>
      <trkpt lat="42.3985948" lon="2.2839215">
        <ele>1539.66003418</ele>
        <time>2021-03-30T09:59:19Z</time>
      </trkpt>
      <trkpt lat="42.3985638" lon="2.2840732">
        <ele>1537.95996094</ele>
        <time>2021-03-30T09:59:20Z</time>
      </trkpt>
      <trkpt lat="42.3985346" lon="2.2842167">
        <ele>1537.42004395</ele>
        <time>2021-03-30T09:59:21Z</time>
      </trkpt>
      <trkpt lat="42.3985069" lon="2.2843519">
        <ele>1535.39001465</ele>
        <time>2021-03-30T09:59:22Z</time>
      </trkpt>
      <trkpt lat="42.3984818" lon="2.2844806">
        <ele>1533.52001953</ele>
        <time>2021-03-30T09:59:23Z</time>
      </trkpt>
      <trkpt lat="42.3984538" lon="2.284598">
        <ele>1531.85998535</ele>
        <time>2021-03-30T09:59:24Z</time>
      </trkpt>
      <trkpt lat="42.3984272" lon="2.2847095">
        <ele>1530.23999023</ele>
        <time>2021-03-30T09:59:25Z</time>
      </trkpt>
      <trkpt lat="42.3984035" lon="2.2848124">
        <ele>1529.75</ele>
        <time>2021-03-30T09:59:26Z</time>
      </trkpt>
      <trkpt lat="42.3983752" lon="2.2849117">
        <ele>1528.06994629</ele>
        <time>2021-03-30T09:59:27Z</time>
      </trkpt>
      <trkpt lat="42.3983414" lon="2.2850097">
        <ele>1526.43994141</ele>
        <time>2021-03-30T09:59:28Z</time>
      </trkpt>
      <trkpt lat="42.3982991" lon="2.2851031">
        <ele>1524.92004395</ele>
        <time>2021-03-30T09:59:29Z</time>
      </trkpt>
      <trkpt lat="42.3982519" lon="2.2851991">
        <ele>1523.61999512</ele>
        <time>2021-03-30T09:59:30Z</time>
      </trkpt>
      <trkpt lat="42.3982018" lon="2.2852972">
        <ele>1522.31005859</ele>
        <time>2021-03-30T09:59:31Z</time>
      </trkpt>
      <trkpt lat="42.3981554" lon="2.2853971">
        <ele>1521</ele>
        <time>2021-03-30T09:59:32Z</time>
      </trkpt>
      <trkpt lat="42.3981065" lon="2.2854938">
        <ele>1519.7199707</ele>
        <time>2021-03-30T09:59:33Z</time>
      </trkpt>
      <trkpt lat="42.3980573" lon="2.2855943">
        <ele>1518.45996094</ele>
        <time>2021-03-30T09:59:34Z</time>
      </trkpt>
      <trkpt lat="42.3980081" lon="2.2857008">
        <ele>1517.2199707</ele>
        <time>2021-03-30T09:59:35Z</time>
      </trkpt>
      <trkpt lat="42.3979563" lon="2.2858104">
        <ele>1516.09997559</ele>
        <time>2021-03-30T09:59:36Z</time>
      </trkpt>
      <trkpt lat="42.3979048" lon="2.2859168">
        <ele>1515.10998535</ele>
        <time>2021-03-30T09:59:37Z</time>
      </trkpt>
      <trkpt lat="42.3978582" lon="2.2860235">
        <ele>1524.88000488</ele>
        <time>2021-03-30T09:59:38Z</time>
      </trkpt>
      <trkpt lat="42.3978129" lon="2.286125">
        <ele>1514.51000977</ele>
        <time>2021-03-30T09:59:39Z</time>
      </trkpt>
      <trkpt lat="42.3977683" lon="2.2862252">
        <ele>1512.81994629</ele>
        <time>2021-03-30T09:59:40Z</time>
      </trkpt>
      <trkpt lat="42.3977231" lon="2.2863268">
        <ele>1512.4699707</ele>
        <time>2021-03-30T09:59:41Z</time>
      </trkpt>
      <trkpt lat="42.3976791" lon="2.2864314">
        <ele>1512.18005371</ele>
        <time>2021-03-30T09:59:42Z</time>
      </trkpt>
      <trkpt lat="42.3976341" lon="2.286536">
        <ele>1510.84997559</ele>
        <time>2021-03-30T09:59:43Z</time>
      </trkpt>
      <trkpt lat="42.3975888" lon="2.2866378">
        <ele>1521.15002441</ele>
        <time>2021-03-30T09:59:44Z</time>
      </trkpt>
      <trkpt lat="42.3975436" lon="2.2867398">
        <ele>1509.67004395</ele>
        <time>2021-03-30T09:59:45Z</time>
      </trkpt>
      <trkpt lat="42.3974983" lon="2.2868464">
        <ele>1507.5300293</ele>
        <time>2021-03-30T09:59:46Z</time>
      </trkpt>
      <trkpt lat="42.3974512" lon="2.286959">
        <ele>1507.06994629</ele>
        <time>2021-03-30T09:59:47Z</time>
      </trkpt>
      <trkpt lat="42.3974046" lon="2.2870764">
        <ele>1506.69995117</ele>
        <time>2021-03-30T09:59:48Z</time>
      </trkpt>
      <trkpt lat="42.3973568" lon="2.2871924">
        <ele>1505.17004395</ele>
        <time>2021-03-30T09:59:49Z</time>
      </trkpt>
      <trkpt lat="42.3973004" lon="2.2873001">
        <ele>1516.17004395</ele>
        <time>2021-03-30T09:59:50Z</time>
      </trkpt>
      <trkpt lat="42.3972356" lon="2.2874039">
        <ele>1524.91003418</ele>
        <time>2021-03-30T09:59:51Z</time>
      </trkpt>
      <trkpt lat="42.3971664" lon="2.2875024">
        <ele>1531.85998535</ele>
        <time>2021-03-30T09:59:52Z</time>
      </trkpt>
      <trkpt lat="42.3970987" lon="2.2876017">
        <ele>1537.34997559</ele>
        <time>2021-03-30T09:59:53Z</time>
      </trkpt>
      <trkpt lat="42.3970299" lon="2.2876929">
        <ele>1541.68005371</ele>
        <time>2021-03-30T09:59:54Z</time>
      </trkpt>
      <trkpt lat="42.3969619" lon="2.2877796">
        <ele>1545.08996582</ele>
        <time>2021-03-30T09:59:55Z</time>
      </trkpt>
      <trkpt lat="42.3968919" lon="2.2878641">
        <ele>1547.75</ele>
        <time>2021-03-30T09:59:56Z</time>
      </trkpt>
      <trkpt lat="42.3968223" lon="2.2879357">
        <ele>1549.80004883</ele>
        <time>2021-03-30T09:59:57Z</time>
      </trkpt>
      <trkpt lat="42.3967543" lon="2.2880025">
        <ele>1551.36999512</ele>
        <time>2021-03-30T09:59:58Z</time>
      </trkpt>
      <trkpt lat="42.3966873" lon="2.2880762">
        <ele>1552.56005859</ele>
        <time>2021-03-30T09:59:59Z</time>
      </trkpt>
      <trkpt lat="42.3966178" lon="2.2881477">
        <ele>1553.41003418</ele>
        <time>2021-03-30T10:00:00Z</time>
      </trkpt>
      <trkpt lat="42.3965456" lon="2.2882194">
        <ele>1554.01000977</ele>
        <time>2021-03-30T10:00:01Z</time>
      </trkpt>
      <trkpt lat="42.3964692" lon="2.2882866">
        <ele>1554.40002441</ele>
        <time>2021-03-30T10:00:02Z</time>
      </trkpt>
      <trkpt lat="42.3963909" lon="2.2883482">
        <ele>1554.65002441</ele>
        <time>2021-03-30T10:00:03Z</time>
      </trkpt>
      <trkpt lat="42.39631" lon="2.2884">
        <ele>1554.77001953</ele>
        <time>2021-03-30T10:00:04Z</time>
      </trkpt>
      <trkpt lat="42.3962322" lon="2.2884532">
        <ele>1554.80004883</ele>
        <time>2021-03-30T10:00:05Z</time>
      </trkpt>
      <trkpt lat="42.3961499" lon="2.2885101">
        <ele>1554.73999023</ele>
        <time>2021-03-30T10:00:06Z</time>
      </trkpt>
      <trkpt lat="42.3960587" lon="2.2885713">
        <ele>1494.15002441</ele>
        <time>2021-03-30T10:00:07Z</time>
      </trkpt>
      <trkpt lat="42.3959586" lon="2.2886295">
        <ele>1487.7800293</ele>
        <time>2021-03-30T10:00:08Z</time>
      </trkpt>
      <trkpt lat="42.3958573" lon="2.2886916">
        <ele>1500.93005371</ele>
        <time>2021-03-30T10:00:09Z</time>
      </trkpt>
      <trkpt lat="42.3957579" lon="2.2887554">
        <ele>1511.39001465</ele>
        <time>2021-03-30T10:00:10Z</time>
      </trkpt>
      <trkpt lat="42.3956556" lon="2.2888205">
        <ele>1519.69995117</ele>
        <time>2021-03-30T10:00:11Z</time>
      </trkpt>
      <trkpt lat="42.395549" lon="2.2888818">
        <ele>1526.30004883</ele>
        <time>2021-03-30T10:00:12Z</time>
      </trkpt>
      <trkpt lat="42.3954481" lon="2.2889463">
        <ele>1486.25</ele>
        <time>2021-03-30T10:00:13Z</time>
      </trkpt>
      <trkpt lat="42.3953465" lon="2.2890057">
        <ele>1499.41003418</ele>
        <time>2021-03-30T10:00:14Z</time>
      </trkpt>
      <trkpt lat="42.3952524" lon="2.2890726">
        <ele>1509.91003418</ele>
        <time>2021-03-30T10:00:15Z</time>
      </trkpt>
      <trkpt lat="42.3951635" lon="2.2891445">
        <ele>1518.31005859</ele>
        <time>2021-03-30T10:00:16Z</time>
      </trkpt>
      <trkpt lat="42.3950777" lon="2.2892157">
        <ele>1525</ele>
        <time>2021-03-30T10:00:17Z</time>
      </trkpt>
      <trkpt lat="42.3949912" lon="2.2892763">
        <ele>1530.32995605</ele>
        <time>2021-03-30T10:00:18Z</time>
      </trkpt>
      <trkpt lat="42.3949074" lon="2.2893429">
        <ele>1534.56005859</ele>
        <time>2021-03-30T10:00:19Z</time>
      </trkpt>
      <trkpt lat="42.3948201" lon="2.2894076">
        <ele>1537.89001465</ele>
        <time>2021-03-30T10:00:20Z</time>
      </trkpt>
      <trkpt lat="42.3947401" lon="2.2894775">
        <ele>1540.51000977</ele>
        <time>2021-03-30T10:00:21Z</time>
      </trkpt>
      <trkpt lat="42.394663" lon="2.289559">
        <ele>1542.56994629</ele>
        <time>2021-03-30T10:00:22Z</time>
      </trkpt>
      <trkpt lat="42.3945831" lon="2.2896384">
        <ele>1544.17004395</ele>
        <time>2021-03-30T10:00:23Z</time>
      </trkpt>
      <trkpt lat="42.3944973" lon="2.2897135">
        <ele>1545.40002441</ele>
        <time>2021-03-30T10:00:24Z</time>
      </trkpt>
      <trkpt lat="42.3944103" lon="2.2897917">
        <ele>1546.32995605</ele>
        <time>2021-03-30T10:00:25Z</time>
      </trkpt>
      <trkpt lat="42.3943259" lon="2.2898879">
        <ele>1547.04003906</ele>
        <time>2021-03-30T10:00:26Z</time>
      </trkpt>
      <trkpt lat="42.3942514" lon="2.2900043">
        <ele>1547.54003906</ele>
        <time>2021-03-30T10:00:27Z</time>
      </trkpt>
      <trkpt lat="42.3941885" lon="2.2901357">
        <ele>1547.86999512</ele>
        <time>2021-03-30T10:00:28Z</time>
      </trkpt>
      <trkpt lat="42.3941343" lon="2.2902701">
        <ele>1548.05004883</ele>
        <time>2021-03-30T10:00:29Z</time>
      </trkpt>
      <trkpt lat="42.3940846" lon="2.2904044">
        <ele>1548.11999512</ele>
        <time>2021-03-30T10:00:30Z</time>
      </trkpt>
      <trkpt lat="42.3940306" lon="2.2905289">
        <ele>1548.10998535</ele>
        <time>2021-03-30T10:00:31Z</time>
      </trkpt>
      <trkpt lat="42.3939841" lon="2.2906514">
        <ele>1548.04003906</ele>
        <time>2021-03-30T10:00:32Z</time>
      </trkpt>
      <trkpt lat="42.393937" lon="2.2907786">
        <ele>1547.92004395</ele>
        <time>2021-03-30T10:00:33Z</time>
      </trkpt>
      <trkpt lat="42.3938998" lon="2.2909102">
        <ele>1547.73999023</ele>
        <time>2021-03-30T10:00:34Z</time>
      </trkpt>
      <trkpt lat="42.3938793" lon="2.2910497">
        <ele>1547.51000977</ele>
        <time>2021-03-30T10:00:35Z</time>
      </trkpt>
      <trkpt lat="42.3938633" lon="2.2911932">
        <ele>1547.2199707</ele>
        <time>2021-03-30T10:00:36Z</time>
      </trkpt>
      <trkpt lat="42.393851" lon="2.2913354">
        <ele>1546.89001465</ele>
        <time>2021-03-30T10:00:37Z</time>
      </trkpt>
      <trkpt lat="42.3938388" lon="2.2914767">
        <ele>1546.54003906</ele>
        <time>2021-03-30T10:00:38Z</time>
      </trkpt>
      <trkpt lat="42.3938286" lon="2.2916272">
        <ele>1546.18005371</ele>
        <time>2021-03-30T10:00:39Z</time>
      </trkpt>
      <trkpt lat="42.3938062" lon="2.2917855">
        <ele>1545.81005859</ele>
        <time>2021-03-30T10:00:40Z</time>
      </trkpt>
      <trkpt lat="42.3937825" lon="2.2919438">
        <ele>1545.38000488</ele>
        <time>2021-03-30T10:00:41Z</time>
      </trkpt>
      <trkpt lat="42.3937561" lon="2.2921049">
        <ele>1544.95996094</ele>
        <time>2021-03-30T10:00:42Z</time>
      </trkpt>
      <trkpt lat="42.3937302" lon="2.292283">
        <ele>1544.48999023</ele>
        <time>2021-03-30T10:00:43Z</time>
      </trkpt>
      <trkpt lat="42.3936992" lon="2.2924548">
        <ele>1543.94995117</ele>
        <time>2021-03-30T10:00:44Z</time>
      </trkpt>
      <trkpt lat="42.3936634" lon="2.292623">
        <ele>1458.32995605</ele>
        <time>2021-03-30T10:00:45Z</time>
      </trkpt>
      <trkpt lat="42.3936183" lon="2.2927708">
        <ele>1449.17004395</ele>
        <time>2021-03-30T10:00:46Z</time>
      </trkpt>
      <trkpt lat="42.3935723" lon="2.2929152">
        <ele>1467.20996094</ele>
        <time>2021-03-30T10:00:47Z</time>
      </trkpt>
      <trkpt lat="42.3935223" lon="2.2930583">
        <ele>1481.47998047</ele>
        <time>2021-03-30T10:00:48Z</time>
      </trkpt>
      <trkpt lat="42.3934697" lon="2.2931864">
        <ele>1492.72998047</ele>
        <time>2021-03-30T10:00:49Z</time>
      </trkpt>
      <trkpt lat="42.3934066" lon="2.2933065">
        <ele>1501.61999512</ele>
        <time>2021-03-30T10:00:50Z</time>
      </trkpt>
      <trkpt lat="42.393342" lon="2.2933997">
        <ele>1508.66003418</ele>
        <time>2021-03-30T10:00:51Z</time>
      </trkpt>
      <trkpt lat="42.3932743" lon="2.2934913">
        <ele>1514.14001465</ele>
        <time>2021-03-30T10:00:52Z</time>
      </trkpt>
      <trkpt lat="42.3932028" lon="2.2935874">
        <ele>1518.31994629</ele>
        <time>2021-03-30T10:00:53Z</time>
      </trkpt>
      <trkpt lat="42.3931306" lon="2.2936707">
        <ele>1521.39001465</ele>
        <time>2021-03-30T10:00:54Z</time>
      </trkpt>
      <trkpt lat="42.3930391" lon="2.2937453">
        <ele>1523.56994629</ele>
        <time>2021-03-30T10:00:55Z</time>
      </trkpt>
      <trkpt lat="42.392933" lon="2.2938189">
        <ele>1525.05004883</ele>
        <time>2021-03-30T10:00:56Z</time>
      </trkpt>
      <trkpt lat="42.3928293" lon="2.2938764">
        <ele>1525.9699707</ele>
        <time>2021-03-30T10:00:57Z</time>
      </trkpt>
      <trkpt lat="42.3927268" lon="2.2939255">
        <ele>1526.47998047</ele>
        <time>2021-03-30T10:00:58Z</time>
      </trkpt>
      <trkpt lat="42.3926194" lon="2.293982">
        <ele>1526.63000488</ele>
        <time>2021-03-30T10:00:59Z</time>
      </trkpt>
      <trkpt lat="42.3925052" lon="2.2940529">
        <ele>1526.51000977</ele>
        <time>2021-03-30T10:01:00Z</time>
      </trkpt>
      <trkpt lat="42.3924068" lon="2.2941279">
        <ele>1526.15002441</ele>
        <time>2021-03-30T10:01:01Z</time>
      </trkpt>
      <trkpt lat="42.3923012" lon="2.2942088">
        <ele>1525.57995605</ele>
        <time>2021-03-30T10:01:02Z</time>
      </trkpt>
      <trkpt lat="42.3922021" lon="2.2942835">
        <ele>1524.84997559</ele>
        <time>2021-03-30T10:01:03Z</time>
      </trkpt>
      <trkpt lat="42.3921073" lon="2.2943573">
        <ele>1523.98999023</ele>
        <time>2021-03-30T10:01:04Z</time>
      </trkpt>
      <trkpt lat="42.3920073" lon="2.294443">
        <ele>1523.01000977</ele>
        <time>2021-03-30T10:01:05Z</time>
      </trkpt>
      <trkpt lat="42.3919276" lon="2.2945565">
        <ele>1521.93994141</ele>
        <time>2021-03-30T10:01:06Z</time>
      </trkpt>
      <trkpt lat="42.3918768" lon="2.2946789">
        <ele>1520.86999512</ele>
        <time>2021-03-30T10:01:07Z</time>
      </trkpt>
      <trkpt lat="42.3918219" lon="2.2948145">
        <ele>1519.77001953</ele>
        <time>2021-03-30T10:01:08Z</time>
      </trkpt>
      <trkpt lat="42.3917602" lon="2.2949341">
        <ele>1518.58996582</ele>
        <time>2021-03-30T10:01:09Z</time>
      </trkpt>
      <trkpt lat="42.3916947" lon="2.2950809">
        <ele>1517.29003906</ele>
        <time>2021-03-30T10:01:10Z</time>
      </trkpt>
      <trkpt lat="42.3916119" lon="2.2952028">
        <ele>1515.85998535</ele>
        <time>2021-03-30T10:01:11Z</time>
      </trkpt>
      <trkpt lat="42.3915329" lon="2.295319">
        <ele>1514.27001953</ele>
        <time>2021-03-30T10:01:12Z</time>
      </trkpt>
      <trkpt lat="42.3914557" lon="2.2954269">
        <ele>1512.51000977</ele>
        <time>2021-03-30T10:01:13Z</time>
      </trkpt>
      <trkpt lat="42.3913774" lon="2.2955348">
        <ele>1433.56005859</ele>
        <time>2021-03-30T10:01:14Z</time>
      </trkpt>
      <trkpt lat="42.3913001" lon="2.2956471">
        <ele>1425.25</ele>
        <time>2021-03-30T10:01:15Z</time>
      </trkpt>
      <trkpt lat="42.3912221" lon="2.2957646">
        <ele>1439.69995117</ele>
        <time>2021-03-30T10:01:16Z</time>
      </trkpt>
      <trkpt lat="42.3911469" lon="2.2958813">
        <ele>1422.69995117</ele>
        <time>2021-03-30T10:01:17Z</time>
      </trkpt>
      <trkpt lat="42.391077" lon="2.2959913">
        <ele>1436.35998535</ele>
        <time>2021-03-30T10:01:18Z</time>
      </trkpt>
      <trkpt lat="42.391017" lon="2.2961043">
        <ele>1420.20996094</ele>
        <time>2021-03-30T10:01:19Z</time>
      </trkpt>
      <trkpt lat="42.3909582" lon="2.296222">
        <ele>1417.69995117</ele>
        <time>2021-03-30T10:01:20Z</time>
      </trkpt>
      <trkpt lat="42.3909021" lon="2.2963459">
        <ele>1430.06994629</ele>
        <time>2021-03-30T10:01:21Z</time>
      </trkpt>
      <trkpt lat="42.390851" lon="2.2964704">
        <ele>1439.22998047</ele>
        <time>2021-03-30T10:01:22Z</time>
      </trkpt>
      <trkpt lat="42.3907948" lon="2.2965953">
        <ele>1418.68994141</ele>
        <time>2021-03-30T10:01:23Z</time>
      </trkpt>
      <trkpt lat="42.3907371" lon="2.2967242">
        <ele>1428.76000977</ele>
        <time>2021-03-30T10:01:24Z</time>
      </trkpt>
      <trkpt lat="42.3906788" lon="2.2968587">
        <ele>1436.16003418</ele>
        <time>2021-03-30T10:01:25Z</time>
      </trkpt>
      <trkpt lat="42.3906247" lon="2.2969833">
        <ele>1441.44995117</ele>
        <time>2021-03-30T10:01:26Z</time>
      </trkpt>
      <trkpt lat="42.3905653" lon="2.2971139">
        <ele>1445.04003906</ele>
        <time>2021-03-30T10:01:27Z</time>
      </trkpt>
      <trkpt lat="42.3905053" lon="2.297241">
        <ele>1447.22998047</ele>
        <time>2021-03-30T10:01:28Z</time>
      </trkpt>
      <trkpt lat="42.3904412" lon="2.2973659">
        <ele>1409.81005859</ele>
        <time>2021-03-30T10:01:29Z</time>
      </trkpt>
      <trkpt lat="42.3903743" lon="2.2974946">
        <ele>1417.77001953</ele>
        <time>2021-03-30T10:01:30Z</time>
      </trkpt>
      <trkpt lat="42.3903076" lon="2.2976221">
        <ele>1404.73999023</ele>
        <time>2021-03-30T10:01:31Z</time>
      </trkpt>
      <trkpt lat="42.3902459" lon="2.2977406">
        <ele>1402.56994629</ele>
        <time>2021-03-30T10:01:32Z</time>
      </trkpt>
      <trkpt lat="42.3901807" lon="2.2978471">
        <ele>1401.51000977</ele>
        <time>2021-03-30T10:01:33Z</time>
      </trkpt>
      <trkpt lat="42.3900994" lon="2.2979552">
        <ele>1400.5</ele>
        <time>2021-03-30T10:01:34Z</time>
      </trkpt>
      <trkpt lat="42.3900136" lon="2.2980751">
        <ele>1399.42004395</ele>
        <time>2021-03-30T10:01:35Z</time>
      </trkpt>
      <trkpt lat="42.3899301" lon="2.2981953">
        <ele>1398.22998047</ele>
        <time>2021-03-30T10:01:36Z</time>
      </trkpt>
      <trkpt lat="42.3898499" lon="2.2983026">
        <ele>1397.05004883</ele>
        <time>2021-03-30T10:01:37Z</time>
      </trkpt>
      <trkpt lat="42.3897653" lon="2.2984146">
        <ele>1396.02001953</ele>
        <time>2021-03-30T10:01:38Z</time>
      </trkpt>
      <trkpt lat="42.3896816" lon="2.2985245">
        <ele>1395.15002441</ele>
        <time>2021-03-30T10:01:39Z</time>
      </trkpt>
      <trkpt lat="42.3895976" lon="2.2986372">
        <ele>1394.2800293</ele>
        <time>2021-03-30T10:01:40Z</time>
      </trkpt>
      <trkpt lat="42.3895143" lon="2.2987511">
        <ele>1393.31005859</ele>
        <time>2021-03-30T10:01:41Z</time>
      </trkpt>
      <trkpt lat="42.3894317" lon="2.2988663">
        <ele>1392.22998047</ele>
        <time>2021-03-30T10:01:42Z</time>
      </trkpt>
      <trkpt lat="42.3893473" lon="2.2989807">
        <ele>1391.05004883</ele>
        <time>2021-03-30T10:01:43Z</time>
      </trkpt>
      <trkpt lat="42.3892621" lon="2.2990979">
        <ele>1389.79003906</ele>
        <time>2021-03-30T10:01:44Z</time>
      </trkpt>
      <trkpt lat="42.389179" lon="2.2992131">
        <ele>1388.43994141</ele>
        <time>2021-03-30T10:01:45Z</time>
      </trkpt>
      <trkpt lat="42.3890991" lon="2.2993161">
        <ele>1387.13000488</ele>
        <time>2021-03-30T10:01:46Z</time>
      </trkpt>
      <trkpt lat="42.3890184" lon="2.2994245">
        <ele>1386.07995605</ele>
        <time>2021-03-30T10:01:47Z</time>
      </trkpt>
      <trkpt lat="42.38893" lon="2.2995516">
        <ele>1385.17004395</ele>
        <time>2021-03-30T10:01:48Z</time>
      </trkpt>
      <trkpt lat="42.3888491" lon="2.2996687">
        <ele>1384.18005371</ele>
        <time>2021-03-30T10:01:49Z</time>
      </trkpt>
      <trkpt lat="42.3887683" lon="2.2997844">
        <ele>1383.08996582</ele>
        <time>2021-03-30T10:01:50Z</time>
      </trkpt>
      <trkpt lat="42.3886813" lon="2.2998945">
        <ele>1381.92004395</ele>
        <time>2021-03-30T10:01:51Z</time>
      </trkpt>
      <trkpt lat="42.3886015" lon="2.3000041">
        <ele>1380.64001465</ele>
        <time>2021-03-30T10:01:52Z</time>
      </trkpt>
      <trkpt lat="42.3885187" lon="2.3001177">
        <ele>1379.31994629</ele>
        <time>2021-03-30T10:01:53Z</time>
      </trkpt>
      <trkpt lat="42.3884365" lon="2.3002311">
        <ele>1378.13000488</ele>
        <time>2021-03-30T10:01:54Z</time>
      </trkpt>
      <trkpt lat="42.3883569" lon="2.300345">
        <ele>1377.06005859</ele>
        <time>2021-03-30T10:01:55Z</time>
      </trkpt>
      <trkpt lat="42.3882742" lon="2.3004623">
        <ele>1376.13000488</ele>
        <time>2021-03-30T10:01:56Z</time>
      </trkpt>
      <trkpt lat="42.3881923" lon="2.3005733">
        <ele>1375.15002441</ele>
        <time>2021-03-30T10:01:57Z</time>
      </trkpt>
      <trkpt lat="42.3881081" lon="2.3006909">
        <ele>1374.09997559</ele>
        <time>2021-03-30T10:01:58Z</time>
      </trkpt>
      <trkpt lat="42.3880272" lon="2.3008026">
        <ele>1373.22998047</ele>
        <time>2021-03-30T10:01:59Z</time>
      </trkpt>
      <trkpt lat="42.3879559" lon="2.3009119">
        <ele>1372.47998047</ele>
        <time>2021-03-30T10:02:00Z</time>
      </trkpt>
      <trkpt lat="42.3878843" lon="2.3010243">
        <ele>1371.7199707</ele>
        <time>2021-03-30T10:02:01Z</time>
      </trkpt>
      <trkpt lat="42.3878142" lon="2.3011355">
        <ele>1370.95996094</ele>
        <time>2021-03-30T10:02:02Z</time>
      </trkpt>
      <trkpt lat="42.3877432" lon="2.3012427">
        <ele>1370.16003418</ele>
        <time>2021-03-30T10:02:03Z</time>
      </trkpt>
      <trkpt lat="42.3876768" lon="2.3013449">
        <ele>1369.88000488</ele>
        <time>2021-03-30T10:02:04Z</time>
      </trkpt>
      <trkpt lat="42.3876071" lon="2.3014541">
        <ele>1368.73999023</ele>
        <time>2021-03-30T10:02:05Z</time>
      </trkpt>
      <trkpt lat="42.3875349" lon="2.3015675">
        <ele>1367.48999023</ele>
        <time>2021-03-30T10:02:06Z</time>
      </trkpt>
      <trkpt lat="42.3874629" lon="2.3016821">
        <ele>1366.19995117</ele>
        <time>2021-03-30T10:02:07Z</time>
      </trkpt>
      <trkpt lat="42.3873972" lon="2.3017968">
        <ele>1365.17004395</ele>
        <time>2021-03-30T10:02:08Z</time>
      </trkpt>
      <trkpt lat="42.387332" lon="2.3019081">
        <ele>1364.07995605</ele>
        <time>2021-03-30T10:02:09Z</time>
      </trkpt>
      <trkpt lat="42.3872664" lon="2.3020189">
        <ele>1363.01000977</ele>
        <time>2021-03-30T10:02:10Z</time>
      </trkpt>
      <trkpt lat="42.3871999" lon="2.3021364">
        <ele>1361.93994141</ele>
        <time>2021-03-30T10:02:11Z</time>
      </trkpt>
      <trkpt lat="42.3871306" lon="2.302252">
        <ele>1360.86999512</ele>
        <time>2021-03-30T10:02:12Z</time>
      </trkpt>
      <trkpt lat="42.3870548" lon="2.3023615">
        <ele>1359.77001953</ele>
        <time>2021-03-30T10:02:13Z</time>
      </trkpt>
      <trkpt lat="42.3869751" lon="2.3024678">
        <ele>1358.65002441</ele>
        <time>2021-03-30T10:02:14Z</time>
      </trkpt>
      <trkpt lat="42.3868873" lon="2.3025633">
        <ele>1357.48999023</ele>
        <time>2021-03-30T10:02:15Z</time>
      </trkpt>
      <trkpt lat="42.3867932" lon="2.3026398">
        <ele>1356.31005859</ele>
        <time>2021-03-30T10:02:16Z</time>
      </trkpt>
      <trkpt lat="42.3866973" lon="2.3027075">
        <ele>1355.19995117</ele>
        <time>2021-03-30T10:02:17Z</time>
      </trkpt>
      <trkpt lat="42.3866024" lon="2.3027701">
        <ele>1354.20996094</ele>
        <time>2021-03-30T10:02:18Z</time>
      </trkpt>
      <trkpt lat="42.3865079" lon="2.3028292">
        <ele>1353.32995605</ele>
        <time>2021-03-30T10:02:19Z</time>
      </trkpt>
      <trkpt lat="42.3864138" lon="2.3028908">
        <ele>1352.56005859</ele>
        <time>2021-03-30T10:02:20Z</time>
      </trkpt>
      <trkpt lat="42.3863206" lon="2.3029515">
        <ele>1351.93005371</ele>
        <time>2021-03-30T10:02:21Z</time>
      </trkpt>
      <trkpt lat="42.3862293" lon="2.3030093">
        <ele>1351.40002441</ele>
        <time>2021-03-30T10:02:22Z</time>
      </trkpt>
      <trkpt lat="42.3861396" lon="2.3030616">
        <ele>1350.80004883</ele>
        <time>2021-03-30T10:02:23Z</time>
      </trkpt>
      <trkpt lat="42.3860503" lon="2.3031117">
        <ele>1350.58996582</ele>
        <time>2021-03-30T10:02:24Z</time>
      </trkpt>
      <trkpt lat="42.3859648" lon="2.3031643">
        <ele>1349.68994141</ele>
        <time>2021-03-30T10:02:25Z</time>
      </trkpt>
      <trkpt lat="42.3858799" lon="2.3032125">
        <ele>1348.77001953</ele>
        <time>2021-03-30T10:02:26Z</time>
      </trkpt>
      <trkpt lat="42.3857975" lon="2.303261">
        <ele>1347.89001465</ele>
        <time>2021-03-30T10:02:27Z</time>
      </trkpt>
      <trkpt lat="42.3857162" lon="2.3033024">
        <ele>1347.06005859</ele>
        <time>2021-03-30T10:02:28Z</time>
      </trkpt>
      <trkpt lat="42.3856306" lon="2.3033417">
        <ele>1346.26000977</ele>
        <time>2021-03-30T10:02:29Z</time>
      </trkpt>
      <trkpt lat="42.3855422" lon="2.3033759">
        <ele>1345.43005371</ele>
        <time>2021-03-30T10:02:30Z</time>
      </trkpt>
      <trkpt lat="42.385453" lon="2.3034149">
        <ele>1344.61999512</ele>
        <time>2021-03-30T10:02:31Z</time>
      </trkpt>
      <trkpt lat="42.3853622" lon="2.3034533">
        <ele>1343.90002441</ele>
        <time>2021-03-30T10:02:32Z</time>
      </trkpt>
      <trkpt lat="42.3852716" lon="2.3034905">
        <ele>1343.23999023</ele>
        <time>2021-03-30T10:02:33Z</time>
      </trkpt>
      <trkpt lat="42.3851795" lon="2.3035213">
        <ele>1342.57995605</ele>
        <time>2021-03-30T10:02:34Z</time>
      </trkpt>
      <trkpt lat="42.3850865" lon="2.3035472">
        <ele>1341.81994629</ele>
        <time>2021-03-30T10:02:35Z</time>
      </trkpt>
      <trkpt lat="42.3849927" lon="2.3035787">
        <ele>1340.95996094</ele>
        <time>2021-03-30T10:02:36Z</time>
      </trkpt>
      <trkpt lat="42.384899" lon="2.3035993">
        <ele>1340.02001953</ele>
        <time>2021-03-30T10:02:37Z</time>
      </trkpt>
      <trkpt lat="42.3848164" lon="2.3036308">
        <ele>1339.16003418</ele>
        <time>2021-03-30T10:02:38Z</time>
      </trkpt>
      <trkpt lat="42.3847423" lon="2.3036434">
        <ele>1338.43994141</ele>
        <time>2021-03-30T10:02:39Z</time>
      </trkpt>
      <trkpt lat="42.384678" lon="2.3036711">
        <ele>1337.81994629</ele>
        <time>2021-03-30T10:02:40Z</time>
      </trkpt>
      <trkpt lat="42.3846108" lon="2.3036749">
        <ele>1337.22998047</ele>
        <time>2021-03-30T10:02:41Z</time>
      </trkpt>
      <trkpt lat="42.3845407" lon="2.3036829">
        <ele>1336.59997559</ele>
        <time>2021-03-30T10:02:42Z</time>
      </trkpt>
      <trkpt lat="42.3844743" lon="2.303696">
        <ele>1335.92004395</ele>
        <time>2021-03-30T10:02:43Z</time>
      </trkpt>
      <trkpt lat="42.3844089" lon="2.3037083">
        <ele>1335.19995117</ele>
        <time>2021-03-30T10:02:44Z</time>
      </trkpt>
      <trkpt lat="42.3843412" lon="2.3037314">
        <ele>1334.48999023</ele>
        <time>2021-03-30T10:02:45Z</time>
      </trkpt>
      <trkpt lat="42.3842682" lon="2.3037494">
        <ele>1333.83996582</ele>
        <time>2021-03-30T10:02:46Z</time>
      </trkpt>
      <trkpt lat="42.3841892" lon="2.3037582">
        <ele>1333.2199707</ele>
        <time>2021-03-30T10:02:47Z</time>
      </trkpt>
      <trkpt lat="42.3841065" lon="2.3037632">
        <ele>1332.57995605</ele>
        <time>2021-03-30T10:02:48Z</time>
      </trkpt>
      <trkpt lat="42.3840275" lon="2.3037655">
        <ele>1331.93994141</ele>
        <time>2021-03-30T10:02:49Z</time>
      </trkpt>
      <trkpt lat="42.383953" lon="2.3037758">
        <ele>1331.30004883</ele>
        <time>2021-03-30T10:02:50Z</time>
      </trkpt>
      <trkpt lat="42.3838778" lon="2.3037902">
        <ele>1330.68005371</ele>
        <time>2021-03-30T10:02:51Z</time>
      </trkpt>
      <trkpt lat="42.3838014" lon="2.3038189">
        <ele>1330.08996582</ele>
        <time>2021-03-30T10:02:52Z</time>
      </trkpt>
      <trkpt lat="42.3837202" lon="2.3038319">
        <ele>1329.5</ele>
        <time>2021-03-30T10:02:53Z</time>
      </trkpt>
      <trkpt lat="42.3836371" lon="2.3038445">
        <ele>1328.88000488</ele>
        <time>2021-03-30T10:02:54Z</time>
      </trkpt>
      <trkpt lat="42.383553" lon="2.3038513">
        <ele>1328.18994141</ele>
        <time>2021-03-30T10:02:55Z</time>
      </trkpt>
      <trkpt lat="42.3834712" lon="2.3038565">
        <ele>1327.5300293</ele>
        <time>2021-03-30T10:02:56Z</time>
      </trkpt>
      <trkpt lat="42.3833925" lon="2.303854">
        <ele>1326.93994141</ele>
        <time>2021-03-30T10:02:57Z</time>
      </trkpt>
      <trkpt lat="42.3833129" lon="2.3038528">
        <ele>1326.41003418</ele>
        <time>2021-03-30T10:02:58Z</time>
      </trkpt>
      <trkpt lat="42.3832298" lon="2.3038614">
        <ele>1325.93005371</ele>
        <time>2021-03-30T10:02:59Z</time>
      </trkpt>
      <trkpt lat="42.383144" lon="2.3038465">
        <ele>1325.48999023</ele>
        <time>2021-03-30T10:03:00Z</time>
      </trkpt>
      <trkpt lat="42.383057" lon="2.3038146">
        <ele>1325.06005859</ele>
        <time>2021-03-30T10:03:01Z</time>
      </trkpt>
      <trkpt lat="42.3829679" lon="2.3037743">
        <ele>1324.59997559</ele>
        <time>2021-03-30T10:03:02Z</time>
      </trkpt>
      <trkpt lat="42.3828797" lon="2.3037326">
        <ele>1324.18994141</ele>
        <time>2021-03-30T10:03:03Z</time>
      </trkpt>
      <trkpt lat="42.3827948" lon="2.3036912">
        <ele>1323.81005859</ele>
        <time>2021-03-30T10:03:04Z</time>
      </trkpt>
      <trkpt lat="42.3827157" lon="2.3036572">
        <ele>1323.38000488</ele>
        <time>2021-03-30T10:03:05Z</time>
      </trkpt>
      <trkpt lat="42.3826387" lon="2.3036327">
        <ele>1322.88000488</ele>
        <time>2021-03-30T10:03:06Z</time>
      </trkpt>
      <trkpt lat="42.3825639" lon="2.303619">
        <ele>1322.33996582</ele>
        <time>2021-03-30T10:03:07Z</time>
      </trkpt>
      <trkpt lat="42.3824878" lon="2.3035991">
        <ele>1321.80004883</ele>
        <time>2021-03-30T10:03:08Z</time>
      </trkpt>
      <trkpt lat="42.3824098" lon="2.303578">
        <ele>1321.26000977</ele>
        <time>2021-03-30T10:03:09Z</time>
      </trkpt>
      <trkpt lat="42.3823342" lon="2.3035558">
        <ele>1320.72998047</ele>
        <time>2021-03-30T10:03:10Z</time>
      </trkpt>
      <trkpt lat="42.3822605" lon="2.3035377">
        <ele>1320.2199707</ele>
        <time>2021-03-30T10:03:11Z</time>
      </trkpt>
      <trkpt lat="42.3821861" lon="2.3035295">
        <ele>1319.72998047</ele>
        <time>2021-03-30T10:03:12Z</time>
      </trkpt>
      <trkpt lat="42.3821138" lon="2.3035183">
        <ele>1319.22998047</ele>
        <time>2021-03-30T10:03:13Z</time>
      </trkpt>
      <trkpt lat="42.3820418" lon="2.303496">
        <ele>1318.67004395</ele>
        <time>2021-03-30T10:03:14Z</time>
      </trkpt>
      <trkpt lat="42.3819663" lon="2.3034696">
        <ele>1318.06994629</ele>
        <time>2021-03-30T10:03:15Z</time>
      </trkpt>
      <trkpt lat="42.3818908" lon="2.3034318">
        <ele>1317.43994141</ele>
        <time>2021-03-30T10:03:16Z</time>
      </trkpt>
      <trkpt lat="42.3818122" lon="2.3033957">
        <ele>1316.83996582</ele>
        <time>2021-03-30T10:03:17Z</time>
      </trkpt>
      <trkpt lat="42.3817337" lon="2.3033582">
        <ele>1316.31005859</ele>
        <time>2021-03-30T10:03:18Z</time>
      </trkpt>
      <trkpt lat="42.3816537" lon="2.3033233">
        <ele>1315.83996582</ele>
        <time>2021-03-30T10:03:19Z</time>
      </trkpt>
      <trkpt lat="42.3815733" lon="2.3032787">
        <ele>1315.39001465</ele>
        <time>2021-03-30T10:03:20Z</time>
      </trkpt>
      <trkpt lat="42.3814936" lon="2.3032379">
        <ele>1314.84997559</ele>
        <time>2021-03-30T10:03:21Z</time>
      </trkpt>
      <trkpt lat="42.3814196" lon="2.3031899">
        <ele>1314.20996094</ele>
        <time>2021-03-30T10:03:22Z</time>
      </trkpt>
      <trkpt lat="42.381348" lon="2.303141">
        <ele>1313.48999023</ele>
        <time>2021-03-30T10:03:23Z</time>
      </trkpt>
      <trkpt lat="42.3812738" lon="2.303094">
        <ele>1312.7800293</ele>
        <time>2021-03-30T10:03:24Z</time>
      </trkpt>
      <trkpt lat="42.3811956" lon="2.3030495">
        <ele>1312.15002441</ele>
        <time>2021-03-30T10:03:25Z</time>
      </trkpt>
      <trkpt lat="42.3811101" lon="2.3030035">
        <ele>1311.56994629</ele>
        <time>2021-03-30T10:03:26Z</time>
      </trkpt>
      <trkpt lat="42.3810283" lon="2.3029403">
        <ele>1310.9699707</ele>
        <time>2021-03-30T10:03:27Z</time>
      </trkpt>
      <trkpt lat="42.3809444" lon="2.3028776">
        <ele>1310.76000977</ele>
        <time>2021-03-30T10:03:28Z</time>
      </trkpt>
      <trkpt lat="42.3808583" lon="2.3028139">
        <ele>1309.88000488</ele>
        <time>2021-03-30T10:03:29Z</time>
      </trkpt>
      <trkpt lat="42.3807713" lon="2.3027524">
        <ele>1308.97998047</ele>
        <time>2021-03-30T10:03:30Z</time>
      </trkpt>
      <trkpt lat="42.3806865" lon="2.3026888">
        <ele>1308.17004395</ele>
        <time>2021-03-30T10:03:31Z</time>
      </trkpt>
      <trkpt lat="42.3806069" lon="2.3026215">
        <ele>1307.45996094</ele>
        <time>2021-03-30T10:03:32Z</time>
      </trkpt>
      <trkpt lat="42.3805328" lon="2.3025541">
        <ele>1306.82995605</ele>
        <time>2021-03-30T10:03:33Z</time>
      </trkpt>
      <trkpt lat="42.3804597" lon="2.3024913">
        <ele>1306.23999023</ele>
        <time>2021-03-30T10:03:34Z</time>
      </trkpt>
      <trkpt lat="42.3803913" lon="2.3024217">
        <ele>1305.56994629</ele>
        <time>2021-03-30T10:03:35Z</time>
      </trkpt>
      <trkpt lat="42.38032" lon="2.3023646">
        <ele>1305.34997559</ele>
        <time>2021-03-30T10:03:36Z</time>
      </trkpt>
      <trkpt lat="42.3802522" lon="2.3023072">
        <ele>1304.45996094</ele>
        <time>2021-03-30T10:03:37Z</time>
      </trkpt>
      <trkpt lat="42.3801879" lon="2.3022455">
        <ele>1303.57995605</ele>
        <time>2021-03-30T10:03:38Z</time>
      </trkpt>
      <trkpt lat="42.380127" lon="2.3021828">
        <ele>1302.80004883</ele>
        <time>2021-03-30T10:03:39Z</time>
      </trkpt>
      <trkpt lat="42.3800726" lon="2.3021169">
        <ele>1302.11999512</ele>
        <time>2021-03-30T10:03:40Z</time>
      </trkpt>
      <trkpt lat="42.3800185" lon="2.3020528">
        <ele>1301.52001953</ele>
        <time>2021-03-30T10:03:41Z</time>
      </trkpt>
      <trkpt lat="42.3799608" lon="2.3019948">
        <ele>1300.98999023</ele>
        <time>2021-03-30T10:03:42Z</time>
      </trkpt>
      <trkpt lat="42.3799054" lon="2.3019371">
        <ele>1300.4699707</ele>
        <time>2021-03-30T10:03:43Z</time>
      </trkpt>
      <trkpt lat="42.3798499" lon="2.3018867">
        <ele>1299.91003418</ele>
        <time>2021-03-30T10:03:44Z</time>
      </trkpt>
      <trkpt lat="42.3797914" lon="2.3018514">
        <ele>1299.48999023</ele>
        <time>2021-03-30T10:03:45Z</time>
      </trkpt>
      <trkpt lat="42.3797276" lon="2.3018372">
        <ele>1299.14001465</ele>
        <time>2021-03-30T10:03:46Z</time>
      </trkpt>
      <trkpt lat="42.3796566" lon="2.3018187">
        <ele>1298.77001953</ele>
        <time>2021-03-30T10:03:47Z</time>
      </trkpt>
      <trkpt lat="42.3795787" lon="2.3018132">
        <ele>1298.43994141</ele>
        <time>2021-03-30T10:03:48Z</time>
      </trkpt>
      <trkpt lat="42.3795059" lon="2.3018204">
        <ele>1298.09997559</ele>
        <time>2021-03-30T10:03:49Z</time>
      </trkpt>
      <trkpt lat="42.3794353" lon="2.3018378">
        <ele>1297.70996094</ele>
        <time>2021-03-30T10:03:50Z</time>
      </trkpt>
      <trkpt lat="42.3793591" lon="2.3018356">
        <ele>1297.27001953</ele>
        <time>2021-03-30T10:03:51Z</time>
      </trkpt>
      <trkpt lat="42.3792794" lon="2.3018146">
        <ele>1296.72998047</ele>
        <time>2021-03-30T10:03:52Z</time>
      </trkpt>
      <trkpt lat="42.3791988" lon="2.3017944">
        <ele>1296.13000488</ele>
        <time>2021-03-30T10:03:53Z</time>
      </trkpt>
      <trkpt lat="42.3791165" lon="2.3017679">
        <ele>1295.4699707</ele>
        <time>2021-03-30T10:03:54Z</time>
      </trkpt>
      <trkpt lat="42.3790289" lon="2.3017505">
        <ele>1294.86999512</ele>
        <time>2021-03-30T10:03:55Z</time>
      </trkpt>
      <trkpt lat="42.3789342" lon="2.3017339">
        <ele>1294.35998535</ele>
        <time>2021-03-30T10:03:56Z</time>
      </trkpt>
      <trkpt lat="42.3788384" lon="2.3017169">
        <ele>1293.93994141</ele>
        <time>2021-03-30T10:03:57Z</time>
      </trkpt>
      <trkpt lat="42.3787503" lon="2.3017035">
        <ele>1293.5</ele>
        <time>2021-03-30T10:03:58Z</time>
      </trkpt>
      <trkpt lat="42.3786662" lon="2.3017069">
        <ele>1292.97998047</ele>
        <time>2021-03-30T10:03:59Z</time>
      </trkpt>
      <trkpt lat="42.3785826" lon="2.3017058">
        <ele>1292.33996582</ele>
        <time>2021-03-30T10:04:00Z</time>
      </trkpt>
      <trkpt lat="42.3784964" lon="2.3016947">
        <ele>1291.67004395</ele>
        <time>2021-03-30T10:04:01Z</time>
      </trkpt>
      <trkpt lat="42.3784092" lon="2.301682">
        <ele>1291.06994629</ele>
        <time>2021-03-30T10:04:02Z</time>
      </trkpt>
      <trkpt lat="42.3783178" lon="2.3016762">
        <ele>1290.56005859</ele>
        <time>2021-03-30T10:04:03Z</time>
      </trkpt>
      <trkpt lat="42.3782285" lon="2.3016777">
        <ele>1290.11999512</ele>
        <time>2021-03-30T10:04:04Z</time>
      </trkpt>
      <trkpt lat="42.378142" lon="2.3016833">
        <ele>1289.7199707</ele>
        <time>2021-03-30T10:04:05Z</time>
      </trkpt>
      <trkpt lat="42.378065" lon="2.3017224">
        <ele>1289.35998535</ele>
        <time>2021-03-30T10:04:06Z</time>
      </trkpt>
      <trkpt lat="42.3779905" lon="2.3017487">
        <ele>1288.95996094</ele>
        <time>2021-03-30T10:04:07Z</time>
      </trkpt>
      <trkpt lat="42.3779295" lon="2.3017745">
        <ele>1288.56005859</ele>
        <time>2021-03-30T10:04:08Z</time>
      </trkpt>
      <trkpt lat="42.377877" lon="2.3017846">
        <ele>1288.15002441</ele>
        <time>2021-03-30T10:04:09Z</time>
      </trkpt>
      <trkpt lat="42.377819" lon="2.3017998">
        <ele>1287.75</ele>
        <time>2021-03-30T10:04:10Z</time>
      </trkpt>
      <trkpt lat="42.3777564" lon="2.3018172">
        <ele>1287.38000488</ele>
        <time>2021-03-30T10:04:11Z</time>
      </trkpt>
      <trkpt lat="42.3776919" lon="2.3018172">
        <ele>1287.01000977</ele>
        <time>2021-03-30T10:04:12Z</time>
      </trkpt>
      <trkpt lat="42.3776292" lon="2.3018384">
        <ele>1286.67004395</ele>
        <time>2021-03-30T10:04:13Z</time>
      </trkpt>
      <trkpt lat="42.3775725" lon="2.301858">
        <ele>1296.20996094</ele>
        <time>2021-03-30T10:04:14Z</time>
      </trkpt>
      <trkpt lat="42.3775205" lon="2.3018691">
        <ele>1286.98999023</ele>
        <time>2021-03-30T10:04:15Z</time>
      </trkpt>
      <trkpt lat="42.3774753" lon="2.3018885">
        <ele>1296.31994629</ele>
        <time>2021-03-30T10:04:16Z</time>
      </trkpt>
      <trkpt lat="42.3774297" lon="2.3019042">
        <ele>1303.72998047</ele>
        <time>2021-03-30T10:04:17Z</time>
      </trkpt>
      <trkpt lat="42.3773836" lon="2.3019226">
        <ele>1309.59997559</ele>
        <time>2021-03-30T10:04:18Z</time>
      </trkpt>
      <trkpt lat="42.3773336" lon="2.3019351">
        <ele>1287.16003418</ele>
        <time>2021-03-30T10:04:19Z</time>
      </trkpt>
      <trkpt lat="42.3772807" lon="2.3019396">
        <ele>1284.63000488</ele>
        <time>2021-03-30T10:04:20Z</time>
      </trkpt>
      <trkpt lat="42.3772205" lon="2.301927">
        <ele>1294.29003906</ele>
        <time>2021-03-30T10:04:21Z</time>
      </trkpt>
      <trkpt lat="42.3771614" lon="2.3018998">
        <ele>1284.86999512</ele>
        <time>2021-03-30T10:04:22Z</time>
      </trkpt>
      <trkpt lat="42.3770987" lon="2.3018743">
        <ele>1283.68994141</ele>
        <time>2021-03-30T10:04:23Z</time>
      </trkpt>
      <trkpt lat="42.3770316" lon="2.3018584">
        <ele>1283.2800293</ele>
        <time>2021-03-30T10:04:24Z</time>
      </trkpt>
      <trkpt lat="42.3769702" lon="2.3018292">
        <ele>1282.90002441</ele>
        <time>2021-03-30T10:04:25Z</time>
      </trkpt>
      <trkpt lat="42.3769171" lon="2.3017927">
        <ele>1282.5</ele>
        <time>2021-03-30T10:04:26Z</time>
      </trkpt>
      <trkpt lat="42.3768678" lon="2.3017582">
        <ele>1282.15002441</ele>
        <time>2021-03-30T10:04:27Z</time>
      </trkpt>
      <trkpt lat="42.376822" lon="2.3017287">
        <ele>1281.90002441</ele>
        <time>2021-03-30T10:04:28Z</time>
      </trkpt>
      <trkpt lat="42.3767763" lon="2.3017056">
        <ele>1281.73999023</ele>
        <time>2021-03-30T10:04:29Z</time>
      </trkpt>
      <trkpt lat="42.376709" lon="2.3017433">
        <ele>1281.64001465</ele>
        <time>2021-03-30T10:04:30Z</time>
      </trkpt>
      <trkpt lat="42.3766594" lon="2.3017566">
        <ele>1281.48999023</ele>
        <time>2021-03-30T10:04:31Z</time>
      </trkpt>
      <trkpt lat="42.3766163" lon="2.3017584">
        <ele>1281.31994629</ele>
        <time>2021-03-30T10:04:32Z</time>
      </trkpt>
      <trkpt lat="42.3765719" lon="2.3017655">
        <ele>1291.43005371</ele>
        <time>2021-03-30T10:04:33Z</time>
      </trkpt>
      <trkpt lat="42.3765286" lon="2.3017591">
        <ele>1281.89001465</ele>
        <time>2021-03-30T10:04:34Z</time>
      </trkpt>
      <trkpt lat="42.3764902" lon="2.3017356">
        <ele>1280.68005371</ele>
        <time>2021-03-30T10:04:35Z</time>
      </trkpt>
      <trkpt lat="42.3764571" lon="2.3017152">
        <ele>1280.31005859</ele>
        <time>2021-03-30T10:04:36Z</time>
      </trkpt>
      <trkpt lat="42.3764378" lon="2.3017124">
        <ele>1290.82995605</ele>
        <time>2021-03-30T10:04:37Z</time>
      </trkpt>
      <trkpt lat="42.376423" lon="2.3016854">
        <ele>1299.22998047</ele>
        <time>2021-03-30T10:04:38Z</time>
      </trkpt>
      <trkpt lat="42.3764122" lon="2.3016762">
        <ele>1305.89001465</ele>
        <time>2021-03-30T10:04:39Z</time>
      </trkpt>
      <trkpt lat="42.3763956" lon="2.3016669">
        <ele>1281.81994629</ele>
        <time>2021-03-30T10:04:40Z</time>
      </trkpt>
      <trkpt lat="42.3763738" lon="2.3016482">
        <ele>1291.91003418</ele>
        <time>2021-03-30T10:04:41Z</time>
      </trkpt>
      <trkpt lat="42.3763486" lon="2.3016293">
        <ele>1279.97998047</ele>
        <time>2021-03-30T10:04:42Z</time>
      </trkpt>
      <trkpt lat="42.3763284" lon="2.3016264">
        <ele>1278.65002441</ele>
        <time>2021-03-30T10:04:43Z</time>
      </trkpt>
      <trkpt lat="42.3763063" lon="2.3016121">
        <ele>1278.40002441</ele>
        <time>2021-03-30T10:04:44Z</time>
      </trkpt>
      <trkpt lat="42.3762836" lon="2.301607">
        <ele>1278.29003906</ele>
        <time>2021-03-30T10:04:45Z</time>
      </trkpt>
      <trkpt lat="42.3762632" lon="2.3016038">
        <ele>1278.2199707</ele>
        <time>2021-03-30T10:04:46Z</time>
      </trkpt>
      <trkpt lat="42.3762395" lon="2.3015967">
        <ele>1278.16003418</ele>
        <time>2021-03-30T10:04:47Z</time>
      </trkpt>
      <trkpt lat="42.3762089" lon="2.3016027">
        <ele>1278.11999512</ele>
        <time>2021-03-30T10:04:48Z</time>
      </trkpt>
      <trkpt lat="42.3761834" lon="2.301601">
        <ele>1278.06994629</ele>
        <time>2021-03-30T10:04:49Z</time>
      </trkpt>
      <trkpt lat="42.3761598" lon="2.301597">
        <ele>1278.04003906</ele>
        <time>2021-03-30T10:04:50Z</time>
      </trkpt>
      <trkpt lat="42.376135" lon="2.3016127">
        <ele>1278.01000977</ele>
        <time>2021-03-30T10:04:51Z</time>
      </trkpt>
      <trkpt lat="42.3761208" lon="2.3016056">
        <ele>1277.95996094</ele>
        <time>2021-03-30T10:04:52Z</time>
      </trkpt>
      <trkpt lat="42.3761111" lon="2.3016065">
        <ele>1277.93005371</ele>
        <time>2021-03-30T10:04:53Z</time>
      </trkpt>
      <trkpt lat="42.3761055" lon="2.3015844">
        <ele>1277.89001465</ele>
        <time>2021-03-30T10:04:54Z</time>
      </trkpt>
      <trkpt lat="42.376091" lon="2.3015749">
        <ele>1277.89001465</ele>
        <time>2021-03-30T10:04:55Z</time>
      </trkpt>
      <trkpt lat="42.3760738" lon="2.3015642">
        <ele>1277.89001465</ele>
        <time>2021-03-30T10:04:56Z</time>
      </trkpt>
      <trkpt lat="42.3760598" lon="2.301557">
        <ele>1277.86999512</ele>
        <time>2021-03-30T10:04:57Z</time>
      </trkpt>
      <trkpt lat="42.376053" lon="2.3015397">
        <ele>1277.83996582</ele>
        <time>2021-03-30T10:04:58Z</time>
      </trkpt>
      <trkpt lat="42.3760378" lon="2.3015606">
        <ele>1277.64001465</ele>
        <time>2021-03-30T10:05:05Z</time>
      </trkpt>
      <trkpt lat="42.3760272" lon="2.3015539">
        <ele>1277.58996582</ele>
        <time>2021-03-30T10:05:06Z</time>
      </trkpt>
      <trkpt lat="42.3760169" lon="2.3015436">
        <ele>1277.5300293</ele>
        <time>2021-03-30T10:05:07Z</time>
      </trkpt>
      <trkpt lat="42.3760242" lon="2.3015016">
        <ele>1278.41003418</ele>
        <time>2021-03-30T10:08:51Z</time>
      </trkpt>
      <trkpt lat="42.3760164" lon="2.3015174">
        <ele>1278</ele>
        <time>2021-03-30T10:08:52Z</time>
      </trkpt>
      <trkpt lat="42.3760118" lon="2.3015122">
        <ele>1277.56994629</ele>
        <time>2021-03-30T10:08:53Z</time>
      </trkpt>
      <trkpt lat="42.3760044" lon="2.3015133">
        <ele>1277.54003906</ele>
        <time>2021-03-30T10:08:54Z</time>
      </trkpt>
      <trkpt lat="42.3759925" lon="2.3015202">
        <ele>1277.40002441</ele>
        <time>2021-03-30T10:08:55Z</time>
      </trkpt>
      <trkpt lat="42.3759938" lon="2.3015284">
        <ele>1277.07995605</ele>
        <time>2021-03-30T10:08:56Z</time>
      </trkpt>
      <trkpt lat="42.3760002" lon="2.3015251">
        <ele>1276.93005371</ele>
        <time>2021-03-30T10:08:57Z</time>
      </trkpt>
      <trkpt lat="42.3759837" lon="2.3015462">
        <ele>1276.66003418</ele>
        <time>2021-03-30T10:09:11Z</time>
      </trkpt>
      <trkpt lat="42.3759725" lon="2.3015599">
        <ele>1276.43005371</ele>
        <time>2021-03-30T10:09:12Z</time>
      </trkpt>
      <trkpt lat="42.375953" lon="2.3015885">
        <ele>1276</ele>
        <time>2021-03-30T10:09:13Z</time>
      </trkpt>
      <trkpt lat="42.37595" lon="2.3016021">
        <ele>1275.17004395</ele>
        <time>2021-03-30T10:09:14Z</time>
      </trkpt>
      <trkpt lat="42.3759463" lon="2.3016062">
        <ele>1274.81994629</ele>
        <time>2021-03-30T10:09:15Z</time>
      </trkpt>
      <trkpt lat="42.3759403" lon="2.3016158">
        <ele>1274.66003418</ele>
        <time>2021-03-30T10:09:16Z</time>
      </trkpt>
      <trkpt lat="42.3759367" lon="2.3016321">
        <ele>1274.38000488</ele>
        <time>2021-03-30T10:09:17Z</time>
      </trkpt>
      <trkpt lat="42.3759295" lon="2.3016382">
        <ele>1274.0300293</ele>
        <time>2021-03-30T10:09:18Z</time>
      </trkpt>
      <trkpt lat="42.3759235" lon="2.3016355">
        <ele>1273.7800293</ele>
        <time>2021-03-30T10:09:19Z</time>
      </trkpt>
      <trkpt lat="42.3759184" lon="2.301617">
        <ele>1273.69995117</ele>
        <time>2021-03-30T10:09:20Z</time>
      </trkpt>
      <trkpt lat="42.3759054" lon="2.3016024">
        <ele>1273.91003418</ele>
        <time>2021-03-30T10:09:21Z</time>
      </trkpt>
      <trkpt lat="42.3758932" lon="2.3015948">
        <ele>1273.95996094</ele>
        <time>2021-03-30T10:09:22Z</time>
      </trkpt>
      <trkpt lat="42.375888" lon="2.3015963">
        <ele>1273.89001465</ele>
        <time>2021-03-30T10:09:23Z</time>
      </trkpt>
      <trkpt lat="42.3758765" lon="2.3015857">
        <ele>1273.77001953</ele>
        <time>2021-03-30T10:09:24Z</time>
      </trkpt>
      <trkpt lat="42.3758608" lon="2.301582">
        <ele>1273.73999023</ele>
        <time>2021-03-30T10:09:25Z</time>
      </trkpt>
      <trkpt lat="42.3758452" lon="2.3015659">
        <ele>1273.55004883</ele>
        <time>2021-03-30T10:09:26Z</time>
      </trkpt>
      <trkpt lat="42.3758285" lon="2.3015507">
        <ele>1273.5300293</ele>
        <time>2021-03-30T10:09:27Z</time>
      </trkpt>
      <trkpt lat="42.3758079" lon="2.3015323">
        <ele>1273.58996582</ele>
        <time>2021-03-30T10:09:28Z</time>
      </trkpt>
      <trkpt lat="42.3757935" lon="2.3015226">
        <ele>1273.89001465</ele>
        <time>2021-03-30T10:09:29Z</time>
      </trkpt>
      <trkpt lat="42.3757696" lon="2.3015015">
        <ele>1274.07995605</ele>
        <time>2021-03-30T10:09:30Z</time>
      </trkpt>
      <trkpt lat="42.3757527" lon="2.3014789">
        <ele>1274.44995117</ele>
        <time>2021-03-30T10:09:31Z</time>
      </trkpt>
      <trkpt lat="42.3757314" lon="2.3014636">
        <ele>1274.84997559</ele>
        <time>2021-03-30T10:09:32Z</time>
      </trkpt>
      <trkpt lat="42.3757059" lon="2.3014489">
        <ele>1275.14001465</ele>
        <time>2021-03-30T10:09:33Z</time>
      </trkpt>
      <trkpt lat="42.3756857" lon="2.3014276">
        <ele>1275.41003418</ele>
        <time>2021-03-30T10:09:34Z</time>
      </trkpt>
      <trkpt lat="42.3756657" lon="2.3014099">
        <ele>1275.79003906</ele>
        <time>2021-03-30T10:09:35Z</time>
      </trkpt>
      <trkpt lat="42.3756505" lon="2.3013952">
        <ele>1276.11999512</ele>
        <time>2021-03-30T10:09:36Z</time>
      </trkpt>
      <trkpt lat="42.3756401" lon="2.3013758">
        <ele>1276.39001465</ele>
        <time>2021-03-30T10:09:37Z</time>
      </trkpt>
      <trkpt lat="42.3756265" lon="2.3013576">
        <ele>1276.72998047</ele>
        <time>2021-03-30T10:09:38Z</time>
      </trkpt>
      <trkpt lat="42.3756136" lon="2.3013285">
        <ele>1277.06994629</ele>
        <time>2021-03-30T10:09:39Z</time>
      </trkpt>
      <trkpt lat="42.375594" lon="2.3013012">
        <ele>1277.57995605</ele>
        <time>2021-03-30T10:09:40Z</time>
      </trkpt>
      <trkpt lat="42.375579" lon="2.3012749">
        <ele>1278.06994629</ele>
        <time>2021-03-30T10:09:41Z</time>
      </trkpt>
      <trkpt lat="42.3755508" lon="2.3012504">
        <ele>1278.55004883</ele>
        <time>2021-03-30T10:09:42Z</time>
      </trkpt>
      <trkpt lat="42.3755199" lon="2.3012255">
        <ele>1278.93005371</ele>
        <time>2021-03-30T10:09:43Z</time>
      </trkpt>
      <trkpt lat="42.3755016" lon="2.3012082">
        <ele>1278.85998535</ele>
        <time>2021-03-30T10:09:44Z</time>
      </trkpt>
      <trkpt lat="42.3754909" lon="2.3011963">
        <ele>1278.83996582</ele>
        <time>2021-03-30T10:09:45Z</time>
      </trkpt>
      <trkpt lat="42.3754697" lon="2.3011879">
        <ele>1278.85998535</ele>
        <time>2021-03-30T10:09:46Z</time>
      </trkpt>
      <trkpt lat="42.37545" lon="2.3011802">
        <ele>1278.65002441</ele>
        <time>2021-03-30T10:09:47Z</time>
      </trkpt>
      <trkpt lat="42.3754156" lon="2.3012128">
        <ele>1277.23999023</ele>
        <time>2021-03-30T10:09:56Z</time>
      </trkpt>
      <trkpt lat="42.3754179" lon="2.3012171">
        <ele>1277.19995117</ele>
        <time>2021-03-30T10:09:57Z</time>
      </trkpt>
      <trkpt lat="42.3754212" lon="2.3012134">
        <ele>1277.16003418</ele>
        <time>2021-03-30T10:09:58Z</time>
      </trkpt>
      <trkpt lat="42.3754316" lon="2.3012157">
        <ele>1277.27001953</ele>
        <time>2021-03-30T10:09:59Z</time>
      </trkpt>
      <trkpt lat="42.3754358" lon="2.3012166">
        <ele>1277.41003418</ele>
        <time>2021-03-30T10:10:00Z</time>
      </trkpt>
      <trkpt lat="42.3754484" lon="2.3012102">
        <ele>1277.85998535</ele>
        <time>2021-03-30T10:11:03Z</time>
      </trkpt>
      <trkpt lat="42.3754494" lon="2.3012129">
        <ele>1277.83996582</ele>
        <time>2021-03-30T10:11:04Z</time>
      </trkpt>
      <trkpt lat="42.3754423" lon="2.3012116">
        <ele>1277.81005859</ele>
        <time>2021-03-30T10:11:05Z</time>
      </trkpt>
      <trkpt lat="42.3754407" lon="2.3012109">
        <ele>1277.70996094</ele>
        <time>2021-03-30T10:11:06Z</time>
      </trkpt>
      <trkpt lat="42.3754583" lon="2.3012162">
        <ele>1277.93994141</ele>
        <time>2021-03-30T10:11:08Z</time>
      </trkpt>
      <trkpt lat="42.375458" lon="2.3012227">
        <ele>1277.91003418</ele>
        <time>2021-03-30T10:11:09Z</time>
      </trkpt>
      <trkpt lat="42.3754601" lon="2.3012197">
        <ele>1277.80004883</ele>
        <time>2021-03-30T10:11:10Z</time>
      </trkpt>
      <trkpt lat="42.3754577" lon="2.3012214">
        <ele>1277.86999512</ele>
        <time>2021-03-30T10:11:11Z</time>
      </trkpt>
      <trkpt lat="42.3754561" lon="2.3012108">
        <ele>1277.81005859</ele>
        <time>2021-03-30T10:11:12Z</time>
      </trkpt>
      <trkpt lat="42.3754476" lon="2.3012211">
        <ele>1277.94995117</ele>
        <time>2021-03-30T10:11:13Z</time>
      </trkpt>
      <trkpt lat="42.3754424" lon="2.3012268">
        <ele>1277.66003418</ele>
        <time>2021-03-30T10:11:14Z</time>
      </trkpt>
      <trkpt lat="42.3753928" lon="2.3011756">
        <ele>1277.41003418</ele>
        <time>2021-03-30T10:12:50Z</time>
      </trkpt>
      <trkpt lat="42.3753926" lon="2.3011672">
        <ele>1277.44995117</ele>
        <time>2021-03-30T10:12:51Z</time>
      </trkpt>
      <trkpt lat="42.3753933" lon="2.3011537">
        <ele>1277.58996582</ele>
        <time>2021-03-30T10:12:52Z</time>
      </trkpt>
      <trkpt lat="42.3754061" lon="2.3011645">
        <ele>1277.82995605</ele>
        <time>2021-03-30T10:12:53Z</time>
      </trkpt>
      <trkpt lat="42.3754275" lon="2.3011761">
        <ele>1277.89001465</ele>
        <time>2021-03-30T10:12:54Z</time>
      </trkpt>
      <trkpt lat="42.3754265" lon="2.3011777">
        <ele>1278.06005859</ele>
        <time>2021-03-30T10:12:55Z</time>
      </trkpt>
      <trkpt lat="42.3754326" lon="2.3011824">
        <ele>1278.0300293</ele>
        <time>2021-03-30T10:12:56Z</time>
      </trkpt>
      <trkpt lat="42.3754316" lon="2.3011815">
        <ele>1278.05004883</ele>
        <time>2021-03-30T10:12:57Z</time>
      </trkpt>
      <trkpt lat="42.3754313" lon="2.3011857">
        <ele>1278.05004883</ele>
        <time>2021-03-30T10:12:58Z</time>
      </trkpt>
      <trkpt lat="42.3754307" lon="2.3011908">
        <ele>1277.97998047</ele>
        <time>2021-03-30T10:12:59Z</time>
      </trkpt>
      <trkpt lat="42.3754288" lon="2.301199">
        <ele>1277.88000488</ele>
        <time>2021-03-30T10:13:00Z</time>
      </trkpt>
      <trkpt lat="42.3754251" lon="2.3012095">
        <ele>1277.69995117</ele>
        <time>2021-03-30T10:13:01Z</time>
      </trkpt>
      <trkpt lat="42.3754144" lon="2.3012149">
        <ele>1277.44995117</ele>
        <time>2021-03-30T10:13:02Z</time>
      </trkpt>
      <trkpt lat="42.3753931" lon="2.3012489">
        <ele>1276.40002441</ele>
        <time>2021-03-30T10:13:05Z</time>
      </trkpt>
      <trkpt lat="42.3753818" lon="2.301269">
        <ele>1276.15002441</ele>
        <time>2021-03-30T10:13:06Z</time>
      </trkpt>
      <trkpt lat="42.3753715" lon="2.3012869">
        <ele>1275.61999512</ele>
        <time>2021-03-30T10:13:07Z</time>
      </trkpt>
      <trkpt lat="42.375358" lon="2.3013012">
        <ele>1275.09997559</ele>
        <time>2021-03-30T10:13:08Z</time>
      </trkpt>
      <trkpt lat="42.3753456" lon="2.3013106">
        <ele>1274.58996582</ele>
        <time>2021-03-30T10:13:09Z</time>
      </trkpt>
      <trkpt lat="42.3753326" lon="2.3013225">
        <ele>1274.18005371</ele>
        <time>2021-03-30T10:13:10Z</time>
      </trkpt>
      <trkpt lat="42.3753226" lon="2.301335">
        <ele>1273.73999023</ele>
        <time>2021-03-30T10:13:11Z</time>
      </trkpt>
      <trkpt lat="42.37531" lon="2.3013482">
        <ele>1273.31994629</ele>
        <time>2021-03-30T10:13:12Z</time>
      </trkpt>
      <trkpt lat="42.3752979" lon="2.3013543">
        <ele>1272.85998535</ele>
        <time>2021-03-30T10:13:13Z</time>
      </trkpt>
      <trkpt lat="42.3752884" lon="2.3013541">
        <ele>1272.52001953</ele>
        <time>2021-03-30T10:13:14Z</time>
      </trkpt>
      <trkpt lat="42.3752846" lon="2.3013568">
        <ele>1272.32995605</ele>
        <time>2021-03-30T10:13:15Z</time>
      </trkpt>
      <trkpt lat="42.3752791" lon="2.3013571">
        <ele>1272.19995117</ele>
        <time>2021-03-30T10:13:16Z</time>
      </trkpt>
      <trkpt lat="42.3752703" lon="2.3013588">
        <ele>1272.09997559</ele>
        <time>2021-03-30T10:13:17Z</time>
      </trkpt>
      <trkpt lat="42.3752631" lon="2.3013596">
        <ele>1271.92004395</ele>
        <time>2021-03-30T10:13:18Z</time>
      </trkpt>
      <trkpt lat="42.3752598" lon="2.3013674">
        <ele>1271.77001953</ele>
        <time>2021-03-30T10:13:19Z</time>
      </trkpt>
      <trkpt lat="42.3752578" lon="2.3013774">
        <ele>1271.56994629</ele>
        <time>2021-03-30T10:13:20Z</time>
      </trkpt>
      <trkpt lat="42.3752573" lon="2.3013761">
        <ele>1271.34997559</ele>
        <time>2021-03-30T10:13:21Z</time>
      </trkpt>
      <trkpt lat="42.3752551" lon="2.3013824">
        <ele>1271.33996582</ele>
        <time>2021-03-30T10:13:22Z</time>
      </trkpt>
      <trkpt lat="42.3752515" lon="2.3013827">
        <ele>1271.19995117</ele>
        <time>2021-03-30T10:13:23Z</time>
      </trkpt>
      <trkpt lat="42.3752499" lon="2.3013847">
        <ele>1271.13000488</ele>
        <time>2021-03-30T10:13:24Z</time>
      </trkpt>
      <trkpt lat="42.3752378" lon="2.3013859">
        <ele>1270.89001465</ele>
        <time>2021-03-30T10:13:26Z</time>
      </trkpt>
      <trkpt lat="42.3752338" lon="2.3013847">
        <ele>1270.81994629</ele>
        <time>2021-03-30T10:13:27Z</time>
      </trkpt>
      <trkpt lat="42.3752333" lon="2.3013914">
        <ele>1270.77001953</ele>
        <time>2021-03-30T10:13:28Z</time>
      </trkpt>
      <trkpt lat="42.3752287" lon="2.3013886">
        <ele>1270.65002441</ele>
        <time>2021-03-30T10:13:29Z</time>
      </trkpt>
      <trkpt lat="42.3752249" lon="2.3013963">
        <ele>1270.59997559</ele>
        <time>2021-03-30T10:13:30Z</time>
      </trkpt>
      <trkpt lat="42.3752202" lon="2.3014081">
        <ele>1270.43005371</ele>
        <time>2021-03-30T10:13:31Z</time>
      </trkpt>
      <trkpt lat="42.3752146" lon="2.3014264">
        <ele>1270.18994141</ele>
        <time>2021-03-30T10:13:32Z</time>
      </trkpt>
      <trkpt lat="42.3752073" lon="2.3014565">
        <ele>1269.83996582</ele>
        <time>2021-03-30T10:13:33Z</time>
      </trkpt>
      <trkpt lat="42.3752017" lon="2.3014755">
        <ele>1269.33996582</ele>
        <time>2021-03-30T10:13:34Z</time>
      </trkpt>
      <trkpt lat="42.3751941" lon="2.3014865">
        <ele>1268.98999023</ele>
        <time>2021-03-30T10:13:35Z</time>
      </trkpt>
      <trkpt lat="42.3751877" lon="2.3015011">
        <ele>1268.75</ele>
        <time>2021-03-30T10:13:36Z</time>
      </trkpt>
      <trkpt lat="42.3751827" lon="2.3015163">
        <ele>1268.48999023</ele>
        <time>2021-03-30T10:13:37Z</time>
      </trkpt>
      <trkpt lat="42.3751779" lon="2.3015331">
        <ele>1268.26000977</ele>
        <time>2021-03-30T10:13:38Z</time>
      </trkpt>
      <trkpt lat="42.3751773" lon="2.3015386">
        <ele>1268.01000977</ele>
        <time>2021-03-30T10:13:39Z</time>
      </trkpt>
      <trkpt lat="42.3751763" lon="2.3015411">
        <ele>1267.93005371</ele>
        <time>2021-03-30T10:13:40Z</time>
      </trkpt>
      <trkpt lat="42.3751732" lon="2.3015442">
        <ele>1267.89001465</ele>
        <time>2021-03-30T10:13:41Z</time>
      </trkpt>
      <trkpt lat="42.3751684" lon="2.3015616">
        <ele>1267.82995605</ele>
        <time>2021-03-30T10:13:42Z</time>
      </trkpt>
      <trkpt lat="42.3751633" lon="2.3015777">
        <ele>1267.60998535</ele>
        <time>2021-03-30T10:13:43Z</time>
      </trkpt>
      <trkpt lat="42.375163" lon="2.3015873">
        <ele>1267.41003418</ele>
        <time>2021-03-30T10:13:44Z</time>
      </trkpt>
      <trkpt lat="42.3751599" lon="2.3016011">
        <ele>1267.29003906</ele>
        <time>2021-03-30T10:13:45Z</time>
      </trkpt>
      <trkpt lat="42.3751532" lon="2.301618">
        <ele>1267.13000488</ele>
        <time>2021-03-30T10:13:46Z</time>
      </trkpt>
      <trkpt lat="42.3751519" lon="2.3016419">
        <ele>1266.93994141</ele>
        <time>2021-03-30T10:13:47Z</time>
      </trkpt>
      <trkpt lat="42.3751446" lon="2.3016491">
        <ele>1266.69995117</ele>
        <time>2021-03-30T10:13:48Z</time>
      </trkpt>
      <trkpt lat="42.3751391" lon="2.3016513">
        <ele>1266.60998535</ele>
        <time>2021-03-30T10:13:49Z</time>
      </trkpt>
      <trkpt lat="42.3751299" lon="2.3016615">
        <ele>1266.56994629</ele>
        <time>2021-03-30T10:13:50Z</time>
      </trkpt>
      <trkpt lat="42.3751263" lon="2.3016653">
        <ele>1266.47998047</ele>
        <time>2021-03-30T10:13:51Z</time>
      </trkpt>
      <trkpt lat="42.3751288" lon="2.3016747">
        <ele>1266.44995117</ele>
        <time>2021-03-30T10:13:52Z</time>
      </trkpt>
      <trkpt lat="42.3751295" lon="2.3016948">
        <ele>1266.35998535</ele>
        <time>2021-03-30T10:13:53Z</time>
      </trkpt>
      <trkpt lat="42.3751303" lon="2.3017056">
        <ele>1266.18005371</ele>
        <time>2021-03-30T10:13:54Z</time>
      </trkpt>
      <trkpt lat="42.3751336" lon="2.301727">
        <ele>1266.06994629</ele>
        <time>2021-03-30T10:13:55Z</time>
      </trkpt>
      <trkpt lat="42.3751285" lon="2.3017503">
        <ele>1265.88000488</ele>
        <time>2021-03-30T10:13:56Z</time>
      </trkpt>
      <trkpt lat="42.37513" lon="2.3017692">
        <ele>1265.64001465</ele>
        <time>2021-03-30T10:13:57Z</time>
      </trkpt>
      <trkpt lat="42.3751171" lon="2.3017768">
        <ele>1265.45996094</ele>
        <time>2021-03-30T10:13:58Z</time>
      </trkpt>
      <trkpt lat="42.3751126" lon="2.301787">
        <ele>1265.29003906</ele>
        <time>2021-03-30T10:13:59Z</time>
      </trkpt>
      <trkpt lat="42.3751051" lon="2.3017924">
        <ele>1265.15002441</ele>
        <time>2021-03-30T10:14:00Z</time>
      </trkpt>
      <trkpt lat="42.3750958" lon="2.3018202">
        <ele>1265.02001953</ele>
        <time>2021-03-30T10:14:01Z</time>
      </trkpt>
      <trkpt lat="42.3750917" lon="2.3018387">
        <ele>1264.64001465</ele>
        <time>2021-03-30T10:14:02Z</time>
      </trkpt>
      <trkpt lat="42.3750901" lon="2.3018433">
        <ele>1264.36999512</ele>
        <time>2021-03-30T10:14:03Z</time>
      </trkpt>
      <trkpt lat="42.3750913" lon="2.301849">
        <ele>1264.27001953</ele>
        <time>2021-03-30T10:14:04Z</time>
      </trkpt>
      <trkpt lat="42.3750898" lon="2.3018875">
        <ele>1263.81005859</ele>
        <time>2021-03-30T10:14:12Z</time>
      </trkpt>
      <trkpt lat="42.3750853" lon="2.3018996">
        <ele>1263.7199707</ele>
        <time>2021-03-30T10:14:13Z</time>
      </trkpt>
      <trkpt lat="42.3750787" lon="2.301907">
        <ele>1263.52001953</ele>
        <time>2021-03-30T10:14:14Z</time>
      </trkpt>
      <trkpt lat="42.3750685" lon="2.3019176">
        <ele>1263.31994629</ele>
        <time>2021-03-30T10:14:15Z</time>
      </trkpt>
      <trkpt lat="42.3750573" lon="2.3019266">
        <ele>1263.02001953</ele>
        <time>2021-03-30T10:14:16Z</time>
      </trkpt>
      <trkpt lat="42.375048" lon="2.3019377">
        <ele>1262.70996094</ele>
        <time>2021-03-30T10:14:17Z</time>
      </trkpt>
      <trkpt lat="42.3750512" lon="2.3019363">
        <ele>1262.39001465</ele>
        <time>2021-03-30T10:14:18Z</time>
      </trkpt>
      <trkpt lat="42.3750509" lon="2.3019434">
        <ele>1262.43005371</ele>
        <time>2021-03-30T10:14:19Z</time>
      </trkpt>
      <trkpt lat="42.3750495" lon="2.3019453">
        <ele>1262.32995605</ele>
        <time>2021-03-30T10:14:20Z</time>
      </trkpt>
      <trkpt lat="42.3750493" lon="2.3019571">
        <ele>1262.2800293</ele>
        <time>2021-03-30T10:14:21Z</time>
      </trkpt>
      <trkpt lat="42.375051" lon="2.301976">
        <ele>1262.23999023</ele>
        <time>2021-03-30T10:14:22Z</time>
      </trkpt>
      <trkpt lat="42.3750542" lon="2.3019982">
        <ele>1262.19995117</ele>
        <time>2021-03-30T10:14:23Z</time>
      </trkpt>
      <trkpt lat="42.3750532" lon="2.3020115">
        <ele>1262.18005371</ele>
        <time>2021-03-30T10:14:24Z</time>
      </trkpt>
      <trkpt lat="42.3750533" lon="2.3020256">
        <ele>1262.11999512</ele>
        <time>2021-03-30T10:14:25Z</time>
      </trkpt>
      <trkpt lat="42.3750515" lon="2.3020398">
        <ele>1262.06994629</ele>
        <time>2021-03-30T10:14:26Z</time>
      </trkpt>
      <trkpt lat="42.3750527" lon="2.3020482">
        <ele>1262</ele>
        <time>2021-03-30T10:14:27Z</time>
      </trkpt>
      <trkpt lat="42.3750466" lon="2.3020677">
        <ele>1261.97998047</ele>
        <time>2021-03-30T10:14:28Z</time>
      </trkpt>
      <trkpt lat="42.3750384" lon="2.3020813">
        <ele>1261.85998535</ele>
        <time>2021-03-30T10:14:29Z</time>
      </trkpt>
      <trkpt lat="42.3750324" lon="2.3020943">
        <ele>1261.75</ele>
        <time>2021-03-30T10:14:30Z</time>
      </trkpt>
      <trkpt lat="42.3750233" lon="2.3021018">
        <ele>1261.66003418</ele>
        <time>2021-03-30T10:14:31Z</time>
      </trkpt>
      <trkpt lat="42.3750136" lon="2.3021096">
        <ele>1261.56994629</ele>
        <time>2021-03-30T10:14:32Z</time>
      </trkpt>
      <trkpt lat="42.3750049" lon="2.3021063">
        <ele>1261.48999023</ele>
        <time>2021-03-30T10:14:33Z</time>
      </trkpt>
      <trkpt lat="42.3749992" lon="2.3021002">
        <ele>1261.42004395</ele>
        <time>2021-03-30T10:14:34Z</time>
      </trkpt>
      <trkpt lat="42.3749906" lon="2.3020923">
        <ele>1261.38000488</ele>
        <time>2021-03-30T10:14:35Z</time>
      </trkpt>
      <trkpt lat="42.3749825" lon="2.3020954">
        <ele>1261.30004883</ele>
        <time>2021-03-30T10:14:36Z</time>
      </trkpt>
      <trkpt lat="42.374964" lon="2.3021003">
        <ele>1261.2199707</ele>
        <time>2021-03-30T10:14:37Z</time>
      </trkpt>
      <trkpt lat="42.3749683" lon="2.3020896">
        <ele>1261.0300293</ele>
        <time>2021-03-30T10:14:38Z</time>
      </trkpt>
      <trkpt lat="42.3749014" lon="2.3020977">
        <ele>1260.38000488</ele>
        <time>2021-03-30T10:14:56Z</time>
      </trkpt>
      <trkpt lat="42.3748792" lon="2.3020929">
        <ele>1260.39001465</ele>
        <time>2021-03-30T10:14:57Z</time>
      </trkpt>
      <trkpt lat="42.3748549" lon="2.3020949">
        <ele>1260.2199707</ele>
        <time>2021-03-30T10:14:58Z</time>
      </trkpt>
      <trkpt lat="42.3748306" lon="2.3020817">
        <ele>1259.97998047</ele>
        <time>2021-03-30T10:14:59Z</time>
      </trkpt>
      <trkpt lat="42.3748035" lon="2.3020708">
        <ele>1259.86999512</ele>
        <time>2021-03-30T10:15:00Z</time>
      </trkpt>
      <trkpt lat="42.3747694" lon="2.3020552">
        <ele>1259.76000977</ele>
        <time>2021-03-30T10:15:01Z</time>
      </trkpt>
      <trkpt lat="42.3747392" lon="2.3020437">
        <ele>1259.70996094</ele>
        <time>2021-03-30T10:15:02Z</time>
      </trkpt>
      <trkpt lat="42.3747059" lon="2.302028">
        <ele>1259.68994141</ele>
        <time>2021-03-30T10:15:03Z</time>
      </trkpt>
      <trkpt lat="42.3746852" lon="2.3020191">
        <ele>1259.65002441</ele>
        <time>2021-03-30T10:15:04Z</time>
      </trkpt>
      <trkpt lat="42.3746681" lon="2.3020154">
        <ele>1259.54003906</ele>
        <time>2021-03-30T10:15:05Z</time>
      </trkpt>
      <trkpt lat="42.3746551" lon="2.30202">
        <ele>1259.36999512</ele>
        <time>2021-03-30T10:15:06Z</time>
      </trkpt>
      <trkpt lat="42.3746429" lon="2.3020217">
        <ele>1259.14001465</ele>
        <time>2021-03-30T10:15:07Z</time>
      </trkpt>
      <trkpt lat="42.3746269" lon="2.3020285">
        <ele>1258.94995117</ele>
        <time>2021-03-30T10:15:08Z</time>
      </trkpt>
      <trkpt lat="42.3746062" lon="2.3020473">
        <ele>1258.67004395</ele>
        <time>2021-03-30T10:15:09Z</time>
      </trkpt>
      <trkpt lat="42.3745959" lon="2.3020652">
        <ele>1258.22998047</ele>
        <time>2021-03-30T10:15:10Z</time>
      </trkpt>
      <trkpt lat="42.3745864" lon="2.3020723">
        <ele>1257.92004395</ele>
        <time>2021-03-30T10:15:11Z</time>
      </trkpt>
      <trkpt lat="42.3745786" lon="2.3020808">
        <ele>1257.73999023</ele>
        <time>2021-03-30T10:15:12Z</time>
      </trkpt>
      <trkpt lat="42.3745831" lon="2.3020833">
        <ele>1257.58996582</ele>
        <time>2021-03-30T10:15:13Z</time>
      </trkpt>
      <trkpt lat="42.3745787" lon="2.3020943">
        <ele>1257.58996582</ele>
        <time>2021-03-30T10:15:14Z</time>
      </trkpt>
      <trkpt lat="42.374573" lon="2.3020873">
        <ele>1257.40002441</ele>
        <time>2021-03-30T10:15:17Z</time>
      </trkpt>
      <trkpt lat="42.3745623" lon="2.3020872">
        <ele>1257.45996094</ele>
        <time>2021-03-30T10:15:18Z</time>
      </trkpt>
      <trkpt lat="42.3745368" lon="2.3020944">
        <ele>1257.38000488</ele>
        <time>2021-03-30T10:15:19Z</time>
      </trkpt>
      <trkpt lat="42.3745" lon="2.3020865">
        <ele>1257.13000488</ele>
        <time>2021-03-30T10:15:20Z</time>
      </trkpt>
      <trkpt lat="42.3744554" lon="2.3020642">
        <ele>1256.84997559</ele>
        <time>2021-03-30T10:15:21Z</time>
      </trkpt>
      <trkpt lat="42.3744179" lon="2.3020356">
        <ele>1256.47998047</ele>
        <time>2021-03-30T10:15:22Z</time>
      </trkpt>
      <trkpt lat="42.3743674" lon="2.3019998">
        <ele>1256.33996582</ele>
        <time>2021-03-30T10:15:23Z</time>
      </trkpt>
      <trkpt lat="42.3743196" lon="2.3019568">
        <ele>1256.32995605</ele>
        <time>2021-03-30T10:15:24Z</time>
      </trkpt>
      <trkpt lat="42.3742829" lon="2.3019278">
        <ele>1256.32995605</ele>
        <time>2021-03-30T10:15:25Z</time>
      </trkpt>
      <trkpt lat="42.3742334" lon="2.3018906">
        <ele>1256.43994141</ele>
        <time>2021-03-30T10:15:26Z</time>
      </trkpt>
      <trkpt lat="42.3741764" lon="2.3018478">
        <ele>1256.55004883</ele>
        <time>2021-03-30T10:15:27Z</time>
      </trkpt>
      <trkpt lat="42.3741243" lon="2.3018068">
        <ele>1256.40002441</ele>
        <time>2021-03-30T10:15:28Z</time>
      </trkpt>
      <trkpt lat="42.3740641" lon="2.3017674">
        <ele>1255.97998047</ele>
        <time>2021-03-30T10:15:29Z</time>
      </trkpt>
      <trkpt lat="42.3739974" lon="2.3017201">
        <ele>1255.68005371</ele>
        <time>2021-03-30T10:15:30Z</time>
      </trkpt>
      <trkpt lat="42.3739312" lon="2.3016855">
        <ele>1255.72998047</ele>
        <time>2021-03-30T10:15:31Z</time>
      </trkpt>
      <trkpt lat="42.3738606" lon="2.3016478">
        <ele>1256</ele>
        <time>2021-03-30T10:15:32Z</time>
      </trkpt>
      <trkpt lat="42.3737883" lon="2.3016009">
        <ele>1255.85998535</ele>
        <time>2021-03-30T10:15:33Z</time>
      </trkpt>
      <trkpt lat="42.3737088" lon="2.3015643">
        <ele>1255.02001953</ele>
        <time>2021-03-30T10:15:34Z</time>
      </trkpt>
      <trkpt lat="42.3736377" lon="2.3015133">
        <ele>1254.32995605</ele>
        <time>2021-03-30T10:15:35Z</time>
      </trkpt>
      <trkpt lat="42.3735654" lon="2.3014632">
        <ele>1254.29003906</ele>
        <time>2021-03-30T10:15:36Z</time>
      </trkpt>
      <trkpt lat="42.3734913" lon="2.3014263">
        <ele>1254.35998535</ele>
        <time>2021-03-30T10:15:37Z</time>
      </trkpt>
      <trkpt lat="42.3734181" lon="2.3013741">
        <ele>1253.81994629</ele>
        <time>2021-03-30T10:15:38Z</time>
      </trkpt>
      <trkpt lat="42.3733506" lon="2.3013185">
        <ele>1253.33996582</ele>
        <time>2021-03-30T10:15:39Z</time>
      </trkpt>
      <trkpt lat="42.3732847" lon="2.301258">
        <ele>1252.77001953</ele>
        <time>2021-03-30T10:15:40Z</time>
      </trkpt>
      <trkpt lat="42.3732335" lon="2.3011911">
        <ele>1252.38000488</ele>
        <time>2021-03-30T10:15:41Z</time>
      </trkpt>
      <trkpt lat="42.3731869" lon="2.301117">
        <ele>1252.13000488</ele>
        <time>2021-03-30T10:15:42Z</time>
      </trkpt>
      <trkpt lat="42.3731551" lon="2.3010251">
        <ele>1251.9699707</ele>
        <time>2021-03-30T10:15:43Z</time>
      </trkpt>
      <trkpt lat="42.3731311" lon="2.3009278">
        <ele>1251.93005371</ele>
        <time>2021-03-30T10:15:44Z</time>
      </trkpt>
      <trkpt lat="42.3731082" lon="2.3008377">
        <ele>1251.9699707</ele>
        <time>2021-03-30T10:15:45Z</time>
      </trkpt>
      <trkpt lat="42.3730911" lon="2.3007504">
        <ele>1252</ele>
        <time>2021-03-30T10:15:46Z</time>
      </trkpt>
      <trkpt lat="42.3730804" lon="2.3006649">
        <ele>1251.98999023</ele>
        <time>2021-03-30T10:15:47Z</time>
      </trkpt>
      <trkpt lat="42.3730849" lon="2.3005885">
        <ele>1251.95996094</ele>
        <time>2021-03-30T10:15:48Z</time>
      </trkpt>
      <trkpt lat="42.3730776" lon="2.3005129">
        <ele>1251.93994141</ele>
        <time>2021-03-30T10:15:49Z</time>
      </trkpt>
      <trkpt lat="42.3730502" lon="2.3004463">
        <ele>1251.91003418</ele>
        <time>2021-03-30T10:15:50Z</time>
      </trkpt>
      <trkpt lat="42.3730049" lon="2.3003981">
        <ele>1251.81994629</ele>
        <time>2021-03-30T10:15:51Z</time>
      </trkpt>
      <trkpt lat="42.3729539" lon="2.3003996">
        <ele>1251.66003418</ele>
        <time>2021-03-30T10:15:52Z</time>
      </trkpt>
      <trkpt lat="42.3729027" lon="2.3004234">
        <ele>1251.42004395</ele>
        <time>2021-03-30T10:15:53Z</time>
      </trkpt>
      <trkpt lat="42.3728582" lon="2.3004654">
        <ele>1251.09997559</ele>
        <time>2021-03-30T10:15:54Z</time>
      </trkpt>
      <trkpt lat="42.3728116" lon="2.300493">
        <ele>1250.72998047</ele>
        <time>2021-03-30T10:15:55Z</time>
      </trkpt>
      <trkpt lat="42.3727578" lon="2.3004946">
        <ele>1250.31005859</ele>
        <time>2021-03-30T10:15:56Z</time>
      </trkpt>
      <trkpt lat="42.3727003" lon="2.3004807">
        <ele>1249.90002441</ele>
        <time>2021-03-30T10:15:57Z</time>
      </trkpt>
      <trkpt lat="42.3726406" lon="2.3004744">
        <ele>1249.59997559</ele>
        <time>2021-03-30T10:15:58Z</time>
      </trkpt>
      <trkpt lat="42.3725778" lon="2.3004666">
        <ele>1249.41003418</ele>
        <time>2021-03-30T10:15:59Z</time>
      </trkpt>
      <trkpt lat="42.3725139" lon="2.3004485">
        <ele>1249.32995605</ele>
        <time>2021-03-30T10:16:00Z</time>
      </trkpt>
      <trkpt lat="42.3724548" lon="2.3004206">
        <ele>1249.30004883</ele>
        <time>2021-03-30T10:16:01Z</time>
      </trkpt>
      <trkpt lat="42.3724061" lon="2.300383">
        <ele>1249.32995605</ele>
        <time>2021-03-30T10:16:02Z</time>
      </trkpt>
      <trkpt lat="42.3723578" lon="2.3003413">
        <ele>1249.40002441</ele>
        <time>2021-03-30T10:16:03Z</time>
      </trkpt>
      <trkpt lat="42.3723336" lon="2.3002709">
        <ele>1252.77001953</ele>
        <time>2021-03-30T10:16:04Z</time>
      </trkpt>
      <trkpt lat="42.3722992" lon="2.3002017">
        <ele>1252.25</ele>
        <time>2021-03-30T10:16:05Z</time>
      </trkpt>
      <trkpt lat="42.3722563" lon="2.3001217">
        <ele>1252.5</ele>
        <time>2021-03-30T10:16:06Z</time>
      </trkpt>
      <trkpt lat="42.3722107" lon="2.3000394">
        <ele>1252.55004883</ele>
        <time>2021-03-30T10:16:07Z</time>
      </trkpt>
      <trkpt lat="42.3721715" lon="2.2999568">
        <ele>1252.45996094</ele>
        <time>2021-03-30T10:16:08Z</time>
      </trkpt>
      <trkpt lat="42.3721232" lon="2.2998676">
        <ele>1252.19995117</ele>
        <time>2021-03-30T10:16:09Z</time>
      </trkpt>
      <trkpt lat="42.3720721" lon="2.2997947">
        <ele>1251.89001465</ele>
        <time>2021-03-30T10:16:10Z</time>
      </trkpt>
      <trkpt lat="42.3720208" lon="2.2997167">
        <ele>1251.58996582</ele>
        <time>2021-03-30T10:16:11Z</time>
      </trkpt>
      <trkpt lat="42.3719655" lon="2.2996332">
        <ele>1251.30004883</ele>
        <time>2021-03-30T10:16:12Z</time>
      </trkpt>
      <trkpt lat="42.3719" lon="2.2995564">
        <ele>1250.98999023</ele>
        <time>2021-03-30T10:16:13Z</time>
      </trkpt>
      <trkpt lat="42.3718318" lon="2.2995049">
        <ele>1250.61999512</ele>
        <time>2021-03-30T10:16:14Z</time>
      </trkpt>
      <trkpt lat="42.3717493" lon="2.2994652">
        <ele>1250.18994141</ele>
        <time>2021-03-30T10:16:15Z</time>
      </trkpt>
      <trkpt lat="42.3716653" lon="2.2994292">
        <ele>1249.73999023</ele>
        <time>2021-03-30T10:16:16Z</time>
      </trkpt>
      <trkpt lat="42.3715717" lon="2.299421">
        <ele>1249.2800293</ele>
        <time>2021-03-30T10:16:17Z</time>
      </trkpt>
      <trkpt lat="42.3714865" lon="2.299411">
        <ele>1248.85998535</ele>
        <time>2021-03-30T10:16:18Z</time>
      </trkpt>
      <trkpt lat="42.371397" lon="2.2993922">
        <ele>1248.47998047</ele>
        <time>2021-03-30T10:16:19Z</time>
      </trkpt>
      <trkpt lat="42.3713186" lon="2.2993735">
        <ele>1248.10998535</ele>
        <time>2021-03-30T10:16:20Z</time>
      </trkpt>
      <trkpt lat="42.3712345" lon="2.2993484">
        <ele>1247.84997559</ele>
        <time>2021-03-30T10:16:21Z</time>
      </trkpt>
      <trkpt lat="42.3711611" lon="2.2992918">
        <ele>1247.67004395</ele>
        <time>2021-03-30T10:16:22Z</time>
      </trkpt>
      <trkpt lat="42.3710896" lon="2.2992377">
        <ele>1247.42004395</ele>
        <time>2021-03-30T10:16:23Z</time>
      </trkpt>
      <trkpt lat="42.3710224" lon="2.2991639">
        <ele>1247.06994629</ele>
        <time>2021-03-30T10:16:24Z</time>
      </trkpt>
      <trkpt lat="42.3709598" lon="2.2990745">
        <ele>1246.60998535</ele>
        <time>2021-03-30T10:16:25Z</time>
      </trkpt>
      <trkpt lat="42.3709051" lon="2.2989762">
        <ele>1246.2199707</ele>
        <time>2021-03-30T10:16:26Z</time>
      </trkpt>
      <trkpt lat="42.3708509" lon="2.2988747">
        <ele>1245.80004883</ele>
        <time>2021-03-30T10:16:27Z</time>
      </trkpt>
      <trkpt lat="42.3708048" lon="2.2987653">
        <ele>1245.31005859</ele>
        <time>2021-03-30T10:16:28Z</time>
      </trkpt>
      <trkpt lat="42.3707473" lon="2.2986619">
        <ele>1244.89001465</ele>
        <time>2021-03-30T10:16:29Z</time>
      </trkpt>
      <trkpt lat="42.3706857" lon="2.2985645">
        <ele>1244.52001953</ele>
        <time>2021-03-30T10:16:30Z</time>
      </trkpt>
      <trkpt lat="42.3706174" lon="2.2984726">
        <ele>1244.06994629</ele>
        <time>2021-03-30T10:16:31Z</time>
      </trkpt>
      <trkpt lat="42.3705339" lon="2.2983994">
        <ele>1243.51000977</ele>
        <time>2021-03-30T10:16:32Z</time>
      </trkpt>
      <trkpt lat="42.3704424" lon="2.2983367">
        <ele>1242.84997559</ele>
        <time>2021-03-30T10:16:33Z</time>
      </trkpt>
      <trkpt lat="42.3703479" lon="2.2982791">
        <ele>1242.15002441</ele>
        <time>2021-03-30T10:16:34Z</time>
      </trkpt>
      <trkpt lat="42.3702508" lon="2.2982162">
        <ele>1241.44995117</ele>
        <time>2021-03-30T10:16:35Z</time>
      </trkpt>
      <trkpt lat="42.3701528" lon="2.2981538">
        <ele>1240.90002441</ele>
        <time>2021-03-30T10:16:36Z</time>
      </trkpt>
      <trkpt lat="42.3700529" lon="2.2980875">
        <ele>1240.36999512</ele>
        <time>2021-03-30T10:16:37Z</time>
      </trkpt>
      <trkpt lat="42.3699529" lon="2.2980212">
        <ele>1239.91003418</ele>
        <time>2021-03-30T10:16:38Z</time>
      </trkpt>
      <trkpt lat="42.3698501" lon="2.297965">
        <ele>1239.41003418</ele>
        <time>2021-03-30T10:16:39Z</time>
      </trkpt>
      <trkpt lat="42.3697515" lon="2.2978965">
        <ele>1238.82995605</ele>
        <time>2021-03-30T10:16:40Z</time>
      </trkpt>
      <trkpt lat="42.3696556" lon="2.2978213">
        <ele>1238.14001465</ele>
        <time>2021-03-30T10:16:41Z</time>
      </trkpt>
      <trkpt lat="42.3695645" lon="2.2977373">
        <ele>1237.32995605</ele>
        <time>2021-03-30T10:16:42Z</time>
      </trkpt>
      <trkpt lat="42.3694709" lon="2.2976583">
        <ele>1236.48999023</ele>
        <time>2021-03-30T10:16:43Z</time>
      </trkpt>
      <trkpt lat="42.3693811" lon="2.2975753">
        <ele>1235.72998047</ele>
        <time>2021-03-30T10:16:44Z</time>
      </trkpt>
      <trkpt lat="42.3692954" lon="2.2974897">
        <ele>1235.08996582</ele>
        <time>2021-03-30T10:16:45Z</time>
      </trkpt>
      <trkpt lat="42.3692093" lon="2.2974045">
        <ele>1234.45996094</ele>
        <time>2021-03-30T10:16:46Z</time>
      </trkpt>
      <trkpt lat="42.369126" lon="2.2973158">
        <ele>1233.69995117</ele>
        <time>2021-03-30T10:16:47Z</time>
      </trkpt>
      <trkpt lat="42.3690375" lon="2.2972385">
        <ele>1232.81994629</ele>
        <time>2021-03-30T10:16:48Z</time>
      </trkpt>
      <trkpt lat="42.3689429" lon="2.2971762">
        <ele>1231.82995605</ele>
        <time>2021-03-30T10:16:49Z</time>
      </trkpt>
      <trkpt lat="42.3688439" lon="2.2971284">
        <ele>1230.86999512</ele>
        <time>2021-03-30T10:16:50Z</time>
      </trkpt>
      <trkpt lat="42.3687466" lon="2.2970735">
        <ele>1230.06994629</ele>
        <time>2021-03-30T10:16:51Z</time>
      </trkpt>
      <trkpt lat="42.3686491" lon="2.2970145">
        <ele>1229.44995117</ele>
        <time>2021-03-30T10:16:52Z</time>
      </trkpt>
      <trkpt lat="42.3685554" lon="2.2969471">
        <ele>1228.89001465</ele>
        <time>2021-03-30T10:16:53Z</time>
      </trkpt>
      <trkpt lat="42.3684656" lon="2.2968865">
        <ele>1228.38000488</ele>
        <time>2021-03-30T10:16:54Z</time>
      </trkpt>
      <trkpt lat="42.3683721" lon="2.2968309">
        <ele>1227.93005371</ele>
        <time>2021-03-30T10:16:55Z</time>
      </trkpt>
      <trkpt lat="42.3682762" lon="2.2967783">
        <ele>1227.45996094</ele>
        <time>2021-03-30T10:16:56Z</time>
      </trkpt>
      <trkpt lat="42.3681805" lon="2.2967327">
        <ele>1226.9699707</ele>
        <time>2021-03-30T10:16:57Z</time>
      </trkpt>
      <trkpt lat="42.3680846" lon="2.2966787">
        <ele>1226.54003906</ele>
        <time>2021-03-30T10:16:58Z</time>
      </trkpt>
      <trkpt lat="42.3679887" lon="2.2966248">
        <ele>1226.13000488</ele>
        <time>2021-03-30T10:16:59Z</time>
      </trkpt>
      <trkpt lat="42.3678939" lon="2.2965682">
        <ele>1225.81005859</ele>
        <time>2021-03-30T10:17:00Z</time>
      </trkpt>
      <trkpt lat="42.3677978" lon="2.2965081">
        <ele>1225.5</ele>
        <time>2021-03-30T10:17:01Z</time>
      </trkpt>
      <trkpt lat="42.3677028" lon="2.2964457">
        <ele>1225.09997559</ele>
        <time>2021-03-30T10:17:02Z</time>
      </trkpt>
      <trkpt lat="42.3676066" lon="2.296387">
        <ele>1224.59997559</ele>
        <time>2021-03-30T10:17:03Z</time>
      </trkpt>
      <trkpt lat="42.3675112" lon="2.2963257">
        <ele>1224.14001465</ele>
        <time>2021-03-30T10:17:04Z</time>
      </trkpt>
      <trkpt lat="42.367424" lon="2.2962487">
        <ele>1223.80004883</ele>
        <time>2021-03-30T10:17:05Z</time>
      </trkpt>
      <trkpt lat="42.3673368" lon="2.2961734">
        <ele>1223.34997559</ele>
        <time>2021-03-30T10:17:06Z</time>
      </trkpt>
      <trkpt lat="42.3672523" lon="2.2960972">
        <ele>1222.76000977</ele>
        <time>2021-03-30T10:17:07Z</time>
      </trkpt>
      <trkpt lat="42.3671699" lon="2.2960162">
        <ele>1222.07995605</ele>
        <time>2021-03-30T10:17:08Z</time>
      </trkpt>
      <trkpt lat="42.3670868" lon="2.2959352">
        <ele>1221.43994141</ele>
        <time>2021-03-30T10:17:09Z</time>
      </trkpt>
      <trkpt lat="42.3670026" lon="2.2958566">
        <ele>1220.88000488</ele>
        <time>2021-03-30T10:17:10Z</time>
      </trkpt>
      <trkpt lat="42.366916" lon="2.2957915">
        <ele>1220.38000488</ele>
        <time>2021-03-30T10:17:11Z</time>
      </trkpt>
      <trkpt lat="42.3668259" lon="2.2957375">
        <ele>1219.83996582</ele>
        <time>2021-03-30T10:17:12Z</time>
      </trkpt>
      <trkpt lat="42.3667357" lon="2.2956847">
        <ele>1219.31005859</ele>
        <time>2021-03-30T10:17:13Z</time>
      </trkpt>
      <trkpt lat="42.3666487" lon="2.2956256">
        <ele>1218.88000488</ele>
        <time>2021-03-30T10:17:14Z</time>
      </trkpt>
      <trkpt lat="42.3665633" lon="2.2955637">
        <ele>1218.55004883</ele>
        <time>2021-03-30T10:17:15Z</time>
      </trkpt>
      <trkpt lat="42.3664796" lon="2.2955007">
        <ele>1218.42004395</ele>
        <time>2021-03-30T10:17:16Z</time>
      </trkpt>
      <trkpt lat="42.3663934" lon="2.2954431">
        <ele>1218.23999023</ele>
        <time>2021-03-30T10:17:17Z</time>
      </trkpt>
      <trkpt lat="42.3663052" lon="2.2953926">
        <ele>1217.2800293</ele>
        <time>2021-03-30T10:17:18Z</time>
      </trkpt>
      <trkpt lat="42.3662185" lon="2.2953458">
        <ele>1216.35998535</ele>
        <time>2021-03-30T10:17:19Z</time>
      </trkpt>
      <trkpt lat="42.3661335" lon="2.2952914">
        <ele>1215.56994629</ele>
        <time>2021-03-30T10:17:20Z</time>
      </trkpt>
      <trkpt lat="42.3660515" lon="2.2952291">
        <ele>1214.88000488</ele>
        <time>2021-03-30T10:17:21Z</time>
      </trkpt>
      <trkpt lat="42.3659712" lon="2.2951646">
        <ele>1214.2800293</ele>
        <time>2021-03-30T10:17:22Z</time>
      </trkpt>
      <trkpt lat="42.3658911" lon="2.2950991">
        <ele>1213.75</ele>
        <time>2021-03-30T10:17:23Z</time>
      </trkpt>
      <trkpt lat="42.3658123" lon="2.2950309">
        <ele>1213.2800293</ele>
        <time>2021-03-30T10:17:24Z</time>
      </trkpt>
      <trkpt lat="42.3657349" lon="2.2949608">
        <ele>1212.88000488</ele>
        <time>2021-03-30T10:17:25Z</time>
      </trkpt>
      <trkpt lat="42.3656593" lon="2.2948878">
        <ele>1212.48999023</ele>
        <time>2021-03-30T10:17:26Z</time>
      </trkpt>
      <trkpt lat="42.3655856" lon="2.2948122">
        <ele>1212</ele>
        <time>2021-03-30T10:17:27Z</time>
      </trkpt>
      <trkpt lat="42.3655155" lon="2.2947323">
        <ele>1211.81994629</ele>
        <time>2021-03-30T10:17:28Z</time>
      </trkpt>
      <trkpt lat="42.3654423" lon="2.2946591">
        <ele>1211</ele>
        <time>2021-03-30T10:17:29Z</time>
      </trkpt>
      <trkpt lat="42.365368" lon="2.2945852">
        <ele>1210.31005859</ele>
        <time>2021-03-30T10:17:30Z</time>
      </trkpt>
      <trkpt lat="42.3652931" lon="2.2945148">
        <ele>1209.72998047</ele>
        <time>2021-03-30T10:17:31Z</time>
      </trkpt>
      <trkpt lat="42.3652208" lon="2.2944401">
        <ele>1209.16003418</ele>
        <time>2021-03-30T10:17:32Z</time>
      </trkpt>
      <trkpt lat="42.3651472" lon="2.2943699">
        <ele>1208.61999512</ele>
        <time>2021-03-30T10:17:33Z</time>
      </trkpt>
      <trkpt lat="42.365074" lon="2.2943019">
        <ele>1208.23999023</ele>
        <time>2021-03-30T10:17:34Z</time>
      </trkpt>
      <trkpt lat="42.365" lon="2.2942369">
        <ele>1207.92004395</ele>
        <time>2021-03-30T10:17:35Z</time>
      </trkpt>
      <trkpt lat="42.3649264" lon="2.2941707">
        <ele>1207.56994629</ele>
        <time>2021-03-30T10:17:36Z</time>
      </trkpt>
      <trkpt lat="42.364852" lon="2.2941088">
        <ele>1207.27001953</ele>
        <time>2021-03-30T10:17:37Z</time>
      </trkpt>
      <trkpt lat="42.3647801" lon="2.2940446">
        <ele>1207.08996582</ele>
        <time>2021-03-30T10:17:38Z</time>
      </trkpt>
      <trkpt lat="42.3647078" lon="2.2939843">
        <ele>1206.95996094</ele>
        <time>2021-03-30T10:17:39Z</time>
      </trkpt>
      <trkpt lat="42.3646387" lon="2.2939209">
        <ele>1206.80004883</ele>
        <time>2021-03-30T10:17:40Z</time>
      </trkpt>
      <trkpt lat="42.3645691" lon="2.2938597">
        <ele>1206.51000977</ele>
        <time>2021-03-30T10:17:41Z</time>
      </trkpt>
      <trkpt lat="42.3644923" lon="2.293815">
        <ele>1206.14001465</ele>
        <time>2021-03-30T10:17:42Z</time>
      </trkpt>
      <trkpt lat="42.3644133" lon="2.2937763">
        <ele>1205.80004883</ele>
        <time>2021-03-30T10:17:43Z</time>
      </trkpt>
      <trkpt lat="42.3643357" lon="2.29373">
        <ele>1205.4699707</ele>
        <time>2021-03-30T10:17:44Z</time>
      </trkpt>
      <trkpt lat="42.3642564" lon="2.2936875">
        <ele>1205.05004883</ele>
        <time>2021-03-30T10:17:45Z</time>
      </trkpt>
      <trkpt lat="42.3641797" lon="2.2936402">
        <ele>1204.90002441</ele>
        <time>2021-03-30T10:17:46Z</time>
      </trkpt>
      <trkpt lat="42.3641022" lon="2.2936004">
        <ele>1204.70996094</ele>
        <time>2021-03-30T10:17:47Z</time>
      </trkpt>
      <trkpt lat="42.3640261" lon="2.2935558">
        <ele>1203.93005371</ele>
        <time>2021-03-30T10:17:48Z</time>
      </trkpt>
      <trkpt lat="42.3639513" lon="2.2935082">
        <ele>1203.33996582</ele>
        <time>2021-03-30T10:17:49Z</time>
      </trkpt>
      <trkpt lat="42.3638746" lon="2.2934637">
        <ele>1202.89001465</ele>
        <time>2021-03-30T10:17:50Z</time>
      </trkpt>
      <trkpt lat="42.3637956" lon="2.2934198">
        <ele>1202.51000977</ele>
        <time>2021-03-30T10:17:51Z</time>
      </trkpt>
      <trkpt lat="42.3637192" lon="2.29337">
        <ele>1202.13000488</ele>
        <time>2021-03-30T10:17:52Z</time>
      </trkpt>
      <trkpt lat="42.3636416" lon="2.2933238">
        <ele>1201.66003418</ele>
        <time>2021-03-30T10:17:53Z</time>
      </trkpt>
      <trkpt lat="42.363566" lon="2.2932762">
        <ele>1201.08996582</ele>
        <time>2021-03-30T10:17:54Z</time>
      </trkpt>
      <trkpt lat="42.363491" lon="2.2932276">
        <ele>1200.65002441</ele>
        <time>2021-03-30T10:17:55Z</time>
      </trkpt>
      <trkpt lat="42.3634122" lon="2.2931831">
        <ele>1200.35998535</ele>
        <time>2021-03-30T10:17:56Z</time>
      </trkpt>
      <trkpt lat="42.3633318" lon="2.2931378">
        <ele>1200.16003418</ele>
        <time>2021-03-30T10:17:57Z</time>
      </trkpt>
      <trkpt lat="42.3632472" lon="2.2931083">
        <ele>1199.95996094</ele>
        <time>2021-03-30T10:17:58Z</time>
      </trkpt>
      <trkpt lat="42.3631616" lon="2.2930829">
        <ele>1199.76000977</ele>
        <time>2021-03-30T10:17:59Z</time>
      </trkpt>
      <trkpt lat="42.3630751" lon="2.2930585">
        <ele>1199.51000977</ele>
        <time>2021-03-30T10:18:00Z</time>
      </trkpt>
      <trkpt lat="42.3629894" lon="2.2930286">
        <ele>1199.19995117</ele>
        <time>2021-03-30T10:18:01Z</time>
      </trkpt>
      <trkpt lat="42.3629049" lon="2.2929994">
        <ele>1198.88000488</ele>
        <time>2021-03-30T10:18:02Z</time>
      </trkpt>
      <trkpt lat="42.36282" lon="2.2929688">
        <ele>1198.54003906</ele>
        <time>2021-03-30T10:18:03Z</time>
      </trkpt>
      <trkpt lat="42.3627331" lon="2.2929501">
        <ele>1198.11999512</ele>
        <time>2021-03-30T10:18:04Z</time>
      </trkpt>
      <trkpt lat="42.3626468" lon="2.2929369">
        <ele>1197.67004395</ele>
        <time>2021-03-30T10:18:05Z</time>
      </trkpt>
      <trkpt lat="42.3625607" lon="2.2929182">
        <ele>1197.22998047</ele>
        <time>2021-03-30T10:18:06Z</time>
      </trkpt>
      <trkpt lat="42.3624748" lon="2.2928936">
        <ele>1196.79003906</ele>
        <time>2021-03-30T10:18:07Z</time>
      </trkpt>
      <trkpt lat="42.3623867" lon="2.2928781">
        <ele>1196.33996582</ele>
        <time>2021-03-30T10:18:08Z</time>
      </trkpt>
      <trkpt lat="42.3623005" lon="2.292859">
        <ele>1195.89001465</ele>
        <time>2021-03-30T10:18:09Z</time>
      </trkpt>
      <trkpt lat="42.3622149" lon="2.2928385">
        <ele>1195.44995117</ele>
        <time>2021-03-30T10:18:10Z</time>
      </trkpt>
      <trkpt lat="42.3621275" lon="2.2928138">
        <ele>1195</ele>
        <time>2021-03-30T10:18:11Z</time>
      </trkpt>
      <trkpt lat="42.3620399" lon="2.2927932">
        <ele>1194.5300293</ele>
        <time>2021-03-30T10:18:12Z</time>
      </trkpt>
      <trkpt lat="42.3619515" lon="2.2927794">
        <ele>1194.06994629</ele>
        <time>2021-03-30T10:18:13Z</time>
      </trkpt>
      <trkpt lat="42.3618632" lon="2.2927567">
        <ele>1193.60998535</ele>
        <time>2021-03-30T10:18:14Z</time>
      </trkpt>
      <trkpt lat="42.3617731" lon="2.2927449">
        <ele>1193.19995117</ele>
        <time>2021-03-30T10:18:15Z</time>
      </trkpt>
      <trkpt lat="42.3616822" lon="2.2927326">
        <ele>1192.82995605</ele>
        <time>2021-03-30T10:18:16Z</time>
      </trkpt>
      <trkpt lat="42.3615919" lon="2.2927107">
        <ele>1192.5</ele>
        <time>2021-03-30T10:18:17Z</time>
      </trkpt>
      <trkpt lat="42.3615027" lon="2.292682">
        <ele>1192.16003418</ele>
        <time>2021-03-30T10:18:18Z</time>
      </trkpt>
      <trkpt lat="42.3614127" lon="2.2926563">
        <ele>1191.77001953</ele>
        <time>2021-03-30T10:18:19Z</time>
      </trkpt>
      <trkpt lat="42.3613224" lon="2.2926313">
        <ele>1191.29003906</ele>
        <time>2021-03-30T10:18:20Z</time>
      </trkpt>
      <trkpt lat="42.3612334" lon="2.2926107">
        <ele>1190.82995605</ele>
        <time>2021-03-30T10:18:21Z</time>
      </trkpt>
      <trkpt lat="42.3611462" lon="2.2925942">
        <ele>1190.43994141</ele>
        <time>2021-03-30T10:18:22Z</time>
      </trkpt>
      <trkpt lat="42.3610577" lon="2.2925767">
        <ele>1190.10998535</ele>
        <time>2021-03-30T10:18:23Z</time>
      </trkpt>
      <trkpt lat="42.3609696" lon="2.2925686">
        <ele>1189.76000977</ele>
        <time>2021-03-30T10:18:24Z</time>
      </trkpt>
      <trkpt lat="42.3608819" lon="2.2925654">
        <ele>1189.41003418</ele>
        <time>2021-03-30T10:18:25Z</time>
      </trkpt>
      <trkpt lat="42.3607938" lon="2.2925606">
        <ele>1189.06994629</ele>
        <time>2021-03-30T10:18:26Z</time>
      </trkpt>
      <trkpt lat="42.3607076" lon="2.2925638">
        <ele>1188.72998047</ele>
        <time>2021-03-30T10:18:27Z</time>
      </trkpt>
      <trkpt lat="42.3606216" lon="2.2925729">
        <ele>1188.39001465</ele>
        <time>2021-03-30T10:18:28Z</time>
      </trkpt>
      <trkpt lat="42.3605354" lon="2.2925912">
        <ele>1188.06005859</ele>
        <time>2021-03-30T10:18:29Z</time>
      </trkpt>
      <trkpt lat="42.3604527" lon="2.2926214">
        <ele>1187.75</ele>
        <time>2021-03-30T10:18:30Z</time>
      </trkpt>
      <trkpt lat="42.3603694" lon="2.2926489">
        <ele>1187.44995117</ele>
        <time>2021-03-30T10:18:31Z</time>
      </trkpt>
      <trkpt lat="42.3602876" lon="2.2926806">
        <ele>1187.11999512</ele>
        <time>2021-03-30T10:18:32Z</time>
      </trkpt>
      <trkpt lat="42.360208" lon="2.2927191">
        <ele>1186.7199707</ele>
        <time>2021-03-30T10:18:33Z</time>
      </trkpt>
      <trkpt lat="42.3601292" lon="2.2927599">
        <ele>1186.33996582</ele>
        <time>2021-03-30T10:18:34Z</time>
      </trkpt>
      <trkpt lat="42.3600486" lon="2.292804">
        <ele>1186</ele>
        <time>2021-03-30T10:18:35Z</time>
      </trkpt>
      <trkpt lat="42.3599643" lon="2.2928452">
        <ele>1185.77001953</ele>
        <time>2021-03-30T10:18:36Z</time>
      </trkpt>
      <trkpt lat="42.3598759" lon="2.2928757">
        <ele>1185.63000488</ele>
        <time>2021-03-30T10:18:37Z</time>
      </trkpt>
      <trkpt lat="42.3597901" lon="2.2929066">
        <ele>1185.5</ele>
        <time>2021-03-30T10:18:38Z</time>
      </trkpt>
      <trkpt lat="42.3597043" lon="2.2929423">
        <ele>1185.33996582</ele>
        <time>2021-03-30T10:18:39Z</time>
      </trkpt>
      <trkpt lat="42.3596184" lon="2.2929663">
        <ele>1185.08996582</ele>
        <time>2021-03-30T10:18:40Z</time>
      </trkpt>
      <trkpt lat="42.3595344" lon="2.2929978">
        <ele>1184.81005859</ele>
        <time>2021-03-30T10:18:41Z</time>
      </trkpt>
      <trkpt lat="42.3594517" lon="2.293026">
        <ele>1184.5300293</ele>
        <time>2021-03-30T10:18:42Z</time>
      </trkpt>
      <trkpt lat="42.3593649" lon="2.2930552">
        <ele>1184.31005859</ele>
        <time>2021-03-30T10:18:43Z</time>
      </trkpt>
      <trkpt lat="42.3592793" lon="2.2931019">
        <ele>1183.98999023</ele>
        <time>2021-03-30T10:18:44Z</time>
      </trkpt>
      <trkpt lat="42.3591959" lon="2.2931517">
        <ele>1183.85998535</ele>
        <time>2021-03-30T10:18:45Z</time>
      </trkpt>
      <trkpt lat="42.3591149" lon="2.2932112">
        <ele>1183.69995117</ele>
        <time>2021-03-30T10:18:46Z</time>
      </trkpt>
      <trkpt lat="42.3590322" lon="2.2932714">
        <ele>1182.89001465</ele>
        <time>2021-03-30T10:18:47Z</time>
      </trkpt>
      <trkpt lat="42.3589513" lon="2.2933329">
        <ele>1182.13000488</ele>
        <time>2021-03-30T10:18:48Z</time>
      </trkpt>
      <trkpt lat="42.3588703" lon="2.293396">
        <ele>1181.47998047</ele>
        <time>2021-03-30T10:18:49Z</time>
      </trkpt>
      <trkpt lat="42.3587875" lon="2.2934585">
        <ele>1180.86999512</ele>
        <time>2021-03-30T10:18:50Z</time>
      </trkpt>
      <trkpt lat="42.3587033" lon="2.29352">
        <ele>1180.23999023</ele>
        <time>2021-03-30T10:18:51Z</time>
      </trkpt>
      <trkpt lat="42.3586165" lon="2.2935722">
        <ele>1179.67004395</ele>
        <time>2021-03-30T10:18:52Z</time>
      </trkpt>
      <trkpt lat="42.3585254" lon="2.2936043">
        <ele>1179.20996094</ele>
        <time>2021-03-30T10:18:53Z</time>
      </trkpt>
      <trkpt lat="42.3584271" lon="2.293631">
        <ele>1178.68994141</ele>
        <time>2021-03-30T10:18:54Z</time>
      </trkpt>
      <trkpt lat="42.3583283" lon="2.2936435">
        <ele>1178.07995605</ele>
        <time>2021-03-30T10:18:55Z</time>
      </trkpt>
      <trkpt lat="42.3582276" lon="2.2936239">
        <ele>1177.36999512</ele>
        <time>2021-03-30T10:18:56Z</time>
      </trkpt>
      <trkpt lat="42.3581281" lon="2.2936164">
        <ele>1176.64001465</ele>
        <time>2021-03-30T10:18:57Z</time>
      </trkpt>
      <trkpt lat="42.3580265" lon="2.2936089">
        <ele>1175.93994141</ele>
        <time>2021-03-30T10:18:58Z</time>
      </trkpt>
      <trkpt lat="42.3579273" lon="2.2935895">
        <ele>1175.29003906</ele>
        <time>2021-03-30T10:18:59Z</time>
      </trkpt>
      <trkpt lat="42.3578275" lon="2.2935579">
        <ele>1174.70996094</ele>
        <time>2021-03-30T10:19:00Z</time>
      </trkpt>
      <trkpt lat="42.3577236" lon="2.2935248">
        <ele>1174.19995117</ele>
        <time>2021-03-30T10:19:01Z</time>
      </trkpt>
      <trkpt lat="42.3576322" lon="2.2934541">
        <ele>1173.81994629</ele>
        <time>2021-03-30T10:19:02Z</time>
      </trkpt>
      <trkpt lat="42.3575435" lon="2.2933906">
        <ele>1173.56005859</ele>
        <time>2021-03-30T10:19:03Z</time>
      </trkpt>
      <trkpt lat="42.3574597" lon="2.2933148">
        <ele>1173.29003906</ele>
        <time>2021-03-30T10:19:04Z</time>
      </trkpt>
      <trkpt lat="42.3573724" lon="2.2932364">
        <ele>1172.98999023</ele>
        <time>2021-03-30T10:19:05Z</time>
      </trkpt>
      <trkpt lat="42.3572979" lon="2.2931371">
        <ele>1172.63000488</ele>
        <time>2021-03-30T10:19:06Z</time>
      </trkpt>
      <trkpt lat="42.3572262" lon="2.293033">
        <ele>1172.4699707</ele>
        <time>2021-03-30T10:19:07Z</time>
      </trkpt>
      <trkpt lat="42.3571504" lon="2.2929374">
        <ele>1172.25</ele>
        <time>2021-03-30T10:19:08Z</time>
      </trkpt>
      <trkpt lat="42.3570746" lon="2.292841">
        <ele>1171.45996094</ele>
        <time>2021-03-30T10:19:09Z</time>
      </trkpt>
      <trkpt lat="42.3569956" lon="2.2927521">
        <ele>1170.68005371</ele>
        <time>2021-03-30T10:19:10Z</time>
      </trkpt>
      <trkpt lat="42.3569212" lon="2.2926559">
        <ele>1169.83996582</ele>
        <time>2021-03-30T10:19:11Z</time>
      </trkpt>
      <trkpt lat="42.3568563" lon="2.2925402">
        <ele>1169.15002441</ele>
        <time>2021-03-30T10:19:12Z</time>
      </trkpt>
      <trkpt lat="42.3567767" lon="2.2924533">
        <ele>1168.56005859</ele>
        <time>2021-03-30T10:19:13Z</time>
      </trkpt>
      <trkpt lat="42.3566867" lon="2.2923864">
        <ele>1167.97998047</ele>
        <time>2021-03-30T10:19:14Z</time>
      </trkpt>
      <trkpt lat="42.3565822" lon="2.2923434">
        <ele>1167.45996094</ele>
        <time>2021-03-30T10:19:15Z</time>
      </trkpt>
      <trkpt lat="42.3564765" lon="2.2923083">
        <ele>1167.08996582</ele>
        <time>2021-03-30T10:19:16Z</time>
      </trkpt>
      <trkpt lat="42.3563711" lon="2.2922797">
        <ele>1166.81994629</ele>
        <time>2021-03-30T10:19:17Z</time>
      </trkpt>
      <trkpt lat="42.356268" lon="2.2922441">
        <ele>1166.59997559</ele>
        <time>2021-03-30T10:19:18Z</time>
      </trkpt>
      <trkpt lat="42.3561677" lon="2.2921977">
        <ele>1166.32995605</ele>
        <time>2021-03-30T10:19:19Z</time>
      </trkpt>
      <trkpt lat="42.3560633" lon="2.2921594">
        <ele>1165.95996094</ele>
        <time>2021-03-30T10:19:20Z</time>
      </trkpt>
      <trkpt lat="42.3559566" lon="2.2921303">
        <ele>1165.52001953</ele>
        <time>2021-03-30T10:19:21Z</time>
      </trkpt>
      <trkpt lat="42.3558484" lon="2.2921068">
        <ele>1165.05004883</ele>
        <time>2021-03-30T10:19:22Z</time>
      </trkpt>
      <trkpt lat="42.3557416" lon="2.2920894">
        <ele>1164.57995605</ele>
        <time>2021-03-30T10:19:23Z</time>
      </trkpt>
      <trkpt lat="42.3556346" lon="2.2920709">
        <ele>1164.10998535</ele>
        <time>2021-03-30T10:19:24Z</time>
      </trkpt>
      <trkpt lat="42.3555284" lon="2.292062">
        <ele>1163.64001465</ele>
        <time>2021-03-30T10:19:25Z</time>
      </trkpt>
      <trkpt lat="42.3554221" lon="2.2920479">
        <ele>1163.19995117</ele>
        <time>2021-03-30T10:19:26Z</time>
      </trkpt>
      <trkpt lat="42.3553158" lon="2.2920379">
        <ele>1162.77001953</ele>
        <time>2021-03-30T10:19:27Z</time>
      </trkpt>
      <trkpt lat="42.3552115" lon="2.2920239">
        <ele>1162.35998535</ele>
        <time>2021-03-30T10:19:28Z</time>
      </trkpt>
      <trkpt lat="42.3551119" lon="2.2920174">
        <ele>1161.89001465</ele>
        <time>2021-03-30T10:19:29Z</time>
      </trkpt>
      <trkpt lat="42.3550097" lon="2.2920062">
        <ele>1161.33996582</ele>
        <time>2021-03-30T10:19:30Z</time>
      </trkpt>
      <trkpt lat="42.3549123" lon="2.2919962">
        <ele>1160.64001465</ele>
        <time>2021-03-30T10:19:31Z</time>
      </trkpt>
      <trkpt lat="42.354816" lon="2.2919887">
        <ele>1159.91003418</ele>
        <time>2021-03-30T10:19:32Z</time>
      </trkpt>
      <trkpt lat="42.354724" lon="2.2919892">
        <ele>1159.20996094</ele>
        <time>2021-03-30T10:19:33Z</time>
      </trkpt>
      <trkpt lat="42.3546308" lon="2.291992">
        <ele>1158.56994629</ele>
        <time>2021-03-30T10:19:34Z</time>
      </trkpt>
      <trkpt lat="42.3545348" lon="2.2920044">
        <ele>1158.02001953</ele>
        <time>2021-03-30T10:19:35Z</time>
      </trkpt>
      <trkpt lat="42.3544374" lon="2.2920224">
        <ele>1157.61999512</ele>
        <time>2021-03-30T10:19:36Z</time>
      </trkpt>
      <trkpt lat="42.3543426" lon="2.2920314">
        <ele>1157.40002441</ele>
        <time>2021-03-30T10:19:37Z</time>
      </trkpt>
      <trkpt lat="42.3542494" lon="2.2920396">
        <ele>1157.2800293</ele>
        <time>2021-03-30T10:19:38Z</time>
      </trkpt>
      <trkpt lat="42.3541565" lon="2.2920501">
        <ele>1157.22998047</ele>
        <time>2021-03-30T10:19:39Z</time>
      </trkpt>
      <trkpt lat="42.3540546" lon="2.2920512">
        <ele>1157.27001953</ele>
        <time>2021-03-30T10:19:40Z</time>
      </trkpt>
      <trkpt lat="42.353956" lon="2.2920472">
        <ele>1157.31994629</ele>
        <time>2021-03-30T10:19:41Z</time>
      </trkpt>
      <trkpt lat="42.3538626" lon="2.2920468">
        <ele>1157.32995605</ele>
        <time>2021-03-30T10:19:42Z</time>
      </trkpt>
      <trkpt lat="42.3537753" lon="2.2920343">
        <ele>1157.36999512</ele>
        <time>2021-03-30T10:19:43Z</time>
      </trkpt>
      <trkpt lat="42.3536868" lon="2.2920079">
        <ele>1157.36999512</ele>
        <time>2021-03-30T10:19:44Z</time>
      </trkpt>
      <trkpt lat="42.3536027" lon="2.2919709">
        <ele>1157.2199707</ele>
        <time>2021-03-30T10:19:45Z</time>
      </trkpt>
      <trkpt lat="42.3535177" lon="2.2919459">
        <ele>1157.10998535</ele>
        <time>2021-03-30T10:19:46Z</time>
      </trkpt>
      <trkpt lat="42.353438" lon="2.2919106">
        <ele>1156.60998535</ele>
        <time>2021-03-30T10:19:47Z</time>
      </trkpt>
      <trkpt lat="42.3533548" lon="2.291892">
        <ele>1156.23999023</ele>
        <time>2021-03-30T10:19:48Z</time>
      </trkpt>
      <trkpt lat="42.3532736" lon="2.2918795">
        <ele>1156.07995605</ele>
        <time>2021-03-30T10:19:49Z</time>
      </trkpt>
      <trkpt lat="42.3531921" lon="2.2918616">
        <ele>1155.93994141</ele>
        <time>2021-03-30T10:19:50Z</time>
      </trkpt>
      <trkpt lat="42.3531067" lon="2.2918497">
        <ele>1155.70996094</ele>
        <time>2021-03-30T10:19:51Z</time>
      </trkpt>
      <trkpt lat="42.3530202" lon="2.2918426">
        <ele>1155.39001465</ele>
        <time>2021-03-30T10:19:52Z</time>
      </trkpt>
      <trkpt lat="42.352931" lon="2.2918462">
        <ele>1154.95996094</ele>
        <time>2021-03-30T10:19:53Z</time>
      </trkpt>
      <trkpt lat="42.3528464" lon="2.2918649">
        <ele>1154.44995117</ele>
        <time>2021-03-30T10:19:54Z</time>
      </trkpt>
      <trkpt lat="42.3527632" lon="2.2918981">
        <ele>1153.90002441</ele>
        <time>2021-03-30T10:19:55Z</time>
      </trkpt>
      <trkpt lat="42.3526875" lon="2.2919466">
        <ele>1153.34997559</ele>
        <time>2021-03-30T10:19:56Z</time>
      </trkpt>
      <trkpt lat="42.3526124" lon="2.2919917">
        <ele>1152.7800293</ele>
        <time>2021-03-30T10:19:57Z</time>
      </trkpt>
      <trkpt lat="42.3525358" lon="2.2920332">
        <ele>1152.18994141</ele>
        <time>2021-03-30T10:19:58Z</time>
      </trkpt>
      <trkpt lat="42.3524631" lon="2.2920781">
        <ele>1151.58996582</ele>
        <time>2021-03-30T10:19:59Z</time>
      </trkpt>
      <trkpt lat="42.3523864" lon="2.2921299">
        <ele>1151.01000977</ele>
        <time>2021-03-30T10:20:00Z</time>
      </trkpt>
      <trkpt lat="42.3523121" lon="2.2921933">
        <ele>1150.48999023</ele>
        <time>2021-03-30T10:20:01Z</time>
      </trkpt>
      <trkpt lat="42.3522402" lon="2.2922599">
        <ele>1149.94995117</ele>
        <time>2021-03-30T10:20:02Z</time>
      </trkpt>
      <trkpt lat="42.3521664" lon="2.2923264">
        <ele>1149.40002441</ele>
        <time>2021-03-30T10:20:03Z</time>
      </trkpt>
      <trkpt lat="42.352091" lon="2.2923947">
        <ele>1148.9699707</ele>
        <time>2021-03-30T10:20:04Z</time>
      </trkpt>
      <trkpt lat="42.352016" lon="2.2924609">
        <ele>1148.60998535</ele>
        <time>2021-03-30T10:20:05Z</time>
      </trkpt>
      <trkpt lat="42.3519387" lon="2.2925212">
        <ele>1148.22998047</ele>
        <time>2021-03-30T10:20:06Z</time>
      </trkpt>
      <trkpt lat="42.3518609" lon="2.2925775">
        <ele>1147.73999023</ele>
        <time>2021-03-30T10:20:07Z</time>
      </trkpt>
      <trkpt lat="42.3517808" lon="2.2926316">
        <ele>1147.2800293</ele>
        <time>2021-03-30T10:20:08Z</time>
      </trkpt>
      <trkpt lat="42.351697" lon="2.2926835">
        <ele>1146.88000488</ele>
        <time>2021-03-30T10:20:09Z</time>
      </trkpt>
      <trkpt lat="42.3516135" lon="2.2927362">
        <ele>1146.51000977</ele>
        <time>2021-03-30T10:20:10Z</time>
      </trkpt>
      <trkpt lat="42.3515307" lon="2.2927913">
        <ele>1146.18994141</ele>
        <time>2021-03-30T10:20:11Z</time>
      </trkpt>
      <trkpt lat="42.3514454" lon="2.292849">
        <ele>1145.93005371</ele>
        <time>2021-03-30T10:20:12Z</time>
      </trkpt>
      <trkpt lat="42.3513558" lon="2.29289">
        <ele>1145.83996582</ele>
        <time>2021-03-30T10:20:13Z</time>
      </trkpt>
      <trkpt lat="42.3512641" lon="2.2929082">
        <ele>1145.84997559</ele>
        <time>2021-03-30T10:20:14Z</time>
      </trkpt>
      <trkpt lat="42.3511713" lon="2.292898">
        <ele>1145.90002441</ele>
        <time>2021-03-30T10:20:15Z</time>
      </trkpt>
      <trkpt lat="42.3510827" lon="2.292875">
        <ele>1145.89001465</ele>
        <time>2021-03-30T10:20:16Z</time>
      </trkpt>
      <trkpt lat="42.3509984" lon="2.292836">
        <ele>1145.70996094</ele>
        <time>2021-03-30T10:20:17Z</time>
      </trkpt>
      <trkpt lat="42.3509107" lon="2.2927918">
        <ele>1145.60998535</ele>
        <time>2021-03-30T10:20:18Z</time>
      </trkpt>
      <trkpt lat="42.3508157" lon="2.2927748">
        <ele>1145.55004883</ele>
        <time>2021-03-30T10:20:19Z</time>
      </trkpt>
      <trkpt lat="42.3507237" lon="2.2927412">
        <ele>1144.61999512</ele>
        <time>2021-03-30T10:20:20Z</time>
      </trkpt>
      <trkpt lat="42.3506308" lon="2.2927136">
        <ele>1143.93994141</ele>
        <time>2021-03-30T10:20:21Z</time>
      </trkpt>
      <trkpt lat="42.3505387" lon="2.2926909">
        <ele>1143.5300293</ele>
        <time>2021-03-30T10:20:22Z</time>
      </trkpt>
      <trkpt lat="42.3504496" lon="2.2926879">
        <ele>1143.27001953</ele>
        <time>2021-03-30T10:20:23Z</time>
      </trkpt>
      <trkpt lat="42.3503661" lon="2.2926989">
        <ele>1143.05004883</ele>
        <time>2021-03-30T10:20:24Z</time>
      </trkpt>
      <trkpt lat="42.3502964" lon="2.2927118">
        <ele>1142.89001465</ele>
        <time>2021-03-30T10:20:25Z</time>
      </trkpt>
      <trkpt lat="42.3502262" lon="2.2927352">
        <ele>1142.7800293</ele>
        <time>2021-03-30T10:20:26Z</time>
      </trkpt>
      <trkpt lat="42.3501527" lon="2.2927597">
        <ele>1142.61999512</ele>
        <time>2021-03-30T10:20:27Z</time>
      </trkpt>
      <trkpt lat="42.3500765" lon="2.292788">
        <ele>1142.34997559</ele>
        <time>2021-03-30T10:20:28Z</time>
      </trkpt>
      <trkpt lat="42.3500056" lon="2.2928209">
        <ele>1142.02001953</ele>
        <time>2021-03-30T10:20:29Z</time>
      </trkpt>
      <trkpt lat="42.3499314" lon="2.2928534">
        <ele>1141.70996094</ele>
        <time>2021-03-30T10:20:30Z</time>
      </trkpt>
      <trkpt lat="42.3498491" lon="2.2928921">
        <ele>1141.4699707</ele>
        <time>2021-03-30T10:20:31Z</time>
      </trkpt>
      <trkpt lat="42.349767" lon="2.2929364">
        <ele>1141.25</ele>
        <time>2021-03-30T10:20:32Z</time>
      </trkpt>
      <trkpt lat="42.3496862" lon="2.2929904">
        <ele>1140.92004395</ele>
        <time>2021-03-30T10:20:33Z</time>
      </trkpt>
      <trkpt lat="42.3496083" lon="2.2930541">
        <ele>1140.79003906</ele>
        <time>2021-03-30T10:20:34Z</time>
      </trkpt>
      <trkpt lat="42.3495302" lon="2.293119">
        <ele>1140.61999512</ele>
        <time>2021-03-30T10:20:35Z</time>
      </trkpt>
      <trkpt lat="42.3494537" lon="2.293182">
        <ele>1139.90002441</ele>
        <time>2021-03-30T10:20:36Z</time>
      </trkpt>
      <trkpt lat="42.3493769" lon="2.2932406">
        <ele>1139.16003418</ele>
        <time>2021-03-30T10:20:37Z</time>
      </trkpt>
      <trkpt lat="42.3493031" lon="2.2933038">
        <ele>1138.51000977</ele>
        <time>2021-03-30T10:20:38Z</time>
      </trkpt>
      <trkpt lat="42.3492306" lon="2.293372">
        <ele>1137.90002441</ele>
        <time>2021-03-30T10:20:39Z</time>
      </trkpt>
      <trkpt lat="42.3491559" lon="2.2934391">
        <ele>1137.31005859</ele>
        <time>2021-03-30T10:20:40Z</time>
      </trkpt>
      <trkpt lat="42.3490795" lon="2.2935024">
        <ele>1136.79003906</ele>
        <time>2021-03-30T10:20:41Z</time>
      </trkpt>
      <trkpt lat="42.3490088" lon="2.2935754">
        <ele>1136.36999512</ele>
        <time>2021-03-30T10:20:42Z</time>
      </trkpt>
      <trkpt lat="42.3489381" lon="2.2936488">
        <ele>1135.97998047</ele>
        <time>2021-03-30T10:20:43Z</time>
      </trkpt>
      <trkpt lat="42.3488672" lon="2.2937214">
        <ele>1135.51000977</ele>
        <time>2021-03-30T10:20:44Z</time>
      </trkpt>
      <trkpt lat="42.3487958" lon="2.293795">
        <ele>1134.94995117</ele>
        <time>2021-03-30T10:20:45Z</time>
      </trkpt>
      <trkpt lat="42.3487241" lon="2.2938723">
        <ele>1134.43994141</ele>
        <time>2021-03-30T10:20:46Z</time>
      </trkpt>
      <trkpt lat="42.3486476" lon="2.2939459">
        <ele>1133.98999023</ele>
        <time>2021-03-30T10:20:47Z</time>
      </trkpt>
      <trkpt lat="42.3485698" lon="2.2940162">
        <ele>1133.60998535</ele>
        <time>2021-03-30T10:20:48Z</time>
      </trkpt>
      <trkpt lat="42.3484915" lon="2.2940852">
        <ele>1133.19995117</ele>
        <time>2021-03-30T10:20:49Z</time>
      </trkpt>
      <trkpt lat="42.3484094" lon="2.2941479">
        <ele>1132.79003906</ele>
        <time>2021-03-30T10:20:50Z</time>
      </trkpt>
      <trkpt lat="42.3483301" lon="2.2942174">
        <ele>1132.47998047</ele>
        <time>2021-03-30T10:20:51Z</time>
      </trkpt>
      <trkpt lat="42.3482481" lon="2.2942864">
        <ele>1132.22998047</ele>
        <time>2021-03-30T10:20:52Z</time>
      </trkpt>
      <trkpt lat="42.3481761" lon="2.2943746">
        <ele>1132.11999512</ele>
        <time>2021-03-30T10:20:53Z</time>
      </trkpt>
      <trkpt lat="42.3481048" lon="2.2944657">
        <ele>1131.5300293</ele>
        <time>2021-03-30T10:20:54Z</time>
      </trkpt>
      <trkpt lat="42.3480415" lon="2.2945649">
        <ele>1130.80004883</ele>
        <time>2021-03-30T10:20:55Z</time>
      </trkpt>
      <trkpt lat="42.3479739" lon="2.2946647">
        <ele>1130.01000977</ele>
        <time>2021-03-30T10:20:56Z</time>
      </trkpt>
      <trkpt lat="42.3479184" lon="2.2947747">
        <ele>1129.31005859</ele>
        <time>2021-03-30T10:20:57Z</time>
      </trkpt>
      <trkpt lat="42.3478603" lon="2.2948829">
        <ele>1128.73999023</ele>
        <time>2021-03-30T10:20:58Z</time>
      </trkpt>
      <trkpt lat="42.3478016" lon="2.2949892">
        <ele>1128.30004883</ele>
        <time>2021-03-30T10:20:59Z</time>
      </trkpt>
      <trkpt lat="42.3477374" lon="2.2950828">
        <ele>1127.85998535</ele>
        <time>2021-03-30T10:21:00Z</time>
      </trkpt>
      <trkpt lat="42.3476607" lon="2.2951573">
        <ele>1127.51000977</ele>
        <time>2021-03-30T10:21:01Z</time>
      </trkpt>
      <trkpt lat="42.3475795" lon="2.295224">
        <ele>1127.19995117</ele>
        <time>2021-03-30T10:21:02Z</time>
      </trkpt>
      <trkpt lat="42.3474997" lon="2.2952824">
        <ele>1126.89001465</ele>
        <time>2021-03-30T10:21:03Z</time>
      </trkpt>
      <trkpt lat="42.3474263" lon="2.2953362">
        <ele>1126.56994629</ele>
        <time>2021-03-30T10:21:04Z</time>
      </trkpt>
      <trkpt lat="42.3473502" lon="2.2953816">
        <ele>1126.31994629</ele>
        <time>2021-03-30T10:21:05Z</time>
      </trkpt>
      <trkpt lat="42.3472761" lon="2.2954305">
        <ele>1126.05004883</ele>
        <time>2021-03-30T10:21:06Z</time>
      </trkpt>
      <trkpt lat="42.3472033" lon="2.2954819">
        <ele>1125.68994141</ele>
        <time>2021-03-30T10:21:07Z</time>
      </trkpt>
      <trkpt lat="42.3471315" lon="2.2955408">
        <ele>1125.26000977</ele>
        <time>2021-03-30T10:21:08Z</time>
      </trkpt>
      <trkpt lat="42.3470657" lon="2.2956106">
        <ele>1124.83996582</ele>
        <time>2021-03-30T10:21:09Z</time>
      </trkpt>
      <trkpt lat="42.3470024" lon="2.2956863">
        <ele>1124.51000977</ele>
        <time>2021-03-30T10:21:10Z</time>
      </trkpt>
      <trkpt lat="42.3469457" lon="2.2957688">
        <ele>1124.26000977</ele>
        <time>2021-03-30T10:21:11Z</time>
      </trkpt>
      <trkpt lat="42.3468903" lon="2.2958538">
        <ele>1124.04003906</ele>
        <time>2021-03-30T10:21:12Z</time>
      </trkpt>
      <trkpt lat="42.3468374" lon="2.2959412">
        <ele>1124.02001953</ele>
        <time>2021-03-30T10:21:13Z</time>
      </trkpt>
      <trkpt lat="42.3467785" lon="2.2960208">
        <ele>1124.08996582</ele>
        <time>2021-03-30T10:21:14Z</time>
      </trkpt>
      <trkpt lat="42.3467205" lon="2.2960998">
        <ele>1124.44995117</ele>
        <time>2021-03-30T10:21:15Z</time>
      </trkpt>
      <trkpt lat="42.3466621" lon="2.2961792">
        <ele>1124.66003418</ele>
        <time>2021-03-30T10:21:16Z</time>
      </trkpt>
      <trkpt lat="42.3466068" lon="2.2962598">
        <ele>1124.72998047</ele>
        <time>2021-03-30T10:21:17Z</time>
      </trkpt>
      <trkpt lat="42.3465492" lon="2.2963354">
        <ele>1124.84997559</ele>
        <time>2021-03-30T10:21:18Z</time>
      </trkpt>
      <trkpt lat="42.3464882" lon="2.2964063">
        <ele>1125</ele>
        <time>2021-03-30T10:21:19Z</time>
      </trkpt>
      <trkpt lat="42.3464199" lon="2.2964669">
        <ele>1125.14001465</ele>
        <time>2021-03-30T10:21:20Z</time>
      </trkpt>
      <trkpt lat="42.3463516" lon="2.2965269">
        <ele>1125.09997559</ele>
        <time>2021-03-30T10:21:21Z</time>
      </trkpt>
      <trkpt lat="42.3462814" lon="2.2965837">
        <ele>1124.91003418</ele>
        <time>2021-03-30T10:21:22Z</time>
      </trkpt>
      <trkpt lat="42.3462097" lon="2.2966297">
        <ele>1124.68994141</ele>
        <time>2021-03-30T10:21:23Z</time>
      </trkpt>
      <trkpt lat="42.3461332" lon="2.2966702">
        <ele>1124.52001953</ele>
        <time>2021-03-30T10:21:24Z</time>
      </trkpt>
      <trkpt lat="42.3460503" lon="2.2966894">
        <ele>1124.42004395</ele>
        <time>2021-03-30T10:21:25Z</time>
      </trkpt>
      <trkpt lat="42.3459641" lon="2.2967077">
        <ele>1124.20996094</ele>
        <time>2021-03-30T10:21:26Z</time>
      </trkpt>
      <trkpt lat="42.3458769" lon="2.2967226">
        <ele>1123.84997559</ele>
        <time>2021-03-30T10:21:27Z</time>
      </trkpt>
      <trkpt lat="42.3457924" lon="2.2967405">
        <ele>1123.35998535</ele>
        <time>2021-03-30T10:21:28Z</time>
      </trkpt>
      <trkpt lat="42.3457101" lon="2.2967597">
        <ele>1122.84997559</ele>
        <time>2021-03-30T10:21:29Z</time>
      </trkpt>
      <trkpt lat="42.3456278" lon="2.2967807">
        <ele>1122.35998535</ele>
        <time>2021-03-30T10:21:30Z</time>
      </trkpt>
      <trkpt lat="42.345542" lon="2.2968065">
        <ele>1121.86999512</ele>
        <time>2021-03-30T10:21:31Z</time>
      </trkpt>
      <trkpt lat="42.3454558" lon="2.2968437">
        <ele>1121.34997559</ele>
        <time>2021-03-30T10:21:32Z</time>
      </trkpt>
      <trkpt lat="42.3453716" lon="2.2968866">
        <ele>1120.80004883</ele>
        <time>2021-03-30T10:21:33Z</time>
      </trkpt>
      <trkpt lat="42.3452907" lon="2.2969427">
        <ele>1120.30004883</ele>
        <time>2021-03-30T10:21:34Z</time>
      </trkpt>
      <trkpt lat="42.3452138" lon="2.2970138">
        <ele>1119.93994141</ele>
        <time>2021-03-30T10:21:35Z</time>
      </trkpt>
      <trkpt lat="42.3451434" lon="2.297094">
        <ele>1119.52001953</ele>
        <time>2021-03-30T10:21:36Z</time>
      </trkpt>
      <trkpt lat="42.3450771" lon="2.2971811">
        <ele>1119.09997559</ele>
        <time>2021-03-30T10:21:37Z</time>
      </trkpt>
      <trkpt lat="42.3450179" lon="2.2972753">
        <ele>1118.80004883</ele>
        <time>2021-03-30T10:21:38Z</time>
      </trkpt>
      <trkpt lat="42.3449641" lon="2.2973722">
        <ele>1118.60998535</ele>
        <time>2021-03-30T10:21:39Z</time>
      </trkpt>
      <trkpt lat="42.3449113" lon="2.2974682">
        <ele>1118.35998535</ele>
        <time>2021-03-30T10:21:40Z</time>
      </trkpt>
      <trkpt lat="42.3448555" lon="2.2975612">
        <ele>1118.01000977</ele>
        <time>2021-03-30T10:21:41Z</time>
      </trkpt>
      <trkpt lat="42.3447875" lon="2.2976419">
        <ele>1117.63000488</ele>
        <time>2021-03-30T10:21:42Z</time>
      </trkpt>
      <trkpt lat="42.3447121" lon="2.297708">
        <ele>1117.30004883</ele>
        <time>2021-03-30T10:21:43Z</time>
      </trkpt>
      <trkpt lat="42.3446355" lon="2.2977652">
        <ele>1117.06994629</ele>
        <time>2021-03-30T10:21:44Z</time>
      </trkpt>
      <trkpt lat="42.3445553" lon="2.2978129">
        <ele>1116.82995605</ele>
        <time>2021-03-30T10:21:45Z</time>
      </trkpt>
      <trkpt lat="42.3444737" lon="2.2978325">
        <ele>1116.61999512</ele>
        <time>2021-03-30T10:21:46Z</time>
      </trkpt>
      <trkpt lat="42.3443909" lon="2.2978369">
        <ele>1116.43005371</ele>
        <time>2021-03-30T10:21:47Z</time>
      </trkpt>
      <trkpt lat="42.3443092" lon="2.2978309">
        <ele>1116.23999023</ele>
        <time>2021-03-30T10:21:48Z</time>
      </trkpt>
      <trkpt lat="42.3442313" lon="2.2978238">
        <ele>1116.0300293</ele>
        <time>2021-03-30T10:21:49Z</time>
      </trkpt>
      <trkpt lat="42.3441494" lon="2.2978133">
        <ele>1115.79003906</ele>
        <time>2021-03-30T10:21:50Z</time>
      </trkpt>
      <trkpt lat="42.3440724" lon="2.2978038">
        <ele>1115.5</ele>
        <time>2021-03-30T10:21:51Z</time>
      </trkpt>
      <trkpt lat="42.344" lon="2.2978026">
        <ele>1115.17004395</ele>
        <time>2021-03-30T10:21:52Z</time>
      </trkpt>
      <trkpt lat="42.3439369" lon="2.2978174">
        <ele>1114.84997559</ele>
        <time>2021-03-30T10:21:53Z</time>
      </trkpt>
      <trkpt lat="42.3438726" lon="2.2978281">
        <ele>1114.67004395</ele>
        <time>2021-03-30T10:21:54Z</time>
      </trkpt>
      <trkpt lat="42.3438032" lon="2.2978465">
        <ele>1114.58996582</ele>
        <time>2021-03-30T10:21:55Z</time>
      </trkpt>
      <trkpt lat="42.3437347" lon="2.2978662">
        <ele>1114.60998535</ele>
        <time>2021-03-30T10:21:56Z</time>
      </trkpt>
      <trkpt lat="42.3436724" lon="2.2978861">
        <ele>1114.70996094</ele>
        <time>2021-03-30T10:21:57Z</time>
      </trkpt>
      <trkpt lat="42.3436106" lon="2.297909">
        <ele>1114.85998535</ele>
        <time>2021-03-30T10:21:58Z</time>
      </trkpt>
      <trkpt lat="42.3435464" lon="2.2979255">
        <ele>1115.05004883</ele>
        <time>2021-03-30T10:21:59Z</time>
      </trkpt>
      <trkpt lat="42.3434812" lon="2.2979482">
        <ele>1115.22998047</ele>
        <time>2021-03-30T10:22:00Z</time>
      </trkpt>
      <trkpt lat="42.3434162" lon="2.297974">
        <ele>1115.38000488</ele>
        <time>2021-03-30T10:22:01Z</time>
      </trkpt>
      <trkpt lat="42.343348" lon="2.2979969">
        <ele>1115.51000977</ele>
        <time>2021-03-30T10:22:02Z</time>
      </trkpt>
      <trkpt lat="42.3432787" lon="2.2980174">
        <ele>1115.56005859</ele>
        <time>2021-03-30T10:22:03Z</time>
      </trkpt>
      <trkpt lat="42.3432105" lon="2.2980346">
        <ele>1115.5</ele>
        <time>2021-03-30T10:22:04Z</time>
      </trkpt>
      <trkpt lat="42.3431378" lon="2.2980503">
        <ele>1115.31005859</ele>
        <time>2021-03-30T10:22:05Z</time>
      </trkpt>
      <trkpt lat="42.343063" lon="2.2980588">
        <ele>1115</ele>
        <time>2021-03-30T10:22:06Z</time>
      </trkpt>
      <trkpt lat="42.3429905" lon="2.2980703">
        <ele>1114.88000488</ele>
        <time>2021-03-30T10:22:07Z</time>
      </trkpt>
      <trkpt lat="42.342918" lon="2.2980819">
        <ele>1114.72998047</ele>
        <time>2021-03-30T10:22:08Z</time>
      </trkpt>
      <trkpt lat="42.342844" lon="2.2980929">
        <ele>1114.54003906</ele>
        <time>2021-03-30T10:22:09Z</time>
      </trkpt>
      <trkpt lat="42.3427679" lon="2.2980988">
        <ele>1113.54003906</ele>
        <time>2021-03-30T10:22:10Z</time>
      </trkpt>
      <trkpt lat="42.3426965" lon="2.2981235">
        <ele>1112.4699707</ele>
        <time>2021-03-30T10:22:11Z</time>
      </trkpt>
      <trkpt lat="42.3426262" lon="2.2981501">
        <ele>1111.56005859</ele>
        <time>2021-03-30T10:22:12Z</time>
      </trkpt>
      <trkpt lat="42.3425573" lon="2.2981809">
        <ele>1110.77001953</ele>
        <time>2021-03-30T10:22:13Z</time>
      </trkpt>
      <trkpt lat="42.3424903" lon="2.2982205">
        <ele>1110.04003906</ele>
        <time>2021-03-30T10:22:14Z</time>
      </trkpt>
      <trkpt lat="42.3424297" lon="2.2982716">
        <ele>1109.32995605</ele>
        <time>2021-03-30T10:22:15Z</time>
      </trkpt>
      <trkpt lat="42.3423717" lon="2.2983322">
        <ele>1108.70996094</ele>
        <time>2021-03-30T10:22:16Z</time>
      </trkpt>
      <trkpt lat="42.3423222" lon="2.298402">
        <ele>1108.17004395</ele>
        <time>2021-03-30T10:22:17Z</time>
      </trkpt>
      <trkpt lat="42.3422785" lon="2.2984842">
        <ele>1107.75</ele>
        <time>2021-03-30T10:22:18Z</time>
      </trkpt>
      <trkpt lat="42.3422429" lon="2.2985728">
        <ele>1107.40002441</ele>
        <time>2021-03-30T10:22:19Z</time>
      </trkpt>
      <trkpt lat="42.3422083" lon="2.2986597">
        <ele>1107.06005859</ele>
        <time>2021-03-30T10:22:20Z</time>
      </trkpt>
      <trkpt lat="42.3421774" lon="2.2987495">
        <ele>1106.70996094</ele>
        <time>2021-03-30T10:22:21Z</time>
      </trkpt>
      <trkpt lat="42.3421532" lon="2.2988429">
        <ele>1106.40002441</ele>
        <time>2021-03-30T10:22:22Z</time>
      </trkpt>
      <trkpt lat="42.342134" lon="2.2989419">
        <ele>1106.11999512</ele>
        <time>2021-03-30T10:22:23Z</time>
      </trkpt>
      <trkpt lat="42.3421125" lon="2.29904">
        <ele>1105.88000488</ele>
        <time>2021-03-30T10:22:24Z</time>
      </trkpt>
      <trkpt lat="42.3420909" lon="2.2991386">
        <ele>1105.66003418</ele>
        <time>2021-03-30T10:22:25Z</time>
      </trkpt>
      <trkpt lat="42.3420647" lon="2.2992354">
        <ele>1105.45996094</ele>
        <time>2021-03-30T10:22:26Z</time>
      </trkpt>
      <trkpt lat="42.3420316" lon="2.2993292">
        <ele>1105.19995117</ele>
        <time>2021-03-30T10:22:27Z</time>
      </trkpt>
      <trkpt lat="42.3419939" lon="2.2994209">
        <ele>1105.08996582</ele>
        <time>2021-03-30T10:22:28Z</time>
      </trkpt>
      <trkpt lat="42.3419572" lon="2.2995132">
        <ele>1104.93005371</ele>
        <time>2021-03-30T10:22:29Z</time>
      </trkpt>
      <trkpt lat="42.3419186" lon="2.2996039">
        <ele>1104.2800293</ele>
        <time>2021-03-30T10:22:30Z</time>
      </trkpt>
      <trkpt lat="42.3418819" lon="2.2996962">
        <ele>1103.82995605</ele>
        <time>2021-03-30T10:22:31Z</time>
      </trkpt>
      <trkpt lat="42.3418427" lon="2.2997876">
        <ele>1103.58996582</ele>
        <time>2021-03-30T10:22:32Z</time>
      </trkpt>
      <trkpt lat="42.341803" lon="2.2998782">
        <ele>1103.33996582</ele>
        <time>2021-03-30T10:22:33Z</time>
      </trkpt>
      <trkpt lat="42.3417615" lon="2.299967">
        <ele>1103.0300293</ele>
        <time>2021-03-30T10:22:34Z</time>
      </trkpt>
      <trkpt lat="42.3417174" lon="2.3000546">
        <ele>1102.64001465</ele>
        <time>2021-03-30T10:22:35Z</time>
      </trkpt>
      <trkpt lat="42.3416713" lon="2.3001393">
        <ele>1102.31994629</ele>
        <time>2021-03-30T10:22:36Z</time>
      </trkpt>
      <trkpt lat="42.3416254" lon="2.3002233">
        <ele>1102.13000488</ele>
        <time>2021-03-30T10:22:37Z</time>
      </trkpt>
      <trkpt lat="42.3415753" lon="2.3003027">
        <ele>1102.06994629</ele>
        <time>2021-03-30T10:22:38Z</time>
      </trkpt>
      <trkpt lat="42.3415214" lon="2.3003771">
        <ele>1102.0300293</ele>
        <time>2021-03-30T10:22:39Z</time>
      </trkpt>
      <trkpt lat="42.3414645" lon="2.3004482">
        <ele>1101.85998535</ele>
        <time>2021-03-30T10:22:40Z</time>
      </trkpt>
      <trkpt lat="42.3414058" lon="2.3005157">
        <ele>1101.56994629</ele>
        <time>2021-03-30T10:22:41Z</time>
      </trkpt>
      <trkpt lat="42.3413488" lon="2.3005867">
        <ele>1101.16003418</ele>
        <time>2021-03-30T10:22:42Z</time>
      </trkpt>
      <trkpt lat="42.34129" lon="2.3006529">
        <ele>1100.7199707</ele>
        <time>2021-03-30T10:22:43Z</time>
      </trkpt>
      <trkpt lat="42.3412334" lon="2.3007209">
        <ele>1100.33996582</ele>
        <time>2021-03-30T10:22:44Z</time>
      </trkpt>
      <trkpt lat="42.3411765" lon="2.3007903">
        <ele>1100.0300293</ele>
        <time>2021-03-30T10:22:45Z</time>
      </trkpt>
      <trkpt lat="42.3411211" lon="2.3008603">
        <ele>1099.7800293</ele>
        <time>2021-03-30T10:22:46Z</time>
      </trkpt>
      <trkpt lat="42.3410645" lon="2.3009282">
        <ele>1099.59997559</ele>
        <time>2021-03-30T10:22:47Z</time>
      </trkpt>
      <trkpt lat="42.3410068" lon="2.300993">
        <ele>1099.43005371</ele>
        <time>2021-03-30T10:22:48Z</time>
      </trkpt>
      <trkpt lat="42.340951" lon="2.3010593">
        <ele>1099.18994141</ele>
        <time>2021-03-30T10:22:49Z</time>
      </trkpt>
      <trkpt lat="42.3408955" lon="2.3011258">
        <ele>1098.82995605</ele>
        <time>2021-03-30T10:22:50Z</time>
      </trkpt>
      <trkpt lat="42.3408419" lon="2.3011922">
        <ele>1098.68994141</ele>
        <time>2021-03-30T10:22:51Z</time>
      </trkpt>
      <trkpt lat="42.3407914" lon="2.3012622">
        <ele>1098.07995605</ele>
        <time>2021-03-30T10:22:52Z</time>
      </trkpt>
      <trkpt lat="42.3407437" lon="2.3013339">
        <ele>1097.57995605</ele>
        <time>2021-03-30T10:22:53Z</time>
      </trkpt>
      <trkpt lat="42.3406934" lon="2.3014039">
        <ele>1097.18994141</ele>
        <time>2021-03-30T10:22:54Z</time>
      </trkpt>
      <trkpt lat="42.3406462" lon="2.3014761">
        <ele>1096.82995605</ele>
        <time>2021-03-30T10:22:55Z</time>
      </trkpt>
      <trkpt lat="42.3406033" lon="2.3015507">
        <ele>1096.39001465</ele>
        <time>2021-03-30T10:22:56Z</time>
      </trkpt>
      <trkpt lat="42.3405715" lon="2.3016332">
        <ele>1095.90002441</ele>
        <time>2021-03-30T10:22:57Z</time>
      </trkpt>
      <trkpt lat="42.3405419" lon="2.3017183">
        <ele>1095.36999512</ele>
        <time>2021-03-30T10:22:58Z</time>
      </trkpt>
      <trkpt lat="42.3405098" lon="2.3018016">
        <ele>1095.35998535</ele>
        <time>2021-03-30T10:22:59Z</time>
      </trkpt>
      <trkpt lat="42.3404833" lon="2.3018862">
        <ele>1095.38000488</ele>
        <time>2021-03-30T10:23:00Z</time>
      </trkpt>
      <trkpt lat="42.3404572" lon="2.3019712">
        <ele>1095.4699707</ele>
        <time>2021-03-30T10:23:01Z</time>
      </trkpt>
      <trkpt lat="42.3404296" lon="2.302057">
        <ele>1095.57995605</ele>
        <time>2021-03-30T10:23:02Z</time>
      </trkpt>
      <trkpt lat="42.3404083" lon="2.3021469">
        <ele>1095.66003418</ele>
        <time>2021-03-30T10:23:03Z</time>
      </trkpt>
      <trkpt lat="42.3403884" lon="2.3022377">
        <ele>1095.70996094</ele>
        <time>2021-03-30T10:23:04Z</time>
      </trkpt>
      <trkpt lat="42.3403678" lon="2.3023281">
        <ele>1095.7199707</ele>
        <time>2021-03-30T10:23:05Z</time>
      </trkpt>
      <trkpt lat="42.3403436" lon="2.3024176">
        <ele>1095.72998047</ele>
        <time>2021-03-30T10:23:06Z</time>
      </trkpt>
      <trkpt lat="42.3403147" lon="2.3025082">
        <ele>1095.75</ele>
        <time>2021-03-30T10:23:07Z</time>
      </trkpt>
      <trkpt lat="42.3402852" lon="2.3026017">
        <ele>1095.7800293</ele>
        <time>2021-03-30T10:23:08Z</time>
      </trkpt>
      <trkpt lat="42.340251" lon="2.302694">
        <ele>1095.69995117</ele>
        <time>2021-03-30T10:23:09Z</time>
      </trkpt>
      <trkpt lat="42.3402142" lon="2.3027859">
        <ele>1095.5</ele>
        <time>2021-03-30T10:23:10Z</time>
      </trkpt>
      <trkpt lat="42.3401713" lon="2.3028722">
        <ele>1095.18005371</ele>
        <time>2021-03-30T10:23:11Z</time>
      </trkpt>
      <trkpt lat="42.3401327" lon="2.3029612">
        <ele>1094.89001465</ele>
        <time>2021-03-30T10:23:12Z</time>
      </trkpt>
      <trkpt lat="42.3400998" lon="2.3030558">
        <ele>1094.65002441</ele>
        <time>2021-03-30T10:23:13Z</time>
      </trkpt>
      <trkpt lat="42.3400634" lon="2.3031462">
        <ele>1094.5</ele>
        <time>2021-03-30T10:23:14Z</time>
      </trkpt>
      <trkpt lat="42.3400217" lon="2.3032364">
        <ele>1094.43005371</ele>
        <time>2021-03-30T10:23:15Z</time>
      </trkpt>
      <trkpt lat="42.3399726" lon="2.3033234">
        <ele>1094.36999512</ele>
        <time>2021-03-30T10:23:16Z</time>
      </trkpt>
      <trkpt lat="42.3399201" lon="2.303407">
        <ele>1094.2800293</ele>
        <time>2021-03-30T10:23:17Z</time>
      </trkpt>
      <trkpt lat="42.3398564" lon="2.303479">
        <ele>1094.16003418</ele>
        <time>2021-03-30T10:23:18Z</time>
      </trkpt>
      <trkpt lat="42.3397868" lon="2.30354">
        <ele>1093.94995117</ele>
        <time>2021-03-30T10:23:19Z</time>
      </trkpt>
      <trkpt lat="42.339715" lon="2.3035848">
        <ele>1093.60998535</ele>
        <time>2021-03-30T10:23:20Z</time>
      </trkpt>
      <trkpt lat="42.3396412" lon="2.3036294">
        <ele>1093.47998047</ele>
        <time>2021-03-30T10:23:21Z</time>
      </trkpt>
      <trkpt lat="42.3395633" lon="2.3036711">
        <ele>1093.01000977</ele>
        <time>2021-03-30T10:23:22Z</time>
      </trkpt>
      <trkpt lat="42.3394859" lon="2.3037154">
        <ele>1092.66003418</ele>
        <time>2021-03-30T10:23:23Z</time>
      </trkpt>
      <trkpt lat="42.339412" lon="2.3037575">
        <ele>1092.45996094</ele>
        <time>2021-03-30T10:23:24Z</time>
      </trkpt>
      <trkpt lat="42.3393379" lon="2.3037925">
        <ele>1092.39001465</ele>
        <time>2021-03-30T10:23:25Z</time>
      </trkpt>
      <trkpt lat="42.3392714" lon="2.3038387">
        <ele>1092.32995605</ele>
        <time>2021-03-30T10:23:26Z</time>
      </trkpt>
      <trkpt lat="42.3392044" lon="2.303883">
        <ele>1092.2800293</ele>
        <time>2021-03-30T10:23:27Z</time>
      </trkpt>
      <trkpt lat="42.3391295" lon="2.3039382">
        <ele>1092.13000488</ele>
        <time>2021-03-30T10:23:28Z</time>
      </trkpt>
      <trkpt lat="42.3390586" lon="2.3039987">
        <ele>1092.04003906</ele>
        <time>2021-03-30T10:23:29Z</time>
      </trkpt>
      <trkpt lat="42.3389986" lon="2.3040735">
        <ele>1092.04003906</ele>
        <time>2021-03-30T10:23:30Z</time>
      </trkpt>
      <trkpt lat="42.3389435" lon="2.3041553">
        <ele>1092.08996582</ele>
        <time>2021-03-30T10:23:31Z</time>
      </trkpt>
      <trkpt lat="42.3388858" lon="2.3042329">
        <ele>1092.10998535</ele>
        <time>2021-03-30T10:23:32Z</time>
      </trkpt>
      <trkpt lat="42.3388278" lon="2.3043112">
        <ele>1092.08996582</ele>
        <time>2021-03-30T10:23:33Z</time>
      </trkpt>
      <trkpt lat="42.3387689" lon="2.3043877">
        <ele>1092.08996582</ele>
        <time>2021-03-30T10:23:34Z</time>
      </trkpt>
      <trkpt lat="42.338707" lon="2.3044624">
        <ele>1092.0300293</ele>
        <time>2021-03-30T10:23:35Z</time>
      </trkpt>
      <trkpt lat="42.3386461" lon="2.3045369">
        <ele>1091.90002441</ele>
        <time>2021-03-30T10:23:36Z</time>
      </trkpt>
      <trkpt lat="42.3385868" lon="2.3046127">
        <ele>1091.84997559</ele>
        <time>2021-03-30T10:23:37Z</time>
      </trkpt>
      <trkpt lat="42.3385214" lon="2.304678">
        <ele>1091.95996094</ele>
        <time>2021-03-30T10:23:38Z</time>
      </trkpt>
      <trkpt lat="42.3384493" lon="2.3047372">
        <ele>1092.19995117</ele>
        <time>2021-03-30T10:23:39Z</time>
      </trkpt>
      <trkpt lat="42.3383739" lon="2.3047861">
        <ele>1092.43994141</ele>
        <time>2021-03-30T10:23:40Z</time>
      </trkpt>
      <trkpt lat="42.3382954" lon="2.3048228">
        <ele>1092.56994629</ele>
        <time>2021-03-30T10:23:41Z</time>
      </trkpt>
      <trkpt lat="42.3382146" lon="2.3048502">
        <ele>1092.57995605</ele>
        <time>2021-03-30T10:23:42Z</time>
      </trkpt>
      <trkpt lat="42.3381307" lon="2.3048544">
        <ele>1092.54003906</ele>
        <time>2021-03-30T10:23:43Z</time>
      </trkpt>
      <trkpt lat="42.3380449" lon="2.3048487">
        <ele>1092.35998535</ele>
        <time>2021-03-30T10:23:44Z</time>
      </trkpt>
      <trkpt lat="42.3379617" lon="2.304846">
        <ele>1092.02001953</ele>
        <time>2021-03-30T10:23:45Z</time>
      </trkpt>
      <trkpt lat="42.3378794" lon="2.30485">
        <ele>1091.60998535</ele>
        <time>2021-03-30T10:23:46Z</time>
      </trkpt>
      <trkpt lat="42.3378048" lon="2.3048584">
        <ele>1091.17004395</ele>
        <time>2021-03-30T10:23:47Z</time>
      </trkpt>
      <trkpt lat="42.337728" lon="2.3048783">
        <ele>1090.73999023</ele>
        <time>2021-03-30T10:23:48Z</time>
      </trkpt>
      <trkpt lat="42.3376515" lon="2.3049023">
        <ele>1090.39001465</ele>
        <time>2021-03-30T10:23:49Z</time>
      </trkpt>
      <trkpt lat="42.3375762" lon="2.3049189">
        <ele>1090.10998535</ele>
        <time>2021-03-30T10:23:50Z</time>
      </trkpt>
      <trkpt lat="42.3374991" lon="2.3049334">
        <ele>1089.84997559</ele>
        <time>2021-03-30T10:23:51Z</time>
      </trkpt>
      <trkpt lat="42.3374281" lon="2.3049443">
        <ele>1089.56005859</ele>
        <time>2021-03-30T10:23:52Z</time>
      </trkpt>
      <trkpt lat="42.3373601" lon="2.3049586">
        <ele>1089.43994141</ele>
        <time>2021-03-30T10:23:53Z</time>
      </trkpt>
      <trkpt lat="42.3372947" lon="2.304984">
        <ele>1089.29003906</ele>
        <time>2021-03-30T10:23:54Z</time>
      </trkpt>
      <trkpt lat="42.337223" lon="2.305022">
        <ele>1089.08996582</ele>
        <time>2021-03-30T10:23:55Z</time>
      </trkpt>
      <trkpt lat="42.3371567" lon="2.3050698">
        <ele>1088.08996582</ele>
        <time>2021-03-30T10:23:56Z</time>
      </trkpt>
      <trkpt lat="42.3370856" lon="2.305121">
        <ele>1087.30004883</ele>
        <time>2021-03-30T10:23:57Z</time>
      </trkpt>
      <trkpt lat="42.3370129" lon="2.3051737">
        <ele>1086.70996094</ele>
        <time>2021-03-30T10:23:58Z</time>
      </trkpt>
      <trkpt lat="42.3369434" lon="2.3052257">
        <ele>1086.23999023</ele>
        <time>2021-03-30T10:23:59Z</time>
      </trkpt>
      <trkpt lat="42.3368792" lon="2.3052797">
        <ele>1085.81994629</ele>
        <time>2021-03-30T10:24:00Z</time>
      </trkpt>
      <trkpt lat="42.3368151" lon="2.3053314">
        <ele>1085.41003418</ele>
        <time>2021-03-30T10:24:01Z</time>
      </trkpt>
      <trkpt lat="42.3367486" lon="2.3053839">
        <ele>1085.01000977</ele>
        <time>2021-03-30T10:24:02Z</time>
      </trkpt>
      <trkpt lat="42.3366808" lon="2.3054382">
        <ele>1084.59997559</ele>
        <time>2021-03-30T10:24:03Z</time>
      </trkpt>
      <trkpt lat="42.3366103" lon="2.3054889">
        <ele>1084.18005371</ele>
        <time>2021-03-30T10:24:04Z</time>
      </trkpt>
      <trkpt lat="42.3365439" lon="2.3055455">
        <ele>1083.85998535</ele>
        <time>2021-03-30T10:24:05Z</time>
      </trkpt>
      <trkpt lat="42.3364776" lon="2.3056001">
        <ele>1083.65002441</ele>
        <time>2021-03-30T10:24:06Z</time>
      </trkpt>
      <trkpt lat="42.3364125" lon="2.3056578">
        <ele>1083.48999023</ele>
        <time>2021-03-30T10:24:07Z</time>
      </trkpt>
      <trkpt lat="42.3363456" lon="2.3057054">
        <ele>1083.31994629</ele>
        <time>2021-03-30T10:24:08Z</time>
      </trkpt>
      <trkpt lat="42.3362724" lon="2.3057425">
        <ele>1083.11999512</ele>
        <time>2021-03-30T10:24:09Z</time>
      </trkpt>
      <trkpt lat="42.3361974" lon="2.3057712">
        <ele>1082.88000488</ele>
        <time>2021-03-30T10:24:10Z</time>
      </trkpt>
      <trkpt lat="42.3361224" lon="2.3057931">
        <ele>1082.56994629</ele>
        <time>2021-03-30T10:24:11Z</time>
      </trkpt>
      <trkpt lat="42.3360516" lon="2.3058101">
        <ele>1082.18994141</ele>
        <time>2021-03-30T10:24:12Z</time>
      </trkpt>
      <trkpt lat="42.3359825" lon="2.3058276">
        <ele>1081.75</ele>
        <time>2021-03-30T10:24:13Z</time>
      </trkpt>
      <trkpt lat="42.3359105" lon="2.3058498">
        <ele>1081.26000977</ele>
        <time>2021-03-30T10:24:14Z</time>
      </trkpt>
      <trkpt lat="42.3358384" lon="2.3058834">
        <ele>1080.7800293</ele>
        <time>2021-03-30T10:24:15Z</time>
      </trkpt>
      <trkpt lat="42.335765" lon="2.3059194">
        <ele>1080.40002441</ele>
        <time>2021-03-30T10:24:16Z</time>
      </trkpt>
      <trkpt lat="42.3356932" lon="2.3059595">
        <ele>1080.07995605</ele>
        <time>2021-03-30T10:24:17Z</time>
      </trkpt>
      <trkpt lat="42.3356193" lon="2.3060051">
        <ele>1079.81005859</ele>
        <time>2021-03-30T10:24:18Z</time>
      </trkpt>
      <trkpt lat="42.3355466" lon="2.3060548">
        <ele>1079.56994629</ele>
        <time>2021-03-30T10:24:19Z</time>
      </trkpt>
      <trkpt lat="42.3354738" lon="2.3061086">
        <ele>1079.31005859</ele>
        <time>2021-03-30T10:24:20Z</time>
      </trkpt>
      <trkpt lat="42.335403" lon="2.3061683">
        <ele>1079.01000977</ele>
        <time>2021-03-30T10:24:21Z</time>
      </trkpt>
      <trkpt lat="42.3353328" lon="2.3062284">
        <ele>1078.64001465</ele>
        <time>2021-03-30T10:24:22Z</time>
      </trkpt>
      <trkpt lat="42.3352661" lon="2.3062905">
        <ele>1078.15002441</ele>
        <time>2021-03-30T10:24:23Z</time>
      </trkpt>
      <trkpt lat="42.3352004" lon="2.3063526">
        <ele>1077.56005859</ele>
        <time>2021-03-30T10:24:24Z</time>
      </trkpt>
      <trkpt lat="42.3351322" lon="2.3064119">
        <ele>1077.0300293</ele>
        <time>2021-03-30T10:24:25Z</time>
      </trkpt>
      <trkpt lat="42.335067" lon="2.3064751">
        <ele>1076.48999023</ele>
        <time>2021-03-30T10:24:26Z</time>
      </trkpt>
      <trkpt lat="42.335" lon="2.3065361">
        <ele>1075.91003418</ele>
        <time>2021-03-30T10:24:27Z</time>
      </trkpt>
      <trkpt lat="42.3349312" lon="2.3065996">
        <ele>1075.2199707</ele>
        <time>2021-03-30T10:24:28Z</time>
      </trkpt>
      <trkpt lat="42.3348639" lon="2.3066664">
        <ele>1074.59997559</ele>
        <time>2021-03-30T10:24:29Z</time>
      </trkpt>
      <trkpt lat="42.3347951" lon="2.306736">
        <ele>1074.04003906</ele>
        <time>2021-03-30T10:24:30Z</time>
      </trkpt>
      <trkpt lat="42.3347237" lon="2.3068039">
        <ele>1073.56994629</ele>
        <time>2021-03-30T10:24:31Z</time>
      </trkpt>
      <trkpt lat="42.3346523" lon="2.3068687">
        <ele>1073.11999512</ele>
        <time>2021-03-30T10:24:32Z</time>
      </trkpt>
      <trkpt lat="42.3345864" lon="2.3069385">
        <ele>1072.59997559</ele>
        <time>2021-03-30T10:24:33Z</time>
      </trkpt>
      <trkpt lat="42.3345152" lon="2.3069995">
        <ele>1072</ele>
        <time>2021-03-30T10:24:34Z</time>
      </trkpt>
      <trkpt lat="42.3344483" lon="2.3070653">
        <ele>1071.40002441</ele>
        <time>2021-03-30T10:24:35Z</time>
      </trkpt>
      <trkpt lat="42.3343766" lon="2.3071249">
        <ele>1070.88000488</ele>
        <time>2021-03-30T10:24:36Z</time>
      </trkpt>
      <trkpt lat="42.3343053" lon="2.3071839">
        <ele>1070.43994141</ele>
        <time>2021-03-30T10:24:37Z</time>
      </trkpt>
      <trkpt lat="42.3342397" lon="2.3072477">
        <ele>1070.02001953</ele>
        <time>2021-03-30T10:24:38Z</time>
      </trkpt>
      <trkpt lat="42.3341738" lon="2.3073079">
        <ele>1069.58996582</ele>
        <time>2021-03-30T10:24:39Z</time>
      </trkpt>
      <trkpt lat="42.3341085" lon="2.307365">
        <ele>1069.20996094</ele>
        <time>2021-03-30T10:24:40Z</time>
      </trkpt>
      <trkpt lat="42.3340451" lon="2.3074184">
        <ele>1068.90002441</ele>
        <time>2021-03-30T10:24:41Z</time>
      </trkpt>
      <trkpt lat="42.333991" lon="2.3074679">
        <ele>1068.61999512</ele>
        <time>2021-03-30T10:24:42Z</time>
      </trkpt>
      <trkpt lat="42.3339345" lon="2.3075162">
        <ele>1068.33996582</ele>
        <time>2021-03-30T10:24:43Z</time>
      </trkpt>
      <trkpt lat="42.3338762" lon="2.3075633">
        <ele>1068.0300293</ele>
        <time>2021-03-30T10:24:44Z</time>
      </trkpt>
      <trkpt lat="42.3338181" lon="2.30761">
        <ele>1067.75</ele>
        <time>2021-03-30T10:24:45Z</time>
      </trkpt>
      <trkpt lat="42.3337621" lon="2.3076547">
        <ele>1067.54003906</ele>
        <time>2021-03-30T10:24:46Z</time>
      </trkpt>
      <trkpt lat="42.3337057" lon="2.3076999">
        <ele>1067.35998535</ele>
        <time>2021-03-30T10:24:47Z</time>
      </trkpt>
      <trkpt lat="42.3336481" lon="2.3077455">
        <ele>1067.17004395</ele>
        <time>2021-03-30T10:24:48Z</time>
      </trkpt>
      <trkpt lat="42.3335889" lon="2.3077896">
        <ele>1066.93994141</ele>
        <time>2021-03-30T10:24:49Z</time>
      </trkpt>
      <trkpt lat="42.3335294" lon="2.3078371">
        <ele>1066.66003418</ele>
        <time>2021-03-30T10:24:50Z</time>
      </trkpt>
      <trkpt lat="42.3334712" lon="2.307886">
        <ele>1066.41003418</ele>
        <time>2021-03-30T10:24:51Z</time>
      </trkpt>
      <trkpt lat="42.3334168" lon="2.3079397">
        <ele>1066.18994141</ele>
        <time>2021-03-30T10:24:52Z</time>
      </trkpt>
      <trkpt lat="42.3333609" lon="2.3079977">
        <ele>1065.98999023</ele>
        <time>2021-03-30T10:24:53Z</time>
      </trkpt>
      <trkpt lat="42.3333066" lon="2.3080644">
        <ele>1065.81005859</ele>
        <time>2021-03-30T10:24:54Z</time>
      </trkpt>
      <trkpt lat="42.3332552" lon="2.3081352">
        <ele>1065.65002441</ele>
        <time>2021-03-30T10:24:55Z</time>
      </trkpt>
      <trkpt lat="42.3332015" lon="2.308205">
        <ele>1065.51000977</ele>
        <time>2021-03-30T10:24:56Z</time>
      </trkpt>
      <trkpt lat="42.3331447" lon="2.3082723">
        <ele>1065.38000488</ele>
        <time>2021-03-30T10:24:57Z</time>
      </trkpt>
      <trkpt lat="42.3330889" lon="2.3083413">
        <ele>1065.27001953</ele>
        <time>2021-03-30T10:24:58Z</time>
      </trkpt>
      <trkpt lat="42.3330331" lon="2.308407">
        <ele>1065.17004395</ele>
        <time>2021-03-30T10:24:59Z</time>
      </trkpt>
      <trkpt lat="42.3329772" lon="2.3084686">
        <ele>1065.07995605</ele>
        <time>2021-03-30T10:25:00Z</time>
      </trkpt>
      <trkpt lat="42.3329212" lon="2.3085302">
        <ele>1065</ele>
        <time>2021-03-30T10:25:01Z</time>
      </trkpt>
      <trkpt lat="42.3328598" lon="2.3085836">
        <ele>1064.93005371</ele>
        <time>2021-03-30T10:25:02Z</time>
      </trkpt>
      <trkpt lat="42.3327938" lon="2.3086372">
        <ele>1064.86999512</ele>
        <time>2021-03-30T10:25:03Z</time>
      </trkpt>
      <trkpt lat="42.3327256" lon="2.3086929">
        <ele>1064.81005859</ele>
        <time>2021-03-30T10:25:04Z</time>
      </trkpt>
      <trkpt lat="42.3326618" lon="2.3087511">
        <ele>1064.76000977</ele>
        <time>2021-03-30T10:25:05Z</time>
      </trkpt>
      <trkpt lat="42.3325973" lon="2.3088085">
        <ele>1064.70996094</ele>
        <time>2021-03-30T10:25:06Z</time>
      </trkpt>
      <trkpt lat="42.3325293" lon="2.3088641">
        <ele>1064.67004395</ele>
        <time>2021-03-30T10:25:07Z</time>
      </trkpt>
      <trkpt lat="42.3324605" lon="2.3089208">
        <ele>1064.64001465</ele>
        <time>2021-03-30T10:25:08Z</time>
      </trkpt>
      <trkpt lat="42.3323948" lon="2.3089808">
        <ele>1064.54003906</ele>
        <time>2021-03-30T10:25:09Z</time>
      </trkpt>
      <trkpt lat="42.33233" lon="2.3090448">
        <ele>1064.31994629</ele>
        <time>2021-03-30T10:25:10Z</time>
      </trkpt>
      <trkpt lat="42.3322677" lon="2.309109">
        <ele>1064</ele>
        <time>2021-03-30T10:25:11Z</time>
      </trkpt>
      <trkpt lat="42.332208" lon="2.3091754">
        <ele>1063.59997559</ele>
        <time>2021-03-30T10:25:12Z</time>
      </trkpt>
      <trkpt lat="42.3321519" lon="2.3092455">
        <ele>1063.14001465</ele>
        <time>2021-03-30T10:25:13Z</time>
      </trkpt>
      <trkpt lat="42.3320976" lon="2.3093161">
        <ele>1062.72998047</ele>
        <time>2021-03-30T10:25:14Z</time>
      </trkpt>
      <trkpt lat="42.3320435" lon="2.3093818">
        <ele>1062.35998535</ele>
        <time>2021-03-30T10:25:15Z</time>
      </trkpt>
      <trkpt lat="42.3319924" lon="2.3094436">
        <ele>1062.0300293</ele>
        <time>2021-03-30T10:25:16Z</time>
      </trkpt>
      <trkpt lat="42.331947" lon="2.3095049">
        <ele>1061.72998047</ele>
        <time>2021-03-30T10:25:17Z</time>
      </trkpt>
      <trkpt lat="42.331902" lon="2.3095678">
        <ele>1061.4699707</ele>
        <time>2021-03-30T10:25:18Z</time>
      </trkpt>
      <trkpt lat="42.3318572" lon="2.3096231">
        <ele>1061.22998047</ele>
        <time>2021-03-30T10:25:19Z</time>
      </trkpt>
      <trkpt lat="42.3318151" lon="2.3096851">
        <ele>1061.02001953</ele>
        <time>2021-03-30T10:25:20Z</time>
      </trkpt>
      <trkpt lat="42.3317737" lon="2.3097414">
        <ele>1060.82995605</ele>
        <time>2021-03-30T10:25:21Z</time>
      </trkpt>
      <trkpt lat="42.3317349" lon="2.3098031">
        <ele>1060.67004395</ele>
        <time>2021-03-30T10:25:22Z</time>
      </trkpt>
      <trkpt lat="42.3316948" lon="2.3098616">
        <ele>1060.52001953</ele>
        <time>2021-03-30T10:25:23Z</time>
      </trkpt>
      <trkpt lat="42.3316565" lon="2.309922">
        <ele>1060.39001465</ele>
        <time>2021-03-30T10:25:24Z</time>
      </trkpt>
      <trkpt lat="42.3316154" lon="2.3099779">
        <ele>1060.27001953</ele>
        <time>2021-03-30T10:25:25Z</time>
      </trkpt>
      <trkpt lat="42.3315708" lon="2.3100302">
        <ele>1060.16003418</ele>
        <time>2021-03-30T10:25:26Z</time>
      </trkpt>
      <trkpt lat="42.3315271" lon="2.3100811">
        <ele>1060.06994629</ele>
        <time>2021-03-30T10:25:27Z</time>
      </trkpt>
      <trkpt lat="42.331489" lon="2.310135">
        <ele>1059.97998047</ele>
        <time>2021-03-30T10:25:28Z</time>
      </trkpt>
      <trkpt lat="42.3314501" lon="2.3101844">
        <ele>1059.91003418</ele>
        <time>2021-03-30T10:25:29Z</time>
      </trkpt>
      <trkpt lat="42.3314111" lon="2.3102373">
        <ele>1059.83996582</ele>
        <time>2021-03-30T10:25:30Z</time>
      </trkpt>
      <trkpt lat="42.3313712" lon="2.3102891">
        <ele>1059.7800293</ele>
        <time>2021-03-30T10:25:31Z</time>
      </trkpt>
      <trkpt lat="42.3313301" lon="2.3103423">
        <ele>1059.72998047</ele>
        <time>2021-03-30T10:25:32Z</time>
      </trkpt>
      <trkpt lat="42.3312872" lon="2.3104026">
        <ele>1059.68005371</ele>
        <time>2021-03-30T10:25:33Z</time>
      </trkpt>
      <trkpt lat="42.3312456" lon="2.3104624">
        <ele>1059.64001465</ele>
        <time>2021-03-30T10:25:34Z</time>
      </trkpt>
      <trkpt lat="42.3312058" lon="2.3105268">
        <ele>1059.59997559</ele>
        <time>2021-03-30T10:25:35Z</time>
      </trkpt>
      <trkpt lat="42.331164" lon="2.3105856">
        <ele>1059.56005859</ele>
        <time>2021-03-30T10:25:36Z</time>
      </trkpt>
      <trkpt lat="42.331123" lon="2.3106424">
        <ele>1059.5300293</ele>
        <time>2021-03-30T10:25:37Z</time>
      </trkpt>
      <trkpt lat="42.3310814" lon="2.3107017">
        <ele>1059.51000977</ele>
        <time>2021-03-30T10:25:38Z</time>
      </trkpt>
      <trkpt lat="42.3310415" lon="2.3107609">
        <ele>1059.45996094</ele>
        <time>2021-03-30T10:25:39Z</time>
      </trkpt>
      <trkpt lat="42.3309965" lon="2.3108153">
        <ele>1059.40002441</ele>
        <time>2021-03-30T10:25:40Z</time>
      </trkpt>
      <trkpt lat="42.3309504" lon="2.3108626">
        <ele>1059.36999512</ele>
        <time>2021-03-30T10:25:41Z</time>
      </trkpt>
      <trkpt lat="42.3309027" lon="2.3109053">
        <ele>1059.35998535</ele>
        <time>2021-03-30T10:25:42Z</time>
      </trkpt>
      <trkpt lat="42.3308549" lon="2.3109433">
        <ele>1059.34997559</ele>
        <time>2021-03-30T10:25:43Z</time>
      </trkpt>
      <trkpt lat="42.3308043" lon="2.3109813">
        <ele>1059.34997559</ele>
        <time>2021-03-30T10:25:44Z</time>
      </trkpt>
      <trkpt lat="42.3307457" lon="2.3110056">
        <ele>1059.29003906</ele>
        <time>2021-03-30T10:25:45Z</time>
      </trkpt>
      <trkpt lat="42.3306861" lon="2.3110236">
        <ele>1059.13000488</ele>
        <time>2021-03-30T10:25:46Z</time>
      </trkpt>
      <trkpt lat="42.330627" lon="2.3110444">
        <ele>1058.86999512</ele>
        <time>2021-03-30T10:25:47Z</time>
      </trkpt>
      <trkpt lat="42.3305661" lon="2.311071">
        <ele>1058.52001953</ele>
        <time>2021-03-30T10:25:48Z</time>
      </trkpt>
      <trkpt lat="42.330501" lon="2.3110984">
        <ele>1058.08996582</ele>
        <time>2021-03-30T10:25:49Z</time>
      </trkpt>
      <trkpt lat="42.330429" lon="2.3111268">
        <ele>1057.68005371</ele>
        <time>2021-03-30T10:25:50Z</time>
      </trkpt>
      <trkpt lat="42.3303516" lon="2.3111563">
        <ele>1057.32995605</ele>
        <time>2021-03-30T10:25:51Z</time>
      </trkpt>
      <trkpt lat="42.330273" lon="2.3111893">
        <ele>1057.01000977</ele>
        <time>2021-03-30T10:25:52Z</time>
      </trkpt>
      <trkpt lat="42.3301972" lon="2.3112244">
        <ele>1056.7199707</ele>
        <time>2021-03-30T10:25:53Z</time>
      </trkpt>
      <trkpt lat="42.33013" lon="2.3112555">
        <ele>1056.44995117</ele>
        <time>2021-03-30T10:25:54Z</time>
      </trkpt>
      <trkpt lat="42.3300653" lon="2.3113094">
        <ele>1056.20996094</ele>
        <time>2021-03-30T10:25:55Z</time>
      </trkpt>
      <trkpt lat="42.3300067" lon="2.3113726">
        <ele>1056</ele>
        <time>2021-03-30T10:25:56Z</time>
      </trkpt>
      <trkpt lat="42.3299495" lon="2.3114409">
        <ele>1055.81005859</ele>
        <time>2021-03-30T10:25:57Z</time>
      </trkpt>
      <trkpt lat="42.3298949" lon="2.3115185">
        <ele>1055.55004883</ele>
        <time>2021-03-30T10:25:58Z</time>
      </trkpt>
      <trkpt lat="42.3298516" lon="2.3116018">
        <ele>1055.20996094</ele>
        <time>2021-03-30T10:25:59Z</time>
      </trkpt>
      <trkpt lat="42.3298127" lon="2.3116881">
        <ele>1054.82995605</ele>
        <time>2021-03-30T10:26:00Z</time>
      </trkpt>
      <trkpt lat="42.3297729" lon="2.3117765">
        <ele>1054.40002441</ele>
        <time>2021-03-30T10:26:01Z</time>
      </trkpt>
      <trkpt lat="42.3297359" lon="2.3118674">
        <ele>1053.94995117</ele>
        <time>2021-03-30T10:26:02Z</time>
      </trkpt>
      <trkpt lat="42.3296969" lon="2.3119562">
        <ele>1053.4699707</ele>
        <time>2021-03-30T10:26:03Z</time>
      </trkpt>
      <trkpt lat="42.3296551" lon="2.3120434">
        <ele>1053.0300293</ele>
        <time>2021-03-30T10:26:04Z</time>
      </trkpt>
      <trkpt lat="42.3296059" lon="2.312127">
        <ele>1052.75</ele>
        <time>2021-03-30T10:26:05Z</time>
      </trkpt>
      <trkpt lat="42.3295666" lon="2.3122059">
        <ele>1052.56994629</ele>
        <time>2021-03-30T10:26:06Z</time>
      </trkpt>
      <trkpt lat="42.3295304" lon="2.3122884">
        <ele>1052.42004395</ele>
        <time>2021-03-30T10:26:07Z</time>
      </trkpt>
      <trkpt lat="42.3294944" lon="2.3123707">
        <ele>1052.25</ele>
        <time>2021-03-30T10:26:08Z</time>
      </trkpt>
      <trkpt lat="42.3294651" lon="2.3124577">
        <ele>1052.02001953</ele>
        <time>2021-03-30T10:26:09Z</time>
      </trkpt>
      <trkpt lat="42.3294366" lon="2.3125448">
        <ele>1051.76000977</ele>
        <time>2021-03-30T10:26:10Z</time>
      </trkpt>
      <trkpt lat="42.3294066" lon="2.3126306">
        <ele>1051.48999023</ele>
        <time>2021-03-30T10:26:11Z</time>
      </trkpt>
      <trkpt lat="42.3293829" lon="2.3127182">
        <ele>1051.23999023</ele>
        <time>2021-03-30T10:26:12Z</time>
      </trkpt>
      <trkpt lat="42.3293579" lon="2.3128046">
        <ele>1051.02001953</ele>
        <time>2021-03-30T10:26:13Z</time>
      </trkpt>
      <trkpt lat="42.3293345" lon="2.3128915">
        <ele>1050.81994629</ele>
        <time>2021-03-30T10:26:14Z</time>
      </trkpt>
      <trkpt lat="42.3293128" lon="2.3129794">
        <ele>1050.64001465</ele>
        <time>2021-03-30T10:26:15Z</time>
      </trkpt>
      <trkpt lat="42.3292897" lon="2.3130662">
        <ele>1050.48999023</ele>
        <time>2021-03-30T10:26:16Z</time>
      </trkpt>
      <trkpt lat="42.3292674" lon="2.3131527">
        <ele>1050.34997559</ele>
        <time>2021-03-30T10:26:17Z</time>
      </trkpt>
      <trkpt lat="42.3292468" lon="2.3132375">
        <ele>1050.2199707</ele>
        <time>2021-03-30T10:26:18Z</time>
      </trkpt>
      <trkpt lat="42.3292275" lon="2.3133255">
        <ele>1050.10998535</ele>
        <time>2021-03-30T10:26:19Z</time>
      </trkpt>
      <trkpt lat="42.3292071" lon="2.3134119">
        <ele>1050.01000977</ele>
        <time>2021-03-30T10:26:20Z</time>
      </trkpt>
      <trkpt lat="42.3291876" lon="2.3134987">
        <ele>1049.92004395</ele>
        <time>2021-03-30T10:26:21Z</time>
      </trkpt>
      <trkpt lat="42.3291636" lon="2.3135831">
        <ele>1049.83996582</ele>
        <time>2021-03-30T10:26:22Z</time>
      </trkpt>
      <trkpt lat="42.3291404" lon="2.3136692">
        <ele>1049.76000977</ele>
        <time>2021-03-30T10:26:23Z</time>
      </trkpt>
      <trkpt lat="42.3291185" lon="2.3137597">
        <ele>1049.65002441</ele>
        <time>2021-03-30T10:26:24Z</time>
      </trkpt>
      <trkpt lat="42.3290927" lon="2.3138513">
        <ele>1049.51000977</ele>
        <time>2021-03-30T10:26:25Z</time>
      </trkpt>
      <trkpt lat="42.3290626" lon="2.3139443">
        <ele>1049.33996582</ele>
        <time>2021-03-30T10:26:26Z</time>
      </trkpt>
      <trkpt lat="42.3290295" lon="2.3140396">
        <ele>1049.11999512</ele>
        <time>2021-03-30T10:26:27Z</time>
      </trkpt>
      <trkpt lat="42.3289978" lon="2.3141389">
        <ele>1048.86999512</ele>
        <time>2021-03-30T10:26:28Z</time>
      </trkpt>
      <trkpt lat="42.3289653" lon="2.3142407">
        <ele>1048.57995605</ele>
        <time>2021-03-30T10:26:29Z</time>
      </trkpt>
      <trkpt lat="42.3289343" lon="2.3143447">
        <ele>1048.25</ele>
        <time>2021-03-30T10:26:30Z</time>
      </trkpt>
      <trkpt lat="42.3288962" lon="2.3144434">
        <ele>1047.91003418</ele>
        <time>2021-03-30T10:26:31Z</time>
      </trkpt>
      <trkpt lat="42.3288604" lon="2.3145413">
        <ele>1047.52001953</ele>
        <time>2021-03-30T10:26:32Z</time>
      </trkpt>
      <trkpt lat="42.3288276" lon="2.3146376">
        <ele>1047.16003418</ele>
        <time>2021-03-30T10:26:33Z</time>
      </trkpt>
      <trkpt lat="42.3287969" lon="2.3147327">
        <ele>1046.82995605</ele>
        <time>2021-03-30T10:26:34Z</time>
      </trkpt>
      <trkpt lat="42.328764" lon="2.314826">
        <ele>1046.54003906</ele>
        <time>2021-03-30T10:26:35Z</time>
      </trkpt>
      <trkpt lat="42.3287383" lon="2.3149208">
        <ele>1046.2800293</ele>
        <time>2021-03-30T10:26:36Z</time>
      </trkpt>
      <trkpt lat="42.3287147" lon="2.3150141">
        <ele>1046.05004883</ele>
        <time>2021-03-30T10:26:37Z</time>
      </trkpt>
      <trkpt lat="42.3287006" lon="2.3151092">
        <ele>1045.83996582</ele>
        <time>2021-03-30T10:26:38Z</time>
      </trkpt>
      <trkpt lat="42.3286826" lon="2.3151987">
        <ele>1045.66003418</ele>
        <time>2021-03-30T10:26:39Z</time>
      </trkpt>
      <trkpt lat="42.3286638" lon="2.3152863">
        <ele>1045.48999023</ele>
        <time>2021-03-30T10:26:40Z</time>
      </trkpt>
      <trkpt lat="42.3286473" lon="2.3153728">
        <ele>1045.33996582</ele>
        <time>2021-03-30T10:26:41Z</time>
      </trkpt>
      <trkpt lat="42.3286329" lon="2.3154567">
        <ele>1045.20996094</ele>
        <time>2021-03-30T10:26:42Z</time>
      </trkpt>
      <trkpt lat="42.328623" lon="2.3155395">
        <ele>1045.09997559</ele>
        <time>2021-03-30T10:26:43Z</time>
      </trkpt>
      <trkpt lat="42.3286166" lon="2.3156222">
        <ele>1044.98999023</ele>
        <time>2021-03-30T10:26:44Z</time>
      </trkpt>
      <trkpt lat="42.3286131" lon="2.3157058">
        <ele>1044.90002441</ele>
        <time>2021-03-30T10:26:45Z</time>
      </trkpt>
      <trkpt lat="42.3286078" lon="2.3157882">
        <ele>1044.81994629</ele>
        <time>2021-03-30T10:26:46Z</time>
      </trkpt>
      <trkpt lat="42.3286067" lon="2.3158687">
        <ele>1044.73999023</ele>
        <time>2021-03-30T10:26:47Z</time>
      </trkpt>
      <trkpt lat="42.3286012" lon="2.3159464">
        <ele>1044.66003418</ele>
        <time>2021-03-30T10:26:48Z</time>
      </trkpt>
      <trkpt lat="42.3285971" lon="2.3160246">
        <ele>1044.58996582</ele>
        <time>2021-03-30T10:26:49Z</time>
      </trkpt>
      <trkpt lat="42.3285932" lon="2.3161039">
        <ele>1044.51000977</ele>
        <time>2021-03-30T10:26:50Z</time>
      </trkpt>
      <trkpt lat="42.3285869" lon="2.316187">
        <ele>1044.43994141</ele>
        <time>2021-03-30T10:26:51Z</time>
      </trkpt>
      <trkpt lat="42.3285758" lon="2.3162732">
        <ele>1044.35998535</ele>
        <time>2021-03-30T10:26:52Z</time>
      </trkpt>
      <trkpt lat="42.3285606" lon="2.3163616">
        <ele>1043.56994629</ele>
        <time>2021-03-30T10:26:53Z</time>
      </trkpt>
      <trkpt lat="42.328547" lon="2.3164556">
        <ele>1043.23999023</ele>
        <time>2021-03-30T10:26:54Z</time>
      </trkpt>
      <trkpt lat="42.3285174" lon="2.3165455">
        <ele>1042.98999023</ele>
        <time>2021-03-30T10:26:55Z</time>
      </trkpt>
      <trkpt lat="42.3284857" lon="2.3166523">
        <ele>1042.47998047</ele>
        <time>2021-03-30T10:26:56Z</time>
      </trkpt>
      <trkpt lat="42.3284473" lon="2.3167572">
        <ele>1042.17004395</ele>
        <time>2021-03-30T10:26:57Z</time>
      </trkpt>
      <trkpt lat="42.3284099" lon="2.3168678">
        <ele>1041.82995605</ele>
        <time>2021-03-30T10:26:58Z</time>
      </trkpt>
      <trkpt lat="42.3283657" lon="2.3169676">
        <ele>1041.48999023</ele>
        <time>2021-03-30T10:26:59Z</time>
      </trkpt>
      <trkpt lat="42.3283232" lon="2.3170654">
        <ele>1041.11999512</ele>
        <time>2021-03-30T10:27:00Z</time>
      </trkpt>
      <trkpt lat="42.3282833" lon="2.3171486">
        <ele>1039.2800293</ele>
        <time>2021-03-30T10:27:01Z</time>
      </trkpt>
      <trkpt lat="42.3282399" lon="2.3172367">
        <ele>1039.08996582</ele>
        <time>2021-03-30T10:27:02Z</time>
      </trkpt>
      <trkpt lat="42.3281948" lon="2.3173233">
        <ele>1039.22998047</ele>
        <time>2021-03-30T10:27:03Z</time>
      </trkpt>
      <trkpt lat="42.3281472" lon="2.3174079">
        <ele>1039.92004395</ele>
        <time>2021-03-30T10:27:04Z</time>
      </trkpt>
      <trkpt lat="42.3281006" lon="2.3174892">
        <ele>1040.16003418</ele>
        <time>2021-03-30T10:27:05Z</time>
      </trkpt>
      <trkpt lat="42.3280548" lon="2.3175702">
        <ele>1039.89001465</ele>
        <time>2021-03-30T10:27:06Z</time>
      </trkpt>
      <trkpt lat="42.3280108" lon="2.3176524">
        <ele>1039.16003418</ele>
        <time>2021-03-30T10:27:07Z</time>
      </trkpt>
      <trkpt lat="42.3279671" lon="2.3177331">
        <ele>1039.07995605</ele>
        <time>2021-03-30T10:27:08Z</time>
      </trkpt>
      <trkpt lat="42.3279241" lon="2.3178128">
        <ele>1039.06994629</ele>
        <time>2021-03-30T10:27:09Z</time>
      </trkpt>
      <trkpt lat="42.3278823" lon="2.3178907">
        <ele>1039.06994629</ele>
        <time>2021-03-30T10:27:10Z</time>
      </trkpt>
      <trkpt lat="42.3278417" lon="2.3179667">
        <ele>1039.06994629</ele>
        <time>2021-03-30T10:27:11Z</time>
      </trkpt>
      <trkpt lat="42.3278012" lon="2.3180396">
        <ele>1039.06994629</ele>
        <time>2021-03-30T10:27:12Z</time>
      </trkpt>
      <trkpt lat="42.3277608" lon="2.318112">
        <ele>1039.06994629</ele>
        <time>2021-03-30T10:27:13Z</time>
      </trkpt>
      <trkpt lat="42.3277213" lon="2.3181838">
        <ele>1039</ele>
        <time>2021-03-30T10:27:14Z</time>
      </trkpt>
      <trkpt lat="42.3276822" lon="2.3182542">
        <ele>1038.81005859</ele>
        <time>2021-03-30T10:27:15Z</time>
      </trkpt>
      <trkpt lat="42.3276443" lon="2.3183252">
        <ele>1038.55004883</ele>
        <time>2021-03-30T10:27:16Z</time>
      </trkpt>
      <trkpt lat="42.3276097" lon="2.3183974">
        <ele>1038.23999023</ele>
        <time>2021-03-30T10:27:17Z</time>
      </trkpt>
      <trkpt lat="42.3275772" lon="2.3184713">
        <ele>1037.91003418</ele>
        <time>2021-03-30T10:27:18Z</time>
      </trkpt>
      <trkpt lat="42.3275437" lon="2.3185418">
        <ele>1037.56994629</ele>
        <time>2021-03-30T10:27:19Z</time>
      </trkpt>
      <trkpt lat="42.3275156" lon="2.3186154">
        <ele>1037.20996094</ele>
        <time>2021-03-30T10:27:20Z</time>
      </trkpt>
      <trkpt lat="42.3274867" lon="2.3186913">
        <ele>1036.83996582</ele>
        <time>2021-03-30T10:27:21Z</time>
      </trkpt>
      <trkpt lat="42.3274576" lon="2.3187679">
        <ele>1036.5</ele>
        <time>2021-03-30T10:27:22Z</time>
      </trkpt>
      <trkpt lat="42.327432" lon="2.3188481">
        <ele>1036.19995117</ele>
        <time>2021-03-30T10:27:23Z</time>
      </trkpt>
      <trkpt lat="42.3274048" lon="2.318927">
        <ele>1035.93994141</ele>
        <time>2021-03-30T10:27:24Z</time>
      </trkpt>
      <trkpt lat="42.3273755" lon="2.3190039">
        <ele>1035.7199707</ele>
        <time>2021-03-30T10:27:25Z</time>
      </trkpt>
      <trkpt lat="42.3273502" lon="2.319083">
        <ele>1035.5300293</ele>
        <time>2021-03-30T10:27:26Z</time>
      </trkpt>
      <trkpt lat="42.3273238" lon="2.3191618">
        <ele>1035.35998535</ele>
        <time>2021-03-30T10:27:27Z</time>
      </trkpt>
      <trkpt lat="42.3272961" lon="2.3192385">
        <ele>1035.20996094</ele>
        <time>2021-03-30T10:27:28Z</time>
      </trkpt>
      <trkpt lat="42.3272711" lon="2.3193165">
        <ele>1035.07995605</ele>
        <time>2021-03-30T10:27:29Z</time>
      </trkpt>
      <trkpt lat="42.3272447" lon="2.3193932">
        <ele>1034.95996094</ele>
        <time>2021-03-30T10:27:30Z</time>
      </trkpt>
      <trkpt lat="42.3272174" lon="2.3194697">
        <ele>1034.85998535</ele>
        <time>2021-03-30T10:27:31Z</time>
      </trkpt>
      <trkpt lat="42.327191" lon="2.3195458">
        <ele>1034.0300293</ele>
        <time>2021-03-30T10:27:32Z</time>
      </trkpt>
      <trkpt lat="42.3271656" lon="2.3196219">
        <ele>1033.69995117</ele>
        <time>2021-03-30T10:27:33Z</time>
      </trkpt>
      <trkpt lat="42.3271409" lon="2.3196974">
        <ele>1033.65002441</ele>
        <time>2021-03-30T10:27:34Z</time>
      </trkpt>
      <trkpt lat="42.3271144" lon="2.3197715">
        <ele>1033.76000977</ele>
        <time>2021-03-30T10:27:35Z</time>
      </trkpt>
      <trkpt lat="42.3270898" lon="2.3198465">
        <ele>1033.84997559</ele>
        <time>2021-03-30T10:27:36Z</time>
      </trkpt>
      <trkpt lat="42.3270669" lon="2.3199173">
        <ele>1033.89001465</ele>
        <time>2021-03-30T10:27:37Z</time>
      </trkpt>
      <trkpt lat="42.3270429" lon="2.3199866">
        <ele>1033.92004395</ele>
        <time>2021-03-30T10:27:38Z</time>
      </trkpt>
      <trkpt lat="42.3270171" lon="2.3200549">
        <ele>1033.93994141</ele>
        <time>2021-03-30T10:27:39Z</time>
      </trkpt>
      <trkpt lat="42.3269934" lon="2.3201276">
        <ele>1033.98999023</ele>
        <time>2021-03-30T10:27:40Z</time>
      </trkpt>
      <trkpt lat="42.3269699" lon="2.3201973">
        <ele>1034.06005859</ele>
        <time>2021-03-30T10:27:41Z</time>
      </trkpt>
      <trkpt lat="42.3269396" lon="2.3202776">
        <ele>1034.09997559</ele>
        <time>2021-03-30T10:27:42Z</time>
      </trkpt>
      <trkpt lat="42.3269128" lon="2.3203537">
        <ele>1034.07995605</ele>
        <time>2021-03-30T10:27:43Z</time>
      </trkpt>
      <trkpt lat="42.3268883" lon="2.320422">
        <ele>1034.01000977</ele>
        <time>2021-03-30T10:27:44Z</time>
      </trkpt>
      <trkpt lat="42.3268594" lon="2.3204925">
        <ele>1033.89001465</ele>
        <time>2021-03-30T10:27:45Z</time>
      </trkpt>
      <trkpt lat="42.3268408" lon="2.3205438">
        <ele>1033.72998047</ele>
        <time>2021-03-30T10:27:46Z</time>
      </trkpt>
      <trkpt lat="42.3268171" lon="2.3206125">
        <ele>1033.54003906</ele>
        <time>2021-03-30T10:27:47Z</time>
      </trkpt>
      <trkpt lat="42.3267966" lon="2.3206803">
        <ele>1033.33996582</ele>
        <time>2021-03-30T10:27:48Z</time>
      </trkpt>
      <trkpt lat="42.3267831" lon="2.3207299">
        <ele>1033.10998535</ele>
        <time>2021-03-30T10:27:49Z</time>
      </trkpt>
      <trkpt lat="42.3267609" lon="2.3207852">
        <ele>1032.89001465</ele>
        <time>2021-03-30T10:27:50Z</time>
      </trkpt>
      <trkpt lat="42.3267442" lon="2.3208303">
        <ele>1032.65002441</ele>
        <time>2021-03-30T10:27:51Z</time>
      </trkpt>
      <trkpt lat="42.3267222" lon="2.3209004">
        <ele>1032.40002441</ele>
        <time>2021-03-30T10:27:52Z</time>
      </trkpt>
      <trkpt lat="42.3267021" lon="2.3209563">
        <ele>1032.14001465</ele>
        <time>2021-03-30T10:27:53Z</time>
      </trkpt>
      <trkpt lat="42.3266868" lon="2.3210205">
        <ele>1031.86999512</ele>
        <time>2021-03-30T10:27:54Z</time>
      </trkpt>
      <trkpt lat="42.3266672" lon="2.3210955">
        <ele>1031.58996582</ele>
        <time>2021-03-30T10:27:55Z</time>
      </trkpt>
      <trkpt lat="42.3266509" lon="2.3211628">
        <ele>1031.31005859</ele>
        <time>2021-03-30T10:27:56Z</time>
      </trkpt>
      <trkpt lat="42.3266363" lon="2.321226">
        <ele>1031.14001465</ele>
        <time>2021-03-30T10:27:57Z</time>
      </trkpt>
      <trkpt lat="42.3266137" lon="2.321314">
        <ele>1031.09997559</ele>
        <time>2021-03-30T10:27:58Z</time>
      </trkpt>
      <trkpt lat="42.3266005" lon="2.3213691">
        <ele>1031.18005371</ele>
        <time>2021-03-30T10:27:59Z</time>
      </trkpt>
      <trkpt lat="42.3265838" lon="2.3214427">
        <ele>1031.31994629</ele>
        <time>2021-03-30T10:28:00Z</time>
      </trkpt>
      <trkpt lat="42.3265664" lon="2.321509">
        <ele>1031.38000488</ele>
        <time>2021-03-30T10:28:01Z</time>
      </trkpt>
      <trkpt lat="42.3265493" lon="2.3215911">
        <ele>1031.32995605</ele>
        <time>2021-03-30T10:28:02Z</time>
      </trkpt>
      <trkpt lat="42.3265332" lon="2.3216659">
        <ele>1031.17004395</ele>
        <time>2021-03-30T10:28:03Z</time>
      </trkpt>
      <trkpt lat="42.3265097" lon="2.3217566">
        <ele>1030.94995117</ele>
        <time>2021-03-30T10:28:04Z</time>
      </trkpt>
      <trkpt lat="42.3264895" lon="2.3218529">
        <ele>1030.72998047</ele>
        <time>2021-03-30T10:28:05Z</time>
      </trkpt>
      <trkpt lat="42.3264713" lon="2.3219443">
        <ele>1030.54003906</ele>
        <time>2021-03-30T10:28:06Z</time>
      </trkpt>
      <trkpt lat="42.326451" lon="2.3220435">
        <ele>1030.36999512</ele>
        <time>2021-03-30T10:28:07Z</time>
      </trkpt>
      <trkpt lat="42.3264354" lon="2.3221382">
        <ele>1030.2199707</ele>
        <time>2021-03-30T10:28:08Z</time>
      </trkpt>
      <trkpt lat="42.32642" lon="2.3222381">
        <ele>1030.08996582</ele>
        <time>2021-03-30T10:28:09Z</time>
      </trkpt>
      <trkpt lat="42.3264069" lon="2.3223313">
        <ele>1029.93994141</ele>
        <time>2021-03-30T10:28:10Z</time>
      </trkpt>
      <trkpt lat="42.3263938" lon="2.3224275">
        <ele>1029.86999512</ele>
        <time>2021-03-30T10:28:11Z</time>
      </trkpt>
      <trkpt lat="42.3263805" lon="2.3225217">
        <ele>1029.76000977</ele>
        <time>2021-03-30T10:28:12Z</time>
      </trkpt>
      <trkpt lat="42.3263624" lon="2.3226182">
        <ele>1029.09997559</ele>
        <time>2021-03-30T10:28:13Z</time>
      </trkpt>
      <trkpt lat="42.3263449" lon="2.322716">
        <ele>1028.47998047</ele>
        <time>2021-03-30T10:28:14Z</time>
      </trkpt>
      <trkpt lat="42.3263287" lon="2.322809">
        <ele>1027.93994141</ele>
        <time>2021-03-30T10:28:15Z</time>
      </trkpt>
      <trkpt lat="42.326314" lon="2.3228979">
        <ele>1027.47998047</ele>
        <time>2021-03-30T10:28:16Z</time>
      </trkpt>
      <trkpt lat="42.3263014" lon="2.3229863">
        <ele>1027.06994629</ele>
        <time>2021-03-30T10:28:17Z</time>
      </trkpt>
      <trkpt lat="42.3262899" lon="2.3230758">
        <ele>1026.7199707</ele>
        <time>2021-03-30T10:28:18Z</time>
      </trkpt>
      <trkpt lat="42.326277" lon="2.3231637">
        <ele>1026.40002441</ele>
        <time>2021-03-30T10:28:19Z</time>
      </trkpt>
      <trkpt lat="42.3262635" lon="2.3232508">
        <ele>1026.13000488</ele>
        <time>2021-03-30T10:28:20Z</time>
      </trkpt>
      <trkpt lat="42.3262534" lon="2.323337">
        <ele>1025.89001465</ele>
        <time>2021-03-30T10:28:21Z</time>
      </trkpt>
      <trkpt lat="42.3262407" lon="2.3234233">
        <ele>1025.67004395</ele>
        <time>2021-03-30T10:28:22Z</time>
      </trkpt>
      <trkpt lat="42.3262247" lon="2.3235085">
        <ele>1025.47998047</ele>
        <time>2021-03-30T10:28:23Z</time>
      </trkpt>
      <trkpt lat="42.3262051" lon="2.3235938">
        <ele>1025.31005859</ele>
        <time>2021-03-30T10:28:24Z</time>
      </trkpt>
      <trkpt lat="42.3261873" lon="2.3236791">
        <ele>1025.16003418</ele>
        <time>2021-03-30T10:28:25Z</time>
      </trkpt>
      <trkpt lat="42.3261721" lon="2.3237659">
        <ele>1025.02001953</ele>
        <time>2021-03-30T10:28:26Z</time>
      </trkpt>
      <trkpt lat="42.3261567" lon="2.3238508">
        <ele>1024.90002441</ele>
        <time>2021-03-30T10:28:27Z</time>
      </trkpt>
      <trkpt lat="42.3261448" lon="2.3239374">
        <ele>1024.80004883</ele>
        <time>2021-03-30T10:28:28Z</time>
      </trkpt>
      <trkpt lat="42.3261304" lon="2.3240241">
        <ele>1024.69995117</ele>
        <time>2021-03-30T10:28:29Z</time>
      </trkpt>
      <trkpt lat="42.3261154" lon="2.3241091">
        <ele>1024.61999512</ele>
        <time>2021-03-30T10:28:30Z</time>
      </trkpt>
      <trkpt lat="42.3260972" lon="2.3241936">
        <ele>1024.54003906</ele>
        <time>2021-03-30T10:28:31Z</time>
      </trkpt>
      <trkpt lat="42.3260789" lon="2.3242802">
        <ele>1024.44995117</ele>
        <time>2021-03-30T10:28:32Z</time>
      </trkpt>
      <trkpt lat="42.3260621" lon="2.3243676">
        <ele>1024.32995605</ele>
        <time>2021-03-30T10:28:33Z</time>
      </trkpt>
      <trkpt lat="42.3260459" lon="2.3244544">
        <ele>1024.18994141</ele>
        <time>2021-03-30T10:28:34Z</time>
      </trkpt>
      <trkpt lat="42.3260299" lon="2.3245416">
        <ele>1024.04003906</ele>
        <time>2021-03-30T10:28:35Z</time>
      </trkpt>
      <trkpt lat="42.3260162" lon="2.3246281">
        <ele>1023.86999512</ele>
        <time>2021-03-30T10:28:36Z</time>
      </trkpt>
      <trkpt lat="42.3259996" lon="2.3247114">
        <ele>1023.69000244</ele>
        <time>2021-03-30T10:28:37Z</time>
      </trkpt>
      <trkpt lat="42.3259831" lon="2.3247919">
        <ele>1023.5</ele>
        <time>2021-03-30T10:28:38Z</time>
      </trkpt>
      <trkpt lat="42.3259676" lon="2.324871">
        <ele>1023.22998047</ele>
        <time>2021-03-30T10:28:39Z</time>
      </trkpt>
      <trkpt lat="42.3259531" lon="2.3249489">
        <ele>1022.90002441</ele>
        <time>2021-03-30T10:28:40Z</time>
      </trkpt>
      <trkpt lat="42.325936" lon="2.3250262">
        <ele>1022.51000977</ele>
        <time>2021-03-30T10:28:41Z</time>
      </trkpt>
      <trkpt lat="42.3259212" lon="2.3251034">
        <ele>1022.14001465</ele>
        <time>2021-03-30T10:28:42Z</time>
      </trkpt>
      <trkpt lat="42.3259089" lon="2.3251818">
        <ele>1021.84997559</ele>
        <time>2021-03-30T10:28:43Z</time>
      </trkpt>
      <trkpt lat="42.3258946" lon="2.3252613">
        <ele>1021.61999512</ele>
        <time>2021-03-30T10:28:44Z</time>
      </trkpt>
      <trkpt lat="42.3258815" lon="2.3253435">
        <ele>1021.44000244</ele>
        <time>2021-03-30T10:28:45Z</time>
      </trkpt>
      <trkpt lat="42.3258696" lon="2.3254246">
        <ele>1021.22998047</ele>
        <time>2021-03-30T10:28:46Z</time>
      </trkpt>
      <trkpt lat="42.3258515" lon="2.3255013">
        <ele>1021.02001953</ele>
        <time>2021-03-30T10:28:47Z</time>
      </trkpt>
      <trkpt lat="42.3258348" lon="2.3255773">
        <ele>1020.78997803</ele>
        <time>2021-03-30T10:28:48Z</time>
      </trkpt>
      <trkpt lat="42.3258194" lon="2.3256522">
        <ele>1020.59002686</ele>
        <time>2021-03-30T10:28:49Z</time>
      </trkpt>
      <trkpt lat="42.3258099" lon="2.3257264">
        <ele>1020.40002441</ele>
        <time>2021-03-30T10:28:50Z</time>
      </trkpt>
      <trkpt lat="42.3258005" lon="2.3257991">
        <ele>1020.23999023</ele>
        <time>2021-03-30T10:28:51Z</time>
      </trkpt>
      <trkpt lat="42.3257916" lon="2.3258706">
        <ele>1020.09002686</ele>
        <time>2021-03-30T10:28:52Z</time>
      </trkpt>
      <trkpt lat="42.3257779" lon="2.3259441">
        <ele>1019.96002197</ele>
        <time>2021-03-30T10:28:53Z</time>
      </trkpt>
      <trkpt lat="42.3257665" lon="2.3260209">
        <ele>1018.9699707</ele>
        <time>2021-03-30T10:28:54Z</time>
      </trkpt>
      <trkpt lat="42.3257593" lon="2.3261026">
        <ele>1018.86999512</ele>
        <time>2021-03-30T10:28:55Z</time>
      </trkpt>
      <trkpt lat="42.3257503" lon="2.3261861">
        <ele>1018.85998535</ele>
        <time>2021-03-30T10:28:56Z</time>
      </trkpt>
      <trkpt lat="42.3257378" lon="2.3262666">
        <ele>1018.85998535</ele>
        <time>2021-03-30T10:28:57Z</time>
      </trkpt>
      <trkpt lat="42.3257255" lon="2.3263415">
        <ele>1018.85998535</ele>
        <time>2021-03-30T10:28:58Z</time>
      </trkpt>
      <trkpt lat="42.3257108" lon="2.3264016">
        <ele>1018.85998535</ele>
        <time>2021-03-30T10:28:59Z</time>
      </trkpt>
      <trkpt lat="42.3256994" lon="2.3264554">
        <ele>1018.85998535</ele>
        <time>2021-03-30T10:29:00Z</time>
      </trkpt>
      <trkpt lat="42.3256892" lon="2.3265388">
        <ele>1018.85998535</ele>
        <time>2021-03-30T10:29:01Z</time>
      </trkpt>
      <trkpt lat="42.3256761" lon="2.3266236">
        <ele>1018.85998535</ele>
        <time>2021-03-30T10:29:02Z</time>
      </trkpt>
      <trkpt lat="42.3256653" lon="2.3266769">
        <ele>1018.85998535</ele>
        <time>2021-03-30T10:29:03Z</time>
      </trkpt>
      <trkpt lat="42.325652" lon="2.3267393">
        <ele>1018.85998535</ele>
        <time>2021-03-30T10:29:04Z</time>
      </trkpt>
      <trkpt lat="42.3256407" lon="2.3268025">
        <ele>1018.85998535</ele>
        <time>2021-03-30T10:29:05Z</time>
      </trkpt>
      <trkpt lat="42.3256325" lon="2.3268537">
        <ele>1018.85998535</ele>
        <time>2021-03-30T10:29:06Z</time>
      </trkpt>
      <trkpt lat="42.3256242" lon="2.3269094">
        <ele>1018.85998535</ele>
        <time>2021-03-30T10:29:07Z</time>
      </trkpt>
      <trkpt lat="42.3256163" lon="2.3269648">
        <ele>1018.85998535</ele>
        <time>2021-03-30T10:29:08Z</time>
      </trkpt>
      <trkpt lat="42.3256133" lon="2.3270396">
        <ele>1018.85998535</ele>
        <time>2021-03-30T10:29:09Z</time>
      </trkpt>
      <trkpt lat="42.3256036" lon="2.3271095">
        <ele>1018.85998535</ele>
        <time>2021-03-30T10:29:10Z</time>
      </trkpt>
      <trkpt lat="42.3255975" lon="2.3271811">
        <ele>1018.85998535</ele>
        <time>2021-03-30T10:29:11Z</time>
      </trkpt>
      <trkpt lat="42.3255918" lon="2.327239">
        <ele>1018.85998535</ele>
        <time>2021-03-30T10:29:12Z</time>
      </trkpt>
      <trkpt lat="42.3255881" lon="2.3272993">
        <ele>1018.85998535</ele>
        <time>2021-03-30T10:29:13Z</time>
      </trkpt>
      <trkpt lat="42.3255868" lon="2.3273672">
        <ele>1018.85998535</ele>
        <time>2021-03-30T10:29:14Z</time>
      </trkpt>
      <trkpt lat="42.3255877" lon="2.327444">
        <ele>1018.85998535</ele>
        <time>2021-03-30T10:29:15Z</time>
      </trkpt>
      <trkpt lat="42.325589" lon="2.3275173">
        <ele>1018.85998535</ele>
        <time>2021-03-30T10:29:16Z</time>
      </trkpt>
      <trkpt lat="42.325591" lon="2.3275731">
        <ele>1018.85998535</ele>
        <time>2021-03-30T10:29:17Z</time>
      </trkpt>
      <trkpt lat="42.3255927" lon="2.3276543">
        <ele>1018.85998535</ele>
        <time>2021-03-30T10:29:18Z</time>
      </trkpt>
      <trkpt lat="42.3255936" lon="2.3277285">
        <ele>1018.85998535</ele>
        <time>2021-03-30T10:29:19Z</time>
      </trkpt>
      <trkpt lat="42.3255925" lon="2.3278037">
        <ele>1018.85998535</ele>
        <time>2021-03-30T10:29:20Z</time>
      </trkpt>
      <trkpt lat="42.3255924" lon="2.3278783">
        <ele>1018.85998535</ele>
        <time>2021-03-30T10:29:21Z</time>
      </trkpt>
      <trkpt lat="42.3255967" lon="2.3279505">
        <ele>1018.85998535</ele>
        <time>2021-03-30T10:29:22Z</time>
      </trkpt>
      <trkpt lat="42.3256003" lon="2.3280357">
        <ele>1018.85998535</ele>
        <time>2021-03-30T10:29:23Z</time>
      </trkpt>
      <trkpt lat="42.3256018" lon="2.3281148">
        <ele>1018.85998535</ele>
        <time>2021-03-30T10:29:24Z</time>
      </trkpt>
      <trkpt lat="42.3255984" lon="2.3281905">
        <ele>1018.88000488</ele>
        <time>2021-03-30T10:29:25Z</time>
      </trkpt>
      <trkpt lat="42.3255911" lon="2.3282657">
        <ele>1018.91998291</ele>
        <time>2021-03-30T10:29:26Z</time>
      </trkpt>
      <trkpt lat="42.3255753" lon="2.3283462">
        <ele>1018.96002197</ele>
        <time>2021-03-30T10:29:27Z</time>
      </trkpt>
      <trkpt lat="42.3255597" lon="2.3284128">
        <ele>1018.98999023</ele>
        <time>2021-03-30T10:29:28Z</time>
      </trkpt>
      <trkpt lat="42.3255348" lon="2.3284805">
        <ele>1018.98999023</ele>
        <time>2021-03-30T10:29:29Z</time>
      </trkpt>
      <trkpt lat="42.3255083" lon="2.3285492">
        <ele>1018.94000244</ele>
        <time>2021-03-30T10:29:30Z</time>
      </trkpt>
      <trkpt lat="42.3254762" lon="2.3286127">
        <ele>1018.84997559</ele>
        <time>2021-03-30T10:29:31Z</time>
      </trkpt>
      <trkpt lat="42.3254449" lon="2.3286867">
        <ele>1018.70001221</ele>
        <time>2021-03-30T10:29:32Z</time>
      </trkpt>
      <trkpt lat="42.3254155" lon="2.3287434">
        <ele>1018.51000977</ele>
        <time>2021-03-30T10:29:33Z</time>
      </trkpt>
      <trkpt lat="42.3253826" lon="2.3288122">
        <ele>1018.2800293</ele>
        <time>2021-03-30T10:29:34Z</time>
      </trkpt>
      <trkpt lat="42.3253424" lon="2.328898">
        <ele>1018.01000977</ele>
        <time>2021-03-30T10:29:35Z</time>
      </trkpt>
      <trkpt lat="42.3253123" lon="2.3289694">
        <ele>1017.69000244</ele>
        <time>2021-03-30T10:29:36Z</time>
      </trkpt>
      <trkpt lat="42.3252839" lon="2.3290405">
        <ele>1017.34997559</ele>
        <time>2021-03-30T10:29:37Z</time>
      </trkpt>
      <trkpt lat="42.325258" lon="2.329114">
        <ele>1016.98999023</ele>
        <time>2021-03-30T10:29:38Z</time>
      </trkpt>
      <trkpt lat="42.3252277" lon="2.3291845">
        <ele>1016.65002441</ele>
        <time>2021-03-30T10:29:39Z</time>
      </trkpt>
      <trkpt lat="42.3252025" lon="2.3292441">
        <ele>1016.34002686</ele>
        <time>2021-03-30T10:29:40Z</time>
      </trkpt>
      <trkpt lat="42.3251708" lon="2.3293241">
        <ele>1016.07000732</ele>
        <time>2021-03-30T10:29:41Z</time>
      </trkpt>
      <trkpt lat="42.3251418" lon="2.329395">
        <ele>1015.83001709</ele>
        <time>2021-03-30T10:29:42Z</time>
      </trkpt>
      <trkpt lat="42.325114" lon="2.3294669">
        <ele>1015.60998535</ele>
        <time>2021-03-30T10:29:43Z</time>
      </trkpt>
      <trkpt lat="42.3250964" lon="2.3295388">
        <ele>1015.40997314</ele>
        <time>2021-03-30T10:29:44Z</time>
      </trkpt>
      <trkpt lat="42.3250735" lon="2.329628">
        <ele>1015.23999023</ele>
        <time>2021-03-30T10:29:45Z</time>
      </trkpt>
      <trkpt lat="42.3250518" lon="2.3296881">
        <ele>1015.09002686</ele>
        <time>2021-03-30T10:29:46Z</time>
      </trkpt>
      <trkpt lat="42.3250319" lon="2.3297744">
        <ele>1014.95001221</ele>
        <time>2021-03-30T10:29:47Z</time>
      </trkpt>
      <trkpt lat="42.3250149" lon="2.3298545">
        <ele>1014.83001709</ele>
        <time>2021-03-30T10:29:48Z</time>
      </trkpt>
      <trkpt lat="42.324985" lon="2.3299235">
        <ele>1014.7199707</ele>
        <time>2021-03-30T10:29:49Z</time>
      </trkpt>
      <trkpt lat="42.324955" lon="2.3299917">
        <ele>1014.61999512</ele>
        <time>2021-03-30T10:29:50Z</time>
      </trkpt>
      <trkpt lat="42.324923" lon="2.3300488">
        <ele>1013.89001465</ele>
        <time>2021-03-30T10:29:51Z</time>
      </trkpt>
      <trkpt lat="42.3248942" lon="2.3300999">
        <ele>1013.82000732</ele>
        <time>2021-03-30T10:29:52Z</time>
      </trkpt>
      <trkpt lat="42.3248715" lon="2.3301193">
        <ele>1013.80999756</ele>
        <time>2021-03-30T10:29:53Z</time>
      </trkpt>
      <trkpt lat="42.3248328" lon="2.330127">
        <ele>1013.80999756</ele>
        <time>2021-03-30T10:29:54Z</time>
      </trkpt>
      <trkpt lat="42.3247974" lon="2.3301222">
        <ele>1013.80999756</ele>
        <time>2021-03-30T10:29:55Z</time>
      </trkpt>
      <trkpt lat="42.324749" lon="2.3301158">
        <ele>1013.80999756</ele>
        <time>2021-03-30T10:29:56Z</time>
      </trkpt>
      <trkpt lat="42.3246976" lon="2.3300962">
        <ele>1013.80999756</ele>
        <time>2021-03-30T10:29:57Z</time>
      </trkpt>
      <trkpt lat="42.324664" lon="2.330079">
        <ele>1013.40997314</ele>
        <time>2021-03-30T10:29:58Z</time>
      </trkpt>
      <trkpt lat="42.3246394" lon="2.330067">
        <ele>1012.82000732</ele>
        <time>2021-03-30T10:29:59Z</time>
      </trkpt>
      <trkpt lat="42.3246154" lon="2.3300532">
        <ele>1012.35998535</ele>
        <time>2021-03-30T10:30:00Z</time>
      </trkpt>
      <trkpt lat="42.3245824" lon="2.3300404">
        <ele>1011.91998291</ele>
        <time>2021-03-30T10:30:01Z</time>
      </trkpt>
      <trkpt lat="42.324549" lon="2.3300299">
        <ele>1011.33001709</ele>
        <time>2021-03-30T10:30:02Z</time>
      </trkpt>
      <trkpt lat="42.3245153" lon="2.3300187">
        <ele>1010.72998047</ele>
        <time>2021-03-30T10:30:03Z</time>
      </trkpt>
      <trkpt lat="42.3244683" lon="2.3299983">
        <ele>1010.11999512</ele>
        <time>2021-03-30T10:30:04Z</time>
      </trkpt>
      <trkpt lat="42.3244171" lon="2.3299821">
        <ele>1009.28997803</ele>
        <time>2021-03-30T10:30:05Z</time>
      </trkpt>
      <trkpt lat="42.3243681" lon="2.3299652">
        <ele>1008.80999756</ele>
        <time>2021-03-30T10:30:06Z</time>
      </trkpt>
      <trkpt lat="42.3243178" lon="2.3299555">
        <ele>1008.76000977</ele>
        <time>2021-03-30T10:30:07Z</time>
      </trkpt>
      <trkpt lat="42.3242574" lon="2.3299393">
        <ele>1008.76000977</ele>
        <time>2021-03-30T10:30:08Z</time>
      </trkpt>
      <trkpt lat="42.3242023" lon="2.329919">
        <ele>1008.76000977</ele>
        <time>2021-03-30T10:30:09Z</time>
      </trkpt>
      <trkpt lat="42.3241425" lon="2.3298946">
        <ele>1008.76000977</ele>
        <time>2021-03-30T10:30:10Z</time>
      </trkpt>
      <trkpt lat="42.3240903" lon="2.3298717">
        <ele>1008.35998535</ele>
        <time>2021-03-30T10:30:11Z</time>
      </trkpt>
      <trkpt lat="42.3240343" lon="2.3298472">
        <ele>1007.4699707</ele>
        <time>2021-03-30T10:30:12Z</time>
      </trkpt>
      <trkpt lat="42.3239928" lon="2.3298337">
        <ele>1006.46002197</ele>
        <time>2021-03-30T10:30:13Z</time>
      </trkpt>
      <trkpt lat="42.323959" lon="2.3298225">
        <ele>1005.67999268</ele>
        <time>2021-03-30T10:30:14Z</time>
      </trkpt>
      <trkpt lat="42.3239067" lon="2.3297996">
        <ele>1005.04998779</ele>
        <time>2021-03-30T10:30:15Z</time>
      </trkpt>
      <trkpt lat="42.3238564" lon="2.3297911">
        <ele>1004.13000488</ele>
        <time>2021-03-30T10:30:16Z</time>
      </trkpt>
      <trkpt lat="42.3238081" lon="2.3297767">
        <ele>1004.2800293</ele>
        <time>2021-03-30T10:30:17Z</time>
      </trkpt>
      <trkpt lat="42.3237617" lon="2.3297568">
        <ele>1005.09002686</ele>
        <time>2021-03-30T10:30:18Z</time>
      </trkpt>
      <trkpt lat="42.3237082" lon="2.3297351">
        <ele>1005.92999268</ele>
        <time>2021-03-30T10:30:19Z</time>
      </trkpt>
      <trkpt lat="42.3236713" lon="2.3297219">
        <ele>1006.45001221</ele>
        <time>2021-03-30T10:30:20Z</time>
      </trkpt>
      <trkpt lat="42.3236347" lon="2.3297119">
        <ele>1006.85998535</ele>
        <time>2021-03-30T10:30:21Z</time>
      </trkpt>
      <trkpt lat="42.3235891" lon="2.3296942">
        <ele>1007.26000977</ele>
        <time>2021-03-30T10:30:22Z</time>
      </trkpt>
      <trkpt lat="42.3235356" lon="2.3296946">
        <ele>1007.60998535</ele>
        <time>2021-03-30T10:30:23Z</time>
      </trkpt>
      <trkpt lat="42.3234847" lon="2.3297193">
        <ele>1007.91998291</ele>
        <time>2021-03-30T10:30:24Z</time>
      </trkpt>
      <trkpt lat="42.3234451" lon="2.3297705">
        <ele>1008.20001221</ele>
        <time>2021-03-30T10:30:25Z</time>
      </trkpt>
      <trkpt lat="42.3234347" lon="2.3298525">
        <ele>1008.44000244</ele>
        <time>2021-03-30T10:30:26Z</time>
      </trkpt>
      <trkpt lat="42.3234342" lon="2.3299152">
        <ele>1008.64001465</ele>
        <time>2021-03-30T10:30:27Z</time>
      </trkpt>
      <trkpt lat="42.3234293" lon="2.3299905">
        <ele>1008.78997803</ele>
        <time>2021-03-30T10:30:28Z</time>
      </trkpt>
      <trkpt lat="42.3234205" lon="2.3300581">
        <ele>1008.91998291</ele>
        <time>2021-03-30T10:30:29Z</time>
      </trkpt>
      <trkpt lat="42.3234167" lon="2.3301134">
        <ele>1009</ele>
        <time>2021-03-30T10:30:30Z</time>
      </trkpt>
      <trkpt lat="42.3234103" lon="2.3301665">
        <ele>1009</ele>
        <time>2021-03-30T10:30:31Z</time>
      </trkpt>
      <trkpt lat="42.3234057" lon="2.3302123">
        <ele>1008.96002197</ele>
        <time>2021-03-30T10:30:32Z</time>
      </trkpt>
      <trkpt lat="42.3233942" lon="2.3302686">
        <ele>1008.80999756</ele>
        <time>2021-03-30T10:30:33Z</time>
      </trkpt>
      <trkpt lat="42.3233714" lon="2.3303144">
        <ele>1008.84997559</ele>
        <time>2021-03-30T10:30:34Z</time>
      </trkpt>
      <trkpt lat="42.323345" lon="2.3303597">
        <ele>1008.77001953</ele>
        <time>2021-03-30T10:30:35Z</time>
      </trkpt>
      <trkpt lat="42.3233185" lon="2.3304148">
        <ele>1008.96002197</ele>
        <time>2021-03-30T10:30:36Z</time>
      </trkpt>
      <trkpt lat="42.3233013" lon="2.3304748">
        <ele>1009.51000977</ele>
        <time>2021-03-30T10:30:37Z</time>
      </trkpt>
      <trkpt lat="42.3232764" lon="2.3305348">
        <ele>1009.86999512</ele>
        <time>2021-03-30T10:30:38Z</time>
      </trkpt>
      <trkpt lat="42.3232487" lon="2.330574">
        <ele>1010.33001709</ele>
        <time>2021-03-30T10:30:39Z</time>
      </trkpt>
      <trkpt lat="42.3232221" lon="2.3306048">
        <ele>1010.5</ele>
        <time>2021-03-30T10:30:40Z</time>
      </trkpt>
      <trkpt lat="42.3231912" lon="2.3306477">
        <ele>1010.70001221</ele>
        <time>2021-03-30T10:30:41Z</time>
      </trkpt>
      <trkpt lat="42.3231683" lon="2.330691">
        <ele>1011.11999512</ele>
        <time>2021-03-30T10:30:42Z</time>
      </trkpt>
      <trkpt lat="42.3231478" lon="2.3307444">
        <ele>1011.53997803</ele>
        <time>2021-03-30T10:30:43Z</time>
      </trkpt>
      <trkpt lat="42.3231179" lon="2.3307835">
        <ele>1011.55999756</ele>
        <time>2021-03-30T10:30:44Z</time>
      </trkpt>
      <trkpt lat="42.3230938" lon="2.3308241">
        <ele>1011.92999268</ele>
        <time>2021-03-30T10:30:45Z</time>
      </trkpt>
      <trkpt lat="42.3230681" lon="2.3308645">
        <ele>1012.34002686</ele>
        <time>2021-03-30T10:30:46Z</time>
      </trkpt>
      <trkpt lat="42.3230426" lon="2.3309025">
        <ele>1012.92999268</ele>
        <time>2021-03-30T10:30:47Z</time>
      </trkpt>
      <trkpt lat="42.3230309" lon="2.3309524">
        <ele>1014.27001953</ele>
        <time>2021-03-30T10:30:48Z</time>
      </trkpt>
      <trkpt lat="42.3230114" lon="2.330989">
        <ele>1014.67999268</ele>
        <time>2021-03-30T10:30:49Z</time>
      </trkpt>
      <trkpt lat="42.3230017" lon="2.3310314">
        <ele>1015.26000977</ele>
        <time>2021-03-30T10:30:50Z</time>
      </trkpt>
      <trkpt lat="42.3229997" lon="2.3310767">
        <ele>1016.14001465</ele>
        <time>2021-03-30T10:30:51Z</time>
      </trkpt>
      <trkpt lat="42.322993" lon="2.3311185">
        <ele>1017.11999512</ele>
        <time>2021-03-30T10:30:52Z</time>
      </trkpt>
      <trkpt lat="42.3229902" lon="2.3311665">
        <ele>1018.05999756</ele>
        <time>2021-03-30T10:30:53Z</time>
      </trkpt>
      <trkpt lat="42.3229853" lon="2.331209">
        <ele>1018.80999756</ele>
        <time>2021-03-30T10:30:54Z</time>
      </trkpt>
      <trkpt lat="42.3229754" lon="2.3312529">
        <ele>1019.45001221</ele>
        <time>2021-03-30T10:30:55Z</time>
      </trkpt>
      <trkpt lat="42.322961" lon="2.3313044">
        <ele>1019.61999512</ele>
        <time>2021-03-30T10:30:56Z</time>
      </trkpt>
      <trkpt lat="42.3229424" lon="2.3313478">
        <ele>1019.7800293</ele>
        <time>2021-03-30T10:30:57Z</time>
      </trkpt>
      <trkpt lat="42.3229321" lon="2.3313877">
        <ele>1019.76000977</ele>
        <time>2021-03-30T10:30:58Z</time>
      </trkpt>
      <trkpt lat="42.3229186" lon="2.3314224">
        <ele>1020.0300293</ele>
        <time>2021-03-30T10:30:59Z</time>
      </trkpt>
      <trkpt lat="42.3229051" lon="2.3314498">
        <ele>1019.85998535</ele>
        <time>2021-03-30T10:31:00Z</time>
      </trkpt>
      <trkpt lat="42.3228955" lon="2.3314862">
        <ele>1020.30999756</ele>
        <time>2021-03-30T10:31:01Z</time>
      </trkpt>
      <trkpt lat="42.3228891" lon="2.3315206">
        <ele>1021.09002686</ele>
        <time>2021-03-30T10:31:02Z</time>
      </trkpt>
      <trkpt lat="42.3228774" lon="2.331544">
        <ele>1021.40997314</ele>
        <time>2021-03-30T10:31:03Z</time>
      </trkpt>
      <trkpt lat="42.322873" lon="2.3315845">
        <ele>1022.03997803</ele>
        <time>2021-03-30T10:31:04Z</time>
      </trkpt>
      <trkpt lat="42.322855" lon="2.3316254">
        <ele>1022.83001709</ele>
        <time>2021-03-30T10:31:05Z</time>
      </trkpt>
      <trkpt lat="42.3228308" lon="2.3316638">
        <ele>1023.35998535</ele>
        <time>2021-03-30T10:31:06Z</time>
      </trkpt>
      <trkpt lat="42.3228071" lon="2.3317024">
        <ele>1024.2199707</ele>
        <time>2021-03-30T10:31:07Z</time>
      </trkpt>
      <trkpt lat="42.3227778" lon="2.3317345">
        <ele>1024.93994141</ele>
        <time>2021-03-30T10:31:08Z</time>
      </trkpt>
      <trkpt lat="42.3227536" lon="2.3317601">
        <ele>1025.38000488</ele>
        <time>2021-03-30T10:31:09Z</time>
      </trkpt>
      <trkpt lat="42.3227337" lon="2.331791">
        <ele>1025.84997559</ele>
        <time>2021-03-30T10:31:10Z</time>
      </trkpt>
      <trkpt lat="42.3227228" lon="2.3318273">
        <ele>1026.35998535</ele>
        <time>2021-03-30T10:31:11Z</time>
      </trkpt>
      <trkpt lat="42.3226994" lon="2.3318646">
        <ele>1026.90002441</ele>
        <time>2021-03-30T10:31:12Z</time>
      </trkpt>
      <trkpt lat="42.3226758" lon="2.3319103">
        <ele>1027.63000488</ele>
        <time>2021-03-30T10:31:13Z</time>
      </trkpt>
      <trkpt lat="42.3226571" lon="2.3319545">
        <ele>1027.76000977</ele>
        <time>2021-03-30T10:31:14Z</time>
      </trkpt>
      <trkpt lat="42.322645" lon="2.3319899">
        <ele>1027.9699707</ele>
        <time>2021-03-30T10:31:15Z</time>
      </trkpt>
      <trkpt lat="42.3226348" lon="2.3320335">
        <ele>1027.81005859</ele>
        <time>2021-03-30T10:31:16Z</time>
      </trkpt>
      <trkpt lat="42.3226303" lon="2.3320695">
        <ele>1027.7800293</ele>
        <time>2021-03-30T10:31:17Z</time>
      </trkpt>
      <trkpt lat="42.3226103" lon="2.3320906">
        <ele>1027.7800293</ele>
        <time>2021-03-30T10:31:18Z</time>
      </trkpt>
      <trkpt lat="42.3226062" lon="2.3320898">
        <ele>1028.02001953</ele>
        <time>2021-03-30T10:31:19Z</time>
      </trkpt>
      <trkpt lat="42.3226088" lon="2.332093">
        <ele>1028.57995605</ele>
        <time>2021-03-30T10:31:20Z</time>
      </trkpt>
      <trkpt lat="42.3226029" lon="2.3321009">
        <ele>1029.23999023</ele>
        <time>2021-03-30T10:31:21Z</time>
      </trkpt>
      <trkpt lat="42.3225911" lon="2.3321158">
        <ele>1029.73999023</ele>
        <time>2021-03-30T10:31:22Z</time>
      </trkpt>
      <trkpt lat="42.3225807" lon="2.3321139">
        <ele>1030.29003906</ele>
        <time>2021-03-30T10:31:23Z</time>
      </trkpt>
      <trkpt lat="42.3225698" lon="2.3321348">
        <ele>1033.11999512</ele>
        <time>2021-03-30T10:31:27Z</time>
      </trkpt>
      <trkpt lat="42.3225628" lon="2.3321418">
        <ele>1033.5300293</ele>
        <time>2021-03-30T10:31:28Z</time>
      </trkpt>
      <trkpt lat="42.322561" lon="2.3321571">
        <ele>1034.25</ele>
        <time>2021-03-30T10:31:29Z</time>
      </trkpt>
      <trkpt lat="42.3225577" lon="2.3321579">
        <ele>1034.56005859</ele>
        <time>2021-03-30T10:31:30Z</time>
      </trkpt>
      <trkpt lat="42.3225625" lon="2.332151">
        <ele>1033.2800293</ele>
        <time>2021-03-30T10:31:49Z</time>
      </trkpt>
      <trkpt lat="42.3225675" lon="2.3321599">
        <ele>1033.06005859</ele>
        <time>2021-03-30T10:31:50Z</time>
      </trkpt>
      <trkpt lat="42.3225699" lon="2.3321707">
        <ele>1032.72998047</ele>
        <time>2021-03-30T10:31:51Z</time>
      </trkpt>
      <trkpt lat="42.3225657" lon="2.3321763">
        <ele>1032.43994141</ele>
        <time>2021-03-30T10:31:52Z</time>
      </trkpt>
      <trkpt lat="42.3225589" lon="2.3321898">
        <ele>1032.45996094</ele>
        <time>2021-03-30T10:31:53Z</time>
      </trkpt>
      <trkpt lat="42.3225552" lon="2.3322018">
        <ele>1032.45996094</ele>
        <time>2021-03-30T10:31:54Z</time>
      </trkpt>
      <trkpt lat="42.3225537" lon="2.3322132">
        <ele>1032.39001465</ele>
        <time>2021-03-30T10:31:55Z</time>
      </trkpt>
      <trkpt lat="42.3225519" lon="2.3322181">
        <ele>1032.23999023</ele>
        <time>2021-03-30T10:31:56Z</time>
      </trkpt>
      <trkpt lat="42.3225483" lon="2.3322313">
        <ele>1032.20996094</ele>
        <time>2021-03-30T10:31:57Z</time>
      </trkpt>
      <trkpt lat="42.3225483" lon="2.3322399">
        <ele>1032.32995605</ele>
        <time>2021-03-30T10:31:58Z</time>
      </trkpt>
      <trkpt lat="42.3225491" lon="2.3322506">
        <ele>1032.41003418</ele>
        <time>2021-03-30T10:31:59Z</time>
      </trkpt>
      <trkpt lat="42.3225473" lon="2.3322549">
        <ele>1032.4699707</ele>
        <time>2021-03-30T10:32:00Z</time>
      </trkpt>
      <trkpt lat="42.3225489" lon="2.3322623">
        <ele>1032.57995605</ele>
        <time>2021-03-30T10:32:01Z</time>
      </trkpt>
      <trkpt lat="42.3225496" lon="2.332267">
        <ele>1032.58996582</ele>
        <time>2021-03-30T10:32:02Z</time>
      </trkpt>
      <trkpt lat="42.3225463" lon="2.3322801">
        <ele>1032.58996582</ele>
        <time>2021-03-30T10:32:03Z</time>
      </trkpt>
      <trkpt lat="42.3225438" lon="2.3322902">
        <ele>1032.83996582</ele>
        <time>2021-03-30T10:32:04Z</time>
      </trkpt>
      <trkpt lat="42.3225442" lon="2.3322984">
        <ele>1033.05004883</ele>
        <time>2021-03-30T10:32:05Z</time>
      </trkpt>
      <trkpt lat="42.3225433" lon="2.3323108">
        <ele>1033.13000488</ele>
        <time>2021-03-30T10:32:06Z</time>
      </trkpt>
      <trkpt lat="42.3225485" lon="2.33233">
        <ele>1033.29003906</ele>
        <time>2021-03-30T10:32:07Z</time>
      </trkpt>
      <trkpt lat="42.3225493" lon="2.332345">
        <ele>1033.19995117</ele>
        <time>2021-03-30T10:32:08Z</time>
      </trkpt>
      <trkpt lat="42.3225527" lon="2.3323664">
        <ele>1033.26000977</ele>
        <time>2021-03-30T10:32:09Z</time>
      </trkpt>
      <trkpt lat="42.3225564" lon="2.3323812">
        <ele>1033.22998047</ele>
        <time>2021-03-30T10:32:10Z</time>
      </trkpt>
      <trkpt lat="42.3225549" lon="2.3324041">
        <ele>1033.10998535</ele>
        <time>2021-03-30T10:32:11Z</time>
      </trkpt>
      <trkpt lat="42.3225588" lon="2.3324297">
        <ele>1033.33996582</ele>
        <time>2021-03-30T10:32:12Z</time>
      </trkpt>
      <trkpt lat="42.3225607" lon="2.3324505">
        <ele>1033.26000977</ele>
        <time>2021-03-30T10:32:13Z</time>
      </trkpt>
      <trkpt lat="42.3225565" lon="2.3324551">
        <ele>1033.23999023</ele>
        <time>2021-03-30T10:32:14Z</time>
      </trkpt>
      <trkpt lat="42.3225568" lon="2.3324713">
        <ele>1033.56994629</ele>
        <time>2021-03-30T10:32:15Z</time>
      </trkpt>
      <trkpt lat="42.3225576" lon="2.3324939">
        <ele>1033.68994141</ele>
        <time>2021-03-30T10:32:16Z</time>
      </trkpt>
      <trkpt lat="42.3225613" lon="2.3325166">
        <ele>1033.7800293</ele>
        <time>2021-03-30T10:32:17Z</time>
      </trkpt>
      <trkpt lat="42.3225584" lon="2.3325326">
        <ele>1033.52001953</ele>
        <time>2021-03-30T10:32:18Z</time>
      </trkpt>
      <trkpt lat="42.3225568" lon="2.3325632">
        <ele>1033.72998047</ele>
        <time>2021-03-30T10:32:19Z</time>
      </trkpt>
      <trkpt lat="42.3225519" lon="2.3325926">
        <ele>1033.88000488</ele>
        <time>2021-03-30T10:32:20Z</time>
      </trkpt>
      <trkpt lat="42.3225469" lon="2.332605">
        <ele>1034.30004883</ele>
        <time>2021-03-30T10:32:21Z</time>
      </trkpt>
      <trkpt lat="42.3225405" lon="2.332631">
        <ele>1034.76000977</ele>
        <time>2021-03-30T10:32:22Z</time>
      </trkpt>
      <trkpt lat="42.3225399" lon="2.3326466">
        <ele>1035.31994629</ele>
        <time>2021-03-30T10:32:23Z</time>
      </trkpt>
      <trkpt lat="42.3225448" lon="2.3326504">
        <ele>1035.42004395</ele>
        <time>2021-03-30T10:32:24Z</time>
      </trkpt>
      <trkpt lat="42.3225473" lon="2.3326653">
        <ele>1035.04003906</ele>
        <time>2021-03-30T10:32:25Z</time>
      </trkpt>
      <trkpt lat="42.3225496" lon="2.332679">
        <ele>1034.80004883</ele>
        <time>2021-03-30T10:32:26Z</time>
      </trkpt>
      <trkpt lat="42.3225475" lon="2.332691">
        <ele>1034.57995605</ele>
        <time>2021-03-30T10:32:27Z</time>
      </trkpt>
      <trkpt lat="42.3225516" lon="2.3327118">
        <ele>1034.72998047</ele>
        <time>2021-03-30T10:32:28Z</time>
      </trkpt>
      <trkpt lat="42.3225561" lon="2.3327346">
        <ele>1034.41003418</ele>
        <time>2021-03-30T10:32:29Z</time>
      </trkpt>
      <trkpt lat="42.3225527" lon="2.3327332">
        <ele>1034.01000977</ele>
        <time>2021-03-30T10:32:30Z</time>
      </trkpt>
      <trkpt lat="42.3225505" lon="2.3327615">
        <ele>1034.25</ele>
        <time>2021-03-30T10:32:31Z</time>
      </trkpt>
      <trkpt lat="42.3225535" lon="2.3327741">
        <ele>1034.72998047</ele>
        <time>2021-03-30T10:32:32Z</time>
      </trkpt>
      <trkpt lat="42.3225543" lon="2.3327889">
        <ele>1034.26000977</ele>
        <time>2021-03-30T10:32:33Z</time>
      </trkpt>
      <trkpt lat="42.3225535" lon="2.3328017">
        <ele>1033.95996094</ele>
        <time>2021-03-30T10:32:34Z</time>
      </trkpt>
      <trkpt lat="42.3225536" lon="2.3328118">
        <ele>1033.79003906</ele>
        <time>2021-03-30T10:32:35Z</time>
      </trkpt>
      <trkpt lat="42.32255" lon="2.3328223">
        <ele>1033.59997559</ele>
        <time>2021-03-30T10:32:36Z</time>
      </trkpt>
      <trkpt lat="42.3225509" lon="2.332839">
        <ele>1033.69995117</ele>
        <time>2021-03-30T10:32:37Z</time>
      </trkpt>
      <trkpt lat="42.3225464" lon="2.3328407">
        <ele>1033.36999512</ele>
        <time>2021-03-30T10:32:38Z</time>
      </trkpt>
      <trkpt lat="42.3225455" lon="2.3328541">
        <ele>1033.67004395</ele>
        <time>2021-03-30T10:32:39Z</time>
      </trkpt>
      <trkpt lat="42.3225436" lon="2.332875">
        <ele>1033.55004883</ele>
        <time>2021-03-30T10:32:40Z</time>
      </trkpt>
      <trkpt lat="42.3225447" lon="2.332885">
        <ele>1033.35998535</ele>
        <time>2021-03-30T10:32:41Z</time>
      </trkpt>
      <trkpt lat="42.3225439" lon="2.3329028">
        <ele>1034.42004395</ele>
        <time>2021-03-30T10:32:42Z</time>
      </trkpt>
      <trkpt lat="42.322548" lon="2.3329189">
        <ele>1035.27001953</ele>
        <time>2021-03-30T10:32:43Z</time>
      </trkpt>
      <trkpt lat="42.322564" lon="2.3329452">
        <ele>1035.93994141</ele>
        <time>2021-03-30T10:32:44Z</time>
      </trkpt>
      <trkpt lat="42.3225761" lon="2.3329682">
        <ele>1036.44995117</ele>
        <time>2021-03-30T10:32:45Z</time>
      </trkpt>
      <trkpt lat="42.3225823" lon="2.3329819">
        <ele>1036.88000488</ele>
        <time>2021-03-30T10:32:46Z</time>
      </trkpt>
      <trkpt lat="42.3225938" lon="2.3329943">
        <ele>1037.25</ele>
        <time>2021-03-30T10:32:47Z</time>
      </trkpt>
      <trkpt lat="42.3226018" lon="2.3330091">
        <ele>1037.57995605</ele>
        <time>2021-03-30T10:32:48Z</time>
      </trkpt>
      <trkpt lat="42.3226023" lon="2.3330178">
        <ele>1037.86999512</ele>
        <time>2021-03-30T10:32:49Z</time>
      </trkpt>
      <trkpt lat="42.3225966" lon="2.3330292">
        <ele>1038.11999512</ele>
        <time>2021-03-30T10:32:50Z</time>
      </trkpt>
      <trkpt lat="42.3225934" lon="2.3330408">
        <ele>1038.31005859</ele>
        <time>2021-03-30T10:32:51Z</time>
      </trkpt>
      <trkpt lat="42.3225868" lon="2.3330468">
        <ele>1038.4699707</ele>
        <time>2021-03-30T10:32:52Z</time>
      </trkpt>
      <trkpt lat="42.3225869" lon="2.3330665">
        <ele>1038.57995605</ele>
        <time>2021-03-30T10:32:53Z</time>
      </trkpt>
      <trkpt lat="42.322584" lon="2.3330722">
        <ele>1038.66003418</ele>
        <time>2021-03-30T10:32:54Z</time>
      </trkpt>
      <trkpt lat="42.3225876" lon="2.3330809">
        <ele>1038.72998047</ele>
        <time>2021-03-30T10:32:55Z</time>
      </trkpt>
      <trkpt lat="42.3225896" lon="2.3330858">
        <ele>1038.75</ele>
        <time>2021-03-30T10:32:56Z</time>
      </trkpt>
      <trkpt lat="42.3225912" lon="2.3331017">
        <ele>1038.82995605</ele>
        <time>2021-03-30T10:32:57Z</time>
      </trkpt>
      <trkpt lat="42.3225973" lon="2.3331157">
        <ele>1038.92004395</ele>
        <time>2021-03-30T10:32:58Z</time>
      </trkpt>
      <trkpt lat="42.3225949" lon="2.3331371">
        <ele>1038.97998047</ele>
        <time>2021-03-30T10:32:59Z</time>
      </trkpt>
      <trkpt lat="42.3226051" lon="2.3331601">
        <ele>1038.98999023</ele>
        <time>2021-03-30T10:33:00Z</time>
      </trkpt>
      <trkpt lat="42.3226048" lon="2.3331819">
        <ele>1038.94995117</ele>
        <time>2021-03-30T10:33:01Z</time>
      </trkpt>
      <trkpt lat="42.3226115" lon="2.3331888">
        <ele>1038.82995605</ele>
        <time>2021-03-30T10:33:02Z</time>
      </trkpt>
      <trkpt lat="42.3226162" lon="2.3332039">
        <ele>1038.68994141</ele>
        <time>2021-03-30T10:33:03Z</time>
      </trkpt>
      <trkpt lat="42.3226219" lon="2.3332143">
        <ele>1038.51000977</ele>
        <time>2021-03-30T10:33:04Z</time>
      </trkpt>
      <trkpt lat="42.3226252" lon="2.3332411">
        <ele>1020.42999268</ele>
        <time>2021-03-30T10:33:05Z</time>
      </trkpt>
      <trkpt lat="42.322629" lon="2.3332573">
        <ele>1017.71002197</ele>
        <time>2021-03-30T10:33:06Z</time>
      </trkpt>
      <trkpt lat="42.3226348" lon="2.3332813">
        <ele>1016.76000977</ele>
        <time>2021-03-30T10:33:07Z</time>
      </trkpt>
      <trkpt lat="42.3226321" lon="2.3332946">
        <ele>1015.65997314</ele>
        <time>2021-03-30T10:33:08Z</time>
      </trkpt>
      <trkpt lat="42.3226344" lon="2.3333067">
        <ele>1015.40002441</ele>
        <time>2021-03-30T10:33:09Z</time>
      </trkpt>
      <trkpt lat="42.322636" lon="2.333366">
        <ele>1024.05004883</ele>
        <time>2021-03-30T10:33:15Z</time>
      </trkpt>
      <trkpt lat="42.3226338" lon="2.3333767">
        <ele>1025.92004395</ele>
        <time>2021-03-30T10:33:16Z</time>
      </trkpt>
      <trkpt lat="42.322633" lon="2.333386">
        <ele>1014.27001953</ele>
        <time>2021-03-30T10:33:17Z</time>
      </trkpt>
      <trkpt lat="42.3226265" lon="2.3334009">
        <ele>1012.92999268</ele>
        <time>2021-03-30T10:33:18Z</time>
      </trkpt>
      <trkpt lat="42.3225479" lon="2.3334931">
        <ele>1015.09997559</ele>
        <time>2021-03-30T10:33:38Z</time>
      </trkpt>
      <trkpt lat="42.3225408" lon="2.3334961">
        <ele>1015.10998535</ele>
        <time>2021-03-30T10:33:39Z</time>
      </trkpt>
      <trkpt lat="42.3225324" lon="2.3334952">
        <ele>1015.41998291</ele>
        <time>2021-03-30T10:33:40Z</time>
      </trkpt>
      <trkpt lat="42.3225191" lon="2.3335024">
        <ele>1015.95001221</ele>
        <time>2021-03-30T10:33:41Z</time>
      </trkpt>
      <trkpt lat="42.3225052" lon="2.3335106">
        <ele>1016.52001953</ele>
        <time>2021-03-30T10:33:42Z</time>
      </trkpt>
      <trkpt lat="42.3224981" lon="2.3335212">
        <ele>1017.08001709</ele>
        <time>2021-03-30T10:33:43Z</time>
      </trkpt>
      <trkpt lat="42.3224873" lon="2.3335346">
        <ele>1017.17999268</ele>
        <time>2021-03-30T10:33:44Z</time>
      </trkpt>
      <trkpt lat="42.3224823" lon="2.333543">
        <ele>1017.33001709</ele>
        <time>2021-03-30T10:33:45Z</time>
      </trkpt>
      <trkpt lat="42.3224736" lon="2.3335475">
        <ele>1017.33001709</ele>
        <time>2021-03-30T10:33:46Z</time>
      </trkpt>
      <trkpt lat="42.3224646" lon="2.3335591">
        <ele>1017.64001465</ele>
        <time>2021-03-30T10:33:47Z</time>
      </trkpt>
      <trkpt lat="42.3224584" lon="2.3335702">
        <ele>1017.73999023</ele>
        <time>2021-03-30T10:33:48Z</time>
      </trkpt>
      <trkpt lat="42.32245" lon="2.3335801">
        <ele>1017.67999268</ele>
        <time>2021-03-30T10:33:49Z</time>
      </trkpt>
      <trkpt lat="42.3224441" lon="2.3335812">
        <ele>1017.76000977</ele>
        <time>2021-03-30T10:33:50Z</time>
      </trkpt>
      <trkpt lat="42.3224405" lon="2.3335872">
        <ele>1018.02001953</ele>
        <time>2021-03-30T10:33:51Z</time>
      </trkpt>
      <trkpt lat="42.3224113" lon="2.3336047">
        <ele>1019.20001221</ele>
        <time>2021-03-30T10:33:57Z</time>
      </trkpt>
      <trkpt lat="42.3224145" lon="2.333608">
        <ele>1018.94000244</ele>
        <time>2021-03-30T10:33:58Z</time>
      </trkpt>
      <trkpt lat="42.3224111" lon="2.3336098">
        <ele>1018.64001465</ele>
        <time>2021-03-30T10:33:59Z</time>
      </trkpt>
      <trkpt lat="42.3224167" lon="2.3336223">
        <ele>1018.70001221</ele>
        <time>2021-03-30T10:34:00Z</time>
      </trkpt>
      <trkpt lat="42.3224237" lon="2.3336279">
        <ele>1020.11999512</ele>
        <time>2021-03-30T10:34:01Z</time>
      </trkpt>
      <trkpt lat="42.322419" lon="2.3336317">
        <ele>1021.2800293</ele>
        <time>2021-03-30T10:34:02Z</time>
      </trkpt>
      <trkpt lat="42.322418" lon="2.3336349">
        <ele>1022.26000977</ele>
        <time>2021-03-30T10:34:03Z</time>
      </trkpt>
      <trkpt lat="42.3224166" lon="2.333638">
        <ele>1023.10998535</ele>
        <time>2021-03-30T10:34:04Z</time>
      </trkpt>
      <trkpt lat="42.322412" lon="2.3336417">
        <ele>1023.82000732</ele>
        <time>2021-03-30T10:34:05Z</time>
      </trkpt>
      <trkpt lat="42.3224176" lon="2.3336437">
        <ele>1025.18994141</ele>
        <time>2021-03-30T10:34:08Z</time>
      </trkpt>
      <trkpt lat="42.3224213" lon="2.333635">
        <ele>1025.36999512</ele>
        <time>2021-03-30T10:34:09Z</time>
      </trkpt>
      <trkpt lat="42.3224282" lon="2.3336229">
        <ele>1025.43005371</ele>
        <time>2021-03-30T10:34:10Z</time>
      </trkpt>
      <trkpt lat="42.3224349" lon="2.3336214">
        <ele>1018.05999756</ele>
        <time>2021-03-30T10:34:11Z</time>
      </trkpt>
      <trkpt lat="42.322441" lon="2.333618">
        <ele>1017.04998779</ele>
        <time>2021-03-30T10:34:12Z</time>
      </trkpt>
      <trkpt lat="42.3224492" lon="2.3336055">
        <ele>1016.7800293</ele>
        <time>2021-03-30T10:34:13Z</time>
      </trkpt>
      <trkpt lat="42.3224532" lon="2.333592">
        <ele>1016.79998779</ele>
        <time>2021-03-30T10:34:14Z</time>
      </trkpt>
      <trkpt lat="42.322455" lon="2.3335795">
        <ele>1017.08001709</ele>
        <time>2021-03-30T10:34:15Z</time>
      </trkpt>
      <trkpt lat="42.3224623" lon="2.3335715">
        <ele>1017.46002197</ele>
        <time>2021-03-30T10:34:16Z</time>
      </trkpt>
      <trkpt lat="42.3224699" lon="2.3335681">
        <ele>1017.40997314</ele>
        <time>2021-03-30T10:34:17Z</time>
      </trkpt>
      <trkpt lat="42.3224764" lon="2.3335697">
        <ele>1017.13000488</ele>
        <time>2021-03-30T10:34:18Z</time>
      </trkpt>
      <trkpt lat="42.3225048" lon="2.3336833">
        <ele>1011.29998779</ele>
        <time>2021-03-30T10:34:51Z</time>
      </trkpt>
      <trkpt lat="42.3224947" lon="2.3336905">
        <ele>1011</ele>
        <time>2021-03-30T10:34:52Z</time>
      </trkpt>
      <trkpt lat="42.3224944" lon="2.3336944">
        <ele>1011.15997314</ele>
        <time>2021-03-30T10:34:53Z</time>
      </trkpt>
      <trkpt lat="42.322492" lon="2.3337037">
        <ele>1011.07000732</ele>
        <time>2021-03-30T10:34:54Z</time>
      </trkpt>
      <trkpt lat="42.3224839" lon="2.3337208">
        <ele>1010.84997559</ele>
        <time>2021-03-30T10:34:55Z</time>
      </trkpt>
      <trkpt lat="42.3224848" lon="2.3337251">
        <ele>1010.60998535</ele>
        <time>2021-03-30T10:34:56Z</time>
      </trkpt>
      <trkpt lat="42.3224838" lon="2.333737">
        <ele>1010.40002441</ele>
        <time>2021-03-30T10:34:57Z</time>
      </trkpt>
      <trkpt lat="42.3224776" lon="2.3337422">
        <ele>1010.02001953</ele>
        <time>2021-03-30T10:34:58Z</time>
      </trkpt>
      <trkpt lat="42.3224713" lon="2.3337485">
        <ele>1010.05999756</ele>
        <time>2021-03-30T10:34:59Z</time>
      </trkpt>
      <trkpt lat="42.3224682" lon="2.3337568">
        <ele>1010.10998535</ele>
        <time>2021-03-30T10:35:00Z</time>
      </trkpt>
      <trkpt lat="42.3224623" lon="2.333766">
        <ele>1009.95001221</ele>
        <time>2021-03-30T10:35:01Z</time>
      </trkpt>
      <trkpt lat="42.3224596" lon="2.3337745">
        <ele>1009.85998535</ele>
        <time>2021-03-30T10:35:02Z</time>
      </trkpt>
      <trkpt lat="42.3224579" lon="2.3337828">
        <ele>1009.65997314</ele>
        <time>2021-03-30T10:35:03Z</time>
      </trkpt>
      <trkpt lat="42.3224542" lon="2.3337921">
        <ele>1009.40997314</ele>
        <time>2021-03-30T10:35:04Z</time>
      </trkpt>
      <trkpt lat="42.3224502" lon="2.3338149">
        <ele>1009.20001221</ele>
        <time>2021-03-30T10:35:05Z</time>
      </trkpt>
      <trkpt lat="42.3224491" lon="2.3338253">
        <ele>1008.52001953</ele>
        <time>2021-03-30T10:35:06Z</time>
      </trkpt>
      <trkpt lat="42.3223893" lon="2.3338781">
        <ele>1008.01000977</ele>
        <time>2021-03-30T10:35:23Z</time>
      </trkpt>
      <trkpt lat="42.3223745" lon="2.3339013">
        <ele>1008.17999268</ele>
        <time>2021-03-30T10:35:24Z</time>
      </trkpt>
      <trkpt lat="42.322357" lon="2.3339074">
        <ele>1007.96002197</ele>
        <time>2021-03-30T10:35:25Z</time>
      </trkpt>
      <trkpt lat="42.3223429" lon="2.3339252">
        <ele>1008.34997559</ele>
        <time>2021-03-30T10:35:26Z</time>
      </trkpt>
      <trkpt lat="42.3223264" lon="2.3339506">
        <ele>1008.38000488</ele>
        <time>2021-03-30T10:35:27Z</time>
      </trkpt>
      <trkpt lat="42.3223194" lon="2.3339745">
        <ele>1008.21002197</ele>
        <time>2021-03-30T10:35:28Z</time>
      </trkpt>
      <trkpt lat="42.3223049" lon="2.3340022">
        <ele>1007.76000977</ele>
        <time>2021-03-30T10:35:29Z</time>
      </trkpt>
      <trkpt lat="42.3222789" lon="2.3340416">
        <ele>1007.34002686</ele>
        <time>2021-03-30T10:35:30Z</time>
      </trkpt>
      <trkpt lat="42.3222591" lon="2.3340814">
        <ele>1006.80999756</ele>
        <time>2021-03-30T10:35:31Z</time>
      </trkpt>
      <trkpt lat="42.3222352" lon="2.3341109">
        <ele>1006.02001953</ele>
        <time>2021-03-30T10:35:32Z</time>
      </trkpt>
      <trkpt lat="42.322206" lon="2.334143">
        <ele>1005.51000977</ele>
        <time>2021-03-30T10:35:33Z</time>
      </trkpt>
      <trkpt lat="42.322182" lon="2.3341804">
        <ele>1005.21002197</ele>
        <time>2021-03-30T10:35:34Z</time>
      </trkpt>
      <trkpt lat="42.3221549" lon="2.3342052">
        <ele>1004.90997314</ele>
        <time>2021-03-30T10:35:35Z</time>
      </trkpt>
      <trkpt lat="42.3221298" lon="2.3342268">
        <ele>1005.25</ele>
        <time>2021-03-30T10:35:36Z</time>
      </trkpt>
      <trkpt lat="42.3221013" lon="2.3342444">
        <ele>1005.57000732</ele>
        <time>2021-03-30T10:35:37Z</time>
      </trkpt>
      <trkpt lat="42.3220654" lon="2.334262">
        <ele>1006.02001953</ele>
        <time>2021-03-30T10:35:38Z</time>
      </trkpt>
      <trkpt lat="42.3220342" lon="2.3342734">
        <ele>1006.63000488</ele>
        <time>2021-03-30T10:35:39Z</time>
      </trkpt>
      <trkpt lat="42.3220057" lon="2.3342928">
        <ele>1007.2199707</ele>
        <time>2021-03-30T10:35:40Z</time>
      </trkpt>
      <trkpt lat="42.3219765" lon="2.3343081">
        <ele>1007.4699707</ele>
        <time>2021-03-30T10:35:41Z</time>
      </trkpt>
      <trkpt lat="42.3219386" lon="2.3343406">
        <ele>1007.63000488</ele>
        <time>2021-03-30T10:35:42Z</time>
      </trkpt>
      <trkpt lat="42.3219126" lon="2.3343466">
        <ele>1007.63000488</ele>
        <time>2021-03-30T10:35:43Z</time>
      </trkpt>
      <trkpt lat="42.3218719" lon="2.3343686">
        <ele>1007.67999268</ele>
        <time>2021-03-30T10:35:44Z</time>
      </trkpt>
      <trkpt lat="42.3218313" lon="2.3343823">
        <ele>1007.70001221</ele>
        <time>2021-03-30T10:35:45Z</time>
      </trkpt>
      <trkpt lat="42.3217976" lon="2.3343876">
        <ele>1007.76000977</ele>
        <time>2021-03-30T10:35:46Z</time>
      </trkpt>
      <trkpt lat="42.3217659" lon="2.334409">
        <ele>1007.85998535</ele>
        <time>2021-03-30T10:35:47Z</time>
      </trkpt>
      <trkpt lat="42.3217463" lon="2.3344179">
        <ele>1007.91998291</ele>
        <time>2021-03-30T10:35:48Z</time>
      </trkpt>
      <trkpt lat="42.3217209" lon="2.3344319">
        <ele>1008.23999023</ele>
        <time>2021-03-30T10:35:49Z</time>
      </trkpt>
      <trkpt lat="42.3216773" lon="2.3344629">
        <ele>1008.22998047</ele>
        <time>2021-03-30T10:35:50Z</time>
      </trkpt>
      <trkpt lat="42.3216425" lon="2.3344782">
        <ele>1008.22998047</ele>
        <time>2021-03-30T10:35:51Z</time>
      </trkpt>
      <trkpt lat="42.3216004" lon="2.3345108">
        <ele>1008.15002441</ele>
        <time>2021-03-30T10:35:52Z</time>
      </trkpt>
      <trkpt lat="42.3215616" lon="2.33454">
        <ele>1007.88000488</ele>
        <time>2021-03-30T10:35:53Z</time>
      </trkpt>
      <trkpt lat="42.3215288" lon="2.3345627">
        <ele>1007.59997559</ele>
        <time>2021-03-30T10:35:54Z</time>
      </trkpt>
      <trkpt lat="42.3214971" lon="2.334589">
        <ele>1007.34002686</ele>
        <time>2021-03-30T10:35:55Z</time>
      </trkpt>
      <trkpt lat="42.3214693" lon="2.3346205">
        <ele>1007.09002686</ele>
        <time>2021-03-30T10:35:56Z</time>
      </trkpt>
      <trkpt lat="42.321423" lon="2.3346611">
        <ele>1006.80999756</ele>
        <time>2021-03-30T10:35:57Z</time>
      </trkpt>
      <trkpt lat="42.3213859" lon="2.3347032">
        <ele>1006.48999023</ele>
        <time>2021-03-30T10:35:58Z</time>
      </trkpt>
      <trkpt lat="42.3213522" lon="2.334726">
        <ele>1006.13000488</ele>
        <time>2021-03-30T10:35:59Z</time>
      </trkpt>
      <trkpt lat="42.321323" lon="2.3347468">
        <ele>1005.7800293</ele>
        <time>2021-03-30T10:36:00Z</time>
      </trkpt>
      <trkpt lat="42.3213003" lon="2.3347677">
        <ele>1005.46002197</ele>
        <time>2021-03-30T10:36:01Z</time>
      </trkpt>
      <trkpt lat="42.3212765" lon="2.3347872">
        <ele>1005.16998291</ele>
        <time>2021-03-30T10:36:02Z</time>
      </trkpt>
      <trkpt lat="42.3212586" lon="2.3348032">
        <ele>1004.90002441</ele>
        <time>2021-03-30T10:36:03Z</time>
      </trkpt>
      <trkpt lat="42.3212355" lon="2.3348303">
        <ele>1004.65997314</ele>
        <time>2021-03-30T10:36:04Z</time>
      </trkpt>
      <trkpt lat="42.3212132" lon="2.3348592">
        <ele>1004.45001221</ele>
        <time>2021-03-30T10:36:05Z</time>
      </trkpt>
      <trkpt lat="42.3211877" lon="2.3348811">
        <ele>1004.26000977</ele>
        <time>2021-03-30T10:36:06Z</time>
      </trkpt>
      <trkpt lat="42.3211685" lon="2.3349004">
        <ele>1004.09997559</ele>
        <time>2021-03-30T10:36:07Z</time>
      </trkpt>
      <trkpt lat="42.3211495" lon="2.3349102">
        <ele>1003.97998047</ele>
        <time>2021-03-30T10:36:08Z</time>
      </trkpt>
      <trkpt lat="42.321137" lon="2.3349215">
        <ele>1003.89001465</ele>
        <time>2021-03-30T10:36:09Z</time>
      </trkpt>
      <trkpt lat="42.321118" lon="2.3349395">
        <ele>1003.83001709</ele>
        <time>2021-03-30T10:36:10Z</time>
      </trkpt>
      <trkpt lat="42.3210913" lon="2.3349586">
        <ele>1003.80999756</ele>
        <time>2021-03-30T10:36:11Z</time>
      </trkpt>
      <trkpt lat="42.3210681" lon="2.3349738">
        <ele>1003.76000977</ele>
        <time>2021-03-30T10:36:12Z</time>
      </trkpt>
      <trkpt lat="42.321057" lon="2.3349969">
        <ele>1003.66998291</ele>
        <time>2021-03-30T10:36:13Z</time>
      </trkpt>
      <trkpt lat="42.3210433" lon="2.3350347">
        <ele>1003.57000732</ele>
        <time>2021-03-30T10:36:14Z</time>
      </trkpt>
      <trkpt lat="42.3210258" lon="2.3350678">
        <ele>1003.39001465</ele>
        <time>2021-03-30T10:36:15Z</time>
      </trkpt>
      <trkpt lat="42.3210191" lon="2.3351109">
        <ele>1003.14001465</ele>
        <time>2021-03-30T10:36:16Z</time>
      </trkpt>
      <trkpt lat="42.3210141" lon="2.3351551">
        <ele>1002.80999756</ele>
        <time>2021-03-30T10:36:17Z</time>
      </trkpt>
      <trkpt lat="42.3210138" lon="2.3351992">
        <ele>1002.41998291</ele>
        <time>2021-03-30T10:36:18Z</time>
      </trkpt>
      <trkpt lat="42.3210145" lon="2.335243">
        <ele>1001.98999023</ele>
        <time>2021-03-30T10:36:19Z</time>
      </trkpt>
      <trkpt lat="42.3210154" lon="2.3352687">
        <ele>1001.51000977</ele>
        <time>2021-03-30T10:36:20Z</time>
      </trkpt>
      <trkpt lat="42.3210155" lon="2.3352882">
        <ele>1001.03997803</ele>
        <time>2021-03-30T10:36:21Z</time>
      </trkpt>
      <trkpt lat="42.3210096" lon="2.3353149">
        <ele>1000.59997559</ele>
        <time>2021-03-30T10:36:22Z</time>
      </trkpt>
      <trkpt lat="42.3210102" lon="2.3353218">
        <ele>1000.19000244</ele>
        <time>2021-03-30T10:36:23Z</time>
      </trkpt>
      <trkpt lat="42.3210009" lon="2.3353348">
        <ele>999.83001709</ele>
        <time>2021-03-30T10:36:24Z</time>
      </trkpt>
      <trkpt lat="42.3210152" lon="2.3353593">
        <ele>998.66998291</ele>
        <time>2021-03-30T10:36:28Z</time>
      </trkpt>
      <trkpt lat="42.3210069" lon="2.3353615">
        <ele>998.47998047</ele>
        <time>2021-03-30T10:36:29Z</time>
      </trkpt>
      <trkpt lat="42.3210057" lon="2.3353545">
        <ele>998.29998779</ele>
        <time>2021-03-30T10:36:30Z</time>
      </trkpt>
      <trkpt lat="42.3209939" lon="2.3353595">
        <ele>998.13000488</ele>
        <time>2021-03-30T10:36:31Z</time>
      </trkpt>
      <trkpt lat="42.3209731" lon="2.3353787">
        <ele>997.96002197</ele>
        <time>2021-03-30T10:36:32Z</time>
      </trkpt>
      <trkpt lat="42.3209625" lon="2.3354025">
        <ele>997.77001953</ele>
        <time>2021-03-30T10:36:33Z</time>
      </trkpt>
      <trkpt lat="42.3209602" lon="2.3354102">
        <ele>997.57000732</ele>
        <time>2021-03-30T10:36:34Z</time>
      </trkpt>
      <trkpt lat="42.3209612" lon="2.3354312">
        <ele>997.40002441</ele>
        <time>2021-03-30T10:36:35Z</time>
      </trkpt>
      <trkpt lat="42.3209571" lon="2.3354428">
        <ele>997.23999023</ele>
        <time>2021-03-30T10:36:36Z</time>
      </trkpt>
      <trkpt lat="42.3209568" lon="2.335452">
        <ele>997.09002686</ele>
        <time>2021-03-30T10:36:37Z</time>
      </trkpt>
      <trkpt lat="42.3209583" lon="2.335466">
        <ele>996.96002197</ele>
        <time>2021-03-30T10:36:38Z</time>
      </trkpt>
      <trkpt lat="42.3209534" lon="2.3354666">
        <ele>996.84002686</ele>
        <time>2021-03-30T10:36:39Z</time>
      </trkpt>
      <trkpt lat="42.3209473" lon="2.3354823">
        <ele>996.72998047</ele>
        <time>2021-03-30T10:36:40Z</time>
      </trkpt>
      <trkpt lat="42.3209329" lon="2.3355046">
        <ele>996.60998535</ele>
        <time>2021-03-30T10:36:41Z</time>
      </trkpt>
      <trkpt lat="42.320932" lon="2.3355236">
        <ele>996.48999023</ele>
        <time>2021-03-30T10:36:42Z</time>
      </trkpt>
      <trkpt lat="42.3209347" lon="2.3355334">
        <ele>996.36999512</ele>
        <time>2021-03-30T10:36:43Z</time>
      </trkpt>
      <trkpt lat="42.3209343" lon="2.3355451">
        <ele>996.27001953</ele>
        <time>2021-03-30T10:36:44Z</time>
      </trkpt>
      <trkpt lat="42.3209262" lon="2.335571">
        <ele>996.17999268</ele>
        <time>2021-03-30T10:36:45Z</time>
      </trkpt>
      <trkpt lat="42.3209279" lon="2.335585">
        <ele>996.09997559</ele>
        <time>2021-03-30T10:36:46Z</time>
      </trkpt>
      <trkpt lat="42.3209272" lon="2.3355914">
        <ele>996.0300293</ele>
        <time>2021-03-30T10:36:47Z</time>
      </trkpt>
      <trkpt lat="42.32093" lon="2.3355863">
        <ele>995.97998047</ele>
        <time>2021-03-30T10:36:48Z</time>
      </trkpt>
      <trkpt lat="42.3209327" lon="2.335601">
        <ele>995.92999268</ele>
        <time>2021-03-30T10:36:49Z</time>
      </trkpt>
      <trkpt lat="42.3209347" lon="2.3356142">
        <ele>995.90002441</ele>
        <time>2021-03-30T10:36:50Z</time>
      </trkpt>
      <trkpt lat="42.3209073" lon="2.3356804">
        <ele>995.83001709</ele>
        <time>2021-03-30T10:37:02Z</time>
      </trkpt>
      <trkpt lat="42.3209164" lon="2.3356673">
        <ele>995.84997559</ele>
        <time>2021-03-30T10:37:03Z</time>
      </trkpt>
      <trkpt lat="42.3209171" lon="2.3356777">
        <ele>995.85998535</ele>
        <time>2021-03-30T10:37:04Z</time>
      </trkpt>
      <trkpt lat="42.3209095" lon="2.3357185">
        <ele>995.86999512</ele>
        <time>2021-03-30T10:37:05Z</time>
      </trkpt>
      <trkpt lat="42.3208946" lon="2.3357517">
        <ele>995.91998291</ele>
        <time>2021-03-30T10:37:06Z</time>
      </trkpt>
      <trkpt lat="42.3208914" lon="2.3357883">
        <ele>996</ele>
        <time>2021-03-30T10:37:07Z</time>
      </trkpt>
      <trkpt lat="42.3208895" lon="2.3358237">
        <ele>996.11999512</ele>
        <time>2021-03-30T10:37:08Z</time>
      </trkpt>
      <trkpt lat="42.3208938" lon="2.3358428">
        <ele>996.26000977</ele>
        <time>2021-03-30T10:37:09Z</time>
      </trkpt>
      <trkpt lat="42.320892" lon="2.3358645">
        <ele>996.40002441</ele>
        <time>2021-03-30T10:37:10Z</time>
      </trkpt>
      <trkpt lat="42.3208952" lon="2.3358767">
        <ele>996.5300293</ele>
        <time>2021-03-30T10:37:11Z</time>
      </trkpt>
      <trkpt lat="42.320902" lon="2.3359067">
        <ele>996.64001465</ele>
        <time>2021-03-30T10:37:12Z</time>
      </trkpt>
      <trkpt lat="42.3209066" lon="2.3359523">
        <ele>996.7199707</ele>
        <time>2021-03-30T10:37:13Z</time>
      </trkpt>
      <trkpt lat="42.320914" lon="2.3359905">
        <ele>996.78997803</ele>
        <time>2021-03-30T10:37:14Z</time>
      </trkpt>
      <trkpt lat="42.320923" lon="2.3360132">
        <ele>996.83001709</ele>
        <time>2021-03-30T10:37:15Z</time>
      </trkpt>
      <trkpt lat="42.3209246" lon="2.336064">
        <ele>996.84997559</ele>
        <time>2021-03-30T10:37:16Z</time>
      </trkpt>
      <trkpt lat="42.3209248" lon="2.3361203">
        <ele>996.86999512</ele>
        <time>2021-03-30T10:37:17Z</time>
      </trkpt>
      <trkpt lat="42.3209174" lon="2.3361693">
        <ele>996.88000488</ele>
        <time>2021-03-30T10:37:18Z</time>
      </trkpt>
      <trkpt lat="42.3209102" lon="2.3362021">
        <ele>996.90997314</ele>
        <time>2021-03-30T10:37:19Z</time>
      </trkpt>
      <trkpt lat="42.3209009" lon="2.3362525">
        <ele>996.94000244</ele>
        <time>2021-03-30T10:37:20Z</time>
      </trkpt>
      <trkpt lat="42.320893" lon="2.3363038">
        <ele>996.98999023</ele>
        <time>2021-03-30T10:37:21Z</time>
      </trkpt>
      <trkpt lat="42.3208854" lon="2.3363495">
        <ele>997.04998779</ele>
        <time>2021-03-30T10:37:22Z</time>
      </trkpt>
      <trkpt lat="42.3208915" lon="2.3363846">
        <ele>997.11999512</ele>
        <time>2021-03-30T10:37:23Z</time>
      </trkpt>
      <trkpt lat="42.3208915" lon="2.3364258">
        <ele>997.16998291</ele>
        <time>2021-03-30T10:37:24Z</time>
      </trkpt>
      <trkpt lat="42.320892" lon="2.3364667">
        <ele>997.2199707</ele>
        <time>2021-03-30T10:37:25Z</time>
      </trkpt>
      <trkpt lat="42.3208873" lon="2.3365158">
        <ele>997.26000977</ele>
        <time>2021-03-30T10:37:26Z</time>
      </trkpt>
      <trkpt lat="42.3208896" lon="2.3365505">
        <ele>997.29998779</ele>
        <time>2021-03-30T10:37:27Z</time>
      </trkpt>
      <trkpt lat="42.3208933" lon="2.336604">
        <ele>997.34002686</ele>
        <time>2021-03-30T10:37:28Z</time>
      </trkpt>
      <trkpt lat="42.3209059" lon="2.3366631">
        <ele>997.35998535</ele>
        <time>2021-03-30T10:37:29Z</time>
      </trkpt>
      <trkpt lat="42.3209118" lon="2.3367217">
        <ele>997.35998535</ele>
        <time>2021-03-30T10:37:30Z</time>
      </trkpt>
      <trkpt lat="42.320915" lon="2.3367816">
        <ele>997.2800293</ele>
        <time>2021-03-30T10:37:31Z</time>
      </trkpt>
      <trkpt lat="42.3209124" lon="2.3368586">
        <ele>997.11999512</ele>
        <time>2021-03-30T10:37:32Z</time>
      </trkpt>
      <trkpt lat="42.3209165" lon="2.3369211">
        <ele>996.86999512</ele>
        <time>2021-03-30T10:37:33Z</time>
      </trkpt>
      <trkpt lat="42.3209325" lon="2.3369805">
        <ele>996.55999756</ele>
        <time>2021-03-30T10:37:34Z</time>
      </trkpt>
      <trkpt lat="42.3209383" lon="2.3370432">
        <ele>996.25</ele>
        <time>2021-03-30T10:37:35Z</time>
      </trkpt>
      <trkpt lat="42.3209492" lon="2.3371029">
        <ele>995.96002197</ele>
        <time>2021-03-30T10:37:36Z</time>
      </trkpt>
      <trkpt lat="42.3209659" lon="2.3371654">
        <ele>995.71002197</ele>
        <time>2021-03-30T10:37:37Z</time>
      </trkpt>
      <trkpt lat="42.3209813" lon="2.33722">
        <ele>995.47998047</ele>
        <time>2021-03-30T10:37:38Z</time>
      </trkpt>
      <trkpt lat="42.3209904" lon="2.3372618">
        <ele>995.2800293</ele>
        <time>2021-03-30T10:37:39Z</time>
      </trkpt>
      <trkpt lat="42.3209882" lon="2.3373071">
        <ele>995.09997559</ele>
        <time>2021-03-30T10:37:40Z</time>
      </trkpt>
      <trkpt lat="42.3209857" lon="2.3373597">
        <ele>994.94000244</ele>
        <time>2021-03-30T10:37:41Z</time>
      </trkpt>
      <trkpt lat="42.320975" lon="2.3374153">
        <ele>994.78997803</ele>
        <time>2021-03-30T10:37:42Z</time>
      </trkpt>
      <trkpt lat="42.32097" lon="2.3374679">
        <ele>994.65997314</ele>
        <time>2021-03-30T10:37:43Z</time>
      </trkpt>
      <trkpt lat="42.3209486" lon="2.3375195">
        <ele>994.54998779</ele>
        <time>2021-03-30T10:37:44Z</time>
      </trkpt>
      <trkpt lat="42.3209118" lon="2.3375869">
        <ele>994.45001221</ele>
        <time>2021-03-30T10:37:45Z</time>
      </trkpt>
      <trkpt lat="42.3208886" lon="2.337644">
        <ele>994.35998535</ele>
        <time>2021-03-30T10:37:46Z</time>
      </trkpt>
      <trkpt lat="42.3208603" lon="2.3377138">
        <ele>994.2800293</ele>
        <time>2021-03-30T10:37:47Z</time>
      </trkpt>
      <trkpt lat="42.3208335" lon="2.3377629">
        <ele>994.20001221</ele>
        <time>2021-03-30T10:37:48Z</time>
      </trkpt>
      <trkpt lat="42.3208012" lon="2.3378131">
        <ele>994.14001465</ele>
        <time>2021-03-30T10:37:49Z</time>
      </trkpt>
      <trkpt lat="42.3207669" lon="2.3378693">
        <ele>994.08001709</ele>
        <time>2021-03-30T10:37:50Z</time>
      </trkpt>
      <trkpt lat="42.3207349" lon="2.3379113">
        <ele>994.0300293</ele>
        <time>2021-03-30T10:37:51Z</time>
      </trkpt>
      <trkpt lat="42.320702" lon="2.3379571">
        <ele>993.97998047</ele>
        <time>2021-03-30T10:37:52Z</time>
      </trkpt>
      <trkpt lat="42.3206729" lon="2.338007">
        <ele>993.94000244</ele>
        <time>2021-03-30T10:37:53Z</time>
      </trkpt>
      <trkpt lat="42.3206512" lon="2.3380572">
        <ele>993.90997314</ele>
        <time>2021-03-30T10:37:54Z</time>
      </trkpt>
      <trkpt lat="42.3206133" lon="2.3381061">
        <ele>993.86999512</ele>
        <time>2021-03-30T10:37:55Z</time>
      </trkpt>
      <trkpt lat="42.3205847" lon="2.3381629">
        <ele>993.82000732</ele>
        <time>2021-03-30T10:37:56Z</time>
      </trkpt>
      <trkpt lat="42.3205616" lon="2.3382071">
        <ele>993.7800293</ele>
        <time>2021-03-30T10:37:57Z</time>
      </trkpt>
      <trkpt lat="42.3205421" lon="2.3382559">
        <ele>993.75</ele>
        <time>2021-03-30T10:37:58Z</time>
      </trkpt>
      <trkpt lat="42.3205134" lon="2.3383046">
        <ele>993.72998047</ele>
        <time>2021-03-30T10:37:59Z</time>
      </trkpt>
      <trkpt lat="42.3204919" lon="2.3383602">
        <ele>993.7199707</ele>
        <time>2021-03-30T10:38:00Z</time>
      </trkpt>
      <trkpt lat="42.3204682" lon="2.3384082">
        <ele>993.65997314</ele>
        <time>2021-03-30T10:38:01Z</time>
      </trkpt>
      <trkpt lat="42.3204403" lon="2.3384486">
        <ele>993.52001953</ele>
        <time>2021-03-30T10:38:02Z</time>
      </trkpt>
      <trkpt lat="42.320408" lon="2.3384984">
        <ele>993.30999756</ele>
        <time>2021-03-30T10:38:03Z</time>
      </trkpt>
      <trkpt lat="42.3203793" lon="2.3385429">
        <ele>993.0300293</ele>
        <time>2021-03-30T10:38:04Z</time>
      </trkpt>
      <trkpt lat="42.3203412" lon="2.3385841">
        <ele>992.69000244</ele>
        <time>2021-03-30T10:38:05Z</time>
      </trkpt>
      <trkpt lat="42.320318" lon="2.3386298">
        <ele>992.29998779</ele>
        <time>2021-03-30T10:38:06Z</time>
      </trkpt>
      <trkpt lat="42.3202854" lon="2.3386803">
        <ele>991.90997314</ele>
        <time>2021-03-30T10:38:07Z</time>
      </trkpt>
      <trkpt lat="42.3202771" lon="2.3387156">
        <ele>991.54998779</ele>
        <time>2021-03-30T10:38:08Z</time>
      </trkpt>
      <trkpt lat="42.3202466" lon="2.3387771">
        <ele>991.2199707</ele>
        <time>2021-03-30T10:38:09Z</time>
      </trkpt>
      <trkpt lat="42.3202428" lon="2.3388341">
        <ele>990.94000244</ele>
        <time>2021-03-30T10:38:10Z</time>
      </trkpt>
      <trkpt lat="42.3202204" lon="2.3388798">
        <ele>990.67999268</ele>
        <time>2021-03-30T10:38:11Z</time>
      </trkpt>
      <trkpt lat="42.3202028" lon="2.3389346">
        <ele>990.45001221</ele>
        <time>2021-03-30T10:38:12Z</time>
      </trkpt>
      <trkpt lat="42.3201954" lon="2.338993">
        <ele>990.23999023</ele>
        <time>2021-03-30T10:38:13Z</time>
      </trkpt>
      <trkpt lat="42.3201857" lon="2.3390433">
        <ele>990.05999756</ele>
        <time>2021-03-30T10:38:14Z</time>
      </trkpt>
      <trkpt lat="42.3201787" lon="2.3391019">
        <ele>989.90002441</ele>
        <time>2021-03-30T10:38:15Z</time>
      </trkpt>
      <trkpt lat="42.320163" lon="2.3391541">
        <ele>989.75</ele>
        <time>2021-03-30T10:38:16Z</time>
      </trkpt>
      <trkpt lat="42.3201522" lon="2.339199">
        <ele>989.61999512</ele>
        <time>2021-03-30T10:38:17Z</time>
      </trkpt>
      <trkpt lat="42.3201394" lon="2.3392483">
        <ele>989.51000977</ele>
        <time>2021-03-30T10:38:18Z</time>
      </trkpt>
      <trkpt lat="42.3201221" lon="2.3392933">
        <ele>989.40002441</ele>
        <time>2021-03-30T10:38:19Z</time>
      </trkpt>
      <trkpt lat="42.3201046" lon="2.3393386">
        <ele>989.30999756</ele>
        <time>2021-03-30T10:38:20Z</time>
      </trkpt>
      <trkpt lat="42.3200856" lon="2.3393987">
        <ele>989.22998047</ele>
        <time>2021-03-30T10:38:21Z</time>
      </trkpt>
      <trkpt lat="42.3200638" lon="2.3394508">
        <ele>989.15997314</ele>
        <time>2021-03-30T10:38:22Z</time>
      </trkpt>
      <trkpt lat="42.3200421" lon="2.3394873">
        <ele>989.09002686</ele>
        <time>2021-03-30T10:38:23Z</time>
      </trkpt>
      <trkpt lat="42.3200285" lon="2.3395404">
        <ele>989.02001953</ele>
        <time>2021-03-30T10:38:24Z</time>
      </trkpt>
      <trkpt lat="42.3200021" lon="2.3396082">
        <ele>988.95001221</ele>
        <time>2021-03-30T10:38:25Z</time>
      </trkpt>
      <trkpt lat="42.3199839" lon="2.3396528">
        <ele>988.90002441</ele>
        <time>2021-03-30T10:38:26Z</time>
      </trkpt>
      <trkpt lat="42.3199711" lon="2.3397084">
        <ele>988.85998535</ele>
        <time>2021-03-30T10:38:27Z</time>
      </trkpt>
      <trkpt lat="42.319954" lon="2.339757">
        <ele>988.83001709</ele>
        <time>2021-03-30T10:38:28Z</time>
      </trkpt>
      <trkpt lat="42.3199312" lon="2.3398144">
        <ele>988.75</ele>
        <time>2021-03-30T10:38:29Z</time>
      </trkpt>
      <trkpt lat="42.3199156" lon="2.3398591">
        <ele>988.59997559</ele>
        <time>2021-03-30T10:38:30Z</time>
      </trkpt>
      <trkpt lat="42.319904" lon="2.3399057">
        <ele>988.40997314</ele>
        <time>2021-03-30T10:38:31Z</time>
      </trkpt>
      <trkpt lat="42.3198806" lon="2.3399444">
        <ele>988.20001221</ele>
        <time>2021-03-30T10:38:32Z</time>
      </trkpt>
      <trkpt lat="42.3198585" lon="2.3399887">
        <ele>987.98999023</ele>
        <time>2021-03-30T10:38:33Z</time>
      </trkpt>
      <trkpt lat="42.3198302" lon="2.3400282">
        <ele>987.78997803</ele>
        <time>2021-03-30T10:38:34Z</time>
      </trkpt>
      <trkpt lat="42.3198027" lon="2.340063">
        <ele>987.63000488</ele>
        <time>2021-03-30T10:38:35Z</time>
      </trkpt>
      <trkpt lat="42.319783" lon="2.3400977">
        <ele>987.47998047</ele>
        <time>2021-03-30T10:38:36Z</time>
      </trkpt>
      <trkpt lat="42.3197588" lon="2.3401304">
        <ele>987.33001709</ele>
        <time>2021-03-30T10:38:37Z</time>
      </trkpt>
      <trkpt lat="42.3197322" lon="2.340177">
        <ele>987.16998291</ele>
        <time>2021-03-30T10:38:38Z</time>
      </trkpt>
      <trkpt lat="42.3197068" lon="2.3402248">
        <ele>986.9699707</ele>
        <time>2021-03-30T10:38:39Z</time>
      </trkpt>
      <trkpt lat="42.3196722" lon="2.3402653">
        <ele>986.71002197</ele>
        <time>2021-03-30T10:38:40Z</time>
      </trkpt>
      <trkpt lat="42.3196468" lon="2.3403044">
        <ele>986.40002441</ele>
        <time>2021-03-30T10:38:41Z</time>
      </trkpt>
      <trkpt lat="42.3196065" lon="2.3403424">
        <ele>986.09002686</ele>
        <time>2021-03-30T10:38:42Z</time>
      </trkpt>
      <trkpt lat="42.3195892" lon="2.340395">
        <ele>985.80999756</ele>
        <time>2021-03-30T10:38:43Z</time>
      </trkpt>
      <trkpt lat="42.3195569" lon="2.3404477">
        <ele>985.55999756</ele>
        <time>2021-03-30T10:38:44Z</time>
      </trkpt>
      <trkpt lat="42.3195287" lon="2.3404982">
        <ele>985.34002686</ele>
        <time>2021-03-30T10:38:45Z</time>
      </trkpt>
      <trkpt lat="42.3194964" lon="2.3405597">
        <ele>985.14001465</ele>
        <time>2021-03-30T10:38:46Z</time>
      </trkpt>
      <trkpt lat="42.3194734" lon="2.3406092">
        <ele>984.96002197</ele>
        <time>2021-03-30T10:38:47Z</time>
      </trkpt>
      <trkpt lat="42.3194517" lon="2.3406611">
        <ele>984.80999756</ele>
        <time>2021-03-30T10:38:48Z</time>
      </trkpt>
      <trkpt lat="42.3194315" lon="2.3407102">
        <ele>984.65997314</ele>
        <time>2021-03-30T10:38:49Z</time>
      </trkpt>
      <trkpt lat="42.319407" lon="2.3407601">
        <ele>984.53997803</ele>
        <time>2021-03-30T10:38:50Z</time>
      </trkpt>
      <trkpt lat="42.3193837" lon="2.3408146">
        <ele>984.42999268</ele>
        <time>2021-03-30T10:38:51Z</time>
      </trkpt>
      <trkpt lat="42.3193681" lon="2.3408916">
        <ele>984.33001709</ele>
        <time>2021-03-30T10:38:52Z</time>
      </trkpt>
      <trkpt lat="42.319358" lon="2.3409432">
        <ele>984.23999023</ele>
        <time>2021-03-30T10:38:53Z</time>
      </trkpt>
      <trkpt lat="42.3193443" lon="2.3410145">
        <ele>984.15997314</ele>
        <time>2021-03-30T10:38:54Z</time>
      </trkpt>
      <trkpt lat="42.3193339" lon="2.3410728">
        <ele>984.09002686</ele>
        <time>2021-03-30T10:38:55Z</time>
      </trkpt>
      <trkpt lat="42.3193256" lon="2.341126">
        <ele>984.02001953</ele>
        <time>2021-03-30T10:38:56Z</time>
      </trkpt>
      <trkpt lat="42.3193107" lon="2.3411735">
        <ele>983.95001221</ele>
        <time>2021-03-30T10:38:57Z</time>
      </trkpt>
      <trkpt lat="42.3193038" lon="2.3412328">
        <ele>983.84002686</ele>
        <time>2021-03-30T10:38:58Z</time>
      </trkpt>
      <trkpt lat="42.3192915" lon="2.3412786">
        <ele>983.69000244</ele>
        <time>2021-03-30T10:38:59Z</time>
      </trkpt>
      <trkpt lat="42.3192943" lon="2.3413126">
        <ele>983.5300293</ele>
        <time>2021-03-30T10:39:00Z</time>
      </trkpt>
      <trkpt lat="42.3193031" lon="2.3413525">
        <ele>983.34997559</ele>
        <time>2021-03-30T10:39:01Z</time>
      </trkpt>
      <trkpt lat="42.31933" lon="2.3413849">
        <ele>983.14001465</ele>
        <time>2021-03-30T10:39:02Z</time>
      </trkpt>
      <trkpt lat="42.3193573" lon="2.3414098">
        <ele>982.86999512</ele>
        <time>2021-03-30T10:39:03Z</time>
      </trkpt>
      <trkpt lat="42.3193762" lon="2.3414377">
        <ele>982.55999756</ele>
        <time>2021-03-30T10:39:04Z</time>
      </trkpt>
      <trkpt lat="42.319399" lon="2.3414543">
        <ele>982.22998047</ele>
        <time>2021-03-30T10:39:05Z</time>
      </trkpt>
      <trkpt lat="42.3194164" lon="2.3414596">
        <ele>981.90002441</ele>
        <time>2021-03-30T10:39:06Z</time>
      </trkpt>
      <trkpt lat="42.319454" lon="2.3414367">
        <ele>978.4699707</ele>
        <time>2021-03-30T10:39:20Z</time>
      </trkpt>
      <trkpt lat="42.3194529" lon="2.3414411">
        <ele>978.4699707</ele>
        <time>2021-03-30T10:39:21Z</time>
      </trkpt>
      <trkpt lat="42.3194565" lon="2.3414456">
        <ele>978.4699707</ele>
        <time>2021-03-30T10:39:22Z</time>
      </trkpt>
      <trkpt lat="42.3194648" lon="2.3414525">
        <ele>978.48999023</ele>
        <time>2021-03-30T10:39:23Z</time>
      </trkpt>
      <trkpt lat="42.3194756" lon="2.3414679">
        <ele>978.5300293</ele>
        <time>2021-03-30T10:39:24Z</time>
      </trkpt>
      <trkpt lat="42.3194862" lon="2.3414913">
        <ele>978.59997559</ele>
        <time>2021-03-30T10:39:25Z</time>
      </trkpt>
      <trkpt lat="42.3194996" lon="2.3415199">
        <ele>978.71002197</ele>
        <time>2021-03-30T10:39:26Z</time>
      </trkpt>
      <trkpt lat="42.3195058" lon="2.3415298">
        <ele>978.90002441</ele>
        <time>2021-03-30T10:39:27Z</time>
      </trkpt>
      <trkpt lat="42.3195067" lon="2.34154">
        <ele>979</ele>
        <time>2021-03-30T10:39:28Z</time>
      </trkpt>
      <trkpt lat="42.3195202" lon="2.3415579">
        <ele>979.05999756</ele>
        <time>2021-03-30T10:39:29Z</time>
      </trkpt>
      <trkpt lat="42.3195448" lon="2.3415599">
        <ele>979.26000977</ele>
        <time>2021-03-30T10:39:30Z</time>
      </trkpt>
      <trkpt lat="42.3195609" lon="2.3415756">
        <ele>979.53997803</ele>
        <time>2021-03-30T10:39:31Z</time>
      </trkpt>
      <trkpt lat="42.3195877" lon="2.3415786">
        <ele>979.84002686</ele>
        <time>2021-03-30T10:39:32Z</time>
      </trkpt>
      <trkpt lat="42.3196194" lon="2.3415955">
        <ele>980.19000244</ele>
        <time>2021-03-30T10:39:33Z</time>
      </trkpt>
      <trkpt lat="42.3196627" lon="2.341629">
        <ele>980.75</ele>
        <time>2021-03-30T10:39:34Z</time>
      </trkpt>
      <trkpt lat="42.3196956" lon="2.3416584">
        <ele>981.76000977</ele>
        <time>2021-03-30T10:39:35Z</time>
      </trkpt>
      <trkpt lat="42.3197117" lon="2.3416704">
        <ele>982.77001953</ele>
        <time>2021-03-30T10:39:36Z</time>
      </trkpt>
      <trkpt lat="42.319736" lon="2.3416945">
        <ele>983.25</ele>
        <time>2021-03-30T10:39:37Z</time>
      </trkpt>
      <trkpt lat="42.3197531" lon="2.3417083">
        <ele>983.5</ele>
        <time>2021-03-30T10:39:38Z</time>
      </trkpt>
      <trkpt lat="42.3197812" lon="2.3417285">
        <ele>983.57000732</ele>
        <time>2021-03-30T10:39:39Z</time>
      </trkpt>
      <trkpt lat="42.3198094" lon="2.3417501">
        <ele>983.7199707</ele>
        <time>2021-03-30T10:39:40Z</time>
      </trkpt>
      <trkpt lat="42.3198383" lon="2.3417842">
        <ele>983.95001221</ele>
        <time>2021-03-30T10:39:41Z</time>
      </trkpt>
      <trkpt lat="42.3198615" lon="2.3418051">
        <ele>984.34997559</ele>
        <time>2021-03-30T10:39:42Z</time>
      </trkpt>
      <trkpt lat="42.3198796" lon="2.3418353">
        <ele>984.7199707</ele>
        <time>2021-03-30T10:39:43Z</time>
      </trkpt>
      <trkpt lat="42.3198929" lon="2.3418717">
        <ele>985.17999268</ele>
        <time>2021-03-30T10:39:44Z</time>
      </trkpt>
      <trkpt lat="42.3199088" lon="2.341904">
        <ele>985.72998047</ele>
        <time>2021-03-30T10:39:45Z</time>
      </trkpt>
      <trkpt lat="42.3199042" lon="2.3419282">
        <ele>986.33001709</ele>
        <time>2021-03-30T10:39:46Z</time>
      </trkpt>
      <trkpt lat="42.3199074" lon="2.3419702">
        <ele>986.59002686</ele>
        <time>2021-03-30T10:39:47Z</time>
      </trkpt>
      <trkpt lat="42.3199101" lon="2.3420378">
        <ele>986.84002686</ele>
        <time>2021-03-30T10:39:48Z</time>
      </trkpt>
      <trkpt lat="42.3199317" lon="2.3421285">
        <ele>986.90997314</ele>
        <time>2021-03-30T10:39:49Z</time>
      </trkpt>
      <trkpt lat="42.3199465" lon="2.342182">
        <ele>987.27001953</ele>
        <time>2021-03-30T10:39:50Z</time>
      </trkpt>
      <trkpt lat="42.3199603" lon="2.3422205">
        <ele>987.54998779</ele>
        <time>2021-03-30T10:39:51Z</time>
      </trkpt>
      <trkpt lat="42.3199809" lon="2.342241">
        <ele>987.79998779</ele>
        <time>2021-03-30T10:39:52Z</time>
      </trkpt>
      <trkpt lat="42.3199979" lon="2.3422576">
        <ele>987.88000488</ele>
        <time>2021-03-30T10:39:53Z</time>
      </trkpt>
      <trkpt lat="42.3200116" lon="2.3422803">
        <ele>987.86999512</ele>
        <time>2021-03-30T10:39:54Z</time>
      </trkpt>
      <trkpt lat="42.3200358" lon="2.3422949">
        <ele>987.57000732</ele>
        <time>2021-03-30T10:39:55Z</time>
      </trkpt>
      <trkpt lat="42.3200545" lon="2.3423202">
        <ele>987.40997314</ele>
        <time>2021-03-30T10:39:56Z</time>
      </trkpt>
      <trkpt lat="42.3200818" lon="2.3423477">
        <ele>987.27001953</ele>
        <time>2021-03-30T10:39:57Z</time>
      </trkpt>
      <trkpt lat="42.3201006" lon="2.3423948">
        <ele>987.15997314</ele>
        <time>2021-03-30T10:39:58Z</time>
      </trkpt>
      <trkpt lat="42.3201191" lon="2.3424465">
        <ele>987.01000977</ele>
        <time>2021-03-30T10:39:59Z</time>
      </trkpt>
      <trkpt lat="42.3201329" lon="2.3424949">
        <ele>986.84002686</ele>
        <time>2021-03-30T10:40:00Z</time>
      </trkpt>
      <trkpt lat="42.3201439" lon="2.3425369">
        <ele>986.67999268</ele>
        <time>2021-03-30T10:40:01Z</time>
      </trkpt>
      <trkpt lat="42.3201595" lon="2.3425793">
        <ele>986.58001709</ele>
        <time>2021-03-30T10:40:02Z</time>
      </trkpt>
      <trkpt lat="42.320166" lon="2.3426324">
        <ele>986.54998779</ele>
        <time>2021-03-30T10:40:03Z</time>
      </trkpt>
      <trkpt lat="42.3201637" lon="2.3426951">
        <ele>986.53997803</ele>
        <time>2021-03-30T10:40:04Z</time>
      </trkpt>
      <trkpt lat="42.3201732" lon="2.342751">
        <ele>986.53997803</ele>
        <time>2021-03-30T10:40:05Z</time>
      </trkpt>
      <trkpt lat="42.3201881" lon="2.3427995">
        <ele>986.54998779</ele>
        <time>2021-03-30T10:40:06Z</time>
      </trkpt>
      <trkpt lat="42.3201967" lon="2.342849">
        <ele>986.59002686</ele>
        <time>2021-03-30T10:40:07Z</time>
      </trkpt>
      <trkpt lat="42.3202035" lon="2.3428965">
        <ele>986.65002441</ele>
        <time>2021-03-30T10:40:08Z</time>
      </trkpt>
      <trkpt lat="42.3202111" lon="2.3429456">
        <ele>986.71002197</ele>
        <time>2021-03-30T10:40:09Z</time>
      </trkpt>
      <trkpt lat="42.3202151" lon="2.3429998">
        <ele>986.7800293</ele>
        <time>2021-03-30T10:40:10Z</time>
      </trkpt>
      <trkpt lat="42.3202128" lon="2.3430545">
        <ele>986.84997559</ele>
        <time>2021-03-30T10:40:11Z</time>
      </trkpt>
      <trkpt lat="42.3202231" lon="2.3431052">
        <ele>986.90997314</ele>
        <time>2021-03-30T10:40:12Z</time>
      </trkpt>
      <trkpt lat="42.320235" lon="2.3431533">
        <ele>986.97998047</ele>
        <time>2021-03-30T10:40:13Z</time>
      </trkpt>
      <trkpt lat="42.3202545" lon="2.3432115">
        <ele>987.07000732</ele>
        <time>2021-03-30T10:40:14Z</time>
      </trkpt>
      <trkpt lat="42.3202804" lon="2.3432638">
        <ele>987.17999268</ele>
        <time>2021-03-30T10:40:15Z</time>
      </trkpt>
      <trkpt lat="42.3203109" lon="2.3433279">
        <ele>987.32000732</ele>
        <time>2021-03-30T10:40:16Z</time>
      </trkpt>
      <trkpt lat="42.3203238" lon="2.3434032">
        <ele>987.46002197</ele>
        <time>2021-03-30T10:40:17Z</time>
      </trkpt>
      <trkpt lat="42.3203401" lon="2.343466">
        <ele>987.58001709</ele>
        <time>2021-03-30T10:40:18Z</time>
      </trkpt>
      <trkpt lat="42.3203574" lon="2.343523">
        <ele>987.67999268</ele>
        <time>2021-03-30T10:40:19Z</time>
      </trkpt>
      <trkpt lat="42.3203712" lon="2.3435799">
        <ele>987.7800293</ele>
        <time>2021-03-30T10:40:20Z</time>
      </trkpt>
      <trkpt lat="42.3203799" lon="2.3436368">
        <ele>987.85998535</ele>
        <time>2021-03-30T10:40:21Z</time>
      </trkpt>
      <trkpt lat="42.3203903" lon="2.3436867">
        <ele>988.21002197</ele>
        <time>2021-03-30T10:40:22Z</time>
      </trkpt>
      <trkpt lat="42.3203938" lon="2.3437363">
        <ele>987.7800293</ele>
        <time>2021-03-30T10:40:23Z</time>
      </trkpt>
      <trkpt lat="42.3203989" lon="2.3438078">
        <ele>987.2800293</ele>
        <time>2021-03-30T10:40:24Z</time>
      </trkpt>
      <trkpt lat="42.320392" lon="2.3438974">
        <ele>986.60998535</ele>
        <time>2021-03-30T10:40:25Z</time>
      </trkpt>
      <trkpt lat="42.3203815" lon="2.3439848">
        <ele>985.67999268</ele>
        <time>2021-03-30T10:40:26Z</time>
      </trkpt>
      <trkpt lat="42.3203531" lon="2.344054">
        <ele>985.40997314</ele>
        <time>2021-03-30T10:40:27Z</time>
      </trkpt>
      <trkpt lat="42.3203172" lon="2.3441168">
        <ele>984.91998291</ele>
        <time>2021-03-30T10:40:28Z</time>
      </trkpt>
      <trkpt lat="42.3202888" lon="2.344181">
        <ele>984.28997803</ele>
        <time>2021-03-30T10:40:29Z</time>
      </trkpt>
      <trkpt lat="42.3202753" lon="2.344249">
        <ele>983.75</ele>
        <time>2021-03-30T10:40:30Z</time>
      </trkpt>
      <trkpt lat="42.3202782" lon="2.3443144">
        <ele>983.52001953</ele>
        <time>2021-03-30T10:40:31Z</time>
      </trkpt>
      <trkpt lat="42.3202861" lon="2.3443877">
        <ele>983.5</ele>
        <time>2021-03-30T10:40:32Z</time>
      </trkpt>
      <trkpt lat="42.3203096" lon="2.3444632">
        <ele>983.5300293</ele>
        <time>2021-03-30T10:40:33Z</time>
      </trkpt>
      <trkpt lat="42.3203282" lon="2.3445317">
        <ele>983.5</ele>
        <time>2021-03-30T10:40:34Z</time>
      </trkpt>
      <trkpt lat="42.3203491" lon="2.3445866">
        <ele>983.5</ele>
        <time>2021-03-30T10:40:35Z</time>
      </trkpt>
      <trkpt lat="42.3203772" lon="2.3446283">
        <ele>983.5</ele>
        <time>2021-03-30T10:40:36Z</time>
      </trkpt>
      <trkpt lat="42.3204166" lon="2.3446566">
        <ele>983.5</ele>
        <time>2021-03-30T10:40:37Z</time>
      </trkpt>
      <trkpt lat="42.320461" lon="2.3446981">
        <ele>983.5</ele>
        <time>2021-03-30T10:40:38Z</time>
      </trkpt>
      <trkpt lat="42.3205031" lon="2.3447392">
        <ele>983.5</ele>
        <time>2021-03-30T10:40:39Z</time>
      </trkpt>
      <trkpt lat="42.3205486" lon="2.3447968">
        <ele>983.44000244</ele>
        <time>2021-03-30T10:40:40Z</time>
      </trkpt>
      <trkpt lat="42.3205768" lon="2.3448447">
        <ele>983.46002197</ele>
        <time>2021-03-30T10:40:41Z</time>
      </trkpt>
      <trkpt lat="42.320607" lon="2.3448991">
        <ele>983.48999023</ele>
        <time>2021-03-30T10:40:42Z</time>
      </trkpt>
      <trkpt lat="42.3206397" lon="2.3449559">
        <ele>983.5</ele>
        <time>2021-03-30T10:40:43Z</time>
      </trkpt>
      <trkpt lat="42.3206732" lon="2.3450171">
        <ele>983.5</ele>
        <time>2021-03-30T10:40:44Z</time>
      </trkpt>
      <trkpt lat="42.320711" lon="2.3450923">
        <ele>983.2199707</ele>
        <time>2021-03-30T10:40:45Z</time>
      </trkpt>
      <trkpt lat="42.3207407" lon="2.345151">
        <ele>981.96002197</ele>
        <time>2021-03-30T10:40:46Z</time>
      </trkpt>
      <trkpt lat="42.3207676" lon="2.3452138">
        <ele>980.86999512</ele>
        <time>2021-03-30T10:40:47Z</time>
      </trkpt>
      <trkpt lat="42.3207779" lon="2.3452752">
        <ele>979.72998047</ele>
        <time>2021-03-30T10:40:48Z</time>
      </trkpt>
      <trkpt lat="42.32079" lon="2.3453416">
        <ele>979.45001221</ele>
        <time>2021-03-30T10:40:49Z</time>
      </trkpt>
      <trkpt lat="42.3208044" lon="2.3454171">
        <ele>979.02001953</ele>
        <time>2021-03-30T10:40:50Z</time>
      </trkpt>
      <trkpt lat="42.3208193" lon="2.3454796">
        <ele>978.82000732</ele>
        <time>2021-03-30T10:40:51Z</time>
      </trkpt>
      <trkpt lat="42.3208381" lon="2.3455439">
        <ele>978.7199707</ele>
        <time>2021-03-30T10:40:52Z</time>
      </trkpt>
      <trkpt lat="42.3208541" lon="2.3456111">
        <ele>978.65997314</ele>
        <time>2021-03-30T10:40:53Z</time>
      </trkpt>
      <trkpt lat="42.3208727" lon="2.3456655">
        <ele>978.61999512</ele>
        <time>2021-03-30T10:40:54Z</time>
      </trkpt>
      <trkpt lat="42.3208882" lon="2.3457281">
        <ele>978.59002686</ele>
        <time>2021-03-30T10:40:55Z</time>
      </trkpt>
      <trkpt lat="42.3209002" lon="2.3458017">
        <ele>978.57000732</ele>
        <time>2021-03-30T10:40:56Z</time>
      </trkpt>
      <trkpt lat="42.3208961" lon="2.3458704">
        <ele>978.54998779</ele>
        <time>2021-03-30T10:40:57Z</time>
      </trkpt>
      <trkpt lat="42.3208875" lon="2.3459394">
        <ele>978.53997803</ele>
        <time>2021-03-30T10:40:58Z</time>
      </trkpt>
      <trkpt lat="42.3208624" lon="2.3460044">
        <ele>978.5300293</ele>
        <time>2021-03-30T10:40:59Z</time>
      </trkpt>
      <trkpt lat="42.3208312" lon="2.3460727">
        <ele>978.52001953</ele>
        <time>2021-03-30T10:41:00Z</time>
      </trkpt>
      <trkpt lat="42.320792" lon="2.3461304">
        <ele>978.51000977</ele>
        <time>2021-03-30T10:41:01Z</time>
      </trkpt>
      <trkpt lat="42.3207523" lon="2.3461708">
        <ele>978.5</ele>
        <time>2021-03-30T10:41:02Z</time>
      </trkpt>
      <trkpt lat="42.3207158" lon="2.3462044">
        <ele>978.48999023</ele>
        <time>2021-03-30T10:41:03Z</time>
      </trkpt>
      <trkpt lat="42.3206836" lon="2.3462303">
        <ele>978.48999023</ele>
        <time>2021-03-30T10:41:04Z</time>
      </trkpt>
      <trkpt lat="42.3206547" lon="2.3462552">
        <ele>978.47998047</ele>
        <time>2021-03-30T10:41:05Z</time>
      </trkpt>
      <trkpt lat="42.3206225" lon="2.3462855">
        <ele>978.47998047</ele>
        <time>2021-03-30T10:41:06Z</time>
      </trkpt>
      <trkpt lat="42.32059" lon="2.346324">
        <ele>978.4699707</ele>
        <time>2021-03-30T10:41:07Z</time>
      </trkpt>
      <trkpt lat="42.3205527" lon="2.3463543">
        <ele>978.4699707</ele>
        <time>2021-03-30T10:41:08Z</time>
      </trkpt>
      <trkpt lat="42.3205146" lon="2.3463869">
        <ele>978.46002197</ele>
        <time>2021-03-30T10:41:09Z</time>
      </trkpt>
      <trkpt lat="42.3204793" lon="2.3464175">
        <ele>978.39001465</ele>
        <time>2021-03-30T10:41:10Z</time>
      </trkpt>
      <trkpt lat="42.3204406" lon="2.3464474">
        <ele>978.26000977</ele>
        <time>2021-03-30T10:41:11Z</time>
      </trkpt>
      <trkpt lat="42.3204113" lon="2.3464998">
        <ele>978.10998535</ele>
        <time>2021-03-30T10:41:12Z</time>
      </trkpt>
      <trkpt lat="42.3203806" lon="2.3465369">
        <ele>977.97998047</ele>
        <time>2021-03-30T10:41:13Z</time>
      </trkpt>
      <trkpt lat="42.3203562" lon="2.3465936">
        <ele>977.85998535</ele>
        <time>2021-03-30T10:41:14Z</time>
      </trkpt>
      <trkpt lat="42.3203324" lon="2.3466492">
        <ele>977.82000732</ele>
        <time>2021-03-30T10:41:15Z</time>
      </trkpt>
      <trkpt lat="42.3203099" lon="2.3467009">
        <ele>977.84997559</ele>
        <time>2021-03-30T10:41:16Z</time>
      </trkpt>
      <trkpt lat="42.3202867" lon="2.3467552">
        <ele>977.90997314</ele>
        <time>2021-03-30T10:41:17Z</time>
      </trkpt>
      <trkpt lat="42.3202691" lon="2.3467941">
        <ele>977.9699707</ele>
        <time>2021-03-30T10:41:18Z</time>
      </trkpt>
      <trkpt lat="42.3202465" lon="2.3468461">
        <ele>978</ele>
        <time>2021-03-30T10:41:19Z</time>
      </trkpt>
      <trkpt lat="42.3202225" lon="2.3468966">
        <ele>978</ele>
        <time>2021-03-30T10:41:20Z</time>
      </trkpt>
      <trkpt lat="42.3202011" lon="2.3469443">
        <ele>977.94000244</ele>
        <time>2021-03-30T10:41:21Z</time>
      </trkpt>
      <trkpt lat="42.3201747" lon="2.3469916">
        <ele>977.84997559</ele>
        <time>2021-03-30T10:41:22Z</time>
      </trkpt>
      <trkpt lat="42.3201411" lon="2.3470461">
        <ele>977.75</ele>
        <time>2021-03-30T10:41:23Z</time>
      </trkpt>
      <trkpt lat="42.3201135" lon="2.3470904">
        <ele>977.65002441</ele>
        <time>2021-03-30T10:41:24Z</time>
      </trkpt>
      <trkpt lat="42.3200819" lon="2.3471468">
        <ele>977.58001709</ele>
        <time>2021-03-30T10:41:25Z</time>
      </trkpt>
      <trkpt lat="42.320053" lon="2.3472056">
        <ele>977.57000732</ele>
        <time>2021-03-30T10:41:26Z</time>
      </trkpt>
      <trkpt lat="42.3200228" lon="2.3472485">
        <ele>977.63000488</ele>
        <time>2021-03-30T10:41:27Z</time>
      </trkpt>
      <trkpt lat="42.3200048" lon="2.347299">
        <ele>977.71002197</ele>
        <time>2021-03-30T10:41:28Z</time>
      </trkpt>
      <trkpt lat="42.3199824" lon="2.3473449">
        <ele>977.78997803</ele>
        <time>2021-03-30T10:41:29Z</time>
      </trkpt>
      <trkpt lat="42.3199594" lon="2.3474013">
        <ele>977.83001709</ele>
        <time>2021-03-30T10:41:30Z</time>
      </trkpt>
      <trkpt lat="42.3199322" lon="2.3474539">
        <ele>977.82000732</ele>
        <time>2021-03-30T10:41:31Z</time>
      </trkpt>
      <trkpt lat="42.3199085" lon="2.3474996">
        <ele>977.76000977</ele>
        <time>2021-03-30T10:41:32Z</time>
      </trkpt>
      <trkpt lat="42.3198893" lon="2.3475352">
        <ele>977.65997314</ele>
        <time>2021-03-30T10:41:33Z</time>
      </trkpt>
      <trkpt lat="42.319868" lon="2.3475839">
        <ele>977.5300293</ele>
        <time>2021-03-30T10:41:34Z</time>
      </trkpt>
      <trkpt lat="42.3198494" lon="2.3476306">
        <ele>977.38000488</ele>
        <time>2021-03-30T10:41:35Z</time>
      </trkpt>
      <trkpt lat="42.3198313" lon="2.3476619">
        <ele>977.20001221</ele>
        <time>2021-03-30T10:41:36Z</time>
      </trkpt>
      <trkpt lat="42.3198137" lon="2.3477139">
        <ele>977.01000977</ele>
        <time>2021-03-30T10:41:37Z</time>
      </trkpt>
      <trkpt lat="42.3197983" lon="2.3477589">
        <ele>976.79998779</ele>
        <time>2021-03-30T10:41:38Z</time>
      </trkpt>
      <trkpt lat="42.3197747" lon="2.3478063">
        <ele>976.59002686</ele>
        <time>2021-03-30T10:41:39Z</time>
      </trkpt>
      <trkpt lat="42.3197441" lon="2.3478566">
        <ele>976.34002686</ele>
        <time>2021-03-30T10:41:40Z</time>
      </trkpt>
      <trkpt lat="42.3197316" lon="2.347913">
        <ele>976.05999756</ele>
        <time>2021-03-30T10:41:41Z</time>
      </trkpt>
      <trkpt lat="42.3197122" lon="2.3479832">
        <ele>975.78997803</ele>
        <time>2021-03-30T10:41:42Z</time>
      </trkpt>
      <trkpt lat="42.31969" lon="2.3480533">
        <ele>975.5300293</ele>
        <time>2021-03-30T10:41:43Z</time>
      </trkpt>
      <trkpt lat="42.3196736" lon="2.3481101">
        <ele>975.29998779</ele>
        <time>2021-03-30T10:41:44Z</time>
      </trkpt>
      <trkpt lat="42.31966" lon="2.3481638">
        <ele>975.09002686</ele>
        <time>2021-03-30T10:41:45Z</time>
      </trkpt>
      <trkpt lat="42.3196413" lon="2.3482309">
        <ele>974.90997314</ele>
        <time>2021-03-30T10:41:46Z</time>
      </trkpt>
      <trkpt lat="42.3196205" lon="2.3482983">
        <ele>974.75</ele>
        <time>2021-03-30T10:41:47Z</time>
      </trkpt>
      <trkpt lat="42.319612" lon="2.3483446">
        <ele>974.59997559</ele>
        <time>2021-03-30T10:41:48Z</time>
      </trkpt>
      <trkpt lat="42.3195947" lon="2.3484177">
        <ele>974.4699707</ele>
        <time>2021-03-30T10:41:49Z</time>
      </trkpt>
      <trkpt lat="42.3195717" lon="2.3484864">
        <ele>974.35998535</ele>
        <time>2021-03-30T10:41:50Z</time>
      </trkpt>
      <trkpt lat="42.3195585" lon="2.3485423">
        <ele>974.25</ele>
        <time>2021-03-30T10:41:51Z</time>
      </trkpt>
      <trkpt lat="42.319538" lon="2.3486049">
        <ele>974.15997314</ele>
        <time>2021-03-30T10:41:52Z</time>
      </trkpt>
      <trkpt lat="42.3195246" lon="2.3486665">
        <ele>974.08001709</ele>
        <time>2021-03-30T10:41:53Z</time>
      </trkpt>
      <trkpt lat="42.3195014" lon="2.3487431">
        <ele>974</ele>
        <time>2021-03-30T10:41:54Z</time>
      </trkpt>
      <trkpt lat="42.3194858" lon="2.3488037">
        <ele>973.94000244</ele>
        <time>2021-03-30T10:41:55Z</time>
      </trkpt>
      <trkpt lat="42.3194605" lon="2.3488789">
        <ele>973.88000488</ele>
        <time>2021-03-30T10:41:56Z</time>
      </trkpt>
      <trkpt lat="42.3194624" lon="2.3489454">
        <ele>973.83001709</ele>
        <time>2021-03-30T10:41:57Z</time>
      </trkpt>
      <trkpt lat="42.3194326" lon="2.349005">
        <ele>973.7800293</ele>
        <time>2021-03-30T10:41:58Z</time>
      </trkpt>
      <trkpt lat="42.3194145" lon="2.3490629">
        <ele>973.73999023</ele>
        <time>2021-03-30T10:41:59Z</time>
      </trkpt>
      <trkpt lat="42.3193942" lon="2.3491178">
        <ele>973.70001221</ele>
        <time>2021-03-30T10:42:00Z</time>
      </trkpt>
      <trkpt lat="42.3193781" lon="2.349176">
        <ele>973.66998291</ele>
        <time>2021-03-30T10:42:01Z</time>
      </trkpt>
      <trkpt lat="42.3193822" lon="2.3492357">
        <ele>973.64001465</ele>
        <time>2021-03-30T10:42:02Z</time>
      </trkpt>
      <trkpt lat="42.3193731" lon="2.3493088">
        <ele>973.60998535</ele>
        <time>2021-03-30T10:42:03Z</time>
      </trkpt>
      <trkpt lat="42.3193633" lon="2.3493719">
        <ele>973.59002686</ele>
        <time>2021-03-30T10:42:04Z</time>
      </trkpt>
      <trkpt lat="42.3193508" lon="2.3494279">
        <ele>973.57000732</ele>
        <time>2021-03-30T10:42:05Z</time>
      </trkpt>
      <trkpt lat="42.3193436" lon="2.3494804">
        <ele>973.54998779</ele>
        <time>2021-03-30T10:42:06Z</time>
      </trkpt>
      <trkpt lat="42.3193228" lon="2.349553">
        <ele>973.5300293</ele>
        <time>2021-03-30T10:42:07Z</time>
      </trkpt>
      <trkpt lat="42.3193114" lon="2.3496214">
        <ele>973.52001953</ele>
        <time>2021-03-30T10:42:08Z</time>
      </trkpt>
      <trkpt lat="42.3192946" lon="2.3496931">
        <ele>973.5</ele>
        <time>2021-03-30T10:42:09Z</time>
      </trkpt>
      <trkpt lat="42.3192782" lon="2.3497635">
        <ele>973.40002441</ele>
        <time>2021-03-30T10:42:10Z</time>
      </trkpt>
      <trkpt lat="42.3192657" lon="2.3498351">
        <ele>972.98999023</ele>
        <time>2021-03-30T10:42:11Z</time>
      </trkpt>
      <trkpt lat="42.3192559" lon="2.3499006">
        <ele>972.15997314</ele>
        <time>2021-03-30T10:42:12Z</time>
      </trkpt>
      <trkpt lat="42.3192426" lon="2.3499597">
        <ele>971.28997803</ele>
        <time>2021-03-30T10:42:13Z</time>
      </trkpt>
      <trkpt lat="42.3192242" lon="2.3500233">
        <ele>970.35998535</ele>
        <time>2021-03-30T10:42:14Z</time>
      </trkpt>
      <trkpt lat="42.3192157" lon="2.3500795">
        <ele>969.78997803</ele>
        <time>2021-03-30T10:42:15Z</time>
      </trkpt>
      <trkpt lat="42.3192021" lon="2.3501313">
        <ele>970.35998535</ele>
        <time>2021-03-30T10:42:16Z</time>
      </trkpt>
      <trkpt lat="42.3191892" lon="2.3501779">
        <ele>971</ele>
        <time>2021-03-30T10:42:17Z</time>
      </trkpt>
      <trkpt lat="42.3191763" lon="2.3502161">
        <ele>971.65002441</ele>
        <time>2021-03-30T10:42:18Z</time>
      </trkpt>
      <trkpt lat="42.3191607" lon="2.3502541">
        <ele>972.23999023</ele>
        <time>2021-03-30T10:42:19Z</time>
      </trkpt>
      <trkpt lat="42.3191402" lon="2.350297">
        <ele>972.79998779</ele>
        <time>2021-03-30T10:42:20Z</time>
      </trkpt>
      <trkpt lat="42.3191268" lon="2.3503231">
        <ele>972.61999512</ele>
        <time>2021-03-30T10:42:21Z</time>
      </trkpt>
      <trkpt lat="42.3191146" lon="2.3503469">
        <ele>972.0300293</ele>
        <time>2021-03-30T10:42:22Z</time>
      </trkpt>
      <trkpt lat="42.3191049" lon="2.3503617">
        <ele>971.47998047</ele>
        <time>2021-03-30T10:42:23Z</time>
      </trkpt>
      <trkpt lat="42.3190923" lon="2.3503901">
        <ele>971.11999512</ele>
        <time>2021-03-30T10:42:24Z</time>
      </trkpt>
      <trkpt lat="42.3190772" lon="2.3504135">
        <ele>970.59997559</ele>
        <time>2021-03-30T10:42:25Z</time>
      </trkpt>
      <trkpt lat="42.3190612" lon="2.3504389">
        <ele>970.14001465</ele>
        <time>2021-03-30T10:42:26Z</time>
      </trkpt>
      <trkpt lat="42.3190457" lon="2.3504759">
        <ele>969.70001221</ele>
        <time>2021-03-30T10:42:27Z</time>
      </trkpt>
      <trkpt lat="42.3190286" lon="2.3505131">
        <ele>969.21002197</ele>
        <time>2021-03-30T10:42:28Z</time>
      </trkpt>
      <trkpt lat="42.3190079" lon="2.3505606">
        <ele>968.7800293</ele>
        <time>2021-03-30T10:42:29Z</time>
      </trkpt>
      <trkpt lat="42.3189837" lon="2.3506163">
        <ele>968.38000488</ele>
        <time>2021-03-30T10:42:30Z</time>
      </trkpt>
      <trkpt lat="42.3189641" lon="2.3506659">
        <ele>968.34002686</ele>
        <time>2021-03-30T10:42:31Z</time>
      </trkpt>
      <trkpt lat="42.3189347" lon="2.3507245">
        <ele>968.34002686</ele>
        <time>2021-03-30T10:42:32Z</time>
      </trkpt>
      <trkpt lat="42.3189115" lon="2.3507812">
        <ele>968.34002686</ele>
        <time>2021-03-30T10:42:33Z</time>
      </trkpt>
      <trkpt lat="42.3188792" lon="2.3508385">
        <ele>968.34002686</ele>
        <time>2021-03-30T10:42:34Z</time>
      </trkpt>
      <trkpt lat="42.3188565" lon="2.3509026">
        <ele>968.34002686</ele>
        <time>2021-03-30T10:42:35Z</time>
      </trkpt>
      <trkpt lat="42.3188298" lon="2.3509679">
        <ele>968.34002686</ele>
        <time>2021-03-30T10:42:36Z</time>
      </trkpt>
      <trkpt lat="42.3188045" lon="2.3510318">
        <ele>968.34002686</ele>
        <time>2021-03-30T10:42:37Z</time>
      </trkpt>
      <trkpt lat="42.3187799" lon="2.3510986">
        <ele>968.34002686</ele>
        <time>2021-03-30T10:42:38Z</time>
      </trkpt>
      <trkpt lat="42.3187594" lon="2.3511581">
        <ele>968.34002686</ele>
        <time>2021-03-30T10:42:39Z</time>
      </trkpt>
      <trkpt lat="42.3187352" lon="2.3512161">
        <ele>968.34002686</ele>
        <time>2021-03-30T10:42:40Z</time>
      </trkpt>
      <trkpt lat="42.3187127" lon="2.3512866">
        <ele>968.34002686</ele>
        <time>2021-03-30T10:42:41Z</time>
      </trkpt>
      <trkpt lat="42.3186881" lon="2.3513647">
        <ele>968.34002686</ele>
        <time>2021-03-30T10:42:42Z</time>
      </trkpt>
      <trkpt lat="42.318662" lon="2.3514392">
        <ele>968.34002686</ele>
        <time>2021-03-30T10:42:43Z</time>
      </trkpt>
      <trkpt lat="42.3186349" lon="2.3515046">
        <ele>968.34002686</ele>
        <time>2021-03-30T10:42:44Z</time>
      </trkpt>
      <trkpt lat="42.3186064" lon="2.3515703">
        <ele>968.34002686</ele>
        <time>2021-03-30T10:42:45Z</time>
      </trkpt>
      <trkpt lat="42.3185939" lon="2.3516342">
        <ele>968.34002686</ele>
        <time>2021-03-30T10:42:46Z</time>
      </trkpt>
      <trkpt lat="42.3185682" lon="2.3516903">
        <ele>968.34002686</ele>
        <time>2021-03-30T10:42:47Z</time>
      </trkpt>
      <trkpt lat="42.3185425" lon="2.3517498">
        <ele>968.2800293</ele>
        <time>2021-03-30T10:42:48Z</time>
      </trkpt>
      <trkpt lat="42.3185141" lon="2.3518135">
        <ele>968</ele>
        <time>2021-03-30T10:42:49Z</time>
      </trkpt>
      <trkpt lat="42.3184865" lon="2.351864">
        <ele>967.4699707</ele>
        <time>2021-03-30T10:42:50Z</time>
      </trkpt>
      <trkpt lat="42.3184651" lon="2.3519182">
        <ele>966.79998779</ele>
        <time>2021-03-30T10:42:51Z</time>
      </trkpt>
      <trkpt lat="42.3184351" lon="2.3519821">
        <ele>966.02001953</ele>
        <time>2021-03-30T10:42:52Z</time>
      </trkpt>
      <trkpt lat="42.3184055" lon="2.3520431">
        <ele>965.22998047</ele>
        <time>2021-03-30T10:42:53Z</time>
      </trkpt>
      <trkpt lat="42.3183729" lon="2.3521012">
        <ele>964.65997314</ele>
        <time>2021-03-30T10:42:54Z</time>
      </trkpt>
      <trkpt lat="42.318353" lon="2.3521531">
        <ele>964.07000732</ele>
        <time>2021-03-30T10:42:55Z</time>
      </trkpt>
      <trkpt lat="42.3183281" lon="2.3522023">
        <ele>963.69000244</ele>
        <time>2021-03-30T10:42:56Z</time>
      </trkpt>
      <trkpt lat="42.3182992" lon="2.3522511">
        <ele>963.33001709</ele>
        <time>2021-03-30T10:42:57Z</time>
      </trkpt>
      <trkpt lat="42.318276" lon="2.3522973">
        <ele>963.28997803</ele>
        <time>2021-03-30T10:42:58Z</time>
      </trkpt>
      <trkpt lat="42.3182531" lon="2.3523491">
        <ele>963.28997803</ele>
        <time>2021-03-30T10:42:59Z</time>
      </trkpt>
      <trkpt lat="42.3182246" lon="2.3524129">
        <ele>963.28997803</ele>
        <time>2021-03-30T10:43:00Z</time>
      </trkpt>
      <trkpt lat="42.3182019" lon="2.352466">
        <ele>963.28997803</ele>
        <time>2021-03-30T10:43:01Z</time>
      </trkpt>
      <trkpt lat="42.3181749" lon="2.3525293">
        <ele>963.28997803</ele>
        <time>2021-03-30T10:43:02Z</time>
      </trkpt>
      <trkpt lat="42.3181434" lon="2.3525856">
        <ele>963.28997803</ele>
        <time>2021-03-30T10:43:03Z</time>
      </trkpt>
      <trkpt lat="42.3181195" lon="2.3526283">
        <ele>963.28997803</ele>
        <time>2021-03-30T10:43:04Z</time>
      </trkpt>
      <trkpt lat="42.318089" lon="2.3526869">
        <ele>963.28997803</ele>
        <time>2021-03-30T10:43:05Z</time>
      </trkpt>
      <trkpt lat="42.3180688" lon="2.352736">
        <ele>963.28997803</ele>
        <time>2021-03-30T10:43:06Z</time>
      </trkpt>
      <trkpt lat="42.318045" lon="2.3527936">
        <ele>963.28997803</ele>
        <time>2021-03-30T10:43:07Z</time>
      </trkpt>
      <trkpt lat="42.3180286" lon="2.3528345">
        <ele>963.28997803</ele>
        <time>2021-03-30T10:43:08Z</time>
      </trkpt>
      <trkpt lat="42.3180144" lon="2.3528836">
        <ele>963.28997803</ele>
        <time>2021-03-30T10:43:09Z</time>
      </trkpt>
      <trkpt lat="42.3180009" lon="2.3529387">
        <ele>963.28997803</ele>
        <time>2021-03-30T10:43:10Z</time>
      </trkpt>
      <trkpt lat="42.3179815" lon="2.3530141">
        <ele>963.28997803</ele>
        <time>2021-03-30T10:43:11Z</time>
      </trkpt>
      <trkpt lat="42.3179589" lon="2.3530721">
        <ele>963.28997803</ele>
        <time>2021-03-30T10:43:12Z</time>
      </trkpt>
      <trkpt lat="42.3179531" lon="2.3531283">
        <ele>963.28997803</ele>
        <time>2021-03-30T10:43:13Z</time>
      </trkpt>
      <trkpt lat="42.3179506" lon="2.353184">
        <ele>963.28997803</ele>
        <time>2021-03-30T10:43:14Z</time>
      </trkpt>
      <trkpt lat="42.3179456" lon="2.3532429">
        <ele>963.28997803</ele>
        <time>2021-03-30T10:43:15Z</time>
      </trkpt>
      <trkpt lat="42.3179316" lon="2.3532991">
        <ele>963.28997803</ele>
        <time>2021-03-30T10:43:16Z</time>
      </trkpt>
      <trkpt lat="42.3179248" lon="2.3533611">
        <ele>963.28997803</ele>
        <time>2021-03-30T10:43:17Z</time>
      </trkpt>
      <trkpt lat="42.317922" lon="2.3534208">
        <ele>963.28997803</ele>
        <time>2021-03-30T10:43:18Z</time>
      </trkpt>
      <trkpt lat="42.3179244" lon="2.3534761">
        <ele>963.28997803</ele>
        <time>2021-03-30T10:43:19Z</time>
      </trkpt>
      <trkpt lat="42.3179165" lon="2.3535314">
        <ele>963.28997803</ele>
        <time>2021-03-30T10:43:20Z</time>
      </trkpt>
      <trkpt lat="42.3179078" lon="2.3535863">
        <ele>963.28997803</ele>
        <time>2021-03-30T10:43:21Z</time>
      </trkpt>
      <trkpt lat="42.3178944" lon="2.3536331">
        <ele>963.28997803</ele>
        <time>2021-03-30T10:43:22Z</time>
      </trkpt>
      <trkpt lat="42.3178795" lon="2.3536728">
        <ele>963.28997803</ele>
        <time>2021-03-30T10:43:23Z</time>
      </trkpt>
      <trkpt lat="42.317872" lon="2.353697">
        <ele>963.28997803</ele>
        <time>2021-03-30T10:43:24Z</time>
      </trkpt>
      <trkpt lat="42.3178813" lon="2.3537292">
        <ele>963.28997803</ele>
        <time>2021-03-30T10:43:25Z</time>
      </trkpt>
      <trkpt lat="42.3178784" lon="2.3537778">
        <ele>963.28997803</ele>
        <time>2021-03-30T10:43:26Z</time>
      </trkpt>
      <trkpt lat="42.3178687" lon="2.3538295">
        <ele>963.28997803</ele>
        <time>2021-03-30T10:43:27Z</time>
      </trkpt>
      <trkpt lat="42.3178657" lon="2.3538752">
        <ele>963.28997803</ele>
        <time>2021-03-30T10:43:28Z</time>
      </trkpt>
      <trkpt lat="42.3178604" lon="2.3539354">
        <ele>963.28997803</ele>
        <time>2021-03-30T10:43:29Z</time>
      </trkpt>
      <trkpt lat="42.3178536" lon="2.3539947">
        <ele>963.28997803</ele>
        <time>2021-03-30T10:43:30Z</time>
      </trkpt>
      <trkpt lat="42.3178498" lon="2.3540596">
        <ele>963.28997803</ele>
        <time>2021-03-30T10:43:31Z</time>
      </trkpt>
      <trkpt lat="42.3178466" lon="2.3541163">
        <ele>963.28997803</ele>
        <time>2021-03-30T10:43:32Z</time>
      </trkpt>
      <trkpt lat="42.3178446" lon="2.3541761">
        <ele>963.28997803</ele>
        <time>2021-03-30T10:43:33Z</time>
      </trkpt>
      <trkpt lat="42.3178344" lon="2.3542402">
        <ele>963.28997803</ele>
        <time>2021-03-30T10:43:34Z</time>
      </trkpt>
      <trkpt lat="42.317826" lon="2.3542895">
        <ele>963.28997803</ele>
        <time>2021-03-30T10:43:35Z</time>
      </trkpt>
      <trkpt lat="42.3178186" lon="2.3543492">
        <ele>963.28997803</ele>
        <time>2021-03-30T10:43:36Z</time>
      </trkpt>
      <trkpt lat="42.317811" lon="2.354417">
        <ele>963.28997803</ele>
        <time>2021-03-30T10:43:37Z</time>
      </trkpt>
      <trkpt lat="42.3178007" lon="2.3544726">
        <ele>963.28997803</ele>
        <time>2021-03-30T10:43:38Z</time>
      </trkpt>
      <trkpt lat="42.3177952" lon="2.3545284">
        <ele>963.28997803</ele>
        <time>2021-03-30T10:43:39Z</time>
      </trkpt>
      <trkpt lat="42.3177911" lon="2.3545854">
        <ele>963.28997803</ele>
        <time>2021-03-30T10:43:40Z</time>
      </trkpt>
      <trkpt lat="42.3177848" lon="2.3546387">
        <ele>963.28997803</ele>
        <time>2021-03-30T10:43:41Z</time>
      </trkpt>
      <trkpt lat="42.3177831" lon="2.354695">
        <ele>963.28997803</ele>
        <time>2021-03-30T10:43:42Z</time>
      </trkpt>
      <trkpt lat="42.3177816" lon="2.3547466">
        <ele>963.28997803</ele>
        <time>2021-03-30T10:43:43Z</time>
      </trkpt>
      <trkpt lat="42.3177771" lon="2.3547875">
        <ele>963.28997803</ele>
        <time>2021-03-30T10:43:44Z</time>
      </trkpt>
      <trkpt lat="42.3177666" lon="2.354835">
        <ele>963.28997803</ele>
        <time>2021-03-30T10:43:45Z</time>
      </trkpt>
      <trkpt lat="42.3177544" lon="2.3548769">
        <ele>963.28997803</ele>
        <time>2021-03-30T10:43:46Z</time>
      </trkpt>
      <trkpt lat="42.3177338" lon="2.3549068">
        <ele>963.28997803</ele>
        <time>2021-03-30T10:43:47Z</time>
      </trkpt>
      <trkpt lat="42.3177186" lon="2.3549429">
        <ele>963.28997803</ele>
        <time>2021-03-30T10:43:48Z</time>
      </trkpt>
      <trkpt lat="42.3177011" lon="2.3549864">
        <ele>963.28997803</ele>
        <time>2021-03-30T10:43:49Z</time>
      </trkpt>
      <trkpt lat="42.3177023" lon="2.3550301">
        <ele>963.28997803</ele>
        <time>2021-03-30T10:43:50Z</time>
      </trkpt>
      <trkpt lat="42.3177022" lon="2.3550846">
        <ele>963.28997803</ele>
        <time>2021-03-30T10:43:51Z</time>
      </trkpt>
      <trkpt lat="42.3177028" lon="2.3551382">
        <ele>963.28997803</ele>
        <time>2021-03-30T10:43:52Z</time>
      </trkpt>
      <trkpt lat="42.3177051" lon="2.3551808">
        <ele>963.28997803</ele>
        <time>2021-03-30T10:43:53Z</time>
      </trkpt>
      <trkpt lat="42.3177077" lon="2.3552245">
        <ele>963.28997803</ele>
        <time>2021-03-30T10:43:54Z</time>
      </trkpt>
      <trkpt lat="42.3176966" lon="2.3552795">
        <ele>963.28997803</ele>
        <time>2021-03-30T10:43:55Z</time>
      </trkpt>
      <trkpt lat="42.3176868" lon="2.3553218">
        <ele>963.28997803</ele>
        <time>2021-03-30T10:43:56Z</time>
      </trkpt>
      <trkpt lat="42.3176838" lon="2.3553521">
        <ele>963.28997803</ele>
        <time>2021-03-30T10:43:57Z</time>
      </trkpt>
      <trkpt lat="42.3176735" lon="2.3553975">
        <ele>963.28997803</ele>
        <time>2021-03-30T10:43:58Z</time>
      </trkpt>
      <trkpt lat="42.3176644" lon="2.3554542">
        <ele>963.28997803</ele>
        <time>2021-03-30T10:43:59Z</time>
      </trkpt>
      <trkpt lat="42.3176669" lon="2.3555138">
        <ele>963.28997803</ele>
        <time>2021-03-30T10:44:00Z</time>
      </trkpt>
      <trkpt lat="42.3176644" lon="2.3555714">
        <ele>963.28997803</ele>
        <time>2021-03-30T10:44:01Z</time>
      </trkpt>
      <trkpt lat="42.3176653" lon="2.3556314">
        <ele>963.28997803</ele>
        <time>2021-03-30T10:44:02Z</time>
      </trkpt>
      <trkpt lat="42.3176575" lon="2.3556704">
        <ele>963.28997803</ele>
        <time>2021-03-30T10:44:03Z</time>
      </trkpt>
      <trkpt lat="42.3176529" lon="2.3557114">
        <ele>963.28997803</ele>
        <time>2021-03-30T10:44:04Z</time>
      </trkpt>
      <trkpt lat="42.3176479" lon="2.3557705">
        <ele>963.28997803</ele>
        <time>2021-03-30T10:44:05Z</time>
      </trkpt>
      <trkpt lat="42.3176412" lon="2.3558175">
        <ele>963.28997803</ele>
        <time>2021-03-30T10:44:06Z</time>
      </trkpt>
      <trkpt lat="42.3176402" lon="2.355874">
        <ele>963.28997803</ele>
        <time>2021-03-30T10:44:07Z</time>
      </trkpt>
      <trkpt lat="42.3176402" lon="2.3559283">
        <ele>963.28997803</ele>
        <time>2021-03-30T10:44:08Z</time>
      </trkpt>
      <trkpt lat="42.3176385" lon="2.3559792">
        <ele>963.28997803</ele>
        <time>2021-03-30T10:44:09Z</time>
      </trkpt>
      <trkpt lat="42.3176326" lon="2.3560382">
        <ele>963.28997803</ele>
        <time>2021-03-30T10:44:10Z</time>
      </trkpt>
      <trkpt lat="42.3176444" lon="2.3560849">
        <ele>963.28997803</ele>
        <time>2021-03-30T10:44:11Z</time>
      </trkpt>
      <trkpt lat="42.3176377" lon="2.3561287">
        <ele>963.28997803</ele>
        <time>2021-03-30T10:44:12Z</time>
      </trkpt>
      <trkpt lat="42.3176326" lon="2.3561668">
        <ele>963.28997803</ele>
        <time>2021-03-30T10:44:13Z</time>
      </trkpt>
      <trkpt lat="42.3176265" lon="2.3562086">
        <ele>963.28997803</ele>
        <time>2021-03-30T10:44:14Z</time>
      </trkpt>
      <trkpt lat="42.3176292" lon="2.3562447">
        <ele>963.28997803</ele>
        <time>2021-03-30T10:44:15Z</time>
      </trkpt>
      <trkpt lat="42.3176353" lon="2.3562794">
        <ele>963.28997803</ele>
        <time>2021-03-30T10:44:16Z</time>
      </trkpt>
      <trkpt lat="42.3176402" lon="2.356323">
        <ele>963.28997803</ele>
        <time>2021-03-30T10:44:17Z</time>
      </trkpt>
      <trkpt lat="42.3176488" lon="2.3563651">
        <ele>963.28997803</ele>
        <time>2021-03-30T10:44:18Z</time>
      </trkpt>
      <trkpt lat="42.3176587" lon="2.3563974">
        <ele>963.28997803</ele>
        <time>2021-03-30T10:44:19Z</time>
      </trkpt>
      <trkpt lat="42.3176628" lon="2.3564237">
        <ele>963.28997803</ele>
        <time>2021-03-30T10:44:20Z</time>
      </trkpt>
      <trkpt lat="42.317656" lon="2.3564486">
        <ele>963.28997803</ele>
        <time>2021-03-30T10:44:21Z</time>
      </trkpt>
      <trkpt lat="42.3176527" lon="2.3564725">
        <ele>963.28997803</ele>
        <time>2021-03-30T10:44:22Z</time>
      </trkpt>
      <trkpt lat="42.3176506" lon="2.3564866">
        <ele>963.28997803</ele>
        <time>2021-03-30T10:44:23Z</time>
      </trkpt>
      <trkpt lat="42.3176434" lon="2.3564809">
        <ele>963.28997803</ele>
        <time>2021-03-30T10:44:24Z</time>
      </trkpt>
      <trkpt lat="42.3176288" lon="2.3564874">
        <ele>963.28997803</ele>
        <time>2021-03-30T10:44:25Z</time>
      </trkpt>
      <trkpt lat="42.3175966" lon="2.356477">
        <ele>963.28997803</ele>
        <time>2021-03-30T10:44:26Z</time>
      </trkpt>
      <trkpt lat="42.3175758" lon="2.3564818">
        <ele>963.28997803</ele>
        <time>2021-03-30T10:44:27Z</time>
      </trkpt>
      <trkpt lat="42.3175562" lon="2.3564819">
        <ele>963.28997803</ele>
        <time>2021-03-30T10:44:28Z</time>
      </trkpt>
      <trkpt lat="42.3175269" lon="2.356461">
        <ele>963.28997803</ele>
        <time>2021-03-30T10:44:29Z</time>
      </trkpt>
      <trkpt lat="42.3174907" lon="2.3564374">
        <ele>963.28997803</ele>
        <time>2021-03-30T10:44:30Z</time>
      </trkpt>
      <trkpt lat="42.3174304" lon="2.3564429">
        <ele>963.28997803</ele>
        <time>2021-03-30T10:44:31Z</time>
      </trkpt>
      <trkpt lat="42.3173746" lon="2.3564437">
        <ele>963.28997803</ele>
        <time>2021-03-30T10:44:32Z</time>
      </trkpt>
      <trkpt lat="42.3173215" lon="2.3564388">
        <ele>963.28997803</ele>
        <time>2021-03-30T10:44:33Z</time>
      </trkpt>
      <trkpt lat="42.3172702" lon="2.3564288">
        <ele>963.28997803</ele>
        <time>2021-03-30T10:44:34Z</time>
      </trkpt>
      <trkpt lat="42.3172165" lon="2.3564135">
        <ele>963.28997803</ele>
        <time>2021-03-30T10:44:35Z</time>
      </trkpt>
      <trkpt lat="42.3171586" lon="2.356395">
        <ele>963.20001221</ele>
        <time>2021-03-30T10:44:36Z</time>
      </trkpt>
      <trkpt lat="42.3170971" lon="2.3563789">
        <ele>962.23999023</ele>
        <time>2021-03-30T10:44:37Z</time>
      </trkpt>
      <trkpt lat="42.3170238" lon="2.3563624">
        <ele>961.04998779</ele>
        <time>2021-03-30T10:44:38Z</time>
      </trkpt>
      <trkpt lat="42.3169618" lon="2.356348">
        <ele>959.69000244</ele>
        <time>2021-03-30T10:44:39Z</time>
      </trkpt>
      <trkpt lat="42.3169048" lon="2.3563414">
        <ele>958.61999512</ele>
        <time>2021-03-30T10:44:40Z</time>
      </trkpt>
      <trkpt lat="42.3168547" lon="2.3563177">
        <ele>958.27001953</ele>
        <time>2021-03-30T10:44:41Z</time>
      </trkpt>
      <trkpt lat="42.3167977" lon="2.3562942">
        <ele>958.23999023</ele>
        <time>2021-03-30T10:44:42Z</time>
      </trkpt>
      <trkpt lat="42.3167378" lon="2.3562596">
        <ele>958.23999023</ele>
        <time>2021-03-30T10:44:43Z</time>
      </trkpt>
      <trkpt lat="42.3166713" lon="2.3562313">
        <ele>958.23999023</ele>
        <time>2021-03-30T10:44:44Z</time>
      </trkpt>
      <trkpt lat="42.3165984" lon="2.3562224">
        <ele>958.23999023</ele>
        <time>2021-03-30T10:44:45Z</time>
      </trkpt>
      <trkpt lat="42.3165387" lon="2.3562386">
        <ele>958.23999023</ele>
        <time>2021-03-30T10:44:46Z</time>
      </trkpt>
      <trkpt lat="42.3164756" lon="2.3562741">
        <ele>958.23999023</ele>
        <time>2021-03-30T10:44:47Z</time>
      </trkpt>
      <trkpt lat="42.3164234" lon="2.3563312">
        <ele>958.23999023</ele>
        <time>2021-03-30T10:44:48Z</time>
      </trkpt>
      <trkpt lat="42.3163948" lon="2.3563877">
        <ele>958.23999023</ele>
        <time>2021-03-30T10:44:49Z</time>
      </trkpt>
      <trkpt lat="42.3163734" lon="2.3564468">
        <ele>958.23999023</ele>
        <time>2021-03-30T10:44:50Z</time>
      </trkpt>
      <trkpt lat="42.3163466" lon="2.3565137">
        <ele>958.23999023</ele>
        <time>2021-03-30T10:44:51Z</time>
      </trkpt>
      <trkpt lat="42.3163224" lon="2.3565793">
        <ele>958.23999023</ele>
        <time>2021-03-30T10:44:52Z</time>
      </trkpt>
      <trkpt lat="42.3163045" lon="2.3566556">
        <ele>958.23999023</ele>
        <time>2021-03-30T10:44:53Z</time>
      </trkpt>
      <trkpt lat="42.3162817" lon="2.3567179">
        <ele>958.23999023</ele>
        <time>2021-03-30T10:44:54Z</time>
      </trkpt>
      <trkpt lat="42.3162558" lon="2.3567799">
        <ele>958.23999023</ele>
        <time>2021-03-30T10:44:55Z</time>
      </trkpt>
      <trkpt lat="42.3162236" lon="2.3568418">
        <ele>958.23999023</ele>
        <time>2021-03-30T10:44:56Z</time>
      </trkpt>
      <trkpt lat="42.3162012" lon="2.3569081">
        <ele>958.23999023</ele>
        <time>2021-03-30T10:44:57Z</time>
      </trkpt>
      <trkpt lat="42.3161749" lon="2.3569819">
        <ele>958.23999023</ele>
        <time>2021-03-30T10:44:58Z</time>
      </trkpt>
      <trkpt lat="42.3161541" lon="2.3570543">
        <ele>958.23999023</ele>
        <time>2021-03-30T10:44:59Z</time>
      </trkpt>
      <trkpt lat="42.3161238" lon="2.3571135">
        <ele>958.23999023</ele>
        <time>2021-03-30T10:45:00Z</time>
      </trkpt>
      <trkpt lat="42.3160988" lon="2.3571838">
        <ele>958.23999023</ele>
        <time>2021-03-30T10:45:01Z</time>
      </trkpt>
      <trkpt lat="42.3160752" lon="2.3572423">
        <ele>958.20001221</ele>
        <time>2021-03-30T10:45:02Z</time>
      </trkpt>
      <trkpt lat="42.316052" lon="2.3572917">
        <ele>958.11999512</ele>
        <time>2021-03-30T10:45:03Z</time>
      </trkpt>
      <trkpt lat="42.316039" lon="2.3573535">
        <ele>958</ele>
        <time>2021-03-30T10:45:04Z</time>
      </trkpt>
      <trkpt lat="42.3160346" lon="2.3574107">
        <ele>957.86999512</ele>
        <time>2021-03-30T10:45:05Z</time>
      </trkpt>
      <trkpt lat="42.3160209" lon="2.3574776">
        <ele>957.73999023</ele>
        <time>2021-03-30T10:45:06Z</time>
      </trkpt>
      <trkpt lat="42.3160044" lon="2.3575494">
        <ele>957.60998535</ele>
        <time>2021-03-30T10:45:07Z</time>
      </trkpt>
      <trkpt lat="42.3159839" lon="2.3576339">
        <ele>957.40002441</ele>
        <time>2021-03-30T10:45:08Z</time>
      </trkpt>
      <trkpt lat="42.3159557" lon="2.3577112">
        <ele>957.09002686</ele>
        <time>2021-03-30T10:45:09Z</time>
      </trkpt>
      <trkpt lat="42.3159294" lon="2.357783">
        <ele>956.71002197</ele>
        <time>2021-03-30T10:45:10Z</time>
      </trkpt>
      <trkpt lat="42.3159067" lon="2.3578507">
        <ele>956.32000732</ele>
        <time>2021-03-30T10:45:11Z</time>
      </trkpt>
      <trkpt lat="42.3158844" lon="2.3579176">
        <ele>955.9699707</ele>
        <time>2021-03-30T10:45:12Z</time>
      </trkpt>
      <trkpt lat="42.3158592" lon="2.3579809">
        <ele>955.65997314</ele>
        <time>2021-03-30T10:45:13Z</time>
      </trkpt>
      <trkpt lat="42.3158338" lon="2.3580281">
        <ele>955.39001465</ele>
        <time>2021-03-30T10:45:14Z</time>
      </trkpt>
      <trkpt lat="42.3158088" lon="2.3580933">
        <ele>955.15002441</ele>
        <time>2021-03-30T10:45:15Z</time>
      </trkpt>
      <trkpt lat="42.3157816" lon="2.3581606">
        <ele>954.92999268</ele>
        <time>2021-03-30T10:45:16Z</time>
      </trkpt>
      <trkpt lat="42.3157538" lon="2.3582416">
        <ele>954.73999023</ele>
        <time>2021-03-30T10:45:17Z</time>
      </trkpt>
      <trkpt lat="42.3157395" lon="2.3583182">
        <ele>954.57000732</ele>
        <time>2021-03-30T10:45:18Z</time>
      </trkpt>
      <trkpt lat="42.3157265" lon="2.3584">
        <ele>954.41998291</ele>
        <time>2021-03-30T10:45:19Z</time>
      </trkpt>
      <trkpt lat="42.3157196" lon="2.358469">
        <ele>954.28997803</ele>
        <time>2021-03-30T10:45:20Z</time>
      </trkpt>
      <trkpt lat="42.3157117" lon="2.3585339">
        <ele>954.16998291</ele>
        <time>2021-03-30T10:45:21Z</time>
      </trkpt>
      <trkpt lat="42.3157154" lon="2.3586104">
        <ele>954.05999756</ele>
        <time>2021-03-30T10:45:22Z</time>
      </trkpt>
      <trkpt lat="42.3157019" lon="2.3586884">
        <ele>953.9699707</ele>
        <time>2021-03-30T10:45:23Z</time>
      </trkpt>
      <trkpt lat="42.3156898" lon="2.3587654">
        <ele>953.82000732</ele>
        <time>2021-03-30T10:45:24Z</time>
      </trkpt>
      <trkpt lat="42.3156858" lon="2.3588478">
        <ele>953.59997559</ele>
        <time>2021-03-30T10:45:25Z</time>
      </trkpt>
      <trkpt lat="42.3156752" lon="2.358919">
        <ele>953.32000732</ele>
        <time>2021-03-30T10:45:26Z</time>
      </trkpt>
      <trkpt lat="42.3156629" lon="2.3589856">
        <ele>953</ele>
        <time>2021-03-30T10:45:27Z</time>
      </trkpt>
      <trkpt lat="42.3156508" lon="2.359063">
        <ele>952.69000244</ele>
        <time>2021-03-30T10:45:28Z</time>
      </trkpt>
      <trkpt lat="42.3156381" lon="2.3591377">
        <ele>952.39001465</ele>
        <time>2021-03-30T10:45:29Z</time>
      </trkpt>
      <trkpt lat="42.3156196" lon="2.3592075">
        <ele>952.09002686</ele>
        <time>2021-03-30T10:45:30Z</time>
      </trkpt>
      <trkpt lat="42.3156118" lon="2.3592713">
        <ele>951.7800293</ele>
        <time>2021-03-30T10:45:31Z</time>
      </trkpt>
      <trkpt lat="42.3156055" lon="2.3593448">
        <ele>951.46002197</ele>
        <time>2021-03-30T10:45:32Z</time>
      </trkpt>
      <trkpt lat="42.3156001" lon="2.3594244">
        <ele>951.14001465</ele>
        <time>2021-03-30T10:45:33Z</time>
      </trkpt>
      <trkpt lat="42.3155925" lon="2.35951">
        <ele>950.83001709</ele>
        <time>2021-03-30T10:45:34Z</time>
      </trkpt>
      <trkpt lat="42.3155839" lon="2.359591">
        <ele>950.53997803</ele>
        <time>2021-03-30T10:45:35Z</time>
      </trkpt>
      <trkpt lat="42.3155814" lon="2.3596715">
        <ele>950.2800293</ele>
        <time>2021-03-30T10:45:36Z</time>
      </trkpt>
      <trkpt lat="42.3155791" lon="2.3597442">
        <ele>950.04998779</ele>
        <time>2021-03-30T10:45:37Z</time>
      </trkpt>
      <trkpt lat="42.3155812" lon="2.3598065">
        <ele>949.84002686</ele>
        <time>2021-03-30T10:45:38Z</time>
      </trkpt>
      <trkpt lat="42.3155829" lon="2.3598802">
        <ele>949.65997314</ele>
        <time>2021-03-30T10:45:39Z</time>
      </trkpt>
      <trkpt lat="42.3155762" lon="2.3599323">
        <ele>949.48999023</ele>
        <time>2021-03-30T10:45:40Z</time>
      </trkpt>
      <trkpt lat="42.3155728" lon="2.3600006">
        <ele>949.34002686</ele>
        <time>2021-03-30T10:45:41Z</time>
      </trkpt>
      <trkpt lat="42.315572" lon="2.360074">
        <ele>949.21002197</ele>
        <time>2021-03-30T10:45:42Z</time>
      </trkpt>
      <trkpt lat="42.3155723" lon="2.3601334">
        <ele>949.09997559</ele>
        <time>2021-03-30T10:45:43Z</time>
      </trkpt>
      <trkpt lat="42.3155646" lon="2.360202">
        <ele>948.98999023</ele>
        <time>2021-03-30T10:45:44Z</time>
      </trkpt>
      <trkpt lat="42.3155527" lon="2.360265">
        <ele>948.90002441</ele>
        <time>2021-03-30T10:45:45Z</time>
      </trkpt>
      <trkpt lat="42.3155532" lon="2.3603391">
        <ele>948.82000732</ele>
        <time>2021-03-30T10:45:46Z</time>
      </trkpt>
      <trkpt lat="42.3155474" lon="2.3604139">
        <ele>948.73999023</ele>
        <time>2021-03-30T10:45:47Z</time>
      </trkpt>
      <trkpt lat="42.3155404" lon="2.3604793">
        <ele>948.67999268</ele>
        <time>2021-03-30T10:45:48Z</time>
      </trkpt>
      <trkpt lat="42.3155374" lon="2.3605462">
        <ele>948.61999512</ele>
        <time>2021-03-30T10:45:49Z</time>
      </trkpt>
      <trkpt lat="42.3155473" lon="2.3606218">
        <ele>948.57000732</ele>
        <time>2021-03-30T10:45:50Z</time>
      </trkpt>
      <trkpt lat="42.3155551" lon="2.3606938">
        <ele>948.52001953</ele>
        <time>2021-03-30T10:45:51Z</time>
      </trkpt>
      <trkpt lat="42.3155566" lon="2.3607822">
        <ele>948.47998047</ele>
        <time>2021-03-30T10:45:52Z</time>
      </trkpt>
      <trkpt lat="42.3155474" lon="2.3608411">
        <ele>948.44000244</ele>
        <time>2021-03-30T10:45:53Z</time>
      </trkpt>
      <trkpt lat="42.3155524" lon="2.3609013">
        <ele>948.40997314</ele>
        <time>2021-03-30T10:45:54Z</time>
      </trkpt>
      <trkpt lat="42.3155439" lon="2.3609852">
        <ele>948.38000488</ele>
        <time>2021-03-30T10:45:55Z</time>
      </trkpt>
      <trkpt lat="42.315546" lon="2.3610522">
        <ele>948.34997559</ele>
        <time>2021-03-30T10:45:56Z</time>
      </trkpt>
      <trkpt lat="42.315548" lon="2.3611025">
        <ele>948.33001709</ele>
        <time>2021-03-30T10:45:57Z</time>
      </trkpt>
      <trkpt lat="42.3155464" lon="2.3611755">
        <ele>948.30999756</ele>
        <time>2021-03-30T10:45:58Z</time>
      </trkpt>
      <trkpt lat="42.315547" lon="2.3612438">
        <ele>948.28997803</ele>
        <time>2021-03-30T10:45:59Z</time>
      </trkpt>
      <trkpt lat="42.3155452" lon="2.3613256">
        <ele>948.27001953</ele>
        <time>2021-03-30T10:46:00Z</time>
      </trkpt>
      <trkpt lat="42.3155436" lon="2.3613868">
        <ele>948.25</ele>
        <time>2021-03-30T10:46:01Z</time>
      </trkpt>
      <trkpt lat="42.3155516" lon="2.3614434">
        <ele>948.23999023</ele>
        <time>2021-03-30T10:46:02Z</time>
      </trkpt>
      <trkpt lat="42.3155589" lon="2.3615132">
        <ele>948.22998047</ele>
        <time>2021-03-30T10:46:03Z</time>
      </trkpt>
      <trkpt lat="42.3155757" lon="2.3615709">
        <ele>948.2199707</ele>
        <time>2021-03-30T10:46:04Z</time>
      </trkpt>
      <trkpt lat="42.315584" lon="2.3616191">
        <ele>948.21002197</ele>
        <time>2021-03-30T10:46:05Z</time>
      </trkpt>
      <trkpt lat="42.3155878" lon="2.3616664">
        <ele>948.20001221</ele>
        <time>2021-03-30T10:46:06Z</time>
      </trkpt>
      <trkpt lat="42.3155859" lon="2.361714">
        <ele>948.19000244</ele>
        <time>2021-03-30T10:46:07Z</time>
      </trkpt>
      <trkpt lat="42.3155774" lon="2.3617658">
        <ele>948.19000244</ele>
        <time>2021-03-30T10:46:08Z</time>
      </trkpt>
      <trkpt lat="42.3155699" lon="2.3618258">
        <ele>948.17999268</ele>
        <time>2021-03-30T10:46:09Z</time>
      </trkpt>
      <trkpt lat="42.3155653" lon="2.3618813">
        <ele>948.16998291</ele>
        <time>2021-03-30T10:46:10Z</time>
      </trkpt>
      <trkpt lat="42.3155484" lon="2.3619327">
        <ele>948.16998291</ele>
        <time>2021-03-30T10:46:11Z</time>
      </trkpt>
      <trkpt lat="42.3155333" lon="2.3619809">
        <ele>948.16998291</ele>
        <time>2021-03-30T10:46:12Z</time>
      </trkpt>
      <trkpt lat="42.3155053" lon="2.3620464">
        <ele>948.15997314</ele>
        <time>2021-03-30T10:46:13Z</time>
      </trkpt>
      <trkpt lat="42.315471" lon="2.3620776">
        <ele>948.15997314</ele>
        <time>2021-03-30T10:46:14Z</time>
      </trkpt>
      <trkpt lat="42.3154264" lon="2.3620876">
        <ele>948.15997314</ele>
        <time>2021-03-30T10:46:15Z</time>
      </trkpt>
      <trkpt lat="42.3153777" lon="2.3620917">
        <ele>948.15002441</ele>
        <time>2021-03-30T10:46:16Z</time>
      </trkpt>
      <trkpt lat="42.315332" lon="2.3620905">
        <ele>948.15002441</ele>
        <time>2021-03-30T10:46:17Z</time>
      </trkpt>
      <trkpt lat="42.3152828" lon="2.3620896">
        <ele>948.15002441</ele>
        <time>2021-03-30T10:46:18Z</time>
      </trkpt>
      <trkpt lat="42.3152324" lon="2.3620757">
        <ele>948.15002441</ele>
        <time>2021-03-30T10:46:19Z</time>
      </trkpt>
      <trkpt lat="42.3151797" lon="2.3620712">
        <ele>948.14001465</ele>
        <time>2021-03-30T10:46:20Z</time>
      </trkpt>
      <trkpt lat="42.315121" lon="2.3620762">
        <ele>948.14001465</ele>
        <time>2021-03-30T10:46:21Z</time>
      </trkpt>
      <trkpt lat="42.3150657" lon="2.3620895">
        <ele>948.14001465</ele>
        <time>2021-03-30T10:46:22Z</time>
      </trkpt>
      <trkpt lat="42.3150074" lon="2.3621068">
        <ele>948.14001465</ele>
        <time>2021-03-30T10:46:23Z</time>
      </trkpt>
      <trkpt lat="42.3149448" lon="2.3621104">
        <ele>948.14001465</ele>
        <time>2021-03-30T10:46:24Z</time>
      </trkpt>
      <trkpt lat="42.3148917" lon="2.3621213">
        <ele>948.14001465</ele>
        <time>2021-03-30T10:46:25Z</time>
      </trkpt>
      <trkpt lat="42.3148411" lon="2.3621207">
        <ele>948.14001465</ele>
        <time>2021-03-30T10:46:26Z</time>
      </trkpt>
      <trkpt lat="42.3147905" lon="2.3621343">
        <ele>948.14001465</ele>
        <time>2021-03-30T10:46:27Z</time>
      </trkpt>
      <trkpt lat="42.3147413" lon="2.3621385">
        <ele>948.14001465</ele>
        <time>2021-03-30T10:46:28Z</time>
      </trkpt>
      <trkpt lat="42.3147018" lon="2.3621391">
        <ele>948.14001465</ele>
        <time>2021-03-30T10:46:29Z</time>
      </trkpt>
      <trkpt lat="42.3146653" lon="2.36214">
        <ele>948.13000488</ele>
        <time>2021-03-30T10:46:30Z</time>
      </trkpt>
      <trkpt lat="42.3146377" lon="2.3621459">
        <ele>948.13000488</ele>
        <time>2021-03-30T10:46:31Z</time>
      </trkpt>
      <trkpt lat="42.3146043" lon="2.3621481">
        <ele>948.13000488</ele>
        <time>2021-03-30T10:46:32Z</time>
      </trkpt>
      <trkpt lat="42.314576" lon="2.3621539">
        <ele>948.13000488</ele>
        <time>2021-03-30T10:46:33Z</time>
      </trkpt>
      <trkpt lat="42.3145526" lon="2.3621661">
        <ele>948.13000488</ele>
        <time>2021-03-30T10:46:34Z</time>
      </trkpt>
      <trkpt lat="42.3145307" lon="2.3621673">
        <ele>948.13000488</ele>
        <time>2021-03-30T10:46:35Z</time>
      </trkpt>
      <trkpt lat="42.3145065" lon="2.3621675">
        <ele>948.13000488</ele>
        <time>2021-03-30T10:46:36Z</time>
      </trkpt>
      <trkpt lat="42.3144802" lon="2.3621749">
        <ele>948.13000488</ele>
        <time>2021-03-30T10:46:37Z</time>
      </trkpt>
      <trkpt lat="42.3144528" lon="2.3621853">
        <ele>948.13000488</ele>
        <time>2021-03-30T10:46:38Z</time>
      </trkpt>
      <trkpt lat="42.3144308" lon="2.3621975">
        <ele>948.13000488</ele>
        <time>2021-03-30T10:46:39Z</time>
      </trkpt>
      <trkpt lat="42.3144093" lon="2.3622186">
        <ele>948.10998535</ele>
        <time>2021-03-30T10:46:40Z</time>
      </trkpt>
      <trkpt lat="42.3144105" lon="2.3622247">
        <ele>947.54998779</ele>
        <time>2021-03-30T10:46:41Z</time>
      </trkpt>
      <trkpt lat="42.3144135" lon="2.3622395">
        <ele>947.47998047</ele>
        <time>2021-03-30T10:46:42Z</time>
      </trkpt>
      <trkpt lat="42.3144244" lon="2.3622508">
        <ele>947.30999756</ele>
        <time>2021-03-30T10:46:43Z</time>
      </trkpt>
      <trkpt lat="42.3144333" lon="2.3622876">
        <ele>947.28997803</ele>
        <time>2021-03-30T10:46:44Z</time>
      </trkpt>
      <trkpt lat="42.3144319" lon="2.362317">
        <ele>946.84002686</ele>
        <time>2021-03-30T10:46:45Z</time>
      </trkpt>
      <trkpt lat="42.3144257" lon="2.3623379">
        <ele>946.30999756</ele>
        <time>2021-03-30T10:46:46Z</time>
      </trkpt>
      <trkpt lat="42.3144094" lon="2.3623578">
        <ele>945.88000488</ele>
        <time>2021-03-30T10:46:47Z</time>
      </trkpt>
      <trkpt lat="42.314388" lon="2.3624132">
        <ele>945.39001465</ele>
        <time>2021-03-30T10:46:48Z</time>
      </trkpt>
      <trkpt lat="42.3143683" lon="2.3624661">
        <ele>944.44000244</ele>
        <time>2021-03-30T10:46:49Z</time>
      </trkpt>
      <trkpt lat="42.314344" lon="2.3625094">
        <ele>943.61999512</ele>
        <time>2021-03-30T10:46:50Z</time>
      </trkpt>
      <trkpt lat="42.314334" lon="2.3625412">
        <ele>943.13000488</ele>
        <time>2021-03-30T10:46:51Z</time>
      </trkpt>
      <trkpt lat="42.3143193" lon="2.362588">
        <ele>943.08001709</ele>
        <time>2021-03-30T10:46:52Z</time>
      </trkpt>
      <trkpt lat="42.3143087" lon="2.3626328">
        <ele>943.08001709</ele>
        <time>2021-03-30T10:46:53Z</time>
      </trkpt>
      <trkpt lat="42.3143096" lon="2.3626818">
        <ele>943.08001709</ele>
        <time>2021-03-30T10:46:54Z</time>
      </trkpt>
      <trkpt lat="42.3143154" lon="2.3627225">
        <ele>943.08001709</ele>
        <time>2021-03-30T10:46:55Z</time>
      </trkpt>
      <trkpt lat="42.314321" lon="2.3627674">
        <ele>943.08001709</ele>
        <time>2021-03-30T10:46:56Z</time>
      </trkpt>
      <trkpt lat="42.3143229" lon="2.3628147">
        <ele>943.08001709</ele>
        <time>2021-03-30T10:46:57Z</time>
      </trkpt>
      <trkpt lat="42.3143172" lon="2.3628562">
        <ele>943.08001709</ele>
        <time>2021-03-30T10:46:58Z</time>
      </trkpt>
      <trkpt lat="42.3143085" lon="2.3629017">
        <ele>943.08001709</ele>
        <time>2021-03-30T10:46:59Z</time>
      </trkpt>
      <trkpt lat="42.3143064" lon="2.3629466">
        <ele>943.08001709</ele>
        <time>2021-03-30T10:47:00Z</time>
      </trkpt>
      <trkpt lat="42.3143031" lon="2.3629913">
        <ele>943.08001709</ele>
        <time>2021-03-30T10:47:01Z</time>
      </trkpt>
      <trkpt lat="42.3142995" lon="2.3630445">
        <ele>943.08001709</ele>
        <time>2021-03-30T10:47:02Z</time>
      </trkpt>
      <trkpt lat="42.31429" lon="2.3630887">
        <ele>943.08001709</ele>
        <time>2021-03-30T10:47:03Z</time>
      </trkpt>
      <trkpt lat="42.3142802" lon="2.3631403">
        <ele>943.08001709</ele>
        <time>2021-03-30T10:47:04Z</time>
      </trkpt>
      <trkpt lat="42.314274" lon="2.3631833">
        <ele>943.08001709</ele>
        <time>2021-03-30T10:47:05Z</time>
      </trkpt>
      <trkpt lat="42.3142637" lon="2.3632125">
        <ele>943.08001709</ele>
        <time>2021-03-30T10:47:06Z</time>
      </trkpt>
      <trkpt lat="42.3142575" lon="2.3632275">
        <ele>943.08001709</ele>
        <time>2021-03-30T10:47:07Z</time>
      </trkpt>
      <trkpt lat="42.3142475" lon="2.3632335">
        <ele>943.08001709</ele>
        <time>2021-03-30T10:47:08Z</time>
      </trkpt>
      <trkpt lat="42.3142252" lon="2.3632415">
        <ele>943.08001709</ele>
        <time>2021-03-30T10:47:09Z</time>
      </trkpt>
      <trkpt lat="42.3142102" lon="2.363255">
        <ele>943.08001709</ele>
        <time>2021-03-30T10:47:10Z</time>
      </trkpt>
      <trkpt lat="42.3141971" lon="2.3632675">
        <ele>943.08001709</ele>
        <time>2021-03-30T10:47:11Z</time>
      </trkpt>
      <trkpt lat="42.3141797" lon="2.3632903">
        <ele>943.08001709</ele>
        <time>2021-03-30T10:47:12Z</time>
      </trkpt>
      <trkpt lat="42.3141607" lon="2.3633323">
        <ele>943.08001709</ele>
        <time>2021-03-30T10:47:13Z</time>
      </trkpt>
      <trkpt lat="42.314157" lon="2.3633716">
        <ele>943.08001709</ele>
        <time>2021-03-30T10:47:14Z</time>
      </trkpt>
      <trkpt lat="42.3141509" lon="2.3634062">
        <ele>943.08001709</ele>
        <time>2021-03-30T10:47:15Z</time>
      </trkpt>
      <trkpt lat="42.3141425" lon="2.3634515">
        <ele>943.08001709</ele>
        <time>2021-03-30T10:47:16Z</time>
      </trkpt>
      <trkpt lat="42.3141283" lon="2.3634964">
        <ele>943.08001709</ele>
        <time>2021-03-30T10:47:17Z</time>
      </trkpt>
      <trkpt lat="42.3141137" lon="2.3635433">
        <ele>943.08001709</ele>
        <time>2021-03-30T10:47:18Z</time>
      </trkpt>
      <trkpt lat="42.3140918" lon="2.3636102">
        <ele>943.08001709</ele>
        <time>2021-03-30T10:47:19Z</time>
      </trkpt>
      <trkpt lat="42.3140927" lon="2.3636662">
        <ele>943.08001709</ele>
        <time>2021-03-30T10:47:20Z</time>
      </trkpt>
      <trkpt lat="42.3140839" lon="2.3637182">
        <ele>943.08001709</ele>
        <time>2021-03-30T10:47:21Z</time>
      </trkpt>
      <trkpt lat="42.314059" lon="2.3637594">
        <ele>943.08001709</ele>
        <time>2021-03-30T10:47:22Z</time>
      </trkpt>
      <trkpt lat="42.314026" lon="2.3638056">
        <ele>943.08001709</ele>
        <time>2021-03-30T10:47:23Z</time>
      </trkpt>
      <trkpt lat="42.3140018" lon="2.3638589">
        <ele>943.08001709</ele>
        <time>2021-03-30T10:47:24Z</time>
      </trkpt>
      <trkpt lat="42.3139748" lon="2.3639108">
        <ele>943.08001709</ele>
        <time>2021-03-30T10:47:25Z</time>
      </trkpt>
      <trkpt lat="42.3139541" lon="2.3639724">
        <ele>943.08001709</ele>
        <time>2021-03-30T10:47:26Z</time>
      </trkpt>
      <trkpt lat="42.3139419" lon="2.3640302">
        <ele>943.08001709</ele>
        <time>2021-03-30T10:47:27Z</time>
      </trkpt>
      <trkpt lat="42.3139158" lon="2.3640751">
        <ele>943.08001709</ele>
        <time>2021-03-30T10:47:28Z</time>
      </trkpt>
      <trkpt lat="42.3139026" lon="2.3641188">
        <ele>943.08001709</ele>
        <time>2021-03-30T10:47:29Z</time>
      </trkpt>
      <trkpt lat="42.3138932" lon="2.3641589">
        <ele>943.08001709</ele>
        <time>2021-03-30T10:47:30Z</time>
      </trkpt>
      <trkpt lat="42.313879" lon="2.3642032">
        <ele>943.08001709</ele>
        <time>2021-03-30T10:47:31Z</time>
      </trkpt>
      <trkpt lat="42.3138749" lon="2.3642416">
        <ele>942.91998291</ele>
        <time>2021-03-30T10:47:32Z</time>
      </trkpt>
      <trkpt lat="42.3138707" lon="2.3642777">
        <ele>942.83001709</ele>
        <time>2021-03-30T10:47:33Z</time>
      </trkpt>
      <trkpt lat="42.313863" lon="2.3643112">
        <ele>942.76000977</ele>
        <time>2021-03-30T10:47:34Z</time>
      </trkpt>
      <trkpt lat="42.3138436" lon="2.3643371">
        <ele>942.61999512</ele>
        <time>2021-03-30T10:47:35Z</time>
      </trkpt>
      <trkpt lat="42.313833" lon="2.3643769">
        <ele>942.28997803</ele>
        <time>2021-03-30T10:47:36Z</time>
      </trkpt>
      <trkpt lat="42.3138185" lon="2.3644212">
        <ele>942.09002686</ele>
        <time>2021-03-30T10:47:37Z</time>
      </trkpt>
      <trkpt lat="42.3138131" lon="2.3644504">
        <ele>941.83001709</ele>
        <time>2021-03-30T10:47:38Z</time>
      </trkpt>
      <trkpt lat="42.313797" lon="2.3645052">
        <ele>941.73999023</ele>
        <time>2021-03-30T10:47:39Z</time>
      </trkpt>
      <trkpt lat="42.3137775" lon="2.3645357">
        <ele>941.77001953</ele>
        <time>2021-03-30T10:47:40Z</time>
      </trkpt>
      <trkpt lat="42.3137626" lon="2.3645828">
        <ele>941.7199707</ele>
        <time>2021-03-30T10:47:41Z</time>
      </trkpt>
      <trkpt lat="42.3137469" lon="2.3646195">
        <ele>941.90997314</ele>
        <time>2021-03-30T10:47:42Z</time>
      </trkpt>
      <trkpt lat="42.3137298" lon="2.3646705">
        <ele>942.09997559</ele>
        <time>2021-03-30T10:47:43Z</time>
      </trkpt>
      <trkpt lat="42.3137179" lon="2.364713">
        <ele>942.5</ele>
        <time>2021-03-30T10:47:44Z</time>
      </trkpt>
      <trkpt lat="42.3137174" lon="2.3647546">
        <ele>942.92999268</ele>
        <time>2021-03-30T10:47:45Z</time>
      </trkpt>
      <trkpt lat="42.3137215" lon="2.3647948">
        <ele>943.27001953</ele>
        <time>2021-03-30T10:47:46Z</time>
      </trkpt>
      <trkpt lat="42.3137151" lon="2.3648449">
        <ele>943.57000732</ele>
        <time>2021-03-30T10:47:47Z</time>
      </trkpt>
      <trkpt lat="42.3137171" lon="2.3648933">
        <ele>943.88000488</ele>
        <time>2021-03-30T10:47:48Z</time>
      </trkpt>
      <trkpt lat="42.3137102" lon="2.3649267">
        <ele>944.22998047</ele>
        <time>2021-03-30T10:47:49Z</time>
      </trkpt>
      <trkpt lat="42.3137028" lon="2.3649502">
        <ele>944.39001465</ele>
        <time>2021-03-30T10:47:50Z</time>
      </trkpt>
      <trkpt lat="42.3137052" lon="2.3649837">
        <ele>944.44000244</ele>
        <time>2021-03-30T10:47:51Z</time>
      </trkpt>
      <trkpt lat="42.3137129" lon="2.365017">
        <ele>944.66998291</ele>
        <time>2021-03-30T10:47:52Z</time>
      </trkpt>
      <trkpt lat="42.3137251" lon="2.3650447">
        <ele>944.90002441</ele>
        <time>2021-03-30T10:47:53Z</time>
      </trkpt>
      <trkpt lat="42.3137305" lon="2.3650778">
        <ele>945.13000488</ele>
        <time>2021-03-30T10:47:54Z</time>
      </trkpt>
      <trkpt lat="42.3137348" lon="2.365105">
        <ele>945.23999023</ele>
        <time>2021-03-30T10:47:55Z</time>
      </trkpt>
      <trkpt lat="42.3137303" lon="2.3651222">
        <ele>945.32000732</ele>
        <time>2021-03-30T10:47:56Z</time>
      </trkpt>
      <trkpt lat="42.3137227" lon="2.3651467">
        <ele>945.25</ele>
        <time>2021-03-30T10:47:57Z</time>
      </trkpt>
      <trkpt lat="42.3137135" lon="2.365164">
        <ele>945.11999512</ele>
        <time>2021-03-30T10:47:58Z</time>
      </trkpt>
      <trkpt lat="42.3137031" lon="2.3651766">
        <ele>944.96002197</ele>
        <time>2021-03-30T10:47:59Z</time>
      </trkpt>
      <trkpt lat="42.3136839" lon="2.3652204">
        <ele>944.52001953</ele>
        <time>2021-03-30T10:48:08Z</time>
      </trkpt>
      <trkpt lat="42.3136814" lon="2.3652386">
        <ele>944.40997314</ele>
        <time>2021-03-30T10:48:09Z</time>
      </trkpt>
      <trkpt lat="42.313673" lon="2.3652495">
        <ele>944.35998535</ele>
        <time>2021-03-30T10:48:10Z</time>
      </trkpt>
      <trkpt lat="42.313661" lon="2.3652669">
        <ele>944.2199707</ele>
        <time>2021-03-30T10:48:11Z</time>
      </trkpt>
      <trkpt lat="42.3136544" lon="2.3652805">
        <ele>944.01000977</ele>
        <time>2021-03-30T10:48:12Z</time>
      </trkpt>
      <trkpt lat="42.3136463" lon="2.3652895">
        <ele>943.88000488</ele>
        <time>2021-03-30T10:48:13Z</time>
      </trkpt>
      <trkpt lat="42.3136305" lon="2.3653016">
        <ele>943.72998047</ele>
        <time>2021-03-30T10:48:14Z</time>
      </trkpt>
      <trkpt lat="42.3136123" lon="2.3653034">
        <ele>943.46002197</ele>
        <time>2021-03-30T10:48:15Z</time>
      </trkpt>
      <trkpt lat="42.313587" lon="2.3653288">
        <ele>943.14001465</ele>
        <time>2021-03-30T10:48:16Z</time>
      </trkpt>
      <trkpt lat="42.3135704" lon="2.3653366">
        <ele>942.76000977</ele>
        <time>2021-03-30T10:48:17Z</time>
      </trkpt>
      <trkpt lat="42.3135507" lon="2.3653404">
        <ele>942.52001953</ele>
        <time>2021-03-30T10:48:18Z</time>
      </trkpt>
      <trkpt lat="42.3135307" lon="2.3653444">
        <ele>942.26000977</ele>
        <time>2021-03-30T10:48:19Z</time>
      </trkpt>
      <trkpt lat="42.3135184" lon="2.3653462">
        <ele>942</ele>
        <time>2021-03-30T10:48:20Z</time>
      </trkpt>
      <trkpt lat="42.313493" lon="2.365339">
        <ele>941.83001709</ele>
        <time>2021-03-30T10:48:21Z</time>
      </trkpt>
      <trkpt lat="42.3134603" lon="2.3653359">
        <ele>941.45001221</ele>
        <time>2021-03-30T10:48:22Z</time>
      </trkpt>
      <trkpt lat="42.3134287" lon="2.3653261">
        <ele>940.96002197</ele>
        <time>2021-03-30T10:48:23Z</time>
      </trkpt>
      <trkpt lat="42.3134089" lon="2.3653216">
        <ele>940.40002441</ele>
        <time>2021-03-30T10:48:24Z</time>
      </trkpt>
      <trkpt lat="42.3133949" lon="2.3653195">
        <ele>940.02001953</ele>
        <time>2021-03-30T10:48:25Z</time>
      </trkpt>
      <trkpt lat="42.3133903" lon="2.3653119">
        <ele>939.77001953</ele>
        <time>2021-03-30T10:48:26Z</time>
      </trkpt>
      <trkpt lat="42.3133909" lon="2.3653092">
        <ele>939.58001709</ele>
        <time>2021-03-30T10:48:27Z</time>
      </trkpt>
      <trkpt lat="42.3133922" lon="2.365312">
        <ele>939.5300293</ele>
        <time>2021-03-30T10:48:28Z</time>
      </trkpt>
      <trkpt lat="42.3133782" lon="2.3653225">
        <ele>939.58001709</ele>
        <time>2021-03-30T10:48:29Z</time>
      </trkpt>
      <trkpt lat="42.3133553" lon="2.3653327">
        <ele>939.5300293</ele>
        <time>2021-03-30T10:48:30Z</time>
      </trkpt>
      <trkpt lat="42.3133296" lon="2.3653328">
        <ele>939.35998535</ele>
        <time>2021-03-30T10:48:31Z</time>
      </trkpt>
      <trkpt lat="42.3133085" lon="2.3653298">
        <ele>939.20001221</ele>
        <time>2021-03-30T10:48:32Z</time>
      </trkpt>
      <trkpt lat="42.313285" lon="2.3653235">
        <ele>939.88000488</ele>
        <time>2021-03-30T10:48:33Z</time>
      </trkpt>
      <trkpt lat="42.3132617" lon="2.3653139">
        <ele>940.66998291</ele>
        <time>2021-03-30T10:48:34Z</time>
      </trkpt>
      <trkpt lat="42.3132381" lon="2.3653027">
        <ele>941.38000488</ele>
        <time>2021-03-30T10:48:35Z</time>
      </trkpt>
      <trkpt lat="42.3132182" lon="2.3652931">
        <ele>942.0300293</ele>
        <time>2021-03-30T10:48:36Z</time>
      </trkpt>
      <trkpt lat="42.313202" lon="2.3652823">
        <ele>942.54998779</ele>
        <time>2021-03-30T10:48:37Z</time>
      </trkpt>
      <trkpt lat="42.3131848" lon="2.3652715">
        <ele>942.89001465</ele>
        <time>2021-03-30T10:48:38Z</time>
      </trkpt>
      <trkpt lat="42.3131576" lon="2.3652565">
        <ele>943.32000732</ele>
        <time>2021-03-30T10:48:39Z</time>
      </trkpt>
      <trkpt lat="42.3131372" lon="2.3652409">
        <ele>944.09002686</ele>
        <time>2021-03-30T10:48:40Z</time>
      </trkpt>
      <trkpt lat="42.3131164" lon="2.3652247">
        <ele>944.61999512</ele>
        <time>2021-03-30T10:48:41Z</time>
      </trkpt>
      <trkpt lat="42.3130915" lon="2.3652035">
        <ele>945.10998535</ele>
        <time>2021-03-30T10:48:42Z</time>
      </trkpt>
      <trkpt lat="42.313056" lon="2.365177">
        <ele>945.59002686</ele>
        <time>2021-03-30T10:48:43Z</time>
      </trkpt>
      <trkpt lat="42.3130356" lon="2.3651579">
        <ele>946.2199707</ele>
        <time>2021-03-30T10:48:44Z</time>
      </trkpt>
      <trkpt lat="42.3130195" lon="2.3651434">
        <ele>946.15997314</ele>
        <time>2021-03-30T10:48:45Z</time>
      </trkpt>
      <trkpt lat="42.3129853" lon="2.3651339">
        <ele>946.03997803</ele>
        <time>2021-03-30T10:48:46Z</time>
      </trkpt>
      <trkpt lat="42.3129304" lon="2.3651226">
        <ele>946.11999512</ele>
        <time>2021-03-30T10:48:47Z</time>
      </trkpt>
      <trkpt lat="42.3128764" lon="2.3651019">
        <ele>946.28997803</ele>
        <time>2021-03-30T10:48:48Z</time>
      </trkpt>
      <trkpt lat="42.3128445" lon="2.3650827">
        <ele>946.14001465</ele>
        <time>2021-03-30T10:48:49Z</time>
      </trkpt>
      <trkpt lat="42.312826" lon="2.365075">
        <ele>945.77001953</ele>
        <time>2021-03-30T10:48:50Z</time>
      </trkpt>
      <trkpt lat="42.3128018" lon="2.3650618">
        <ele>945.59002686</ele>
        <time>2021-03-30T10:48:51Z</time>
      </trkpt>
      <trkpt lat="42.3127717" lon="2.3650621">
        <ele>945.27001953</ele>
        <time>2021-03-30T10:48:52Z</time>
      </trkpt>
      <trkpt lat="42.3127545" lon="2.3650607">
        <ele>945.33001709</ele>
        <time>2021-03-30T10:48:53Z</time>
      </trkpt>
      <trkpt lat="42.3127407" lon="2.3650579">
        <ele>945.28997803</ele>
        <time>2021-03-30T10:48:54Z</time>
      </trkpt>
      <trkpt lat="42.3127232" lon="2.3650497">
        <ele>945.20001221</ele>
        <time>2021-03-30T10:48:55Z</time>
      </trkpt>
      <trkpt lat="42.3127038" lon="2.3650345">
        <ele>944.91998291</ele>
        <time>2021-03-30T10:48:56Z</time>
      </trkpt>
      <trkpt lat="42.3126995" lon="2.3650203">
        <ele>944.39001465</ele>
        <time>2021-03-30T10:48:57Z</time>
      </trkpt>
      <trkpt lat="42.3126965" lon="2.3650158">
        <ele>943.88000488</ele>
        <time>2021-03-30T10:48:58Z</time>
      </trkpt>
      <trkpt lat="42.3126997" lon="2.3650116">
        <ele>943.67999268</ele>
        <time>2021-03-30T10:48:59Z</time>
      </trkpt>
      <trkpt lat="42.3126753" lon="2.3650088">
        <ele>943.44000244</ele>
        <time>2021-03-30T10:49:04Z</time>
      </trkpt>
      <trkpt lat="42.3126704" lon="2.3649991">
        <ele>943.40002441</ele>
        <time>2021-03-30T10:49:05Z</time>
      </trkpt>
      <trkpt lat="42.3126594" lon="2.3650067">
        <ele>943.09997559</ele>
        <time>2021-03-30T10:49:06Z</time>
      </trkpt>
      <trkpt lat="42.3126505" lon="2.3650122">
        <ele>943.29998779</ele>
        <time>2021-03-30T10:49:07Z</time>
      </trkpt>
      <trkpt lat="42.3126286" lon="2.3649997">
        <ele>942.89001465</ele>
        <time>2021-03-30T10:57:45Z</time>
      </trkpt>
      <trkpt lat="42.3126214" lon="2.3649908">
        <ele>943.04998779</ele>
        <time>2021-03-30T10:57:46Z</time>
      </trkpt>
      <trkpt lat="42.3126126" lon="2.3650073">
        <ele>942.92999268</ele>
        <time>2021-03-30T10:57:47Z</time>
      </trkpt>
      <trkpt lat="42.3125995" lon="2.3650073">
        <ele>943.29998779</ele>
        <time>2021-03-30T10:57:48Z</time>
      </trkpt>
      <trkpt lat="42.3125962" lon="2.3650234">
        <ele>943.34002686</ele>
        <time>2021-03-30T10:57:49Z</time>
      </trkpt>
      <trkpt lat="42.312595" lon="2.3650234">
        <ele>943.86999512</ele>
        <time>2021-03-30T10:57:50Z</time>
      </trkpt>
      <trkpt lat="42.312585" lon="2.3650225">
        <ele>943.92999268</ele>
        <time>2021-03-30T10:57:51Z</time>
      </trkpt>
      <trkpt lat="42.3125778" lon="2.3650248">
        <ele>943.90002441</ele>
        <time>2021-03-30T10:57:52Z</time>
      </trkpt>
      <trkpt lat="42.3125775" lon="2.3650235">
        <ele>943.9699707</ele>
        <time>2021-03-30T10:57:53Z</time>
      </trkpt>
      <trkpt lat="42.3125726" lon="2.3650192">
        <ele>943.94000244</ele>
        <time>2021-03-30T10:57:54Z</time>
      </trkpt>
      <trkpt lat="42.3125698" lon="2.3650105">
        <ele>943.79998779</ele>
        <time>2021-03-30T10:57:55Z</time>
      </trkpt>
      <trkpt lat="42.3125667" lon="2.3650019">
        <ele>943.5</ele>
        <time>2021-03-30T10:57:56Z</time>
      </trkpt>
      <trkpt lat="42.3125638" lon="2.3650052">
        <ele>943.17999268</ele>
        <time>2021-03-30T10:57:57Z</time>
      </trkpt>
      <trkpt lat="42.3125594" lon="2.3650068">
        <ele>943.26000977</ele>
        <time>2021-03-30T10:57:58Z</time>
      </trkpt>
      <trkpt lat="42.3125554" lon="2.3650102">
        <ele>943.32000732</ele>
        <time>2021-03-30T10:57:59Z</time>
      </trkpt>
      <trkpt lat="42.3125539" lon="2.3650182">
        <ele>943.44000244</ele>
        <time>2021-03-30T10:58:00Z</time>
      </trkpt>
      <trkpt lat="42.3125439" lon="2.3650207">
        <ele>943.71002197</ele>
        <time>2021-03-30T10:58:01Z</time>
      </trkpt>
      <trkpt lat="42.3125334" lon="2.3650184">
        <ele>943.82000732</ele>
        <time>2021-03-30T10:58:02Z</time>
      </trkpt>
      <trkpt lat="42.3125243" lon="2.3650087">
        <ele>943.76000977</ele>
        <time>2021-03-30T10:58:03Z</time>
      </trkpt>
      <trkpt lat="42.3125188" lon="2.3650083">
        <ele>943.42999268</ele>
        <time>2021-03-30T10:58:04Z</time>
      </trkpt>
      <trkpt lat="42.3124943" lon="2.3650194">
        <ele>943.39001465</ele>
        <time>2021-03-30T10:58:05Z</time>
      </trkpt>
      <trkpt lat="42.3124939" lon="2.3649985">
        <ele>943.73999023</ele>
        <time>2021-03-30T10:58:06Z</time>
      </trkpt>
      <trkpt lat="42.3124953" lon="2.3650075">
        <ele>943.11999512</ele>
        <time>2021-03-30T10:58:07Z</time>
      </trkpt>
      <trkpt lat="42.3124957" lon="2.3650102">
        <ele>943.33001709</ele>
        <time>2021-03-30T10:58:08Z</time>
      </trkpt>
      <trkpt lat="42.3124929" lon="2.3650133">
        <ele>943.44000244</ele>
        <time>2021-03-30T10:58:09Z</time>
      </trkpt>
      <trkpt lat="42.3124918" lon="2.3650174">
        <ele>943.54998779</ele>
        <time>2021-03-30T10:58:10Z</time>
      </trkpt>
      <trkpt lat="42.3124893" lon="2.3650246">
        <ele>943.69000244</ele>
        <time>2021-03-30T10:58:11Z</time>
      </trkpt>
      <trkpt lat="42.312487" lon="2.3650375">
        <ele>943.92999268</ele>
        <time>2021-03-30T10:58:12Z</time>
      </trkpt>
      <trkpt lat="42.3124865" lon="2.3650526">
        <ele>944.35998535</ele>
        <time>2021-03-30T10:58:13Z</time>
      </trkpt>
      <trkpt lat="42.3124764" lon="2.3650818">
        <ele>944.89001465</ele>
        <time>2021-03-30T10:58:14Z</time>
      </trkpt>
      <trkpt lat="42.3124727" lon="2.3650953">
        <ele>945.82000732</ele>
        <time>2021-03-30T10:58:15Z</time>
      </trkpt>
      <trkpt lat="42.3124695" lon="2.3651056">
        <ele>946.32000732</ele>
        <time>2021-03-30T10:58:16Z</time>
      </trkpt>
      <trkpt lat="42.3124682" lon="2.3651142">
        <ele>946.66998291</ele>
        <time>2021-03-30T10:58:17Z</time>
      </trkpt>
      <trkpt lat="42.3124669" lon="2.3651192">
        <ele>945.90997314</ele>
        <time>2021-03-30T10:58:19Z</time>
      </trkpt>
      <trkpt lat="42.3124657" lon="2.3651223">
        <ele>945.10998535</ele>
        <time>2021-03-30T10:58:20Z</time>
      </trkpt>
      <trkpt lat="42.3124636" lon="2.3651222">
        <ele>947.03997803</ele>
        <time>2021-03-30T10:58:21Z</time>
      </trkpt>
      <trkpt lat="42.3124611" lon="2.3651235">
        <ele>947.21002197</ele>
        <time>2021-03-30T10:58:22Z</time>
      </trkpt>
      <trkpt lat="42.3124566" lon="2.3651308">
        <ele>947.25</ele>
        <time>2021-03-30T10:58:23Z</time>
      </trkpt>
      <trkpt lat="42.3124525" lon="2.3651405">
        <ele>947.45001221</ele>
        <time>2021-03-30T10:58:24Z</time>
      </trkpt>
      <trkpt lat="42.3124501" lon="2.3651483">
        <ele>947.7199707</ele>
        <time>2021-03-30T10:58:25Z</time>
      </trkpt>
      <trkpt lat="42.3124494" lon="2.3651565">
        <ele>947.96002197</ele>
        <time>2021-03-30T10:58:26Z</time>
      </trkpt>
      <trkpt lat="42.3124485" lon="2.3651628">
        <ele>948.22998047</ele>
        <time>2021-03-30T10:58:27Z</time>
      </trkpt>
      <trkpt lat="42.3124357" lon="2.365144">
        <ele>948.42999268</ele>
        <time>2021-03-30T10:58:28Z</time>
      </trkpt>
      <trkpt lat="42.3124165" lon="2.3651373">
        <ele>947.7800293</ele>
        <time>2021-03-30T10:58:29Z</time>
      </trkpt>
      <trkpt lat="42.3124102" lon="2.3651197">
        <ele>947.36999512</ele>
        <time>2021-03-30T10:58:30Z</time>
      </trkpt>
      <trkpt lat="42.312403" lon="2.3651194">
        <ele>946.78997803</ele>
        <time>2021-03-30T10:58:31Z</time>
      </trkpt>
      <trkpt lat="42.312402" lon="2.3651149">
        <ele>946.67999268</ele>
        <time>2021-03-30T10:58:32Z</time>
      </trkpt>
      <trkpt lat="42.3123977" lon="2.3651091">
        <ele>946.53997803</ele>
        <time>2021-03-30T10:58:33Z</time>
      </trkpt>
      <trkpt lat="42.3123946" lon="2.3651057">
        <ele>946.34002686</ele>
        <time>2021-03-30T10:58:34Z</time>
      </trkpt>
      <trkpt lat="42.3123847" lon="2.3651049">
        <ele>946.21002197</ele>
        <time>2021-03-30T10:58:35Z</time>
      </trkpt>
      <trkpt lat="42.3123728" lon="2.3651069">
        <ele>946.10998535</ele>
        <time>2021-03-30T10:58:36Z</time>
      </trkpt>
      <trkpt lat="42.3123601" lon="2.3651149">
        <ele>946.08001709</ele>
        <time>2021-03-30T10:58:37Z</time>
      </trkpt>
      <trkpt lat="42.3123502" lon="2.365118">
        <ele>946.19000244</ele>
        <time>2021-03-30T10:58:38Z</time>
      </trkpt>
      <trkpt lat="42.3123433" lon="2.3651206">
        <ele>946.21002197</ele>
        <time>2021-03-30T10:58:39Z</time>
      </trkpt>
      <trkpt lat="42.3123302" lon="2.3651284">
        <ele>946.22998047</ele>
        <time>2021-03-30T10:58:40Z</time>
      </trkpt>
      <trkpt lat="42.31232" lon="2.365131">
        <ele>946.30999756</ele>
        <time>2021-03-30T10:58:41Z</time>
      </trkpt>
      <trkpt lat="42.3123094" lon="2.3651333">
        <ele>946.29998779</ele>
        <time>2021-03-30T10:58:42Z</time>
      </trkpt>
      <trkpt lat="42.3122989" lon="2.3651339">
        <ele>946.27001953</ele>
        <time>2021-03-30T10:58:43Z</time>
      </trkpt>
      <trkpt lat="42.3122818" lon="2.3651379">
        <ele>946.19000244</ele>
        <time>2021-03-30T10:58:44Z</time>
      </trkpt>
      <trkpt lat="42.3122637" lon="2.3651397">
        <ele>946.13000488</ele>
        <time>2021-03-30T10:58:45Z</time>
      </trkpt>
      <trkpt lat="42.3122426" lon="2.3651424">
        <ele>946.01000977</ele>
        <time>2021-03-30T10:58:46Z</time>
      </trkpt>
      <trkpt lat="42.3122195" lon="2.3651339">
        <ele>945.88000488</ele>
        <time>2021-03-30T10:58:47Z</time>
      </trkpt>
      <trkpt lat="42.3122137" lon="2.3651324">
        <ele>945.51000977</ele>
        <time>2021-03-30T10:58:48Z</time>
      </trkpt>
      <trkpt lat="42.3122091" lon="2.3651261">
        <ele>945.34997559</ele>
        <time>2021-03-30T10:58:49Z</time>
      </trkpt>
      <trkpt lat="42.3122049" lon="2.365119">
        <ele>945.15997314</ele>
        <time>2021-03-30T10:58:50Z</time>
      </trkpt>
      <trkpt lat="42.3121802" lon="2.3651066">
        <ele>944.95001221</ele>
        <time>2021-03-30T10:58:51Z</time>
      </trkpt>
      <trkpt lat="42.3121571" lon="2.3651176">
        <ele>944.32000732</ele>
        <time>2021-03-30T10:58:52Z</time>
      </trkpt>
      <trkpt lat="42.3121363" lon="2.3651067">
        <ele>944.05999756</ele>
        <time>2021-03-30T10:58:53Z</time>
      </trkpt>
      <trkpt lat="42.312104" lon="2.36512">
        <ele>943.52001953</ele>
        <time>2021-03-30T10:58:54Z</time>
      </trkpt>
      <trkpt lat="42.3120804" lon="2.3651168">
        <ele>943.15002441</ele>
        <time>2021-03-30T10:58:55Z</time>
      </trkpt>
      <trkpt lat="42.3120654" lon="2.3651201">
        <ele>942.67999268</ele>
        <time>2021-03-30T10:58:56Z</time>
      </trkpt>
      <trkpt lat="42.312054" lon="2.365113">
        <ele>942.44000244</ele>
        <time>2021-03-30T10:58:57Z</time>
      </trkpt>
      <trkpt lat="42.3120412" lon="2.3651122">
        <ele>942.10998535</ele>
        <time>2021-03-30T10:58:58Z</time>
      </trkpt>
      <trkpt lat="42.312027" lon="2.3651">
        <ele>941.85998535</ele>
        <time>2021-03-30T10:58:59Z</time>
      </trkpt>
      <trkpt lat="42.3120106" lon="2.365104">
        <ele>941.40002441</ele>
        <time>2021-03-30T10:59:00Z</time>
      </trkpt>
      <trkpt lat="42.3119861" lon="2.3651111">
        <ele>941.15002441</ele>
        <time>2021-03-30T10:59:01Z</time>
      </trkpt>
      <trkpt lat="42.3119703" lon="2.3651196">
        <ele>940.84002686</ele>
        <time>2021-03-30T10:59:02Z</time>
      </trkpt>
      <trkpt lat="42.3119607" lon="2.3651173">
        <ele>940.69000244</ele>
        <time>2021-03-30T10:59:03Z</time>
      </trkpt>
      <trkpt lat="42.3119468" lon="2.3651054">
        <ele>940.47998047</ele>
        <time>2021-03-30T10:59:04Z</time>
      </trkpt>
      <trkpt lat="42.3119315" lon="2.3651145">
        <ele>940.03997803</ele>
        <time>2021-03-30T10:59:05Z</time>
      </trkpt>
      <trkpt lat="42.3119093" lon="2.36513">
        <ele>940.01000977</ele>
        <time>2021-03-30T10:59:06Z</time>
      </trkpt>
      <trkpt lat="42.311892" lon="2.3651338">
        <ele>940.08001709</ele>
        <time>2021-03-30T10:59:07Z</time>
      </trkpt>
      <trkpt lat="42.3118742" lon="2.3651331">
        <ele>940.01000977</ele>
        <time>2021-03-30T10:59:08Z</time>
      </trkpt>
      <trkpt lat="42.311866" lon="2.3651282">
        <ele>939.84997559</ele>
        <time>2021-03-30T10:59:09Z</time>
      </trkpt>
      <trkpt lat="42.3118593" lon="2.3651311">
        <ele>939.7199707</ele>
        <time>2021-03-30T10:59:10Z</time>
      </trkpt>
      <trkpt lat="42.311853" lon="2.3651234">
        <ele>939.67999268</ele>
        <time>2021-03-30T10:59:11Z</time>
      </trkpt>
      <trkpt lat="42.3118409" lon="2.3651188">
        <ele>939.54998779</ele>
        <time>2021-03-30T10:59:12Z</time>
      </trkpt>
      <trkpt lat="42.311834" lon="2.3651166">
        <ele>939.40002441</ele>
        <time>2021-03-30T10:59:13Z</time>
      </trkpt>
      <trkpt lat="42.311829" lon="2.3651056">
        <ele>939.30999756</ele>
        <time>2021-03-30T10:59:14Z</time>
      </trkpt>
      <trkpt lat="42.3115426" lon="2.364977">
        <ele>938.0300293</ele>
        <time>2021-03-30T11:04:52Z</time>
      </trkpt>
      <trkpt lat="42.3115423" lon="2.3649814">
        <ele>938.0300293</ele>
        <time>2021-03-30T11:04:53Z</time>
      </trkpt>
      <trkpt lat="42.3115461" lon="2.3649828">
        <ele>938.0300293</ele>
        <time>2021-03-30T11:04:54Z</time>
      </trkpt>
      <trkpt lat="42.3115484" lon="2.364986">
        <ele>938.0300293</ele>
        <time>2021-03-30T11:04:55Z</time>
      </trkpt>
      <trkpt lat="42.3115459" lon="2.3649882">
        <ele>938.0300293</ele>
        <time>2021-03-30T11:04:56Z</time>
      </trkpt>
      <trkpt lat="42.3115266" lon="2.3650111">
        <ele>938.0300293</ele>
        <time>2021-03-30T11:04:57Z</time>
      </trkpt>
      <trkpt lat="42.3115221" lon="2.3650157">
        <ele>938.0300293</ele>
        <time>2021-03-30T11:04:58Z</time>
      </trkpt>
      <trkpt lat="42.3115152" lon="2.3650172">
        <ele>938.0300293</ele>
        <time>2021-03-30T11:04:59Z</time>
      </trkpt>
      <trkpt lat="42.3115174" lon="2.3649406">
        <ele>938.0300293</ele>
        <time>2021-03-30T11:05:01Z</time>
      </trkpt>
      <trkpt lat="42.3115302" lon="2.3648428">
        <ele>938.0300293</ele>
        <time>2021-03-30T11:05:02Z</time>
      </trkpt>
      <trkpt lat="42.3115403" lon="2.3647925">
        <ele>938.0300293</ele>
        <time>2021-03-30T11:05:03Z</time>
      </trkpt>
      <trkpt lat="42.3115211" lon="2.364776">
        <ele>938.0300293</ele>
        <time>2021-03-30T11:05:04Z</time>
      </trkpt>
      <trkpt lat="42.3115048" lon="2.3647571">
        <ele>938.0300293</ele>
        <time>2021-03-30T11:05:05Z</time>
      </trkpt>
      <trkpt lat="42.3114907" lon="2.3647412">
        <ele>938.0300293</ele>
        <time>2021-03-30T11:05:06Z</time>
      </trkpt>
      <trkpt lat="42.3114782" lon="2.3647303">
        <ele>938.0300293</ele>
        <time>2021-03-30T11:05:07Z</time>
      </trkpt>
      <trkpt lat="42.3114617" lon="2.3647185">
        <ele>938.0300293</ele>
        <time>2021-03-30T11:05:08Z</time>
      </trkpt>
      <trkpt lat="42.3114434" lon="2.3646997">
        <ele>938.0300293</ele>
        <time>2021-03-30T11:05:09Z</time>
      </trkpt>
      <trkpt lat="42.3114292" lon="2.364688">
        <ele>938.0300293</ele>
        <time>2021-03-30T11:05:10Z</time>
      </trkpt>
      <trkpt lat="42.3114204" lon="2.3646856">
        <ele>938.0300293</ele>
        <time>2021-03-30T11:05:11Z</time>
      </trkpt>
      <trkpt lat="42.3114057" lon="2.364673">
        <ele>938.0300293</ele>
        <time>2021-03-30T11:05:12Z</time>
      </trkpt>
      <trkpt lat="42.3113877" lon="2.3646542">
        <ele>938.0300293</ele>
        <time>2021-03-30T11:05:13Z</time>
      </trkpt>
      <trkpt lat="42.3113711" lon="2.3646573">
        <ele>938.0300293</ele>
        <time>2021-03-30T11:05:14Z</time>
      </trkpt>
      <trkpt lat="42.3113539" lon="2.364637">
        <ele>938.0300293</ele>
        <time>2021-03-30T11:05:15Z</time>
      </trkpt>
      <trkpt lat="42.311334" lon="2.3646166">
        <ele>938.0300293</ele>
        <time>2021-03-30T11:05:16Z</time>
      </trkpt>
      <trkpt lat="42.3113206" lon="2.3646">
        <ele>938.0300293</ele>
        <time>2021-03-30T11:05:17Z</time>
      </trkpt>
      <trkpt lat="42.3113052" lon="2.364592">
        <ele>938.0300293</ele>
        <time>2021-03-30T11:05:18Z</time>
      </trkpt>
      <trkpt lat="42.3112883" lon="2.3645658">
        <ele>938.0300293</ele>
        <time>2021-03-30T11:05:19Z</time>
      </trkpt>
      <trkpt lat="42.3112578" lon="2.3645429">
        <ele>938.0300293</ele>
        <time>2021-03-30T11:05:20Z</time>
      </trkpt>
      <trkpt lat="42.3112268" lon="2.3645149">
        <ele>938.0300293</ele>
        <time>2021-03-30T11:05:21Z</time>
      </trkpt>
      <trkpt lat="42.3111941" lon="2.3644861">
        <ele>938.0300293</ele>
        <time>2021-03-30T11:05:22Z</time>
      </trkpt>
      <trkpt lat="42.3111624" lon="2.3644603">
        <ele>938.0300293</ele>
        <time>2021-03-30T11:05:23Z</time>
      </trkpt>
      <trkpt lat="42.3111292" lon="2.3644324">
        <ele>938.0300293</ele>
        <time>2021-03-30T11:05:24Z</time>
      </trkpt>
      <trkpt lat="42.311084" lon="2.3644112">
        <ele>938.0300293</ele>
        <time>2021-03-30T11:05:25Z</time>
      </trkpt>
      <trkpt lat="42.3110369" lon="2.3643846">
        <ele>938.0300293</ele>
        <time>2021-03-30T11:05:26Z</time>
      </trkpt>
      <trkpt lat="42.3109943" lon="2.3643514">
        <ele>938.0300293</ele>
        <time>2021-03-30T11:05:27Z</time>
      </trkpt>
      <trkpt lat="42.3109498" lon="2.3643276">
        <ele>938.0300293</ele>
        <time>2021-03-30T11:05:28Z</time>
      </trkpt>
      <trkpt lat="42.3108603" lon="2.364309">
        <ele>938.0300293</ele>
        <time>2021-03-30T11:05:29Z</time>
      </trkpt>
      <trkpt lat="42.3107609" lon="2.3642984">
        <ele>938.0300293</ele>
        <time>2021-03-30T11:05:30Z</time>
      </trkpt>
      <trkpt lat="42.3107153" lon="2.3642901">
        <ele>938.0300293</ele>
        <time>2021-03-30T11:05:31Z</time>
      </trkpt>
      <trkpt lat="42.3107036" lon="2.3641795">
        <ele>938.0300293</ele>
        <time>2021-03-30T11:05:32Z</time>
      </trkpt>
      <trkpt lat="42.3106668" lon="2.3641693">
        <ele>938.0300293</ele>
        <time>2021-03-30T11:05:33Z</time>
      </trkpt>
      <trkpt lat="42.3106268" lon="2.3641493">
        <ele>938.0300293</ele>
        <time>2021-03-30T11:05:34Z</time>
      </trkpt>
      <trkpt lat="42.3105612" lon="2.3640688">
        <ele>938.0300293</ele>
        <time>2021-03-30T11:05:35Z</time>
      </trkpt>
      <trkpt lat="42.3104941" lon="2.3640428">
        <ele>938.0300293</ele>
        <time>2021-03-30T11:05:36Z</time>
      </trkpt>
      <trkpt lat="42.3104419" lon="2.3639949">
        <ele>937.58001709</ele>
        <time>2021-03-30T11:05:37Z</time>
      </trkpt>
      <trkpt lat="42.3103862" lon="2.3639621">
        <ele>937.17999268</ele>
        <time>2021-03-30T11:05:38Z</time>
      </trkpt>
      <trkpt lat="42.310333" lon="2.36393">
        <ele>936.7199707</ele>
        <time>2021-03-30T11:05:39Z</time>
      </trkpt>
      <trkpt lat="42.310278" lon="2.363903">
        <ele>936.54998779</ele>
        <time>2021-03-30T11:05:40Z</time>
      </trkpt>
      <trkpt lat="42.3102172" lon="2.3638704">
        <ele>936.34002686</ele>
        <time>2021-03-30T11:05:41Z</time>
      </trkpt>
      <trkpt lat="42.3101557" lon="2.3638214">
        <ele>935.57000732</ele>
        <time>2021-03-30T11:05:42Z</time>
      </trkpt>
      <trkpt lat="42.3101092" lon="2.3637816">
        <ele>935.02001953</ele>
        <time>2021-03-30T11:05:43Z</time>
      </trkpt>
      <trkpt lat="42.3100748" lon="2.3637469">
        <ele>934.64001465</ele>
        <time>2021-03-30T11:05:44Z</time>
      </trkpt>
      <trkpt lat="42.3100318" lon="2.3637134">
        <ele>934.35998535</ele>
        <time>2021-03-30T11:05:45Z</time>
      </trkpt>
      <trkpt lat="42.3099899" lon="2.3636866">
        <ele>934.15002441</ele>
        <time>2021-03-30T11:05:46Z</time>
      </trkpt>
      <trkpt lat="42.3099445" lon="2.3636695">
        <ele>933.98999023</ele>
        <time>2021-03-30T11:05:47Z</time>
      </trkpt>
      <trkpt lat="42.3099014" lon="2.36364">
        <ele>933.84997559</ele>
        <time>2021-03-30T11:05:48Z</time>
      </trkpt>
      <trkpt lat="42.309862" lon="2.3635814">
        <ele>933.73999023</ele>
        <time>2021-03-30T11:05:49Z</time>
      </trkpt>
      <trkpt lat="42.3098223" lon="2.3635388">
        <ele>933.64001465</ele>
        <time>2021-03-30T11:05:50Z</time>
      </trkpt>
      <trkpt lat="42.3097774" lon="2.3634932">
        <ele>933.55999756</ele>
        <time>2021-03-30T11:05:51Z</time>
      </trkpt>
      <trkpt lat="42.3097315" lon="2.363463">
        <ele>933.48999023</ele>
        <time>2021-03-30T11:05:52Z</time>
      </trkpt>
      <trkpt lat="42.3096972" lon="2.3634299">
        <ele>933.42999268</ele>
        <time>2021-03-30T11:05:53Z</time>
      </trkpt>
      <trkpt lat="42.3096614" lon="2.3633824">
        <ele>933.38000488</ele>
        <time>2021-03-30T11:05:54Z</time>
      </trkpt>
      <trkpt lat="42.3096192" lon="2.3633396">
        <ele>933.34002686</ele>
        <time>2021-03-30T11:05:55Z</time>
      </trkpt>
      <trkpt lat="42.309572" lon="2.3632933">
        <ele>933.29998779</ele>
        <time>2021-03-30T11:05:56Z</time>
      </trkpt>
      <trkpt lat="42.3095244" lon="2.3632469">
        <ele>933.26000977</ele>
        <time>2021-03-30T11:05:57Z</time>
      </trkpt>
      <trkpt lat="42.3094735" lon="2.3632029">
        <ele>933.22998047</ele>
        <time>2021-03-30T11:05:58Z</time>
      </trkpt>
      <trkpt lat="42.3094222" lon="2.3631664">
        <ele>933.20001221</ele>
        <time>2021-03-30T11:05:59Z</time>
      </trkpt>
      <trkpt lat="42.3093849" lon="2.3631244">
        <ele>933.17999268</ele>
        <time>2021-03-30T11:06:00Z</time>
      </trkpt>
      <trkpt lat="42.3093355" lon="2.3630801">
        <ele>933.15002441</ele>
        <time>2021-03-30T11:06:01Z</time>
      </trkpt>
      <trkpt lat="42.3092879" lon="2.3630397">
        <ele>933.13000488</ele>
        <time>2021-03-30T11:06:02Z</time>
      </trkpt>
      <trkpt lat="42.3092394" lon="2.3630088">
        <ele>933.11999512</ele>
        <time>2021-03-30T11:06:03Z</time>
      </trkpt>
      <trkpt lat="42.3091908" lon="2.3629788">
        <ele>933.09997559</ele>
        <time>2021-03-30T11:06:04Z</time>
      </trkpt>
      <trkpt lat="42.309136" lon="2.3629328">
        <ele>933.09002686</ele>
        <time>2021-03-30T11:06:05Z</time>
      </trkpt>
      <trkpt lat="42.3090812" lon="2.362883">
        <ele>933.07000732</ele>
        <time>2021-03-30T11:06:06Z</time>
      </trkpt>
      <trkpt lat="42.3090357" lon="2.3628384">
        <ele>933.05999756</ele>
        <time>2021-03-30T11:06:07Z</time>
      </trkpt>
      <trkpt lat="42.3089853" lon="2.3628018">
        <ele>933.04998779</ele>
        <time>2021-03-30T11:06:08Z</time>
      </trkpt>
      <trkpt lat="42.3089436" lon="2.3627739">
        <ele>933.04998779</ele>
        <time>2021-03-30T11:06:09Z</time>
      </trkpt>
      <trkpt lat="42.3089125" lon="2.3627294">
        <ele>933.03997803</ele>
        <time>2021-03-30T11:06:10Z</time>
      </trkpt>
      <trkpt lat="42.308877" lon="2.3626991">
        <ele>933.0300293</ele>
        <time>2021-03-30T11:06:11Z</time>
      </trkpt>
      <trkpt lat="42.3088407" lon="2.3626668">
        <ele>933.02001953</ele>
        <time>2021-03-30T11:06:12Z</time>
      </trkpt>
      <trkpt lat="42.3088096" lon="2.3626102">
        <ele>933.02001953</ele>
        <time>2021-03-30T11:06:13Z</time>
      </trkpt>
      <trkpt lat="42.3087675" lon="2.3625731">
        <ele>933.01000977</ele>
        <time>2021-03-30T11:06:14Z</time>
      </trkpt>
      <trkpt lat="42.3087325" lon="2.3625286">
        <ele>933.01000977</ele>
        <time>2021-03-30T11:06:15Z</time>
      </trkpt>
      <trkpt lat="42.3086945" lon="2.362497">
        <ele>933.01000977</ele>
        <time>2021-03-30T11:06:16Z</time>
      </trkpt>
      <trkpt lat="42.3086602" lon="2.3624715">
        <ele>933</ele>
        <time>2021-03-30T11:06:17Z</time>
      </trkpt>
      <trkpt lat="42.3086174" lon="2.3624274">
        <ele>933</ele>
        <time>2021-03-30T11:06:18Z</time>
      </trkpt>
      <trkpt lat="42.3085681" lon="2.3623872">
        <ele>933</ele>
        <time>2021-03-30T11:06:19Z</time>
      </trkpt>
      <trkpt lat="42.3085295" lon="2.3623421">
        <ele>932.98999023</ele>
        <time>2021-03-30T11:06:20Z</time>
      </trkpt>
      <trkpt lat="42.3084754" lon="2.362309">
        <ele>932.98999023</ele>
        <time>2021-03-30T11:06:21Z</time>
      </trkpt>
      <trkpt lat="42.3084264" lon="2.3622744">
        <ele>932.98999023</ele>
        <time>2021-03-30T11:06:22Z</time>
      </trkpt>
      <trkpt lat="42.3083824" lon="2.3622359">
        <ele>932.98999023</ele>
        <time>2021-03-30T11:06:23Z</time>
      </trkpt>
      <trkpt lat="42.3083323" lon="2.3621963">
        <ele>932.98999023</ele>
        <time>2021-03-30T11:06:24Z</time>
      </trkpt>
      <trkpt lat="42.3082886" lon="2.3621602">
        <ele>932.97998047</ele>
        <time>2021-03-30T11:06:25Z</time>
      </trkpt>
      <trkpt lat="42.308243" lon="2.3621232">
        <ele>932.97998047</ele>
        <time>2021-03-30T11:06:26Z</time>
      </trkpt>
      <trkpt lat="42.3082094" lon="2.3620745">
        <ele>932.97998047</ele>
        <time>2021-03-30T11:06:27Z</time>
      </trkpt>
      <trkpt lat="42.3081776" lon="2.362054">
        <ele>932.97998047</ele>
        <time>2021-03-30T11:06:28Z</time>
      </trkpt>
      <trkpt lat="42.3081484" lon="2.3620523">
        <ele>932.97998047</ele>
        <time>2021-03-30T11:06:29Z</time>
      </trkpt>
      <trkpt lat="42.3081099" lon="2.3620497">
        <ele>932.97998047</ele>
        <time>2021-03-30T11:06:30Z</time>
      </trkpt>
      <trkpt lat="42.3080696" lon="2.362031">
        <ele>932.97998047</ele>
        <time>2021-03-30T11:06:31Z</time>
      </trkpt>
      <trkpt lat="42.30803" lon="2.3620276">
        <ele>932.97998047</ele>
        <time>2021-03-30T11:06:32Z</time>
      </trkpt>
      <trkpt lat="42.3079963" lon="2.3619953">
        <ele>932.97998047</ele>
        <time>2021-03-30T11:06:33Z</time>
      </trkpt>
      <trkpt lat="42.3079671" lon="2.361945">
        <ele>932.97998047</ele>
        <time>2021-03-30T11:06:34Z</time>
      </trkpt>
      <trkpt lat="42.3079412" lon="2.3618982">
        <ele>932.97998047</ele>
        <time>2021-03-30T11:06:35Z</time>
      </trkpt>
      <trkpt lat="42.3079207" lon="2.3618493">
        <ele>932.97998047</ele>
        <time>2021-03-30T11:06:36Z</time>
      </trkpt>
      <trkpt lat="42.3078887" lon="2.3618063">
        <ele>932.97998047</ele>
        <time>2021-03-30T11:06:37Z</time>
      </trkpt>
      <trkpt lat="42.3078503" lon="2.3617647">
        <ele>932.97998047</ele>
        <time>2021-03-30T11:06:38Z</time>
      </trkpt>
      <trkpt lat="42.3078152" lon="2.3617308">
        <ele>932.97998047</ele>
        <time>2021-03-30T11:06:39Z</time>
      </trkpt>
      <trkpt lat="42.3077832" lon="2.3616973">
        <ele>932.97998047</ele>
        <time>2021-03-30T11:06:40Z</time>
      </trkpt>
      <trkpt lat="42.3077466" lon="2.3616648">
        <ele>932.97998047</ele>
        <time>2021-03-30T11:06:41Z</time>
      </trkpt>
      <trkpt lat="42.3076945" lon="2.3616509">
        <ele>932.9699707</ele>
        <time>2021-03-30T11:06:42Z</time>
      </trkpt>
      <trkpt lat="42.3076469" lon="2.361628">
        <ele>932.94000244</ele>
        <time>2021-03-30T11:06:43Z</time>
      </trkpt>
      <trkpt lat="42.3075993" lon="2.3615964">
        <ele>932.88000488</ele>
        <time>2021-03-30T11:06:44Z</time>
      </trkpt>
      <trkpt lat="42.3075571" lon="2.3615463">
        <ele>932.76000977</ele>
        <time>2021-03-30T11:06:45Z</time>
      </trkpt>
      <trkpt lat="42.3075146" lon="2.3615059">
        <ele>932.54998779</ele>
        <time>2021-03-30T11:06:46Z</time>
      </trkpt>
      <trkpt lat="42.3074617" lon="2.3614608">
        <ele>932.28997803</ele>
        <time>2021-03-30T11:06:47Z</time>
      </trkpt>
      <trkpt lat="42.3074115" lon="2.3614166">
        <ele>931.96002197</ele>
        <time>2021-03-30T11:06:48Z</time>
      </trkpt>
      <trkpt lat="42.3073681" lon="2.3613723">
        <ele>931.57000732</ele>
        <time>2021-03-30T11:06:49Z</time>
      </trkpt>
      <trkpt lat="42.307322" lon="2.3613198">
        <ele>931.17999268</ele>
        <time>2021-03-30T11:06:50Z</time>
      </trkpt>
      <trkpt lat="42.3072783" lon="2.3612661">
        <ele>930.83001709</ele>
        <time>2021-03-30T11:06:51Z</time>
      </trkpt>
      <trkpt lat="42.3072383" lon="2.3612097">
        <ele>930.52001953</ele>
        <time>2021-03-30T11:06:52Z</time>
      </trkpt>
      <trkpt lat="42.3072006" lon="2.3611544">
        <ele>930.23999023</ele>
        <time>2021-03-30T11:06:53Z</time>
      </trkpt>
      <trkpt lat="42.3071577" lon="2.3611012">
        <ele>929.98999023</ele>
        <time>2021-03-30T11:06:54Z</time>
      </trkpt>
      <trkpt lat="42.3071072" lon="2.3610669">
        <ele>929.76000977</ele>
        <time>2021-03-30T11:06:55Z</time>
      </trkpt>
      <trkpt lat="42.3070625" lon="2.361044">
        <ele>929.57000732</ele>
        <time>2021-03-30T11:06:56Z</time>
      </trkpt>
      <trkpt lat="42.3070064" lon="2.3610483">
        <ele>929.39001465</ele>
        <time>2021-03-30T11:06:57Z</time>
      </trkpt>
      <trkpt lat="42.3069533" lon="2.3610339">
        <ele>929.22998047</ele>
        <time>2021-03-30T11:06:58Z</time>
      </trkpt>
      <trkpt lat="42.3068994" lon="2.3610105">
        <ele>929.09002686</ele>
        <time>2021-03-30T11:06:59Z</time>
      </trkpt>
      <trkpt lat="42.3068467" lon="2.3609756">
        <ele>928.96002197</ele>
        <time>2021-03-30T11:07:00Z</time>
      </trkpt>
      <trkpt lat="42.3067949" lon="2.3609464">
        <ele>928.84997559</ele>
        <time>2021-03-30T11:07:01Z</time>
      </trkpt>
      <trkpt lat="42.3067495" lon="2.3609152">
        <ele>928.75</ele>
        <time>2021-03-30T11:07:02Z</time>
      </trkpt>
      <trkpt lat="42.3067024" lon="2.3608823">
        <ele>928.65997314</ele>
        <time>2021-03-30T11:07:03Z</time>
      </trkpt>
      <trkpt lat="42.3066565" lon="2.3608416">
        <ele>928.58001709</ele>
        <time>2021-03-30T11:07:04Z</time>
      </trkpt>
      <trkpt lat="42.30661" lon="2.3608176">
        <ele>928.51000977</ele>
        <time>2021-03-30T11:07:05Z</time>
      </trkpt>
      <trkpt lat="42.3065659" lon="2.3607789">
        <ele>928.45001221</ele>
        <time>2021-03-30T11:07:06Z</time>
      </trkpt>
      <trkpt lat="42.3065217" lon="2.360735">
        <ele>928.39001465</ele>
        <time>2021-03-30T11:07:07Z</time>
      </trkpt>
      <trkpt lat="42.3064775" lon="2.3606979">
        <ele>928.34002686</ele>
        <time>2021-03-30T11:07:08Z</time>
      </trkpt>
      <trkpt lat="42.3064328" lon="2.3606571">
        <ele>928.28997803</ele>
        <time>2021-03-30T11:07:09Z</time>
      </trkpt>
      <trkpt lat="42.3063864" lon="2.3606122">
        <ele>928.25</ele>
        <time>2021-03-30T11:07:10Z</time>
      </trkpt>
      <trkpt lat="42.3063426" lon="2.360571">
        <ele>928.2199707</ele>
        <time>2021-03-30T11:07:11Z</time>
      </trkpt>
      <trkpt lat="42.306298" lon="2.3605347">
        <ele>928.19000244</ele>
        <time>2021-03-30T11:07:12Z</time>
      </trkpt>
      <trkpt lat="42.3062567" lon="2.3604979">
        <ele>928.15002441</ele>
        <time>2021-03-30T11:07:13Z</time>
      </trkpt>
      <trkpt lat="42.3062151" lon="2.3604569">
        <ele>928.07000732</ele>
        <time>2021-03-30T11:07:14Z</time>
      </trkpt>
      <trkpt lat="42.3061706" lon="2.3604187">
        <ele>927.94000244</ele>
        <time>2021-03-30T11:07:15Z</time>
      </trkpt>
      <trkpt lat="42.3061234" lon="2.360385">
        <ele>927.73999023</ele>
        <time>2021-03-30T11:07:16Z</time>
      </trkpt>
      <trkpt lat="42.3060751" lon="2.3603468">
        <ele>927.45001221</ele>
        <time>2021-03-30T11:07:17Z</time>
      </trkpt>
      <trkpt lat="42.306031" lon="2.3603046">
        <ele>927.09997559</ele>
        <time>2021-03-30T11:07:18Z</time>
      </trkpt>
      <trkpt lat="42.3059851" lon="2.3602569">
        <ele>926.71002197</ele>
        <time>2021-03-30T11:07:19Z</time>
      </trkpt>
      <trkpt lat="42.305938" lon="2.3602093">
        <ele>926.29998779</ele>
        <time>2021-03-30T11:07:20Z</time>
      </trkpt>
      <trkpt lat="42.3058833" lon="2.3601706">
        <ele>925.92999268</ele>
        <time>2021-03-30T11:07:21Z</time>
      </trkpt>
      <trkpt lat="42.3058334" lon="2.3601354">
        <ele>925.59997559</ele>
        <time>2021-03-30T11:07:22Z</time>
      </trkpt>
      <trkpt lat="42.3057845" lon="2.3600858">
        <ele>925.30999756</ele>
        <time>2021-03-30T11:07:23Z</time>
      </trkpt>
      <trkpt lat="42.305734" lon="2.3600492">
        <ele>925.15997314</ele>
        <time>2021-03-30T11:07:24Z</time>
      </trkpt>
      <trkpt lat="42.3056835" lon="2.3600138">
        <ele>925.13000488</ele>
        <time>2021-03-30T11:07:25Z</time>
      </trkpt>
      <trkpt lat="42.3056379" lon="2.3599728">
        <ele>925.17999268</ele>
        <time>2021-03-30T11:07:26Z</time>
      </trkpt>
      <trkpt lat="42.305593" lon="2.3599479">
        <ele>925.2800293</ele>
        <time>2021-03-30T11:07:27Z</time>
      </trkpt>
      <trkpt lat="42.3055469" lon="2.3599201">
        <ele>925.39001465</ele>
        <time>2021-03-30T11:07:28Z</time>
      </trkpt>
      <trkpt lat="42.3055038" lon="2.359882">
        <ele>925.5300293</ele>
        <time>2021-03-30T11:07:29Z</time>
      </trkpt>
      <trkpt lat="42.3054586" lon="2.3598561">
        <ele>925.71002197</ele>
        <time>2021-03-30T11:07:30Z</time>
      </trkpt>
      <trkpt lat="42.3054154" lon="2.3598236">
        <ele>925.94000244</ele>
        <time>2021-03-30T11:07:31Z</time>
      </trkpt>
      <trkpt lat="42.3053746" lon="2.359791">
        <ele>926.17999268</ele>
        <time>2021-03-30T11:07:32Z</time>
      </trkpt>
      <trkpt lat="42.3053343" lon="2.3597602">
        <ele>926.40002441</ele>
        <time>2021-03-30T11:07:33Z</time>
      </trkpt>
      <trkpt lat="42.3052919" lon="2.3597191">
        <ele>926.59002686</ele>
        <time>2021-03-30T11:07:34Z</time>
      </trkpt>
      <trkpt lat="42.3052415" lon="2.3596768">
        <ele>926.70001221</ele>
        <time>2021-03-30T11:07:35Z</time>
      </trkpt>
      <trkpt lat="42.3051835" lon="2.3596418">
        <ele>926.80999756</ele>
        <time>2021-03-30T11:07:36Z</time>
      </trkpt>
      <trkpt lat="42.3051307" lon="2.3596078">
        <ele>926.90002441</ele>
        <time>2021-03-30T11:07:37Z</time>
      </trkpt>
      <trkpt lat="42.305085" lon="2.3595859">
        <ele>926.96002197</ele>
        <time>2021-03-30T11:07:38Z</time>
      </trkpt>
      <trkpt lat="42.3050428" lon="2.3595606">
        <ele>926.98999023</ele>
        <time>2021-03-30T11:07:39Z</time>
      </trkpt>
      <trkpt lat="42.3049932" lon="2.359536">
        <ele>926.9699707</ele>
        <time>2021-03-30T11:07:40Z</time>
      </trkpt>
      <trkpt lat="42.3049574" lon="2.3595037">
        <ele>926.89001465</ele>
        <time>2021-03-30T11:07:41Z</time>
      </trkpt>
      <trkpt lat="42.3049204" lon="2.3594796">
        <ele>926.71002197</ele>
        <time>2021-03-30T11:07:42Z</time>
      </trkpt>
      <trkpt lat="42.304879" lon="2.3594451">
        <ele>926.44000244</ele>
        <time>2021-03-30T11:07:43Z</time>
      </trkpt>
      <trkpt lat="42.3048319" lon="2.3594248">
        <ele>926.34002686</ele>
        <time>2021-03-30T11:07:44Z</time>
      </trkpt>
      <trkpt lat="42.3047953" lon="2.3594078">
        <ele>925.9699707</ele>
        <time>2021-03-30T11:07:45Z</time>
      </trkpt>
      <trkpt lat="42.304772" lon="2.3593879">
        <ele>925.61999512</ele>
        <time>2021-03-30T11:07:46Z</time>
      </trkpt>
      <trkpt lat="42.3047478" lon="2.3593669">
        <ele>925.30999756</ele>
        <time>2021-03-30T11:07:47Z</time>
      </trkpt>
      <trkpt lat="42.3047231" lon="2.3593512">
        <ele>925.03997803</ele>
        <time>2021-03-30T11:07:48Z</time>
      </trkpt>
      <trkpt lat="42.3046919" lon="2.3593542">
        <ele>924.79998779</ele>
        <time>2021-03-30T11:07:49Z</time>
      </trkpt>
      <trkpt lat="42.3046722" lon="2.3593454">
        <ele>924.61999512</ele>
        <time>2021-03-30T11:07:50Z</time>
      </trkpt>
      <trkpt lat="42.3046521" lon="2.3593434">
        <ele>924.48999023</ele>
        <time>2021-03-30T11:07:51Z</time>
      </trkpt>
      <trkpt lat="42.3046349" lon="2.3593544">
        <ele>924.40002441</ele>
        <time>2021-03-30T11:07:52Z</time>
      </trkpt>
      <trkpt lat="42.304618" lon="2.3593623">
        <ele>924.34002686</ele>
        <time>2021-03-30T11:07:53Z</time>
      </trkpt>
      <trkpt lat="42.304586" lon="2.3593829">
        <ele>924.33001709</ele>
        <time>2021-03-30T11:07:54Z</time>
      </trkpt>
      <trkpt lat="42.3045494" lon="2.3594108">
        <ele>924.36999512</ele>
        <time>2021-03-30T11:07:55Z</time>
      </trkpt>
      <trkpt lat="42.3045093" lon="2.3594325">
        <ele>924.5</ele>
        <time>2021-03-30T11:07:56Z</time>
      </trkpt>
      <trkpt lat="42.304476" lon="2.3594574">
        <ele>924.71002197</ele>
        <time>2021-03-30T11:07:57Z</time>
      </trkpt>
      <trkpt lat="42.3044396" lon="2.3594844">
        <ele>925.01000977</ele>
        <time>2021-03-30T11:07:58Z</time>
      </trkpt>
      <trkpt lat="42.3044019" lon="2.3594855">
        <ele>925.39001465</ele>
        <time>2021-03-30T11:07:59Z</time>
      </trkpt>
      <trkpt lat="42.3043651" lon="2.3594743">
        <ele>925.72998047</ele>
        <time>2021-03-30T11:08:00Z</time>
      </trkpt>
      <trkpt lat="42.304329" lon="2.3594638">
        <ele>926.01000977</ele>
        <time>2021-03-30T11:08:01Z</time>
      </trkpt>
      <trkpt lat="42.3042922" lon="2.3594578">
        <ele>926.23999023</ele>
        <time>2021-03-30T11:08:02Z</time>
      </trkpt>
      <trkpt lat="42.304255" lon="2.359442">
        <ele>926.44000244</ele>
        <time>2021-03-30T11:08:03Z</time>
      </trkpt>
      <trkpt lat="42.3042119" lon="2.3594284">
        <ele>926.59997559</ele>
        <time>2021-03-30T11:08:04Z</time>
      </trkpt>
      <trkpt lat="42.3041674" lon="2.3594232">
        <ele>926.73999023</ele>
        <time>2021-03-30T11:08:05Z</time>
      </trkpt>
      <trkpt lat="42.3041202" lon="2.3594115">
        <ele>926.85998535</ele>
        <time>2021-03-30T11:08:06Z</time>
      </trkpt>
      <trkpt lat="42.3040725" lon="2.3593979">
        <ele>926.97998047</ele>
        <time>2021-03-30T11:08:07Z</time>
      </trkpt>
      <trkpt lat="42.304018" lon="2.3593756">
        <ele>927.08001709</ele>
        <time>2021-03-30T11:08:08Z</time>
      </trkpt>
      <trkpt lat="42.3039597" lon="2.3593668">
        <ele>927.16998291</ele>
        <time>2021-03-30T11:08:09Z</time>
      </trkpt>
      <trkpt lat="42.3039071" lon="2.3593527">
        <ele>927.25</ele>
        <time>2021-03-30T11:08:10Z</time>
      </trkpt>
      <trkpt lat="42.3038569" lon="2.3593428">
        <ele>927.32000732</ele>
        <time>2021-03-30T11:08:11Z</time>
      </trkpt>
      <trkpt lat="42.303799" lon="2.3593248">
        <ele>927.39001465</ele>
        <time>2021-03-30T11:08:12Z</time>
      </trkpt>
      <trkpt lat="42.3037427" lon="2.3593052">
        <ele>927.44000244</ele>
        <time>2021-03-30T11:08:13Z</time>
      </trkpt>
      <trkpt lat="42.3036809" lon="2.3592784">
        <ele>927.5</ele>
        <time>2021-03-30T11:08:14Z</time>
      </trkpt>
      <trkpt lat="42.3036195" lon="2.359253">
        <ele>927.53997803</ele>
        <time>2021-03-30T11:08:15Z</time>
      </trkpt>
      <trkpt lat="42.3035607" lon="2.359234">
        <ele>927.58001709</ele>
        <time>2021-03-30T11:08:16Z</time>
      </trkpt>
      <trkpt lat="42.3035073" lon="2.3592292">
        <ele>927.61999512</ele>
        <time>2021-03-30T11:08:17Z</time>
      </trkpt>
      <trkpt lat="42.3034546" lon="2.3592268">
        <ele>927.65002441</ele>
        <time>2021-03-30T11:08:18Z</time>
      </trkpt>
      <trkpt lat="42.303408" lon="2.3592162">
        <ele>927.67999268</ele>
        <time>2021-03-30T11:08:19Z</time>
      </trkpt>
      <trkpt lat="42.3033613" lon="2.3592042">
        <ele>927.71002197</ele>
        <time>2021-03-30T11:08:20Z</time>
      </trkpt>
      <trkpt lat="42.3033125" lon="2.3592036">
        <ele>927.72998047</ele>
        <time>2021-03-30T11:08:21Z</time>
      </trkpt>
      <trkpt lat="42.3032531" lon="2.3592062">
        <ele>927.75</ele>
        <time>2021-03-30T11:08:22Z</time>
      </trkpt>
      <trkpt lat="42.303197" lon="2.3591858">
        <ele>927.77001953</ele>
        <time>2021-03-30T11:08:23Z</time>
      </trkpt>
      <trkpt lat="42.3031388" lon="2.359171">
        <ele>927.7800293</ele>
        <time>2021-03-30T11:08:24Z</time>
      </trkpt>
      <trkpt lat="42.3030826" lon="2.3591636">
        <ele>927.79998779</ele>
        <time>2021-03-30T11:08:25Z</time>
      </trkpt>
      <trkpt lat="42.3030346" lon="2.3591565">
        <ele>927.80999756</ele>
        <time>2021-03-30T11:08:26Z</time>
      </trkpt>
      <trkpt lat="42.3029851" lon="2.3591371">
        <ele>927.79998779</ele>
        <time>2021-03-30T11:08:27Z</time>
      </trkpt>
      <trkpt lat="42.3029393" lon="2.3591196">
        <ele>927.76000977</ele>
        <time>2021-03-30T11:08:28Z</time>
      </trkpt>
      <trkpt lat="42.3028957" lon="2.3591019">
        <ele>927.69000244</ele>
        <time>2021-03-30T11:08:29Z</time>
      </trkpt>
      <trkpt lat="42.3028486" lon="2.3590853">
        <ele>927.59002686</ele>
        <time>2021-03-30T11:08:30Z</time>
      </trkpt>
      <trkpt lat="42.3028003" lon="2.3590774">
        <ele>927.4699707</ele>
        <time>2021-03-30T11:08:31Z</time>
      </trkpt>
      <trkpt lat="42.3027544" lon="2.3590613">
        <ele>927.34997559</ele>
        <time>2021-03-30T11:08:32Z</time>
      </trkpt>
      <trkpt lat="42.3027195" lon="2.3590402">
        <ele>927.21002197</ele>
        <time>2021-03-30T11:08:33Z</time>
      </trkpt>
      <trkpt lat="42.3026839" lon="2.3590205">
        <ele>927.03997803</ele>
        <time>2021-03-30T11:08:34Z</time>
      </trkpt>
      <trkpt lat="42.3026453" lon="2.3590106">
        <ele>926.84997559</ele>
        <time>2021-03-30T11:08:35Z</time>
      </trkpt>
      <trkpt lat="42.3026063" lon="2.3589981">
        <ele>926.65997314</ele>
        <time>2021-03-30T11:08:36Z</time>
      </trkpt>
      <trkpt lat="42.3025685" lon="2.3589809">
        <ele>926.4699707</ele>
        <time>2021-03-30T11:08:37Z</time>
      </trkpt>
      <trkpt lat="42.3025306" lon="2.3589696">
        <ele>926.27001953</ele>
        <time>2021-03-30T11:08:38Z</time>
      </trkpt>
      <trkpt lat="42.3024964" lon="2.3589505">
        <ele>926.05999756</ele>
        <time>2021-03-30T11:08:39Z</time>
      </trkpt>
      <trkpt lat="42.3024566" lon="2.3589279">
        <ele>925.84002686</ele>
        <time>2021-03-30T11:08:40Z</time>
      </trkpt>
      <trkpt lat="42.302415" lon="2.358908">
        <ele>925.59997559</ele>
        <time>2021-03-30T11:08:41Z</time>
      </trkpt>
      <trkpt lat="42.3023708" lon="2.3588993">
        <ele>925.34997559</ele>
        <time>2021-03-30T11:08:42Z</time>
      </trkpt>
      <trkpt lat="42.3023265" lon="2.3588807">
        <ele>925.10998535</ele>
        <time>2021-03-30T11:08:43Z</time>
      </trkpt>
      <trkpt lat="42.3022774" lon="2.3588659">
        <ele>924.86999512</ele>
        <time>2021-03-30T11:08:44Z</time>
      </trkpt>
      <trkpt lat="42.3022377" lon="2.3588462">
        <ele>924.65002441</ele>
        <time>2021-03-30T11:08:45Z</time>
      </trkpt>
      <trkpt lat="42.3021911" lon="2.358842">
        <ele>924.46002197</ele>
        <time>2021-03-30T11:08:46Z</time>
      </trkpt>
      <trkpt lat="42.3021585" lon="2.3588283">
        <ele>924.34002686</ele>
        <time>2021-03-30T11:08:47Z</time>
      </trkpt>
      <trkpt lat="42.3021233" lon="2.3588178">
        <ele>924.29998779</ele>
        <time>2021-03-30T11:08:48Z</time>
      </trkpt>
      <trkpt lat="42.3020927" lon="2.3588096">
        <ele>924.33001709</ele>
        <time>2021-03-30T11:08:49Z</time>
      </trkpt>
      <trkpt lat="42.3020551" lon="2.3588043">
        <ele>924.41998291</ele>
        <time>2021-03-30T11:08:50Z</time>
      </trkpt>
      <trkpt lat="42.3020237" lon="2.35878">
        <ele>924.58001709</ele>
        <time>2021-03-30T11:08:51Z</time>
      </trkpt>
      <trkpt lat="42.3019986" lon="2.3587586">
        <ele>924.77001953</ele>
        <time>2021-03-30T11:08:52Z</time>
      </trkpt>
      <trkpt lat="42.3019828" lon="2.3587426">
        <ele>925</ele>
        <time>2021-03-30T11:08:53Z</time>
      </trkpt>
      <trkpt lat="42.3019626" lon="2.3587185">
        <ele>925.23999023</ele>
        <time>2021-03-30T11:08:54Z</time>
      </trkpt>
      <trkpt lat="42.3019446" lon="2.3586936">
        <ele>925.48999023</ele>
        <time>2021-03-30T11:08:55Z</time>
      </trkpt>
      <trkpt lat="42.3019324" lon="2.3586745">
        <ele>925.73999023</ele>
        <time>2021-03-30T11:08:56Z</time>
      </trkpt>
      <trkpt lat="42.3019148" lon="2.3586419">
        <ele>926</ele>
        <time>2021-03-30T11:08:57Z</time>
      </trkpt>
      <trkpt lat="42.301895" lon="2.3586137">
        <ele>926.27001953</ele>
        <time>2021-03-30T11:08:58Z</time>
      </trkpt>
      <trkpt lat="42.301878" lon="2.3585806">
        <ele>926.53997803</ele>
        <time>2021-03-30T11:08:59Z</time>
      </trkpt>
      <trkpt lat="42.3018642" lon="2.3585558">
        <ele>926.76000977</ele>
        <time>2021-03-30T11:09:00Z</time>
      </trkpt>
      <trkpt lat="42.301852" lon="2.3585376">
        <ele>926.94000244</ele>
        <time>2021-03-30T11:09:01Z</time>
      </trkpt>
      <trkpt lat="42.3018464" lon="2.3585134">
        <ele>927.08001709</ele>
        <time>2021-03-30T11:09:02Z</time>
      </trkpt>
      <trkpt lat="42.3018358" lon="2.358491">
        <ele>927.17999268</ele>
        <time>2021-03-30T11:09:03Z</time>
      </trkpt>
      <trkpt lat="42.301821" lon="2.3584683">
        <ele>927.23999023</ele>
        <time>2021-03-30T11:09:04Z</time>
      </trkpt>
      <trkpt lat="42.3018122" lon="2.3584408">
        <ele>927.2800293</ele>
        <time>2021-03-30T11:09:05Z</time>
      </trkpt>
      <trkpt lat="42.3017951" lon="2.3584115">
        <ele>927.27001953</ele>
        <time>2021-03-30T11:09:06Z</time>
      </trkpt>
      <trkpt lat="42.3017772" lon="2.3583816">
        <ele>927.25</ele>
        <time>2021-03-30T11:09:07Z</time>
      </trkpt>
      <trkpt lat="42.3017576" lon="2.3583419">
        <ele>927.20001221</ele>
        <time>2021-03-30T11:09:08Z</time>
      </trkpt>
      <trkpt lat="42.3017329" lon="2.3582979">
        <ele>927.11999512</ele>
        <time>2021-03-30T11:09:09Z</time>
      </trkpt>
      <trkpt lat="42.3017072" lon="2.3582469">
        <ele>927.0300293</ele>
        <time>2021-03-30T11:09:10Z</time>
      </trkpt>
      <trkpt lat="42.301677" lon="2.3582062">
        <ele>926.90002441</ele>
        <time>2021-03-30T11:09:11Z</time>
      </trkpt>
      <trkpt lat="42.3016443" lon="2.3581606">
        <ele>926.76000977</ele>
        <time>2021-03-30T11:09:12Z</time>
      </trkpt>
      <trkpt lat="42.3016215" lon="2.3581221">
        <ele>926.59002686</ele>
        <time>2021-03-30T11:09:13Z</time>
      </trkpt>
      <trkpt lat="42.3015899" lon="2.358089">
        <ele>926.40997314</ele>
        <time>2021-03-30T11:09:14Z</time>
      </trkpt>
      <trkpt lat="42.3015525" lon="2.3580492">
        <ele>926.25</ele>
        <time>2021-03-30T11:09:15Z</time>
      </trkpt>
      <trkpt lat="42.3015076" lon="2.3580245">
        <ele>926.09002686</ele>
        <time>2021-03-30T11:09:16Z</time>
      </trkpt>
      <trkpt lat="42.3014556" lon="2.3580001">
        <ele>925.96002197</ele>
        <time>2021-03-30T11:09:17Z</time>
      </trkpt>
      <trkpt lat="42.3014138" lon="2.3579786">
        <ele>925.84997559</ele>
        <time>2021-03-30T11:09:18Z</time>
      </trkpt>
      <trkpt lat="42.3013768" lon="2.3579475">
        <ele>925.73999023</ele>
        <time>2021-03-30T11:09:19Z</time>
      </trkpt>
      <trkpt lat="42.3013398" lon="2.3579309">
        <ele>925.55999756</ele>
        <time>2021-03-30T11:09:20Z</time>
      </trkpt>
      <trkpt lat="42.301304" lon="2.3579028">
        <ele>925.33001709</ele>
        <time>2021-03-30T11:09:21Z</time>
      </trkpt>
      <trkpt lat="42.3012679" lon="2.3578907">
        <ele>925.02001953</ele>
        <time>2021-03-30T11:09:22Z</time>
      </trkpt>
      <trkpt lat="42.301231" lon="2.3578699">
        <ele>924.70001221</ele>
        <time>2021-03-30T11:09:23Z</time>
      </trkpt>
      <trkpt lat="42.3011905" lon="2.3578567">
        <ele>924.32000732</ele>
        <time>2021-03-30T11:09:24Z</time>
      </trkpt>
      <trkpt lat="42.3011385" lon="2.3578492">
        <ele>923.94000244</ele>
        <time>2021-03-30T11:09:25Z</time>
      </trkpt>
      <trkpt lat="42.3010877" lon="2.3578518">
        <ele>923.55999756</ele>
        <time>2021-03-30T11:09:26Z</time>
      </trkpt>
      <trkpt lat="42.3010262" lon="2.3578554">
        <ele>923.19000244</ele>
        <time>2021-03-30T11:09:27Z</time>
      </trkpt>
      <trkpt lat="42.3009501" lon="2.357879">
        <ele>922.76000977</ele>
        <time>2021-03-30T11:09:28Z</time>
      </trkpt>
      <trkpt lat="42.3008784" lon="2.3579122">
        <ele>922.32000732</ele>
        <time>2021-03-30T11:09:29Z</time>
      </trkpt>
      <trkpt lat="42.3008089" lon="2.3579437">
        <ele>921.90997314</ele>
        <time>2021-03-30T11:09:30Z</time>
      </trkpt>
      <trkpt lat="42.3007377" lon="2.3579896">
        <ele>921.53997803</ele>
        <time>2021-03-30T11:09:31Z</time>
      </trkpt>
      <trkpt lat="42.3006818" lon="2.3580442">
        <ele>921.2800293</ele>
        <time>2021-03-30T11:09:32Z</time>
      </trkpt>
      <trkpt lat="42.3006272" lon="2.3580964">
        <ele>921.10998535</ele>
        <time>2021-03-30T11:09:33Z</time>
      </trkpt>
      <trkpt lat="42.3005713" lon="2.3581616">
        <ele>920.91998291</ele>
        <time>2021-03-30T11:09:34Z</time>
      </trkpt>
      <trkpt lat="42.3005301" lon="2.3581985">
        <ele>920.64001465</ele>
        <time>2021-03-30T11:09:35Z</time>
      </trkpt>
      <trkpt lat="42.300489" lon="2.3582416">
        <ele>920.32000732</ele>
        <time>2021-03-30T11:09:36Z</time>
      </trkpt>
      <trkpt lat="42.3004539" lon="2.3582885">
        <ele>920.01000977</ele>
        <time>2021-03-30T11:09:37Z</time>
      </trkpt>
      <trkpt lat="42.3004102" lon="2.3583354">
        <ele>919.73999023</ele>
        <time>2021-03-30T11:09:38Z</time>
      </trkpt>
      <trkpt lat="42.3003673" lon="2.3583935">
        <ele>919.5300293</ele>
        <time>2021-03-30T11:09:39Z</time>
      </trkpt>
      <trkpt lat="42.3003147" lon="2.3584463">
        <ele>919.38000488</ele>
        <time>2021-03-30T11:09:40Z</time>
      </trkpt>
      <trkpt lat="42.3002594" lon="2.358504">
        <ele>919.23999023</ele>
        <time>2021-03-30T11:09:41Z</time>
      </trkpt>
      <trkpt lat="42.3002032" lon="2.3585595">
        <ele>919.08001709</ele>
        <time>2021-03-30T11:09:42Z</time>
      </trkpt>
      <trkpt lat="42.3001386" lon="2.3586097">
        <ele>918.91998291</ele>
        <time>2021-03-30T11:09:43Z</time>
      </trkpt>
      <trkpt lat="42.3000745" lon="2.3586603">
        <ele>918.79998779</ele>
        <time>2021-03-30T11:09:44Z</time>
      </trkpt>
      <trkpt lat="42.300003" lon="2.3587061">
        <ele>918.69000244</ele>
        <time>2021-03-30T11:09:45Z</time>
      </trkpt>
      <trkpt lat="42.2999515" lon="2.3587489">
        <ele>918.59997559</ele>
        <time>2021-03-30T11:09:46Z</time>
      </trkpt>
      <trkpt lat="42.2999113" lon="2.3587824">
        <ele>918.42999268</ele>
        <time>2021-03-30T11:09:47Z</time>
      </trkpt>
      <trkpt lat="42.2998644" lon="2.3588058">
        <ele>918.20001221</ele>
        <time>2021-03-30T11:09:48Z</time>
      </trkpt>
      <trkpt lat="42.299817" lon="2.3588397">
        <ele>917.90002441</ele>
        <time>2021-03-30T11:09:49Z</time>
      </trkpt>
      <trkpt lat="42.2997726" lon="2.3588681">
        <ele>917.53997803</ele>
        <time>2021-03-30T11:09:50Z</time>
      </trkpt>
      <trkpt lat="42.2997206" lon="2.3589097">
        <ele>917.14001465</ele>
        <time>2021-03-30T11:09:51Z</time>
      </trkpt>
      <trkpt lat="42.2996674" lon="2.3589431">
        <ele>916.71002197</ele>
        <time>2021-03-30T11:09:52Z</time>
      </trkpt>
      <trkpt lat="42.2996051" lon="2.3589988">
        <ele>916.36999512</ele>
        <time>2021-03-30T11:09:53Z</time>
      </trkpt>
      <trkpt lat="42.299552" lon="2.3590552">
        <ele>916.09997559</ele>
        <time>2021-03-30T11:09:54Z</time>
      </trkpt>
      <trkpt lat="42.2995054" lon="2.3591017">
        <ele>915.86999512</ele>
        <time>2021-03-30T11:09:55Z</time>
      </trkpt>
      <trkpt lat="42.2994409" lon="2.3591611">
        <ele>915.63000488</ele>
        <time>2021-03-30T11:09:56Z</time>
      </trkpt>
      <trkpt lat="42.2993906" lon="2.3592039">
        <ele>915.33001709</ele>
        <time>2021-03-30T11:09:57Z</time>
      </trkpt>
      <trkpt lat="42.2993402" lon="2.3592444">
        <ele>915.10998535</ele>
        <time>2021-03-30T11:09:58Z</time>
      </trkpt>
      <trkpt lat="42.299291" lon="2.3592886">
        <ele>914.95001221</ele>
        <time>2021-03-30T11:09:59Z</time>
      </trkpt>
      <trkpt lat="42.2992377" lon="2.3593267">
        <ele>914.82000732</ele>
        <time>2021-03-30T11:10:00Z</time>
      </trkpt>
      <trkpt lat="42.2991729" lon="2.3593655">
        <ele>914.67999268</ele>
        <time>2021-03-30T11:10:01Z</time>
      </trkpt>
      <trkpt lat="42.29912" lon="2.3594071">
        <ele>914.48999023</ele>
        <time>2021-03-30T11:10:02Z</time>
      </trkpt>
      <trkpt lat="42.2990603" lon="2.3594376">
        <ele>914.2199707</ele>
        <time>2021-03-30T11:10:03Z</time>
      </trkpt>
      <trkpt lat="42.2989954" lon="2.3594677">
        <ele>913.86999512</ele>
        <time>2021-03-30T11:10:04Z</time>
      </trkpt>
      <trkpt lat="42.298939" lon="2.3595019">
        <ele>913.4699707</ele>
        <time>2021-03-30T11:10:05Z</time>
      </trkpt>
      <trkpt lat="42.2988908" lon="2.3595371">
        <ele>913.07000732</ele>
        <time>2021-03-30T11:10:06Z</time>
      </trkpt>
      <trkpt lat="42.2988327" lon="2.3595691">
        <ele>912.67999268</ele>
        <time>2021-03-30T11:10:07Z</time>
      </trkpt>
      <trkpt lat="42.2987808" lon="2.3595945">
        <ele>912.34002686</ele>
        <time>2021-03-30T11:10:08Z</time>
      </trkpt>
      <trkpt lat="42.2987266" lon="2.3596253">
        <ele>912.02001953</ele>
        <time>2021-03-30T11:10:09Z</time>
      </trkpt>
      <trkpt lat="42.2986822" lon="2.359652">
        <ele>911.71002197</ele>
        <time>2021-03-30T11:10:10Z</time>
      </trkpt>
      <trkpt lat="42.2986392" lon="2.3596796">
        <ele>911.38000488</ele>
        <time>2021-03-30T11:10:11Z</time>
      </trkpt>
      <trkpt lat="42.2986007" lon="2.359703">
        <ele>911.03997803</ele>
        <time>2021-03-30T11:10:12Z</time>
      </trkpt>
      <trkpt lat="42.2985565" lon="2.3597435">
        <ele>910.69000244</ele>
        <time>2021-03-30T11:10:13Z</time>
      </trkpt>
      <trkpt lat="42.2985145" lon="2.359771">
        <ele>910.40002441</ele>
        <time>2021-03-30T11:10:14Z</time>
      </trkpt>
      <trkpt lat="42.2984557" lon="2.3598056">
        <ele>910.16998291</ele>
        <time>2021-03-30T11:10:15Z</time>
      </trkpt>
      <trkpt lat="42.2984147" lon="2.3598248">
        <ele>909.9699707</ele>
        <time>2021-03-30T11:10:16Z</time>
      </trkpt>
      <trkpt lat="42.2983864" lon="2.3598456">
        <ele>909.78997803</ele>
        <time>2021-03-30T11:10:17Z</time>
      </trkpt>
      <trkpt lat="42.2983565" lon="2.3598779">
        <ele>909.60998535</ele>
        <time>2021-03-30T11:10:18Z</time>
      </trkpt>
      <trkpt lat="42.2983217" lon="2.3599305">
        <ele>909.44000244</ele>
        <time>2021-03-30T11:10:19Z</time>
      </trkpt>
      <trkpt lat="42.2982949" lon="2.3599852">
        <ele>909.30999756</ele>
        <time>2021-03-30T11:10:20Z</time>
      </trkpt>
      <trkpt lat="42.2982755" lon="2.360028">
        <ele>909.09002686</ele>
        <time>2021-03-30T11:10:21Z</time>
      </trkpt>
      <trkpt lat="42.2982522" lon="2.3600733">
        <ele>909</ele>
        <time>2021-03-30T11:10:22Z</time>
      </trkpt>
      <trkpt lat="42.2982255" lon="2.3600931">
        <ele>909</ele>
        <time>2021-03-30T11:10:23Z</time>
      </trkpt>
      <trkpt lat="42.2981978" lon="2.3601026">
        <ele>909.05999756</ele>
        <time>2021-03-30T11:10:24Z</time>
      </trkpt>
      <trkpt lat="42.2981646" lon="2.3600837">
        <ele>909.13000488</ele>
        <time>2021-03-30T11:10:25Z</time>
      </trkpt>
      <trkpt lat="42.2981313" lon="2.3600588">
        <ele>909.15997314</ele>
        <time>2021-03-30T11:10:26Z</time>
      </trkpt>
      <trkpt lat="42.2980949" lon="2.36003">
        <ele>909.14001465</ele>
        <time>2021-03-30T11:10:27Z</time>
      </trkpt>
      <trkpt lat="42.2980732" lon="2.3600082">
        <ele>909.05999756</ele>
        <time>2021-03-30T11:10:28Z</time>
      </trkpt>
      <trkpt lat="42.298027" lon="2.3600052">
        <ele>908.94000244</ele>
        <time>2021-03-30T11:10:29Z</time>
      </trkpt>
      <trkpt lat="42.2979791" lon="2.3600093">
        <ele>908.82000732</ele>
        <time>2021-03-30T11:10:30Z</time>
      </trkpt>
      <trkpt lat="42.2979384" lon="2.3600223">
        <ele>908.7199707</ele>
        <time>2021-03-30T11:10:31Z</time>
      </trkpt>
      <trkpt lat="42.2978989" lon="2.3600363">
        <ele>908.65997314</ele>
        <time>2021-03-30T11:10:32Z</time>
      </trkpt>
      <trkpt lat="42.2978678" lon="2.3600563">
        <ele>908.64001465</ele>
        <time>2021-03-30T11:10:33Z</time>
      </trkpt>
      <trkpt lat="42.2978272" lon="2.360066">
        <ele>908.65997314</ele>
        <time>2021-03-30T11:10:34Z</time>
      </trkpt>
      <trkpt lat="42.297786" lon="2.3600702">
        <ele>908.69000244</ele>
        <time>2021-03-30T11:10:35Z</time>
      </trkpt>
      <trkpt lat="42.2977457" lon="2.3600871">
        <ele>908.73999023</ele>
        <time>2021-03-30T11:10:36Z</time>
      </trkpt>
      <trkpt lat="42.2977066" lon="2.3600935">
        <ele>908.80999756</ele>
        <time>2021-03-30T11:10:37Z</time>
      </trkpt>
      <trkpt lat="42.2976564" lon="2.360113">
        <ele>908.89001465</ele>
        <time>2021-03-30T11:10:38Z</time>
      </trkpt>
      <trkpt lat="42.2976127" lon="2.3601204">
        <ele>909</ele>
        <time>2021-03-30T11:10:39Z</time>
      </trkpt>
      <trkpt lat="42.2975706" lon="2.3601223">
        <ele>909.10998535</ele>
        <time>2021-03-30T11:10:40Z</time>
      </trkpt>
      <trkpt lat="42.297523" lon="2.360131">
        <ele>909.2199707</ele>
        <time>2021-03-30T11:10:41Z</time>
      </trkpt>
      <trkpt lat="42.2974754" lon="2.3601431">
        <ele>909.33001709</ele>
        <time>2021-03-30T11:10:42Z</time>
      </trkpt>
      <trkpt lat="42.2974281" lon="2.3601497">
        <ele>909.46002197</ele>
        <time>2021-03-30T11:10:43Z</time>
      </trkpt>
      <trkpt lat="42.2973797" lon="2.3601589">
        <ele>909.59002686</ele>
        <time>2021-03-30T11:10:44Z</time>
      </trkpt>
      <trkpt lat="42.2973326" lon="2.3601579">
        <ele>909.7199707</ele>
        <time>2021-03-30T11:10:45Z</time>
      </trkpt>
      <trkpt lat="42.297294" lon="2.3601591">
        <ele>909.84002686</ele>
        <time>2021-03-30T11:10:46Z</time>
      </trkpt>
      <trkpt lat="42.2972436" lon="2.3601633">
        <ele>909.95001221</ele>
        <time>2021-03-30T11:10:47Z</time>
      </trkpt>
      <trkpt lat="42.2971852" lon="2.3601606">
        <ele>910.04998779</ele>
        <time>2021-03-30T11:10:48Z</time>
      </trkpt>
      <trkpt lat="42.2971265" lon="2.3601583">
        <ele>910.14001465</ele>
        <time>2021-03-30T11:10:49Z</time>
      </trkpt>
      <trkpt lat="42.2970735" lon="2.3601548">
        <ele>910.21002197</ele>
        <time>2021-03-30T11:10:50Z</time>
      </trkpt>
      <trkpt lat="42.297024" lon="2.3601543">
        <ele>910.27001953</ele>
        <time>2021-03-30T11:10:51Z</time>
      </trkpt>
      <trkpt lat="42.2969813" lon="2.3601607">
        <ele>910.32000732</ele>
        <time>2021-03-30T11:10:52Z</time>
      </trkpt>
      <trkpt lat="42.2969396" lon="2.3601686">
        <ele>910.38000488</ele>
        <time>2021-03-30T11:10:53Z</time>
      </trkpt>
      <trkpt lat="42.2969134" lon="2.3601791">
        <ele>910.45001221</ele>
        <time>2021-03-30T11:10:54Z</time>
      </trkpt>
      <trkpt lat="42.296866" lon="2.3601722">
        <ele>910.5300293</ele>
        <time>2021-03-30T11:10:55Z</time>
      </trkpt>
      <trkpt lat="42.2968287" lon="2.360171">
        <ele>910.59002686</ele>
        <time>2021-03-30T11:10:56Z</time>
      </trkpt>
      <trkpt lat="42.2967993" lon="2.3601717">
        <ele>910.64001465</ele>
        <time>2021-03-30T11:10:57Z</time>
      </trkpt>
      <trkpt lat="42.2967661" lon="2.3601726">
        <ele>910.69000244</ele>
        <time>2021-03-30T11:10:58Z</time>
      </trkpt>
      <trkpt lat="42.2967283" lon="2.3601722">
        <ele>910.72998047</ele>
        <time>2021-03-30T11:10:59Z</time>
      </trkpt>
      <trkpt lat="42.2966912" lon="2.3601727">
        <ele>910.77001953</ele>
        <time>2021-03-30T11:11:00Z</time>
      </trkpt>
      <trkpt lat="42.2966554" lon="2.3601753">
        <ele>910.80999756</ele>
        <time>2021-03-30T11:11:01Z</time>
      </trkpt>
      <trkpt lat="42.2966178" lon="2.3601837">
        <ele>910.84002686</ele>
        <time>2021-03-30T11:11:02Z</time>
      </trkpt>
      <trkpt lat="42.2965848" lon="2.3601765">
        <ele>910.89001465</ele>
        <time>2021-03-30T11:11:03Z</time>
      </trkpt>
      <trkpt lat="42.2965555" lon="2.3601739">
        <ele>910.91998291</ele>
        <time>2021-03-30T11:11:04Z</time>
      </trkpt>
      <trkpt lat="42.2965228" lon="2.3601629">
        <ele>910.95001221</ele>
        <time>2021-03-30T11:11:05Z</time>
      </trkpt>
      <trkpt lat="42.2964871" lon="2.3601621">
        <ele>910.95001221</ele>
        <time>2021-03-30T11:11:06Z</time>
      </trkpt>
      <trkpt lat="42.2964474" lon="2.3601602">
        <ele>910.94000244</ele>
        <time>2021-03-30T11:11:07Z</time>
      </trkpt>
      <trkpt lat="42.2963992" lon="2.3601756">
        <ele>910.92999268</ele>
        <time>2021-03-30T11:11:08Z</time>
      </trkpt>
      <trkpt lat="42.296359" lon="2.3601775">
        <ele>910.95001221</ele>
        <time>2021-03-30T11:11:09Z</time>
      </trkpt>
      <trkpt lat="42.2963188" lon="2.3601775">
        <ele>910.94000244</ele>
        <time>2021-03-30T11:11:10Z</time>
      </trkpt>
      <trkpt lat="42.2962783" lon="2.36018">
        <ele>910.88000488</ele>
        <time>2021-03-30T11:11:11Z</time>
      </trkpt>
      <trkpt lat="42.2962311" lon="2.3601871">
        <ele>910.7800293</ele>
        <time>2021-03-30T11:11:12Z</time>
      </trkpt>
      <trkpt lat="42.2961892" lon="2.3601872">
        <ele>910.63000488</ele>
        <time>2021-03-30T11:11:13Z</time>
      </trkpt>
      <trkpt lat="42.2961433" lon="2.360186">
        <ele>910.42999268</ele>
        <time>2021-03-30T11:11:14Z</time>
      </trkpt>
      <trkpt lat="42.2960975" lon="2.3601871">
        <ele>910.20001221</ele>
        <time>2021-03-30T11:11:15Z</time>
      </trkpt>
      <trkpt lat="42.2960485" lon="2.360172">
        <ele>909.94000244</ele>
        <time>2021-03-30T11:11:16Z</time>
      </trkpt>
      <trkpt lat="42.2960011" lon="2.3601658">
        <ele>909.70001221</ele>
        <time>2021-03-30T11:11:17Z</time>
      </trkpt>
      <trkpt lat="42.2959574" lon="2.3601554">
        <ele>909.48999023</ele>
        <time>2021-03-30T11:11:18Z</time>
      </trkpt>
      <trkpt lat="42.2959134" lon="2.3601517">
        <ele>909.29998779</ele>
        <time>2021-03-30T11:11:19Z</time>
      </trkpt>
      <trkpt lat="42.2958626" lon="2.3601446">
        <ele>909.14001465</ele>
        <time>2021-03-30T11:11:20Z</time>
      </trkpt>
      <trkpt lat="42.2958169" lon="2.3601558">
        <ele>908.98999023</ele>
        <time>2021-03-30T11:11:21Z</time>
      </trkpt>
      <trkpt lat="42.295763" lon="2.3601519">
        <ele>908.84002686</ele>
        <time>2021-03-30T11:11:22Z</time>
      </trkpt>
      <trkpt lat="42.2957064" lon="2.3601544">
        <ele>908.65997314</ele>
        <time>2021-03-30T11:11:23Z</time>
      </trkpt>
      <trkpt lat="42.2956479" lon="2.3601656">
        <ele>908.45001221</ele>
        <time>2021-03-30T11:11:24Z</time>
      </trkpt>
      <trkpt lat="42.2956205" lon="2.360179">
        <ele>908.2199707</ele>
        <time>2021-03-30T11:11:25Z</time>
      </trkpt>
      <trkpt lat="42.2955785" lon="2.3601738">
        <ele>908.01000977</ele>
        <time>2021-03-30T11:11:26Z</time>
      </trkpt>
      <trkpt lat="42.2955321" lon="2.3601777">
        <ele>907.78997803</ele>
        <time>2021-03-30T11:11:27Z</time>
      </trkpt>
      <trkpt lat="42.2954819" lon="2.3601957">
        <ele>907.58001709</ele>
        <time>2021-03-30T11:11:28Z</time>
      </trkpt>
      <trkpt lat="42.2954317" lon="2.360202">
        <ele>907.41998291</ele>
        <time>2021-03-30T11:11:29Z</time>
      </trkpt>
      <trkpt lat="42.2953714" lon="2.3602199">
        <ele>907.29998779</ele>
        <time>2021-03-30T11:11:30Z</time>
      </trkpt>
      <trkpt lat="42.2953193" lon="2.3602341">
        <ele>907.2199707</ele>
        <time>2021-03-30T11:11:31Z</time>
      </trkpt>
      <trkpt lat="42.2952616" lon="2.3602474">
        <ele>907.17999268</ele>
        <time>2021-03-30T11:11:32Z</time>
      </trkpt>
      <trkpt lat="42.2952159" lon="2.3602502">
        <ele>907.15002441</ele>
        <time>2021-03-30T11:11:33Z</time>
      </trkpt>
      <trkpt lat="42.295168" lon="2.3602695">
        <ele>907.0300293</ele>
        <time>2021-03-30T11:11:34Z</time>
      </trkpt>
      <trkpt lat="42.295119" lon="2.3602769">
        <ele>906.86999512</ele>
        <time>2021-03-30T11:11:35Z</time>
      </trkpt>
      <trkpt lat="42.2950718" lon="2.3603003">
        <ele>906.64001465</ele>
        <time>2021-03-30T11:11:36Z</time>
      </trkpt>
      <trkpt lat="42.2950253" lon="2.3603114">
        <ele>906.36999512</ele>
        <time>2021-03-30T11:11:37Z</time>
      </trkpt>
      <trkpt lat="42.2949643" lon="2.3603209">
        <ele>906.05999756</ele>
        <time>2021-03-30T11:11:38Z</time>
      </trkpt>
      <trkpt lat="42.2949047" lon="2.3603442">
        <ele>905.76000977</ele>
        <time>2021-03-30T11:11:39Z</time>
      </trkpt>
      <trkpt lat="42.2948491" lon="2.3603719">
        <ele>905.5300293</ele>
        <time>2021-03-30T11:11:40Z</time>
      </trkpt>
      <trkpt lat="42.2947953" lon="2.360396">
        <ele>905.38000488</ele>
        <time>2021-03-30T11:11:41Z</time>
      </trkpt>
      <trkpt lat="42.2947378" lon="2.3604322">
        <ele>905.28997803</ele>
        <time>2021-03-30T11:11:42Z</time>
      </trkpt>
      <trkpt lat="42.2946877" lon="2.3604673">
        <ele>905.28997803</ele>
        <time>2021-03-30T11:11:43Z</time>
      </trkpt>
      <trkpt lat="42.2946352" lon="2.3605049">
        <ele>905.29998779</ele>
        <time>2021-03-30T11:11:44Z</time>
      </trkpt>
      <trkpt lat="42.2945763" lon="2.3605401">
        <ele>905.2800293</ele>
        <time>2021-03-30T11:11:45Z</time>
      </trkpt>
      <trkpt lat="42.2945362" lon="2.3605751">
        <ele>905.21002197</ele>
        <time>2021-03-30T11:11:46Z</time>
      </trkpt>
      <trkpt lat="42.2945079" lon="2.3606118">
        <ele>905.13000488</ele>
        <time>2021-03-30T11:11:47Z</time>
      </trkpt>
      <trkpt lat="42.294477" lon="2.3606767">
        <ele>905.04998779</ele>
        <time>2021-03-30T11:11:48Z</time>
      </trkpt>
      <trkpt lat="42.2944478" lon="2.3607351">
        <ele>905.04998779</ele>
        <time>2021-03-30T11:11:49Z</time>
      </trkpt>
      <trkpt lat="42.2944258" lon="2.3607973">
        <ele>905.13000488</ele>
        <time>2021-03-30T11:11:50Z</time>
      </trkpt>
      <trkpt lat="42.294401" lon="2.3608423">
        <ele>905.2800293</ele>
        <time>2021-03-30T11:11:51Z</time>
      </trkpt>
      <trkpt lat="42.2943758" lon="2.3608688">
        <ele>905.46002197</ele>
        <time>2021-03-30T11:11:52Z</time>
      </trkpt>
      <trkpt lat="42.2943477" lon="2.3608811">
        <ele>905.58001709</ele>
        <time>2021-03-30T11:11:53Z</time>
      </trkpt>
      <trkpt lat="42.2943223" lon="2.3608756">
        <ele>905.65002441</ele>
        <time>2021-03-30T11:11:54Z</time>
      </trkpt>
      <trkpt lat="42.294273" lon="2.3608808">
        <ele>905.66998291</ele>
        <time>2021-03-30T11:11:55Z</time>
      </trkpt>
      <trkpt lat="42.2942261" lon="2.3609099">
        <ele>905.59997559</ele>
        <time>2021-03-30T11:11:56Z</time>
      </trkpt>
      <trkpt lat="42.2941834" lon="2.3609506">
        <ele>905.51000977</ele>
        <time>2021-03-30T11:11:57Z</time>
      </trkpt>
      <trkpt lat="42.2941266" lon="2.3609935">
        <ele>905.42999268</ele>
        <time>2021-03-30T11:11:58Z</time>
      </trkpt>
      <trkpt lat="42.2940713" lon="2.3610324">
        <ele>905.34997559</ele>
        <time>2021-03-30T11:11:59Z</time>
      </trkpt>
      <trkpt lat="42.2940252" lon="2.361082">
        <ele>905.25</ele>
        <time>2021-03-30T11:12:00Z</time>
      </trkpt>
      <trkpt lat="42.2939812" lon="2.3611237">
        <ele>905.15997314</ele>
        <time>2021-03-30T11:12:01Z</time>
      </trkpt>
      <trkpt lat="42.2939303" lon="2.3611633">
        <ele>905.07000732</ele>
        <time>2021-03-30T11:12:02Z</time>
      </trkpt>
      <trkpt lat="42.293871" lon="2.3612108">
        <ele>904.96002197</ele>
        <time>2021-03-30T11:12:03Z</time>
      </trkpt>
      <trkpt lat="42.2938201" lon="2.3612478">
        <ele>904.85998535</ele>
        <time>2021-03-30T11:12:04Z</time>
      </trkpt>
      <trkpt lat="42.293773" lon="2.3612942">
        <ele>904.72998047</ele>
        <time>2021-03-30T11:12:05Z</time>
      </trkpt>
      <trkpt lat="42.2937238" lon="2.3613416">
        <ele>904.61999512</ele>
        <time>2021-03-30T11:12:06Z</time>
      </trkpt>
      <trkpt lat="42.2936767" lon="2.3613794">
        <ele>904.51000977</ele>
        <time>2021-03-30T11:12:07Z</time>
      </trkpt>
      <trkpt lat="42.2936393" lon="2.3614108">
        <ele>904.40002441</ele>
        <time>2021-03-30T11:12:08Z</time>
      </trkpt>
      <trkpt lat="42.2936072" lon="2.3614419">
        <ele>904.2800293</ele>
        <time>2021-03-30T11:12:09Z</time>
      </trkpt>
      <trkpt lat="42.2935808" lon="2.3614739">
        <ele>904.17999268</ele>
        <time>2021-03-30T11:12:10Z</time>
      </trkpt>
      <trkpt lat="42.2935486" lon="2.3615079">
        <ele>904.09002686</ele>
        <time>2021-03-30T11:12:11Z</time>
      </trkpt>
      <trkpt lat="42.293526" lon="2.3615393">
        <ele>904.02001953</ele>
        <time>2021-03-30T11:12:12Z</time>
      </trkpt>
      <trkpt lat="42.2934934" lon="2.3615775">
        <ele>903.97998047</ele>
        <time>2021-03-30T11:12:13Z</time>
      </trkpt>
      <trkpt lat="42.2934548" lon="2.3616065">
        <ele>903.95001221</ele>
        <time>2021-03-30T11:12:14Z</time>
      </trkpt>
      <trkpt lat="42.2934196" lon="2.3616327">
        <ele>903.90997314</ele>
        <time>2021-03-30T11:12:15Z</time>
      </trkpt>
      <trkpt lat="42.2933869" lon="2.3616613">
        <ele>903.84997559</ele>
        <time>2021-03-30T11:12:16Z</time>
      </trkpt>
      <trkpt lat="42.2933529" lon="2.3616872">
        <ele>903.79998779</ele>
        <time>2021-03-30T11:12:17Z</time>
      </trkpt>
      <trkpt lat="42.2933221" lon="2.3617117">
        <ele>903.7199707</ele>
        <time>2021-03-30T11:12:18Z</time>
      </trkpt>
      <trkpt lat="42.2932903" lon="2.3617368">
        <ele>903.65002441</ele>
        <time>2021-03-30T11:12:19Z</time>
      </trkpt>
      <trkpt lat="42.2932619" lon="2.3617696">
        <ele>903.57000732</ele>
        <time>2021-03-30T11:12:20Z</time>
      </trkpt>
      <trkpt lat="42.2932355" lon="2.3618015">
        <ele>903.5</ele>
        <time>2021-03-30T11:12:21Z</time>
      </trkpt>
      <trkpt lat="42.2932" lon="2.3618275">
        <ele>903.46002197</ele>
        <time>2021-03-30T11:12:22Z</time>
      </trkpt>
      <trkpt lat="42.2931699" lon="2.3618517">
        <ele>903.40002441</ele>
        <time>2021-03-30T11:12:23Z</time>
      </trkpt>
      <trkpt lat="42.2931369" lon="2.3618751">
        <ele>903.33001709</ele>
        <time>2021-03-30T11:12:24Z</time>
      </trkpt>
      <trkpt lat="42.293101" lon="2.3618918">
        <ele>903.25</ele>
        <time>2021-03-30T11:12:25Z</time>
      </trkpt>
      <trkpt lat="42.2930721" lon="2.3619173">
        <ele>903.15002441</ele>
        <time>2021-03-30T11:12:26Z</time>
      </trkpt>
      <trkpt lat="42.2930371" lon="2.3619392">
        <ele>903.03997803</ele>
        <time>2021-03-30T11:12:27Z</time>
      </trkpt>
      <trkpt lat="42.2929966" lon="2.3619634">
        <ele>902.96002197</ele>
        <time>2021-03-30T11:12:28Z</time>
      </trkpt>
      <trkpt lat="42.292949" lon="2.361988">
        <ele>902.92999268</ele>
        <time>2021-03-30T11:12:29Z</time>
      </trkpt>
      <trkpt lat="42.2928967" lon="2.3620113">
        <ele>902.95001221</ele>
        <time>2021-03-30T11:12:30Z</time>
      </trkpt>
      <trkpt lat="42.2928525" lon="2.3620209">
        <ele>903.02001953</ele>
        <time>2021-03-30T11:12:31Z</time>
      </trkpt>
      <trkpt lat="42.2927982" lon="2.3620342">
        <ele>903.10998535</ele>
        <time>2021-03-30T11:12:32Z</time>
      </trkpt>
      <trkpt lat="42.2927463" lon="2.362054">
        <ele>903.21002197</ele>
        <time>2021-03-30T11:12:33Z</time>
      </trkpt>
      <trkpt lat="42.292698" lon="2.3620824">
        <ele>903.2800293</ele>
        <time>2021-03-30T11:12:34Z</time>
      </trkpt>
      <trkpt lat="42.2926534" lon="2.3621198">
        <ele>903.30999756</ele>
        <time>2021-03-30T11:12:35Z</time>
      </trkpt>
      <trkpt lat="42.2925973" lon="2.3621649">
        <ele>903.32000732</ele>
        <time>2021-03-30T11:12:36Z</time>
      </trkpt>
      <trkpt lat="42.2925544" lon="2.3621933">
        <ele>903.29998779</ele>
        <time>2021-03-30T11:12:37Z</time>
      </trkpt>
      <trkpt lat="42.2925089" lon="2.3622154">
        <ele>903.25</ele>
        <time>2021-03-30T11:12:38Z</time>
      </trkpt>
      <trkpt lat="42.2924545" lon="2.3622534">
        <ele>903.16998291</ele>
        <time>2021-03-30T11:12:39Z</time>
      </trkpt>
      <trkpt lat="42.2923985" lon="2.3622942">
        <ele>903.08001709</ele>
        <time>2021-03-30T11:12:40Z</time>
      </trkpt>
      <trkpt lat="42.2923551" lon="2.362299">
        <ele>903</ele>
        <time>2021-03-30T11:12:41Z</time>
      </trkpt>
      <trkpt lat="42.2923052" lon="2.3622989">
        <ele>902.92999268</ele>
        <time>2021-03-30T11:12:42Z</time>
      </trkpt>
      <trkpt lat="42.2922632" lon="2.3622799">
        <ele>902.86999512</ele>
        <time>2021-03-30T11:12:43Z</time>
      </trkpt>
      <trkpt lat="42.2922186" lon="2.3622763">
        <ele>902.82000732</ele>
        <time>2021-03-30T11:12:44Z</time>
      </trkpt>
      <trkpt lat="42.2921778" lon="2.3622793">
        <ele>902.76000977</ele>
        <time>2021-03-30T11:12:45Z</time>
      </trkpt>
      <trkpt lat="42.2921251" lon="2.3622947">
        <ele>902.65002441</ele>
        <time>2021-03-30T11:12:46Z</time>
      </trkpt>
      <trkpt lat="42.292079" lon="2.3623048">
        <ele>902.47998047</ele>
        <time>2021-03-30T11:12:47Z</time>
      </trkpt>
      <trkpt lat="42.2920191" lon="2.3622996">
        <ele>902.26000977</ele>
        <time>2021-03-30T11:12:48Z</time>
      </trkpt>
      <trkpt lat="42.291953" lon="2.3623062">
        <ele>901.97998047</ele>
        <time>2021-03-30T11:12:49Z</time>
      </trkpt>
      <trkpt lat="42.2918934" lon="2.3623174">
        <ele>901.63000488</ele>
        <time>2021-03-30T11:12:50Z</time>
      </trkpt>
      <trkpt lat="42.2918298" lon="2.3623301">
        <ele>901.33001709</ele>
        <time>2021-03-30T11:12:51Z</time>
      </trkpt>
      <trkpt lat="42.2917539" lon="2.3623438">
        <ele>901.08001709</ele>
        <time>2021-03-30T11:12:52Z</time>
      </trkpt>
      <trkpt lat="42.2916728" lon="2.3623673">
        <ele>900.89001465</ele>
        <time>2021-03-30T11:12:53Z</time>
      </trkpt>
      <trkpt lat="42.2916114" lon="2.3623907">
        <ele>900.77001953</ele>
        <time>2021-03-30T11:12:54Z</time>
      </trkpt>
      <trkpt lat="42.2915389" lon="2.3624241">
        <ele>900.64001465</ele>
        <time>2021-03-30T11:12:55Z</time>
      </trkpt>
      <trkpt lat="42.291476" lon="2.3624573">
        <ele>900.47998047</ele>
        <time>2021-03-30T11:12:56Z</time>
      </trkpt>
      <trkpt lat="42.2914157" lon="2.3624802">
        <ele>900.26000977</ele>
        <time>2021-03-30T11:12:57Z</time>
      </trkpt>
      <trkpt lat="42.2913556" lon="2.3625073">
        <ele>899.9699707</ele>
        <time>2021-03-30T11:12:58Z</time>
      </trkpt>
      <trkpt lat="42.2912959" lon="2.3625481">
        <ele>899.66998291</ele>
        <time>2021-03-30T11:12:59Z</time>
      </trkpt>
      <trkpt lat="42.2912549" lon="2.3625625">
        <ele>899.4699707</ele>
        <time>2021-03-30T11:13:00Z</time>
      </trkpt>
      <trkpt lat="42.2911887" lon="2.3626106">
        <ele>899.33001709</ele>
        <time>2021-03-30T11:13:01Z</time>
      </trkpt>
      <trkpt lat="42.2911401" lon="2.3626623">
        <ele>899.28997803</ele>
        <time>2021-03-30T11:13:02Z</time>
      </trkpt>
      <trkpt lat="42.2910988" lon="2.3626832">
        <ele>899.36999512</ele>
        <time>2021-03-30T11:13:03Z</time>
      </trkpt>
      <trkpt lat="42.2910448" lon="2.362732">
        <ele>899.46002197</ele>
        <time>2021-03-30T11:13:04Z</time>
      </trkpt>
      <trkpt lat="42.2909964" lon="2.3627699">
        <ele>899.53997803</ele>
        <time>2021-03-30T11:13:05Z</time>
      </trkpt>
      <trkpt lat="42.2909418" lon="2.3627991">
        <ele>899.59002686</ele>
        <time>2021-03-30T11:13:06Z</time>
      </trkpt>
      <trkpt lat="42.2908956" lon="2.3628301">
        <ele>899.57000732</ele>
        <time>2021-03-30T11:13:07Z</time>
      </trkpt>
      <trkpt lat="42.2908473" lon="2.3628756">
        <ele>899.51000977</ele>
        <time>2021-03-30T11:13:08Z</time>
      </trkpt>
      <trkpt lat="42.2908106" lon="2.362906">
        <ele>899.46002197</ele>
        <time>2021-03-30T11:13:09Z</time>
      </trkpt>
      <trkpt lat="42.2907785" lon="2.3629272">
        <ele>899.42999268</ele>
        <time>2021-03-30T11:13:10Z</time>
      </trkpt>
      <trkpt lat="42.2907555" lon="2.3629429">
        <ele>899.41998291</ele>
        <time>2021-03-30T11:13:11Z</time>
      </trkpt>
      <trkpt lat="42.2907156" lon="2.3629566">
        <ele>899.40002441</ele>
        <time>2021-03-30T11:13:12Z</time>
      </trkpt>
      <trkpt lat="42.2906651" lon="2.3629692">
        <ele>899.35998535</ele>
        <time>2021-03-30T11:13:13Z</time>
      </trkpt>
      <trkpt lat="42.2906443" lon="2.3629875">
        <ele>899.27001953</ele>
        <time>2021-03-30T11:13:14Z</time>
      </trkpt>
      <trkpt lat="42.2905894" lon="2.3630058">
        <ele>899.15997314</ele>
        <time>2021-03-30T11:13:15Z</time>
      </trkpt>
      <trkpt lat="42.2905349" lon="2.3630286">
        <ele>898.98999023</ele>
        <time>2021-03-30T11:13:16Z</time>
      </trkpt>
      <trkpt lat="42.2904924" lon="2.3630397">
        <ele>898.77001953</ele>
        <time>2021-03-30T11:13:17Z</time>
      </trkpt>
      <trkpt lat="42.2904383" lon="2.3630671">
        <ele>898.57000732</ele>
        <time>2021-03-30T11:13:18Z</time>
      </trkpt>
      <trkpt lat="42.2903935" lon="2.3630946">
        <ele>898.40997314</ele>
        <time>2021-03-30T11:13:19Z</time>
      </trkpt>
      <trkpt lat="42.2903494" lon="2.3631038">
        <ele>898.28997803</ele>
        <time>2021-03-30T11:13:20Z</time>
      </trkpt>
      <trkpt lat="42.2902959" lon="2.3631338">
        <ele>898.16998291</ele>
        <time>2021-03-30T11:13:21Z</time>
      </trkpt>
      <trkpt lat="42.2902584" lon="2.3631632">
        <ele>898.04998779</ele>
        <time>2021-03-30T11:13:22Z</time>
      </trkpt>
      <trkpt lat="42.2902202" lon="2.3631896">
        <ele>897.91998291</ele>
        <time>2021-03-30T11:13:23Z</time>
      </trkpt>
      <trkpt lat="42.2901812" lon="2.3632117">
        <ele>897.76000977</ele>
        <time>2021-03-30T11:13:24Z</time>
      </trkpt>
      <trkpt lat="42.290144" lon="2.3632334">
        <ele>897.59002686</ele>
        <time>2021-03-30T11:13:25Z</time>
      </trkpt>
      <trkpt lat="42.2901096" lon="2.3632636">
        <ele>897.41998291</ele>
        <time>2021-03-30T11:13:26Z</time>
      </trkpt>
      <trkpt lat="42.2900652" lon="2.3633054">
        <ele>897.2800293</ele>
        <time>2021-03-30T11:13:27Z</time>
      </trkpt>
      <trkpt lat="42.2900302" lon="2.3633255">
        <ele>897.20001221</ele>
        <time>2021-03-30T11:13:28Z</time>
      </trkpt>
      <trkpt lat="42.2899911" lon="2.3633393">
        <ele>897.15002441</ele>
        <time>2021-03-30T11:13:29Z</time>
      </trkpt>
      <trkpt lat="42.2899447" lon="2.3633587">
        <ele>897.13000488</ele>
        <time>2021-03-30T11:13:30Z</time>
      </trkpt>
      <trkpt lat="42.28991" lon="2.3633721">
        <ele>897.10998535</ele>
        <time>2021-03-30T11:13:31Z</time>
      </trkpt>
      <trkpt lat="42.2898706" lon="2.3633852">
        <ele>897.09997559</ele>
        <time>2021-03-30T11:13:32Z</time>
      </trkpt>
      <trkpt lat="42.2898262" lon="2.3634025">
        <ele>897.08001709</ele>
        <time>2021-03-30T11:13:33Z</time>
      </trkpt>
      <trkpt lat="42.2897894" lon="2.3634256">
        <ele>897.07000732</ele>
        <time>2021-03-30T11:13:34Z</time>
      </trkpt>
      <trkpt lat="42.2897553" lon="2.3634458">
        <ele>897.05999756</ele>
        <time>2021-03-30T11:13:35Z</time>
      </trkpt>
      <trkpt lat="42.2897194" lon="2.3634576">
        <ele>897.04998779</ele>
        <time>2021-03-30T11:13:36Z</time>
      </trkpt>
      <trkpt lat="42.2896822" lon="2.3634742">
        <ele>897.03997803</ele>
        <time>2021-03-30T11:13:37Z</time>
      </trkpt>
      <trkpt lat="42.2896504" lon="2.3634909">
        <ele>896.98999023</ele>
        <time>2021-03-30T11:13:38Z</time>
      </trkpt>
      <trkpt lat="42.2896155" lon="2.3635134">
        <ele>896.92999268</ele>
        <time>2021-03-30T11:13:39Z</time>
      </trkpt>
      <trkpt lat="42.2895851" lon="2.3635227">
        <ele>896.84997559</ele>
        <time>2021-03-30T11:13:40Z</time>
      </trkpt>
      <trkpt lat="42.289565" lon="2.3635491">
        <ele>896.7800293</ele>
        <time>2021-03-30T11:13:41Z</time>
      </trkpt>
      <trkpt lat="42.2895285" lon="2.3635697">
        <ele>896.7199707</ele>
        <time>2021-03-30T11:13:42Z</time>
      </trkpt>
      <trkpt lat="42.289492" lon="2.3635989">
        <ele>896.69000244</ele>
        <time>2021-03-30T11:13:43Z</time>
      </trkpt>
      <trkpt lat="42.2894411" lon="2.3636241">
        <ele>896.69000244</ele>
        <time>2021-03-30T11:13:44Z</time>
      </trkpt>
      <trkpt lat="42.2894015" lon="2.363652">
        <ele>896.71002197</ele>
        <time>2021-03-30T11:13:45Z</time>
      </trkpt>
      <trkpt lat="42.2893759" lon="2.3636942">
        <ele>896.66998291</ele>
        <time>2021-03-30T11:13:46Z</time>
      </trkpt>
      <trkpt lat="42.289358" lon="2.363743">
        <ele>896.59997559</ele>
        <time>2021-03-30T11:13:47Z</time>
      </trkpt>
      <trkpt lat="42.289333" lon="2.3637836">
        <ele>896.54998779</ele>
        <time>2021-03-30T11:13:48Z</time>
      </trkpt>
      <trkpt lat="42.2893052" lon="2.363815">
        <ele>896.5</ele>
        <time>2021-03-30T11:13:49Z</time>
      </trkpt>
      <trkpt lat="42.289275" lon="2.3638433">
        <ele>896.47998047</ele>
        <time>2021-03-30T11:13:50Z</time>
      </trkpt>
      <trkpt lat="42.2892475" lon="2.3638773">
        <ele>896.4699707</ele>
        <time>2021-03-30T11:13:51Z</time>
      </trkpt>
      <trkpt lat="42.2892169" lon="2.3639151">
        <ele>896.5</ele>
        <time>2021-03-30T11:13:52Z</time>
      </trkpt>
      <trkpt lat="42.2891954" lon="2.3639666">
        <ele>896.54998779</ele>
        <time>2021-03-30T11:13:53Z</time>
      </trkpt>
      <trkpt lat="42.2891738" lon="2.3640132">
        <ele>896.59002686</ele>
        <time>2021-03-30T11:13:54Z</time>
      </trkpt>
      <trkpt lat="42.2891437" lon="2.3640565">
        <ele>896.63000488</ele>
        <time>2021-03-30T11:13:55Z</time>
      </trkpt>
      <trkpt lat="42.2891204" lon="2.3640928">
        <ele>896.65002441</ele>
        <time>2021-03-30T11:13:56Z</time>
      </trkpt>
      <trkpt lat="42.2891042" lon="2.3641238">
        <ele>896.65997314</ele>
        <time>2021-03-30T11:13:57Z</time>
      </trkpt>
      <trkpt lat="42.2890907" lon="2.3641704">
        <ele>896.66998291</ele>
        <time>2021-03-30T11:13:58Z</time>
      </trkpt>
      <trkpt lat="42.2890654" lon="2.3642042">
        <ele>896.70001221</ele>
        <time>2021-03-30T11:13:59Z</time>
      </trkpt>
      <trkpt lat="42.2890463" lon="2.3642363">
        <ele>896.72998047</ele>
        <time>2021-03-30T11:14:00Z</time>
      </trkpt>
      <trkpt lat="42.2890265" lon="2.3642684">
        <ele>896.76000977</ele>
        <time>2021-03-30T11:14:01Z</time>
      </trkpt>
      <trkpt lat="42.2890079" lon="2.3643011">
        <ele>896.7800293</ele>
        <time>2021-03-30T11:14:02Z</time>
      </trkpt>
      <trkpt lat="42.28899" lon="2.3643329">
        <ele>896.79998779</ele>
        <time>2021-03-30T11:14:03Z</time>
      </trkpt>
      <trkpt lat="42.2889742" lon="2.3643607">
        <ele>896.82000732</ele>
        <time>2021-03-30T11:14:04Z</time>
      </trkpt>
      <trkpt lat="42.2889471" lon="2.3643852">
        <ele>896.83001709</ele>
        <time>2021-03-30T11:14:05Z</time>
      </trkpt>
      <trkpt lat="42.2889214" lon="2.3644189">
        <ele>896.84997559</ele>
        <time>2021-03-30T11:14:06Z</time>
      </trkpt>
      <trkpt lat="42.2888937" lon="2.3644566">
        <ele>896.85998535</ele>
        <time>2021-03-30T11:14:07Z</time>
      </trkpt>
      <trkpt lat="42.2888658" lon="2.3644941">
        <ele>896.86999512</ele>
        <time>2021-03-30T11:14:08Z</time>
      </trkpt>
      <trkpt lat="42.2888412" lon="2.3645314">
        <ele>896.88000488</ele>
        <time>2021-03-30T11:14:09Z</time>
      </trkpt>
      <trkpt lat="42.2888211" lon="2.3645563">
        <ele>896.89001465</ele>
        <time>2021-03-30T11:14:10Z</time>
      </trkpt>
      <trkpt lat="42.288794" lon="2.3645805">
        <ele>896.90002441</ele>
        <time>2021-03-30T11:14:11Z</time>
      </trkpt>
      <trkpt lat="42.2887634" lon="2.3646101">
        <ele>896.90997314</ele>
        <time>2021-03-30T11:14:12Z</time>
      </trkpt>
      <trkpt lat="42.2887366" lon="2.3646425">
        <ele>896.90997314</ele>
        <time>2021-03-30T11:14:13Z</time>
      </trkpt>
      <trkpt lat="42.2887004" lon="2.3646758">
        <ele>896.91998291</ele>
        <time>2021-03-30T11:14:14Z</time>
      </trkpt>
      <trkpt lat="42.2886744" lon="2.3647121">
        <ele>896.91998291</ele>
        <time>2021-03-30T11:14:15Z</time>
      </trkpt>
      <trkpt lat="42.2886404" lon="2.3647481">
        <ele>896.92999268</ele>
        <time>2021-03-30T11:14:16Z</time>
      </trkpt>
      <trkpt lat="42.2886204" lon="2.3647994">
        <ele>896.92999268</ele>
        <time>2021-03-30T11:14:17Z</time>
      </trkpt>
      <trkpt lat="42.2885901" lon="2.3648355">
        <ele>896.92999268</ele>
        <time>2021-03-30T11:14:18Z</time>
      </trkpt>
      <trkpt lat="42.2885561" lon="2.3648785">
        <ele>896.90997314</ele>
        <time>2021-03-30T11:14:19Z</time>
      </trkpt>
      <trkpt lat="42.2885257" lon="2.3649224">
        <ele>896.86999512</ele>
        <time>2021-03-30T11:14:20Z</time>
      </trkpt>
      <trkpt lat="42.2885027" lon="2.3649772">
        <ele>896.83001709</ele>
        <time>2021-03-30T11:14:21Z</time>
      </trkpt>
      <trkpt lat="42.2884808" lon="2.3650321">
        <ele>896.83001709</ele>
        <time>2021-03-30T11:14:22Z</time>
      </trkpt>
      <trkpt lat="42.2884522" lon="2.3650875">
        <ele>896.84002686</ele>
        <time>2021-03-30T11:14:23Z</time>
      </trkpt>
      <trkpt lat="42.2884201" lon="2.3651298">
        <ele>896.84997559</ele>
        <time>2021-03-30T11:14:24Z</time>
      </trkpt>
      <trkpt lat="42.2883904" lon="2.3651802">
        <ele>896.85998535</ele>
        <time>2021-03-30T11:14:25Z</time>
      </trkpt>
      <trkpt lat="42.2883681" lon="2.3652373">
        <ele>896.86999512</ele>
        <time>2021-03-30T11:14:26Z</time>
      </trkpt>
      <trkpt lat="42.2883444" lon="2.3652974">
        <ele>896.88000488</ele>
        <time>2021-03-30T11:14:27Z</time>
      </trkpt>
      <trkpt lat="42.2883142" lon="2.3653518">
        <ele>896.89001465</ele>
        <time>2021-03-30T11:14:28Z</time>
      </trkpt>
      <trkpt lat="42.2882791" lon="2.3653995">
        <ele>896.85998535</ele>
        <time>2021-03-30T11:14:29Z</time>
      </trkpt>
      <trkpt lat="42.2882513" lon="2.3654481">
        <ele>896.77001953</ele>
        <time>2021-03-30T11:14:30Z</time>
      </trkpt>
      <trkpt lat="42.2882258" lon="2.3654975">
        <ele>896.63000488</ele>
        <time>2021-03-30T11:14:31Z</time>
      </trkpt>
      <trkpt lat="42.2881973" lon="2.3655505">
        <ele>896.44000244</ele>
        <time>2021-03-30T11:14:32Z</time>
      </trkpt>
      <trkpt lat="42.2881754" lon="2.3656032">
        <ele>896.2199707</ele>
        <time>2021-03-30T11:14:33Z</time>
      </trkpt>
      <trkpt lat="42.2881431" lon="2.3656538">
        <ele>895.97998047</ele>
        <time>2021-03-30T11:14:34Z</time>
      </trkpt>
      <trkpt lat="42.28811" lon="2.3657094">
        <ele>895.69000244</ele>
        <time>2021-03-30T11:14:35Z</time>
      </trkpt>
      <trkpt lat="42.2880838" lon="2.3657704">
        <ele>895.36999512</ele>
        <time>2021-03-30T11:14:36Z</time>
      </trkpt>
      <trkpt lat="42.2880582" lon="2.3658317">
        <ele>895.0300293</ele>
        <time>2021-03-30T11:14:37Z</time>
      </trkpt>
      <trkpt lat="42.2880293" lon="2.3658855">
        <ele>894.66998291</ele>
        <time>2021-03-30T11:14:38Z</time>
      </trkpt>
      <trkpt lat="42.2879955" lon="2.3659422">
        <ele>894.41998291</ele>
        <time>2021-03-30T11:14:39Z</time>
      </trkpt>
      <trkpt lat="42.2879614" lon="2.3659983">
        <ele>894.28997803</ele>
        <time>2021-03-30T11:14:40Z</time>
      </trkpt>
      <trkpt lat="42.2879392" lon="2.3660505">
        <ele>894.2199707</ele>
        <time>2021-03-30T11:14:41Z</time>
      </trkpt>
      <trkpt lat="42.2879195" lon="2.3661086">
        <ele>894.19000244</ele>
        <time>2021-03-30T11:14:42Z</time>
      </trkpt>
      <trkpt lat="42.2878861" lon="2.3661664">
        <ele>894.20001221</ele>
        <time>2021-03-30T11:14:43Z</time>
      </trkpt>
      <trkpt lat="42.2878484" lon="2.3662266">
        <ele>894.15002441</ele>
        <time>2021-03-30T11:14:44Z</time>
      </trkpt>
      <trkpt lat="42.2878211" lon="2.3662847">
        <ele>894.0300293</ele>
        <time>2021-03-30T11:14:45Z</time>
      </trkpt>
      <trkpt lat="42.2877889" lon="2.3663513">
        <ele>893.85998535</ele>
        <time>2021-03-30T11:14:46Z</time>
      </trkpt>
      <trkpt lat="42.2877521" lon="2.3664221">
        <ele>893.65002441</ele>
        <time>2021-03-30T11:14:47Z</time>
      </trkpt>
      <trkpt lat="42.2877191" lon="2.3664746">
        <ele>893.38000488</ele>
        <time>2021-03-30T11:14:48Z</time>
      </trkpt>
      <trkpt lat="42.2876877" lon="2.3665306">
        <ele>893.07000732</ele>
        <time>2021-03-30T11:14:49Z</time>
      </trkpt>
      <trkpt lat="42.2876653" lon="2.3665963">
        <ele>892.72998047</ele>
        <time>2021-03-30T11:14:50Z</time>
      </trkpt>
      <trkpt lat="42.287639" lon="2.3666691">
        <ele>892.36999512</ele>
        <time>2021-03-30T11:14:51Z</time>
      </trkpt>
      <trkpt lat="42.2876224" lon="2.3667302">
        <ele>892</ele>
        <time>2021-03-30T11:14:52Z</time>
      </trkpt>
      <trkpt lat="42.2876031" lon="2.3667943">
        <ele>891.70001221</ele>
        <time>2021-03-30T11:14:53Z</time>
      </trkpt>
      <trkpt lat="42.2875761" lon="2.3668477">
        <ele>891.48999023</ele>
        <time>2021-03-30T11:14:54Z</time>
      </trkpt>
      <trkpt lat="42.2875576" lon="2.3668911">
        <ele>891.34002686</ele>
        <time>2021-03-30T11:14:55Z</time>
      </trkpt>
      <trkpt lat="42.2875351" lon="2.3669454">
        <ele>891.27001953</ele>
        <time>2021-03-30T11:14:56Z</time>
      </trkpt>
      <trkpt lat="42.2875083" lon="2.3669954">
        <ele>891.29998779</ele>
        <time>2021-03-30T11:14:57Z</time>
      </trkpt>
      <trkpt lat="42.2874871" lon="2.3670479">
        <ele>891.33001709</ele>
        <time>2021-03-30T11:14:58Z</time>
      </trkpt>
      <trkpt lat="42.2874618" lon="2.3670981">
        <ele>891.33001709</ele>
        <time>2021-03-30T11:14:59Z</time>
      </trkpt>
      <trkpt lat="42.2874335" lon="2.3671578">
        <ele>891.2800293</ele>
        <time>2021-03-30T11:15:00Z</time>
      </trkpt>
      <trkpt lat="42.2873981" lon="2.3672121">
        <ele>891.17999268</ele>
        <time>2021-03-30T11:15:01Z</time>
      </trkpt>
      <trkpt lat="42.2873632" lon="2.3672742">
        <ele>891.02001953</ele>
        <time>2021-03-30T11:15:02Z</time>
      </trkpt>
      <trkpt lat="42.2873255" lon="2.367345">
        <ele>890.79998779</ele>
        <time>2021-03-30T11:15:03Z</time>
      </trkpt>
      <trkpt lat="42.2872916" lon="2.3674084">
        <ele>890.5300293</ele>
        <time>2021-03-30T11:15:04Z</time>
      </trkpt>
      <trkpt lat="42.2872533" lon="2.3674768">
        <ele>890.21002197</ele>
        <time>2021-03-30T11:15:05Z</time>
      </trkpt>
      <trkpt lat="42.2872292" lon="2.3675416">
        <ele>889.84997559</ele>
        <time>2021-03-30T11:15:06Z</time>
      </trkpt>
      <trkpt lat="42.2872052" lon="2.3676241">
        <ele>889.47998047</ele>
        <time>2021-03-30T11:15:07Z</time>
      </trkpt>
      <trkpt lat="42.2871921" lon="2.3676859">
        <ele>889.11999512</ele>
        <time>2021-03-30T11:15:08Z</time>
      </trkpt>
      <trkpt lat="42.2871728" lon="2.3677381">
        <ele>888.80999756</ele>
        <time>2021-03-30T11:15:09Z</time>
      </trkpt>
      <trkpt lat="42.2871713" lon="2.3677898">
        <ele>888.52001953</ele>
        <time>2021-03-30T11:15:10Z</time>
      </trkpt>
      <trkpt lat="42.2871685" lon="2.3678414">
        <ele>888.28997803</ele>
        <time>2021-03-30T11:15:11Z</time>
      </trkpt>
      <trkpt lat="42.2871625" lon="2.3679025">
        <ele>888.15997314</ele>
        <time>2021-03-30T11:15:12Z</time>
      </trkpt>
      <trkpt lat="42.2871477" lon="2.3679635">
        <ele>888.14001465</ele>
        <time>2021-03-30T11:15:13Z</time>
      </trkpt>
      <trkpt lat="42.2871301" lon="2.3680218">
        <ele>888.21002197</ele>
        <time>2021-03-30T11:15:14Z</time>
      </trkpt>
      <trkpt lat="42.2870959" lon="2.3680828">
        <ele>888.32000732</ele>
        <time>2021-03-30T11:15:15Z</time>
      </trkpt>
      <trkpt lat="42.2870513" lon="2.3681358">
        <ele>888.40997314</ele>
        <time>2021-03-30T11:15:16Z</time>
      </trkpt>
      <trkpt lat="42.2870128" lon="2.3682012">
        <ele>888.40002441</ele>
        <time>2021-03-30T11:15:17Z</time>
      </trkpt>
      <trkpt lat="42.2869824" lon="2.3682701">
        <ele>888.32000732</ele>
        <time>2021-03-30T11:15:18Z</time>
      </trkpt>
      <trkpt lat="42.286964" lon="2.3683504">
        <ele>888.16998291</ele>
        <time>2021-03-30T11:15:19Z</time>
      </trkpt>
      <trkpt lat="42.2869574" lon="2.3684325">
        <ele>888</ele>
        <time>2021-03-30T11:15:20Z</time>
      </trkpt>
      <trkpt lat="42.2869719" lon="2.3684946">
        <ele>887.84002686</ele>
        <time>2021-03-30T11:15:21Z</time>
      </trkpt>
      <trkpt lat="42.2869948" lon="2.368541">
        <ele>887.71002197</ele>
        <time>2021-03-30T11:15:22Z</time>
      </trkpt>
      <trkpt lat="42.2870345" lon="2.3685648">
        <ele>887.65002441</ele>
        <time>2021-03-30T11:15:23Z</time>
      </trkpt>
      <trkpt lat="42.2870623" lon="2.3686099">
        <ele>887.66998291</ele>
        <time>2021-03-30T11:15:24Z</time>
      </trkpt>
      <trkpt lat="42.287076" lon="2.3686563">
        <ele>887.75</ele>
        <time>2021-03-30T11:15:25Z</time>
      </trkpt>
      <trkpt lat="42.2870845" lon="2.3686942">
        <ele>887.90002441</ele>
        <time>2021-03-30T11:15:26Z</time>
      </trkpt>
      <trkpt lat="42.2870915" lon="2.3687369">
        <ele>888.08001709</ele>
        <time>2021-03-30T11:15:27Z</time>
      </trkpt>
      <trkpt lat="42.2870898" lon="2.3687752">
        <ele>888.30999756</ele>
        <time>2021-03-30T11:15:28Z</time>
      </trkpt>
      <trkpt lat="42.2870791" lon="2.3688017">
        <ele>888.53997803</ele>
        <time>2021-03-30T11:15:29Z</time>
      </trkpt>
      <trkpt lat="42.2870675" lon="2.3688242">
        <ele>888.77001953</ele>
        <time>2021-03-30T11:15:30Z</time>
      </trkpt>
      <trkpt lat="42.2870488" lon="2.3688434">
        <ele>888.98999023</ele>
        <time>2021-03-30T11:15:31Z</time>
      </trkpt>
      <trkpt lat="42.2870167" lon="2.3688546">
        <ele>889.21002197</ele>
        <time>2021-03-30T11:15:32Z</time>
      </trkpt>
      <trkpt lat="42.2869781" lon="2.3688637">
        <ele>889.40997314</ele>
        <time>2021-03-30T11:15:33Z</time>
      </trkpt>
      <trkpt lat="42.2869443" lon="2.368881">
        <ele>889.59997559</ele>
        <time>2021-03-30T11:15:34Z</time>
      </trkpt>
      <trkpt lat="42.2869084" lon="2.3688969">
        <ele>889.78997803</ele>
        <time>2021-03-30T11:15:35Z</time>
      </trkpt>
      <trkpt lat="42.2868742" lon="2.3689238">
        <ele>889.92999268</ele>
        <time>2021-03-30T11:15:36Z</time>
      </trkpt>
      <trkpt lat="42.2868551" lon="2.3689538">
        <ele>890.02001953</ele>
        <time>2021-03-30T11:15:37Z</time>
      </trkpt>
      <trkpt lat="42.2868353" lon="2.3689905">
        <ele>890.09002686</ele>
        <time>2021-03-30T11:15:38Z</time>
      </trkpt>
      <trkpt lat="42.2868161" lon="2.3690214">
        <ele>890.15002441</ele>
        <time>2021-03-30T11:15:39Z</time>
      </trkpt>
      <trkpt lat="42.2867994" lon="2.3690511">
        <ele>890.19000244</ele>
        <time>2021-03-30T11:15:40Z</time>
      </trkpt>
      <trkpt lat="42.2867838" lon="2.3690897">
        <ele>890.20001221</ele>
        <time>2021-03-30T11:15:41Z</time>
      </trkpt>
      <trkpt lat="42.2867631" lon="2.3691404">
        <ele>890.19000244</ele>
        <time>2021-03-30T11:15:42Z</time>
      </trkpt>
      <trkpt lat="42.2867493" lon="2.3692016">
        <ele>890.15002441</ele>
        <time>2021-03-30T11:15:43Z</time>
      </trkpt>
      <trkpt lat="42.2867417" lon="2.3692614">
        <ele>890.10998535</ele>
        <time>2021-03-30T11:15:44Z</time>
      </trkpt>
      <trkpt lat="42.2867294" lon="2.3693189">
        <ele>890.14001465</ele>
        <time>2021-03-30T11:15:45Z</time>
      </trkpt>
      <trkpt lat="42.2867175" lon="2.3693742">
        <ele>890.2199707</ele>
        <time>2021-03-30T11:15:46Z</time>
      </trkpt>
      <trkpt lat="42.2867018" lon="2.3694166">
        <ele>890.34997559</ele>
        <time>2021-03-30T11:15:47Z</time>
      </trkpt>
      <trkpt lat="42.2866844" lon="2.3694578">
        <ele>890.5</ele>
        <time>2021-03-30T11:15:48Z</time>
      </trkpt>
      <trkpt lat="42.2866569" lon="2.3694973">
        <ele>890.66998291</ele>
        <time>2021-03-30T11:15:49Z</time>
      </trkpt>
      <trkpt lat="42.2866431" lon="2.3695397">
        <ele>890.84997559</ele>
        <time>2021-03-30T11:15:50Z</time>
      </trkpt>
      <trkpt lat="42.286637" lon="2.36958">
        <ele>891.05999756</ele>
        <time>2021-03-30T11:15:51Z</time>
      </trkpt>
      <trkpt lat="42.2866282" lon="2.3696271">
        <ele>891.29998779</ele>
        <time>2021-03-30T11:15:52Z</time>
      </trkpt>
      <trkpt lat="42.286619" lon="2.3696659">
        <ele>891.57000732</ele>
        <time>2021-03-30T11:15:53Z</time>
      </trkpt>
      <trkpt lat="42.2866063" lon="2.3697062">
        <ele>891.84997559</ele>
        <time>2021-03-30T11:15:54Z</time>
      </trkpt>
      <trkpt lat="42.2865996" lon="2.3697478">
        <ele>892.11999512</ele>
        <time>2021-03-30T11:15:55Z</time>
      </trkpt>
      <trkpt lat="42.28659" lon="2.3697844">
        <ele>892.36999512</ele>
        <time>2021-03-30T11:15:56Z</time>
      </trkpt>
      <trkpt lat="42.286582" lon="2.3698242">
        <ele>892.59002686</ele>
        <time>2021-03-30T11:15:57Z</time>
      </trkpt>
      <trkpt lat="42.2865702" lon="2.3698701">
        <ele>892.77001953</ele>
        <time>2021-03-30T11:15:58Z</time>
      </trkpt>
      <trkpt lat="42.2865517" lon="2.3699088">
        <ele>892.92999268</ele>
        <time>2021-03-30T11:15:59Z</time>
      </trkpt>
      <trkpt lat="42.2865331" lon="2.3699402">
        <ele>893.03997803</ele>
        <time>2021-03-30T11:16:00Z</time>
      </trkpt>
      <trkpt lat="42.2865278" lon="2.3699695">
        <ele>893.13000488</ele>
        <time>2021-03-30T11:16:01Z</time>
      </trkpt>
      <trkpt lat="42.2865188" lon="2.3699996">
        <ele>893.2199707</ele>
        <time>2021-03-30T11:16:02Z</time>
      </trkpt>
      <trkpt lat="42.2865023" lon="2.3700193">
        <ele>893.30999756</ele>
        <time>2021-03-30T11:16:03Z</time>
      </trkpt>
      <trkpt lat="42.2864995" lon="2.3700467">
        <ele>893.39001465</ele>
        <time>2021-03-30T11:16:04Z</time>
      </trkpt>
      <trkpt lat="42.2864834" lon="2.3700702">
        <ele>893.47998047</ele>
        <time>2021-03-30T11:16:05Z</time>
      </trkpt>
      <trkpt lat="42.2864526" lon="2.3701078">
        <ele>893.57000732</ele>
        <time>2021-03-30T11:16:06Z</time>
      </trkpt>
      <trkpt lat="42.2864277" lon="2.3701584">
        <ele>893.65997314</ele>
        <time>2021-03-30T11:16:07Z</time>
      </trkpt>
      <trkpt lat="42.2864029" lon="2.3701903">
        <ele>893.78997803</ele>
        <time>2021-03-30T11:16:08Z</time>
      </trkpt>
      <trkpt lat="42.2863709" lon="2.3702218">
        <ele>893.96002197</ele>
        <time>2021-03-30T11:16:09Z</time>
      </trkpt>
      <trkpt lat="42.2863371" lon="2.3702564">
        <ele>894.11999512</ele>
        <time>2021-03-30T11:16:10Z</time>
      </trkpt>
      <trkpt lat="42.2862998" lon="2.370301">
        <ele>894.2800293</ele>
        <time>2021-03-30T11:16:11Z</time>
      </trkpt>
      <trkpt lat="42.286255" lon="2.3703596">
        <ele>894.38000488</ele>
        <time>2021-03-30T11:16:12Z</time>
      </trkpt>
      <trkpt lat="42.2862179" lon="2.3704118">
        <ele>894.39001465</ele>
        <time>2021-03-30T11:16:13Z</time>
      </trkpt>
      <trkpt lat="42.2861775" lon="2.3704633">
        <ele>894.32000732</ele>
        <time>2021-03-30T11:16:14Z</time>
      </trkpt>
      <trkpt lat="42.2861409" lon="2.3705204">
        <ele>894.16998291</ele>
        <time>2021-03-30T11:16:15Z</time>
      </trkpt>
      <trkpt lat="42.2861026" lon="2.3705701">
        <ele>893.96002197</ele>
        <time>2021-03-30T11:16:16Z</time>
      </trkpt>
      <trkpt lat="42.2860664" lon="2.3706336">
        <ele>893.73999023</ele>
        <time>2021-03-30T11:16:17Z</time>
      </trkpt>
      <trkpt lat="42.2860403" lon="2.3707088">
        <ele>893.63000488</ele>
        <time>2021-03-30T11:16:18Z</time>
      </trkpt>
      <trkpt lat="42.2860235" lon="2.3707981">
        <ele>893.64001465</ele>
        <time>2021-03-30T11:16:19Z</time>
      </trkpt>
      <trkpt lat="42.2860074" lon="2.3708921">
        <ele>893.75</ele>
        <time>2021-03-30T11:16:20Z</time>
      </trkpt>
      <trkpt lat="42.285993" lon="2.3709873">
        <ele>893.88000488</ele>
        <time>2021-03-30T11:16:21Z</time>
      </trkpt>
      <trkpt lat="42.2859731" lon="2.3710812">
        <ele>893.9699707</ele>
        <time>2021-03-30T11:16:22Z</time>
      </trkpt>
      <trkpt lat="42.2859557" lon="2.3711608">
        <ele>894.01000977</ele>
        <time>2021-03-30T11:16:23Z</time>
      </trkpt>
      <trkpt lat="42.2859218" lon="2.3712343">
        <ele>894.05999756</ele>
        <time>2021-03-30T11:16:24Z</time>
      </trkpt>
      <trkpt lat="42.2858912" lon="2.3712968">
        <ele>894.14001465</ele>
        <time>2021-03-30T11:16:25Z</time>
      </trkpt>
      <trkpt lat="42.2858541" lon="2.3713614">
        <ele>894.28997803</ele>
        <time>2021-03-30T11:16:26Z</time>
      </trkpt>
      <trkpt lat="42.2858201" lon="2.3714298">
        <ele>894.51000977</ele>
        <time>2021-03-30T11:16:27Z</time>
      </trkpt>
      <trkpt lat="42.2857837" lon="2.3714938">
        <ele>894.75</ele>
        <time>2021-03-30T11:16:28Z</time>
      </trkpt>
      <trkpt lat="42.2857483" lon="2.3715507">
        <ele>894.92999268</ele>
        <time>2021-03-30T11:16:29Z</time>
      </trkpt>
      <trkpt lat="42.2857115" lon="2.3715919">
        <ele>895.07000732</ele>
        <time>2021-03-30T11:16:30Z</time>
      </trkpt>
      <trkpt lat="42.2856874" lon="2.3716356">
        <ele>895.21002197</ele>
        <time>2021-03-30T11:16:31Z</time>
      </trkpt>
      <trkpt lat="42.2856622" lon="2.3716742">
        <ele>895.35998535</ele>
        <time>2021-03-30T11:16:32Z</time>
      </trkpt>
      <trkpt lat="42.2856372" lon="2.3716933">
        <ele>895.5300293</ele>
        <time>2021-03-30T11:16:33Z</time>
      </trkpt>
      <trkpt lat="42.2856091" lon="2.3717173">
        <ele>895.70001221</ele>
        <time>2021-03-30T11:16:34Z</time>
      </trkpt>
      <trkpt lat="42.285571" lon="2.3717472">
        <ele>895.85998535</ele>
        <time>2021-03-30T11:16:35Z</time>
      </trkpt>
      <trkpt lat="42.2855342" lon="2.3717772">
        <ele>895.98999023</ele>
        <time>2021-03-30T11:16:36Z</time>
      </trkpt>
      <trkpt lat="42.2854981" lon="2.371798">
        <ele>896.07000732</ele>
        <time>2021-03-30T11:16:37Z</time>
      </trkpt>
      <trkpt lat="42.2854648" lon="2.3718271">
        <ele>896.10998535</ele>
        <time>2021-03-30T11:16:38Z</time>
      </trkpt>
      <trkpt lat="42.285429" lon="2.3718554">
        <ele>896.11999512</ele>
        <time>2021-03-30T11:16:39Z</time>
      </trkpt>
      <trkpt lat="42.2853956" lon="2.3718886">
        <ele>896.13000488</ele>
        <time>2021-03-30T11:16:40Z</time>
      </trkpt>
      <trkpt lat="42.28536" lon="2.3719215">
        <ele>896.15002441</ele>
        <time>2021-03-30T11:16:41Z</time>
      </trkpt>
      <trkpt lat="42.2853223" lon="2.3719648">
        <ele>896.20001221</ele>
        <time>2021-03-30T11:16:42Z</time>
      </trkpt>
      <trkpt lat="42.2852898" lon="2.3719986">
        <ele>896.32000732</ele>
        <time>2021-03-30T11:16:43Z</time>
      </trkpt>
      <trkpt lat="42.2852587" lon="2.3720491">
        <ele>896.48999023</ele>
        <time>2021-03-30T11:16:44Z</time>
      </trkpt>
      <trkpt lat="42.2852247" lon="2.3720925">
        <ele>896.55999756</ele>
        <time>2021-03-30T11:16:45Z</time>
      </trkpt>
      <trkpt lat="42.2851974" lon="2.3721221">
        <ele>896.90997314</ele>
        <time>2021-03-30T11:16:46Z</time>
      </trkpt>
      <trkpt lat="42.2851707" lon="2.3721593">
        <ele>897.29998779</ele>
        <time>2021-03-30T11:16:47Z</time>
      </trkpt>
      <trkpt lat="42.2851332" lon="2.3721791">
        <ele>897.7199707</ele>
        <time>2021-03-30T11:16:48Z</time>
      </trkpt>
      <trkpt lat="42.2850974" lon="2.3722033">
        <ele>898.14001465</ele>
        <time>2021-03-30T11:16:49Z</time>
      </trkpt>
      <trkpt lat="42.2850699" lon="2.3722392">
        <ele>898.55999756</ele>
        <time>2021-03-30T11:16:50Z</time>
      </trkpt>
      <trkpt lat="42.2850271" lon="2.3722632">
        <ele>898.97998047</ele>
        <time>2021-03-30T11:16:51Z</time>
      </trkpt>
      <trkpt lat="42.2849862" lon="2.3722862">
        <ele>899.34997559</ele>
        <time>2021-03-30T11:16:52Z</time>
      </trkpt>
      <trkpt lat="42.2849477" lon="2.3723195">
        <ele>899.67999268</ele>
        <time>2021-03-30T11:16:53Z</time>
      </trkpt>
      <trkpt lat="42.2849056" lon="2.372345">
        <ele>899.9699707</ele>
        <time>2021-03-30T11:16:54Z</time>
      </trkpt>
      <trkpt lat="42.2848637" lon="2.3723762">
        <ele>900.22998047</ele>
        <time>2021-03-30T11:16:55Z</time>
      </trkpt>
      <trkpt lat="42.284814" lon="2.3724092">
        <ele>900.46002197</ele>
        <time>2021-03-30T11:16:56Z</time>
      </trkpt>
      <trkpt lat="42.2847689" lon="2.3724346">
        <ele>900.66998291</ele>
        <time>2021-03-30T11:16:57Z</time>
      </trkpt>
      <trkpt lat="42.2847315" lon="2.3724697">
        <ele>900.84997559</ele>
        <time>2021-03-30T11:16:58Z</time>
      </trkpt>
      <trkpt lat="42.2846936" lon="2.3725023">
        <ele>901.01000977</ele>
        <time>2021-03-30T11:16:59Z</time>
      </trkpt>
      <trkpt lat="42.2846643" lon="2.3725327">
        <ele>901.15997314</ele>
        <time>2021-03-30T11:17:00Z</time>
      </trkpt>
      <trkpt lat="42.2846287" lon="2.3725657">
        <ele>901.34997559</ele>
        <time>2021-03-30T11:17:01Z</time>
      </trkpt>
      <trkpt lat="42.2845929" lon="2.3725979">
        <ele>901.59002686</ele>
        <time>2021-03-30T11:17:02Z</time>
      </trkpt>
      <trkpt lat="42.2845599" lon="2.3726335">
        <ele>901.86999512</ele>
        <time>2021-03-30T11:17:03Z</time>
      </trkpt>
      <trkpt lat="42.28453" lon="2.3726559">
        <ele>902.20001221</ele>
        <time>2021-03-30T11:17:04Z</time>
      </trkpt>
      <trkpt lat="42.2845143" lon="2.3726914">
        <ele>902.5300293</ele>
        <time>2021-03-30T11:17:05Z</time>
      </trkpt>
      <trkpt lat="42.2844913" lon="2.3727253">
        <ele>902.90997314</ele>
        <time>2021-03-30T11:17:06Z</time>
      </trkpt>
      <trkpt lat="42.2844821" lon="2.3727689">
        <ele>903.30999756</ele>
        <time>2021-03-30T11:17:07Z</time>
      </trkpt>
      <trkpt lat="42.2844698" lon="2.372814">
        <ele>903.76000977</ele>
        <time>2021-03-30T11:17:08Z</time>
      </trkpt>
      <trkpt lat="42.2844547" lon="2.3728523">
        <ele>904.19000244</ele>
        <time>2021-03-30T11:17:09Z</time>
      </trkpt>
      <trkpt lat="42.2844379" lon="2.3728928">
        <ele>904.57000732</ele>
        <time>2021-03-30T11:17:10Z</time>
      </trkpt>
      <trkpt lat="42.2844233" lon="2.3729321">
        <ele>904.90997314</ele>
        <time>2021-03-30T11:17:11Z</time>
      </trkpt>
      <trkpt lat="42.2844048" lon="2.3729668">
        <ele>905.2199707</ele>
        <time>2021-03-30T11:17:12Z</time>
      </trkpt>
      <trkpt lat="42.2843925" lon="2.3730016">
        <ele>905.48999023</ele>
        <time>2021-03-30T11:17:13Z</time>
      </trkpt>
      <trkpt lat="42.2843793" lon="2.3730326">
        <ele>905.72998047</ele>
        <time>2021-03-30T11:17:14Z</time>
      </trkpt>
      <trkpt lat="42.2843649" lon="2.3730567">
        <ele>905.95001221</ele>
        <time>2021-03-30T11:17:15Z</time>
      </trkpt>
      <trkpt lat="42.2843572" lon="2.3730826">
        <ele>906.15002441</ele>
        <time>2021-03-30T11:17:16Z</time>
      </trkpt>
      <trkpt lat="42.2843533" lon="2.3731149">
        <ele>906.34997559</ele>
        <time>2021-03-30T11:17:17Z</time>
      </trkpt>
      <trkpt lat="42.2843496" lon="2.3731522">
        <ele>906.58001709</ele>
        <time>2021-03-30T11:17:18Z</time>
      </trkpt>
      <trkpt lat="42.2843369" lon="2.3731963">
        <ele>906.84002686</ele>
        <time>2021-03-30T11:17:19Z</time>
      </trkpt>
      <trkpt lat="42.2843343" lon="2.3732236">
        <ele>907.10998535</ele>
        <time>2021-03-30T11:17:20Z</time>
      </trkpt>
      <trkpt lat="42.2843181" lon="2.3732646">
        <ele>907.39001465</ele>
        <time>2021-03-30T11:17:21Z</time>
      </trkpt>
      <trkpt lat="42.2843073" lon="2.3733026">
        <ele>907.65997314</ele>
        <time>2021-03-30T11:17:22Z</time>
      </trkpt>
      <trkpt lat="42.2842919" lon="2.3733414">
        <ele>907.92999268</ele>
        <time>2021-03-30T11:17:23Z</time>
      </trkpt>
      <trkpt lat="42.2842799" lon="2.373375">
        <ele>908.17999268</ele>
        <time>2021-03-30T11:17:24Z</time>
      </trkpt>
      <trkpt lat="42.2842673" lon="2.3734075">
        <ele>908.41998291</ele>
        <time>2021-03-30T11:17:25Z</time>
      </trkpt>
      <trkpt lat="42.284265" lon="2.3734475">
        <ele>908.65997314</ele>
        <time>2021-03-30T11:17:26Z</time>
      </trkpt>
      <trkpt lat="42.28426" lon="2.3734874">
        <ele>908.90997314</ele>
        <time>2021-03-30T11:17:27Z</time>
      </trkpt>
      <trkpt lat="42.2842561" lon="2.3735415">
        <ele>909.19000244</ele>
        <time>2021-03-30T11:17:28Z</time>
      </trkpt>
      <trkpt lat="42.284252" lon="2.3735711">
        <ele>909.51000977</ele>
        <time>2021-03-30T11:17:29Z</time>
      </trkpt>
      <trkpt lat="42.2842446" lon="2.3736055">
        <ele>909.84002686</ele>
        <time>2021-03-30T11:17:30Z</time>
      </trkpt>
      <trkpt lat="42.2842359" lon="2.3736392">
        <ele>910.17999268</ele>
        <time>2021-03-30T11:17:31Z</time>
      </trkpt>
      <trkpt lat="42.2842263" lon="2.3736722">
        <ele>910.51000977</ele>
        <time>2021-03-30T11:17:32Z</time>
      </trkpt>
      <trkpt lat="42.2842191" lon="2.3737099">
        <ele>910.82000732</ele>
        <time>2021-03-30T11:17:33Z</time>
      </trkpt>
      <trkpt lat="42.2842112" lon="2.3737552">
        <ele>911.10998535</ele>
        <time>2021-03-30T11:17:34Z</time>
      </trkpt>
      <trkpt lat="42.2842045" lon="2.3738002">
        <ele>911.36999512</ele>
        <time>2021-03-30T11:17:35Z</time>
      </trkpt>
      <trkpt lat="42.2842006" lon="2.3738534">
        <ele>911.61999512</ele>
        <time>2021-03-30T11:17:36Z</time>
      </trkpt>
      <trkpt lat="42.2842005" lon="2.3739102">
        <ele>911.84002686</ele>
        <time>2021-03-30T11:17:37Z</time>
      </trkpt>
      <trkpt lat="42.2842043" lon="2.3739568">
        <ele>912.04998779</ele>
        <time>2021-03-30T11:17:38Z</time>
      </trkpt>
      <trkpt lat="42.284212" lon="2.3739924">
        <ele>912.25</ele>
        <time>2021-03-30T11:17:39Z</time>
      </trkpt>
      <trkpt lat="42.2842181" lon="2.374038">
        <ele>912.44000244</ele>
        <time>2021-03-30T11:17:40Z</time>
      </trkpt>
      <trkpt lat="42.2842265" lon="2.3740833">
        <ele>912.61999512</ele>
        <time>2021-03-30T11:17:41Z</time>
      </trkpt>
      <trkpt lat="42.284236" lon="2.374137">
        <ele>912.79998779</ele>
        <time>2021-03-30T11:17:42Z</time>
      </trkpt>
      <trkpt lat="42.2842442" lon="2.3741851">
        <ele>912.97998047</ele>
        <time>2021-03-30T11:17:43Z</time>
      </trkpt>
      <trkpt lat="42.2842514" lon="2.3742353">
        <ele>913.15997314</ele>
        <time>2021-03-30T11:17:44Z</time>
      </trkpt>
      <trkpt lat="42.2842552" lon="2.374277">
        <ele>913.33001709</ele>
        <time>2021-03-30T11:17:45Z</time>
      </trkpt>
      <trkpt lat="42.2842577" lon="2.3743157">
        <ele>913.48999023</ele>
        <time>2021-03-30T11:17:46Z</time>
      </trkpt>
      <trkpt lat="42.28426" lon="2.3743569">
        <ele>913.65002441</ele>
        <time>2021-03-30T11:17:47Z</time>
      </trkpt>
      <trkpt lat="42.2842653" lon="2.3743962">
        <ele>913.78997803</ele>
        <time>2021-03-30T11:17:48Z</time>
      </trkpt>
      <trkpt lat="42.2842714" lon="2.3744365">
        <ele>913.91998291</ele>
        <time>2021-03-30T11:17:49Z</time>
      </trkpt>
      <trkpt lat="42.2842693" lon="2.3744833">
        <ele>914.04998779</ele>
        <time>2021-03-30T11:17:50Z</time>
      </trkpt>
      <trkpt lat="42.2842627" lon="2.3745323">
        <ele>914.16998291</ele>
        <time>2021-03-30T11:17:51Z</time>
      </trkpt>
      <trkpt lat="42.2842473" lon="2.3745887">
        <ele>914.26000977</ele>
        <time>2021-03-30T11:17:52Z</time>
      </trkpt>
      <trkpt lat="42.2842297" lon="2.3746501">
        <ele>914.30999756</ele>
        <time>2021-03-30T11:17:53Z</time>
      </trkpt>
      <trkpt lat="42.2842062" lon="2.3747192">
        <ele>914.32000732</ele>
        <time>2021-03-30T11:17:54Z</time>
      </trkpt>
      <trkpt lat="42.2841834" lon="2.374781">
        <ele>914.2800293</ele>
        <time>2021-03-30T11:17:55Z</time>
      </trkpt>
      <trkpt lat="42.284158" lon="2.3748384">
        <ele>914.20001221</ele>
        <time>2021-03-30T11:17:56Z</time>
      </trkpt>
      <trkpt lat="42.2841491" lon="2.3748937">
        <ele>914.09002686</ele>
        <time>2021-03-30T11:17:57Z</time>
      </trkpt>
      <trkpt lat="42.2841332" lon="2.3749339">
        <ele>913.98999023</ele>
        <time>2021-03-30T11:17:58Z</time>
      </trkpt>
      <trkpt lat="42.2841193" lon="2.3749815">
        <ele>913.90002441</ele>
        <time>2021-03-30T11:17:59Z</time>
      </trkpt>
      <trkpt lat="42.2840838" lon="2.3750197">
        <ele>913.82000732</ele>
        <time>2021-03-30T11:18:00Z</time>
      </trkpt>
      <trkpt lat="42.2840648" lon="2.3750426">
        <ele>913.73999023</ele>
        <time>2021-03-30T11:18:01Z</time>
      </trkpt>
      <trkpt lat="42.2840447" lon="2.3750581">
        <ele>913.67999268</ele>
        <time>2021-03-30T11:18:02Z</time>
      </trkpt>
      <trkpt lat="42.2840307" lon="2.3750362">
        <ele>913.61999512</ele>
        <time>2021-03-30T11:18:03Z</time>
      </trkpt>
      <trkpt lat="42.2840144" lon="2.3750012">
        <ele>913.57000732</ele>
        <time>2021-03-30T11:18:04Z</time>
      </trkpt>
      <trkpt lat="42.2839964" lon="2.3749594">
        <ele>913.52001953</ele>
        <time>2021-03-30T11:18:05Z</time>
      </trkpt>
      <trkpt lat="42.2839808" lon="2.3748961">
        <ele>913.47998047</ele>
        <time>2021-03-30T11:18:06Z</time>
      </trkpt>
      <trkpt lat="42.2839685" lon="2.3748415">
        <ele>913.44000244</ele>
        <time>2021-03-30T11:18:07Z</time>
      </trkpt>
      <trkpt lat="42.2839524" lon="2.3747875">
        <ele>913.40997314</ele>
        <time>2021-03-30T11:18:08Z</time>
      </trkpt>
      <trkpt lat="42.2839417" lon="2.3747325">
        <ele>913.38000488</ele>
        <time>2021-03-30T11:18:09Z</time>
      </trkpt>
      <trkpt lat="42.2839277" lon="2.3746797">
        <ele>913.35998535</ele>
        <time>2021-03-30T11:18:10Z</time>
      </trkpt>
      <trkpt lat="42.2839105" lon="2.3746357">
        <ele>913.26000977</ele>
        <time>2021-03-30T11:18:11Z</time>
      </trkpt>
      <trkpt lat="42.2839027" lon="2.3746091">
        <ele>913.09002686</ele>
        <time>2021-03-30T11:18:12Z</time>
      </trkpt>
      <trkpt lat="42.2838939" lon="2.3745832">
        <ele>912.88000488</ele>
        <time>2021-03-30T11:18:13Z</time>
      </trkpt>
      <trkpt lat="42.283884" lon="2.3745555">
        <ele>912.63000488</ele>
        <time>2021-03-30T11:18:14Z</time>
      </trkpt>
      <trkpt lat="42.2838816" lon="2.3745448">
        <ele>912.34997559</ele>
        <time>2021-03-30T11:18:15Z</time>
      </trkpt>
      <trkpt lat="42.2838758" lon="2.374529">
        <ele>912.08001709</ele>
        <time>2021-03-30T11:18:16Z</time>
      </trkpt>
      <trkpt lat="42.2838663" lon="2.374516">
        <ele>911.82000732</ele>
        <time>2021-03-30T11:18:17Z</time>
      </trkpt>
      <trkpt lat="42.2838486" lon="2.3745044">
        <ele>911.58001709</ele>
        <time>2021-03-30T11:18:18Z</time>
      </trkpt>
      <trkpt lat="42.283836" lon="2.3744949">
        <ele>911.38000488</ele>
        <time>2021-03-30T11:18:19Z</time>
      </trkpt>
      <trkpt lat="42.2838318" lon="2.3744638">
        <ele>911.20001221</ele>
        <time>2021-03-30T11:18:20Z</time>
      </trkpt>
      <trkpt lat="42.2838219" lon="2.3744383">
        <ele>911</ele>
        <time>2021-03-30T11:18:21Z</time>
      </trkpt>
      <trkpt lat="42.2838063" lon="2.3744114">
        <ele>910.78997803</ele>
        <time>2021-03-30T11:18:22Z</time>
      </trkpt>
      <trkpt lat="42.2837813" lon="2.374375">
        <ele>910.60998535</ele>
        <time>2021-03-30T11:18:23Z</time>
      </trkpt>
      <trkpt lat="42.2837611" lon="2.3743414">
        <ele>910.4699707</ele>
        <time>2021-03-30T11:18:24Z</time>
      </trkpt>
      <trkpt lat="42.2837392" lon="2.3743021">
        <ele>910.34002686</ele>
        <time>2021-03-30T11:18:25Z</time>
      </trkpt>
      <trkpt lat="42.2837162" lon="2.3742814">
        <ele>910.2199707</ele>
        <time>2021-03-30T11:18:26Z</time>
      </trkpt>
      <trkpt lat="42.2836975" lon="2.3742509">
        <ele>910.09997559</ele>
        <time>2021-03-30T11:18:27Z</time>
      </trkpt>
      <trkpt lat="42.2836958" lon="2.3742209">
        <ele>909.9699707</ele>
        <time>2021-03-30T11:18:28Z</time>
      </trkpt>
      <trkpt lat="42.2836781" lon="2.374187">
        <ele>909.82000732</ele>
        <time>2021-03-30T11:18:29Z</time>
      </trkpt>
      <trkpt lat="42.2836645" lon="2.3741554">
        <ele>909.63000488</ele>
        <time>2021-03-30T11:18:30Z</time>
      </trkpt>
      <trkpt lat="42.2836474" lon="2.3741164">
        <ele>909.42999268</ele>
        <time>2021-03-30T11:18:31Z</time>
      </trkpt>
      <trkpt lat="42.2836265" lon="2.3740684">
        <ele>909.25</ele>
        <time>2021-03-30T11:18:32Z</time>
      </trkpt>
      <trkpt lat="42.2836023" lon="2.3740176">
        <ele>909.09002686</ele>
        <time>2021-03-30T11:18:33Z</time>
      </trkpt>
      <trkpt lat="42.2835727" lon="2.3739759">
        <ele>908.9699707</ele>
        <time>2021-03-30T11:18:34Z</time>
      </trkpt>
      <trkpt lat="42.2835335" lon="2.3739283">
        <ele>908.92999268</ele>
        <time>2021-03-30T11:18:35Z</time>
      </trkpt>
      <trkpt lat="42.2834967" lon="2.3738906">
        <ele>908.97998047</ele>
        <time>2021-03-30T11:18:36Z</time>
      </trkpt>
      <trkpt lat="42.2834558" lon="2.3738517">
        <ele>909.08001709</ele>
        <time>2021-03-30T11:18:37Z</time>
      </trkpt>
      <trkpt lat="42.2834198" lon="2.3738052">
        <ele>909.19000244</ele>
        <time>2021-03-30T11:18:38Z</time>
      </trkpt>
      <trkpt lat="42.2833797" lon="2.3737633">
        <ele>909.26000977</ele>
        <time>2021-03-30T11:18:39Z</time>
      </trkpt>
      <trkpt lat="42.2833411" lon="2.3737117">
        <ele>909.32000732</ele>
        <time>2021-03-30T11:18:40Z</time>
      </trkpt>
      <trkpt lat="42.2832963" lon="2.3736582">
        <ele>909.34997559</ele>
        <time>2021-03-30T11:18:41Z</time>
      </trkpt>
      <trkpt lat="42.2832556" lon="2.3735956">
        <ele>909.34997559</ele>
        <time>2021-03-30T11:18:42Z</time>
      </trkpt>
      <trkpt lat="42.2832121" lon="2.3735486">
        <ele>909.30999756</ele>
        <time>2021-03-30T11:18:43Z</time>
      </trkpt>
      <trkpt lat="42.2831674" lon="2.3735094">
        <ele>909.27001953</ele>
        <time>2021-03-30T11:18:44Z</time>
      </trkpt>
      <trkpt lat="42.2831379" lon="2.3734695">
        <ele>909.23999023</ele>
        <time>2021-03-30T11:18:45Z</time>
      </trkpt>
      <trkpt lat="42.283096" lon="2.3734322">
        <ele>909.19000244</ele>
        <time>2021-03-30T11:18:46Z</time>
      </trkpt>
      <trkpt lat="42.2830621" lon="2.3733916">
        <ele>909.15997314</ele>
        <time>2021-03-30T11:18:47Z</time>
      </trkpt>
      <trkpt lat="42.2830246" lon="2.3733537">
        <ele>909.11999512</ele>
        <time>2021-03-30T11:18:48Z</time>
      </trkpt>
      <trkpt lat="42.2829805" lon="2.3733256">
        <ele>909.08001709</ele>
        <time>2021-03-30T11:18:49Z</time>
      </trkpt>
      <trkpt lat="42.2829271" lon="2.373306">
        <ele>909.07000732</ele>
        <time>2021-03-30T11:18:50Z</time>
      </trkpt>
      <trkpt lat="42.2828787" lon="2.3732741">
        <ele>909.13000488</ele>
        <time>2021-03-30T11:18:51Z</time>
      </trkpt>
      <trkpt lat="42.2828256" lon="2.3732567">
        <ele>909.2199707</ele>
        <time>2021-03-30T11:18:52Z</time>
      </trkpt>
      <trkpt lat="42.2827891" lon="2.3732286">
        <ele>909.38000488</ele>
        <time>2021-03-30T11:18:53Z</time>
      </trkpt>
      <trkpt lat="42.2827362" lon="2.3732166">
        <ele>909.53997803</ele>
        <time>2021-03-30T11:18:54Z</time>
      </trkpt>
      <trkpt lat="42.282696" lon="2.3731978">
        <ele>909.67999268</ele>
        <time>2021-03-30T11:18:55Z</time>
      </trkpt>
      <trkpt lat="42.2826591" lon="2.3731858">
        <ele>909.7800293</ele>
        <time>2021-03-30T11:18:56Z</time>
      </trkpt>
      <trkpt lat="42.2826261" lon="2.373176">
        <ele>909.83001709</ele>
        <time>2021-03-30T11:18:57Z</time>
      </trkpt>
      <trkpt lat="42.2825881" lon="2.3731642">
        <ele>909.85998535</ele>
        <time>2021-03-30T11:18:58Z</time>
      </trkpt>
      <trkpt lat="42.2825515" lon="2.3731504">
        <ele>909.85998535</ele>
        <time>2021-03-30T11:18:59Z</time>
      </trkpt>
      <trkpt lat="42.2825067" lon="2.3731343">
        <ele>909.84002686</ele>
        <time>2021-03-30T11:19:00Z</time>
      </trkpt>
      <trkpt lat="42.2824546" lon="2.3731094">
        <ele>909.7800293</ele>
        <time>2021-03-30T11:19:01Z</time>
      </trkpt>
      <trkpt lat="42.2823952" lon="2.3731012">
        <ele>909.77001953</ele>
        <time>2021-03-30T11:19:02Z</time>
      </trkpt>
      <trkpt lat="42.2823457" lon="2.3730915">
        <ele>909.84997559</ele>
        <time>2021-03-30T11:19:03Z</time>
      </trkpt>
      <trkpt lat="42.2822994" lon="2.3730846">
        <ele>910.01000977</ele>
        <time>2021-03-30T11:19:04Z</time>
      </trkpt>
      <trkpt lat="42.2822605" lon="2.3730642">
        <ele>910.23999023</ele>
        <time>2021-03-30T11:19:05Z</time>
      </trkpt>
      <trkpt lat="42.2822257" lon="2.3730484">
        <ele>910.48999023</ele>
        <time>2021-03-30T11:19:06Z</time>
      </trkpt>
      <trkpt lat="42.2821803" lon="2.3730289">
        <ele>910.75</ele>
        <time>2021-03-30T11:19:07Z</time>
      </trkpt>
      <trkpt lat="42.282136" lon="2.3730141">
        <ele>910.95001221</ele>
        <time>2021-03-30T11:19:08Z</time>
      </trkpt>
      <trkpt lat="42.2820905" lon="2.3730081">
        <ele>911.09997559</ele>
        <time>2021-03-30T11:19:09Z</time>
      </trkpt>
      <trkpt lat="42.2820557" lon="2.3730048">
        <ele>911.22998047</ele>
        <time>2021-03-30T11:19:10Z</time>
      </trkpt>
      <trkpt lat="42.2820253" lon="2.3730063">
        <ele>911.33001709</ele>
        <time>2021-03-30T11:19:11Z</time>
      </trkpt>
      <trkpt lat="42.2819811" lon="2.3730007">
        <ele>911.41998291</ele>
        <time>2021-03-30T11:19:12Z</time>
      </trkpt>
      <trkpt lat="42.2819344" lon="2.3729958">
        <ele>911.48999023</ele>
        <time>2021-03-30T11:19:13Z</time>
      </trkpt>
      <trkpt lat="42.2818916" lon="2.3729908">
        <ele>911.53997803</ele>
        <time>2021-03-30T11:19:14Z</time>
      </trkpt>
      <trkpt lat="42.2818577" lon="2.3729857">
        <ele>911.58001709</ele>
        <time>2021-03-30T11:19:15Z</time>
      </trkpt>
      <trkpt lat="42.2818133" lon="2.372988">
        <ele>911.60998535</ele>
        <time>2021-03-30T11:19:16Z</time>
      </trkpt>
      <trkpt lat="42.2817767" lon="2.3729861">
        <ele>911.63000488</ele>
        <time>2021-03-30T11:19:17Z</time>
      </trkpt>
      <trkpt lat="42.2817473" lon="2.3729811">
        <ele>911.65002441</ele>
        <time>2021-03-30T11:19:18Z</time>
      </trkpt>
      <trkpt lat="42.2817164" lon="2.3729807">
        <ele>911.65002441</ele>
        <time>2021-03-30T11:19:19Z</time>
      </trkpt>
      <trkpt lat="42.2816871" lon="2.3729734">
        <ele>911.65997314</ele>
        <time>2021-03-30T11:19:20Z</time>
      </trkpt>
      <trkpt lat="42.2816527" lon="2.3729708">
        <ele>911.65002441</ele>
        <time>2021-03-30T11:19:21Z</time>
      </trkpt>
      <trkpt lat="42.2816109" lon="2.3729651">
        <ele>911.63000488</ele>
        <time>2021-03-30T11:19:22Z</time>
      </trkpt>
      <trkpt lat="42.2815665" lon="2.3729599">
        <ele>911.60998535</ele>
        <time>2021-03-30T11:19:23Z</time>
      </trkpt>
      <trkpt lat="42.2815194" lon="2.372954">
        <ele>911.57000732</ele>
        <time>2021-03-30T11:19:24Z</time>
      </trkpt>
      <trkpt lat="42.2814763" lon="2.3729478">
        <ele>911.5300293</ele>
        <time>2021-03-30T11:19:25Z</time>
      </trkpt>
      <trkpt lat="42.2814323" lon="2.3729347">
        <ele>911.47998047</ele>
        <time>2021-03-30T11:19:26Z</time>
      </trkpt>
      <trkpt lat="42.2813966" lon="2.3729223">
        <ele>911.40997314</ele>
        <time>2021-03-30T11:19:27Z</time>
      </trkpt>
      <trkpt lat="42.2813605" lon="2.3729141">
        <ele>911.32000732</ele>
        <time>2021-03-30T11:19:28Z</time>
      </trkpt>
      <trkpt lat="42.2813196" lon="2.3728995">
        <ele>911.2199707</ele>
        <time>2021-03-30T11:19:29Z</time>
      </trkpt>
      <trkpt lat="42.2812744" lon="2.3728886">
        <ele>911.10998535</ele>
        <time>2021-03-30T11:19:30Z</time>
      </trkpt>
      <trkpt lat="42.2812351" lon="2.3728712">
        <ele>910.97998047</ele>
        <time>2021-03-30T11:19:31Z</time>
      </trkpt>
      <trkpt lat="42.2811942" lon="2.372865">
        <ele>910.83001709</ele>
        <time>2021-03-30T11:19:32Z</time>
      </trkpt>
      <trkpt lat="42.2811536" lon="2.372857">
        <ele>910.67999268</ele>
        <time>2021-03-30T11:19:33Z</time>
      </trkpt>
      <trkpt lat="42.2811155" lon="2.372848">
        <ele>910.5300293</ele>
        <time>2021-03-30T11:19:34Z</time>
      </trkpt>
      <trkpt lat="42.281078" lon="2.3728419">
        <ele>910.38000488</ele>
        <time>2021-03-30T11:19:35Z</time>
      </trkpt>
      <trkpt lat="42.2810315" lon="2.372833">
        <ele>910.23999023</ele>
        <time>2021-03-30T11:19:36Z</time>
      </trkpt>
      <trkpt lat="42.2809838" lon="2.3728258">
        <ele>910.08001709</ele>
        <time>2021-03-30T11:19:37Z</time>
      </trkpt>
      <trkpt lat="42.2809366" lon="2.3728199">
        <ele>909.94000244</ele>
        <time>2021-03-30T11:19:38Z</time>
      </trkpt>
      <trkpt lat="42.2808839" lon="2.3728089">
        <ele>909.78997803</ele>
        <time>2021-03-30T11:19:39Z</time>
      </trkpt>
      <trkpt lat="42.2808317" lon="2.3728099">
        <ele>909.64001465</ele>
        <time>2021-03-30T11:19:40Z</time>
      </trkpt>
      <trkpt lat="42.2807813" lon="2.3728106">
        <ele>909.5</ele>
        <time>2021-03-30T11:19:41Z</time>
      </trkpt>
      <trkpt lat="42.2807432" lon="2.3728177">
        <ele>909.2800293</ele>
        <time>2021-03-30T11:19:42Z</time>
      </trkpt>
      <trkpt lat="42.2807045" lon="2.3728194">
        <ele>909.02001953</ele>
        <time>2021-03-30T11:19:43Z</time>
      </trkpt>
      <trkpt lat="42.2806635" lon="2.3728362">
        <ele>908.71002197</ele>
        <time>2021-03-30T11:19:44Z</time>
      </trkpt>
      <trkpt lat="42.2806233" lon="2.3728639">
        <ele>908.38000488</ele>
        <time>2021-03-30T11:19:45Z</time>
      </trkpt>
      <trkpt lat="42.2805828" lon="2.3728785">
        <ele>908.04998779</ele>
        <time>2021-03-30T11:19:46Z</time>
      </trkpt>
      <trkpt lat="42.2805283" lon="2.3728912">
        <ele>907.71002197</ele>
        <time>2021-03-30T11:19:47Z</time>
      </trkpt>
      <trkpt lat="42.2804831" lon="2.372901">
        <ele>907.38000488</ele>
        <time>2021-03-30T11:19:48Z</time>
      </trkpt>
      <trkpt lat="42.2804396" lon="2.3729068">
        <ele>907.09002686</ele>
        <time>2021-03-30T11:19:49Z</time>
      </trkpt>
      <trkpt lat="42.2804005" lon="2.3729127">
        <ele>906.84997559</ele>
        <time>2021-03-30T11:19:50Z</time>
      </trkpt>
      <trkpt lat="42.2803514" lon="2.3729219">
        <ele>906.65002441</ele>
        <time>2021-03-30T11:19:51Z</time>
      </trkpt>
      <trkpt lat="42.2803022" lon="2.3729292">
        <ele>906.48999023</ele>
        <time>2021-03-30T11:19:52Z</time>
      </trkpt>
      <trkpt lat="42.2802352" lon="2.3729339">
        <ele>906.35998535</ele>
        <time>2021-03-30T11:19:53Z</time>
      </trkpt>
      <trkpt lat="42.2801723" lon="2.3729497">
        <ele>906.16998291</ele>
        <time>2021-03-30T11:19:54Z</time>
      </trkpt>
      <trkpt lat="42.2801172" lon="2.3729648">
        <ele>905.90997314</ele>
        <time>2021-03-30T11:19:55Z</time>
      </trkpt>
      <trkpt lat="42.280055" lon="2.3729751">
        <ele>905.59002686</ele>
        <time>2021-03-30T11:19:56Z</time>
      </trkpt>
      <trkpt lat="42.2799791" lon="2.3729825">
        <ele>905.20001221</ele>
        <time>2021-03-30T11:19:57Z</time>
      </trkpt>
      <trkpt lat="42.279894" lon="2.3729879">
        <ele>904.73999023</ele>
        <time>2021-03-30T11:19:58Z</time>
      </trkpt>
      <trkpt lat="42.2798221" lon="2.3729964">
        <ele>904.29998779</ele>
        <time>2021-03-30T11:19:59Z</time>
      </trkpt>
      <trkpt lat="42.279764" lon="2.3730013">
        <ele>903.89001465</ele>
        <time>2021-03-30T11:20:00Z</time>
      </trkpt>
      <trkpt lat="42.2796817" lon="2.3730132">
        <ele>903.51000977</ele>
        <time>2021-03-30T11:20:01Z</time>
      </trkpt>
      <trkpt lat="42.2796012" lon="2.373021">
        <ele>903.14001465</ele>
        <time>2021-03-30T11:20:02Z</time>
      </trkpt>
      <trkpt lat="42.2795271" lon="2.373025">
        <ele>902.70001221</ele>
        <time>2021-03-30T11:20:03Z</time>
      </trkpt>
      <trkpt lat="42.2794467" lon="2.3730317">
        <ele>902.19000244</ele>
        <time>2021-03-30T11:20:04Z</time>
      </trkpt>
      <trkpt lat="42.2793581" lon="2.3730441">
        <ele>901.59997559</ele>
        <time>2021-03-30T11:20:05Z</time>
      </trkpt>
      <trkpt lat="42.2792849" lon="2.3730732">
        <ele>900.90997314</ele>
        <time>2021-03-30T11:20:06Z</time>
      </trkpt>
      <trkpt lat="42.2792192" lon="2.3731192">
        <ele>900.22998047</ele>
        <time>2021-03-30T11:20:07Z</time>
      </trkpt>
      <trkpt lat="42.2791616" lon="2.3731655">
        <ele>899.66998291</ele>
        <time>2021-03-30T11:20:08Z</time>
      </trkpt>
      <trkpt lat="42.279095" lon="2.3731855">
        <ele>899.25</ele>
        <time>2021-03-30T11:20:09Z</time>
      </trkpt>
      <trkpt lat="42.2790219" lon="2.3731934">
        <ele>898.96002197</ele>
        <time>2021-03-30T11:20:10Z</time>
      </trkpt>
      <trkpt lat="42.2789537" lon="2.3731992">
        <ele>898.73999023</ele>
        <time>2021-03-30T11:20:11Z</time>
      </trkpt>
      <trkpt lat="42.2788988" lon="2.3732124">
        <ele>898.55999756</ele>
        <time>2021-03-30T11:20:12Z</time>
      </trkpt>
      <trkpt lat="42.2788503" lon="2.3732175">
        <ele>898.46002197</ele>
        <time>2021-03-30T11:20:13Z</time>
      </trkpt>
      <trkpt lat="42.278798" lon="2.3732222">
        <ele>898.35998535</ele>
        <time>2021-03-30T11:20:14Z</time>
      </trkpt>
      <trkpt lat="42.2787344" lon="2.3732363">
        <ele>898.25</ele>
        <time>2021-03-30T11:20:15Z</time>
      </trkpt>
      <trkpt lat="42.2786642" lon="2.3732469">
        <ele>898.17999268</ele>
        <time>2021-03-30T11:20:16Z</time>
      </trkpt>
      <trkpt lat="42.2785895" lon="2.3732607">
        <ele>898.11999512</ele>
        <time>2021-03-30T11:20:17Z</time>
      </trkpt>
      <trkpt lat="42.2785193" lon="2.3732872">
        <ele>898.10998535</ele>
        <time>2021-03-30T11:20:18Z</time>
      </trkpt>
      <trkpt lat="42.2784569" lon="2.3733009">
        <ele>898.15002441</ele>
        <time>2021-03-30T11:20:19Z</time>
      </trkpt>
      <trkpt lat="42.2783895" lon="2.3733102">
        <ele>898.39001465</ele>
        <time>2021-03-30T11:20:20Z</time>
      </trkpt>
      <trkpt lat="42.2783285" lon="2.3733154">
        <ele>898.67999268</ele>
        <time>2021-03-30T11:20:21Z</time>
      </trkpt>
      <trkpt lat="42.2782596" lon="2.3733118">
        <ele>898.97998047</ele>
        <time>2021-03-30T11:20:22Z</time>
      </trkpt>
      <trkpt lat="42.2781966" lon="2.3732881">
        <ele>899.2199707</ele>
        <time>2021-03-30T11:20:23Z</time>
      </trkpt>
      <trkpt lat="42.2781392" lon="2.3732569">
        <ele>899.25</ele>
        <time>2021-03-30T11:20:24Z</time>
      </trkpt>
      <trkpt lat="42.2780887" lon="2.3732258">
        <ele>899.2199707</ele>
        <time>2021-03-30T11:20:25Z</time>
      </trkpt>
      <trkpt lat="42.2780279" lon="2.3731975">
        <ele>899.14001465</ele>
        <time>2021-03-30T11:20:26Z</time>
      </trkpt>
      <trkpt lat="42.2779632" lon="2.3731792">
        <ele>899.01000977</ele>
        <time>2021-03-30T11:20:27Z</time>
      </trkpt>
      <trkpt lat="42.2778968" lon="2.3731638">
        <ele>898.41998291</ele>
        <time>2021-03-30T11:20:28Z</time>
      </trkpt>
      <trkpt lat="42.277834" lon="2.3731533">
        <ele>897.89001465</ele>
        <time>2021-03-30T11:20:29Z</time>
      </trkpt>
      <trkpt lat="42.2777878" lon="2.373143">
        <ele>897.4699707</ele>
        <time>2021-03-30T11:20:30Z</time>
      </trkpt>
      <trkpt lat="42.2777353" lon="2.373135">
        <ele>897.15002441</ele>
        <time>2021-03-30T11:20:31Z</time>
      </trkpt>
      <trkpt lat="42.2776679" lon="2.3731297">
        <ele>896.90997314</ele>
        <time>2021-03-30T11:20:32Z</time>
      </trkpt>
      <trkpt lat="42.2776057" lon="2.3731308">
        <ele>896.79998779</ele>
        <time>2021-03-30T11:20:33Z</time>
      </trkpt>
      <trkpt lat="42.2775656" lon="2.3731277">
        <ele>896.79998779</ele>
        <time>2021-03-30T11:20:34Z</time>
      </trkpt>
      <trkpt lat="42.2775371" lon="2.3731234">
        <ele>896.86999512</ele>
        <time>2021-03-30T11:20:35Z</time>
      </trkpt>
      <trkpt lat="42.2774964" lon="2.3731174">
        <ele>896.96002197</ele>
        <time>2021-03-30T11:20:36Z</time>
      </trkpt>
      <trkpt lat="42.2774483" lon="2.3731219">
        <ele>897.08001709</ele>
        <time>2021-03-30T11:20:37Z</time>
      </trkpt>
      <trkpt lat="42.2774091" lon="2.3731251">
        <ele>897.10998535</ele>
        <time>2021-03-30T11:20:38Z</time>
      </trkpt>
      <trkpt lat="42.2773761" lon="2.3731397">
        <ele>897.05999756</ele>
        <time>2021-03-30T11:20:39Z</time>
      </trkpt>
      <trkpt lat="42.2773166" lon="2.3731651">
        <ele>896.9699707</ele>
        <time>2021-03-30T11:20:40Z</time>
      </trkpt>
      <trkpt lat="42.277264" lon="2.3731841">
        <ele>896.82000732</ele>
        <time>2021-03-30T11:20:41Z</time>
      </trkpt>
      <trkpt lat="42.2772284" lon="2.3732192">
        <ele>896.61999512</ele>
        <time>2021-03-30T11:20:42Z</time>
      </trkpt>
      <trkpt lat="42.2771999" lon="2.3732582">
        <ele>896.42999268</ele>
        <time>2021-03-30T11:20:43Z</time>
      </trkpt>
      <trkpt lat="42.2771821" lon="2.373299">
        <ele>896.2800293</ele>
        <time>2021-03-30T11:20:44Z</time>
      </trkpt>
      <trkpt lat="42.2771675" lon="2.3733392">
        <ele>896.19000244</ele>
        <time>2021-03-30T11:20:45Z</time>
      </trkpt>
      <trkpt lat="42.2771566" lon="2.3733796">
        <ele>896.15997314</ele>
        <time>2021-03-30T11:20:46Z</time>
      </trkpt>
      <trkpt lat="42.2771545" lon="2.3734195">
        <ele>896.10998535</ele>
        <time>2021-03-30T11:20:47Z</time>
      </trkpt>
      <trkpt lat="42.2771416" lon="2.3734538">
        <ele>896.05999756</ele>
        <time>2021-03-30T11:20:48Z</time>
      </trkpt>
      <trkpt lat="42.277125" lon="2.3734944">
        <ele>895.98999023</ele>
        <time>2021-03-30T11:20:49Z</time>
      </trkpt>
      <trkpt lat="42.2771143" lon="2.3735322">
        <ele>895.90002441</ele>
        <time>2021-03-30T11:20:50Z</time>
      </trkpt>
      <trkpt lat="42.2771048" lon="2.3735731">
        <ele>895.78997803</ele>
        <time>2021-03-30T11:20:51Z</time>
      </trkpt>
      <trkpt lat="42.2770931" lon="2.3736197">
        <ele>895.66998291</ele>
        <time>2021-03-30T11:20:52Z</time>
      </trkpt>
      <trkpt lat="42.2770823" lon="2.3736857">
        <ele>895.54998779</ele>
        <time>2021-03-30T11:20:53Z</time>
      </trkpt>
      <trkpt lat="42.2770731" lon="2.3737371">
        <ele>895.47998047</ele>
        <time>2021-03-30T11:20:54Z</time>
      </trkpt>
      <trkpt lat="42.277065" lon="2.3737858">
        <ele>895.45001221</ele>
        <time>2021-03-30T11:20:55Z</time>
      </trkpt>
      <trkpt lat="42.2770446" lon="2.3738233">
        <ele>895.44000244</ele>
        <time>2021-03-30T11:20:56Z</time>
      </trkpt>
      <trkpt lat="42.2770403" lon="2.3738767">
        <ele>895.40002441</ele>
        <time>2021-03-30T11:20:57Z</time>
      </trkpt>
      <trkpt lat="42.2770345" lon="2.3739313">
        <ele>895.38000488</ele>
        <time>2021-03-30T11:20:58Z</time>
      </trkpt>
      <trkpt lat="42.2770274" lon="2.3739953">
        <ele>895.40002441</ele>
        <time>2021-03-30T11:20:59Z</time>
      </trkpt>
      <trkpt lat="42.2770122" lon="2.3740678">
        <ele>895.47998047</ele>
        <time>2021-03-30T11:21:00Z</time>
      </trkpt>
      <trkpt lat="42.2770073" lon="2.3741368">
        <ele>895.61999512</ele>
        <time>2021-03-30T11:21:01Z</time>
      </trkpt>
      <trkpt lat="42.2770084" lon="2.3741866">
        <ele>895.84002686</ele>
        <time>2021-03-30T11:21:02Z</time>
      </trkpt>
      <trkpt lat="42.2769973" lon="2.3742481">
        <ele>896.09002686</ele>
        <time>2021-03-30T11:21:03Z</time>
      </trkpt>
      <trkpt lat="42.2769866" lon="2.3743007">
        <ele>896.28997803</ele>
        <time>2021-03-30T11:21:04Z</time>
      </trkpt>
      <trkpt lat="42.2769737" lon="2.3743446">
        <ele>896.46002197</ele>
        <time>2021-03-30T11:21:05Z</time>
      </trkpt>
      <trkpt lat="42.276958" lon="2.3743807">
        <ele>896.58001709</ele>
        <time>2021-03-30T11:21:06Z</time>
      </trkpt>
      <trkpt lat="42.2769322" lon="2.3744087">
        <ele>896.65002441</ele>
        <time>2021-03-30T11:21:07Z</time>
      </trkpt>
      <trkpt lat="42.2768958" lon="2.3744131">
        <ele>896.69000244</ele>
        <time>2021-03-30T11:21:08Z</time>
      </trkpt>
      <trkpt lat="42.2768612" lon="2.3743948">
        <ele>896.7199707</ele>
        <time>2021-03-30T11:21:09Z</time>
      </trkpt>
      <trkpt lat="42.2768308" lon="2.3743645">
        <ele>896.73999023</ele>
        <time>2021-03-30T11:21:10Z</time>
      </trkpt>
      <trkpt lat="42.2768216" lon="2.3743421">
        <ele>896.77001953</ele>
        <time>2021-03-30T11:21:11Z</time>
      </trkpt>
      <trkpt lat="42.2768118" lon="2.3742962">
        <ele>896.78997803</ele>
        <time>2021-03-30T11:21:12Z</time>
      </trkpt>
      <trkpt lat="42.2767983" lon="2.3742693">
        <ele>896.80999756</ele>
        <time>2021-03-30T11:21:13Z</time>
      </trkpt>
      <trkpt lat="42.2767856" lon="2.3742446">
        <ele>896.82000732</ele>
        <time>2021-03-30T11:21:14Z</time>
      </trkpt>
      <trkpt lat="42.2767781" lon="2.3742258">
        <ele>896.84002686</ele>
        <time>2021-03-30T11:21:15Z</time>
      </trkpt>
      <trkpt lat="42.2767722" lon="2.3742008">
        <ele>896.84997559</ele>
        <time>2021-03-30T11:21:16Z</time>
      </trkpt>
      <trkpt lat="42.2767627" lon="2.3741661">
        <ele>896.86999512</ele>
        <time>2021-03-30T11:21:17Z</time>
      </trkpt>
      <trkpt lat="42.2767305" lon="2.3741565">
        <ele>896.88000488</ele>
        <time>2021-03-30T11:21:18Z</time>
      </trkpt>
      <trkpt lat="42.2767013" lon="2.3741249">
        <ele>896.86999512</ele>
        <time>2021-03-30T11:21:19Z</time>
      </trkpt>
      <trkpt lat="42.2766583" lon="2.3741161">
        <ele>896.79998779</ele>
        <time>2021-03-30T11:21:20Z</time>
      </trkpt>
      <trkpt lat="42.2766193" lon="2.374113">
        <ele>896.71002197</ele>
        <time>2021-03-30T11:21:21Z</time>
      </trkpt>
      <trkpt lat="42.2765832" lon="2.3741278">
        <ele>896.63000488</ele>
        <time>2021-03-30T11:21:22Z</time>
      </trkpt>
      <trkpt lat="42.2765503" lon="2.3741484">
        <ele>896.58001709</ele>
        <time>2021-03-30T11:21:23Z</time>
      </trkpt>
      <trkpt lat="42.2765197" lon="2.374152">
        <ele>896.58001709</ele>
        <time>2021-03-30T11:21:24Z</time>
      </trkpt>
      <trkpt lat="42.2764848" lon="2.3741573">
        <ele>896.59002686</ele>
        <time>2021-03-30T11:21:25Z</time>
      </trkpt>
      <trkpt lat="42.2764495" lon="2.3741689">
        <ele>896.60998535</ele>
        <time>2021-03-30T11:21:26Z</time>
      </trkpt>
      <trkpt lat="42.2764109" lon="2.3741715">
        <ele>896.65002441</ele>
        <time>2021-03-30T11:21:27Z</time>
      </trkpt>
      <trkpt lat="42.2763736" lon="2.3741612">
        <ele>896.69000244</ele>
        <time>2021-03-30T11:21:28Z</time>
      </trkpt>
      <trkpt lat="42.2763247" lon="2.3741568">
        <ele>896.73999023</ele>
        <time>2021-03-30T11:21:29Z</time>
      </trkpt>
      <trkpt lat="42.2762708" lon="2.3741366">
        <ele>896.86999512</ele>
        <time>2021-03-30T11:21:30Z</time>
      </trkpt>
      <trkpt lat="42.2762183" lon="2.3741088">
        <ele>897.04998779</ele>
        <time>2021-03-30T11:21:31Z</time>
      </trkpt>
      <trkpt lat="42.2761755" lon="2.3740716">
        <ele>897.27001953</ele>
        <time>2021-03-30T11:21:32Z</time>
      </trkpt>
      <trkpt lat="42.2761402" lon="2.3740372">
        <ele>897.48999023</ele>
        <time>2021-03-30T11:21:33Z</time>
      </trkpt>
      <trkpt lat="42.276102" lon="2.3740013">
        <ele>897.67999268</ele>
        <time>2021-03-30T11:21:34Z</time>
      </trkpt>
      <trkpt lat="42.2760677" lon="2.3739791">
        <ele>897.86999512</ele>
        <time>2021-03-30T11:21:35Z</time>
      </trkpt>
      <trkpt lat="42.2760374" lon="2.3739444">
        <ele>898.09997559</ele>
        <time>2021-03-30T11:21:36Z</time>
      </trkpt>
      <trkpt lat="42.2760086" lon="2.3738983">
        <ele>898.36999512</ele>
        <time>2021-03-30T11:21:37Z</time>
      </trkpt>
      <trkpt lat="42.2759874" lon="2.373845">
        <ele>898.65002441</ele>
        <time>2021-03-30T11:21:38Z</time>
      </trkpt>
      <trkpt lat="42.2759844" lon="2.3737983">
        <ele>898.97998047</ele>
        <time>2021-03-30T11:21:39Z</time>
      </trkpt>
      <trkpt lat="42.2759696" lon="2.3737504">
        <ele>899.28997803</ele>
        <time>2021-03-30T11:21:40Z</time>
      </trkpt>
      <trkpt lat="42.2759626" lon="2.3737118">
        <ele>899.61999512</ele>
        <time>2021-03-30T11:21:41Z</time>
      </trkpt>
      <trkpt lat="42.2759591" lon="2.3736685">
        <ele>899.95001221</ele>
        <time>2021-03-30T11:21:42Z</time>
      </trkpt>
      <trkpt lat="42.2759594" lon="2.3736291">
        <ele>900.27001953</ele>
        <time>2021-03-30T11:21:43Z</time>
      </trkpt>
      <trkpt lat="42.2759592" lon="2.3735826">
        <ele>900.53997803</ele>
        <time>2021-03-30T11:21:44Z</time>
      </trkpt>
      <trkpt lat="42.2759648" lon="2.373539">
        <ele>900.76000977</ele>
        <time>2021-03-30T11:21:45Z</time>
      </trkpt>
      <trkpt lat="42.2759654" lon="2.3735091">
        <ele>900.89001465</ele>
        <time>2021-03-30T11:21:46Z</time>
      </trkpt>
      <trkpt lat="42.2759731" lon="2.3734711">
        <ele>900.9699707</ele>
        <time>2021-03-30T11:21:47Z</time>
      </trkpt>
      <trkpt lat="42.2759788" lon="2.3734313">
        <ele>900.97998047</ele>
        <time>2021-03-30T11:21:48Z</time>
      </trkpt>
      <trkpt lat="42.2759787" lon="2.373387">
        <ele>900.92999268</ele>
        <time>2021-03-30T11:21:49Z</time>
      </trkpt>
      <trkpt lat="42.2759718" lon="2.3733474">
        <ele>900.84002686</ele>
        <time>2021-03-30T11:21:50Z</time>
      </trkpt>
      <trkpt lat="42.275968" lon="2.3733137">
        <ele>900.72998047</ele>
        <time>2021-03-30T11:21:51Z</time>
      </trkpt>
      <trkpt lat="42.275962" lon="2.3732832">
        <ele>900.60998535</ele>
        <time>2021-03-30T11:21:52Z</time>
      </trkpt>
      <trkpt lat="42.2759545" lon="2.3732385">
        <ele>900.47998047</ele>
        <time>2021-03-30T11:21:53Z</time>
      </trkpt>
      <trkpt lat="42.2759467" lon="2.3731981">
        <ele>900.34002686</ele>
        <time>2021-03-30T11:21:54Z</time>
      </trkpt>
      <trkpt lat="42.2759438" lon="2.3731635">
        <ele>900.21002197</ele>
        <time>2021-03-30T11:21:55Z</time>
      </trkpt>
      <trkpt lat="42.2759405" lon="2.3731237">
        <ele>900.07000732</ele>
        <time>2021-03-30T11:21:56Z</time>
      </trkpt>
      <trkpt lat="42.2759412" lon="2.3730793">
        <ele>899.92999268</ele>
        <time>2021-03-30T11:21:57Z</time>
      </trkpt>
      <trkpt lat="42.2759311" lon="2.3730302">
        <ele>899.76000977</ele>
        <time>2021-03-30T11:21:58Z</time>
      </trkpt>
      <trkpt lat="42.2759187" lon="2.372957">
        <ele>899.58001709</ele>
        <time>2021-03-30T11:21:59Z</time>
      </trkpt>
      <trkpt lat="42.2759175" lon="2.3728756">
        <ele>899.33001709</ele>
        <time>2021-03-30T11:22:00Z</time>
      </trkpt>
      <trkpt lat="42.2759053" lon="2.3728131">
        <ele>899.2199707</ele>
        <time>2021-03-30T11:22:01Z</time>
      </trkpt>
      <trkpt lat="42.2758974" lon="2.3727432">
        <ele>898.76000977</ele>
        <time>2021-03-30T11:22:02Z</time>
      </trkpt>
      <trkpt lat="42.2758817" lon="2.3726774">
        <ele>898.21002197</ele>
        <time>2021-03-30T11:22:03Z</time>
      </trkpt>
      <trkpt lat="42.2758693" lon="2.3726063">
        <ele>897.65002441</ele>
        <time>2021-03-30T11:22:04Z</time>
      </trkpt>
      <trkpt lat="42.2758491" lon="2.3725317">
        <ele>897.04998779</ele>
        <time>2021-03-30T11:22:05Z</time>
      </trkpt>
      <trkpt lat="42.2758177" lon="2.372459">
        <ele>896.45001221</ele>
        <time>2021-03-30T11:22:06Z</time>
      </trkpt>
      <trkpt lat="42.2757761" lon="2.3723948">
        <ele>895.82000732</ele>
        <time>2021-03-30T11:22:07Z</time>
      </trkpt>
      <trkpt lat="42.275734" lon="2.3723305">
        <ele>895.20001221</ele>
        <time>2021-03-30T11:22:08Z</time>
      </trkpt>
      <trkpt lat="42.2756976" lon="2.372263">
        <ele>894.64001465</ele>
        <time>2021-03-30T11:22:09Z</time>
      </trkpt>
      <trkpt lat="42.2756628" lon="2.3722176">
        <ele>894.11999512</ele>
        <time>2021-03-30T11:22:10Z</time>
      </trkpt>
      <trkpt lat="42.2756351" lon="2.3721818">
        <ele>893.72998047</ele>
        <time>2021-03-30T11:22:11Z</time>
      </trkpt>
      <trkpt lat="42.2755946" lon="2.3721388">
        <ele>893.42999268</ele>
        <time>2021-03-30T11:22:12Z</time>
      </trkpt>
      <trkpt lat="42.2755551" lon="2.3720877">
        <ele>893.22998047</ele>
        <time>2021-03-30T11:22:13Z</time>
      </trkpt>
      <trkpt lat="42.2755147" lon="2.3720404">
        <ele>893.07000732</ele>
        <time>2021-03-30T11:22:14Z</time>
      </trkpt>
      <trkpt lat="42.2754742" lon="2.3719889">
        <ele>892.90002441</ele>
        <time>2021-03-30T11:22:15Z</time>
      </trkpt>
      <trkpt lat="42.2754364" lon="2.3719541">
        <ele>892.71002197</ele>
        <time>2021-03-30T11:22:16Z</time>
      </trkpt>
      <trkpt lat="42.2754031" lon="2.3719073">
        <ele>892.53997803</ele>
        <time>2021-03-30T11:22:17Z</time>
      </trkpt>
      <trkpt lat="42.2753607" lon="2.3718807">
        <ele>892.34997559</ele>
        <time>2021-03-30T11:22:18Z</time>
      </trkpt>
      <trkpt lat="42.2753213" lon="2.3718562">
        <ele>892.2199707</ele>
        <time>2021-03-30T11:22:19Z</time>
      </trkpt>
      <trkpt lat="42.2752698" lon="2.3718243">
        <ele>892.17999268</ele>
        <time>2021-03-30T11:22:20Z</time>
      </trkpt>
      <trkpt lat="42.2752231" lon="2.3717884">
        <ele>892.21002197</ele>
        <time>2021-03-30T11:22:21Z</time>
      </trkpt>
      <trkpt lat="42.2751948" lon="2.3717494">
        <ele>892.29998779</ele>
        <time>2021-03-30T11:22:22Z</time>
      </trkpt>
      <trkpt lat="42.2751555" lon="2.3717291">
        <ele>892.34002686</ele>
        <time>2021-03-30T11:22:23Z</time>
      </trkpt>
      <trkpt lat="42.2751239" lon="2.3716989">
        <ele>892.44000244</ele>
        <time>2021-03-30T11:22:24Z</time>
      </trkpt>
      <trkpt lat="42.275097" lon="2.3716705">
        <ele>892.53997803</ele>
        <time>2021-03-30T11:22:25Z</time>
      </trkpt>
      <trkpt lat="42.2750754" lon="2.3716473">
        <ele>892.63000488</ele>
        <time>2021-03-30T11:22:26Z</time>
      </trkpt>
      <trkpt lat="42.2750528" lon="2.3716215">
        <ele>892.70001221</ele>
        <time>2021-03-30T11:22:27Z</time>
      </trkpt>
      <trkpt lat="42.2750161" lon="2.3715846">
        <ele>892.75</ele>
        <time>2021-03-30T11:22:28Z</time>
      </trkpt>
      <trkpt lat="42.2749822" lon="2.3715459">
        <ele>892.78997803</ele>
        <time>2021-03-30T11:22:29Z</time>
      </trkpt>
      <trkpt lat="42.2749453" lon="2.3715113">
        <ele>892.84997559</ele>
        <time>2021-03-30T11:22:30Z</time>
      </trkpt>
      <trkpt lat="42.2749145" lon="2.371464">
        <ele>892.97998047</ele>
        <time>2021-03-30T11:22:31Z</time>
      </trkpt>
      <trkpt lat="42.2748782" lon="2.3714188">
        <ele>893.09002686</ele>
        <time>2021-03-30T11:22:32Z</time>
      </trkpt>
      <trkpt lat="42.2748333" lon="2.3713754">
        <ele>893.22998047</ele>
        <time>2021-03-30T11:22:33Z</time>
      </trkpt>
      <trkpt lat="42.274793" lon="2.3713479">
        <ele>893.45001221</ele>
        <time>2021-03-30T11:22:34Z</time>
      </trkpt>
      <trkpt lat="42.2747615" lon="2.3713197">
        <ele>893.53997803</ele>
        <time>2021-03-30T11:22:35Z</time>
      </trkpt>
      <trkpt lat="42.274733" lon="2.3712784">
        <ele>893.95001221</ele>
        <time>2021-03-30T11:22:36Z</time>
      </trkpt>
      <trkpt lat="42.2747053" lon="2.3712281">
        <ele>894.34002686</ele>
        <time>2021-03-30T11:22:37Z</time>
      </trkpt>
      <trkpt lat="42.2746787" lon="2.3711895">
        <ele>894.63000488</ele>
        <time>2021-03-30T11:22:38Z</time>
      </trkpt>
      <trkpt lat="42.2746392" lon="2.3711482">
        <ele>894.82000732</ele>
        <time>2021-03-30T11:22:39Z</time>
      </trkpt>
      <trkpt lat="42.274608" lon="2.3711091">
        <ele>894.97998047</ele>
        <time>2021-03-30T11:22:40Z</time>
      </trkpt>
      <trkpt lat="42.2745775" lon="2.3710742">
        <ele>895.09002686</ele>
        <time>2021-03-30T11:22:41Z</time>
      </trkpt>
      <trkpt lat="42.2745411" lon="2.3710268">
        <ele>895.15997314</ele>
        <time>2021-03-30T11:22:42Z</time>
      </trkpt>
      <trkpt lat="42.2745156" lon="2.3709779">
        <ele>895.19000244</ele>
        <time>2021-03-30T11:22:43Z</time>
      </trkpt>
      <trkpt lat="42.2744935" lon="2.3709329">
        <ele>895.10998535</ele>
        <time>2021-03-30T11:22:44Z</time>
      </trkpt>
      <trkpt lat="42.274467" lon="2.3708719">
        <ele>894.95001221</ele>
        <time>2021-03-30T11:22:45Z</time>
      </trkpt>
      <trkpt lat="42.2744478" lon="2.3708044">
        <ele>894.88000488</ele>
        <time>2021-03-30T11:22:46Z</time>
      </trkpt>
      <trkpt lat="42.2744195" lon="2.3707451">
        <ele>894.76000977</ele>
        <time>2021-03-30T11:22:47Z</time>
      </trkpt>
      <trkpt lat="42.2743805" lon="2.3706961">
        <ele>894.61999512</ele>
        <time>2021-03-30T11:22:48Z</time>
      </trkpt>
      <trkpt lat="42.2743351" lon="2.3706594">
        <ele>893.97998047</ele>
        <time>2021-03-30T11:22:49Z</time>
      </trkpt>
      <trkpt lat="42.2742978" lon="2.370615">
        <ele>893.52001953</ele>
        <time>2021-03-30T11:22:50Z</time>
      </trkpt>
      <trkpt lat="42.2742511" lon="2.3705876">
        <ele>893.21002197</ele>
        <time>2021-03-30T11:22:51Z</time>
      </trkpt>
      <trkpt lat="42.2741908" lon="2.3705739">
        <ele>893.16998291</ele>
        <time>2021-03-30T11:22:52Z</time>
      </trkpt>
      <trkpt lat="42.2741385" lon="2.3705464">
        <ele>893.17999268</ele>
        <time>2021-03-30T11:22:53Z</time>
      </trkpt>
      <trkpt lat="42.2740901" lon="2.3705231">
        <ele>893.65002441</ele>
        <time>2021-03-30T11:22:54Z</time>
      </trkpt>
      <trkpt lat="42.2740486" lon="2.3704809">
        <ele>894.03997803</ele>
        <time>2021-03-30T11:22:55Z</time>
      </trkpt>
      <trkpt lat="42.2740101" lon="2.3704237">
        <ele>894.09997559</ele>
        <time>2021-03-30T11:22:56Z</time>
      </trkpt>
      <trkpt lat="42.2739755" lon="2.3703673">
        <ele>894.09002686</ele>
        <time>2021-03-30T11:22:57Z</time>
      </trkpt>
      <trkpt lat="42.2739326" lon="2.3703187">
        <ele>897.69000244</ele>
        <time>2021-03-30T11:22:58Z</time>
      </trkpt>
      <trkpt lat="42.2738779" lon="2.3702824">
        <ele>900.45001221</ele>
        <time>2021-03-30T11:22:59Z</time>
      </trkpt>
      <trkpt lat="42.2738126" lon="2.3702638">
        <ele>902.5</ele>
        <time>2021-03-30T11:23:00Z</time>
      </trkpt>
      <trkpt lat="42.2737477" lon="2.3702495">
        <ele>903.98999023</ele>
        <time>2021-03-30T11:23:01Z</time>
      </trkpt>
      <trkpt lat="42.2736857" lon="2.3702347">
        <ele>905.03997803</ele>
        <time>2021-03-30T11:23:02Z</time>
      </trkpt>
      <trkpt lat="42.2736239" lon="2.3701964">
        <ele>905.70001221</ele>
        <time>2021-03-30T11:23:03Z</time>
      </trkpt>
      <trkpt lat="42.2735562" lon="2.3701577">
        <ele>894.79998779</ele>
        <time>2021-03-30T11:23:04Z</time>
      </trkpt>
      <trkpt lat="42.273487" lon="2.3701186">
        <ele>893.32000732</ele>
        <time>2021-03-30T11:23:05Z</time>
      </trkpt>
      <trkpt lat="42.2734043" lon="2.3700455">
        <ele>892.73999023</ele>
        <time>2021-03-30T11:23:06Z</time>
      </trkpt>
      <trkpt lat="42.2733269" lon="2.3699725">
        <ele>892.5300293</ele>
        <time>2021-03-30T11:23:07Z</time>
      </trkpt>
      <trkpt lat="42.2732366" lon="2.3699133">
        <ele>892.28997803</ele>
        <time>2021-03-30T11:23:08Z</time>
      </trkpt>
      <trkpt lat="42.2731558" lon="2.3698572">
        <ele>891.13000488</ele>
        <time>2021-03-30T11:23:09Z</time>
      </trkpt>
      <trkpt lat="42.2730791" lon="2.3698115">
        <ele>889.89001465</ele>
        <time>2021-03-30T11:23:10Z</time>
      </trkpt>
      <trkpt lat="42.2730001" lon="2.3698111">
        <ele>889.51000977</ele>
        <time>2021-03-30T11:23:11Z</time>
      </trkpt>
      <trkpt lat="42.2729397" lon="2.3698102">
        <ele>888.25</ele>
        <time>2021-03-30T11:23:12Z</time>
      </trkpt>
      <trkpt lat="42.2729085" lon="2.3698288">
        <ele>887.03997803</ele>
        <time>2021-03-30T11:23:13Z</time>
      </trkpt>
      <trkpt lat="42.2728655" lon="2.3698417">
        <ele>886.04998779</ele>
        <time>2021-03-30T11:23:14Z</time>
      </trkpt>
      <trkpt lat="42.272819" lon="2.3698531">
        <ele>885.20001221</ele>
        <time>2021-03-30T11:23:15Z</time>
      </trkpt>
      <trkpt lat="42.2727666" lon="2.3698507">
        <ele>884.41998291</ele>
        <time>2021-03-30T11:23:16Z</time>
      </trkpt>
      <trkpt lat="42.272719" lon="2.3698568">
        <ele>883.65002441</ele>
        <time>2021-03-30T11:23:17Z</time>
      </trkpt>
      <trkpt lat="42.27269" lon="2.3698705">
        <ele>882.94000244</ele>
        <time>2021-03-30T11:23:18Z</time>
      </trkpt>
      <trkpt lat="42.2726473" lon="2.369883">
        <ele>882.30999756</ele>
        <time>2021-03-30T11:23:19Z</time>
      </trkpt>
      <trkpt lat="42.2726312" lon="2.3698843">
        <ele>881.77001953</ele>
        <time>2021-03-30T11:23:20Z</time>
      </trkpt>
      <trkpt lat="42.2726005" lon="2.3698813">
        <ele>881.2800293</ele>
        <time>2021-03-30T11:23:21Z</time>
      </trkpt>
      <trkpt lat="42.2725897" lon="2.3698789">
        <ele>880.80999756</ele>
        <time>2021-03-30T11:23:22Z</time>
      </trkpt>
      <trkpt lat="42.272589" lon="2.3698698">
        <ele>880.36999512</ele>
        <time>2021-03-30T11:23:23Z</time>
      </trkpt>
      <trkpt lat="42.272518" lon="2.3697986">
        <ele>873.36999512</ele>
        <time>2021-03-30T11:26:47Z</time>
      </trkpt>
      <trkpt lat="42.272505" lon="2.3697973">
        <ele>873.23999023</ele>
        <time>2021-03-30T11:26:48Z</time>
      </trkpt>
      <trkpt lat="42.2724927" lon="2.3697963">
        <ele>873.02001953</ele>
        <time>2021-03-30T11:26:49Z</time>
      </trkpt>
      <trkpt lat="42.272481" lon="2.369793">
        <ele>872.90002441</ele>
        <time>2021-03-30T11:26:50Z</time>
      </trkpt>
      <trkpt lat="42.2724654" lon="2.3697855">
        <ele>872.77001953</ele>
        <time>2021-03-30T11:26:51Z</time>
      </trkpt>
      <trkpt lat="42.2724475" lon="2.369778">
        <ele>872.48999023</ele>
        <time>2021-03-30T11:26:52Z</time>
      </trkpt>
      <trkpt lat="42.2724364" lon="2.3697646">
        <ele>872.21002197</ele>
        <time>2021-03-30T11:26:53Z</time>
      </trkpt>
      <trkpt lat="42.2724228" lon="2.3697652">
        <ele>871.71002197</ele>
        <time>2021-03-30T11:26:54Z</time>
      </trkpt>
      <trkpt lat="42.2723999" lon="2.3697695">
        <ele>871.67999268</ele>
        <time>2021-03-30T11:26:55Z</time>
      </trkpt>
      <trkpt lat="42.2723877" lon="2.3697699">
        <ele>871.82000732</ele>
        <time>2021-03-30T11:26:56Z</time>
      </trkpt>
      <trkpt lat="42.2723747" lon="2.3697669">
        <ele>871.84997559</ele>
        <time>2021-03-30T11:26:57Z</time>
      </trkpt>
      <trkpt lat="42.2723593" lon="2.3697767">
        <ele>871.75</ele>
        <time>2021-03-30T11:26:58Z</time>
      </trkpt>
      <trkpt lat="42.2723414" lon="2.3697839">
        <ele>872.09002686</ele>
        <time>2021-03-30T11:26:59Z</time>
      </trkpt>
      <trkpt lat="42.2723204" lon="2.3697917">
        <ele>872.36999512</ele>
        <time>2021-03-30T11:27:00Z</time>
      </trkpt>
      <trkpt lat="42.2723016" lon="2.3698038">
        <ele>872.66998291</ele>
        <time>2021-03-30T11:27:01Z</time>
      </trkpt>
      <trkpt lat="42.2722795" lon="2.3698168">
        <ele>873.11999512</ele>
        <time>2021-03-30T11:27:02Z</time>
      </trkpt>
      <trkpt lat="42.2722605" lon="2.3698148">
        <ele>873.61999512</ele>
        <time>2021-03-30T11:27:03Z</time>
      </trkpt>
      <trkpt lat="42.2722363" lon="2.3698144">
        <ele>873.60998535</ele>
        <time>2021-03-30T11:27:04Z</time>
      </trkpt>
      <trkpt lat="42.27222" lon="2.369816">
        <ele>873.59002686</ele>
        <time>2021-03-30T11:27:05Z</time>
      </trkpt>
      <trkpt lat="42.2721901" lon="2.3698221">
        <ele>873.65002441</ele>
        <time>2021-03-30T11:27:06Z</time>
      </trkpt>
      <trkpt lat="42.2721676" lon="2.3698198">
        <ele>874.05999756</ele>
        <time>2021-03-30T11:27:07Z</time>
      </trkpt>
      <trkpt lat="42.2721536" lon="2.369817">
        <ele>874.15997314</ele>
        <time>2021-03-30T11:27:08Z</time>
      </trkpt>
      <trkpt lat="42.2721377" lon="2.3698122">
        <ele>874.14001465</ele>
        <time>2021-03-30T11:27:09Z</time>
      </trkpt>
      <trkpt lat="42.2721172" lon="2.3698167">
        <ele>874.03997803</ele>
        <time>2021-03-30T11:27:10Z</time>
      </trkpt>
      <trkpt lat="42.2721008" lon="2.3698167">
        <ele>874.34002686</ele>
        <time>2021-03-30T11:27:11Z</time>
      </trkpt>
      <trkpt lat="42.2720834" lon="2.3698217">
        <ele>874.46002197</ele>
        <time>2021-03-30T11:27:12Z</time>
      </trkpt>
      <trkpt lat="42.2720706" lon="2.3698203">
        <ele>874.79998779</ele>
        <time>2021-03-30T11:27:13Z</time>
      </trkpt>
      <trkpt lat="42.272057" lon="2.3698203">
        <ele>874.84997559</ele>
        <time>2021-03-30T11:27:14Z</time>
      </trkpt>
      <trkpt lat="42.2720387" lon="2.3698159">
        <ele>874.94000244</ele>
        <time>2021-03-30T11:27:15Z</time>
      </trkpt>
      <trkpt lat="42.2720275" lon="2.3698184">
        <ele>874.85998535</ele>
        <time>2021-03-30T11:27:16Z</time>
      </trkpt>
      <trkpt lat="42.2720211" lon="2.3698126">
        <ele>875.0300293</ele>
        <time>2021-03-30T11:27:17Z</time>
      </trkpt>
      <trkpt lat="42.2720078" lon="2.369799">
        <ele>874.80999756</ele>
        <time>2021-03-30T11:27:18Z</time>
      </trkpt>
      <trkpt lat="42.2719876" lon="2.3697913">
        <ele>874.20001221</ele>
        <time>2021-03-30T11:27:19Z</time>
      </trkpt>
      <trkpt lat="42.2719724" lon="2.3697693">
        <ele>873.85998535</ele>
        <time>2021-03-30T11:27:20Z</time>
      </trkpt>
      <trkpt lat="42.2719582" lon="2.3697595">
        <ele>872.7800293</ele>
        <time>2021-03-30T11:27:21Z</time>
      </trkpt>
      <trkpt lat="42.2719523" lon="2.3697536">
        <ele>872.21002197</ele>
        <time>2021-03-30T11:27:22Z</time>
      </trkpt>
      <trkpt lat="42.2719669" lon="2.369797">
        <ele>894.5</ele>
        <time>2021-03-30T11:27:53Z</time>
      </trkpt>
      <trkpt lat="42.2719575" lon="2.3697935">
        <ele>876.27001953</ele>
        <time>2021-03-30T11:27:54Z</time>
      </trkpt>
      <trkpt lat="42.2719465" lon="2.3697789">
        <ele>874.30999756</ele>
        <time>2021-03-30T11:27:55Z</time>
      </trkpt>
      <trkpt lat="42.2719268" lon="2.3697571">
        <ele>873.40002441</ele>
        <time>2021-03-30T11:27:56Z</time>
      </trkpt>
      <trkpt lat="42.2719054" lon="2.3697381">
        <ele>872.45001221</ele>
        <time>2021-03-30T11:27:57Z</time>
      </trkpt>
      <trkpt lat="42.2718847" lon="2.3697239">
        <ele>871.72998047</ele>
        <time>2021-03-30T11:27:58Z</time>
      </trkpt>
      <trkpt lat="42.2718572" lon="2.3697181">
        <ele>871.29998779</ele>
        <time>2021-03-30T11:27:59Z</time>
      </trkpt>
      <trkpt lat="42.2718302" lon="2.3697115">
        <ele>871.55999756</ele>
        <time>2021-03-30T11:28:00Z</time>
      </trkpt>
      <trkpt lat="42.2718005" lon="2.3697136">
        <ele>871.89001465</ele>
        <time>2021-03-30T11:28:01Z</time>
      </trkpt>
      <trkpt lat="42.2717772" lon="2.3697126">
        <ele>872.47998047</ele>
        <time>2021-03-30T11:28:02Z</time>
      </trkpt>
      <trkpt lat="42.2717357" lon="2.36971">
        <ele>872.90997314</ele>
        <time>2021-03-30T11:28:03Z</time>
      </trkpt>
      <trkpt lat="42.2716955" lon="2.3697033">
        <ele>873.57000732</ele>
        <time>2021-03-30T11:28:04Z</time>
      </trkpt>
      <trkpt lat="42.2716428" lon="2.3696983">
        <ele>874.09002686</ele>
        <time>2021-03-30T11:28:05Z</time>
      </trkpt>
      <trkpt lat="42.2715946" lon="2.3696993">
        <ele>874.4699707</ele>
        <time>2021-03-30T11:28:06Z</time>
      </trkpt>
      <trkpt lat="42.2715452" lon="2.3696985">
        <ele>874.60998535</ele>
        <time>2021-03-30T11:28:07Z</time>
      </trkpt>
      <trkpt lat="42.2714886" lon="2.3697133">
        <ele>874.66998291</ele>
        <time>2021-03-30T11:28:08Z</time>
      </trkpt>
      <trkpt lat="42.2714442" lon="2.3697347">
        <ele>875.10998535</ele>
        <time>2021-03-30T11:28:09Z</time>
      </trkpt>
      <trkpt lat="42.2713991" lon="2.3697548">
        <ele>875.80999756</ele>
        <time>2021-03-30T11:28:10Z</time>
      </trkpt>
      <trkpt lat="42.2713486" lon="2.3697615">
        <ele>876.58001709</ele>
        <time>2021-03-30T11:28:11Z</time>
      </trkpt>
      <trkpt lat="42.2713033" lon="2.369746">
        <ele>876.78997803</ele>
        <time>2021-03-30T11:28:12Z</time>
      </trkpt>
      <trkpt lat="42.2712515" lon="2.3697262">
        <ele>876.23999023</ele>
        <time>2021-03-30T11:28:13Z</time>
      </trkpt>
      <trkpt lat="42.2712009" lon="2.3697001">
        <ele>875.59002686</ele>
        <time>2021-03-30T11:28:14Z</time>
      </trkpt>
      <trkpt lat="42.2711489" lon="2.3696762">
        <ele>875.0300293</ele>
        <time>2021-03-30T11:28:15Z</time>
      </trkpt>
      <trkpt lat="42.2710974" lon="2.3696564">
        <ele>874.55999756</ele>
        <time>2021-03-30T11:28:16Z</time>
      </trkpt>
      <trkpt lat="42.271048" lon="2.3696372">
        <ele>874.15997314</ele>
        <time>2021-03-30T11:28:17Z</time>
      </trkpt>
      <trkpt lat="42.270994" lon="2.36964">
        <ele>873.78997803</ele>
        <time>2021-03-30T11:28:18Z</time>
      </trkpt>
      <trkpt lat="42.2709378" lon="2.3696366">
        <ele>873.7800293</ele>
        <time>2021-03-30T11:28:19Z</time>
      </trkpt>
      <trkpt lat="42.2708971" lon="2.3696018">
        <ele>873.76000977</ele>
        <time>2021-03-30T11:28:20Z</time>
      </trkpt>
      <trkpt lat="42.270852" lon="2.3695939">
        <ele>873.59997559</ele>
        <time>2021-03-30T11:28:21Z</time>
      </trkpt>
      <trkpt lat="42.2707977" lon="2.3695792">
        <ele>873.45001221</ele>
        <time>2021-03-30T11:28:22Z</time>
      </trkpt>
      <trkpt lat="42.2707522" lon="2.3695478">
        <ele>873.29998779</ele>
        <time>2021-03-30T11:28:23Z</time>
      </trkpt>
      <trkpt lat="42.2707067" lon="2.3695588">
        <ele>873.09997559</ele>
        <time>2021-03-30T11:28:24Z</time>
      </trkpt>
      <trkpt lat="42.270657" lon="2.3695561">
        <ele>872.96002197</ele>
        <time>2021-03-30T11:28:25Z</time>
      </trkpt>
      <trkpt lat="42.2706156" lon="2.369528">
        <ele>872.84997559</ele>
        <time>2021-03-30T11:28:26Z</time>
      </trkpt>
      <trkpt lat="42.2705509" lon="2.3695278">
        <ele>872.69000244</ele>
        <time>2021-03-30T11:28:27Z</time>
      </trkpt>
      <trkpt lat="42.2705017" lon="2.3695147">
        <ele>872.54998779</ele>
        <time>2021-03-30T11:28:28Z</time>
      </trkpt>
      <trkpt lat="42.270459" lon="2.3694992">
        <ele>872.40997314</ele>
        <time>2021-03-30T11:28:29Z</time>
      </trkpt>
      <trkpt lat="42.27041" lon="2.3694737">
        <ele>872.25</ele>
        <time>2021-03-30T11:28:30Z</time>
      </trkpt>
      <trkpt lat="42.27036" lon="2.3694439">
        <ele>872.05999756</ele>
        <time>2021-03-30T11:28:31Z</time>
      </trkpt>
      <trkpt lat="42.2703091" lon="2.3694097">
        <ele>871.83001709</ele>
        <time>2021-03-30T11:28:32Z</time>
      </trkpt>
      <trkpt lat="42.2702638" lon="2.3693916">
        <ele>871.61999512</ele>
        <time>2021-03-30T11:28:33Z</time>
      </trkpt>
      <trkpt lat="42.2702193" lon="2.3693679">
        <ele>871.44000244</ele>
        <time>2021-03-30T11:28:34Z</time>
      </trkpt>
      <trkpt lat="42.2701702" lon="2.3693492">
        <ele>871.2800293</ele>
        <time>2021-03-30T11:28:35Z</time>
      </trkpt>
      <trkpt lat="42.2701162" lon="2.3693163">
        <ele>870.13000488</ele>
        <time>2021-03-30T11:28:36Z</time>
      </trkpt>
      <trkpt lat="42.2700623" lon="2.3692808">
        <ele>870.02001953</ele>
        <time>2021-03-30T11:28:37Z</time>
      </trkpt>
      <trkpt lat="42.2699997" lon="2.3692625">
        <ele>870.01000977</ele>
        <time>2021-03-30T11:28:38Z</time>
      </trkpt>
      <trkpt lat="42.2699378" lon="2.3692528">
        <ele>870.01000977</ele>
        <time>2021-03-30T11:28:39Z</time>
      </trkpt>
      <trkpt lat="42.2698834" lon="2.369236">
        <ele>870.01000977</ele>
        <time>2021-03-30T11:28:40Z</time>
      </trkpt>
      <trkpt lat="42.2698248" lon="2.3692199">
        <ele>870.01000977</ele>
        <time>2021-03-30T11:28:41Z</time>
      </trkpt>
      <trkpt lat="42.2697654" lon="2.3691994">
        <ele>870.01000977</ele>
        <time>2021-03-30T11:28:42Z</time>
      </trkpt>
      <trkpt lat="42.2697122" lon="2.3691833">
        <ele>870.01000977</ele>
        <time>2021-03-30T11:28:43Z</time>
      </trkpt>
      <trkpt lat="42.2696667" lon="2.3691649">
        <ele>870.01000977</ele>
        <time>2021-03-30T11:28:44Z</time>
      </trkpt>
      <trkpt lat="42.2696143" lon="2.3691399">
        <ele>870.01000977</ele>
        <time>2021-03-30T11:28:45Z</time>
      </trkpt>
      <trkpt lat="42.269563" lon="2.3691339">
        <ele>870.01000977</ele>
        <time>2021-03-30T11:28:46Z</time>
      </trkpt>
      <trkpt lat="42.2695129" lon="2.3691171">
        <ele>870.01000977</ele>
        <time>2021-03-30T11:28:47Z</time>
      </trkpt>
      <trkpt lat="42.2694577" lon="2.3690951">
        <ele>870.01000977</ele>
        <time>2021-03-30T11:28:48Z</time>
      </trkpt>
      <trkpt lat="42.2693999" lon="2.369068">
        <ele>870.01000977</ele>
        <time>2021-03-30T11:28:49Z</time>
      </trkpt>
      <trkpt lat="42.2693375" lon="2.3690365">
        <ele>870.01000977</ele>
        <time>2021-03-30T11:28:50Z</time>
      </trkpt>
      <trkpt lat="42.2692725" lon="2.3689971">
        <ele>870.01000977</ele>
        <time>2021-03-30T11:28:51Z</time>
      </trkpt>
      <trkpt lat="42.2692075" lon="2.3689657">
        <ele>870.01000977</ele>
        <time>2021-03-30T11:28:52Z</time>
      </trkpt>
      <trkpt lat="42.2691429" lon="2.3689386">
        <ele>870.01000977</ele>
        <time>2021-03-30T11:28:53Z</time>
      </trkpt>
      <trkpt lat="42.2690826" lon="2.3689138">
        <ele>870.01000977</ele>
        <time>2021-03-30T11:28:54Z</time>
      </trkpt>
      <trkpt lat="42.2690236" lon="2.3688946">
        <ele>870.01000977</ele>
        <time>2021-03-30T11:28:55Z</time>
      </trkpt>
      <trkpt lat="42.2689595" lon="2.3688812">
        <ele>870.01000977</ele>
        <time>2021-03-30T11:28:56Z</time>
      </trkpt>
      <trkpt lat="42.2689002" lon="2.3688591">
        <ele>870</ele>
        <time>2021-03-30T11:28:57Z</time>
      </trkpt>
      <trkpt lat="42.2688508" lon="2.3688369">
        <ele>870</ele>
        <time>2021-03-30T11:28:58Z</time>
      </trkpt>
      <trkpt lat="42.2688043" lon="2.368815">
        <ele>870</ele>
        <time>2021-03-30T11:28:59Z</time>
      </trkpt>
      <trkpt lat="42.2687501" lon="2.3687863">
        <ele>870</ele>
        <time>2021-03-30T11:29:00Z</time>
      </trkpt>
      <trkpt lat="42.2686927" lon="2.3687653">
        <ele>870</ele>
        <time>2021-03-30T11:29:01Z</time>
      </trkpt>
      <trkpt lat="42.2686391" lon="2.3687498">
        <ele>870</ele>
        <time>2021-03-30T11:29:02Z</time>
      </trkpt>
      <trkpt lat="42.2685909" lon="2.3687246">
        <ele>870</ele>
        <time>2021-03-30T11:29:03Z</time>
      </trkpt>
      <trkpt lat="42.2685432" lon="2.3687009">
        <ele>870</ele>
        <time>2021-03-30T11:29:04Z</time>
      </trkpt>
      <trkpt lat="42.2684965" lon="2.3686775">
        <ele>870</ele>
        <time>2021-03-30T11:29:05Z</time>
      </trkpt>
      <trkpt lat="42.2684529" lon="2.368653">
        <ele>870</ele>
        <time>2021-03-30T11:29:06Z</time>
      </trkpt>
      <trkpt lat="42.2684016" lon="2.3686357">
        <ele>870</ele>
        <time>2021-03-30T11:29:07Z</time>
      </trkpt>
      <trkpt lat="42.2683563" lon="2.3686081">
        <ele>870</ele>
        <time>2021-03-30T11:29:08Z</time>
      </trkpt>
      <trkpt lat="42.2682985" lon="2.3685858">
        <ele>870</ele>
        <time>2021-03-30T11:29:09Z</time>
      </trkpt>
      <trkpt lat="42.2682424" lon="2.3685621">
        <ele>870</ele>
        <time>2021-03-30T11:29:10Z</time>
      </trkpt>
      <trkpt lat="42.2681829" lon="2.3685335">
        <ele>870</ele>
        <time>2021-03-30T11:29:11Z</time>
      </trkpt>
      <trkpt lat="42.2681186" lon="2.3685159">
        <ele>870</ele>
        <time>2021-03-30T11:29:12Z</time>
      </trkpt>
      <trkpt lat="42.2680448" lon="2.3684946">
        <ele>870</ele>
        <time>2021-03-30T11:29:13Z</time>
      </trkpt>
      <trkpt lat="42.2679851" lon="2.3684723">
        <ele>870</ele>
        <time>2021-03-30T11:29:14Z</time>
      </trkpt>
      <trkpt lat="42.2679389" lon="2.3684636">
        <ele>870</ele>
        <time>2021-03-30T11:29:15Z</time>
      </trkpt>
      <trkpt lat="42.2678851" lon="2.3684448">
        <ele>870</ele>
        <time>2021-03-30T11:29:16Z</time>
      </trkpt>
      <trkpt lat="42.267833" lon="2.3684264">
        <ele>870</ele>
        <time>2021-03-30T11:29:17Z</time>
      </trkpt>
      <trkpt lat="42.2677799" lon="2.3684068">
        <ele>870</ele>
        <time>2021-03-30T11:29:18Z</time>
      </trkpt>
      <trkpt lat="42.2677263" lon="2.3683874">
        <ele>870</ele>
        <time>2021-03-30T11:29:19Z</time>
      </trkpt>
      <trkpt lat="42.2676756" lon="2.3683908">
        <ele>870</ele>
        <time>2021-03-30T11:29:20Z</time>
      </trkpt>
      <trkpt lat="42.2676231" lon="2.3683809">
        <ele>870</ele>
        <time>2021-03-30T11:29:21Z</time>
      </trkpt>
      <trkpt lat="42.2675617" lon="2.3683552">
        <ele>870</ele>
        <time>2021-03-30T11:29:22Z</time>
      </trkpt>
      <trkpt lat="42.267481" lon="2.3683089">
        <ele>870</ele>
        <time>2021-03-30T11:29:23Z</time>
      </trkpt>
      <trkpt lat="42.267436" lon="2.3682855">
        <ele>870</ele>
        <time>2021-03-30T11:29:24Z</time>
      </trkpt>
      <trkpt lat="42.2673774" lon="2.3682611">
        <ele>870</ele>
        <time>2021-03-30T11:29:25Z</time>
      </trkpt>
      <trkpt lat="42.267316" lon="2.3682426">
        <ele>870</ele>
        <time>2021-03-30T11:29:26Z</time>
      </trkpt>
      <trkpt lat="42.2672625" lon="2.3682232">
        <ele>870.01000977</ele>
        <time>2021-03-30T11:29:27Z</time>
      </trkpt>
      <trkpt lat="42.2672004" lon="2.3681951">
        <ele>870.01000977</ele>
        <time>2021-03-30T11:29:28Z</time>
      </trkpt>
      <trkpt lat="42.2671401" lon="2.3681714">
        <ele>869.96002197</ele>
        <time>2021-03-30T11:29:29Z</time>
      </trkpt>
      <trkpt lat="42.2670822" lon="2.3681477">
        <ele>869.80999756</ele>
        <time>2021-03-30T11:29:30Z</time>
      </trkpt>
      <trkpt lat="42.2670173" lon="2.3681284">
        <ele>869.54998779</ele>
        <time>2021-03-30T11:29:31Z</time>
      </trkpt>
      <trkpt lat="42.2669551" lon="2.3681126">
        <ele>869.19000244</ele>
        <time>2021-03-30T11:29:32Z</time>
      </trkpt>
      <trkpt lat="42.2669042" lon="2.368093">
        <ele>868.72998047</ele>
        <time>2021-03-30T11:29:33Z</time>
      </trkpt>
      <trkpt lat="42.2668508" lon="2.3680598">
        <ele>868.28997803</ele>
        <time>2021-03-30T11:29:34Z</time>
      </trkpt>
      <trkpt lat="42.2667908" lon="2.3680442">
        <ele>867.90002441</ele>
        <time>2021-03-30T11:29:35Z</time>
      </trkpt>
      <trkpt lat="42.2667231" lon="2.3680322">
        <ele>867.53997803</ele>
        <time>2021-03-30T11:29:36Z</time>
      </trkpt>
      <trkpt lat="42.2666564" lon="2.3680075">
        <ele>867.22998047</ele>
        <time>2021-03-30T11:29:37Z</time>
      </trkpt>
      <trkpt lat="42.2665995" lon="2.3679829">
        <ele>866.95001221</ele>
        <time>2021-03-30T11:29:38Z</time>
      </trkpt>
      <trkpt lat="42.2665319" lon="2.3679634">
        <ele>866.69000244</ele>
        <time>2021-03-30T11:29:39Z</time>
      </trkpt>
      <trkpt lat="42.2664632" lon="2.3679283">
        <ele>866.4699707</ele>
        <time>2021-03-30T11:29:40Z</time>
      </trkpt>
      <trkpt lat="42.2663885" lon="2.3678954">
        <ele>866.27001953</ele>
        <time>2021-03-30T11:29:41Z</time>
      </trkpt>
      <trkpt lat="42.2663177" lon="2.3678655">
        <ele>866.09002686</ele>
        <time>2021-03-30T11:29:42Z</time>
      </trkpt>
      <trkpt lat="42.2662502" lon="2.3678406">
        <ele>865.92999268</ele>
        <time>2021-03-30T11:29:43Z</time>
      </trkpt>
      <trkpt lat="42.266184" lon="2.3678094">
        <ele>865.78997803</ele>
        <time>2021-03-30T11:29:44Z</time>
      </trkpt>
      <trkpt lat="42.2661259" lon="2.3677772">
        <ele>865.65997314</ele>
        <time>2021-03-30T11:29:45Z</time>
      </trkpt>
      <trkpt lat="42.266069" lon="2.367743">
        <ele>865.54998779</ele>
        <time>2021-03-30T11:29:46Z</time>
      </trkpt>
      <trkpt lat="42.2660119" lon="2.3677056">
        <ele>865.45001221</ele>
        <time>2021-03-30T11:29:47Z</time>
      </trkpt>
      <trkpt lat="42.2659472" lon="2.3676777">
        <ele>865.35998535</ele>
        <time>2021-03-30T11:29:48Z</time>
      </trkpt>
      <trkpt lat="42.2658845" lon="2.3676481">
        <ele>865.2800293</ele>
        <time>2021-03-30T11:29:49Z</time>
      </trkpt>
      <trkpt lat="42.2658208" lon="2.3676185">
        <ele>865.21002197</ele>
        <time>2021-03-30T11:29:50Z</time>
      </trkpt>
      <trkpt lat="42.2657546" lon="2.3675898">
        <ele>865.14001465</ele>
        <time>2021-03-30T11:29:51Z</time>
      </trkpt>
      <trkpt lat="42.2656878" lon="2.3675619">
        <ele>865.09002686</ele>
        <time>2021-03-30T11:29:52Z</time>
      </trkpt>
      <trkpt lat="42.2656202" lon="2.3675335">
        <ele>865.03997803</ele>
        <time>2021-03-30T11:29:53Z</time>
      </trkpt>
      <trkpt lat="42.2655536" lon="2.3675055">
        <ele>864.98999023</ele>
        <time>2021-03-30T11:29:54Z</time>
      </trkpt>
      <trkpt lat="42.2654864" lon="2.3674786">
        <ele>864.95001221</ele>
        <time>2021-03-30T11:29:55Z</time>
      </trkpt>
      <trkpt lat="42.265421" lon="2.3674512">
        <ele>864.90997314</ele>
        <time>2021-03-30T11:29:56Z</time>
      </trkpt>
      <trkpt lat="42.2653537" lon="2.3674242">
        <ele>864.88000488</ele>
        <time>2021-03-30T11:29:57Z</time>
      </trkpt>
      <trkpt lat="42.2652845" lon="2.3673981">
        <ele>864.84997559</ele>
        <time>2021-03-30T11:29:58Z</time>
      </trkpt>
      <trkpt lat="42.2652152" lon="2.3673759">
        <ele>864.83001709</ele>
        <time>2021-03-30T11:29:59Z</time>
      </trkpt>
      <trkpt lat="42.2651455" lon="2.3673488">
        <ele>864.79998779</ele>
        <time>2021-03-30T11:30:00Z</time>
      </trkpt>
      <trkpt lat="42.2650768" lon="2.3673232">
        <ele>864.7800293</ele>
        <time>2021-03-30T11:30:01Z</time>
      </trkpt>
      <trkpt lat="42.2650086" lon="2.3672989">
        <ele>864.76000977</ele>
        <time>2021-03-30T11:30:02Z</time>
      </trkpt>
      <trkpt lat="42.2649412" lon="2.3672726">
        <ele>864.75</ele>
        <time>2021-03-30T11:30:03Z</time>
      </trkpt>
      <trkpt lat="42.2648733" lon="2.367247">
        <ele>864.72998047</ele>
        <time>2021-03-30T11:30:04Z</time>
      </trkpt>
      <trkpt lat="42.2648066" lon="2.3672189">
        <ele>864.7199707</ele>
        <time>2021-03-30T11:30:05Z</time>
      </trkpt>
      <trkpt lat="42.2647391" lon="2.3671896">
        <ele>864.71002197</ele>
        <time>2021-03-30T11:30:06Z</time>
      </trkpt>
      <trkpt lat="42.2646728" lon="2.3671654">
        <ele>864.64001465</ele>
        <time>2021-03-30T11:30:07Z</time>
      </trkpt>
      <trkpt lat="42.2646067" lon="2.3671418">
        <ele>864.52001953</ele>
        <time>2021-03-30T11:30:08Z</time>
      </trkpt>
      <trkpt lat="42.2645408" lon="2.3671164">
        <ele>864.36999512</ele>
        <time>2021-03-30T11:30:09Z</time>
      </trkpt>
      <trkpt lat="42.2644768" lon="2.3670901">
        <ele>864.17999268</ele>
        <time>2021-03-30T11:30:10Z</time>
      </trkpt>
      <trkpt lat="42.2644128" lon="2.3670658">
        <ele>863.96002197</ele>
        <time>2021-03-30T11:30:11Z</time>
      </trkpt>
      <trkpt lat="42.2643485" lon="2.3670416">
        <ele>863.71002197</ele>
        <time>2021-03-30T11:30:12Z</time>
      </trkpt>
      <trkpt lat="42.2642843" lon="2.3670182">
        <ele>863.42999268</ele>
        <time>2021-03-30T11:30:13Z</time>
      </trkpt>
      <trkpt lat="42.2642206" lon="2.3669932">
        <ele>863.14001465</ele>
        <time>2021-03-30T11:30:14Z</time>
      </trkpt>
      <trkpt lat="42.2641589" lon="2.3669679">
        <ele>862.82000732</ele>
        <time>2021-03-30T11:30:15Z</time>
      </trkpt>
      <trkpt lat="42.2640979" lon="2.3669412">
        <ele>862.48999023</ele>
        <time>2021-03-30T11:30:16Z</time>
      </trkpt>
      <trkpt lat="42.2640354" lon="2.366916">
        <ele>862.14001465</ele>
        <time>2021-03-30T11:30:17Z</time>
      </trkpt>
      <trkpt lat="42.2639738" lon="2.3668888">
        <ele>861.83001709</ele>
        <time>2021-03-30T11:30:18Z</time>
      </trkpt>
      <trkpt lat="42.2639133" lon="2.3668654">
        <ele>861.54998779</ele>
        <time>2021-03-30T11:30:19Z</time>
      </trkpt>
      <trkpt lat="42.2638552" lon="2.3668428">
        <ele>861.29998779</ele>
        <time>2021-03-30T11:30:20Z</time>
      </trkpt>
      <trkpt lat="42.2637985" lon="2.3668208">
        <ele>861.08001709</ele>
        <time>2021-03-30T11:30:21Z</time>
      </trkpt>
      <trkpt lat="42.263748" lon="2.3667995">
        <ele>860.88000488</ele>
        <time>2021-03-30T11:30:22Z</time>
      </trkpt>
      <trkpt lat="42.2637006" lon="2.3667838">
        <ele>860.70001221</ele>
        <time>2021-03-30T11:30:23Z</time>
      </trkpt>
      <trkpt lat="42.2636591" lon="2.3667711">
        <ele>860.53997803</ele>
        <time>2021-03-30T11:30:24Z</time>
      </trkpt>
      <trkpt lat="42.2636241" lon="2.3667714">
        <ele>860.40002441</ele>
        <time>2021-03-30T11:30:25Z</time>
      </trkpt>
      <trkpt lat="42.2635963" lon="2.3667734">
        <ele>860.27001953</ele>
        <time>2021-03-30T11:30:26Z</time>
      </trkpt>
      <trkpt lat="42.2635802" lon="2.3667888">
        <ele>860.15997314</ele>
        <time>2021-03-30T11:30:27Z</time>
      </trkpt>
      <trkpt lat="42.2635647" lon="2.3668019">
        <ele>860.05999756</ele>
        <time>2021-03-30T11:30:28Z</time>
      </trkpt>
      <trkpt lat="42.2635534" lon="2.3668087">
        <ele>859.9699707</ele>
        <time>2021-03-30T11:30:29Z</time>
      </trkpt>
      <trkpt lat="42.2635495" lon="2.3668094">
        <ele>859.89001465</ele>
        <time>2021-03-30T11:30:30Z</time>
      </trkpt>
      <trkpt lat="42.2635507" lon="2.3668135">
        <ele>859.80999756</ele>
        <time>2021-03-30T11:30:31Z</time>
      </trkpt>
      <trkpt lat="42.2599917" lon="2.3670934">
        <ele>864.83001709</ele>
        <time>2021-03-30T11:34:18Z</time>
      </trkpt>
      <trkpt lat="42.2599967" lon="2.3671082">
        <ele>864.7800293</ele>
        <time>2021-03-30T11:34:19Z</time>
      </trkpt>
      <trkpt lat="42.2600021" lon="2.3671328">
        <ele>864.69000244</ele>
        <time>2021-03-30T11:34:20Z</time>
      </trkpt>
      <trkpt lat="42.2600035" lon="2.3671514">
        <ele>864.60998535</ele>
        <time>2021-03-30T11:34:21Z</time>
      </trkpt>
      <trkpt lat="42.260006" lon="2.367165">
        <ele>864.59997559</ele>
        <time>2021-03-30T11:34:22Z</time>
      </trkpt>
      <trkpt lat="42.2600064" lon="2.3671776">
        <ele>864.59002686</ele>
        <time>2021-03-30T11:34:23Z</time>
      </trkpt>
      <trkpt lat="42.2600111" lon="2.367192">
        <ele>864.59002686</ele>
        <time>2021-03-30T11:34:24Z</time>
      </trkpt>
      <trkpt lat="42.2600126" lon="2.3672105">
        <ele>864.59002686</ele>
        <time>2021-03-30T11:34:25Z</time>
      </trkpt>
      <trkpt lat="42.260009" lon="2.3672235">
        <ele>864.59997559</ele>
        <time>2021-03-30T11:34:26Z</time>
      </trkpt>
      <trkpt lat="42.2600073" lon="2.3672333">
        <ele>864.63000488</ele>
        <time>2021-03-30T11:34:27Z</time>
      </trkpt>
      <trkpt lat="42.26" lon="2.3672514">
        <ele>864.80999756</ele>
        <time>2021-03-30T11:34:28Z</time>
      </trkpt>
      <trkpt lat="42.2599974" lon="2.3672684">
        <ele>865.14001465</ele>
        <time>2021-03-30T11:34:29Z</time>
      </trkpt>
      <trkpt lat="42.2599961" lon="2.3672813">
        <ele>865.51000977</ele>
        <time>2021-03-30T11:34:30Z</time>
      </trkpt>
      <trkpt lat="42.2599969" lon="2.367293">
        <ele>865.78997803</ele>
        <time>2021-03-30T11:34:31Z</time>
      </trkpt>
      <trkpt lat="42.2600005" lon="2.3673056">
        <ele>866.01000977</ele>
        <time>2021-03-30T11:34:32Z</time>
      </trkpt>
      <trkpt lat="42.2600007" lon="2.3673175">
        <ele>866.21002197</ele>
        <time>2021-03-30T11:34:33Z</time>
      </trkpt>
      <trkpt lat="42.2599999" lon="2.367331">
        <ele>866.44000244</ele>
        <time>2021-03-30T11:34:34Z</time>
      </trkpt>
      <trkpt lat="42.2600029" lon="2.3673382">
        <ele>866.70001221</ele>
        <time>2021-03-30T11:34:35Z</time>
      </trkpt>
      <trkpt lat="42.2600025" lon="2.3673492">
        <ele>866.84997559</ele>
        <time>2021-03-30T11:34:36Z</time>
      </trkpt>
      <trkpt lat="42.2599985" lon="2.367358">
        <ele>867.05999756</ele>
        <time>2021-03-30T11:34:37Z</time>
      </trkpt>
      <trkpt lat="42.2599957" lon="2.3673697">
        <ele>867.23999023</ele>
        <time>2021-03-30T11:34:38Z</time>
      </trkpt>
      <trkpt lat="42.2599923" lon="2.3673854">
        <ele>867.48999023</ele>
        <time>2021-03-30T11:34:39Z</time>
      </trkpt>
      <trkpt lat="42.2599889" lon="2.3673971">
        <ele>867.80999756</ele>
        <time>2021-03-30T11:34:40Z</time>
      </trkpt>
      <trkpt lat="42.2599923" lon="2.3674055">
        <ele>868.05999756</ele>
        <time>2021-03-30T11:34:41Z</time>
      </trkpt>
      <trkpt lat="42.2599908" lon="2.3674177">
        <ele>868.21002197</ele>
        <time>2021-03-30T11:34:42Z</time>
      </trkpt>
      <trkpt lat="42.2599914" lon="2.3674295">
        <ele>868.44000244</ele>
        <time>2021-03-30T11:34:43Z</time>
      </trkpt>
      <trkpt lat="42.2599862" lon="2.3674422">
        <ele>868.65997314</ele>
        <time>2021-03-30T11:34:44Z</time>
      </trkpt>
      <trkpt lat="42.2599815" lon="2.3674462">
        <ele>868.90997314</ele>
        <time>2021-03-30T11:34:45Z</time>
      </trkpt>
      <trkpt lat="42.2599752" lon="2.3674458">
        <ele>869.02001953</ele>
        <time>2021-03-30T11:34:46Z</time>
      </trkpt>
      <trkpt lat="42.2598701" lon="2.3674255">
        <ele>869.2800293</ele>
        <time>2021-03-30T11:35:14Z</time>
      </trkpt>
      <trkpt lat="42.2598708" lon="2.3674151">
        <ele>869.23999023</ele>
        <time>2021-03-30T11:35:15Z</time>
      </trkpt>
      <trkpt lat="42.259867" lon="2.3673753">
        <ele>869.14001465</ele>
        <time>2021-03-30T11:35:16Z</time>
      </trkpt>
      <trkpt lat="42.2598625" lon="2.3673578">
        <ele>868.7800293</ele>
        <time>2021-03-30T11:35:17Z</time>
      </trkpt>
      <trkpt lat="42.259862" lon="2.367333">
        <ele>868.63000488</ele>
        <time>2021-03-30T11:35:18Z</time>
      </trkpt>
      <trkpt lat="42.2598574" lon="2.3672996">
        <ele>868.40002441</ele>
        <time>2021-03-30T11:35:19Z</time>
      </trkpt>
      <trkpt lat="42.2598569" lon="2.3672664">
        <ele>868.14001465</ele>
        <time>2021-03-30T11:35:20Z</time>
      </trkpt>
      <trkpt lat="42.2598554" lon="2.3672324">
        <ele>867.84002686</ele>
        <time>2021-03-30T11:35:21Z</time>
      </trkpt>
      <trkpt lat="42.2598527" lon="2.367206">
        <ele>867.54998779</ele>
        <time>2021-03-30T11:35:22Z</time>
      </trkpt>
      <trkpt lat="42.259849" lon="2.3671796">
        <ele>867.47998047</ele>
        <time>2021-03-30T11:35:23Z</time>
      </trkpt>
      <trkpt lat="42.2598456" lon="2.3671492">
        <ele>867.53997803</ele>
        <time>2021-03-30T11:35:24Z</time>
      </trkpt>
      <trkpt lat="42.2598447" lon="2.3671172">
        <ele>867.59997559</ele>
        <time>2021-03-30T11:35:25Z</time>
      </trkpt>
      <trkpt lat="42.2598393" lon="2.3670851">
        <ele>867.61999512</ele>
        <time>2021-03-30T11:35:26Z</time>
      </trkpt>
      <trkpt lat="42.2598292" lon="2.3670355">
        <ele>867.7199707</ele>
        <time>2021-03-30T11:35:27Z</time>
      </trkpt>
      <trkpt lat="42.2598191" lon="2.3670048">
        <ele>867.90997314</ele>
        <time>2021-03-30T11:35:28Z</time>
      </trkpt>
      <trkpt lat="42.259808" lon="2.3669756">
        <ele>868.09997559</ele>
        <time>2021-03-30T11:35:29Z</time>
      </trkpt>
      <trkpt lat="42.2597958" lon="2.3669339">
        <ele>868.32000732</ele>
        <time>2021-03-30T11:35:30Z</time>
      </trkpt>
      <trkpt lat="42.2597789" lon="2.3668961">
        <ele>868.5</ele>
        <time>2021-03-30T11:35:31Z</time>
      </trkpt>
      <trkpt lat="42.2597649" lon="2.3668616">
        <ele>868.69000244</ele>
        <time>2021-03-30T11:35:32Z</time>
      </trkpt>
      <trkpt lat="42.2597531" lon="2.3668225">
        <ele>868.90002441</ele>
        <time>2021-03-30T11:35:33Z</time>
      </trkpt>
      <trkpt lat="42.2597402" lon="2.3667878">
        <ele>869.11999512</ele>
        <time>2021-03-30T11:35:34Z</time>
      </trkpt>
      <trkpt lat="42.259728" lon="2.3667629">
        <ele>869.41998291</ele>
        <time>2021-03-30T11:35:35Z</time>
      </trkpt>
      <trkpt lat="42.2597008" lon="2.3667446">
        <ele>869.7800293</ele>
        <time>2021-03-30T11:35:36Z</time>
      </trkpt>
      <trkpt lat="42.2596708" lon="2.3667247">
        <ele>869.90002441</ele>
        <time>2021-03-30T11:35:37Z</time>
      </trkpt>
      <trkpt lat="42.2596393" lon="2.3666927">
        <ele>869.94000244</ele>
        <time>2021-03-30T11:35:38Z</time>
      </trkpt>
      <trkpt lat="42.2596125" lon="2.3666698">
        <ele>869.96002197</ele>
        <time>2021-03-30T11:35:39Z</time>
      </trkpt>
      <trkpt lat="42.2595802" lon="2.3666496">
        <ele>869.9699707</ele>
        <time>2021-03-30T11:35:40Z</time>
      </trkpt>
      <trkpt lat="42.2595516" lon="2.3666226">
        <ele>869.89001465</ele>
        <time>2021-03-30T11:35:41Z</time>
      </trkpt>
      <trkpt lat="42.2595185" lon="2.366601">
        <ele>869.72998047</ele>
        <time>2021-03-30T11:35:42Z</time>
      </trkpt>
      <trkpt lat="42.2594818" lon="2.3665848">
        <ele>869.5300293</ele>
        <time>2021-03-30T11:35:43Z</time>
      </trkpt>
      <trkpt lat="42.2594579" lon="2.3665585">
        <ele>869.34997559</ele>
        <time>2021-03-30T11:35:44Z</time>
      </trkpt>
      <trkpt lat="42.2594309" lon="2.366537">
        <ele>869.14001465</ele>
        <time>2021-03-30T11:35:45Z</time>
      </trkpt>
      <trkpt lat="42.2593951" lon="2.3665266">
        <ele>868.95001221</ele>
        <time>2021-03-30T11:35:46Z</time>
      </trkpt>
      <trkpt lat="42.2593548" lon="2.3665211">
        <ele>868.79998779</ele>
        <time>2021-03-30T11:35:47Z</time>
      </trkpt>
      <trkpt lat="42.2593113" lon="2.3664974">
        <ele>868.71002197</ele>
        <time>2021-03-30T11:35:48Z</time>
      </trkpt>
      <trkpt lat="42.2592728" lon="2.3664833">
        <ele>868.65997314</ele>
        <time>2021-03-30T11:35:49Z</time>
      </trkpt>
      <trkpt lat="42.2592358" lon="2.3664595">
        <ele>868.65002441</ele>
        <time>2021-03-30T11:35:50Z</time>
      </trkpt>
      <trkpt lat="42.2592078" lon="2.3664393">
        <ele>868.69000244</ele>
        <time>2021-03-30T11:35:51Z</time>
      </trkpt>
      <trkpt lat="42.2591777" lon="2.3664257">
        <ele>868.76000977</ele>
        <time>2021-03-30T11:35:52Z</time>
      </trkpt>
      <trkpt lat="42.2591504" lon="2.36642">
        <ele>868.86999512</ele>
        <time>2021-03-30T11:35:53Z</time>
      </trkpt>
      <trkpt lat="42.2591247" lon="2.3664121">
        <ele>869</ele>
        <time>2021-03-30T11:35:54Z</time>
      </trkpt>
      <trkpt lat="42.2591061" lon="2.366398">
        <ele>869.11999512</ele>
        <time>2021-03-30T11:35:55Z</time>
      </trkpt>
      <trkpt lat="42.2590836" lon="2.3663738">
        <ele>869.2199707</ele>
        <time>2021-03-30T11:35:56Z</time>
      </trkpt>
      <trkpt lat="42.2590592" lon="2.366375">
        <ele>869.2800293</ele>
        <time>2021-03-30T11:35:57Z</time>
      </trkpt>
      <trkpt lat="42.2590265" lon="2.3663663">
        <ele>869.34002686</ele>
        <time>2021-03-30T11:35:58Z</time>
      </trkpt>
      <trkpt lat="42.2589908" lon="2.3663587">
        <ele>869.39001465</ele>
        <time>2021-03-30T11:35:59Z</time>
      </trkpt>
      <trkpt lat="42.2589591" lon="2.3663429">
        <ele>869.44000244</ele>
        <time>2021-03-30T11:36:00Z</time>
      </trkpt>
      <trkpt lat="42.2589262" lon="2.3663261">
        <ele>869.4699707</ele>
        <time>2021-03-30T11:36:01Z</time>
      </trkpt>
      <trkpt lat="42.2588953" lon="2.3663013">
        <ele>869.51000977</ele>
        <time>2021-03-30T11:36:02Z</time>
      </trkpt>
      <trkpt lat="42.2588725" lon="2.3662753">
        <ele>869.55999756</ele>
        <time>2021-03-30T11:36:03Z</time>
      </trkpt>
      <trkpt lat="42.2588416" lon="2.3662453">
        <ele>869.60998535</ele>
        <time>2021-03-30T11:36:04Z</time>
      </trkpt>
      <trkpt lat="42.2588136" lon="2.3662281">
        <ele>869.65002441</ele>
        <time>2021-03-30T11:36:05Z</time>
      </trkpt>
      <trkpt lat="42.2587817" lon="2.366216">
        <ele>869.69000244</ele>
        <time>2021-03-30T11:36:06Z</time>
      </trkpt>
      <trkpt lat="42.2587506" lon="2.3661906">
        <ele>869.7199707</ele>
        <time>2021-03-30T11:36:07Z</time>
      </trkpt>
      <trkpt lat="42.2587241" lon="2.3661699">
        <ele>869.75</ele>
        <time>2021-03-30T11:36:08Z</time>
      </trkpt>
      <trkpt lat="42.2587023" lon="2.3661483">
        <ele>869.7800293</ele>
        <time>2021-03-30T11:36:09Z</time>
      </trkpt>
      <trkpt lat="42.2586805" lon="2.3661519">
        <ele>869.79998779</ele>
        <time>2021-03-30T11:36:10Z</time>
      </trkpt>
      <trkpt lat="42.2586629" lon="2.3661472">
        <ele>869.83001709</ele>
        <time>2021-03-30T11:36:11Z</time>
      </trkpt>
      <trkpt lat="42.2586512" lon="2.3661401">
        <ele>869.84997559</ele>
        <time>2021-03-30T11:36:12Z</time>
      </trkpt>
      <trkpt lat="42.2586394" lon="2.3661355">
        <ele>869.85998535</ele>
        <time>2021-03-30T11:36:13Z</time>
      </trkpt>
      <trkpt lat="42.2586308" lon="2.3661297">
        <ele>869.88000488</ele>
        <time>2021-03-30T11:36:14Z</time>
      </trkpt>
      <trkpt lat="42.258619" lon="2.3661145">
        <ele>869.89001465</ele>
        <time>2021-03-30T11:36:15Z</time>
      </trkpt>
      <trkpt lat="42.2586048" lon="2.3661057">
        <ele>869.90002441</ele>
        <time>2021-03-30T11:36:16Z</time>
      </trkpt>
      <trkpt lat="42.2585919" lon="2.3660983">
        <ele>869.90997314</ele>
        <time>2021-03-30T11:36:17Z</time>
      </trkpt>
      <trkpt lat="42.2585738" lon="2.366081">
        <ele>869.89001465</ele>
        <time>2021-03-30T11:36:18Z</time>
      </trkpt>
      <trkpt lat="42.2585548" lon="2.3660614">
        <ele>869.84997559</ele>
        <time>2021-03-30T11:36:19Z</time>
      </trkpt>
      <trkpt lat="42.258538" lon="2.3660425">
        <ele>869.29998779</ele>
        <time>2021-03-30T11:36:20Z</time>
      </trkpt>
      <trkpt lat="42.2585138" lon="2.3660289">
        <ele>869.04998779</ele>
        <time>2021-03-30T11:36:21Z</time>
      </trkpt>
      <trkpt lat="42.2584826" lon="2.3660116">
        <ele>868.97998047</ele>
        <time>2021-03-30T11:36:22Z</time>
      </trkpt>
      <trkpt lat="42.2584508" lon="2.3659977">
        <ele>868.9699707</ele>
        <time>2021-03-30T11:36:23Z</time>
      </trkpt>
      <trkpt lat="42.2584136" lon="2.365971">
        <ele>869.05999756</ele>
        <time>2021-03-30T11:36:24Z</time>
      </trkpt>
      <trkpt lat="42.2583814" lon="2.3659349">
        <ele>869.20001221</ele>
        <time>2021-03-30T11:36:25Z</time>
      </trkpt>
      <trkpt lat="42.2583504" lon="2.3659134">
        <ele>869.39001465</ele>
        <time>2021-03-30T11:36:26Z</time>
      </trkpt>
      <trkpt lat="42.2583196" lon="2.3659004">
        <ele>869.72998047</ele>
        <time>2021-03-30T11:36:27Z</time>
      </trkpt>
      <trkpt lat="42.258291" lon="2.3658852">
        <ele>869.97998047</ele>
        <time>2021-03-30T11:36:28Z</time>
      </trkpt>
      <trkpt lat="42.2582579" lon="2.3658713">
        <ele>870</ele>
        <time>2021-03-30T11:36:29Z</time>
      </trkpt>
      <trkpt lat="42.2582297" lon="2.3658558">
        <ele>870</ele>
        <time>2021-03-30T11:36:30Z</time>
      </trkpt>
      <trkpt lat="42.2581983" lon="2.3658491">
        <ele>870.01000977</ele>
        <time>2021-03-30T11:36:31Z</time>
      </trkpt>
      <trkpt lat="42.2581743" lon="2.3658176">
        <ele>870.01000977</ele>
        <time>2021-03-30T11:36:32Z</time>
      </trkpt>
      <trkpt lat="42.2581625" lon="2.3658029">
        <ele>869.72998047</ele>
        <time>2021-03-30T11:36:33Z</time>
      </trkpt>
      <trkpt lat="42.2581462" lon="2.3657975">
        <ele>869.45001221</ele>
        <time>2021-03-30T11:36:34Z</time>
      </trkpt>
      <trkpt lat="42.2581333" lon="2.3657722">
        <ele>869.32000732</ele>
        <time>2021-03-30T11:36:35Z</time>
      </trkpt>
      <trkpt lat="42.2581273" lon="2.3657386">
        <ele>868.86999512</ele>
        <time>2021-03-30T11:36:36Z</time>
      </trkpt>
      <trkpt lat="42.2581259" lon="2.3656884">
        <ele>868.23999023</ele>
        <time>2021-03-30T11:36:37Z</time>
      </trkpt>
      <trkpt lat="42.2581248" lon="2.365636">
        <ele>867.29998779</ele>
        <time>2021-03-30T11:36:38Z</time>
      </trkpt>
      <trkpt lat="42.2581347" lon="2.365585">
        <ele>866.28997803</ele>
        <time>2021-03-30T11:36:39Z</time>
      </trkpt>
      <trkpt lat="42.2581437" lon="2.3655333">
        <ele>865.29998779</ele>
        <time>2021-03-30T11:36:40Z</time>
      </trkpt>
      <trkpt lat="42.258151" lon="2.3654748">
        <ele>864.28997803</ele>
        <time>2021-03-30T11:36:41Z</time>
      </trkpt>
      <trkpt lat="42.2581598" lon="2.3654066">
        <ele>863.16998291</ele>
        <time>2021-03-30T11:36:42Z</time>
      </trkpt>
      <trkpt lat="42.2581711" lon="2.3653447">
        <ele>861.86999512</ele>
        <time>2021-03-30T11:36:43Z</time>
      </trkpt>
      <trkpt lat="42.2581786" lon="2.3652974">
        <ele>860.65997314</ele>
        <time>2021-03-30T11:36:44Z</time>
      </trkpt>
      <trkpt lat="42.2581918" lon="2.3652569">
        <ele>859.71002197</ele>
        <time>2021-03-30T11:36:45Z</time>
      </trkpt>
      <trkpt lat="42.2582045" lon="2.3652179">
        <ele>859.27001953</ele>
        <time>2021-03-30T11:36:46Z</time>
      </trkpt>
      <trkpt lat="42.2582124" lon="2.3651758">
        <ele>859.22998047</ele>
        <time>2021-03-30T11:36:47Z</time>
      </trkpt>
      <trkpt lat="42.2582268" lon="2.365142">
        <ele>859.2199707</ele>
        <time>2021-03-30T11:36:48Z</time>
      </trkpt>
      <trkpt lat="42.2582437" lon="2.365109">
        <ele>859.2199707</ele>
        <time>2021-03-30T11:36:49Z</time>
      </trkpt>
      <trkpt lat="42.258259" lon="2.3650822">
        <ele>859.2199707</ele>
        <time>2021-03-30T11:36:50Z</time>
      </trkpt>
      <trkpt lat="42.2582692" lon="2.3650556">
        <ele>859.2199707</ele>
        <time>2021-03-30T11:36:51Z</time>
      </trkpt>
      <trkpt lat="42.2582688" lon="2.3650347">
        <ele>859.2199707</ele>
        <time>2021-03-30T11:36:52Z</time>
      </trkpt>
      <trkpt lat="42.2582715" lon="2.3650223">
        <ele>859.2199707</ele>
        <time>2021-03-30T11:36:53Z</time>
      </trkpt>
      <trkpt lat="42.2582683" lon="2.3650102">
        <ele>859.2199707</ele>
        <time>2021-03-30T11:36:54Z</time>
      </trkpt>
      <trkpt lat="42.2582603" lon="2.3650114">
        <ele>859.2199707</ele>
        <time>2021-03-30T11:37:11Z</time>
      </trkpt>
      <trkpt lat="42.2582571" lon="2.3650117">
        <ele>859.2199707</ele>
        <time>2021-03-30T11:37:12Z</time>
      </trkpt>
      <trkpt lat="42.2582605" lon="2.3650106">
        <ele>859.2199707</ele>
        <time>2021-03-30T11:37:13Z</time>
      </trkpt>
      <trkpt lat="42.2582626" lon="2.3650065">
        <ele>859.2199707</ele>
        <time>2021-03-30T11:37:14Z</time>
      </trkpt>
      <trkpt lat="42.2582577" lon="2.3649989">
        <ele>859.2199707</ele>
        <time>2021-03-30T11:37:15Z</time>
      </trkpt>
      <trkpt lat="42.2582594" lon="2.3649891">
        <ele>859.20001221</ele>
        <time>2021-03-30T11:37:16Z</time>
      </trkpt>
      <trkpt lat="42.2582582" lon="2.3649901">
        <ele>859.0300293</ele>
        <time>2021-03-30T11:37:17Z</time>
      </trkpt>
      <trkpt lat="42.2582549" lon="2.3649893">
        <ele>859.0300293</ele>
        <time>2021-03-30T11:37:18Z</time>
      </trkpt>
      <trkpt lat="42.2582456" lon="2.3649918">
        <ele>859.02001953</ele>
        <time>2021-03-30T11:37:19Z</time>
      </trkpt>
      <trkpt lat="42.2582364" lon="2.3649885">
        <ele>859.05999756</ele>
        <time>2021-03-30T11:37:20Z</time>
      </trkpt>
      <trkpt lat="42.2582331" lon="2.3649878">
        <ele>859</ele>
        <time>2021-03-30T11:37:21Z</time>
      </trkpt>
      <trkpt lat="42.2582253" lon="2.3649871">
        <ele>858.98999023</ele>
        <time>2021-03-30T11:37:22Z</time>
      </trkpt>
      <trkpt lat="42.2582152" lon="2.3649962">
        <ele>858.9699707</ele>
        <time>2021-03-30T11:37:23Z</time>
      </trkpt>
      <trkpt lat="42.2582125" lon="2.3650048">
        <ele>859.13000488</ele>
        <time>2021-03-30T11:37:24Z</time>
      </trkpt>
      <trkpt lat="42.2582081" lon="2.3650136">
        <ele>859.21002197</ele>
        <time>2021-03-30T11:37:25Z</time>
      </trkpt>
      <trkpt lat="42.2582072" lon="2.3650272">
        <ele>859.2199707</ele>
        <time>2021-03-30T11:37:26Z</time>
      </trkpt>
      <trkpt lat="42.258206" lon="2.3650458">
        <ele>859.2199707</ele>
        <time>2021-03-30T11:37:27Z</time>
      </trkpt>
      <trkpt lat="42.2582042" lon="2.3650577">
        <ele>859.2199707</ele>
        <time>2021-03-30T11:37:28Z</time>
      </trkpt>
      <trkpt lat="42.2582043" lon="2.3650694">
        <ele>859.2199707</ele>
        <time>2021-03-30T11:37:29Z</time>
      </trkpt>
      <trkpt lat="42.2581962" lon="2.3650834">
        <ele>859.2199707</ele>
        <time>2021-03-30T11:37:30Z</time>
      </trkpt>
      <trkpt lat="42.2581931" lon="2.3650957">
        <ele>859.2199707</ele>
        <time>2021-03-30T11:37:31Z</time>
      </trkpt>
      <trkpt lat="42.2581867" lon="2.3651017">
        <ele>859.2199707</ele>
        <time>2021-03-30T11:37:32Z</time>
      </trkpt>
      <trkpt lat="42.2581817" lon="2.3651092">
        <ele>859.2199707</ele>
        <time>2021-03-30T11:37:33Z</time>
      </trkpt>
      <trkpt lat="42.258173" lon="2.3651193">
        <ele>859.2199707</ele>
        <time>2021-03-30T11:37:34Z</time>
      </trkpt>
      <trkpt lat="42.2581518" lon="2.3651637">
        <ele>859.2199707</ele>
        <time>2021-03-30T11:37:38Z</time>
      </trkpt>
      <trkpt lat="42.2581548" lon="2.3651762">
        <ele>859.2199707</ele>
        <time>2021-03-30T11:37:39Z</time>
      </trkpt>
      <trkpt lat="42.2581527" lon="2.3651858">
        <ele>859.2199707</ele>
        <time>2021-03-30T11:37:40Z</time>
      </trkpt>
      <trkpt lat="42.2581458" lon="2.3651905">
        <ele>859.2199707</ele>
        <time>2021-03-30T11:37:41Z</time>
      </trkpt>
      <trkpt lat="42.2580506" lon="2.3652765">
        <ele>859.2800293</ele>
        <time>2021-03-30T11:37:58Z</time>
      </trkpt>
      <trkpt lat="42.2580424" lon="2.3652713">
        <ele>859.22998047</ele>
        <time>2021-03-30T11:37:59Z</time>
      </trkpt>
      <trkpt lat="42.2580377" lon="2.3652712">
        <ele>859.2199707</ele>
        <time>2021-03-30T11:38:00Z</time>
      </trkpt>
      <trkpt lat="42.2580377" lon="2.3652628">
        <ele>859.2199707</ele>
        <time>2021-03-30T11:38:01Z</time>
      </trkpt>
      <trkpt lat="42.2580327" lon="2.3652629">
        <ele>859.2199707</ele>
        <time>2021-03-30T11:38:02Z</time>
      </trkpt>
      <trkpt lat="42.2580233" lon="2.3652579">
        <ele>859.2199707</ele>
        <time>2021-03-30T11:38:03Z</time>
      </trkpt>
      <trkpt lat="42.2580129" lon="2.3652554">
        <ele>859.2199707</ele>
        <time>2021-03-30T11:38:04Z</time>
      </trkpt>
      <trkpt lat="42.2579928" lon="2.3652573">
        <ele>859.2199707</ele>
        <time>2021-03-30T11:38:05Z</time>
      </trkpt>
      <trkpt lat="42.2579781" lon="2.365257">
        <ele>859.2199707</ele>
        <time>2021-03-30T11:38:06Z</time>
      </trkpt>
      <trkpt lat="42.2579656" lon="2.3652488">
        <ele>859.2199707</ele>
        <time>2021-03-30T11:38:07Z</time>
      </trkpt>
      <trkpt lat="42.2579572" lon="2.3652467">
        <ele>859.2199707</ele>
        <time>2021-03-30T11:38:08Z</time>
      </trkpt>
      <trkpt lat="42.2579477" lon="2.3652419">
        <ele>859.2199707</ele>
        <time>2021-03-30T11:38:09Z</time>
      </trkpt>
      <trkpt lat="42.2579346" lon="2.365235">
        <ele>859.2199707</ele>
        <time>2021-03-30T11:38:10Z</time>
      </trkpt>
      <trkpt lat="42.2579258" lon="2.3652349">
        <ele>859.2199707</ele>
        <time>2021-03-30T11:38:11Z</time>
      </trkpt>
      <trkpt lat="42.2579191" lon="2.365232">
        <ele>859.2199707</ele>
        <time>2021-03-30T11:38:12Z</time>
      </trkpt>
      <trkpt lat="42.2579101" lon="2.3652265">
        <ele>859.2199707</ele>
        <time>2021-03-30T11:38:13Z</time>
      </trkpt>
      <trkpt lat="42.2578942" lon="2.3652239">
        <ele>859.2199707</ele>
        <time>2021-03-30T11:38:14Z</time>
      </trkpt>
      <trkpt lat="42.2578865" lon="2.3652207">
        <ele>859.2199707</ele>
        <time>2021-03-30T11:38:15Z</time>
      </trkpt>
      <trkpt lat="42.2578745" lon="2.3652154">
        <ele>859.2199707</ele>
        <time>2021-03-30T11:38:16Z</time>
      </trkpt>
      <trkpt lat="42.2578606" lon="2.3652118">
        <ele>859.2199707</ele>
        <time>2021-03-30T11:38:17Z</time>
      </trkpt>
      <trkpt lat="42.2578483" lon="2.3652027">
        <ele>859.2199707</ele>
        <time>2021-03-30T11:38:18Z</time>
      </trkpt>
      <trkpt lat="42.2578333" lon="2.3652071">
        <ele>859.2199707</ele>
        <time>2021-03-30T11:38:19Z</time>
      </trkpt>
      <trkpt lat="42.2578226" lon="2.3652067">
        <ele>859.2199707</ele>
        <time>2021-03-30T11:38:20Z</time>
      </trkpt>
      <trkpt lat="42.2578113" lon="2.3652085">
        <ele>859.2199707</ele>
        <time>2021-03-30T11:38:21Z</time>
      </trkpt>
      <trkpt lat="42.2577996" lon="2.3652021">
        <ele>859.2199707</ele>
        <time>2021-03-30T11:38:22Z</time>
      </trkpt>
      <trkpt lat="42.257786" lon="2.3651942">
        <ele>859.2199707</ele>
        <time>2021-03-30T11:38:23Z</time>
      </trkpt>
      <trkpt lat="42.2577742" lon="2.3651935">
        <ele>859.2199707</ele>
        <time>2021-03-30T11:38:24Z</time>
      </trkpt>
      <trkpt lat="42.2577648" lon="2.365197">
        <ele>859.2199707</ele>
        <time>2021-03-30T11:38:25Z</time>
      </trkpt>
      <trkpt lat="42.2577529" lon="2.3652042">
        <ele>859.2199707</ele>
        <time>2021-03-30T11:38:26Z</time>
      </trkpt>
      <trkpt lat="42.2577364" lon="2.3652036">
        <ele>859.2199707</ele>
        <time>2021-03-30T11:38:27Z</time>
      </trkpt>
      <trkpt lat="42.257722" lon="2.3651995">
        <ele>859.2199707</ele>
        <time>2021-03-30T11:38:28Z</time>
      </trkpt>
      <trkpt lat="42.2577057" lon="2.3651942">
        <ele>859.2199707</ele>
        <time>2021-03-30T11:38:29Z</time>
      </trkpt>
      <trkpt lat="42.2576958" lon="2.3651966">
        <ele>859.2199707</ele>
        <time>2021-03-30T11:38:30Z</time>
      </trkpt>
      <trkpt lat="42.2576877" lon="2.3651996">
        <ele>859.2199707</ele>
        <time>2021-03-30T11:38:31Z</time>
      </trkpt>
      <trkpt lat="42.257676" lon="2.3651911">
        <ele>859.2199707</ele>
        <time>2021-03-30T11:38:32Z</time>
      </trkpt>
      <trkpt lat="42.2576659" lon="2.3651893">
        <ele>859.2199707</ele>
        <time>2021-03-30T11:38:33Z</time>
      </trkpt>
      <trkpt lat="42.2576555" lon="2.3651912">
        <ele>859.2199707</ele>
        <time>2021-03-30T11:38:34Z</time>
      </trkpt>
      <trkpt lat="42.2576472" lon="2.3651924">
        <ele>859.2199707</ele>
        <time>2021-03-30T11:38:35Z</time>
      </trkpt>
      <trkpt lat="42.2576268" lon="2.3651935">
        <ele>859.2199707</ele>
        <time>2021-03-30T11:38:36Z</time>
      </trkpt>
      <trkpt lat="42.2576193" lon="2.3651905">
        <ele>859.2199707</ele>
        <time>2021-03-30T11:38:37Z</time>
      </trkpt>
      <trkpt lat="42.2576119" lon="2.3651913">
        <ele>859.2199707</ele>
        <time>2021-03-30T11:38:38Z</time>
      </trkpt>
      <trkpt lat="42.2575983" lon="2.365192">
        <ele>859.2199707</ele>
        <time>2021-03-30T11:38:39Z</time>
      </trkpt>
      <trkpt lat="42.2575917" lon="2.365192">
        <ele>859.2199707</ele>
        <time>2021-03-30T11:38:40Z</time>
      </trkpt>
      <trkpt lat="42.2575818" lon="2.3651925">
        <ele>859.2199707</ele>
        <time>2021-03-30T11:38:41Z</time>
      </trkpt>
      <trkpt lat="42.2575668" lon="2.3652031">
        <ele>859.2199707</ele>
        <time>2021-03-30T11:38:42Z</time>
      </trkpt>
      <trkpt lat="42.2575545" lon="2.3652073">
        <ele>859.2199707</ele>
        <time>2021-03-30T11:38:43Z</time>
      </trkpt>
      <trkpt lat="42.2575408" lon="2.3652166">
        <ele>859.2199707</ele>
        <time>2021-03-30T11:38:44Z</time>
      </trkpt>
      <trkpt lat="42.257529" lon="2.3652212">
        <ele>859.2199707</ele>
        <time>2021-03-30T11:38:45Z</time>
      </trkpt>
      <trkpt lat="42.2575183" lon="2.3652399">
        <ele>859.2199707</ele>
        <time>2021-03-30T11:38:46Z</time>
      </trkpt>
      <trkpt lat="42.2575044" lon="2.3652546">
        <ele>859.2199707</ele>
        <time>2021-03-30T11:38:47Z</time>
      </trkpt>
      <trkpt lat="42.257495" lon="2.3652747">
        <ele>859.2199707</ele>
        <time>2021-03-30T11:38:48Z</time>
      </trkpt>
      <trkpt lat="42.2574853" lon="2.3652984">
        <ele>859.2199707</ele>
        <time>2021-03-30T11:38:49Z</time>
      </trkpt>
      <trkpt lat="42.2574793" lon="2.3653171">
        <ele>859.55999756</ele>
        <time>2021-03-30T11:38:50Z</time>
      </trkpt>
      <trkpt lat="42.2574677" lon="2.3653397">
        <ele>859.89001465</ele>
        <time>2021-03-30T11:38:51Z</time>
      </trkpt>
      <trkpt lat="42.2574588" lon="2.3653566">
        <ele>860.23999023</ele>
        <time>2021-03-30T11:38:52Z</time>
      </trkpt>
      <trkpt lat="42.2574549" lon="2.3653757">
        <ele>860.5</ele>
        <time>2021-03-30T11:38:53Z</time>
      </trkpt>
      <trkpt lat="42.257448" lon="2.3653848">
        <ele>860.7800293</ele>
        <time>2021-03-30T11:38:54Z</time>
      </trkpt>
      <trkpt lat="42.2574417" lon="2.3654002">
        <ele>860.90002441</ele>
        <time>2021-03-30T11:38:55Z</time>
      </trkpt>
      <trkpt lat="42.2574357" lon="2.365405">
        <ele>861.08001709</ele>
        <time>2021-03-30T11:38:56Z</time>
      </trkpt>
      <trkpt lat="42.2574271" lon="2.3654124">
        <ele>861.11999512</ele>
        <time>2021-03-30T11:38:57Z</time>
      </trkpt>
      <trkpt lat="42.2574243" lon="2.3654174">
        <ele>861.15002441</ele>
        <time>2021-03-30T11:38:58Z</time>
      </trkpt>
      <trkpt lat="42.2574156" lon="2.3654261">
        <ele>861.19000244</ele>
        <time>2021-03-30T11:38:59Z</time>
      </trkpt>
      <trkpt lat="42.2574061" lon="2.3654237">
        <ele>861.2199707</ele>
        <time>2021-03-30T11:39:00Z</time>
      </trkpt>
      <trkpt lat="42.2573998" lon="2.3654203">
        <ele>861.10998535</ele>
        <time>2021-03-30T11:39:01Z</time>
      </trkpt>
      <trkpt lat="42.2573942" lon="2.3654237">
        <ele>861</ele>
        <time>2021-03-30T11:39:02Z</time>
      </trkpt>
      <trkpt lat="42.2573848" lon="2.3654181">
        <ele>860.97998047</ele>
        <time>2021-03-30T11:39:03Z</time>
      </trkpt>
      <trkpt lat="42.2573761" lon="2.3654092">
        <ele>860.83001709</ele>
        <time>2021-03-30T11:39:04Z</time>
      </trkpt>
      <trkpt lat="42.2573655" lon="2.3653995">
        <ele>860.65997314</ele>
        <time>2021-03-30T11:39:05Z</time>
      </trkpt>
      <trkpt lat="42.2573502" lon="2.3653961">
        <ele>860.46002197</ele>
        <time>2021-03-30T11:39:06Z</time>
      </trkpt>
      <trkpt lat="42.2573371" lon="2.3653942">
        <ele>860.29998779</ele>
        <time>2021-03-30T11:39:07Z</time>
      </trkpt>
      <trkpt lat="42.2573266" lon="2.3653827">
        <ele>860.16998291</ele>
        <time>2021-03-30T11:39:08Z</time>
      </trkpt>
      <trkpt lat="42.2573031" lon="2.3653843">
        <ele>860.01000977</ele>
        <time>2021-03-30T11:39:09Z</time>
      </trkpt>
      <trkpt lat="42.2572955" lon="2.365389">
        <ele>859.84002686</ele>
        <time>2021-03-30T11:39:10Z</time>
      </trkpt>
      <trkpt lat="42.2572873" lon="2.365382">
        <ele>859.79998779</ele>
        <time>2021-03-30T11:39:11Z</time>
      </trkpt>
      <trkpt lat="42.257269" lon="2.3653607">
        <ele>859.52001953</ele>
        <time>2021-03-30T11:39:15Z</time>
      </trkpt>
      <trkpt lat="42.2572664" lon="2.3653509">
        <ele>859.5</ele>
        <time>2021-03-30T11:39:16Z</time>
      </trkpt>
      <trkpt lat="42.2572632" lon="2.3653277">
        <ele>859.45001221</ele>
        <time>2021-03-30T11:39:17Z</time>
      </trkpt>
      <trkpt lat="42.2572628" lon="2.3653079">
        <ele>859.36999512</ele>
        <time>2021-03-30T11:39:18Z</time>
      </trkpt>
      <trkpt lat="42.2572587" lon="2.3652904">
        <ele>859.30999756</ele>
        <time>2021-03-30T11:39:19Z</time>
      </trkpt>
      <trkpt lat="42.2572563" lon="2.3652738">
        <ele>859.26000977</ele>
        <time>2021-03-30T11:39:20Z</time>
      </trkpt>
      <trkpt lat="42.2572525" lon="2.3652671">
        <ele>859.22998047</ele>
        <time>2021-03-30T11:39:21Z</time>
      </trkpt>
      <trkpt lat="42.2572504" lon="2.3652612">
        <ele>859.2199707</ele>
        <time>2021-03-30T11:39:22Z</time>
      </trkpt>
      <trkpt lat="42.2572412" lon="2.3652538">
        <ele>859.2199707</ele>
        <time>2021-03-30T11:39:24Z</time>
      </trkpt>
      <trkpt lat="42.2572362" lon="2.3652509">
        <ele>859.2199707</ele>
        <time>2021-03-30T11:39:25Z</time>
      </trkpt>
      <trkpt lat="42.2572265" lon="2.3652493">
        <ele>859.2199707</ele>
        <time>2021-03-30T11:39:26Z</time>
      </trkpt>
      <trkpt lat="42.2572216" lon="2.3652394">
        <ele>859.2199707</ele>
        <time>2021-03-30T11:39:27Z</time>
      </trkpt>
      <trkpt lat="42.25721" lon="2.3652291">
        <ele>859.22998047</ele>
        <time>2021-03-30T11:39:28Z</time>
      </trkpt>
      <trkpt lat="42.2571995" lon="2.3652194">
        <ele>859.40002441</ele>
        <time>2021-03-30T11:39:29Z</time>
      </trkpt>
      <trkpt lat="42.2571922" lon="2.3652051">
        <ele>859.54998779</ele>
        <time>2021-03-30T11:39:30Z</time>
      </trkpt>
      <trkpt lat="42.2571826" lon="2.3652008">
        <ele>859.64001465</ele>
        <time>2021-03-30T11:39:31Z</time>
      </trkpt>
      <trkpt lat="42.2571769" lon="2.3652005">
        <ele>859.76000977</ele>
        <time>2021-03-30T11:39:32Z</time>
      </trkpt>
      <trkpt lat="42.2571685" lon="2.3651873">
        <ele>859.84997559</ele>
        <time>2021-03-30T11:39:33Z</time>
      </trkpt>
      <trkpt lat="42.2571605" lon="2.3651673">
        <ele>859.91998291</ele>
        <time>2021-03-30T11:39:34Z</time>
      </trkpt>
      <trkpt lat="42.2571551" lon="2.3651575">
        <ele>859.94000244</ele>
        <time>2021-03-30T11:39:35Z</time>
      </trkpt>
      <trkpt lat="42.2571451" lon="2.3651424">
        <ele>859.96002197</ele>
        <time>2021-03-30T11:39:36Z</time>
      </trkpt>
      <trkpt lat="42.2571376" lon="2.3651327">
        <ele>859.98999023</ele>
        <time>2021-03-30T11:39:37Z</time>
      </trkpt>
      <trkpt lat="42.2571311" lon="2.3651227">
        <ele>860</ele>
        <time>2021-03-30T11:39:38Z</time>
      </trkpt>
      <trkpt lat="42.2571188" lon="2.3651113">
        <ele>860</ele>
        <time>2021-03-30T11:39:39Z</time>
      </trkpt>
      <trkpt lat="42.257103" lon="2.3651039">
        <ele>860.10998535</ele>
        <time>2021-03-30T11:39:42Z</time>
      </trkpt>
      <trkpt lat="42.2571017" lon="2.3650846">
        <ele>860.09002686</ele>
        <time>2021-03-30T11:39:43Z</time>
      </trkpt>
      <trkpt lat="42.2570962" lon="2.3650623">
        <ele>859.95001221</ele>
        <time>2021-03-30T11:39:44Z</time>
      </trkpt>
      <trkpt lat="42.257093" lon="2.3650457">
        <ele>859.78997803</ele>
        <time>2021-03-30T11:39:45Z</time>
      </trkpt>
      <trkpt lat="42.2570876" lon="2.3650287">
        <ele>859.65002441</ele>
        <time>2021-03-30T11:39:46Z</time>
      </trkpt>
      <trkpt lat="42.2570815" lon="2.3650135">
        <ele>859.51000977</ele>
        <time>2021-03-30T11:39:47Z</time>
      </trkpt>
      <trkpt lat="42.2570789" lon="2.3649899">
        <ele>859.36999512</ele>
        <time>2021-03-30T11:39:48Z</time>
      </trkpt>
      <trkpt lat="42.2570769" lon="2.3649752">
        <ele>859.15002441</ele>
        <time>2021-03-30T11:39:49Z</time>
      </trkpt>
      <trkpt lat="42.2570728" lon="2.3649553">
        <ele>859.01000977</ele>
        <time>2021-03-30T11:39:50Z</time>
      </trkpt>
      <trkpt lat="42.2570726" lon="2.3649417">
        <ele>858.84002686</ele>
        <time>2021-03-30T11:39:51Z</time>
      </trkpt>
      <trkpt lat="42.2570741" lon="2.3649269">
        <ele>858.71002197</ele>
        <time>2021-03-30T11:39:52Z</time>
      </trkpt>
      <trkpt lat="42.2570693" lon="2.3649139">
        <ele>858.57000732</ele>
        <time>2021-03-30T11:39:53Z</time>
      </trkpt>
      <trkpt lat="42.2570662" lon="2.3648975">
        <ele>858.47998047</ele>
        <time>2021-03-30T11:39:54Z</time>
      </trkpt>
      <trkpt lat="42.2570606" lon="2.3648807">
        <ele>858.35998535</ele>
        <time>2021-03-30T11:39:55Z</time>
      </trkpt>
      <trkpt lat="42.2570569" lon="2.3648611">
        <ele>858.26000977</ele>
        <time>2021-03-30T11:39:56Z</time>
      </trkpt>
      <trkpt lat="42.257049" lon="2.3648435">
        <ele>858.14001465</ele>
        <time>2021-03-30T11:39:57Z</time>
      </trkpt>
      <trkpt lat="42.2570425" lon="2.3648325">
        <ele>858.08001709</ele>
        <time>2021-03-30T11:39:58Z</time>
      </trkpt>
      <trkpt lat="42.257038" lon="2.3648155">
        <ele>858.07000732</ele>
        <time>2021-03-30T11:39:59Z</time>
      </trkpt>
      <trkpt lat="42.257034" lon="2.3647986">
        <ele>858.02001953</ele>
        <time>2021-03-30T11:40:00Z</time>
      </trkpt>
      <trkpt lat="42.2570267" lon="2.3647818">
        <ele>857.9699707</ele>
        <time>2021-03-30T11:40:01Z</time>
      </trkpt>
      <trkpt lat="42.2570288" lon="2.3647654">
        <ele>857.9699707</ele>
        <time>2021-03-30T11:40:02Z</time>
      </trkpt>
      <trkpt lat="42.2570277" lon="2.3647449">
        <ele>857.84997559</ele>
        <time>2021-03-30T11:40:03Z</time>
      </trkpt>
      <trkpt lat="42.2570203" lon="2.3647212">
        <ele>857.75</ele>
        <time>2021-03-30T11:40:04Z</time>
      </trkpt>
      <trkpt lat="42.2570176" lon="2.3646949">
        <ele>857.75</ele>
        <time>2021-03-30T11:40:05Z</time>
      </trkpt>
      <trkpt lat="42.2570139" lon="2.3646767">
        <ele>857.78997803</ele>
        <time>2021-03-30T11:40:06Z</time>
      </trkpt>
      <trkpt lat="42.2570113" lon="2.3646619">
        <ele>857.85998535</ele>
        <time>2021-03-30T11:40:07Z</time>
      </trkpt>
      <trkpt lat="42.2570123" lon="2.3646411">
        <ele>857.91998291</ele>
        <time>2021-03-30T11:40:08Z</time>
      </trkpt>
      <trkpt lat="42.2570082" lon="2.3646301">
        <ele>857.90997314</ele>
        <time>2021-03-30T11:40:09Z</time>
      </trkpt>
      <trkpt lat="42.257003" lon="2.3646141">
        <ele>857.9699707</ele>
        <time>2021-03-30T11:40:10Z</time>
      </trkpt>
      <trkpt lat="42.2569946" lon="2.364607">
        <ele>858.07000732</ele>
        <time>2021-03-30T11:40:11Z</time>
      </trkpt>
      <trkpt lat="42.2569824" lon="2.3645938">
        <ele>858.22998047</ele>
        <time>2021-03-30T11:40:12Z</time>
      </trkpt>
      <trkpt lat="42.2569798" lon="2.3645838">
        <ele>858.46002197</ele>
        <time>2021-03-30T11:40:13Z</time>
      </trkpt>
      <trkpt lat="42.2569742" lon="2.3645694">
        <ele>858.5300293</ele>
        <time>2021-03-30T11:40:14Z</time>
      </trkpt>
      <trkpt lat="42.2569679" lon="2.3645565">
        <ele>858.63000488</ele>
        <time>2021-03-30T11:40:15Z</time>
      </trkpt>
      <trkpt lat="42.2569586" lon="2.3645487">
        <ele>858.75</ele>
        <time>2021-03-30T11:40:16Z</time>
      </trkpt>
      <trkpt lat="42.2569512" lon="2.3645399">
        <ele>858.92999268</ele>
        <time>2021-03-30T11:40:17Z</time>
      </trkpt>
      <trkpt lat="42.2569462" lon="2.3645256">
        <ele>859.07000732</ele>
        <time>2021-03-30T11:40:18Z</time>
      </trkpt>
      <trkpt lat="42.2569395" lon="2.3645149">
        <ele>859.16998291</ele>
        <time>2021-03-30T11:40:19Z</time>
      </trkpt>
      <trkpt lat="42.2569286" lon="2.3644977">
        <ele>859.2199707</ele>
        <time>2021-03-30T11:40:20Z</time>
      </trkpt>
      <trkpt lat="42.2569299" lon="2.3644958">
        <ele>859.2199707</ele>
        <time>2021-03-30T11:40:22Z</time>
      </trkpt>
      <trkpt lat="42.2568863" lon="2.3644932">
        <ele>859.2199707</ele>
        <time>2021-03-30T11:40:29Z</time>
      </trkpt>
      <trkpt lat="42.2568806" lon="2.3644919">
        <ele>859.2199707</ele>
        <time>2021-03-30T11:40:30Z</time>
      </trkpt>
      <trkpt lat="42.2568732" lon="2.3644914">
        <ele>859.2199707</ele>
        <time>2021-03-30T11:40:31Z</time>
      </trkpt>
      <trkpt lat="42.2568671" lon="2.3644887">
        <ele>859.2199707</ele>
        <time>2021-03-30T11:40:32Z</time>
      </trkpt>
      <trkpt lat="42.2568611" lon="2.3644844">
        <ele>859.2199707</ele>
        <time>2021-03-30T11:40:33Z</time>
      </trkpt>
      <trkpt lat="42.2568583" lon="2.3644826">
        <ele>859.2199707</ele>
        <time>2021-03-30T11:40:34Z</time>
      </trkpt>
      <trkpt lat="42.2568531" lon="2.364478">
        <ele>859.2199707</ele>
        <time>2021-03-30T11:40:35Z</time>
      </trkpt>
      <trkpt lat="42.2568447" lon="2.3644755">
        <ele>859.2199707</ele>
        <time>2021-03-30T11:40:36Z</time>
      </trkpt>
      <trkpt lat="42.2568345" lon="2.3644644">
        <ele>859.2199707</ele>
        <time>2021-03-30T11:40:37Z</time>
      </trkpt>
      <trkpt lat="42.2568289" lon="2.3644592">
        <ele>859.2199707</ele>
        <time>2021-03-30T11:40:38Z</time>
      </trkpt>
      <trkpt lat="42.256826" lon="2.3644523">
        <ele>859.2199707</ele>
        <time>2021-03-30T11:40:39Z</time>
      </trkpt>
      <trkpt lat="42.2568071" lon="2.3644276">
        <ele>859.13000488</ele>
        <time>2021-03-30T11:40:42Z</time>
      </trkpt>
      <trkpt lat="42.2568036" lon="2.3644177">
        <ele>859.05999756</ele>
        <time>2021-03-30T11:40:43Z</time>
      </trkpt>
      <trkpt lat="42.2567959" lon="2.3644027">
        <ele>858.97998047</ele>
        <time>2021-03-30T11:40:44Z</time>
      </trkpt>
      <trkpt lat="42.256785" lon="2.364385">
        <ele>858.85998535</ele>
        <time>2021-03-30T11:40:45Z</time>
      </trkpt>
      <trkpt lat="42.2567749" lon="2.3643648">
        <ele>858.73999023</ele>
        <time>2021-03-30T11:40:46Z</time>
      </trkpt>
      <trkpt lat="42.256766" lon="2.3643454">
        <ele>858.63000488</ele>
        <time>2021-03-30T11:40:47Z</time>
      </trkpt>
      <trkpt lat="42.2567568" lon="2.364327">
        <ele>858.53997803</ele>
        <time>2021-03-30T11:40:48Z</time>
      </trkpt>
      <trkpt lat="42.2567467" lon="2.3643087">
        <ele>858.48999023</ele>
        <time>2021-03-30T11:40:49Z</time>
      </trkpt>
      <trkpt lat="42.2567409" lon="2.3642873">
        <ele>858.46002197</ele>
        <time>2021-03-30T11:40:50Z</time>
      </trkpt>
      <trkpt lat="42.2567392" lon="2.3642734">
        <ele>858.40997314</ele>
        <time>2021-03-30T11:40:51Z</time>
      </trkpt>
      <trkpt lat="42.2567311" lon="2.3642509">
        <ele>858.35998535</ele>
        <time>2021-03-30T11:40:52Z</time>
      </trkpt>
      <trkpt lat="42.2567227" lon="2.364232">
        <ele>858.34997559</ele>
        <time>2021-03-30T11:40:53Z</time>
      </trkpt>
      <trkpt lat="42.256714" lon="2.3642195">
        <ele>858.38000488</ele>
        <time>2021-03-30T11:40:54Z</time>
      </trkpt>
      <trkpt lat="42.2567035" lon="2.3642081">
        <ele>858.4699707</ele>
        <time>2021-03-30T11:40:55Z</time>
      </trkpt>
      <trkpt lat="42.2566971" lon="2.364202">
        <ele>858.59997559</ele>
        <time>2021-03-30T11:40:56Z</time>
      </trkpt>
      <trkpt lat="42.2566919" lon="2.36419">
        <ele>858.69000244</ele>
        <time>2021-03-30T11:40:57Z</time>
      </trkpt>
      <trkpt lat="42.2566792" lon="2.3641831">
        <ele>858.76000977</ele>
        <time>2021-03-30T11:40:58Z</time>
      </trkpt>
      <trkpt lat="42.2566666" lon="2.3641789">
        <ele>858.9699707</ele>
        <time>2021-03-30T11:40:59Z</time>
      </trkpt>
      <trkpt lat="42.2566522" lon="2.3641679">
        <ele>859.20001221</ele>
        <time>2021-03-30T11:41:00Z</time>
      </trkpt>
      <trkpt lat="42.2566472" lon="2.3641579">
        <ele>859.2199707</ele>
        <time>2021-03-30T11:41:01Z</time>
      </trkpt>
      <trkpt lat="42.2566389" lon="2.3641519">
        <ele>859.08001709</ele>
        <time>2021-03-30T11:41:02Z</time>
      </trkpt>
      <trkpt lat="42.2566303" lon="2.3641419">
        <ele>858.97998047</ele>
        <time>2021-03-30T11:41:03Z</time>
      </trkpt>
      <trkpt lat="42.2566247" lon="2.3641248">
        <ele>858.82000732</ele>
        <time>2021-03-30T11:41:04Z</time>
      </trkpt>
      <trkpt lat="42.2566429" lon="2.364058">
        <ele>857.47998047</ele>
        <time>2021-03-30T11:41:13Z</time>
      </trkpt>
      <trkpt lat="42.2566446" lon="2.3640624">
        <ele>857.30999756</ele>
        <time>2021-03-30T11:41:14Z</time>
      </trkpt>
      <trkpt lat="42.2566449" lon="2.3640565">
        <ele>857.34997559</ele>
        <time>2021-03-30T11:41:15Z</time>
      </trkpt>
      <trkpt lat="42.2566443" lon="2.3640493">
        <ele>857.26000977</ele>
        <time>2021-03-30T11:41:16Z</time>
      </trkpt>
      <trkpt lat="42.2566573" lon="2.3640297">
        <ele>856.91998291</ele>
        <time>2021-03-30T11:41:18Z</time>
      </trkpt>
      <trkpt lat="42.2566588" lon="2.364016">
        <ele>856.67999268</ele>
        <time>2021-03-30T11:41:19Z</time>
      </trkpt>
      <trkpt lat="42.2566588" lon="2.3639937">
        <ele>856.40997314</ele>
        <time>2021-03-30T11:41:20Z</time>
      </trkpt>
      <trkpt lat="42.2566632" lon="2.3639679">
        <ele>856</ele>
        <time>2021-03-30T11:41:21Z</time>
      </trkpt>
      <trkpt lat="42.2566632" lon="2.3639609">
        <ele>855.4699707</ele>
        <time>2021-03-30T11:41:22Z</time>
      </trkpt>
      <trkpt lat="42.2566633" lon="2.363967">
        <ele>855.29998779</ele>
        <time>2021-03-30T11:41:23Z</time>
      </trkpt>
      <trkpt lat="42.2566465" lon="2.363942">
        <ele>854.98999023</ele>
        <time>2021-03-30T11:41:29Z</time>
      </trkpt>
      <trkpt lat="42.2566429" lon="2.3639395">
        <ele>855.15997314</ele>
        <time>2021-03-30T11:41:30Z</time>
      </trkpt>
      <trkpt lat="42.2566341" lon="2.3639381">
        <ele>855.19000244</ele>
        <time>2021-03-30T11:41:31Z</time>
      </trkpt>
      <trkpt lat="42.2566219" lon="2.3639289">
        <ele>855.28997803</ele>
        <time>2021-03-30T11:41:32Z</time>
      </trkpt>
      <trkpt lat="42.2565994" lon="2.3639273">
        <ele>855.34002686</ele>
        <time>2021-03-30T11:41:33Z</time>
      </trkpt>
      <trkpt lat="42.2565809" lon="2.3639255">
        <ele>855.66998291</ele>
        <time>2021-03-30T11:41:34Z</time>
      </trkpt>
      <trkpt lat="42.2565568" lon="2.3639241">
        <ele>855.95001221</ele>
        <time>2021-03-30T11:41:35Z</time>
      </trkpt>
      <trkpt lat="42.2565345" lon="2.3639198">
        <ele>856.33001709</ele>
        <time>2021-03-30T11:41:36Z</time>
      </trkpt>
      <trkpt lat="42.256513" lon="2.363912">
        <ele>856.66998291</ele>
        <time>2021-03-30T11:41:37Z</time>
      </trkpt>
      <trkpt lat="42.2564913" lon="2.3639061">
        <ele>856.97998047</ele>
        <time>2021-03-30T11:41:38Z</time>
      </trkpt>
      <trkpt lat="42.2564649" lon="2.3639015">
        <ele>857.32000732</ele>
        <time>2021-03-30T11:41:39Z</time>
      </trkpt>
      <trkpt lat="42.2564426" lon="2.3638957">
        <ele>857.76000977</ele>
        <time>2021-03-30T11:41:40Z</time>
      </trkpt>
      <trkpt lat="42.2564137" lon="2.3638891">
        <ele>858.15997314</ele>
        <time>2021-03-30T11:41:41Z</time>
      </trkpt>
      <trkpt lat="42.2563867" lon="2.3638836">
        <ele>858.67999268</ele>
        <time>2021-03-30T11:41:42Z</time>
      </trkpt>
      <trkpt lat="42.2563544" lon="2.3638898">
        <ele>859.16998291</ele>
        <time>2021-03-30T11:41:43Z</time>
      </trkpt>
      <trkpt lat="42.2563259" lon="2.3638849">
        <ele>859.2199707</ele>
        <time>2021-03-30T11:41:44Z</time>
      </trkpt>
      <trkpt lat="42.2562979" lon="2.3638782">
        <ele>859.2199707</ele>
        <time>2021-03-30T11:41:45Z</time>
      </trkpt>
      <trkpt lat="42.2562788" lon="2.3638692">
        <ele>859.2199707</ele>
        <time>2021-03-30T11:41:46Z</time>
      </trkpt>
      <trkpt lat="42.2562619" lon="2.3638473">
        <ele>859.2199707</ele>
        <time>2021-03-30T11:41:47Z</time>
      </trkpt>
      <trkpt lat="42.2562486" lon="2.3638146">
        <ele>859.2199707</ele>
        <time>2021-03-30T11:41:48Z</time>
      </trkpt>
      <trkpt lat="42.2562351" lon="2.3637827">
        <ele>859.2199707</ele>
        <time>2021-03-30T11:41:49Z</time>
      </trkpt>
      <trkpt lat="42.2562251" lon="2.3637422">
        <ele>859.2199707</ele>
        <time>2021-03-30T11:41:50Z</time>
      </trkpt>
      <trkpt lat="42.256211" lon="2.3637003">
        <ele>859.2199707</ele>
        <time>2021-03-30T11:41:51Z</time>
      </trkpt>
      <trkpt lat="42.2561978" lon="2.3636667">
        <ele>859.2199707</ele>
        <time>2021-03-30T11:41:52Z</time>
      </trkpt>
      <trkpt lat="42.2561809" lon="2.3636304">
        <ele>859.2199707</ele>
        <time>2021-03-30T11:41:53Z</time>
      </trkpt>
      <trkpt lat="42.2561683" lon="2.3635935">
        <ele>859.2199707</ele>
        <time>2021-03-30T11:41:54Z</time>
      </trkpt>
      <trkpt lat="42.2561552" lon="2.3635645">
        <ele>859.15997314</ele>
        <time>2021-03-30T11:41:55Z</time>
      </trkpt>
      <trkpt lat="42.256146" lon="2.3635386">
        <ele>859.09002686</ele>
        <time>2021-03-30T11:41:56Z</time>
      </trkpt>
      <trkpt lat="42.2561299" lon="2.3635124">
        <ele>859.04998779</ele>
        <time>2021-03-30T11:41:57Z</time>
      </trkpt>
      <trkpt lat="42.2561081" lon="2.3634843">
        <ele>859.09002686</ele>
        <time>2021-03-30T11:41:58Z</time>
      </trkpt>
      <trkpt lat="42.2560851" lon="2.3634578">
        <ele>859.26000977</ele>
        <time>2021-03-30T11:41:59Z</time>
      </trkpt>
      <trkpt lat="42.2560621" lon="2.3634324">
        <ele>859.67999268</ele>
        <time>2021-03-30T11:42:00Z</time>
      </trkpt>
      <trkpt lat="42.2560441" lon="2.3634077">
        <ele>859.91998291</ele>
        <time>2021-03-30T11:42:01Z</time>
      </trkpt>
      <trkpt lat="42.2560289" lon="2.3633804">
        <ele>860.11999512</ele>
        <time>2021-03-30T11:42:02Z</time>
      </trkpt>
      <trkpt lat="42.256021" lon="2.3633552">
        <ele>860.29998779</ele>
        <time>2021-03-30T11:42:03Z</time>
      </trkpt>
      <trkpt lat="42.2560139" lon="2.3633287">
        <ele>860.44000244</ele>
        <time>2021-03-30T11:42:04Z</time>
      </trkpt>
      <trkpt lat="42.2560075" lon="2.363299">
        <ele>860.57000732</ele>
        <time>2021-03-30T11:42:05Z</time>
      </trkpt>
      <trkpt lat="42.2560046" lon="2.3632652">
        <ele>860.67999268</ele>
        <time>2021-03-30T11:42:06Z</time>
      </trkpt>
      <trkpt lat="42.2560015" lon="2.3632323">
        <ele>860.77001953</ele>
        <time>2021-03-30T11:42:07Z</time>
      </trkpt>
      <trkpt lat="42.2559986" lon="2.3631993">
        <ele>860.84997559</ele>
        <time>2021-03-30T11:42:08Z</time>
      </trkpt>
      <trkpt lat="42.2559985" lon="2.3631727">
        <ele>860.91998291</ele>
        <time>2021-03-30T11:42:09Z</time>
      </trkpt>
      <trkpt lat="42.255993" lon="2.3631478">
        <ele>860.98999023</ele>
        <time>2021-03-30T11:42:10Z</time>
      </trkpt>
      <trkpt lat="42.2559892" lon="2.3631235">
        <ele>861.04998779</ele>
        <time>2021-03-30T11:42:11Z</time>
      </trkpt>
      <trkpt lat="42.2559853" lon="2.3630935">
        <ele>861.10998535</ele>
        <time>2021-03-30T11:42:12Z</time>
      </trkpt>
      <trkpt lat="42.255981" lon="2.363062">
        <ele>861.17999268</ele>
        <time>2021-03-30T11:42:13Z</time>
      </trkpt>
      <trkpt lat="42.2559762" lon="2.3630303">
        <ele>861.23999023</ele>
        <time>2021-03-30T11:42:14Z</time>
      </trkpt>
      <trkpt lat="42.2559678" lon="2.363">
        <ele>861.26000977</ele>
        <time>2021-03-30T11:42:15Z</time>
      </trkpt>
      <trkpt lat="42.2559621" lon="2.3629667">
        <ele>861.22998047</ele>
        <time>2021-03-30T11:42:16Z</time>
      </trkpt>
      <trkpt lat="42.2559522" lon="2.3629229">
        <ele>861.14001465</ele>
        <time>2021-03-30T11:42:17Z</time>
      </trkpt>
      <trkpt lat="42.2559414" lon="2.3628813">
        <ele>860.98999023</ele>
        <time>2021-03-30T11:42:18Z</time>
      </trkpt>
      <trkpt lat="42.2559311" lon="2.3628382">
        <ele>860.78997803</ele>
        <time>2021-03-30T11:42:19Z</time>
      </trkpt>
      <trkpt lat="42.2559157" lon="2.3627999">
        <ele>860.54998779</ele>
        <time>2021-03-30T11:42:20Z</time>
      </trkpt>
      <trkpt lat="42.255899" lon="2.3627578">
        <ele>860.2800293</ele>
        <time>2021-03-30T11:42:21Z</time>
      </trkpt>
      <trkpt lat="42.2558845" lon="2.3627144">
        <ele>860.0300293</ele>
        <time>2021-03-30T11:42:22Z</time>
      </trkpt>
      <trkpt lat="42.2558706" lon="2.3626701">
        <ele>859.83001709</ele>
        <time>2021-03-30T11:42:23Z</time>
      </trkpt>
      <trkpt lat="42.255857" lon="2.3626253">
        <ele>859.67999268</ele>
        <time>2021-03-30T11:42:24Z</time>
      </trkpt>
      <trkpt lat="42.2558403" lon="2.3625824">
        <ele>859.58001709</ele>
        <time>2021-03-30T11:42:25Z</time>
      </trkpt>
      <trkpt lat="42.2558206" lon="2.3625394">
        <ele>859.52001953</ele>
        <time>2021-03-30T11:42:26Z</time>
      </trkpt>
      <trkpt lat="42.2558027" lon="2.362496">
        <ele>859.51000977</ele>
        <time>2021-03-30T11:42:27Z</time>
      </trkpt>
      <trkpt lat="42.2557806" lon="2.3624533">
        <ele>859.5300293</ele>
        <time>2021-03-30T11:42:28Z</time>
      </trkpt>
      <trkpt lat="42.2557574" lon="2.3624061">
        <ele>859.52001953</ele>
        <time>2021-03-30T11:42:29Z</time>
      </trkpt>
      <trkpt lat="42.255735" lon="2.3623678">
        <ele>859.45001221</ele>
        <time>2021-03-30T11:42:30Z</time>
      </trkpt>
      <trkpt lat="42.2557069" lon="2.3623244">
        <ele>859.35998535</ele>
        <time>2021-03-30T11:42:31Z</time>
      </trkpt>
      <trkpt lat="42.255681" lon="2.3622906">
        <ele>859.25</ele>
        <time>2021-03-30T11:42:32Z</time>
      </trkpt>
      <trkpt lat="42.2556539" lon="2.3622541">
        <ele>859.13000488</ele>
        <time>2021-03-30T11:42:33Z</time>
      </trkpt>
      <trkpt lat="42.255632" lon="2.3622204">
        <ele>859</ele>
        <time>2021-03-30T11:42:34Z</time>
      </trkpt>
      <trkpt lat="42.2556063" lon="2.3621866">
        <ele>858.85998535</ele>
        <time>2021-03-30T11:42:35Z</time>
      </trkpt>
      <trkpt lat="42.2555825" lon="2.3621522">
        <ele>858.73999023</ele>
        <time>2021-03-30T11:42:36Z</time>
      </trkpt>
      <trkpt lat="42.2555593" lon="2.3621191">
        <ele>858.59997559</ele>
        <time>2021-03-30T11:42:37Z</time>
      </trkpt>
      <trkpt lat="42.2555345" lon="2.3620879">
        <ele>858.45001221</ele>
        <time>2021-03-30T11:42:38Z</time>
      </trkpt>
      <trkpt lat="42.2555089" lon="2.3620626">
        <ele>858.29998779</ele>
        <time>2021-03-30T11:42:39Z</time>
      </trkpt>
      <trkpt lat="42.2554804" lon="2.3620401">
        <ele>858.15997314</ele>
        <time>2021-03-30T11:42:40Z</time>
      </trkpt>
      <trkpt lat="42.2554546" lon="2.3620198">
        <ele>858.04998779</ele>
        <time>2021-03-30T11:42:41Z</time>
      </trkpt>
      <trkpt lat="42.2554282" lon="2.3620043">
        <ele>857.96002197</ele>
        <time>2021-03-30T11:42:42Z</time>
      </trkpt>
      <trkpt lat="42.2554035" lon="2.3619904">
        <ele>857.90997314</ele>
        <time>2021-03-30T11:42:43Z</time>
      </trkpt>
      <trkpt lat="42.2553791" lon="2.3619736">
        <ele>857.88000488</ele>
        <time>2021-03-30T11:42:44Z</time>
      </trkpt>
      <trkpt lat="42.2553594" lon="2.3619642">
        <ele>857.86999512</ele>
        <time>2021-03-30T11:42:45Z</time>
      </trkpt>
      <trkpt lat="42.2553418" lon="2.3619563">
        <ele>857.89001465</ele>
        <time>2021-03-30T11:42:46Z</time>
      </trkpt>
      <trkpt lat="42.2553231" lon="2.3619465">
        <ele>857.91998291</ele>
        <time>2021-03-30T11:42:47Z</time>
      </trkpt>
      <trkpt lat="42.2553022" lon="2.3619425">
        <ele>857.9699707</ele>
        <time>2021-03-30T11:42:48Z</time>
      </trkpt>
      <trkpt lat="42.2552802" lon="2.3619389">
        <ele>858.03997803</ele>
        <time>2021-03-30T11:42:49Z</time>
      </trkpt>
      <trkpt lat="42.2552561" lon="2.3619321">
        <ele>858.15002441</ele>
        <time>2021-03-30T11:42:50Z</time>
      </trkpt>
      <trkpt lat="42.2552275" lon="2.3619253">
        <ele>858.23999023</ele>
        <time>2021-03-30T11:42:51Z</time>
      </trkpt>
      <trkpt lat="42.255199" lon="2.3619158">
        <ele>858.32000732</ele>
        <time>2021-03-30T11:42:52Z</time>
      </trkpt>
      <trkpt lat="42.2551785" lon="2.3619043">
        <ele>858.36999512</ele>
        <time>2021-03-30T11:42:53Z</time>
      </trkpt>
      <trkpt lat="42.2551555" lon="2.3618964">
        <ele>858.40997314</ele>
        <time>2021-03-30T11:42:54Z</time>
      </trkpt>
      <trkpt lat="42.2551364" lon="2.3618918">
        <ele>858.44000244</ele>
        <time>2021-03-30T11:42:55Z</time>
      </trkpt>
      <trkpt lat="42.2551221" lon="2.361891">
        <ele>858.4699707</ele>
        <time>2021-03-30T11:42:56Z</time>
      </trkpt>
      <trkpt lat="42.2551136" lon="2.3618703">
        <ele>858.64001465</ele>
        <time>2021-03-30T11:43:37Z</time>
      </trkpt>
      <trkpt lat="42.2551131" lon="2.3618685">
        <ele>858.63000488</ele>
        <time>2021-03-30T11:43:38Z</time>
      </trkpt>
      <trkpt lat="42.255115" lon="2.3618661">
        <ele>858.61999512</ele>
        <time>2021-03-30T11:43:39Z</time>
      </trkpt>
      <trkpt lat="42.2551148" lon="2.3618619">
        <ele>858.59997559</ele>
        <time>2021-03-30T11:43:40Z</time>
      </trkpt>
      <trkpt lat="42.2550711" lon="2.3618853">
        <ele>858.91998291</ele>
        <time>2021-03-30T11:44:14Z</time>
      </trkpt>
      <trkpt lat="42.255065" lon="2.3618829">
        <ele>858.92999268</ele>
        <time>2021-03-30T11:44:15Z</time>
      </trkpt>
      <trkpt lat="42.2550686" lon="2.361883">
        <ele>858.94000244</ele>
        <time>2021-03-30T11:44:16Z</time>
      </trkpt>
      <trkpt lat="42.2550688" lon="2.3618731">
        <ele>858.92999268</ele>
        <time>2021-03-30T11:44:17Z</time>
      </trkpt>
      <trkpt lat="42.2550649" lon="2.3618606">
        <ele>858.88000488</ele>
        <time>2021-03-30T11:44:18Z</time>
      </trkpt>
      <trkpt lat="42.2550526" lon="2.3618525">
        <ele>858.84997559</ele>
        <time>2021-03-30T11:44:19Z</time>
      </trkpt>
      <trkpt lat="42.255046" lon="2.3618561">
        <ele>858.88000488</ele>
        <time>2021-03-30T11:44:20Z</time>
      </trkpt>
      <trkpt lat="42.2550422" lon="2.3618548">
        <ele>858.92999268</ele>
        <time>2021-03-30T11:44:21Z</time>
      </trkpt>
      <trkpt lat="42.2550447" lon="2.3618425">
        <ele>858.95001221</ele>
        <time>2021-03-30T11:44:22Z</time>
      </trkpt>
      <trkpt lat="42.2550404" lon="2.3618347">
        <ele>858.90997314</ele>
        <time>2021-03-30T11:44:23Z</time>
      </trkpt>
      <trkpt lat="42.2550367" lon="2.3618207">
        <ele>858.90997314</ele>
        <time>2021-03-30T11:44:24Z</time>
      </trkpt>
      <trkpt lat="42.2550234" lon="2.3618082">
        <ele>858.90002441</ele>
        <time>2021-03-30T11:44:25Z</time>
      </trkpt>
      <trkpt lat="42.255014" lon="2.3618051">
        <ele>858.98999023</ele>
        <time>2021-03-30T11:44:26Z</time>
      </trkpt>
      <trkpt lat="42.2550121" lon="2.361805">
        <ele>859.15002441</ele>
        <time>2021-03-30T11:44:32Z</time>
      </trkpt>
      <trkpt lat="42.255013" lon="2.3617971">
        <ele>859.10998535</ele>
        <time>2021-03-30T11:44:33Z</time>
      </trkpt>
      <trkpt lat="42.25501" lon="2.3617826">
        <ele>859.09002686</ele>
        <time>2021-03-30T11:44:34Z</time>
      </trkpt>
      <trkpt lat="42.2550057" lon="2.3617723">
        <ele>859.10998535</ele>
        <time>2021-03-30T11:44:35Z</time>
      </trkpt>
      <trkpt lat="42.2549992" lon="2.3617523">
        <ele>859.15002441</ele>
        <time>2021-03-30T11:44:36Z</time>
      </trkpt>
      <trkpt lat="42.2549983" lon="2.3617408">
        <ele>859.22998047</ele>
        <time>2021-03-30T11:44:37Z</time>
      </trkpt>
      <trkpt lat="42.2549993" lon="2.3617289">
        <ele>859.26000977</ele>
        <time>2021-03-30T11:44:38Z</time>
      </trkpt>
      <trkpt lat="42.2549926" lon="2.36172">
        <ele>859.23999023</ele>
        <time>2021-03-30T11:44:39Z</time>
      </trkpt>
      <trkpt lat="42.2549842" lon="2.361707">
        <ele>859.38000488</ele>
        <time>2021-03-30T11:44:40Z</time>
      </trkpt>
      <trkpt lat="42.2549818" lon="2.3616933">
        <ele>859.54998779</ele>
        <time>2021-03-30T11:44:41Z</time>
      </trkpt>
      <trkpt lat="42.2549777" lon="2.3616847">
        <ele>859.59997559</ele>
        <time>2021-03-30T11:44:42Z</time>
      </trkpt>
      <trkpt lat="42.2549691" lon="2.3616611">
        <ele>859.78997803</ele>
        <time>2021-03-30T11:44:46Z</time>
      </trkpt>
      <trkpt lat="42.2549676" lon="2.3616579">
        <ele>859.82000732</ele>
        <time>2021-03-30T11:44:47Z</time>
      </trkpt>
      <trkpt lat="42.2549646" lon="2.361655">
        <ele>859.84997559</ele>
        <time>2021-03-30T11:44:48Z</time>
      </trkpt>
      <trkpt lat="42.2549599" lon="2.3616438">
        <ele>859.90002441</ele>
        <time>2021-03-30T11:44:49Z</time>
      </trkpt>
      <trkpt lat="42.2549503" lon="2.3616493">
        <ele>859.98999023</ele>
        <time>2021-03-30T11:44:50Z</time>
      </trkpt>
      <trkpt lat="42.2549337" lon="2.36165">
        <ele>860.16998291</ele>
        <time>2021-03-30T11:44:51Z</time>
      </trkpt>
      <trkpt lat="42.2549246" lon="2.3616513">
        <ele>860.4699707</ele>
        <time>2021-03-30T11:44:52Z</time>
      </trkpt>
      <trkpt lat="42.2549105" lon="2.3616491">
        <ele>860.65997314</ele>
        <time>2021-03-30T11:44:53Z</time>
      </trkpt>
      <trkpt lat="42.2548977" lon="2.3616331">
        <ele>860.92999268</ele>
        <time>2021-03-30T11:44:54Z</time>
      </trkpt>
      <trkpt lat="42.2548916" lon="2.3616155">
        <ele>861.17999268</ele>
        <time>2021-03-30T11:44:55Z</time>
      </trkpt>
      <trkpt lat="42.2548843" lon="2.3615994">
        <ele>861.30999756</ele>
        <time>2021-03-30T11:44:56Z</time>
      </trkpt>
      <trkpt lat="42.2548759" lon="2.3615819">
        <ele>861.45001221</ele>
        <time>2021-03-30T11:44:57Z</time>
      </trkpt>
      <trkpt lat="42.2548689" lon="2.3615712">
        <ele>861.60998535</ele>
        <time>2021-03-30T11:44:58Z</time>
      </trkpt>
      <trkpt lat="42.2548711" lon="2.3615602">
        <ele>861.75</ele>
        <time>2021-03-30T11:44:59Z</time>
      </trkpt>
      <trkpt lat="42.2548687" lon="2.3615426">
        <ele>861.72998047</ele>
        <time>2021-03-30T11:45:00Z</time>
      </trkpt>
      <trkpt lat="42.2548621" lon="2.3615294">
        <ele>861.76000977</ele>
        <time>2021-03-30T11:45:01Z</time>
      </trkpt>
      <trkpt lat="42.254853" lon="2.3615218">
        <ele>861.88000488</ele>
        <time>2021-03-30T11:45:02Z</time>
      </trkpt>
      <trkpt lat="42.2548502" lon="2.3615076">
        <ele>862.05999756</ele>
        <time>2021-03-30T11:45:03Z</time>
      </trkpt>
      <trkpt lat="42.2548461" lon="2.3614855">
        <ele>862.11999512</ele>
        <time>2021-03-30T11:45:04Z</time>
      </trkpt>
      <trkpt lat="42.2548437" lon="2.3614709">
        <ele>862.20001221</ele>
        <time>2021-03-30T11:45:05Z</time>
      </trkpt>
      <trkpt lat="42.2548419" lon="2.3614622">
        <ele>862.25</ele>
        <time>2021-03-30T11:45:06Z</time>
      </trkpt>
      <trkpt lat="42.2548384" lon="2.3614458">
        <ele>862.28997803</ele>
        <time>2021-03-30T11:45:07Z</time>
      </trkpt>
      <trkpt lat="42.2548282" lon="2.3614227">
        <ele>862.40997314</ele>
        <time>2021-03-30T11:45:09Z</time>
      </trkpt>
      <trkpt lat="42.2548243" lon="2.3614052">
        <ele>862.53997803</ele>
        <time>2021-03-30T11:45:10Z</time>
      </trkpt>
      <trkpt lat="42.2548202" lon="2.3613943">
        <ele>862.61999512</ele>
        <time>2021-03-30T11:45:11Z</time>
      </trkpt>
      <trkpt lat="42.2548157" lon="2.3613857">
        <ele>862.70001221</ele>
        <time>2021-03-30T11:45:12Z</time>
      </trkpt>
      <trkpt lat="42.2548078" lon="2.3613797">
        <ele>862.77001953</ele>
        <time>2021-03-30T11:45:13Z</time>
      </trkpt>
      <trkpt lat="42.2548048" lon="2.3613682">
        <ele>862.88000488</ele>
        <time>2021-03-30T11:45:14Z</time>
      </trkpt>
      <trkpt lat="42.2547959" lon="2.3613519">
        <ele>862.89001465</ele>
        <time>2021-03-30T11:45:15Z</time>
      </trkpt>
      <trkpt lat="42.2547939" lon="2.3613423">
        <ele>862.97998047</ele>
        <time>2021-03-30T11:45:16Z</time>
      </trkpt>
      <trkpt lat="42.2547877" lon="2.3613338">
        <ele>862.98999023</ele>
        <time>2021-03-30T11:45:17Z</time>
      </trkpt>
      <trkpt lat="42.2547814" lon="2.3613189">
        <ele>863.08001709</ele>
        <time>2021-03-30T11:45:18Z</time>
      </trkpt>
      <trkpt lat="42.2547793" lon="2.3613052">
        <ele>863.15997314</ele>
        <time>2021-03-30T11:45:19Z</time>
      </trkpt>
      <trkpt lat="42.2547756" lon="2.3613022">
        <ele>863.16998291</ele>
        <time>2021-03-30T11:45:20Z</time>
      </trkpt>
      <trkpt lat="42.2547709" lon="2.3612913">
        <ele>863.23999023</ele>
        <time>2021-03-30T11:45:21Z</time>
      </trkpt>
      <trkpt lat="42.2547656" lon="2.3612756">
        <ele>863.33001709</ele>
        <time>2021-03-30T11:45:22Z</time>
      </trkpt>
      <trkpt lat="42.2547622" lon="2.3612623">
        <ele>863.41998291</ele>
        <time>2021-03-30T11:45:23Z</time>
      </trkpt>
      <trkpt lat="42.2547482" lon="2.3612539">
        <ele>863.47998047</ele>
        <time>2021-03-30T11:45:24Z</time>
      </trkpt>
      <trkpt lat="42.2547376" lon="2.361248">
        <ele>863.82000732</ele>
        <time>2021-03-30T11:45:25Z</time>
      </trkpt>
      <trkpt lat="42.2547298" lon="2.3612376">
        <ele>864.13000488</ele>
        <time>2021-03-30T11:45:26Z</time>
      </trkpt>
      <trkpt lat="42.254723" lon="2.3612278">
        <ele>864.35998535</ele>
        <time>2021-03-30T11:45:27Z</time>
      </trkpt>
      <trkpt lat="42.2547215" lon="2.3612152">
        <ele>864.55999756</ele>
        <time>2021-03-30T11:45:28Z</time>
      </trkpt>
      <trkpt lat="42.2547164" lon="2.3611983">
        <ele>864.63000488</ele>
        <time>2021-03-30T11:45:29Z</time>
      </trkpt>
      <trkpt lat="42.2547108" lon="2.3611807">
        <ele>864.82000732</ele>
        <time>2021-03-30T11:45:30Z</time>
      </trkpt>
      <trkpt lat="42.254704" lon="2.3611685">
        <ele>865.0300293</ele>
        <time>2021-03-30T11:45:31Z</time>
      </trkpt>
      <trkpt lat="42.2547008" lon="2.3611547">
        <ele>865.28997803</ele>
        <time>2021-03-30T11:45:32Z</time>
      </trkpt>
      <trkpt lat="42.2547009" lon="2.3611404">
        <ele>865.42999268</ele>
        <time>2021-03-30T11:45:33Z</time>
      </trkpt>
      <trkpt lat="42.2546976" lon="2.3611223">
        <ele>865.44000244</ele>
        <time>2021-03-30T11:45:34Z</time>
      </trkpt>
      <trkpt lat="42.2546907" lon="2.3611037">
        <ele>865.54998779</ele>
        <time>2021-03-30T11:45:35Z</time>
      </trkpt>
      <trkpt lat="42.2546877" lon="2.361087">
        <ele>865.69000244</ele>
        <time>2021-03-30T11:45:36Z</time>
      </trkpt>
      <trkpt lat="42.2546891" lon="2.3610627">
        <ele>865.55999756</ele>
        <time>2021-03-30T11:45:37Z</time>
      </trkpt>
      <trkpt lat="42.2546862" lon="2.3610382">
        <ele>865.11999512</ele>
        <time>2021-03-30T11:45:38Z</time>
      </trkpt>
      <trkpt lat="42.2546819" lon="2.3610211">
        <ele>864.80999756</ele>
        <time>2021-03-30T11:45:39Z</time>
      </trkpt>
      <trkpt lat="42.254674" lon="2.3610065">
        <ele>864.70001221</ele>
        <time>2021-03-30T11:45:40Z</time>
      </trkpt>
      <trkpt lat="42.2546665" lon="2.3609934">
        <ele>864.78997803</ele>
        <time>2021-03-30T11:45:41Z</time>
      </trkpt>
      <trkpt lat="42.2546596" lon="2.3609767">
        <ele>864.94000244</ele>
        <time>2021-03-30T11:45:42Z</time>
      </trkpt>
      <trkpt lat="42.2546524" lon="2.3609638">
        <ele>865.01000977</ele>
        <time>2021-03-30T11:45:43Z</time>
      </trkpt>
      <trkpt lat="42.2546434" lon="2.3609533">
        <ele>865.16998291</ele>
        <time>2021-03-30T11:45:44Z</time>
      </trkpt>
      <trkpt lat="42.2546348" lon="2.3609357">
        <ele>865.44000244</ele>
        <time>2021-03-30T11:45:45Z</time>
      </trkpt>
      <trkpt lat="42.2546266" lon="2.3609225">
        <ele>865.65002441</ele>
        <time>2021-03-30T11:45:46Z</time>
      </trkpt>
      <trkpt lat="42.2546209" lon="2.3609087">
        <ele>865.89001465</ele>
        <time>2021-03-30T11:45:47Z</time>
      </trkpt>
      <trkpt lat="42.2546148" lon="2.3608892">
        <ele>866.0300293</ele>
        <time>2021-03-30T11:45:48Z</time>
      </trkpt>
      <trkpt lat="42.2546092" lon="2.3608772">
        <ele>866.13000488</ele>
        <time>2021-03-30T11:45:49Z</time>
      </trkpt>
      <trkpt lat="42.2546019" lon="2.3608728">
        <ele>866.28997803</ele>
        <time>2021-03-30T11:45:50Z</time>
      </trkpt>
      <trkpt lat="42.2545977" lon="2.3608643">
        <ele>866.61999512</ele>
        <time>2021-03-30T11:45:51Z</time>
      </trkpt>
      <trkpt lat="42.254598" lon="2.360854">
        <ele>866.7800293</ele>
        <time>2021-03-30T11:45:52Z</time>
      </trkpt>
      <trkpt lat="42.2545995" lon="2.3608534">
        <ele>866.64001465</ele>
        <time>2021-03-30T11:45:54Z</time>
      </trkpt>
      <trkpt lat="42.2546016" lon="2.3608413">
        <ele>866.59002686</ele>
        <time>2021-03-30T11:45:55Z</time>
      </trkpt>
      <trkpt lat="42.2546013" lon="2.3608389">
        <ele>866.35998535</ele>
        <time>2021-03-30T11:45:56Z</time>
      </trkpt>
      <trkpt lat="42.2545979" lon="2.3608353">
        <ele>866.32000732</ele>
        <time>2021-03-30T11:45:57Z</time>
      </trkpt>
      <trkpt lat="42.2545964" lon="2.3608219">
        <ele>866.47998047</ele>
        <time>2021-03-30T11:46:02Z</time>
      </trkpt>
      <trkpt lat="42.2545982" lon="2.3608115">
        <ele>866.53997803</ele>
        <time>2021-03-30T11:46:03Z</time>
      </trkpt>
      <trkpt lat="42.2545967" lon="2.3607968">
        <ele>866.45001221</ele>
        <time>2021-03-30T11:46:04Z</time>
      </trkpt>
      <trkpt lat="42.2545963" lon="2.3607817">
        <ele>866.52001953</ele>
        <time>2021-03-30T11:46:05Z</time>
      </trkpt>
      <trkpt lat="42.2545941" lon="2.3607601">
        <ele>866.54998779</ele>
        <time>2021-03-30T11:46:06Z</time>
      </trkpt>
      <trkpt lat="42.2545914" lon="2.3607371">
        <ele>866.65997314</ele>
        <time>2021-03-30T11:46:07Z</time>
      </trkpt>
      <trkpt lat="42.2545901" lon="2.3607222">
        <ele>866.82000732</ele>
        <time>2021-03-30T11:46:08Z</time>
      </trkpt>
      <trkpt lat="42.2545898" lon="2.3607203">
        <ele>866.90002441</ele>
        <time>2021-03-30T11:46:09Z</time>
      </trkpt>
      <trkpt lat="42.2545887" lon="2.3606995">
        <ele>866.92999268</ele>
        <time>2021-03-30T11:46:10Z</time>
      </trkpt>
      <trkpt lat="42.2545852" lon="2.3606776">
        <ele>866.98999023</ele>
        <time>2021-03-30T11:46:11Z</time>
      </trkpt>
      <trkpt lat="42.2545818" lon="2.3606643">
        <ele>867.17999268</ele>
        <time>2021-03-30T11:46:12Z</time>
      </trkpt>
      <trkpt lat="42.2545779" lon="2.3606567">
        <ele>867.38000488</ele>
        <time>2021-03-30T11:46:13Z</time>
      </trkpt>
      <trkpt lat="42.2545764" lon="2.3606439">
        <ele>867.59997559</ele>
        <time>2021-03-30T11:46:14Z</time>
      </trkpt>
      <trkpt lat="42.2545766" lon="2.3606262">
        <ele>867.48999023</ele>
        <time>2021-03-30T11:46:16Z</time>
      </trkpt>
      <trkpt lat="42.2545753" lon="2.3606117">
        <ele>867.67999268</ele>
        <time>2021-03-30T11:46:17Z</time>
      </trkpt>
      <trkpt lat="42.2545691" lon="2.3605999">
        <ele>867.77001953</ele>
        <time>2021-03-30T11:46:18Z</time>
      </trkpt>
      <trkpt lat="42.2545651" lon="2.3605833">
        <ele>868.09997559</ele>
        <time>2021-03-30T11:46:19Z</time>
      </trkpt>
      <trkpt lat="42.2545654" lon="2.3605715">
        <ele>868.34002686</ele>
        <time>2021-03-30T11:46:20Z</time>
      </trkpt>
      <trkpt lat="42.2545609" lon="2.3605618">
        <ele>868.34997559</ele>
        <time>2021-03-30T11:46:21Z</time>
      </trkpt>
      <trkpt lat="42.2545581" lon="2.3605547">
        <ele>868.58001709</ele>
        <time>2021-03-30T11:46:22Z</time>
      </trkpt>
      <trkpt lat="42.2545521" lon="2.3605455">
        <ele>868.75</ele>
        <time>2021-03-30T11:46:23Z</time>
      </trkpt>
      <trkpt lat="42.254547" lon="2.3605378">
        <ele>869.09002686</ele>
        <time>2021-03-30T11:46:24Z</time>
      </trkpt>
      <trkpt lat="42.2545453" lon="2.3605227">
        <ele>869.39001465</ele>
        <time>2021-03-30T11:46:25Z</time>
      </trkpt>
      <trkpt lat="42.2545458" lon="2.3605085">
        <ele>869.51000977</ele>
        <time>2021-03-30T11:46:26Z</time>
      </trkpt>
      <trkpt lat="42.254543" lon="2.3605014">
        <ele>869.48999023</ele>
        <time>2021-03-30T11:46:27Z</time>
      </trkpt>
      <trkpt lat="42.2545377" lon="2.3604907">
        <ele>869.64001465</ele>
        <time>2021-03-30T11:46:28Z</time>
      </trkpt>
      <trkpt lat="42.2545353" lon="2.360478">
        <ele>869.92999268</ele>
        <time>2021-03-30T11:46:29Z</time>
      </trkpt>
      <trkpt lat="42.2545337" lon="2.3604624">
        <ele>870.09002686</ele>
        <time>2021-03-30T11:46:30Z</time>
      </trkpt>
      <trkpt lat="42.2545286" lon="2.3604439">
        <ele>870.19000244</ele>
        <time>2021-03-30T11:46:31Z</time>
      </trkpt>
      <trkpt lat="42.2545259" lon="2.3604342">
        <ele>870.46002197</ele>
        <time>2021-03-30T11:46:32Z</time>
      </trkpt>
      <trkpt lat="42.2545281" lon="2.3604209">
        <ele>870.63000488</ele>
        <time>2021-03-30T11:46:33Z</time>
      </trkpt>
      <trkpt lat="42.254528" lon="2.3604104">
        <ele>870.5300293</ele>
        <time>2021-03-30T11:46:34Z</time>
      </trkpt>
      <trkpt lat="42.254531" lon="2.360399">
        <ele>870.5300293</ele>
        <time>2021-03-30T11:46:35Z</time>
      </trkpt>
      <trkpt lat="42.2545267" lon="2.3603789">
        <ele>870.36999512</ele>
        <time>2021-03-30T11:46:36Z</time>
      </trkpt>
      <trkpt lat="42.2545283" lon="2.3603586">
        <ele>870.58001709</ele>
        <time>2021-03-30T11:46:37Z</time>
      </trkpt>
      <trkpt lat="42.254529" lon="2.3603442">
        <ele>870.52001953</ele>
        <time>2021-03-30T11:46:38Z</time>
      </trkpt>
      <trkpt lat="42.2545284" lon="2.3603253">
        <ele>870.4699707</ele>
        <time>2021-03-30T11:46:39Z</time>
      </trkpt>
      <trkpt lat="42.2545272" lon="2.3603104">
        <ele>870.5</ele>
        <time>2021-03-30T11:46:40Z</time>
      </trkpt>
      <trkpt lat="42.2545334" lon="2.3602931">
        <ele>870.57000732</ele>
        <time>2021-03-30T11:46:41Z</time>
      </trkpt>
      <trkpt lat="42.2545402" lon="2.3602853">
        <ele>870.25</ele>
        <time>2021-03-30T11:46:42Z</time>
      </trkpt>
      <trkpt lat="42.2545458" lon="2.3602667">
        <ele>869.85998535</ele>
        <time>2021-03-30T11:46:43Z</time>
      </trkpt>
      <trkpt lat="42.2545458" lon="2.3602453">
        <ele>869.5300293</ele>
        <time>2021-03-30T11:46:44Z</time>
      </trkpt>
      <trkpt lat="42.2545445" lon="2.3602293">
        <ele>869.5</ele>
        <time>2021-03-30T11:46:45Z</time>
      </trkpt>
      <trkpt lat="42.2545441" lon="2.3602114">
        <ele>869.55999756</ele>
        <time>2021-03-30T11:46:46Z</time>
      </trkpt>
      <trkpt lat="42.2545385" lon="2.3601916">
        <ele>869.59002686</ele>
        <time>2021-03-30T11:46:47Z</time>
      </trkpt>
      <trkpt lat="42.2545377" lon="2.3601742">
        <ele>869.88000488</ele>
        <time>2021-03-30T11:46:48Z</time>
      </trkpt>
      <trkpt lat="42.2545379" lon="2.3601554">
        <ele>869.96002197</ele>
        <time>2021-03-30T11:46:49Z</time>
      </trkpt>
      <trkpt lat="42.2545352" lon="2.3601422">
        <ele>869.95001221</ele>
        <time>2021-03-30T11:46:50Z</time>
      </trkpt>
      <trkpt lat="42.2545306" lon="2.3601291">
        <ele>870.09002686</ele>
        <time>2021-03-30T11:46:51Z</time>
      </trkpt>
      <trkpt lat="42.254527" lon="2.3601165">
        <ele>870.34997559</ele>
        <time>2021-03-30T11:46:52Z</time>
      </trkpt>
      <trkpt lat="42.2545245" lon="2.3601082">
        <ele>870.55999756</ele>
        <time>2021-03-30T11:46:53Z</time>
      </trkpt>
      <trkpt lat="42.2545204" lon="2.3601">
        <ele>870.71002197</ele>
        <time>2021-03-30T11:46:54Z</time>
      </trkpt>
      <trkpt lat="42.2545205" lon="2.3600882">
        <ele>870.95001221</ele>
        <time>2021-03-30T11:46:55Z</time>
      </trkpt>
      <trkpt lat="42.2545216" lon="2.3600796">
        <ele>870.96002197</ele>
        <time>2021-03-30T11:46:56Z</time>
      </trkpt>
      <trkpt lat="42.2545225" lon="2.3600661">
        <ele>870.90997314</ele>
        <time>2021-03-30T11:46:57Z</time>
      </trkpt>
      <trkpt lat="42.2545265" lon="2.3600529">
        <ele>870.84997559</ele>
        <time>2021-03-30T11:46:58Z</time>
      </trkpt>
      <trkpt lat="42.2545311" lon="2.3600369">
        <ele>870.64001465</ele>
        <time>2021-03-30T11:46:59Z</time>
      </trkpt>
      <trkpt lat="42.2545294" lon="2.3600253">
        <ele>870.38000488</ele>
        <time>2021-03-30T11:47:00Z</time>
      </trkpt>
      <trkpt lat="42.2545282" lon="2.3600185">
        <ele>870.44000244</ele>
        <time>2021-03-30T11:47:01Z</time>
      </trkpt>
      <trkpt lat="42.2545278" lon="2.3600051">
        <ele>870.51000977</ele>
        <time>2021-03-30T11:47:02Z</time>
      </trkpt>
      <trkpt lat="42.2545303" lon="2.3599881">
        <ele>870.53997803</ele>
        <time>2021-03-30T11:47:03Z</time>
      </trkpt>
      <trkpt lat="42.2545311" lon="2.3599638">
        <ele>870.34997559</ele>
        <time>2021-03-30T11:47:04Z</time>
      </trkpt>
      <trkpt lat="42.2545312" lon="2.3599421">
        <ele>870.15002441</ele>
        <time>2021-03-30T11:47:05Z</time>
      </trkpt>
      <trkpt lat="42.2545306" lon="2.3599302">
        <ele>870</ele>
        <time>2021-03-30T11:47:06Z</time>
      </trkpt>
      <trkpt lat="42.2545283" lon="2.3599202">
        <ele>869.96002197</ele>
        <time>2021-03-30T11:47:07Z</time>
      </trkpt>
      <trkpt lat="42.2545186" lon="2.3599084">
        <ele>870.03997803</ele>
        <time>2021-03-30T11:47:08Z</time>
      </trkpt>
      <trkpt lat="42.2545089" lon="2.3598999">
        <ele>870.53997803</ele>
        <time>2021-03-30T11:47:09Z</time>
      </trkpt>
      <trkpt lat="42.2545038" lon="2.3598827">
        <ele>871.11999512</ele>
        <time>2021-03-30T11:47:10Z</time>
      </trkpt>
      <trkpt lat="42.2544954" lon="2.3598677">
        <ele>871.41998291</ele>
        <time>2021-03-30T11:47:11Z</time>
      </trkpt>
      <trkpt lat="42.2544928" lon="2.3598407">
        <ele>871.90002441</ele>
        <time>2021-03-30T11:47:12Z</time>
      </trkpt>
      <trkpt lat="42.2544888" lon="2.359836">
        <ele>872.0300293</ele>
        <time>2021-03-30T11:47:13Z</time>
      </trkpt>
      <trkpt lat="42.2544784" lon="2.3598253">
        <ele>872.2800293</ele>
        <time>2021-03-30T11:47:14Z</time>
      </trkpt>
      <trkpt lat="42.2544775" lon="2.3598033">
        <ele>872.92999268</ele>
        <time>2021-03-30T11:47:15Z</time>
      </trkpt>
      <trkpt lat="42.2544654" lon="2.3597835">
        <ele>873.70001221</ele>
        <time>2021-03-30T11:47:16Z</time>
      </trkpt>
      <trkpt lat="42.254456" lon="2.3597618">
        <ele>874.32000732</ele>
        <time>2021-03-30T11:47:17Z</time>
      </trkpt>
      <trkpt lat="42.2544502" lon="2.3597526">
        <ele>874.84002686</ele>
        <time>2021-03-30T11:47:18Z</time>
      </trkpt>
      <trkpt lat="42.2544434" lon="2.3597396">
        <ele>875.2800293</ele>
        <time>2021-03-30T11:47:19Z</time>
      </trkpt>
      <trkpt lat="42.2544407" lon="2.3597335">
        <ele>875.45001221</ele>
        <time>2021-03-30T11:47:20Z</time>
      </trkpt>
      <trkpt lat="42.2544394" lon="2.3597137">
        <ele>875.65997314</ele>
        <time>2021-03-30T11:47:21Z</time>
      </trkpt>
      <trkpt lat="42.2544384" lon="2.3596916">
        <ele>875.77001953</ele>
        <time>2021-03-30T11:47:22Z</time>
      </trkpt>
      <trkpt lat="42.2544377" lon="2.3596759">
        <ele>875.84002686</ele>
        <time>2021-03-30T11:47:23Z</time>
      </trkpt>
      <trkpt lat="42.2544391" lon="2.35966">
        <ele>875.89001465</ele>
        <time>2021-03-30T11:47:24Z</time>
      </trkpt>
      <trkpt lat="42.254439" lon="2.3596458">
        <ele>875.78997803</ele>
        <time>2021-03-30T11:47:25Z</time>
      </trkpt>
      <trkpt lat="42.2544358" lon="2.3596308">
        <ele>875.78997803</ele>
        <time>2021-03-30T11:47:26Z</time>
      </trkpt>
      <trkpt lat="42.2544322" lon="2.3596226">
        <ele>875.98999023</ele>
        <time>2021-03-30T11:47:27Z</time>
      </trkpt>
      <trkpt lat="42.2544288" lon="2.3596053">
        <ele>876.22998047</ele>
        <time>2021-03-30T11:47:28Z</time>
      </trkpt>
      <trkpt lat="42.2544256" lon="2.3595901">
        <ele>876.45001221</ele>
        <time>2021-03-30T11:47:29Z</time>
      </trkpt>
      <trkpt lat="42.2544276" lon="2.3595717">
        <ele>876.65997314</ele>
        <time>2021-03-30T11:47:30Z</time>
      </trkpt>
      <trkpt lat="42.2544254" lon="2.359555">
        <ele>876.53997803</ele>
        <time>2021-03-30T11:47:31Z</time>
      </trkpt>
      <trkpt lat="42.2544177" lon="2.3595414">
        <ele>876.64001465</ele>
        <time>2021-03-30T11:47:32Z</time>
      </trkpt>
      <trkpt lat="42.2544131" lon="2.3595367">
        <ele>877.08001709</ele>
        <time>2021-03-30T11:47:33Z</time>
      </trkpt>
      <trkpt lat="42.2544146" lon="2.3595172">
        <ele>877.39001465</ele>
        <time>2021-03-30T11:47:34Z</time>
      </trkpt>
      <trkpt lat="42.2544158" lon="2.3594965">
        <ele>877.28997803</ele>
        <time>2021-03-30T11:47:35Z</time>
      </trkpt>
      <trkpt lat="42.2544151" lon="2.359494">
        <ele>877.17999268</ele>
        <time>2021-03-30T11:47:36Z</time>
      </trkpt>
      <trkpt lat="42.2544185" lon="2.3594801">
        <ele>877.20001221</ele>
        <time>2021-03-30T11:47:38Z</time>
      </trkpt>
      <trkpt lat="42.2544154" lon="2.3594713">
        <ele>876.98999023</ele>
        <time>2021-03-30T11:47:39Z</time>
      </trkpt>
      <trkpt lat="42.2544039" lon="2.3594571">
        <ele>877.13000488</ele>
        <time>2021-03-30T11:47:40Z</time>
      </trkpt>
      <trkpt lat="42.2543935" lon="2.3594593">
        <ele>877.72998047</ele>
        <time>2021-03-30T11:47:41Z</time>
      </trkpt>
      <trkpt lat="42.2543918" lon="2.3594491">
        <ele>878.34002686</ele>
        <time>2021-03-30T11:47:42Z</time>
      </trkpt>
      <trkpt lat="42.2543881" lon="2.3594377">
        <ele>878.46002197</ele>
        <time>2021-03-30T11:47:43Z</time>
      </trkpt>
      <trkpt lat="42.2543825" lon="2.3594291">
        <ele>878.55999756</ele>
        <time>2021-03-30T11:47:44Z</time>
      </trkpt>
      <trkpt lat="42.2543741" lon="2.3594214">
        <ele>878.75</ele>
        <time>2021-03-30T11:47:45Z</time>
      </trkpt>
      <trkpt lat="42.2543711" lon="2.359406">
        <ele>879.11999512</ele>
        <time>2021-03-30T11:47:46Z</time>
      </trkpt>
      <trkpt lat="42.2543651" lon="2.3593916">
        <ele>879.11999512</ele>
        <time>2021-03-30T11:47:47Z</time>
      </trkpt>
      <trkpt lat="42.2543586" lon="2.3593747">
        <ele>879.27001953</ele>
        <time>2021-03-30T11:47:48Z</time>
      </trkpt>
      <trkpt lat="42.2543506" lon="2.3593608">
        <ele>879.44000244</ele>
        <time>2021-03-30T11:47:49Z</time>
      </trkpt>
      <trkpt lat="42.2543534" lon="2.3593421">
        <ele>879.75</ele>
        <time>2021-03-30T11:47:50Z</time>
      </trkpt>
      <trkpt lat="42.2543526" lon="2.3593245">
        <ele>879.40002441</ele>
        <time>2021-03-30T11:47:51Z</time>
      </trkpt>
      <trkpt lat="42.2543449" lon="2.359309">
        <ele>879.21002197</ele>
        <time>2021-03-30T11:47:52Z</time>
      </trkpt>
      <trkpt lat="42.2543416" lon="2.3593009">
        <ele>879.4699707</ele>
        <time>2021-03-30T11:47:53Z</time>
      </trkpt>
      <trkpt lat="42.2543363" lon="2.3592907">
        <ele>879.60998535</ele>
        <time>2021-03-30T11:47:54Z</time>
      </trkpt>
      <trkpt lat="42.2543344" lon="2.3592811">
        <ele>879.84002686</ele>
        <time>2021-03-30T11:47:55Z</time>
      </trkpt>
      <trkpt lat="42.2543276" lon="2.359266">
        <ele>879.88000488</ele>
        <time>2021-03-30T11:47:56Z</time>
      </trkpt>
      <trkpt lat="42.2543303" lon="2.3591846">
        <ele>879.09002686</ele>
        <time>2021-03-30T11:48:48Z</time>
      </trkpt>
      <trkpt lat="42.2543287" lon="2.3591823">
        <ele>879.07000732</ele>
        <time>2021-03-30T11:48:49Z</time>
      </trkpt>
      <trkpt lat="42.2543299" lon="2.3591711">
        <ele>879.15002441</ele>
        <time>2021-03-30T11:48:50Z</time>
      </trkpt>
      <trkpt lat="42.2543328" lon="2.3591599">
        <ele>878.9699707</ele>
        <time>2021-03-30T11:48:51Z</time>
      </trkpt>
      <trkpt lat="42.2543345" lon="2.359154">
        <ele>878.63000488</ele>
        <time>2021-03-30T11:48:52Z</time>
      </trkpt>
      <trkpt lat="42.2543985" lon="2.3591127">
        <ele>882.63000488</ele>
        <time>2021-03-30T11:49:21Z</time>
      </trkpt>
      <trkpt lat="42.2543944" lon="2.3591065">
        <ele>873.69000244</ele>
        <time>2021-03-30T11:49:22Z</time>
      </trkpt>
      <trkpt lat="42.2543945" lon="2.3590894">
        <ele>873.01000977</ele>
        <time>2021-03-30T11:49:23Z</time>
      </trkpt>
      <trkpt lat="42.2543882" lon="2.3590564">
        <ele>872.69000244</ele>
        <time>2021-03-30T11:49:24Z</time>
      </trkpt>
      <trkpt lat="42.2543821" lon="2.3590343">
        <ele>872.65997314</ele>
        <time>2021-03-30T11:49:25Z</time>
      </trkpt>
      <trkpt lat="42.2543858" lon="2.3590014">
        <ele>872.83001709</ele>
        <time>2021-03-30T11:49:26Z</time>
      </trkpt>
      <trkpt lat="42.2543852" lon="2.3589766">
        <ele>872.10998535</ele>
        <time>2021-03-30T11:49:27Z</time>
      </trkpt>
      <trkpt lat="42.2543852" lon="2.358947">
        <ele>871.73999023</ele>
        <time>2021-03-30T11:49:28Z</time>
      </trkpt>
      <trkpt lat="42.2543865" lon="2.3589242">
        <ele>871.28997803</ele>
        <time>2021-03-30T11:49:29Z</time>
      </trkpt>
      <trkpt lat="42.254386" lon="2.3589005">
        <ele>870.82000732</ele>
        <time>2021-03-30T11:49:30Z</time>
      </trkpt>
      <trkpt lat="42.2543868" lon="2.3588718">
        <ele>870.48999023</ele>
        <time>2021-03-30T11:49:31Z</time>
      </trkpt>
      <trkpt lat="42.2543852" lon="2.3588254">
        <ele>870.16998291</ele>
        <time>2021-03-30T11:49:32Z</time>
      </trkpt>
      <trkpt lat="42.254378" lon="2.3587716">
        <ele>870.10998535</ele>
        <time>2021-03-30T11:49:33Z</time>
      </trkpt>
      <trkpt lat="42.2543637" lon="2.3587147">
        <ele>870.47998047</ele>
        <time>2021-03-30T11:49:34Z</time>
      </trkpt>
      <trkpt lat="42.2543557" lon="2.3586588">
        <ele>871.36999512</ele>
        <time>2021-03-30T11:49:35Z</time>
      </trkpt>
      <trkpt lat="42.2543528" lon="2.358627">
        <ele>871.75</ele>
        <time>2021-03-30T11:49:36Z</time>
      </trkpt>
      <trkpt lat="42.2543444" lon="2.3585991">
        <ele>871.82000732</ele>
        <time>2021-03-30T11:49:37Z</time>
      </trkpt>
      <trkpt lat="42.2543288" lon="2.3585674">
        <ele>872.10998535</ele>
        <time>2021-03-30T11:49:38Z</time>
      </trkpt>
      <trkpt lat="42.2543289" lon="2.358533">
        <ele>872.67999268</ele>
        <time>2021-03-30T11:49:39Z</time>
      </trkpt>
      <trkpt lat="42.2543228" lon="2.3585031">
        <ele>872.13000488</ele>
        <time>2021-03-30T11:49:40Z</time>
      </trkpt>
      <trkpt lat="42.2543329" lon="2.3584556">
        <ele>871.9699707</ele>
        <time>2021-03-30T11:49:41Z</time>
      </trkpt>
      <trkpt lat="42.2543375" lon="2.3584238">
        <ele>870.42999268</ele>
        <time>2021-03-30T11:49:42Z</time>
      </trkpt>
      <trkpt lat="42.2543299" lon="2.3583957">
        <ele>869.39001465</ele>
        <time>2021-03-30T11:49:43Z</time>
      </trkpt>
      <trkpt lat="42.2543172" lon="2.3583666">
        <ele>869.33001709</ele>
        <time>2021-03-30T11:49:44Z</time>
      </trkpt>
      <trkpt lat="42.2543068" lon="2.3583435">
        <ele>869.70001221</ele>
        <time>2021-03-30T11:49:45Z</time>
      </trkpt>
      <trkpt lat="42.2542971" lon="2.3583262">
        <ele>870.05999756</ele>
        <time>2021-03-30T11:49:46Z</time>
      </trkpt>
      <trkpt lat="42.2542916" lon="2.3582965">
        <ele>870.5300293</ele>
        <time>2021-03-30T11:49:47Z</time>
      </trkpt>
      <trkpt lat="42.25428" lon="2.3582649">
        <ele>870.67999268</ele>
        <time>2021-03-30T11:49:48Z</time>
      </trkpt>
      <trkpt lat="42.2542709" lon="2.358239">
        <ele>871.15002441</ele>
        <time>2021-03-30T11:49:49Z</time>
      </trkpt>
      <trkpt lat="42.2542609" lon="2.3582147">
        <ele>871.51000977</ele>
        <time>2021-03-30T11:49:50Z</time>
      </trkpt>
      <trkpt lat="42.2542653" lon="2.35819">
        <ele>871.90002441</ele>
        <time>2021-03-30T11:49:51Z</time>
      </trkpt>
      <trkpt lat="42.2542656" lon="2.3581602">
        <ele>871.39001465</ele>
        <time>2021-03-30T11:49:52Z</time>
      </trkpt>
      <trkpt lat="42.2542635" lon="2.3581297">
        <ele>870.97998047</ele>
        <time>2021-03-30T11:49:53Z</time>
      </trkpt>
      <trkpt lat="42.2542537" lon="2.3580908">
        <ele>870.7199707</ele>
        <time>2021-03-30T11:49:54Z</time>
      </trkpt>
      <trkpt lat="42.2542476" lon="2.3580507">
        <ele>870.78997803</ele>
        <time>2021-03-30T11:49:55Z</time>
      </trkpt>
      <trkpt lat="42.2542435" lon="2.358024">
        <ele>870.54998779</ele>
        <time>2021-03-30T11:49:56Z</time>
      </trkpt>
      <trkpt lat="42.2542383" lon="2.357999">
        <ele>869.92999268</ele>
        <time>2021-03-30T11:49:57Z</time>
      </trkpt>
      <trkpt lat="42.2542291" lon="2.3579687">
        <ele>869.38000488</ele>
        <time>2021-03-30T11:49:58Z</time>
      </trkpt>
      <trkpt lat="42.2542179" lon="2.3579492">
        <ele>868.83001709</ele>
        <time>2021-03-30T11:49:59Z</time>
      </trkpt>
      <trkpt lat="42.2542077" lon="2.3579254">
        <ele>868.67999268</ele>
        <time>2021-03-30T11:50:00Z</time>
      </trkpt>
      <trkpt lat="42.2541986" lon="2.3579065">
        <ele>868.35998535</ele>
        <time>2021-03-30T11:50:01Z</time>
      </trkpt>
      <trkpt lat="42.2541934" lon="2.3578917">
        <ele>868.10998535</ele>
        <time>2021-03-30T11:50:02Z</time>
      </trkpt>
      <trkpt lat="42.2541781" lon="2.3578629">
        <ele>867.82000732</ele>
        <time>2021-03-30T11:50:03Z</time>
      </trkpt>
      <trkpt lat="42.2541749" lon="2.3578573">
        <ele>867.44000244</ele>
        <time>2021-03-30T11:50:04Z</time>
      </trkpt>
      <trkpt lat="42.2541669" lon="2.3578434">
        <ele>867.22998047</ele>
        <time>2021-03-30T11:50:07Z</time>
      </trkpt>
      <trkpt lat="42.254159" lon="2.357839">
        <ele>867.15997314</ele>
        <time>2021-03-30T11:50:08Z</time>
      </trkpt>
      <trkpt lat="42.2541532" lon="2.3578337">
        <ele>867.14001465</ele>
        <time>2021-03-30T11:50:09Z</time>
      </trkpt>
      <trkpt lat="42.2541515" lon="2.3578216">
        <ele>867.05999756</ele>
        <time>2021-03-30T11:50:10Z</time>
      </trkpt>
      <trkpt lat="42.2541488" lon="2.3578138">
        <ele>866.65002441</ele>
        <time>2021-03-30T11:50:11Z</time>
      </trkpt>
      <trkpt lat="42.2541458" lon="2.3578113">
        <ele>866.39001465</ele>
        <time>2021-03-30T11:50:12Z</time>
      </trkpt>
      <trkpt lat="42.2541442" lon="2.3578029">
        <ele>866.33001709</ele>
        <time>2021-03-30T11:50:13Z</time>
      </trkpt>
      <trkpt lat="42.2541359" lon="2.3577917">
        <ele>866.05999756</ele>
        <time>2021-03-30T11:50:14Z</time>
      </trkpt>
      <trkpt lat="42.2541239" lon="2.3577681">
        <ele>865.7800293</ele>
        <time>2021-03-30T11:50:15Z</time>
      </trkpt>
      <trkpt lat="42.2541219" lon="2.3577558">
        <ele>865.34002686</ele>
        <time>2021-03-30T11:50:16Z</time>
      </trkpt>
      <trkpt lat="42.2541108" lon="2.3577496">
        <ele>865.15002441</ele>
        <time>2021-03-30T11:50:17Z</time>
      </trkpt>
      <trkpt lat="42.2540948" lon="2.3577341">
        <ele>865.25</ele>
        <time>2021-03-30T11:50:18Z</time>
      </trkpt>
      <trkpt lat="42.254081" lon="2.3577125">
        <ele>865.36999512</ele>
        <time>2021-03-30T11:50:19Z</time>
      </trkpt>
      <trkpt lat="42.2540734" lon="2.3576913">
        <ele>865.40002441</ele>
        <time>2021-03-30T11:50:20Z</time>
      </trkpt>
      <trkpt lat="42.2540607" lon="2.3576864">
        <ele>865.32000732</ele>
        <time>2021-03-30T11:50:21Z</time>
      </trkpt>
      <trkpt lat="42.2540499" lon="2.3576771">
        <ele>865.54998779</ele>
        <time>2021-03-30T11:50:22Z</time>
      </trkpt>
      <trkpt lat="42.2540384" lon="2.3576636">
        <ele>865.72998047</ele>
        <time>2021-03-30T11:50:23Z</time>
      </trkpt>
      <trkpt lat="42.2540306" lon="2.3576558">
        <ele>865.89001465</ele>
        <time>2021-03-30T11:50:24Z</time>
      </trkpt>
      <trkpt lat="42.2540169" lon="2.3576521">
        <ele>866.0300293</ele>
        <time>2021-03-30T11:50:25Z</time>
      </trkpt>
      <trkpt lat="42.2540128" lon="2.3576436">
        <ele>866.35998535</ele>
        <time>2021-03-30T11:50:26Z</time>
      </trkpt>
      <trkpt lat="42.2540055" lon="2.3576338">
        <ele>866.42999268</ele>
        <time>2021-03-30T11:50:27Z</time>
      </trkpt>
      <trkpt lat="42.2540004" lon="2.3576316">
        <ele>866.54998779</ele>
        <time>2021-03-30T11:50:28Z</time>
      </trkpt>
      <trkpt lat="42.2539911" lon="2.3576195">
        <ele>866.69000244</ele>
        <time>2021-03-30T11:50:29Z</time>
      </trkpt>
      <trkpt lat="42.2537742" lon="2.3576277">
        <ele>872.17999268</ele>
        <time>2021-03-30T11:52:50Z</time>
      </trkpt>
      <trkpt lat="42.2537677" lon="2.3576192">
        <ele>872.2199707</ele>
        <time>2021-03-30T11:52:51Z</time>
      </trkpt>
      <trkpt lat="42.2537541" lon="2.3576151">
        <ele>872.34002686</ele>
        <time>2021-03-30T11:52:52Z</time>
      </trkpt>
      <trkpt lat="42.253741" lon="2.3576152">
        <ele>872.59002686</ele>
        <time>2021-03-30T11:52:53Z</time>
      </trkpt>
      <trkpt lat="42.2537342" lon="2.3576163">
        <ele>872.84997559</ele>
        <time>2021-03-30T11:52:54Z</time>
      </trkpt>
      <trkpt lat="42.2537189" lon="2.3576231">
        <ele>872.98999023</ele>
        <time>2021-03-30T11:52:55Z</time>
      </trkpt>
      <trkpt lat="42.2535888" lon="2.357666">
        <ele>876.01000977</ele>
        <time>2021-03-30T11:55:02Z</time>
      </trkpt>
      <trkpt lat="42.2535875" lon="2.3576636">
        <ele>876.01000977</ele>
        <time>2021-03-30T11:55:03Z</time>
      </trkpt>
      <trkpt lat="42.2535875" lon="2.3576607">
        <ele>876.03997803</ele>
        <time>2021-03-30T11:55:04Z</time>
      </trkpt>
      <trkpt lat="42.2535828" lon="2.3576516">
        <ele>876.04998779</ele>
        <time>2021-03-30T11:55:05Z</time>
      </trkpt>
      <trkpt lat="42.2535809" lon="2.3576387">
        <ele>876.17999268</ele>
        <time>2021-03-30T11:55:06Z</time>
      </trkpt>
      <trkpt lat="42.2535849" lon="2.3576323">
        <ele>876.27001953</ele>
        <time>2021-03-30T11:55:07Z</time>
      </trkpt>
      <trkpt lat="42.2535848" lon="2.3576281">
        <ele>876.17999268</ele>
        <time>2021-03-30T11:55:08Z</time>
      </trkpt>
      <trkpt lat="42.2535921" lon="2.3576254">
        <ele>876.17999268</ele>
        <time>2021-03-30T11:55:09Z</time>
      </trkpt>
      <trkpt lat="42.253593" lon="2.3576195">
        <ele>875.98999023</ele>
        <time>2021-03-30T11:55:10Z</time>
      </trkpt>
      <trkpt lat="42.2535936" lon="2.3576182">
        <ele>875.95001221</ele>
        <time>2021-03-30T11:55:11Z</time>
      </trkpt>
      <trkpt lat="42.2535954" lon="2.3576158">
        <ele>875.92999268</ele>
        <time>2021-03-30T11:55:12Z</time>
      </trkpt>
      <trkpt lat="42.2536787" lon="2.3573377">
        <ele>876.21002197</ele>
        <time>2021-03-30T11:56:34Z</time>
      </trkpt>
      <trkpt lat="42.2536755" lon="2.3573283">
        <ele>876.44000244</ele>
        <time>2021-03-30T11:56:35Z</time>
      </trkpt>
      <trkpt lat="42.2536718" lon="2.3573226">
        <ele>876.67999268</ele>
        <time>2021-03-30T11:56:36Z</time>
      </trkpt>
      <trkpt lat="42.2536722" lon="2.3573211">
        <ele>876.90997314</ele>
        <time>2021-03-30T11:56:38Z</time>
      </trkpt>
      <trkpt lat="42.2536778" lon="2.3573071">
        <ele>876.91998291</ele>
        <time>2021-03-30T11:56:39Z</time>
      </trkpt>
      <trkpt lat="42.2537782" lon="2.3571737">
        <ele>875.38000488</ele>
        <time>2021-03-30T11:57:05Z</time>
      </trkpt>
      <trkpt lat="42.253781" lon="2.3571616">
        <ele>875.26000977</ele>
        <time>2021-03-30T11:57:06Z</time>
      </trkpt>
      <trkpt lat="42.2537807" lon="2.3571469">
        <ele>875.35998535</ele>
        <time>2021-03-30T11:57:07Z</time>
      </trkpt>
      <trkpt lat="42.2537928" lon="2.3571278">
        <ele>875.63000488</ele>
        <time>2021-03-30T11:57:08Z</time>
      </trkpt>
      <trkpt lat="42.2538019" lon="2.357107">
        <ele>875.57000732</ele>
        <time>2021-03-30T11:57:09Z</time>
      </trkpt>
      <trkpt lat="42.2538143" lon="2.357093">
        <ele>875.60998535</ele>
        <time>2021-03-30T11:57:10Z</time>
      </trkpt>
      <trkpt lat="42.253823" lon="2.3570679">
        <ele>875.42999268</ele>
        <time>2021-03-30T11:57:11Z</time>
      </trkpt>
      <trkpt lat="42.2538329" lon="2.3570484">
        <ele>875.53997803</ele>
        <time>2021-03-30T11:57:12Z</time>
      </trkpt>
      <trkpt lat="42.2538565" lon="2.3570153">
        <ele>875.30999756</ele>
        <time>2021-03-30T11:57:18Z</time>
      </trkpt>
      <trkpt lat="42.2538566" lon="2.3570133">
        <ele>875.27001953</ele>
        <time>2021-03-30T11:57:20Z</time>
      </trkpt>
      <trkpt lat="42.2538591" lon="2.3570082">
        <ele>875.29998779</ele>
        <time>2021-03-30T11:57:26Z</time>
      </trkpt>
      <trkpt lat="42.2538608" lon="2.3570041">
        <ele>875.30999756</ele>
        <time>2021-03-30T11:57:27Z</time>
      </trkpt>
      <trkpt lat="42.2538621" lon="2.3570023">
        <ele>875.33001709</ele>
        <time>2021-03-30T11:57:28Z</time>
      </trkpt>
      <trkpt lat="42.2538632" lon="2.3569994">
        <ele>875.30999756</ele>
        <time>2021-03-30T11:57:29Z</time>
      </trkpt>
      <trkpt lat="42.253909" lon="2.3568823">
        <ele>874.7199707</ele>
        <time>2021-03-30T11:57:40Z</time>
      </trkpt>
      <trkpt lat="42.2539188" lon="2.356864">
        <ele>874.34997559</ele>
        <time>2021-03-30T11:57:41Z</time>
      </trkpt>
      <trkpt lat="42.2539251" lon="2.3568448">
        <ele>873.86999512</ele>
        <time>2021-03-30T11:57:42Z</time>
      </trkpt>
      <trkpt lat="42.253935" lon="2.3568269">
        <ele>873.57000732</ele>
        <time>2021-03-30T11:57:43Z</time>
      </trkpt>
      <trkpt lat="42.2539368" lon="2.356814">
        <ele>873.14001465</ele>
        <time>2021-03-30T11:57:44Z</time>
      </trkpt>
      <trkpt lat="42.2539351" lon="2.3567943">
        <ele>873.04998779</ele>
        <time>2021-03-30T11:57:45Z</time>
      </trkpt>
      <trkpt lat="42.2539313" lon="2.3567756">
        <ele>873.17999268</ele>
        <time>2021-03-30T11:57:46Z</time>
      </trkpt>
      <trkpt lat="42.2539347" lon="2.3567659">
        <ele>873.40002441</ele>
        <time>2021-03-30T11:57:47Z</time>
      </trkpt>
      <trkpt lat="42.253679" lon="2.3565383">
        <ele>885.58001709</ele>
        <time>2021-03-30T12:00:42Z</time>
      </trkpt>
      <trkpt lat="42.2536792" lon="2.3565399">
        <ele>885.7199707</ele>
        <time>2021-03-30T12:00:43Z</time>
      </trkpt>
      <trkpt lat="42.2536707" lon="2.3565392">
        <ele>885.75</ele>
        <time>2021-03-30T12:00:44Z</time>
      </trkpt>
      <trkpt lat="42.2536635" lon="2.3565375">
        <ele>886.10998535</ele>
        <time>2021-03-30T12:00:45Z</time>
      </trkpt>
      <trkpt lat="42.2536547" lon="2.3565147">
        <ele>886.45001221</ele>
        <time>2021-03-30T12:00:46Z</time>
      </trkpt>
      <trkpt lat="42.2536505" lon="2.3564975">
        <ele>886.53997803</ele>
        <time>2021-03-30T12:00:47Z</time>
      </trkpt>
      <trkpt lat="42.2536465" lon="2.3564797">
        <ele>886.4699707</ele>
        <time>2021-03-30T12:00:48Z</time>
      </trkpt>
      <trkpt lat="42.2536298" lon="2.3564774">
        <ele>886.35998535</ele>
        <time>2021-03-30T12:00:49Z</time>
      </trkpt>
      <trkpt lat="42.2536175" lon="2.3564681">
        <ele>886.98999023</ele>
        <time>2021-03-30T12:00:50Z</time>
      </trkpt>
      <trkpt lat="42.253609" lon="2.3564496">
        <ele>887.39001465</ele>
        <time>2021-03-30T12:00:51Z</time>
      </trkpt>
      <trkpt lat="42.2536076" lon="2.3564179">
        <ele>887.4699707</ele>
        <time>2021-03-30T12:00:52Z</time>
      </trkpt>
      <trkpt lat="42.2535968" lon="2.3563957">
        <ele>886.98999023</ele>
        <time>2021-03-30T12:00:53Z</time>
      </trkpt>
      <trkpt lat="42.253581" lon="2.356371">
        <ele>887.11999512</ele>
        <time>2021-03-30T12:00:54Z</time>
      </trkpt>
      <trkpt lat="42.2535714" lon="2.3563494">
        <ele>887.51000977</ele>
        <time>2021-03-30T12:00:55Z</time>
      </trkpt>
      <trkpt lat="42.2535657" lon="2.3563257">
        <ele>887.60998535</ele>
        <time>2021-03-30T12:00:56Z</time>
      </trkpt>
      <trkpt lat="42.2535489" lon="2.3562997">
        <ele>887.41998291</ele>
        <time>2021-03-30T12:00:57Z</time>
      </trkpt>
      <trkpt lat="42.2535407" lon="2.3562703">
        <ele>887.65997314</ele>
        <time>2021-03-30T12:00:58Z</time>
      </trkpt>
      <trkpt lat="42.2535393" lon="2.3562373">
        <ele>887.41998291</ele>
        <time>2021-03-30T12:00:59Z</time>
      </trkpt>
      <trkpt lat="42.2535324" lon="2.3562083">
        <ele>886.72998047</ele>
        <time>2021-03-30T12:01:00Z</time>
      </trkpt>
      <trkpt lat="42.2535288" lon="2.356182">
        <ele>886.30999756</ele>
        <time>2021-03-30T12:01:01Z</time>
      </trkpt>
      <trkpt lat="42.2535276" lon="2.3561596">
        <ele>885.82000732</ele>
        <time>2021-03-30T12:01:02Z</time>
      </trkpt>
      <trkpt lat="42.2535254" lon="2.3561372">
        <ele>885.30999756</ele>
        <time>2021-03-30T12:01:03Z</time>
      </trkpt>
      <trkpt lat="42.2535176" lon="2.3561079">
        <ele>884.83001709</ele>
        <time>2021-03-30T12:01:04Z</time>
      </trkpt>
      <trkpt lat="42.2535011" lon="2.3560746">
        <ele>884.40002441</ele>
        <time>2021-03-30T12:01:05Z</time>
      </trkpt>
      <trkpt lat="42.2534877" lon="2.3560457">
        <ele>884.35998535</ele>
        <time>2021-03-30T12:01:06Z</time>
      </trkpt>
      <trkpt lat="42.2534753" lon="2.3560142">
        <ele>884.32000732</ele>
        <time>2021-03-30T12:01:07Z</time>
      </trkpt>
      <trkpt lat="42.2534711" lon="2.3559909">
        <ele>884.19000244</ele>
        <time>2021-03-30T12:01:08Z</time>
      </trkpt>
      <trkpt lat="42.2534549" lon="2.3559615">
        <ele>883.91998291</ele>
        <time>2021-03-30T12:01:09Z</time>
      </trkpt>
      <trkpt lat="42.2534445" lon="2.355936">
        <ele>883.95001221</ele>
        <time>2021-03-30T12:01:10Z</time>
      </trkpt>
      <trkpt lat="42.2534291" lon="2.3559083">
        <ele>883.85998535</ele>
        <time>2021-03-30T12:01:11Z</time>
      </trkpt>
      <trkpt lat="42.2534181" lon="2.3558826">
        <ele>883.90997314</ele>
        <time>2021-03-30T12:01:12Z</time>
      </trkpt>
      <trkpt lat="42.2534096" lon="2.3558617">
        <ele>883.84997559</ele>
        <time>2021-03-30T12:01:13Z</time>
      </trkpt>
      <trkpt lat="42.2533893" lon="2.355845">
        <ele>883.7800293</ele>
        <time>2021-03-30T12:01:14Z</time>
      </trkpt>
      <trkpt lat="42.2533737" lon="2.3558321">
        <ele>884.19000244</ele>
        <time>2021-03-30T12:01:15Z</time>
      </trkpt>
      <trkpt lat="42.2533648" lon="2.3558087">
        <ele>884.57000732</ele>
        <time>2021-03-30T12:01:16Z</time>
      </trkpt>
      <trkpt lat="42.2533542" lon="2.3557836">
        <ele>884.91998291</ele>
        <time>2021-03-30T12:01:17Z</time>
      </trkpt>
      <trkpt lat="42.2533493" lon="2.3557539">
        <ele>885.33001709</ele>
        <time>2021-03-30T12:01:18Z</time>
      </trkpt>
      <trkpt lat="42.2533531" lon="2.3557212">
        <ele>885.5300293</ele>
        <time>2021-03-30T12:01:19Z</time>
      </trkpt>
      <trkpt lat="42.2533517" lon="2.3556879">
        <ele>885.41998291</ele>
        <time>2021-03-30T12:01:20Z</time>
      </trkpt>
      <trkpt lat="42.2533518" lon="2.3556458">
        <ele>885.46002197</ele>
        <time>2021-03-30T12:01:21Z</time>
      </trkpt>
      <trkpt lat="42.2533583" lon="2.3555915">
        <ele>885.46002197</ele>
        <time>2021-03-30T12:01:22Z</time>
      </trkpt>
      <trkpt lat="42.2533608" lon="2.3555545">
        <ele>885.23999023</ele>
        <time>2021-03-30T12:01:23Z</time>
      </trkpt>
      <trkpt lat="42.2533558" lon="2.3555214">
        <ele>885.10998535</ele>
        <time>2021-03-30T12:01:24Z</time>
      </trkpt>
      <trkpt lat="42.253347" lon="2.3554774">
        <ele>884.73999023</ele>
        <time>2021-03-30T12:01:25Z</time>
      </trkpt>
      <trkpt lat="42.2533397" lon="2.3554432">
        <ele>884.26000977</ele>
        <time>2021-03-30T12:01:26Z</time>
      </trkpt>
      <trkpt lat="42.2533259" lon="2.3554105">
        <ele>883.84997559</ele>
        <time>2021-03-30T12:01:27Z</time>
      </trkpt>
      <trkpt lat="42.2533151" lon="2.3553749">
        <ele>883.79998779</ele>
        <time>2021-03-30T12:01:28Z</time>
      </trkpt>
      <trkpt lat="42.2533072" lon="2.3553343">
        <ele>883.73999023</ele>
        <time>2021-03-30T12:01:29Z</time>
      </trkpt>
      <trkpt lat="42.2532933" lon="2.3553005">
        <ele>883.44000244</ele>
        <time>2021-03-30T12:01:30Z</time>
      </trkpt>
      <trkpt lat="42.2532748" lon="2.3552634">
        <ele>883.54998779</ele>
        <time>2021-03-30T12:01:31Z</time>
      </trkpt>
      <trkpt lat="42.2532634" lon="2.355231">
        <ele>884.13000488</ele>
        <time>2021-03-30T12:01:32Z</time>
      </trkpt>
      <trkpt lat="42.2532408" lon="2.3551887">
        <ele>884.7800293</ele>
        <time>2021-03-30T12:01:33Z</time>
      </trkpt>
      <trkpt lat="42.2532152" lon="2.3551429">
        <ele>886.0300293</ele>
        <time>2021-03-30T12:01:34Z</time>
      </trkpt>
      <trkpt lat="42.2531997" lon="2.3551175">
        <ele>887.5</ele>
        <time>2021-03-30T12:01:35Z</time>
      </trkpt>
      <trkpt lat="42.2531914" lon="2.3550932">
        <ele>888.46002197</ele>
        <time>2021-03-30T12:01:36Z</time>
      </trkpt>
      <trkpt lat="42.2531858" lon="2.3550591">
        <ele>888.98999023</ele>
        <time>2021-03-30T12:01:37Z</time>
      </trkpt>
      <trkpt lat="42.2531874" lon="2.3550118">
        <ele>889.34002686</ele>
        <time>2021-03-30T12:01:38Z</time>
      </trkpt>
      <trkpt lat="42.2531884" lon="2.3549742">
        <ele>889.28997803</ele>
        <time>2021-03-30T12:01:39Z</time>
      </trkpt>
      <trkpt lat="42.2531911" lon="2.3549384">
        <ele>889.22998047</ele>
        <time>2021-03-30T12:01:40Z</time>
      </trkpt>
      <trkpt lat="42.2531954" lon="2.354903">
        <ele>889.08001709</ele>
        <time>2021-03-30T12:01:41Z</time>
      </trkpt>
      <trkpt lat="42.2532005" lon="2.3548665">
        <ele>888.84997559</ele>
        <time>2021-03-30T12:01:42Z</time>
      </trkpt>
      <trkpt lat="42.2532038" lon="2.3548266">
        <ele>888.54998779</ele>
        <time>2021-03-30T12:01:43Z</time>
      </trkpt>
      <trkpt lat="42.25321" lon="2.3547883">
        <ele>888.34997559</ele>
        <time>2021-03-30T12:01:44Z</time>
      </trkpt>
      <trkpt lat="42.2532214" lon="2.3547458">
        <ele>888.01000977</ele>
        <time>2021-03-30T12:01:45Z</time>
      </trkpt>
      <trkpt lat="42.2532218" lon="2.3546994">
        <ele>887.38000488</ele>
        <time>2021-03-30T12:01:46Z</time>
      </trkpt>
      <trkpt lat="42.253217" lon="2.3546531">
        <ele>886.89001465</ele>
        <time>2021-03-30T12:01:47Z</time>
      </trkpt>
      <trkpt lat="42.2532145" lon="2.3546124">
        <ele>886.28997803</ele>
        <time>2021-03-30T12:01:48Z</time>
      </trkpt>
      <trkpt lat="42.2532096" lon="2.3545253">
        <ele>885.65002441</ele>
        <time>2021-03-30T12:01:49Z</time>
      </trkpt>
      <trkpt lat="42.2532086" lon="2.3544996">
        <ele>884.30999756</ele>
        <time>2021-03-30T12:01:50Z</time>
      </trkpt>
      <trkpt lat="42.2532035" lon="2.3544608">
        <ele>883.78997803</ele>
        <time>2021-03-30T12:01:51Z</time>
      </trkpt>
      <trkpt lat="42.2531837" lon="2.3544178">
        <ele>883.33001709</ele>
        <time>2021-03-30T12:01:52Z</time>
      </trkpt>
      <trkpt lat="42.2531669" lon="2.354371">
        <ele>883.34997559</ele>
        <time>2021-03-30T12:01:53Z</time>
      </trkpt>
      <trkpt lat="42.2531523" lon="2.3543194">
        <ele>883.11999512</ele>
        <time>2021-03-30T12:01:54Z</time>
      </trkpt>
      <trkpt lat="42.2531364" lon="2.3542745">
        <ele>882.71002197</ele>
        <time>2021-03-30T12:01:55Z</time>
      </trkpt>
      <trkpt lat="42.2531244" lon="2.3542311">
        <ele>882.60998535</ele>
        <time>2021-03-30T12:01:56Z</time>
      </trkpt>
      <trkpt lat="42.2531034" lon="2.3541938">
        <ele>882.41998291</ele>
        <time>2021-03-30T12:01:57Z</time>
      </trkpt>
      <trkpt lat="42.2530973" lon="2.354157">
        <ele>883.01000977</ele>
        <time>2021-03-30T12:01:58Z</time>
      </trkpt>
      <trkpt lat="42.2530881" lon="2.3541215">
        <ele>882.60998535</ele>
        <time>2021-03-30T12:01:59Z</time>
      </trkpt>
      <trkpt lat="42.2530679" lon="2.3540876">
        <ele>881.9699707</ele>
        <time>2021-03-30T12:02:00Z</time>
      </trkpt>
      <trkpt lat="42.2530498" lon="2.3540554">
        <ele>882.13000488</ele>
        <time>2021-03-30T12:02:01Z</time>
      </trkpt>
      <trkpt lat="42.2530288" lon="2.3540088">
        <ele>882.19000244</ele>
        <time>2021-03-30T12:02:02Z</time>
      </trkpt>
      <trkpt lat="42.2530101" lon="2.353975">
        <ele>881.66998291</ele>
        <time>2021-03-30T12:02:03Z</time>
      </trkpt>
      <trkpt lat="42.2529925" lon="2.3539486">
        <ele>881.40997314</ele>
        <time>2021-03-30T12:02:04Z</time>
      </trkpt>
      <trkpt lat="42.2529782" lon="2.3539235">
        <ele>881.39001465</ele>
        <time>2021-03-30T12:02:05Z</time>
      </trkpt>
      <trkpt lat="42.2529635" lon="2.3539051">
        <ele>881.26000977</ele>
        <time>2021-03-30T12:02:06Z</time>
      </trkpt>
      <trkpt lat="42.2529424" lon="2.3538819">
        <ele>881.36999512</ele>
        <time>2021-03-30T12:02:07Z</time>
      </trkpt>
      <trkpt lat="42.2529269" lon="2.3538738">
        <ele>881.55999756</ele>
        <time>2021-03-30T12:02:08Z</time>
      </trkpt>
      <trkpt lat="42.2529131" lon="2.3538596">
        <ele>881.9699707</ele>
        <time>2021-03-30T12:02:09Z</time>
      </trkpt>
      <trkpt lat="42.2529017" lon="2.3538459">
        <ele>881.97998047</ele>
        <time>2021-03-30T12:02:10Z</time>
      </trkpt>
      <trkpt lat="42.2528872" lon="2.3538353">
        <ele>881.86999512</ele>
        <time>2021-03-30T12:02:11Z</time>
      </trkpt>
      <trkpt lat="42.2528737" lon="2.353822">
        <ele>882.05999756</ele>
        <time>2021-03-30T12:02:12Z</time>
      </trkpt>
      <trkpt lat="42.2528549" lon="2.353807">
        <ele>882.09002686</ele>
        <time>2021-03-30T12:02:13Z</time>
      </trkpt>
      <trkpt lat="42.2528355" lon="2.3537843">
        <ele>882.28997803</ele>
        <time>2021-03-30T12:02:14Z</time>
      </trkpt>
      <trkpt lat="42.2528086" lon="2.3537626">
        <ele>882.14001465</ele>
        <time>2021-03-30T12:02:15Z</time>
      </trkpt>
      <trkpt lat="42.2527831" lon="2.3537351">
        <ele>882.39001465</ele>
        <time>2021-03-30T12:02:16Z</time>
      </trkpt>
      <trkpt lat="42.2527547" lon="2.3537133">
        <ele>882.32000732</ele>
        <time>2021-03-30T12:02:17Z</time>
      </trkpt>
      <trkpt lat="42.2527304" lon="2.3536946">
        <ele>882.25</ele>
        <time>2021-03-30T12:02:18Z</time>
      </trkpt>
      <trkpt lat="42.2527003" lon="2.3536583">
        <ele>882.11999512</ele>
        <time>2021-03-30T12:02:19Z</time>
      </trkpt>
      <trkpt lat="42.2526788" lon="2.3536257">
        <ele>881.25</ele>
        <time>2021-03-30T12:02:20Z</time>
      </trkpt>
      <trkpt lat="42.25265" lon="2.3536042">
        <ele>880.20001221</ele>
        <time>2021-03-30T12:02:21Z</time>
      </trkpt>
      <trkpt lat="42.2526294" lon="2.3535894">
        <ele>880.09997559</ele>
        <time>2021-03-30T12:02:22Z</time>
      </trkpt>
      <trkpt lat="42.2526139" lon="2.3535734">
        <ele>880.28997803</ele>
        <time>2021-03-30T12:02:23Z</time>
      </trkpt>
      <trkpt lat="42.2525973" lon="2.3535652">
        <ele>880.29998779</ele>
        <time>2021-03-30T12:02:24Z</time>
      </trkpt>
      <trkpt lat="42.2525679" lon="2.3535545">
        <ele>880.59002686</ele>
        <time>2021-03-30T12:02:25Z</time>
      </trkpt>
      <trkpt lat="42.2525478" lon="2.3535476">
        <ele>881.27001953</ele>
        <time>2021-03-30T12:02:26Z</time>
      </trkpt>
      <trkpt lat="42.2525285" lon="2.3535472">
        <ele>881.79998779</ele>
        <time>2021-03-30T12:02:27Z</time>
      </trkpt>
      <trkpt lat="42.2525027" lon="2.353546">
        <ele>882.51000977</ele>
        <time>2021-03-30T12:02:28Z</time>
      </trkpt>
      <trkpt lat="42.2524743" lon="2.3535452">
        <ele>883.44000244</ele>
        <time>2021-03-30T12:02:29Z</time>
      </trkpt>
      <trkpt lat="42.2524556" lon="2.3535367">
        <ele>883.60998535</ele>
        <time>2021-03-30T12:02:30Z</time>
      </trkpt>
      <trkpt lat="42.2524361" lon="2.3535343">
        <ele>883.33001709</ele>
        <time>2021-03-30T12:02:31Z</time>
      </trkpt>
      <trkpt lat="42.2524089" lon="2.3535506">
        <ele>883.21002197</ele>
        <time>2021-03-30T12:02:32Z</time>
      </trkpt>
      <trkpt lat="42.2523799" lon="2.353557">
        <ele>883.77001953</ele>
        <time>2021-03-30T12:02:33Z</time>
      </trkpt>
      <trkpt lat="42.2523522" lon="2.3535625">
        <ele>884.04998779</ele>
        <time>2021-03-30T12:02:34Z</time>
      </trkpt>
      <trkpt lat="42.2523111" lon="2.3535837">
        <ele>884.27001953</ele>
        <time>2021-03-30T12:02:35Z</time>
      </trkpt>
      <trkpt lat="42.2522742" lon="2.3535871">
        <ele>885.0300293</ele>
        <time>2021-03-30T12:02:36Z</time>
      </trkpt>
      <trkpt lat="42.2522461" lon="2.3535828">
        <ele>885.22998047</ele>
        <time>2021-03-30T12:02:37Z</time>
      </trkpt>
      <trkpt lat="42.2522223" lon="2.3535789">
        <ele>885.09997559</ele>
        <time>2021-03-30T12:02:38Z</time>
      </trkpt>
      <trkpt lat="42.2521878" lon="2.3535761">
        <ele>884.95001221</ele>
        <time>2021-03-30T12:02:39Z</time>
      </trkpt>
      <trkpt lat="42.2521599" lon="2.35357">
        <ele>884.90997314</ele>
        <time>2021-03-30T12:02:40Z</time>
      </trkpt>
      <trkpt lat="42.2521345" lon="2.3535707">
        <ele>884.7800293</ele>
        <time>2021-03-30T12:02:41Z</time>
      </trkpt>
      <trkpt lat="42.2521089" lon="2.3535698">
        <ele>884.84997559</ele>
        <time>2021-03-30T12:02:42Z</time>
      </trkpt>
      <trkpt lat="42.2520836" lon="2.3535615">
        <ele>884.90002441</ele>
        <time>2021-03-30T12:02:43Z</time>
      </trkpt>
      <trkpt lat="42.2520531" lon="2.3535534">
        <ele>884.75</ele>
        <time>2021-03-30T12:02:44Z</time>
      </trkpt>
      <trkpt lat="42.2520192" lon="2.3535532">
        <ele>884.64001465</ele>
        <time>2021-03-30T12:02:45Z</time>
      </trkpt>
      <trkpt lat="42.2519903" lon="2.3535621">
        <ele>884.73999023</ele>
        <time>2021-03-30T12:02:46Z</time>
      </trkpt>
      <trkpt lat="42.2519592" lon="2.3535631">
        <ele>885.03997803</ele>
        <time>2021-03-30T12:02:47Z</time>
      </trkpt>
      <trkpt lat="42.2519326" lon="2.353558">
        <ele>885.17999268</ele>
        <time>2021-03-30T12:02:48Z</time>
      </trkpt>
      <trkpt lat="42.2519071" lon="2.3535539">
        <ele>885.15002441</ele>
        <time>2021-03-30T12:02:49Z</time>
      </trkpt>
      <trkpt lat="42.2518848" lon="2.3535537">
        <ele>885.08001709</ele>
        <time>2021-03-30T12:02:50Z</time>
      </trkpt>
      <trkpt lat="42.2518539" lon="2.3535541">
        <ele>885.07000732</ele>
        <time>2021-03-30T12:02:51Z</time>
      </trkpt>
      <trkpt lat="42.2518174" lon="2.3535619">
        <ele>885.07000732</ele>
        <time>2021-03-30T12:02:52Z</time>
      </trkpt>
      <trkpt lat="42.2517876" lon="2.3535775">
        <ele>885.21002197</ele>
        <time>2021-03-30T12:02:53Z</time>
      </trkpt>
      <trkpt lat="42.2517633" lon="2.3535886">
        <ele>885.5</ele>
        <time>2021-03-30T12:02:54Z</time>
      </trkpt>
      <trkpt lat="42.2517314" lon="2.3535986">
        <ele>885.7199707</ele>
        <time>2021-03-30T12:02:55Z</time>
      </trkpt>
      <trkpt lat="42.2517001" lon="2.3536077">
        <ele>885.91998291</ele>
        <time>2021-03-30T12:02:56Z</time>
      </trkpt>
      <trkpt lat="42.2516678" lon="2.3536265">
        <ele>886.09997559</ele>
        <time>2021-03-30T12:02:57Z</time>
      </trkpt>
      <trkpt lat="42.2516353" lon="2.3536401">
        <ele>886.71002197</ele>
        <time>2021-03-30T12:02:58Z</time>
      </trkpt>
      <trkpt lat="42.2516051" lon="2.3536651">
        <ele>887.25</ele>
        <time>2021-03-30T12:02:59Z</time>
      </trkpt>
      <trkpt lat="42.2515788" lon="2.3536783">
        <ele>888.17999268</ele>
        <time>2021-03-30T12:03:00Z</time>
      </trkpt>
      <trkpt lat="42.2515483" lon="2.3536909">
        <ele>888.72998047</ele>
        <time>2021-03-30T12:03:01Z</time>
      </trkpt>
      <trkpt lat="42.2515183" lon="2.3537027">
        <ele>889.22998047</ele>
        <time>2021-03-30T12:03:02Z</time>
      </trkpt>
      <trkpt lat="42.2514945" lon="2.3537161">
        <ele>889.69000244</ele>
        <time>2021-03-30T12:03:03Z</time>
      </trkpt>
      <trkpt lat="42.2514673" lon="2.3537229">
        <ele>890.20001221</ele>
        <time>2021-03-30T12:03:04Z</time>
      </trkpt>
      <trkpt lat="42.2514343" lon="2.3537343">
        <ele>890.48999023</ele>
        <time>2021-03-30T12:03:05Z</time>
      </trkpt>
      <trkpt lat="42.2513977" lon="2.3537386">
        <ele>890.91998291</ele>
        <time>2021-03-30T12:03:06Z</time>
      </trkpt>
      <trkpt lat="42.2513603" lon="2.3537494">
        <ele>891.10998535</ele>
        <time>2021-03-30T12:03:07Z</time>
      </trkpt>
      <trkpt lat="42.25134" lon="2.3537597">
        <ele>891.51000977</ele>
        <time>2021-03-30T12:03:08Z</time>
      </trkpt>
      <trkpt lat="42.2513172" lon="2.3537772">
        <ele>891.84997559</ele>
        <time>2021-03-30T12:03:09Z</time>
      </trkpt>
      <trkpt lat="42.2512963" lon="2.3537917">
        <ele>892.30999756</ele>
        <time>2021-03-30T12:03:10Z</time>
      </trkpt>
      <trkpt lat="42.25128" lon="2.3538034">
        <ele>892.61999512</ele>
        <time>2021-03-30T12:03:11Z</time>
      </trkpt>
      <trkpt lat="42.2512632" lon="2.3538082">
        <ele>892.80999756</ele>
        <time>2021-03-30T12:03:12Z</time>
      </trkpt>
      <trkpt lat="42.2512409" lon="2.3538248">
        <ele>892.80999756</ele>
        <time>2021-03-30T12:03:13Z</time>
      </trkpt>
      <trkpt lat="42.2512231" lon="2.3538308">
        <ele>892.91998291</ele>
        <time>2021-03-30T12:03:14Z</time>
      </trkpt>
      <trkpt lat="42.2512042" lon="2.3538408">
        <ele>892.84997559</ele>
        <time>2021-03-30T12:03:15Z</time>
      </trkpt>
      <trkpt lat="42.2511881" lon="2.3538603">
        <ele>892.76000977</ele>
        <time>2021-03-30T12:03:16Z</time>
      </trkpt>
      <trkpt lat="42.2511773" lon="2.3538775">
        <ele>892.76000977</ele>
        <time>2021-03-30T12:03:17Z</time>
      </trkpt>
      <trkpt lat="42.251163" lon="2.353874">
        <ele>892.75</ele>
        <time>2021-03-30T12:03:18Z</time>
      </trkpt>
      <trkpt lat="42.2511426" lon="2.3538802">
        <ele>892.5</ele>
        <time>2021-03-30T12:03:19Z</time>
      </trkpt>
      <trkpt lat="42.2511212" lon="2.3538875">
        <ele>892.17999268</ele>
        <time>2021-03-30T12:03:20Z</time>
      </trkpt>
      <trkpt lat="42.2511023" lon="2.3538863">
        <ele>891.80999756</ele>
        <time>2021-03-30T12:03:21Z</time>
      </trkpt>
      <trkpt lat="42.2510863" lon="2.3538919">
        <ele>891.59997559</ele>
        <time>2021-03-30T12:03:22Z</time>
      </trkpt>
      <trkpt lat="42.2510707" lon="2.353898">
        <ele>891.63000488</ele>
        <time>2021-03-30T12:03:23Z</time>
      </trkpt>
      <trkpt lat="42.2510544" lon="2.3538977">
        <ele>891.73999023</ele>
        <time>2021-03-30T12:03:24Z</time>
      </trkpt>
      <trkpt lat="42.251045" lon="2.3538996">
        <ele>891.73999023</ele>
        <time>2021-03-30T12:03:25Z</time>
      </trkpt>
      <trkpt lat="42.2510243" lon="2.3539137">
        <ele>891.7800293</ele>
        <time>2021-03-30T12:03:26Z</time>
      </trkpt>
      <trkpt lat="42.2510062" lon="2.3539244">
        <ele>892.0300293</ele>
        <time>2021-03-30T12:03:27Z</time>
      </trkpt>
      <trkpt lat="42.2509951" lon="2.3539473">
        <ele>892.23999023</ele>
        <time>2021-03-30T12:03:28Z</time>
      </trkpt>
      <trkpt lat="42.2509712" lon="2.3539719">
        <ele>892.65997314</ele>
        <time>2021-03-30T12:03:29Z</time>
      </trkpt>
      <trkpt lat="42.2509562" lon="2.3539923">
        <ele>893.13000488</ele>
        <time>2021-03-30T12:03:30Z</time>
      </trkpt>
      <trkpt lat="42.2509413" lon="2.3540083">
        <ele>893.53997803</ele>
        <time>2021-03-30T12:03:31Z</time>
      </trkpt>
      <trkpt lat="42.25093" lon="2.3540346">
        <ele>893.85998535</ele>
        <time>2021-03-30T12:03:32Z</time>
      </trkpt>
      <trkpt lat="42.2509197" lon="2.3540595">
        <ele>894.34997559</ele>
        <time>2021-03-30T12:03:33Z</time>
      </trkpt>
      <trkpt lat="42.2509073" lon="2.354074">
        <ele>894.83001709</ele>
        <time>2021-03-30T12:03:34Z</time>
      </trkpt>
      <trkpt lat="42.250878" lon="2.3540936">
        <ele>895.13000488</ele>
        <time>2021-03-30T12:03:35Z</time>
      </trkpt>
      <trkpt lat="42.2508446" lon="2.3541074">
        <ele>895.51000977</ele>
        <time>2021-03-30T12:03:36Z</time>
      </trkpt>
      <trkpt lat="42.2508215" lon="2.3541263">
        <ele>895.78997803</ele>
        <time>2021-03-30T12:03:37Z</time>
      </trkpt>
      <trkpt lat="42.2507964" lon="2.3541345">
        <ele>896.38000488</ele>
        <time>2021-03-30T12:03:38Z</time>
      </trkpt>
      <trkpt lat="42.2507739" lon="2.3541387">
        <ele>897.05999756</ele>
        <time>2021-03-30T12:03:39Z</time>
      </trkpt>
      <trkpt lat="42.2507586" lon="2.3541397">
        <ele>897.63000488</ele>
        <time>2021-03-30T12:03:40Z</time>
      </trkpt>
      <trkpt lat="42.2507457" lon="2.3541387">
        <ele>897.98999023</ele>
        <time>2021-03-30T12:03:41Z</time>
      </trkpt>
      <trkpt lat="42.2507424" lon="2.354141">
        <ele>898.26000977</ele>
        <time>2021-03-30T12:03:42Z</time>
      </trkpt>
      <trkpt lat="42.2507357" lon="2.3541396">
        <ele>898.38000488</ele>
        <time>2021-03-30T12:03:43Z</time>
      </trkpt>
      <trkpt lat="42.2507313" lon="2.3541418">
        <ele>898.51000977</ele>
        <time>2021-03-30T12:03:44Z</time>
      </trkpt>
      <trkpt lat="42.2507254" lon="2.3541496">
        <ele>898.63000488</ele>
        <time>2021-03-30T12:03:45Z</time>
      </trkpt>
      <trkpt lat="42.2507196" lon="2.3541619">
        <ele>899.03997803</ele>
        <time>2021-03-30T12:03:47Z</time>
      </trkpt>
      <trkpt lat="42.2507235" lon="2.3541695">
        <ele>899.10998535</ele>
        <time>2021-03-30T12:03:48Z</time>
      </trkpt>
      <trkpt lat="42.2507278" lon="2.3541715">
        <ele>899.08001709</ele>
        <time>2021-03-30T12:03:49Z</time>
      </trkpt>
      <trkpt lat="42.2507184" lon="2.3541651">
        <ele>898.98999023</ele>
        <time>2021-03-30T12:03:50Z</time>
      </trkpt>
      <trkpt lat="42.2507134" lon="2.3541645">
        <ele>899.15997314</ele>
        <time>2021-03-30T12:03:51Z</time>
      </trkpt>
      <trkpt lat="42.2507139" lon="2.3541623">
        <ele>899.26000977</ele>
        <time>2021-03-30T12:03:52Z</time>
      </trkpt>
      <trkpt lat="42.2507127" lon="2.3541727">
        <ele>899.23999023</ele>
        <time>2021-03-30T12:03:53Z</time>
      </trkpt>
      <trkpt lat="42.2507094" lon="2.354167">
        <ele>899.25</ele>
        <time>2021-03-30T12:03:54Z</time>
      </trkpt>
      <trkpt lat="42.2507137" lon="2.3541634">
        <ele>899.35998535</ele>
        <time>2021-03-30T12:03:55Z</time>
      </trkpt>
      <trkpt lat="42.2507137" lon="2.3541566">
        <ele>899.26000977</ele>
        <time>2021-03-30T12:03:56Z</time>
      </trkpt>
      <trkpt lat="42.2507148" lon="2.3541473">
        <ele>899.17999268</ele>
        <time>2021-03-30T12:03:57Z</time>
      </trkpt>
      <trkpt lat="42.2507179" lon="2.3541401">
        <ele>899.05999756</ele>
        <time>2021-03-30T12:03:58Z</time>
      </trkpt>
      <trkpt lat="42.2507205" lon="2.3541324">
        <ele>898.91998291</ele>
        <time>2021-03-30T12:03:59Z</time>
      </trkpt>
      <trkpt lat="42.2507216" lon="2.3541315">
        <ele>898.7800293</ele>
        <time>2021-03-30T12:04:00Z</time>
      </trkpt>
      <trkpt lat="42.2507287" lon="2.354129">
        <ele>898.72998047</ele>
        <time>2021-03-30T12:04:01Z</time>
      </trkpt>
      <trkpt lat="42.2507351" lon="2.3541213">
        <ele>898.55999756</ele>
        <time>2021-03-30T12:04:02Z</time>
      </trkpt>
      <trkpt lat="42.250744" lon="2.3541103">
        <ele>898.33001709</ele>
        <time>2021-03-30T12:04:03Z</time>
      </trkpt>
      <trkpt lat="42.250754" lon="2.3540962">
        <ele>897.98999023</ele>
        <time>2021-03-30T12:04:04Z</time>
      </trkpt>
      <trkpt lat="42.2507612" lon="2.3540896">
        <ele>897.57000732</ele>
        <time>2021-03-30T12:04:05Z</time>
      </trkpt>
      <trkpt lat="42.2507731" lon="2.354084">
        <ele>897.28997803</ele>
        <time>2021-03-30T12:04:06Z</time>
      </trkpt>
      <trkpt lat="42.2508179" lon="2.3541065">
        <ele>896.28997803</ele>
        <time>2021-03-30T12:04:28Z</time>
      </trkpt>
      <trkpt lat="42.2508123" lon="2.354097">
        <ele>896.16998291</ele>
        <time>2021-03-30T12:04:29Z</time>
      </trkpt>
      <trkpt lat="42.2508049" lon="2.3540938">
        <ele>896.13000488</ele>
        <time>2021-03-30T12:04:30Z</time>
      </trkpt>
      <trkpt lat="42.2508047" lon="2.3540846">
        <ele>896.23999023</ele>
        <time>2021-03-30T12:04:31Z</time>
      </trkpt>
      <trkpt lat="42.2508086" lon="2.3540694">
        <ele>896.10998535</ele>
        <time>2021-03-30T12:04:32Z</time>
      </trkpt>
      <trkpt lat="42.250834" lon="2.3540299">
        <ele>895.76000977</ele>
        <time>2021-03-30T12:04:33Z</time>
      </trkpt>
      <trkpt lat="42.250859" lon="2.3539888">
        <ele>894.46002197</ele>
        <time>2021-03-30T12:04:34Z</time>
      </trkpt>
      <trkpt lat="42.2508628" lon="2.3539818">
        <ele>893.60998535</ele>
        <time>2021-03-30T12:04:35Z</time>
      </trkpt>
      <trkpt lat="42.2508678" lon="2.3539721">
        <ele>893.40002441</ele>
        <time>2021-03-30T12:04:36Z</time>
      </trkpt>
      <trkpt lat="42.2508739" lon="2.3539587">
        <ele>893.21002197</ele>
        <time>2021-03-30T12:04:37Z</time>
      </trkpt>
      <trkpt lat="42.2508756" lon="2.3539533">
        <ele>892.96002197</ele>
        <time>2021-03-30T12:04:38Z</time>
      </trkpt>
      <trkpt lat="42.2508757" lon="2.3539496">
        <ele>892.84002686</ele>
        <time>2021-03-30T12:04:39Z</time>
      </trkpt>
      <trkpt lat="42.25087" lon="2.3539292">
        <ele>892.76000977</ele>
        <time>2021-03-30T12:04:40Z</time>
      </trkpt>
      <trkpt lat="42.2508742" lon="2.3539206">
        <ele>892.40002441</ele>
        <time>2021-03-30T12:04:41Z</time>
      </trkpt>
      <trkpt lat="42.2508843" lon="2.3539207">
        <ele>892.21002197</ele>
        <time>2021-03-30T12:04:42Z</time>
      </trkpt>
      <trkpt lat="42.2508994" lon="2.3539171">
        <ele>892.19000244</ele>
        <time>2021-03-30T12:04:43Z</time>
      </trkpt>
      <trkpt lat="42.2509015" lon="2.3539082">
        <ele>892.13000488</ele>
        <time>2021-03-30T12:04:44Z</time>
      </trkpt>
      <trkpt lat="42.2508961" lon="2.353883">
        <ele>891.9699707</ele>
        <time>2021-03-30T12:04:45Z</time>
      </trkpt>
      <trkpt lat="42.2508978" lon="2.3538665">
        <ele>891.69000244</ele>
        <time>2021-03-30T12:04:46Z</time>
      </trkpt>
      <trkpt lat="42.2509" lon="2.3538526">
        <ele>891.88000488</ele>
        <time>2021-03-30T12:04:47Z</time>
      </trkpt>
      <trkpt lat="42.2508996" lon="2.3538413">
        <ele>892.08001709</ele>
        <time>2021-03-30T12:04:48Z</time>
      </trkpt>
      <trkpt lat="42.2508877" lon="2.3538154">
        <ele>892.26000977</ele>
        <time>2021-03-30T12:04:49Z</time>
      </trkpt>
      <trkpt lat="42.2508758" lon="2.3537937">
        <ele>892.66998291</ele>
        <time>2021-03-30T12:04:50Z</time>
      </trkpt>
      <trkpt lat="42.2508695" lon="2.3537862">
        <ele>893.09002686</ele>
        <time>2021-03-30T12:04:51Z</time>
      </trkpt>
      <trkpt lat="42.2508774" lon="2.3537864">
        <ele>893.2800293</ele>
        <time>2021-03-30T12:04:52Z</time>
      </trkpt>
      <trkpt lat="42.2508809" lon="2.353775">
        <ele>893.25</ele>
        <time>2021-03-30T12:04:53Z</time>
      </trkpt>
      <trkpt lat="42.2508832" lon="2.353771">
        <ele>893.39001465</ele>
        <time>2021-03-30T12:04:54Z</time>
      </trkpt>
      <trkpt lat="42.2508874" lon="2.3537679">
        <ele>893.44000244</ele>
        <time>2021-03-30T12:04:55Z</time>
      </trkpt>
      <trkpt lat="42.2508973" lon="2.353764">
        <ele>893.46002197</ele>
        <time>2021-03-30T12:04:56Z</time>
      </trkpt>
      <trkpt lat="42.2509018" lon="2.3537651">
        <ele>893.44000244</ele>
        <time>2021-03-30T12:04:57Z</time>
      </trkpt>
      <trkpt lat="42.2509045" lon="2.3537675">
        <ele>893.39001465</ele>
        <time>2021-03-30T12:04:58Z</time>
      </trkpt>
      <trkpt lat="42.2509125" lon="2.3537701">
        <ele>893.33001709</ele>
        <time>2021-03-30T12:04:59Z</time>
      </trkpt>
      <trkpt lat="42.2509185" lon="2.3537682">
        <ele>893.22998047</ele>
        <time>2021-03-30T12:05:00Z</time>
      </trkpt>
      <trkpt lat="42.2509216" lon="2.3537586">
        <ele>893.20001221</ele>
        <time>2021-03-30T12:05:01Z</time>
      </trkpt>
      <trkpt lat="42.250924" lon="2.3537552">
        <ele>893.28997803</ele>
        <time>2021-03-30T12:05:02Z</time>
      </trkpt>
      <trkpt lat="42.2509213" lon="2.3537467">
        <ele>893.32000732</ele>
        <time>2021-03-30T12:05:03Z</time>
      </trkpt>
      <trkpt lat="42.2509295" lon="2.3537384">
        <ele>893.44000244</ele>
        <time>2021-03-30T12:05:04Z</time>
      </trkpt>
      <trkpt lat="42.2509369" lon="2.3537293">
        <ele>893.47998047</ele>
        <time>2021-03-30T12:05:05Z</time>
      </trkpt>
      <trkpt lat="42.2509438" lon="2.3537163">
        <ele>893.51000977</ele>
        <time>2021-03-30T12:05:06Z</time>
      </trkpt>
      <trkpt lat="42.2509456" lon="2.3536929">
        <ele>893.58001709</ele>
        <time>2021-03-30T12:05:07Z</time>
      </trkpt>
      <trkpt lat="42.2509475" lon="2.3536718">
        <ele>893.80999756</ele>
        <time>2021-03-30T12:05:08Z</time>
      </trkpt>
      <trkpt lat="42.2509488" lon="2.3536562">
        <ele>894.0300293</ele>
        <time>2021-03-30T12:05:09Z</time>
      </trkpt>
      <trkpt lat="42.2509535" lon="2.3536492">
        <ele>894.19000244</ele>
        <time>2021-03-30T12:05:10Z</time>
      </trkpt>
      <trkpt lat="42.2509601" lon="2.3536311">
        <ele>894.21002197</ele>
        <time>2021-03-30T12:05:11Z</time>
      </trkpt>
      <trkpt lat="42.2509669" lon="2.3536109">
        <ele>894.2800293</ele>
        <time>2021-03-30T12:05:12Z</time>
      </trkpt>
      <trkpt lat="42.2509653" lon="2.3535957">
        <ele>894.35998535</ele>
        <time>2021-03-30T12:05:13Z</time>
      </trkpt>
      <trkpt lat="42.2509633" lon="2.3535803">
        <ele>894.40002441</ele>
        <time>2021-03-30T12:05:14Z</time>
      </trkpt>
      <trkpt lat="42.2509635" lon="2.3535613">
        <ele>894.44000244</ele>
        <time>2021-03-30T12:05:15Z</time>
      </trkpt>
      <trkpt lat="42.2509612" lon="2.3535532">
        <ele>894.44000244</ele>
        <time>2021-03-30T12:05:16Z</time>
      </trkpt>
      <trkpt lat="42.2509645" lon="2.353533">
        <ele>894.47998047</ele>
        <time>2021-03-30T12:05:17Z</time>
      </trkpt>
      <trkpt lat="42.2509658" lon="2.3535165">
        <ele>894.41998291</ele>
        <time>2021-03-30T12:05:18Z</time>
      </trkpt>
      <trkpt lat="42.2509684" lon="2.3535019">
        <ele>894.40002441</ele>
        <time>2021-03-30T12:05:19Z</time>
      </trkpt>
      <trkpt lat="42.2509753" lon="2.3534909">
        <ele>894.34997559</ele>
        <time>2021-03-30T12:05:20Z</time>
      </trkpt>
      <trkpt lat="42.2509827" lon="2.3534808">
        <ele>894.2199707</ele>
        <time>2021-03-30T12:05:21Z</time>
      </trkpt>
      <trkpt lat="42.2509872" lon="2.3534651">
        <ele>894.08001709</ele>
        <time>2021-03-30T12:05:22Z</time>
      </trkpt>
      <trkpt lat="42.2509891" lon="2.3534519">
        <ele>893.98999023</ele>
        <time>2021-03-30T12:05:23Z</time>
      </trkpt>
      <trkpt lat="42.250993" lon="2.3534432">
        <ele>893.94000244</ele>
        <time>2021-03-30T12:05:24Z</time>
      </trkpt>
      <trkpt lat="42.2509939" lon="2.3534353">
        <ele>893.86999512</ele>
        <time>2021-03-30T12:05:25Z</time>
      </trkpt>
      <trkpt lat="42.2509951" lon="2.3534254">
        <ele>893.84997559</ele>
        <time>2021-03-30T12:05:26Z</time>
      </trkpt>
      <trkpt lat="42.2510323" lon="2.3533494">
        <ele>893.09997559</ele>
        <time>2021-03-30T12:05:42Z</time>
      </trkpt>
      <trkpt lat="42.2510304" lon="2.3533583">
        <ele>893.09997559</ele>
        <time>2021-03-30T12:05:43Z</time>
      </trkpt>
      <trkpt lat="42.2510349" lon="2.3533536">
        <ele>893.14001465</ele>
        <time>2021-03-30T12:05:44Z</time>
      </trkpt>
      <trkpt lat="42.2510354" lon="2.3533548">
        <ele>893.05999756</ele>
        <time>2021-03-30T12:05:45Z</time>
      </trkpt>
      <trkpt lat="42.2510377" lon="2.3533548">
        <ele>893.03997803</ele>
        <time>2021-03-30T12:05:46Z</time>
      </trkpt>
      <trkpt lat="42.2510395" lon="2.3533518">
        <ele>893</ele>
        <time>2021-03-30T12:05:47Z</time>
      </trkpt>
      <trkpt lat="42.2510397" lon="2.3533485">
        <ele>892.9699707</ele>
        <time>2021-03-30T12:05:48Z</time>
      </trkpt>
      <trkpt lat="42.25104" lon="2.353347">
        <ele>892.96002197</ele>
        <time>2021-03-30T12:05:49Z</time>
      </trkpt>
      <trkpt lat="42.2510458" lon="2.3533274">
        <ele>892.90002441</ele>
        <time>2021-03-30T12:05:55Z</time>
      </trkpt>
      <trkpt lat="42.2510535" lon="2.353328">
        <ele>892.95001221</ele>
        <time>2021-03-30T12:05:56Z</time>
      </trkpt>
      <trkpt lat="42.251057" lon="2.3533295">
        <ele>892.80999756</ele>
        <time>2021-03-30T12:05:57Z</time>
      </trkpt>
      <trkpt lat="42.2510644" lon="2.3533279">
        <ele>892.71002197</ele>
        <time>2021-03-30T12:05:58Z</time>
      </trkpt>
      <trkpt lat="42.2510698" lon="2.3533344">
        <ele>892.59997559</ele>
        <time>2021-03-30T12:05:59Z</time>
      </trkpt>
      <trkpt lat="42.2510692" lon="2.3533354">
        <ele>892.40002441</ele>
        <time>2021-03-30T12:06:00Z</time>
      </trkpt>
      <trkpt lat="42.2510796" lon="2.3533289">
        <ele>892.27001953</ele>
        <time>2021-03-30T12:06:08Z</time>
      </trkpt>
      <trkpt lat="42.2510807" lon="2.3533256">
        <ele>892.27001953</ele>
        <time>2021-03-30T12:06:09Z</time>
      </trkpt>
      <trkpt lat="42.2510823" lon="2.3533235">
        <ele>892.30999756</ele>
        <time>2021-03-30T12:06:10Z</time>
      </trkpt>
      <trkpt lat="42.2510919" lon="2.3533079">
        <ele>892.32000732</ele>
        <time>2021-03-30T12:06:11Z</time>
      </trkpt>
      <trkpt lat="42.251106" lon="2.3532941">
        <ele>892.42999268</ele>
        <time>2021-03-30T12:06:12Z</time>
      </trkpt>
      <trkpt lat="42.2511203" lon="2.353288">
        <ele>892.42999268</ele>
        <time>2021-03-30T12:06:13Z</time>
      </trkpt>
      <trkpt lat="42.2511255" lon="2.3532823">
        <ele>892.28997803</ele>
        <time>2021-03-30T12:06:14Z</time>
      </trkpt>
      <trkpt lat="42.2511387" lon="2.3532591">
        <ele>892.2800293</ele>
        <time>2021-03-30T12:06:15Z</time>
      </trkpt>
      <trkpt lat="42.2511457" lon="2.3532493">
        <ele>892.46002197</ele>
        <time>2021-03-30T12:06:16Z</time>
      </trkpt>
      <trkpt lat="42.2511562" lon="2.3532342">
        <ele>892.52001953</ele>
        <time>2021-03-30T12:06:17Z</time>
      </trkpt>
      <trkpt lat="42.2511673" lon="2.3532157">
        <ele>892.60998535</ele>
        <time>2021-03-30T12:06:18Z</time>
      </trkpt>
      <trkpt lat="42.2511781" lon="2.3531974">
        <ele>892.75</ele>
        <time>2021-03-30T12:06:19Z</time>
      </trkpt>
      <trkpt lat="42.25119" lon="2.35318">
        <ele>892.89001465</ele>
        <time>2021-03-30T12:06:20Z</time>
      </trkpt>
      <trkpt lat="42.2512" lon="2.3531679">
        <ele>893</ele>
        <time>2021-03-30T12:06:21Z</time>
      </trkpt>
      <trkpt lat="42.2512149" lon="2.3531579">
        <ele>893.04998779</ele>
        <time>2021-03-30T12:06:22Z</time>
      </trkpt>
      <trkpt lat="42.2512301" lon="2.3531342">
        <ele>892.9699707</ele>
        <time>2021-03-30T12:06:23Z</time>
      </trkpt>
      <trkpt lat="42.2512407" lon="2.3531197">
        <ele>893.10998535</ele>
        <time>2021-03-30T12:06:24Z</time>
      </trkpt>
      <trkpt lat="42.2512578" lon="2.3530866">
        <ele>893.19000244</ele>
        <time>2021-03-30T12:06:25Z</time>
      </trkpt>
      <trkpt lat="42.2512736" lon="2.3530722">
        <ele>893.47998047</ele>
        <time>2021-03-30T12:06:26Z</time>
      </trkpt>
      <trkpt lat="42.2512814" lon="2.3530582">
        <ele>893.48999023</ele>
        <time>2021-03-30T12:06:27Z</time>
      </trkpt>
      <trkpt lat="42.2512948" lon="2.3530367">
        <ele>893.59997559</ele>
        <time>2021-03-30T12:06:28Z</time>
      </trkpt>
      <trkpt lat="42.2513119" lon="2.3530192">
        <ele>893.75</ele>
        <time>2021-03-30T12:06:29Z</time>
      </trkpt>
      <trkpt lat="42.2513255" lon="2.3529957">
        <ele>893.77001953</ele>
        <time>2021-03-30T12:06:30Z</time>
      </trkpt>
      <trkpt lat="42.2513453" lon="2.3529819">
        <ele>893.94000244</ele>
        <time>2021-03-30T12:06:31Z</time>
      </trkpt>
      <trkpt lat="42.2513638" lon="2.3529653">
        <ele>893.85998535</ele>
        <time>2021-03-30T12:06:32Z</time>
      </trkpt>
      <trkpt lat="42.2513821" lon="2.3529481">
        <ele>893.80999756</ele>
        <time>2021-03-30T12:06:33Z</time>
      </trkpt>
      <trkpt lat="42.2513953" lon="2.3529415">
        <ele>893.78997803</ele>
        <time>2021-03-30T12:06:34Z</time>
      </trkpt>
      <trkpt lat="42.2514128" lon="2.3529302">
        <ele>893.60998535</ele>
        <time>2021-03-30T12:06:35Z</time>
      </trkpt>
      <trkpt lat="42.2514304" lon="2.3529116">
        <ele>893.32000732</ele>
        <time>2021-03-30T12:06:36Z</time>
      </trkpt>
      <trkpt lat="42.2514504" lon="2.3529021">
        <ele>893.19000244</ele>
        <time>2021-03-30T12:06:37Z</time>
      </trkpt>
      <trkpt lat="42.2514776" lon="2.3529036">
        <ele>892.85998535</ele>
        <time>2021-03-30T12:06:38Z</time>
      </trkpt>
      <trkpt lat="42.2515043" lon="2.3528968">
        <ele>892.09997559</ele>
        <time>2021-03-30T12:06:39Z</time>
      </trkpt>
      <trkpt lat="42.2515205" lon="2.3528792">
        <ele>891.51000977</ele>
        <time>2021-03-30T12:06:40Z</time>
      </trkpt>
      <trkpt lat="42.2515366" lon="2.352861">
        <ele>891.51000977</ele>
        <time>2021-03-30T12:06:41Z</time>
      </trkpt>
      <trkpt lat="42.2515533" lon="2.3528468">
        <ele>891.60998535</ele>
        <time>2021-03-30T12:06:42Z</time>
      </trkpt>
      <trkpt lat="42.2515699" lon="2.3528342">
        <ele>891.63000488</ele>
        <time>2021-03-30T12:06:43Z</time>
      </trkpt>
      <trkpt lat="42.2515861" lon="2.352819">
        <ele>891.64001465</ele>
        <time>2021-03-30T12:06:44Z</time>
      </trkpt>
      <trkpt lat="42.2516024" lon="2.3527985">
        <ele>891.75</ele>
        <time>2021-03-30T12:06:45Z</time>
      </trkpt>
      <trkpt lat="42.2516189" lon="2.3527805">
        <ele>892.07000732</ele>
        <time>2021-03-30T12:06:46Z</time>
      </trkpt>
      <trkpt lat="42.2516368" lon="2.352761">
        <ele>892.36999512</ele>
        <time>2021-03-30T12:06:47Z</time>
      </trkpt>
      <trkpt lat="42.2516548" lon="2.3527459">
        <ele>892.78997803</ele>
        <time>2021-03-30T12:06:48Z</time>
      </trkpt>
      <trkpt lat="42.2516713" lon="2.3527296">
        <ele>893.03997803</ele>
        <time>2021-03-30T12:06:49Z</time>
      </trkpt>
      <trkpt lat="42.2516864" lon="2.3527158">
        <ele>893.23999023</ele>
        <time>2021-03-30T12:06:50Z</time>
      </trkpt>
      <trkpt lat="42.2516992" lon="2.3527057">
        <ele>893.21002197</ele>
        <time>2021-03-30T12:06:51Z</time>
      </trkpt>
      <trkpt lat="42.2517169" lon="2.3526974">
        <ele>893.10998535</ele>
        <time>2021-03-30T12:06:52Z</time>
      </trkpt>
      <trkpt lat="42.2517324" lon="2.3526865">
        <ele>892.7800293</ele>
        <time>2021-03-30T12:06:53Z</time>
      </trkpt>
      <trkpt lat="42.2517537" lon="2.3526571">
        <ele>892.58001709</ele>
        <time>2021-03-30T12:06:54Z</time>
      </trkpt>
      <trkpt lat="42.2517783" lon="2.3526227">
        <ele>892.84997559</ele>
        <time>2021-03-30T12:06:55Z</time>
      </trkpt>
      <trkpt lat="42.2518031" lon="2.3525859">
        <ele>893.2199707</ele>
        <time>2021-03-30T12:06:56Z</time>
      </trkpt>
      <trkpt lat="42.251863" lon="2.3525399">
        <ele>893.66998291</ele>
        <time>2021-03-30T12:06:57Z</time>
      </trkpt>
      <trkpt lat="42.2518898" lon="2.3524976">
        <ele>893.22998047</ele>
        <time>2021-03-30T12:06:58Z</time>
      </trkpt>
      <trkpt lat="42.2519418" lon="2.3524445">
        <ele>893.72998047</ele>
        <time>2021-03-30T12:06:59Z</time>
      </trkpt>
      <trkpt lat="42.2519758" lon="2.3523935">
        <ele>893.82000732</ele>
        <time>2021-03-30T12:07:00Z</time>
      </trkpt>
      <trkpt lat="42.2520094" lon="2.3523464">
        <ele>894.41998291</ele>
        <time>2021-03-30T12:07:01Z</time>
      </trkpt>
      <trkpt lat="42.2520439" lon="2.352314">
        <ele>894.95001221</ele>
        <time>2021-03-30T12:07:02Z</time>
      </trkpt>
      <trkpt lat="42.2520796" lon="2.3522814">
        <ele>894.92999268</ele>
        <time>2021-03-30T12:07:03Z</time>
      </trkpt>
      <trkpt lat="42.2521112" lon="2.3522554">
        <ele>894.82000732</ele>
        <time>2021-03-30T12:07:04Z</time>
      </trkpt>
      <trkpt lat="42.2521411" lon="2.3522207">
        <ele>894.60998535</ele>
        <time>2021-03-30T12:07:05Z</time>
      </trkpt>
      <trkpt lat="42.2521653" lon="2.3521865">
        <ele>894.73999023</ele>
        <time>2021-03-30T12:07:06Z</time>
      </trkpt>
      <trkpt lat="42.2521978" lon="2.3521529">
        <ele>894.5</ele>
        <time>2021-03-30T12:07:07Z</time>
      </trkpt>
      <trkpt lat="42.2522258" lon="2.3521264">
        <ele>893.92999268</ele>
        <time>2021-03-30T12:07:08Z</time>
      </trkpt>
      <trkpt lat="42.2522501" lon="2.3521075">
        <ele>893.30999756</ele>
        <time>2021-03-30T12:07:09Z</time>
      </trkpt>
      <trkpt lat="42.2522785" lon="2.3520823">
        <ele>892.48999023</ele>
        <time>2021-03-30T12:07:10Z</time>
      </trkpt>
      <trkpt lat="42.2523063" lon="2.3520481">
        <ele>891.65002441</ele>
        <time>2021-03-30T12:07:11Z</time>
      </trkpt>
      <trkpt lat="42.2523319" lon="2.3520162">
        <ele>891.13000488</ele>
        <time>2021-03-30T12:07:12Z</time>
      </trkpt>
      <trkpt lat="42.252356" lon="2.3519832">
        <ele>890.79998779</ele>
        <time>2021-03-30T12:07:13Z</time>
      </trkpt>
      <trkpt lat="42.2523891" lon="2.3519355">
        <ele>890.66998291</ele>
        <time>2021-03-30T12:07:14Z</time>
      </trkpt>
      <trkpt lat="42.2524248" lon="2.3518948">
        <ele>890.65997314</ele>
        <time>2021-03-30T12:07:15Z</time>
      </trkpt>
      <trkpt lat="42.2524564" lon="2.3518514">
        <ele>890.11999512</ele>
        <time>2021-03-30T12:07:16Z</time>
      </trkpt>
      <trkpt lat="42.2524806" lon="2.3518126">
        <ele>889.7199707</ele>
        <time>2021-03-30T12:07:17Z</time>
      </trkpt>
      <trkpt lat="42.2525055" lon="2.351777">
        <ele>889.51000977</ele>
        <time>2021-03-30T12:07:18Z</time>
      </trkpt>
      <trkpt lat="42.2525285" lon="2.351742">
        <ele>889.01000977</ele>
        <time>2021-03-30T12:07:19Z</time>
      </trkpt>
      <trkpt lat="42.2525466" lon="2.3517022">
        <ele>887.86999512</ele>
        <time>2021-03-30T12:07:20Z</time>
      </trkpt>
      <trkpt lat="42.2525651" lon="2.3516629">
        <ele>887.2199707</ele>
        <time>2021-03-30T12:07:21Z</time>
      </trkpt>
      <trkpt lat="42.2525875" lon="2.3516244">
        <ele>886.65997314</ele>
        <time>2021-03-30T12:07:22Z</time>
      </trkpt>
      <trkpt lat="42.2526041" lon="2.351587">
        <ele>885.92999268</ele>
        <time>2021-03-30T12:07:23Z</time>
      </trkpt>
      <trkpt lat="42.2526133" lon="2.3515585">
        <ele>885.64001465</ele>
        <time>2021-03-30T12:07:24Z</time>
      </trkpt>
      <trkpt lat="42.2526302" lon="2.3515257">
        <ele>885.7199707</ele>
        <time>2021-03-30T12:07:25Z</time>
      </trkpt>
      <trkpt lat="42.252651" lon="2.3514846">
        <ele>885.5</ele>
        <time>2021-03-30T12:07:26Z</time>
      </trkpt>
      <trkpt lat="42.2526635" lon="2.351448">
        <ele>885.32000732</ele>
        <time>2021-03-30T12:07:27Z</time>
      </trkpt>
      <trkpt lat="42.2526689" lon="2.3514188">
        <ele>885.59002686</ele>
        <time>2021-03-30T12:07:28Z</time>
      </trkpt>
      <trkpt lat="42.2526781" lon="2.351391">
        <ele>886.13000488</ele>
        <time>2021-03-30T12:07:29Z</time>
      </trkpt>
      <trkpt lat="42.2526984" lon="2.3513568">
        <ele>886.47998047</ele>
        <time>2021-03-30T12:07:30Z</time>
      </trkpt>
      <trkpt lat="42.2527155" lon="2.3513244">
        <ele>885.52001953</ele>
        <time>2021-03-30T12:07:31Z</time>
      </trkpt>
      <trkpt lat="42.2527344" lon="2.3512822">
        <ele>884.52001953</ele>
        <time>2021-03-30T12:07:32Z</time>
      </trkpt>
      <trkpt lat="42.2527388" lon="2.3512497">
        <ele>883.42999268</ele>
        <time>2021-03-30T12:07:33Z</time>
      </trkpt>
      <trkpt lat="42.2527447" lon="2.3512214">
        <ele>883.09002686</ele>
        <time>2021-03-30T12:07:34Z</time>
      </trkpt>
      <trkpt lat="42.2527577" lon="2.3511948">
        <ele>882.75</ele>
        <time>2021-03-30T12:07:35Z</time>
      </trkpt>
      <trkpt lat="42.2527702" lon="2.3511629">
        <ele>882.0300293</ele>
        <time>2021-03-30T12:07:36Z</time>
      </trkpt>
      <trkpt lat="42.2527835" lon="2.3511191">
        <ele>881.30999756</ele>
        <time>2021-03-30T12:07:37Z</time>
      </trkpt>
      <trkpt lat="42.2527862" lon="2.3510755">
        <ele>880.33001709</ele>
        <time>2021-03-30T12:07:38Z</time>
      </trkpt>
      <trkpt lat="42.2527839" lon="2.3510386">
        <ele>880</ele>
        <time>2021-03-30T12:07:39Z</time>
      </trkpt>
      <trkpt lat="42.2527885" lon="2.3510092">
        <ele>880.16998291</ele>
        <time>2021-03-30T12:07:40Z</time>
      </trkpt>
      <trkpt lat="42.2527851" lon="2.3509707">
        <ele>879.78997803</ele>
        <time>2021-03-30T12:07:41Z</time>
      </trkpt>
      <trkpt lat="42.2527901" lon="2.3509509">
        <ele>880.03997803</ele>
        <time>2021-03-30T12:07:42Z</time>
      </trkpt>
      <trkpt lat="42.2527793" lon="2.3509404">
        <ele>879.64001465</ele>
        <time>2021-03-30T12:07:43Z</time>
      </trkpt>
      <trkpt lat="42.25277" lon="2.3509274">
        <ele>880.53997803</ele>
        <time>2021-03-30T12:07:44Z</time>
      </trkpt>
      <trkpt lat="42.2527663" lon="2.3509088">
        <ele>881.08001709</ele>
        <time>2021-03-30T12:07:45Z</time>
      </trkpt>
      <trkpt lat="42.2527651" lon="2.3508843">
        <ele>881.27001953</ele>
        <time>2021-03-30T12:07:46Z</time>
      </trkpt>
      <trkpt lat="42.2527609" lon="2.3508636">
        <ele>881.32000732</ele>
        <time>2021-03-30T12:07:47Z</time>
      </trkpt>
      <trkpt lat="42.2527613" lon="2.3508435">
        <ele>881.46002197</ele>
        <time>2021-03-30T12:07:48Z</time>
      </trkpt>
      <trkpt lat="42.2527608" lon="2.3508291">
        <ele>881.44000244</ele>
        <time>2021-03-30T12:07:49Z</time>
      </trkpt>
      <trkpt lat="42.252761" lon="2.3508172">
        <ele>881.36999512</ele>
        <time>2021-03-30T12:07:50Z</time>
      </trkpt>
      <trkpt lat="42.2527507" lon="2.3508036">
        <ele>881.15002441</ele>
        <time>2021-03-30T12:07:51Z</time>
      </trkpt>
      <trkpt lat="42.2527389" lon="2.35078">
        <ele>881.25</ele>
        <time>2021-03-30T12:07:52Z</time>
      </trkpt>
      <trkpt lat="42.252735" lon="2.3507666">
        <ele>881.26000977</ele>
        <time>2021-03-30T12:07:53Z</time>
      </trkpt>
      <trkpt lat="42.252734" lon="2.3507512">
        <ele>881.15997314</ele>
        <time>2021-03-30T12:07:54Z</time>
      </trkpt>
      <trkpt lat="42.2527349" lon="2.3507422">
        <ele>880.91998291</ele>
        <time>2021-03-30T12:07:55Z</time>
      </trkpt>
      <trkpt lat="42.2527305" lon="2.3507306">
        <ele>880.71002197</ele>
        <time>2021-03-30T12:07:56Z</time>
      </trkpt>
      <trkpt lat="42.2527238" lon="2.3507125">
        <ele>880.64001465</ele>
        <time>2021-03-30T12:07:57Z</time>
      </trkpt>
      <trkpt lat="42.2527079" lon="2.3506917">
        <ele>880.54998779</ele>
        <time>2021-03-30T12:07:58Z</time>
      </trkpt>
      <trkpt lat="42.2526847" lon="2.3506669">
        <ele>880.72998047</ele>
        <time>2021-03-30T12:07:59Z</time>
      </trkpt>
      <trkpt lat="42.2526662" lon="2.3506467">
        <ele>881.13000488</ele>
        <time>2021-03-30T12:08:00Z</time>
      </trkpt>
      <trkpt lat="42.2526491" lon="2.3506301">
        <ele>881.46002197</ele>
        <time>2021-03-30T12:08:01Z</time>
      </trkpt>
      <trkpt lat="42.2526287" lon="2.3506098">
        <ele>881.79998779</ele>
        <time>2021-03-30T12:08:02Z</time>
      </trkpt>
      <trkpt lat="42.2526141" lon="2.3505915">
        <ele>882.19000244</ele>
        <time>2021-03-30T12:08:03Z</time>
      </trkpt>
      <trkpt lat="42.2525974" lon="2.350578">
        <ele>882.41998291</ele>
        <time>2021-03-30T12:08:04Z</time>
      </trkpt>
      <trkpt lat="42.2525816" lon="2.3505617">
        <ele>882.78997803</ele>
        <time>2021-03-30T12:08:05Z</time>
      </trkpt>
      <trkpt lat="42.2525646" lon="2.3505542">
        <ele>883.09997559</ele>
        <time>2021-03-30T12:08:06Z</time>
      </trkpt>
      <trkpt lat="42.2525406" lon="2.3505498">
        <ele>883.57000732</ele>
        <time>2021-03-30T12:08:07Z</time>
      </trkpt>
      <trkpt lat="42.2525206" lon="2.3505328">
        <ele>884.29998779</ele>
        <time>2021-03-30T12:08:08Z</time>
      </trkpt>
      <trkpt lat="42.2525052" lon="2.3505221">
        <ele>884.47998047</ele>
        <time>2021-03-30T12:08:09Z</time>
      </trkpt>
      <trkpt lat="42.2524878" lon="2.3505066">
        <ele>884.65997314</ele>
        <time>2021-03-30T12:08:10Z</time>
      </trkpt>
      <trkpt lat="42.2524727" lon="2.350488">
        <ele>884.73999023</ele>
        <time>2021-03-30T12:08:11Z</time>
      </trkpt>
      <trkpt lat="42.2524561" lon="2.3504802">
        <ele>884.63000488</ele>
        <time>2021-03-30T12:08:12Z</time>
      </trkpt>
      <trkpt lat="42.2524392" lon="2.3504668">
        <ele>884.92999268</ele>
        <time>2021-03-30T12:08:13Z</time>
      </trkpt>
      <trkpt lat="42.2524308" lon="2.3504593">
        <ele>885.08001709</ele>
        <time>2021-03-30T12:08:14Z</time>
      </trkpt>
      <trkpt lat="42.2524234" lon="2.3504404">
        <ele>885.13000488</ele>
        <time>2021-03-30T12:08:15Z</time>
      </trkpt>
      <trkpt lat="42.2524123" lon="2.3504372">
        <ele>884.72998047</ele>
        <time>2021-03-30T12:08:16Z</time>
      </trkpt>
      <trkpt lat="42.2523956" lon="2.3504179">
        <ele>884.9699707</ele>
        <time>2021-03-30T12:08:17Z</time>
      </trkpt>
      <trkpt lat="42.2523804" lon="2.3503877">
        <ele>884.90002441</ele>
        <time>2021-03-30T12:08:18Z</time>
      </trkpt>
      <trkpt lat="42.2523693" lon="2.3503765">
        <ele>884.36999512</ele>
        <time>2021-03-30T12:08:19Z</time>
      </trkpt>
      <trkpt lat="42.2523545" lon="2.3503717">
        <ele>884.30999756</ele>
        <time>2021-03-30T12:08:20Z</time>
      </trkpt>
      <trkpt lat="42.2523389" lon="2.3503701">
        <ele>884.65002441</ele>
        <time>2021-03-30T12:08:21Z</time>
      </trkpt>
      <trkpt lat="42.2523303" lon="2.3503603">
        <ele>885.17999268</ele>
        <time>2021-03-30T12:08:22Z</time>
      </trkpt>
      <trkpt lat="42.2523189" lon="2.3503504">
        <ele>885.19000244</ele>
        <time>2021-03-30T12:08:23Z</time>
      </trkpt>
      <trkpt lat="42.2523081" lon="2.3503305">
        <ele>885.23999023</ele>
        <time>2021-03-30T12:08:24Z</time>
      </trkpt>
      <trkpt lat="42.252304" lon="2.3503116">
        <ele>884.92999268</ele>
        <time>2021-03-30T12:08:25Z</time>
      </trkpt>
      <trkpt lat="42.2522929" lon="2.3502927">
        <ele>884.38000488</ele>
        <time>2021-03-30T12:08:26Z</time>
      </trkpt>
      <trkpt lat="42.2522804" lon="2.3502805">
        <ele>884.04998779</ele>
        <time>2021-03-30T12:08:27Z</time>
      </trkpt>
      <trkpt lat="42.2522723" lon="2.3502724">
        <ele>884.0300293</ele>
        <time>2021-03-30T12:08:28Z</time>
      </trkpt>
      <trkpt lat="42.2522422" lon="2.3501949">
        <ele>884.15997314</ele>
        <time>2021-03-30T12:08:40Z</time>
      </trkpt>
      <trkpt lat="42.2522441" lon="2.3501797">
        <ele>883.94000244</ele>
        <time>2021-03-30T12:08:41Z</time>
      </trkpt>
      <trkpt lat="42.2522502" lon="2.3501666">
        <ele>883.60998535</ele>
        <time>2021-03-30T12:08:42Z</time>
      </trkpt>
      <trkpt lat="42.252256" lon="2.3501522">
        <ele>883.20001221</ele>
        <time>2021-03-30T12:08:43Z</time>
      </trkpt>
      <trkpt lat="42.252261" lon="2.3501501">
        <ele>882.7800293</ele>
        <time>2021-03-30T12:08:44Z</time>
      </trkpt>
      <trkpt lat="42.2522708" lon="2.3501438">
        <ele>882.57000732</ele>
        <time>2021-03-30T12:08:45Z</time>
      </trkpt>
      <trkpt lat="42.2522782" lon="2.3501389">
        <ele>882.19000244</ele>
        <time>2021-03-30T12:08:46Z</time>
      </trkpt>
      <trkpt lat="42.2522797" lon="2.3501394">
        <ele>881.89001465</ele>
        <time>2021-03-30T12:08:47Z</time>
      </trkpt>
      <trkpt lat="42.2522829" lon="2.3501339">
        <ele>881.78997803</ele>
        <time>2021-03-30T12:08:49Z</time>
      </trkpt>
      <trkpt lat="42.2522881" lon="2.3501364">
        <ele>881.65997314</ele>
        <time>2021-03-30T12:08:50Z</time>
      </trkpt>
      <trkpt lat="42.2522986" lon="2.3501363">
        <ele>881.53997803</ele>
        <time>2021-03-30T12:08:51Z</time>
      </trkpt>
      <trkpt lat="42.2523139" lon="2.3501284">
        <ele>881.26000977</ele>
        <time>2021-03-30T12:08:52Z</time>
      </trkpt>
      <trkpt lat="42.2523264" lon="2.3501312">
        <ele>880.73999023</ele>
        <time>2021-03-30T12:08:53Z</time>
      </trkpt>
      <trkpt lat="42.2523335" lon="2.350133">
        <ele>880.40002441</ele>
        <time>2021-03-30T12:08:54Z</time>
      </trkpt>
      <trkpt lat="42.2523271" lon="2.350116">
        <ele>880.20001221</ele>
        <time>2021-03-30T12:08:55Z</time>
      </trkpt>
      <trkpt lat="42.2523316" lon="2.3501061">
        <ele>880.15997314</ele>
        <time>2021-03-30T12:08:56Z</time>
      </trkpt>
      <trkpt lat="42.2523412" lon="2.3501022">
        <ele>879.94000244</ele>
        <time>2021-03-30T12:08:57Z</time>
      </trkpt>
      <trkpt lat="42.2523443" lon="2.3500934">
        <ele>879.65002441</ele>
        <time>2021-03-30T12:08:58Z</time>
      </trkpt>
      <trkpt lat="42.2523547" lon="2.3500826">
        <ele>879.45001221</ele>
        <time>2021-03-30T12:08:59Z</time>
      </trkpt>
      <trkpt lat="42.2523654" lon="2.3500769">
        <ele>879.09997559</ele>
        <time>2021-03-30T12:09:00Z</time>
      </trkpt>
      <trkpt lat="42.2523779" lon="2.3500739">
        <ele>878.77001953</ele>
        <time>2021-03-30T12:09:01Z</time>
      </trkpt>
      <trkpt lat="42.252394" lon="2.3500691">
        <ele>878.42999268</ele>
        <time>2021-03-30T12:09:02Z</time>
      </trkpt>
      <trkpt lat="42.252401" lon="2.350068">
        <ele>878.01000977</ele>
        <time>2021-03-30T12:09:03Z</time>
      </trkpt>
      <trkpt lat="42.2524036" lon="2.350065">
        <ele>877.80999756</ele>
        <time>2021-03-30T12:09:04Z</time>
      </trkpt>
      <trkpt lat="42.2524123" lon="2.3500603">
        <ele>877.7199707</ele>
        <time>2021-03-30T12:09:05Z</time>
      </trkpt>
      <trkpt lat="42.2524277" lon="2.3500533">
        <ele>877.48999023</ele>
        <time>2021-03-30T12:09:06Z</time>
      </trkpt>
      <trkpt lat="42.2524361" lon="2.3500475">
        <ele>877.10998535</ele>
        <time>2021-03-30T12:09:07Z</time>
      </trkpt>
      <trkpt lat="42.2524444" lon="2.3500463">
        <ele>876.88000488</ele>
        <time>2021-03-30T12:09:08Z</time>
      </trkpt>
      <trkpt lat="42.2524612" lon="2.350042">
        <ele>876.67999268</ele>
        <time>2021-03-30T12:09:09Z</time>
      </trkpt>
      <trkpt lat="42.2524708" lon="2.350039">
        <ele>876.30999756</ele>
        <time>2021-03-30T12:09:10Z</time>
      </trkpt>
      <trkpt lat="42.2524816" lon="2.3500415">
        <ele>876.07000732</ele>
        <time>2021-03-30T12:09:11Z</time>
      </trkpt>
      <trkpt lat="42.2524965" lon="2.3500408">
        <ele>875.83001709</ele>
        <time>2021-03-30T12:09:12Z</time>
      </trkpt>
      <trkpt lat="42.2525136" lon="2.350039">
        <ele>875.51000977</ele>
        <time>2021-03-30T12:09:13Z</time>
      </trkpt>
      <trkpt lat="42.2525309" lon="2.3500319">
        <ele>874.92999268</ele>
        <time>2021-03-30T12:09:14Z</time>
      </trkpt>
      <trkpt lat="42.2525518" lon="2.3500218">
        <ele>874.27001953</ele>
        <time>2021-03-30T12:09:15Z</time>
      </trkpt>
      <trkpt lat="42.2525686" lon="2.3500165">
        <ele>873.4699707</ele>
        <time>2021-03-30T12:09:16Z</time>
      </trkpt>
      <trkpt lat="42.2525798" lon="2.3500162">
        <ele>872.80999756</ele>
        <time>2021-03-30T12:09:17Z</time>
      </trkpt>
      <trkpt lat="42.2525918" lon="2.3500171">
        <ele>872.34997559</ele>
        <time>2021-03-30T12:09:18Z</time>
      </trkpt>
      <trkpt lat="42.2526055" lon="2.3500092">
        <ele>871.88000488</ele>
        <time>2021-03-30T12:09:19Z</time>
      </trkpt>
      <trkpt lat="42.2526259" lon="2.3500141">
        <ele>871.35998535</ele>
        <time>2021-03-30T12:09:20Z</time>
      </trkpt>
      <trkpt lat="42.2526449" lon="2.3500118">
        <ele>870.59002686</ele>
        <time>2021-03-30T12:09:21Z</time>
      </trkpt>
      <trkpt lat="42.2526658" lon="2.3500112">
        <ele>869.84997559</ele>
        <time>2021-03-30T12:09:22Z</time>
      </trkpt>
      <trkpt lat="42.252682" lon="2.3500067">
        <ele>869.04998779</ele>
        <time>2021-03-30T12:09:23Z</time>
      </trkpt>
      <trkpt lat="42.2526924" lon="2.3500057">
        <ele>868.40002441</ele>
        <time>2021-03-30T12:09:24Z</time>
      </trkpt>
      <trkpt lat="42.2527062" lon="2.3500041">
        <ele>867.9699707</ele>
        <time>2021-03-30T12:09:25Z</time>
      </trkpt>
      <trkpt lat="42.25271" lon="2.350001">
        <ele>867.45001221</ele>
        <time>2021-03-30T12:09:26Z</time>
      </trkpt>
      <trkpt lat="42.2527169" lon="2.3499966">
        <ele>867.26000977</ele>
        <time>2021-03-30T12:09:27Z</time>
      </trkpt>
      <trkpt lat="42.2527219" lon="2.3499919">
        <ele>867.05999756</ele>
        <time>2021-03-30T12:09:28Z</time>
      </trkpt>
      <trkpt lat="42.2527311" lon="2.349984">
        <ele>866.95001221</ele>
        <time>2021-03-30T12:09:29Z</time>
      </trkpt>
      <trkpt lat="42.2527403" lon="2.3499686">
        <ele>866.75</ele>
        <time>2021-03-30T12:09:30Z</time>
      </trkpt>
      <trkpt lat="42.2527439" lon="2.3499562">
        <ele>866.67999268</ele>
        <time>2021-03-30T12:09:31Z</time>
      </trkpt>
      <trkpt lat="42.2527489" lon="2.3499419">
        <ele>866.76000977</ele>
        <time>2021-03-30T12:09:32Z</time>
      </trkpt>
      <trkpt lat="42.2527528" lon="2.3499279">
        <ele>866.84997559</ele>
        <time>2021-03-30T12:09:33Z</time>
      </trkpt>
      <trkpt lat="42.2527557" lon="2.3499162">
        <ele>866.9699707</ele>
        <time>2021-03-30T12:09:34Z</time>
      </trkpt>
      <trkpt lat="42.2527564" lon="2.3499092">
        <ele>867.08001709</ele>
        <time>2021-03-30T12:09:35Z</time>
      </trkpt>
      <trkpt lat="42.2527561" lon="2.3499009">
        <ele>867.19000244</ele>
        <time>2021-03-30T12:09:36Z</time>
      </trkpt>
      <trkpt lat="42.2527577" lon="2.3498802">
        <ele>867.35998535</ele>
        <time>2021-03-30T12:09:37Z</time>
      </trkpt>
      <trkpt lat="42.2527599" lon="2.3498676">
        <ele>867.67999268</ele>
        <time>2021-03-30T12:09:38Z</time>
      </trkpt>
      <trkpt lat="42.2527628" lon="2.3498616">
        <ele>867.85998535</ele>
        <time>2021-03-30T12:09:39Z</time>
      </trkpt>
      <trkpt lat="42.25276" lon="2.3498488">
        <ele>867.88000488</ele>
        <time>2021-03-30T12:09:40Z</time>
      </trkpt>
      <trkpt lat="42.2527617" lon="2.3498365">
        <ele>868.20001221</ele>
        <time>2021-03-30T12:09:41Z</time>
      </trkpt>
      <trkpt lat="42.2527651" lon="2.349828">
        <ele>868.39001465</ele>
        <time>2021-03-30T12:09:42Z</time>
      </trkpt>
      <trkpt lat="42.2527696" lon="2.3498141">
        <ele>868.44000244</ele>
        <time>2021-03-30T12:09:43Z</time>
      </trkpt>
      <trkpt lat="42.2527688" lon="2.3497924">
        <ele>868.5300293</ele>
        <time>2021-03-30T12:09:44Z</time>
      </trkpt>
      <trkpt lat="42.2527732" lon="2.3497767">
        <ele>868.94000244</ele>
        <time>2021-03-30T12:09:45Z</time>
      </trkpt>
      <trkpt lat="42.2527719" lon="2.3497674">
        <ele>869.09997559</ele>
        <time>2021-03-30T12:09:46Z</time>
      </trkpt>
      <trkpt lat="42.2527753" lon="2.3497591">
        <ele>869.33001709</ele>
        <time>2021-03-30T12:09:47Z</time>
      </trkpt>
      <trkpt lat="42.2527777" lon="2.3497507">
        <ele>869.38000488</ele>
        <time>2021-03-30T12:09:48Z</time>
      </trkpt>
      <trkpt lat="42.2527959" lon="2.3496988">
        <ele>870.13000488</ele>
        <time>2021-03-30T12:09:57Z</time>
      </trkpt>
      <trkpt lat="42.2528007" lon="2.3496871">
        <ele>870.15002441</ele>
        <time>2021-03-30T12:09:58Z</time>
      </trkpt>
      <trkpt lat="42.2528062" lon="2.3496749">
        <ele>870.34002686</ele>
        <time>2021-03-30T12:09:59Z</time>
      </trkpt>
      <trkpt lat="42.25281" lon="2.3496572">
        <ele>870.52001953</ele>
        <time>2021-03-30T12:10:00Z</time>
      </trkpt>
      <trkpt lat="42.2528176" lon="2.3496505">
        <ele>870.92999268</ele>
        <time>2021-03-30T12:10:01Z</time>
      </trkpt>
      <trkpt lat="42.2528241" lon="2.3496412">
        <ele>870.84997559</ele>
        <time>2021-03-30T12:10:02Z</time>
      </trkpt>
      <trkpt lat="42.2528321" lon="2.3496236">
        <ele>870.83001709</ele>
        <time>2021-03-30T12:10:03Z</time>
      </trkpt>
      <trkpt lat="42.2528387" lon="2.3496048">
        <ele>870.96002197</ele>
        <time>2021-03-30T12:10:04Z</time>
      </trkpt>
      <trkpt lat="42.2528439" lon="2.3495965">
        <ele>871.16998291</ele>
        <time>2021-03-30T12:10:05Z</time>
      </trkpt>
      <trkpt lat="42.2528539" lon="2.3495886">
        <ele>871.15997314</ele>
        <time>2021-03-30T12:10:06Z</time>
      </trkpt>
      <trkpt lat="42.252863" lon="2.3495791">
        <ele>870.84002686</ele>
        <time>2021-03-30T12:10:07Z</time>
      </trkpt>
      <trkpt lat="42.2528722" lon="2.3495765">
        <ele>870.57000732</ele>
        <time>2021-03-30T12:10:08Z</time>
      </trkpt>
      <trkpt lat="42.2528881" lon="2.3495465">
        <ele>869.90002441</ele>
        <time>2021-03-30T12:10:11Z</time>
      </trkpt>
      <trkpt lat="42.252894" lon="2.349539">
        <ele>869.84002686</ele>
        <time>2021-03-30T12:10:12Z</time>
      </trkpt>
      <trkpt lat="42.252896" lon="2.349534">
        <ele>869.65002441</ele>
        <time>2021-03-30T12:10:13Z</time>
      </trkpt>
      <trkpt lat="42.2528998" lon="2.3495193">
        <ele>869.61999512</ele>
        <time>2021-03-30T12:10:14Z</time>
      </trkpt>
      <trkpt lat="42.2529282" lon="2.3494512">
        <ele>869.03997803</ele>
        <time>2021-03-30T12:10:31Z</time>
      </trkpt>
      <trkpt lat="42.2529305" lon="2.3494513">
        <ele>868.98999023</ele>
        <time>2021-03-30T12:10:32Z</time>
      </trkpt>
      <trkpt lat="42.2529375" lon="2.349441">
        <ele>868.83001709</ele>
        <time>2021-03-30T12:10:33Z</time>
      </trkpt>
      <trkpt lat="42.2529434" lon="2.3494345">
        <ele>868.46002197</ele>
        <time>2021-03-30T12:10:34Z</time>
      </trkpt>
      <trkpt lat="42.2529441" lon="2.3494203">
        <ele>868.08001709</ele>
        <time>2021-03-30T12:10:35Z</time>
      </trkpt>
      <trkpt lat="42.2529462" lon="2.3494171">
        <ele>868.14001465</ele>
        <time>2021-03-30T12:10:36Z</time>
      </trkpt>
      <trkpt lat="42.2529505" lon="2.3494057">
        <ele>868.03997803</ele>
        <time>2021-03-30T12:10:37Z</time>
      </trkpt>
      <trkpt lat="42.2529574" lon="2.3493925">
        <ele>867.85998535</ele>
        <time>2021-03-30T12:10:38Z</time>
      </trkpt>
      <trkpt lat="42.2529628" lon="2.3493756">
        <ele>867.5300293</ele>
        <time>2021-03-30T12:10:39Z</time>
      </trkpt>
      <trkpt lat="42.2529677" lon="2.3493634">
        <ele>867.33001709</ele>
        <time>2021-03-30T12:10:40Z</time>
      </trkpt>
      <trkpt lat="42.2529747" lon="2.349351">
        <ele>867.13000488</ele>
        <time>2021-03-30T12:10:41Z</time>
      </trkpt>
      <trkpt lat="42.2529791" lon="2.3493405">
        <ele>866.82000732</ele>
        <time>2021-03-30T12:10:42Z</time>
      </trkpt>
      <trkpt lat="42.2529838" lon="2.3493381">
        <ele>866.64001465</ele>
        <time>2021-03-30T12:10:43Z</time>
      </trkpt>
      <trkpt lat="42.2529903" lon="2.3493278">
        <ele>866.34997559</ele>
        <time>2021-03-30T12:10:44Z</time>
      </trkpt>
      <trkpt lat="42.2529956" lon="2.3493152">
        <ele>866.04998779</ele>
        <time>2021-03-30T12:10:45Z</time>
      </trkpt>
      <trkpt lat="42.2529978" lon="2.3492936">
        <ele>865.85998535</ele>
        <time>2021-03-30T12:10:46Z</time>
      </trkpt>
      <trkpt lat="42.2530036" lon="2.3492795">
        <ele>866</ele>
        <time>2021-03-30T12:10:47Z</time>
      </trkpt>
      <trkpt lat="42.2530123" lon="2.3492679">
        <ele>865.86999512</ele>
        <time>2021-03-30T12:10:48Z</time>
      </trkpt>
      <trkpt lat="42.2530216" lon="2.3492609">
        <ele>865.51000977</ele>
        <time>2021-03-30T12:10:49Z</time>
      </trkpt>
      <trkpt lat="42.2530279" lon="2.3492466">
        <ele>865.03997803</ele>
        <time>2021-03-30T12:10:50Z</time>
      </trkpt>
      <trkpt lat="42.2530309" lon="2.3492386">
        <ele>864.84997559</ele>
        <time>2021-03-30T12:10:51Z</time>
      </trkpt>
      <trkpt lat="42.2530386" lon="2.3492319">
        <ele>864.7800293</ele>
        <time>2021-03-30T12:10:52Z</time>
      </trkpt>
      <trkpt lat="42.2530486" lon="2.3492223">
        <ele>864.44000244</ele>
        <time>2021-03-30T12:10:53Z</time>
      </trkpt>
      <trkpt lat="42.2530572" lon="2.3492135">
        <ele>864.01000977</ele>
        <time>2021-03-30T12:10:54Z</time>
      </trkpt>
      <trkpt lat="42.2530621" lon="2.3492057">
        <ele>863.61999512</ele>
        <time>2021-03-30T12:10:55Z</time>
      </trkpt>
      <trkpt lat="42.2530651" lon="2.3491937">
        <ele>863.38000488</ele>
        <time>2021-03-30T12:10:56Z</time>
      </trkpt>
      <trkpt lat="42.2530701" lon="2.3491784">
        <ele>863.35998535</ele>
        <time>2021-03-30T12:10:57Z</time>
      </trkpt>
      <trkpt lat="42.2530739" lon="2.3491701">
        <ele>863.27001953</ele>
        <time>2021-03-30T12:10:58Z</time>
      </trkpt>
      <trkpt lat="42.2530877" lon="2.3491634">
        <ele>863.14001465</ele>
        <time>2021-03-30T12:10:59Z</time>
      </trkpt>
      <trkpt lat="42.2530926" lon="2.3491502">
        <ele>862.2199707</ele>
        <time>2021-03-30T12:11:00Z</time>
      </trkpt>
      <trkpt lat="42.2530983" lon="2.3491353">
        <ele>861.7800293</ele>
        <time>2021-03-30T12:11:01Z</time>
      </trkpt>
      <trkpt lat="42.2531014" lon="2.3491268">
        <ele>861.34002686</ele>
        <time>2021-03-30T12:11:02Z</time>
      </trkpt>
      <trkpt lat="42.2531042" lon="2.3491147">
        <ele>861.08001709</ele>
        <time>2021-03-30T12:11:03Z</time>
      </trkpt>
      <trkpt lat="42.2531146" lon="2.3491013">
        <ele>860.84997559</ele>
        <time>2021-03-30T12:11:04Z</time>
      </trkpt>
      <trkpt lat="42.253121" lon="2.3490851">
        <ele>860.10998535</ele>
        <time>2021-03-30T12:11:05Z</time>
      </trkpt>
      <trkpt lat="42.2531345" lon="2.3490603">
        <ele>858.53997803</ele>
        <time>2021-03-30T12:11:13Z</time>
      </trkpt>
      <trkpt lat="42.2531381" lon="2.3490474">
        <ele>858.48999023</ele>
        <time>2021-03-30T12:11:14Z</time>
      </trkpt>
      <trkpt lat="42.2531444" lon="2.3490296">
        <ele>858.22998047</ele>
        <time>2021-03-30T12:11:15Z</time>
      </trkpt>
      <trkpt lat="42.2531551" lon="2.3490066">
        <ele>857.77001953</ele>
        <time>2021-03-30T12:11:16Z</time>
      </trkpt>
      <trkpt lat="42.2531637" lon="2.348984">
        <ele>856.9699707</ele>
        <time>2021-03-30T12:11:17Z</time>
      </trkpt>
      <trkpt lat="42.2531771" lon="2.3489587">
        <ele>856.28997803</ele>
        <time>2021-03-30T12:11:18Z</time>
      </trkpt>
      <trkpt lat="42.2531948" lon="2.3489189">
        <ele>855.28997803</ele>
        <time>2021-03-30T12:11:19Z</time>
      </trkpt>
      <trkpt lat="42.2532067" lon="2.3488784">
        <ele>853.95001221</ele>
        <time>2021-03-30T12:11:20Z</time>
      </trkpt>
      <trkpt lat="42.2532154" lon="2.348849">
        <ele>852.97998047</ele>
        <time>2021-03-30T12:11:21Z</time>
      </trkpt>
      <trkpt lat="42.2532224" lon="2.3488179">
        <ele>852.2800293</ele>
        <time>2021-03-30T12:11:22Z</time>
      </trkpt>
      <trkpt lat="42.2532297" lon="2.3487945">
        <ele>851.7199707</ele>
        <time>2021-03-30T12:11:23Z</time>
      </trkpt>
      <trkpt lat="42.2532342" lon="2.3487668">
        <ele>851.15002441</ele>
        <time>2021-03-30T12:11:24Z</time>
      </trkpt>
      <trkpt lat="42.2532348" lon="2.3487428">
        <ele>850.7800293</ele>
        <time>2021-03-30T12:11:25Z</time>
      </trkpt>
      <trkpt lat="42.2532403" lon="2.3487151">
        <ele>850.70001221</ele>
        <time>2021-03-30T12:11:26Z</time>
      </trkpt>
      <trkpt lat="42.2532397" lon="2.3486901">
        <ele>850.30999756</ele>
        <time>2021-03-30T12:11:27Z</time>
      </trkpt>
      <trkpt lat="42.2532372" lon="2.3486623">
        <ele>850.30999756</ele>
        <time>2021-03-30T12:11:28Z</time>
      </trkpt>
      <trkpt lat="42.2532376" lon="2.3486356">
        <ele>850.48999023</ele>
        <time>2021-03-30T12:11:29Z</time>
      </trkpt>
      <trkpt lat="42.2532423" lon="2.3486048">
        <ele>850.47998047</ele>
        <time>2021-03-30T12:11:30Z</time>
      </trkpt>
      <trkpt lat="42.2532455" lon="2.3485741">
        <ele>850.15002441</ele>
        <time>2021-03-30T12:11:31Z</time>
      </trkpt>
      <trkpt lat="42.2532446" lon="2.3485428">
        <ele>849.89001465</ele>
        <time>2021-03-30T12:11:32Z</time>
      </trkpt>
      <trkpt lat="42.2532486" lon="2.3485115">
        <ele>849.92999268</ele>
        <time>2021-03-30T12:11:33Z</time>
      </trkpt>
      <trkpt lat="42.2532583" lon="2.3484845">
        <ele>849.65002441</ele>
        <time>2021-03-30T12:11:34Z</time>
      </trkpt>
      <trkpt lat="42.2532634" lon="2.3484516">
        <ele>848.95001221</ele>
        <time>2021-03-30T12:11:35Z</time>
      </trkpt>
      <trkpt lat="42.2532694" lon="2.3484174">
        <ele>848.52001953</ele>
        <time>2021-03-30T12:11:36Z</time>
      </trkpt>
      <trkpt lat="42.2532665" lon="2.348372">
        <ele>848.05999756</ele>
        <time>2021-03-30T12:11:37Z</time>
      </trkpt>
      <trkpt lat="42.2532678" lon="2.3483269">
        <ele>848.21002197</ele>
        <time>2021-03-30T12:11:38Z</time>
      </trkpt>
      <trkpt lat="42.2532769" lon="2.3482895">
        <ele>848.14001465</ele>
        <time>2021-03-30T12:11:39Z</time>
      </trkpt>
      <trkpt lat="42.2532883" lon="2.3482459">
        <ele>847.5</ele>
        <time>2021-03-30T12:11:40Z</time>
      </trkpt>
      <trkpt lat="42.2532976" lon="2.3482019">
        <ele>846.63000488</ele>
        <time>2021-03-30T12:11:41Z</time>
      </trkpt>
      <trkpt lat="42.2533077" lon="2.3481676">
        <ele>845.90002441</ele>
        <time>2021-03-30T12:11:42Z</time>
      </trkpt>
      <trkpt lat="42.2533141" lon="2.3481226">
        <ele>845.11999512</ele>
        <time>2021-03-30T12:11:43Z</time>
      </trkpt>
      <trkpt lat="42.2533234" lon="2.34808">
        <ele>844.59997559</ele>
        <time>2021-03-30T12:11:44Z</time>
      </trkpt>
      <trkpt lat="42.2533346" lon="2.3480424">
        <ele>843.89001465</ele>
        <time>2021-03-30T12:11:45Z</time>
      </trkpt>
      <trkpt lat="42.2533467" lon="2.348">
        <ele>843.30999756</ele>
        <time>2021-03-30T12:11:46Z</time>
      </trkpt>
      <trkpt lat="42.2533546" lon="2.3479616">
        <ele>843.5300293</ele>
        <time>2021-03-30T12:11:47Z</time>
      </trkpt>
      <trkpt lat="42.2533625" lon="2.3479321">
        <ele>843.85998535</ele>
        <time>2021-03-30T12:11:48Z</time>
      </trkpt>
      <trkpt lat="42.253372" lon="2.3479056">
        <ele>844.0300293</ele>
        <time>2021-03-30T12:11:49Z</time>
      </trkpt>
      <trkpt lat="42.2533817" lon="2.3478754">
        <ele>844.04998779</ele>
        <time>2021-03-30T12:11:50Z</time>
      </trkpt>
      <trkpt lat="42.2533913" lon="2.34784">
        <ele>844.04998779</ele>
        <time>2021-03-30T12:11:51Z</time>
      </trkpt>
      <trkpt lat="42.2534025" lon="2.3477994">
        <ele>844.09997559</ele>
        <time>2021-03-30T12:11:52Z</time>
      </trkpt>
      <trkpt lat="42.2534103" lon="2.3477611">
        <ele>844.09002686</ele>
        <time>2021-03-30T12:11:53Z</time>
      </trkpt>
      <trkpt lat="42.2534149" lon="2.3477279">
        <ele>843.9699707</ele>
        <time>2021-03-30T12:11:54Z</time>
      </trkpt>
      <trkpt lat="42.2534261" lon="2.3476905">
        <ele>843.71002197</ele>
        <time>2021-03-30T12:11:55Z</time>
      </trkpt>
      <trkpt lat="42.25344" lon="2.3476548">
        <ele>843.09997559</ele>
        <time>2021-03-30T12:11:56Z</time>
      </trkpt>
      <trkpt lat="42.2534492" lon="2.3476179">
        <ele>842.30999756</ele>
        <time>2021-03-30T12:11:57Z</time>
      </trkpt>
      <trkpt lat="42.2534626" lon="2.3475911">
        <ele>841.75</ele>
        <time>2021-03-30T12:11:58Z</time>
      </trkpt>
      <trkpt lat="42.2534681" lon="2.3475541">
        <ele>840.98999023</ele>
        <time>2021-03-30T12:11:59Z</time>
      </trkpt>
      <trkpt lat="42.2534656" lon="2.3475286">
        <ele>840.63000488</ele>
        <time>2021-03-30T12:12:00Z</time>
      </trkpt>
      <trkpt lat="42.253474" lon="2.3475024">
        <ele>840.7199707</ele>
        <time>2021-03-30T12:12:01Z</time>
      </trkpt>
      <trkpt lat="42.2534752" lon="2.3474969">
        <ele>840.28997803</ele>
        <time>2021-03-30T12:12:02Z</time>
      </trkpt>
      <trkpt lat="42.2534809" lon="2.3474464">
        <ele>840.11999512</ele>
        <time>2021-03-30T12:12:07Z</time>
      </trkpt>
      <trkpt lat="42.2534801" lon="2.3474309">
        <ele>840.35998535</ele>
        <time>2021-03-30T12:12:08Z</time>
      </trkpt>
      <trkpt lat="42.2534716" lon="2.3474271">
        <ele>840.57000732</ele>
        <time>2021-03-30T12:12:09Z</time>
      </trkpt>
      <trkpt lat="42.2534738" lon="2.3474149">
        <ele>841.0300293</ele>
        <time>2021-03-30T12:12:10Z</time>
      </trkpt>
      <trkpt lat="42.2535137" lon="2.3472106">
        <ele>841.64001465</ele>
        <time>2021-03-30T12:12:39Z</time>
      </trkpt>
      <trkpt lat="42.2535251" lon="2.3471919">
        <ele>841.46002197</ele>
        <time>2021-03-30T12:12:40Z</time>
      </trkpt>
      <trkpt lat="42.2535272" lon="2.3471658">
        <ele>841.03997803</ele>
        <time>2021-03-30T12:12:41Z</time>
      </trkpt>
      <trkpt lat="42.2535321" lon="2.3471369">
        <ele>840.91998291</ele>
        <time>2021-03-30T12:12:42Z</time>
      </trkpt>
      <trkpt lat="42.2535386" lon="2.3471178">
        <ele>840.73999023</ele>
        <time>2021-03-30T12:12:43Z</time>
      </trkpt>
      <trkpt lat="42.2535424" lon="2.3470992">
        <ele>840.48999023</ele>
        <time>2021-03-30T12:12:44Z</time>
      </trkpt>
      <trkpt lat="42.2535559" lon="2.3470753">
        <ele>840.34002686</ele>
        <time>2021-03-30T12:12:45Z</time>
      </trkpt>
      <trkpt lat="42.253556" lon="2.3470362">
        <ele>839.84997559</ele>
        <time>2021-03-30T12:12:46Z</time>
      </trkpt>
      <trkpt lat="42.2535557" lon="2.3470028">
        <ele>839.79998779</ele>
        <time>2021-03-30T12:12:47Z</time>
      </trkpt>
      <trkpt lat="42.2535544" lon="2.3469707">
        <ele>839.79998779</ele>
        <time>2021-03-30T12:12:48Z</time>
      </trkpt>
      <trkpt lat="42.2535484" lon="2.3469453">
        <ele>839.84997559</ele>
        <time>2021-03-30T12:12:49Z</time>
      </trkpt>
      <trkpt lat="42.2535397" lon="2.3469221">
        <ele>840.05999756</ele>
        <time>2021-03-30T12:12:50Z</time>
      </trkpt>
      <trkpt lat="42.2535297" lon="2.3468992">
        <ele>840.39001465</ele>
        <time>2021-03-30T12:12:51Z</time>
      </trkpt>
      <trkpt lat="42.2535225" lon="2.346882">
        <ele>840.77001953</ele>
        <time>2021-03-30T12:12:52Z</time>
      </trkpt>
      <trkpt lat="42.2535149" lon="2.3468575">
        <ele>841.05999756</ele>
        <time>2021-03-30T12:12:53Z</time>
      </trkpt>
      <trkpt lat="42.2535111" lon="2.3468367">
        <ele>841.34997559</ele>
        <time>2021-03-30T12:12:54Z</time>
      </trkpt>
      <trkpt lat="42.2535061" lon="2.3468014">
        <ele>841.52001953</ele>
        <time>2021-03-30T12:12:55Z</time>
      </trkpt>
      <trkpt lat="42.2535014" lon="2.3467747">
        <ele>841.71002197</ele>
        <time>2021-03-30T12:12:56Z</time>
      </trkpt>
      <trkpt lat="42.2535025" lon="2.3467432">
        <ele>841.89001465</ele>
        <time>2021-03-30T12:12:57Z</time>
      </trkpt>
      <trkpt lat="42.2535031" lon="2.3467091">
        <ele>841.86999512</ele>
        <time>2021-03-30T12:12:58Z</time>
      </trkpt>
      <trkpt lat="42.2534997" lon="2.3466899">
        <ele>841.84997559</ele>
        <time>2021-03-30T12:12:59Z</time>
      </trkpt>
      <trkpt lat="42.2534964" lon="2.3466577">
        <ele>841.96002197</ele>
        <time>2021-03-30T12:13:00Z</time>
      </trkpt>
      <trkpt lat="42.2534971" lon="2.3466243">
        <ele>841.92999268</ele>
        <time>2021-03-30T12:13:01Z</time>
      </trkpt>
      <trkpt lat="42.2535026" lon="2.3465996">
        <ele>841.33001709</ele>
        <time>2021-03-30T12:13:02Z</time>
      </trkpt>
      <trkpt lat="42.2535026" lon="2.3465761">
        <ele>840.64001465</ele>
        <time>2021-03-30T12:13:03Z</time>
      </trkpt>
      <trkpt lat="42.2535042" lon="2.3465536">
        <ele>840.15997314</ele>
        <time>2021-03-30T12:13:04Z</time>
      </trkpt>
      <trkpt lat="42.2534973" lon="2.3465498">
        <ele>839.66998291</ele>
        <time>2021-03-30T12:13:05Z</time>
      </trkpt>
      <trkpt lat="42.2534896" lon="2.3465373">
        <ele>840.05999756</ele>
        <time>2021-03-30T12:13:10Z</time>
      </trkpt>
      <trkpt lat="42.2534883" lon="2.3465299">
        <ele>839.88000488</ele>
        <time>2021-03-30T12:13:11Z</time>
      </trkpt>
      <trkpt lat="42.2534859" lon="2.3465211">
        <ele>839.7800293</ele>
        <time>2021-03-30T12:13:12Z</time>
      </trkpt>
      <trkpt lat="42.2534838" lon="2.3465138">
        <ele>839.70001221</ele>
        <time>2021-03-30T12:13:13Z</time>
      </trkpt>
      <trkpt lat="42.2534702" lon="2.3464606">
        <ele>839.53997803</ele>
        <time>2021-03-30T12:13:21Z</time>
      </trkpt>
      <trkpt lat="42.2534736" lon="2.3464482">
        <ele>839.15997314</ele>
        <time>2021-03-30T12:13:22Z</time>
      </trkpt>
      <trkpt lat="42.2534814" lon="2.346436">
        <ele>838.78997803</ele>
        <time>2021-03-30T12:13:23Z</time>
      </trkpt>
      <trkpt lat="42.2534851" lon="2.3464178">
        <ele>838.27001953</ele>
        <time>2021-03-30T12:13:24Z</time>
      </trkpt>
      <trkpt lat="42.2534909" lon="2.3464068">
        <ele>837.77001953</ele>
        <time>2021-03-30T12:13:25Z</time>
      </trkpt>
      <trkpt lat="42.2534936" lon="2.3463942">
        <ele>837.33001709</ele>
        <time>2021-03-30T12:13:26Z</time>
      </trkpt>
      <trkpt lat="42.2534969" lon="2.3463712">
        <ele>836.9699707</ele>
        <time>2021-03-30T12:13:27Z</time>
      </trkpt>
      <trkpt lat="42.2535011" lon="2.3463545">
        <ele>836.7199707</ele>
        <time>2021-03-30T12:13:28Z</time>
      </trkpt>
      <trkpt lat="42.2535062" lon="2.346341">
        <ele>836.54998779</ele>
        <time>2021-03-30T12:13:29Z</time>
      </trkpt>
      <trkpt lat="42.2535092" lon="2.3463365">
        <ele>836.34997559</ele>
        <time>2021-03-30T12:13:30Z</time>
      </trkpt>
      <trkpt lat="42.2535106" lon="2.3463286">
        <ele>836.22998047</ele>
        <time>2021-03-30T12:13:31Z</time>
      </trkpt>
      <trkpt lat="42.2535142" lon="2.3463131">
        <ele>836.16998291</ele>
        <time>2021-03-30T12:13:32Z</time>
      </trkpt>
      <trkpt lat="42.2535166" lon="2.3463019">
        <ele>836.03997803</ele>
        <time>2021-03-30T12:13:33Z</time>
      </trkpt>
      <trkpt lat="42.2535175" lon="2.3462956">
        <ele>835.94000244</ele>
        <time>2021-03-30T12:13:34Z</time>
      </trkpt>
      <trkpt lat="42.2535196" lon="2.3462869">
        <ele>835.90002441</ele>
        <time>2021-03-30T12:13:35Z</time>
      </trkpt>
      <trkpt lat="42.2535166" lon="2.3462795">
        <ele>835.82000732</ele>
        <time>2021-03-30T12:13:36Z</time>
      </trkpt>
      <trkpt lat="42.2535207" lon="2.3462684">
        <ele>835.91998291</ele>
        <time>2021-03-30T12:13:37Z</time>
      </trkpt>
      <trkpt lat="42.2535257" lon="2.3462588">
        <ele>835.78997803</ele>
        <time>2021-03-30T12:13:38Z</time>
      </trkpt>
      <trkpt lat="42.2535473" lon="2.3461826">
        <ele>834.72998047</ele>
        <time>2021-03-30T12:14:34Z</time>
      </trkpt>
      <trkpt lat="42.2535523" lon="2.3461768">
        <ele>834.73999023</ele>
        <time>2021-03-30T12:14:35Z</time>
      </trkpt>
      <trkpt lat="42.2535533" lon="2.346168">
        <ele>834.55999756</ele>
        <time>2021-03-30T12:14:36Z</time>
      </trkpt>
      <trkpt lat="42.2535565" lon="2.3461608">
        <ele>834.51000977</ele>
        <time>2021-03-30T12:14:37Z</time>
      </trkpt>
      <trkpt lat="42.2535584" lon="2.346157">
        <ele>834.39001465</ele>
        <time>2021-03-30T12:14:38Z</time>
      </trkpt>
      <trkpt lat="42.2535575" lon="2.3461585">
        <ele>834.32000732</ele>
        <time>2021-03-30T12:14:39Z</time>
      </trkpt>
      <trkpt lat="42.2535612" lon="2.3461344">
        <ele>834.34002686</ele>
        <time>2021-03-30T12:14:40Z</time>
      </trkpt>
      <trkpt lat="42.2535467" lon="2.3461161">
        <ele>834.21002197</ele>
        <time>2021-03-30T12:14:41Z</time>
      </trkpt>
      <trkpt lat="42.2535441" lon="2.3460973">
        <ele>834.70001221</ele>
        <time>2021-03-30T12:14:42Z</time>
      </trkpt>
      <trkpt lat="42.2535431" lon="2.3460891">
        <ele>834.84002686</ele>
        <time>2021-03-30T12:14:43Z</time>
      </trkpt>
      <trkpt lat="42.2535468" lon="2.3460806">
        <ele>834.90002441</ele>
        <time>2021-03-30T12:14:44Z</time>
      </trkpt>
      <trkpt lat="42.2535491" lon="2.3460699">
        <ele>834.77001953</ele>
        <time>2021-03-30T12:14:45Z</time>
      </trkpt>
      <trkpt lat="42.2535528" lon="2.3460569">
        <ele>834.67999268</ele>
        <time>2021-03-30T12:14:46Z</time>
      </trkpt>
      <trkpt lat="42.2535555" lon="2.3460351">
        <ele>834.53997803</ele>
        <time>2021-03-30T12:14:47Z</time>
      </trkpt>
      <trkpt lat="42.2535562" lon="2.3460287">
        <ele>834.42999268</ele>
        <time>2021-03-30T12:14:48Z</time>
      </trkpt>
      <trkpt lat="42.2535557" lon="2.3460247">
        <ele>834.40002441</ele>
        <time>2021-03-30T12:14:49Z</time>
      </trkpt>
      <trkpt lat="42.2535584" lon="2.3460124">
        <ele>834.40997314</ele>
        <time>2021-03-30T12:14:50Z</time>
      </trkpt>
      <trkpt lat="42.2535668" lon="2.3460044">
        <ele>834.32000732</ele>
        <time>2021-03-30T12:14:51Z</time>
      </trkpt>
      <trkpt lat="42.2535647" lon="2.3459859">
        <ele>834.02001953</ele>
        <time>2021-03-30T12:14:52Z</time>
      </trkpt>
      <trkpt lat="42.253569" lon="2.3459715">
        <ele>834.05999756</ele>
        <time>2021-03-30T12:14:53Z</time>
      </trkpt>
      <trkpt lat="42.2535735" lon="2.345953">
        <ele>833.90997314</ele>
        <time>2021-03-30T12:14:54Z</time>
      </trkpt>
      <trkpt lat="42.2535745" lon="2.3459279">
        <ele>833.73999023</ele>
        <time>2021-03-30T12:14:55Z</time>
      </trkpt>
      <trkpt lat="42.2535763" lon="2.3459167">
        <ele>833.69000244</ele>
        <time>2021-03-30T12:14:56Z</time>
      </trkpt>
      <trkpt lat="42.2535772" lon="2.3459114">
        <ele>833.61999512</ele>
        <time>2021-03-30T12:14:57Z</time>
      </trkpt>
      <trkpt lat="42.2535794" lon="2.3459075">
        <ele>833.58001709</ele>
        <time>2021-03-30T12:14:58Z</time>
      </trkpt>
      <trkpt lat="42.2535799" lon="2.3459062">
        <ele>833.5</ele>
        <time>2021-03-30T12:14:59Z</time>
      </trkpt>
      <trkpt lat="42.2535967" lon="2.3458901">
        <ele>833.25</ele>
        <time>2021-03-30T12:15:06Z</time>
      </trkpt>
      <trkpt lat="42.2536102" lon="2.345864">
        <ele>832.85998535</ele>
        <time>2021-03-30T12:15:07Z</time>
      </trkpt>
      <trkpt lat="42.2536268" lon="2.3458344">
        <ele>832.34997559</ele>
        <time>2021-03-30T12:15:08Z</time>
      </trkpt>
      <trkpt lat="42.2536433" lon="2.3457914">
        <ele>832.27001953</ele>
        <time>2021-03-30T12:15:09Z</time>
      </trkpt>
      <trkpt lat="42.2536446" lon="2.3457451">
        <ele>832.26000977</ele>
        <time>2021-03-30T12:15:10Z</time>
      </trkpt>
      <trkpt lat="42.2536417" lon="2.3456956">
        <ele>832.26000977</ele>
        <time>2021-03-30T12:15:11Z</time>
      </trkpt>
      <trkpt lat="42.2536422" lon="2.3456344">
        <ele>832.26000977</ele>
        <time>2021-03-30T12:15:12Z</time>
      </trkpt>
      <trkpt lat="42.2536326" lon="2.3455811">
        <ele>832.26000977</ele>
        <time>2021-03-30T12:15:13Z</time>
      </trkpt>
      <trkpt lat="42.2536236" lon="2.3455264">
        <ele>832.26000977</ele>
        <time>2021-03-30T12:15:14Z</time>
      </trkpt>
      <trkpt lat="42.2536157" lon="2.3454679">
        <ele>832.26000977</ele>
        <time>2021-03-30T12:15:15Z</time>
      </trkpt>
      <trkpt lat="42.2536109" lon="2.3454052">
        <ele>832.26000977</ele>
        <time>2021-03-30T12:15:16Z</time>
      </trkpt>
      <trkpt lat="42.2536087" lon="2.3453404">
        <ele>832.27001953</ele>
        <time>2021-03-30T12:15:17Z</time>
      </trkpt>
      <trkpt lat="42.2536062" lon="2.3452717">
        <ele>832.30999756</ele>
        <time>2021-03-30T12:15:18Z</time>
      </trkpt>
      <trkpt lat="42.2536084" lon="2.3452146">
        <ele>832.34997559</ele>
        <time>2021-03-30T12:15:19Z</time>
      </trkpt>
      <trkpt lat="42.2536016" lon="2.345162">
        <ele>832.32000732</ele>
        <time>2021-03-30T12:15:20Z</time>
      </trkpt>
      <trkpt lat="42.2535976" lon="2.3451041">
        <ele>832.42999268</ele>
        <time>2021-03-30T12:15:21Z</time>
      </trkpt>
      <trkpt lat="42.253596" lon="2.3450422">
        <ele>832.51000977</ele>
        <time>2021-03-30T12:15:22Z</time>
      </trkpt>
      <trkpt lat="42.2535931" lon="2.3449764">
        <ele>832.53997803</ele>
        <time>2021-03-30T12:15:23Z</time>
      </trkpt>
      <trkpt lat="42.25359" lon="2.3449212">
        <ele>832.54998779</ele>
        <time>2021-03-30T12:15:24Z</time>
      </trkpt>
      <trkpt lat="42.2535885" lon="2.3448591">
        <ele>832.54998779</ele>
        <time>2021-03-30T12:15:25Z</time>
      </trkpt>
      <trkpt lat="42.2535851" lon="2.3447956">
        <ele>832.53997803</ele>
        <time>2021-03-30T12:15:26Z</time>
      </trkpt>
      <trkpt lat="42.2535859" lon="2.3447336">
        <ele>832.51000977</ele>
        <time>2021-03-30T12:15:27Z</time>
      </trkpt>
      <trkpt lat="42.2535821" lon="2.3446727">
        <ele>832.47998047</ele>
        <time>2021-03-30T12:15:28Z</time>
      </trkpt>
      <trkpt lat="42.2535826" lon="2.3446208">
        <ele>832.44000244</ele>
        <time>2021-03-30T12:15:29Z</time>
      </trkpt>
      <trkpt lat="42.2535867" lon="2.3445537">
        <ele>832.41998291</ele>
        <time>2021-03-30T12:15:30Z</time>
      </trkpt>
      <trkpt lat="42.2535874" lon="2.3444875">
        <ele>832.40002441</ele>
        <time>2021-03-30T12:15:31Z</time>
      </trkpt>
      <trkpt lat="42.2535897" lon="2.3444141">
        <ele>832.38000488</ele>
        <time>2021-03-30T12:15:32Z</time>
      </trkpt>
      <trkpt lat="42.2535865" lon="2.3443394">
        <ele>832.36999512</ele>
        <time>2021-03-30T12:15:33Z</time>
      </trkpt>
      <trkpt lat="42.2535856" lon="2.3442633">
        <ele>832.34997559</ele>
        <time>2021-03-30T12:15:34Z</time>
      </trkpt>
      <trkpt lat="42.2535806" lon="2.3441892">
        <ele>832.34002686</ele>
        <time>2021-03-30T12:15:35Z</time>
      </trkpt>
      <trkpt lat="42.2535766" lon="2.3441191">
        <ele>832.33001709</ele>
        <time>2021-03-30T12:15:36Z</time>
      </trkpt>
      <trkpt lat="42.2535795" lon="2.3440415">
        <ele>832.32000732</ele>
        <time>2021-03-30T12:15:37Z</time>
      </trkpt>
      <trkpt lat="42.2535855" lon="2.3439581">
        <ele>832.32000732</ele>
        <time>2021-03-30T12:15:38Z</time>
      </trkpt>
      <trkpt lat="42.2535924" lon="2.3438737">
        <ele>832.30999756</ele>
        <time>2021-03-30T12:15:39Z</time>
      </trkpt>
      <trkpt lat="42.2535825" lon="2.3438045">
        <ele>832.30999756</ele>
        <time>2021-03-30T12:15:40Z</time>
      </trkpt>
      <trkpt lat="42.2535822" lon="2.3437264">
        <ele>832.29998779</ele>
        <time>2021-03-30T12:15:41Z</time>
      </trkpt>
      <trkpt lat="42.2535799" lon="2.3436495">
        <ele>832.29998779</ele>
        <time>2021-03-30T12:15:42Z</time>
      </trkpt>
      <trkpt lat="42.2535757" lon="2.3435798">
        <ele>832.28997803</ele>
        <time>2021-03-30T12:15:43Z</time>
      </trkpt>
      <trkpt lat="42.2535709" lon="2.3435064">
        <ele>832.28997803</ele>
        <time>2021-03-30T12:15:44Z</time>
      </trkpt>
      <trkpt lat="42.2535732" lon="2.3434209">
        <ele>832.28997803</ele>
        <time>2021-03-30T12:15:45Z</time>
      </trkpt>
      <trkpt lat="42.2535657" lon="2.3433395">
        <ele>832.2800293</ele>
        <time>2021-03-30T12:15:46Z</time>
      </trkpt>
      <trkpt lat="42.2535595" lon="2.3432592">
        <ele>832.2800293</ele>
        <time>2021-03-30T12:15:47Z</time>
      </trkpt>
      <trkpt lat="42.2535592" lon="2.3431752">
        <ele>832.30999756</ele>
        <time>2021-03-30T12:15:48Z</time>
      </trkpt>
      <trkpt lat="42.2535522" lon="2.3430965">
        <ele>832.35998535</ele>
        <time>2021-03-30T12:15:49Z</time>
      </trkpt>
      <trkpt lat="42.2535496" lon="2.34301">
        <ele>832.45001221</ele>
        <time>2021-03-30T12:15:50Z</time>
      </trkpt>
      <trkpt lat="42.2535451" lon="2.3429281">
        <ele>832.53997803</ele>
        <time>2021-03-30T12:15:51Z</time>
      </trkpt>
      <trkpt lat="42.2535355" lon="2.3428614">
        <ele>832.58001709</ele>
        <time>2021-03-30T12:15:52Z</time>
      </trkpt>
      <trkpt lat="42.2535342" lon="2.3427868">
        <ele>832.59997559</ele>
        <time>2021-03-30T12:15:53Z</time>
      </trkpt>
      <trkpt lat="42.2535351" lon="2.3427067">
        <ele>832.57000732</ele>
        <time>2021-03-30T12:15:54Z</time>
      </trkpt>
      <trkpt lat="42.2535257" lon="2.3426451">
        <ele>832.53997803</ele>
        <time>2021-03-30T12:15:55Z</time>
      </trkpt>
      <trkpt lat="42.2535278" lon="2.3425679">
        <ele>832.51000977</ele>
        <time>2021-03-30T12:15:56Z</time>
      </trkpt>
      <trkpt lat="42.2535306" lon="2.342491">
        <ele>832.47998047</ele>
        <time>2021-03-30T12:15:57Z</time>
      </trkpt>
      <trkpt lat="42.2535243" lon="2.3424149">
        <ele>832.46002197</ele>
        <time>2021-03-30T12:15:58Z</time>
      </trkpt>
      <trkpt lat="42.2535165" lon="2.3423417">
        <ele>832.44000244</ele>
        <time>2021-03-30T12:15:59Z</time>
      </trkpt>
      <trkpt lat="42.2535184" lon="2.3422684">
        <ele>832.41998291</ele>
        <time>2021-03-30T12:16:00Z</time>
      </trkpt>
      <trkpt lat="42.253511" lon="2.3421991">
        <ele>832.40002441</ele>
        <time>2021-03-30T12:16:01Z</time>
      </trkpt>
      <trkpt lat="42.2535153" lon="2.3421264">
        <ele>832.39001465</ele>
        <time>2021-03-30T12:16:02Z</time>
      </trkpt>
      <trkpt lat="42.2535189" lon="2.3420582">
        <ele>832.27001953</ele>
        <time>2021-03-30T12:16:03Z</time>
      </trkpt>
      <trkpt lat="42.2535238" lon="2.3419827">
        <ele>832.26000977</ele>
        <time>2021-03-30T12:16:04Z</time>
      </trkpt>
      <trkpt lat="42.2535274" lon="2.3419187">
        <ele>832.26000977</ele>
        <time>2021-03-30T12:16:05Z</time>
      </trkpt>
      <trkpt lat="42.253529" lon="2.341851">
        <ele>832.40002441</ele>
        <time>2021-03-30T12:16:06Z</time>
      </trkpt>
      <trkpt lat="42.2535354" lon="2.3417848">
        <ele>832.76000977</ele>
        <time>2021-03-30T12:16:07Z</time>
      </trkpt>
      <trkpt lat="42.2535358" lon="2.3417118">
        <ele>833.07000732</ele>
        <time>2021-03-30T12:16:08Z</time>
      </trkpt>
      <trkpt lat="42.2535257" lon="2.3416328">
        <ele>833.44000244</ele>
        <time>2021-03-30T12:16:09Z</time>
      </trkpt>
      <trkpt lat="42.2535072" lon="2.341568">
        <ele>833.86999512</ele>
        <time>2021-03-30T12:16:10Z</time>
      </trkpt>
      <trkpt lat="42.2534956" lon="2.3414985">
        <ele>834.23999023</ele>
        <time>2021-03-30T12:16:11Z</time>
      </trkpt>
      <trkpt lat="42.2534877" lon="2.3414272">
        <ele>834.38000488</ele>
        <time>2021-03-30T12:16:12Z</time>
      </trkpt>
      <trkpt lat="42.2534724" lon="2.3413433">
        <ele>834.4699707</ele>
        <time>2021-03-30T12:16:13Z</time>
      </trkpt>
      <trkpt lat="42.2534604" lon="2.3412654">
        <ele>834.70001221</ele>
        <time>2021-03-30T12:16:14Z</time>
      </trkpt>
      <trkpt lat="42.253445" lon="2.3412055">
        <ele>835.05999756</ele>
        <time>2021-03-30T12:16:15Z</time>
      </trkpt>
      <trkpt lat="42.2534381" lon="2.3411353">
        <ele>835.19000244</ele>
        <time>2021-03-30T12:16:16Z</time>
      </trkpt>
      <trkpt lat="42.2534274" lon="2.3410602">
        <ele>835.34997559</ele>
        <time>2021-03-30T12:16:17Z</time>
      </trkpt>
      <trkpt lat="42.2534146" lon="2.3409729">
        <ele>836.04998779</ele>
        <time>2021-03-30T12:16:18Z</time>
      </trkpt>
      <trkpt lat="42.2534015" lon="2.3408832">
        <ele>836.69000244</ele>
        <time>2021-03-30T12:16:19Z</time>
      </trkpt>
      <trkpt lat="42.2533864" lon="2.3407959">
        <ele>837.26000977</ele>
        <time>2021-03-30T12:16:20Z</time>
      </trkpt>
      <trkpt lat="42.2533729" lon="2.3407148">
        <ele>837.71002197</ele>
        <time>2021-03-30T12:16:21Z</time>
      </trkpt>
      <trkpt lat="42.2533668" lon="2.3406301">
        <ele>837.9699707</ele>
        <time>2021-03-30T12:16:22Z</time>
      </trkpt>
      <trkpt lat="42.2533514" lon="2.3405452">
        <ele>838.0300293</ele>
        <time>2021-03-30T12:16:23Z</time>
      </trkpt>
      <trkpt lat="42.2533418" lon="2.3404629">
        <ele>837.92999268</ele>
        <time>2021-03-30T12:16:24Z</time>
      </trkpt>
      <trkpt lat="42.2533291" lon="2.3403763">
        <ele>837.86999512</ele>
        <time>2021-03-30T12:16:25Z</time>
      </trkpt>
      <trkpt lat="42.2533177" lon="2.3402957">
        <ele>837.77001953</ele>
        <time>2021-03-30T12:16:26Z</time>
      </trkpt>
      <trkpt lat="42.2533032" lon="2.3402074">
        <ele>837.21002197</ele>
        <time>2021-03-30T12:16:27Z</time>
      </trkpt>
      <trkpt lat="42.2532902" lon="2.3401139">
        <ele>836.71002197</ele>
        <time>2021-03-30T12:16:28Z</time>
      </trkpt>
      <trkpt lat="42.2532723" lon="2.3400481">
        <ele>833.77001953</ele>
        <time>2021-03-30T12:16:29Z</time>
      </trkpt>
      <trkpt lat="42.2532549" lon="2.3399727">
        <ele>833.65997314</ele>
        <time>2021-03-30T12:16:30Z</time>
      </trkpt>
      <trkpt lat="42.2532477" lon="2.3398927">
        <ele>833.77001953</ele>
        <time>2021-03-30T12:16:31Z</time>
      </trkpt>
      <trkpt lat="42.2532429" lon="2.3398163">
        <ele>833.90997314</ele>
        <time>2021-03-30T12:16:32Z</time>
      </trkpt>
      <trkpt lat="42.2532401" lon="2.3397402">
        <ele>834.01000977</ele>
        <time>2021-03-30T12:16:33Z</time>
      </trkpt>
      <trkpt lat="42.253229" lon="2.3396694">
        <ele>834.05999756</ele>
        <time>2021-03-30T12:16:34Z</time>
      </trkpt>
      <trkpt lat="42.2532158" lon="2.339603">
        <ele>833.91998291</ele>
        <time>2021-03-30T12:16:35Z</time>
      </trkpt>
      <trkpt lat="42.2531979" lon="2.3395381">
        <ele>833.59997559</ele>
        <time>2021-03-30T12:16:36Z</time>
      </trkpt>
      <trkpt lat="42.2531741" lon="2.3394794">
        <ele>833.19000244</ele>
        <time>2021-03-30T12:16:37Z</time>
      </trkpt>
      <trkpt lat="42.253152" lon="2.3394256">
        <ele>832.71002197</ele>
        <time>2021-03-30T12:16:38Z</time>
      </trkpt>
      <trkpt lat="42.2531298" lon="2.339375">
        <ele>832.30999756</ele>
        <time>2021-03-30T12:16:39Z</time>
      </trkpt>
      <trkpt lat="42.2531106" lon="2.339329">
        <ele>832.27001953</ele>
        <time>2021-03-30T12:16:40Z</time>
      </trkpt>
      <trkpt lat="42.2531019" lon="2.3392761">
        <ele>832.26000977</ele>
        <time>2021-03-30T12:16:41Z</time>
      </trkpt>
      <trkpt lat="42.2530882" lon="2.3392235">
        <ele>832.26000977</ele>
        <time>2021-03-30T12:16:42Z</time>
      </trkpt>
      <trkpt lat="42.2530672" lon="2.33917">
        <ele>832.26000977</ele>
        <time>2021-03-30T12:16:43Z</time>
      </trkpt>
      <trkpt lat="42.2530467" lon="2.3391164">
        <ele>832.26000977</ele>
        <time>2021-03-30T12:16:44Z</time>
      </trkpt>
      <trkpt lat="42.2530265" lon="2.3390598">
        <ele>832.26000977</ele>
        <time>2021-03-30T12:16:45Z</time>
      </trkpt>
      <trkpt lat="42.2530047" lon="2.3390035">
        <ele>832.26000977</ele>
        <time>2021-03-30T12:16:46Z</time>
      </trkpt>
      <trkpt lat="42.2529769" lon="2.3389548">
        <ele>832.26000977</ele>
        <time>2021-03-30T12:16:47Z</time>
      </trkpt>
      <trkpt lat="42.2529505" lon="2.3389067">
        <ele>832.26000977</ele>
        <time>2021-03-30T12:16:48Z</time>
      </trkpt>
      <trkpt lat="42.2529273" lon="2.3388586">
        <ele>832.26000977</ele>
        <time>2021-03-30T12:16:49Z</time>
      </trkpt>
      <trkpt lat="42.2529051" lon="2.3388106">
        <ele>832.26000977</ele>
        <time>2021-03-30T12:16:50Z</time>
      </trkpt>
      <trkpt lat="42.252888" lon="2.3387593">
        <ele>832.26000977</ele>
        <time>2021-03-30T12:16:51Z</time>
      </trkpt>
      <trkpt lat="42.252866" lon="2.33871">
        <ele>832.26000977</ele>
        <time>2021-03-30T12:16:52Z</time>
      </trkpt>
      <trkpt lat="42.2528461" lon="2.3386648">
        <ele>832.26000977</ele>
        <time>2021-03-30T12:16:53Z</time>
      </trkpt>
      <trkpt lat="42.252832" lon="2.3386257">
        <ele>832.26000977</ele>
        <time>2021-03-30T12:16:54Z</time>
      </trkpt>
      <trkpt lat="42.2528145" lon="2.3385975">
        <ele>832.26000977</ele>
        <time>2021-03-30T12:16:55Z</time>
      </trkpt>
      <trkpt lat="42.2527965" lon="2.3385759">
        <ele>832.26000977</ele>
        <time>2021-03-30T12:16:56Z</time>
      </trkpt>
      <trkpt lat="42.2527869" lon="2.3385536">
        <ele>832.26000977</ele>
        <time>2021-03-30T12:16:57Z</time>
      </trkpt>
      <trkpt lat="42.2527855" lon="2.3385231">
        <ele>832.26000977</ele>
        <time>2021-03-30T12:16:58Z</time>
      </trkpt>
      <trkpt lat="42.2527924" lon="2.3384897">
        <ele>832.26000977</ele>
        <time>2021-03-30T12:16:59Z</time>
      </trkpt>
      <trkpt lat="42.2528139" lon="2.3384698">
        <ele>832.26000977</ele>
        <time>2021-03-30T12:17:00Z</time>
      </trkpt>
      <trkpt lat="42.2528405" lon="2.3384514">
        <ele>832.26000977</ele>
        <time>2021-03-30T12:17:01Z</time>
      </trkpt>
      <trkpt lat="42.2528618" lon="2.338422">
        <ele>832.26000977</ele>
        <time>2021-03-30T12:17:02Z</time>
      </trkpt>
      <trkpt lat="42.2528795" lon="2.3383997">
        <ele>832.26000977</ele>
        <time>2021-03-30T12:17:03Z</time>
      </trkpt>
      <trkpt lat="42.2528963" lon="2.3383792">
        <ele>832.26000977</ele>
        <time>2021-03-30T12:17:04Z</time>
      </trkpt>
      <trkpt lat="42.2529082" lon="2.3383324">
        <ele>832.26000977</ele>
        <time>2021-03-30T12:17:05Z</time>
      </trkpt>
      <trkpt lat="42.2529175" lon="2.3382756">
        <ele>832.26000977</ele>
        <time>2021-03-30T12:17:06Z</time>
      </trkpt>
      <trkpt lat="42.2529297" lon="2.338246">
        <ele>832.26000977</ele>
        <time>2021-03-30T12:17:07Z</time>
      </trkpt>
      <trkpt lat="42.2529354" lon="2.3381945">
        <ele>832.26000977</ele>
        <time>2021-03-30T12:17:08Z</time>
      </trkpt>
      <trkpt lat="42.2529501" lon="2.33814">
        <ele>832.26000977</ele>
        <time>2021-03-30T12:17:09Z</time>
      </trkpt>
      <trkpt lat="42.2529651" lon="2.3380978">
        <ele>832.26000977</ele>
        <time>2021-03-30T12:17:10Z</time>
      </trkpt>
      <trkpt lat="42.252982" lon="2.3380585">
        <ele>832.26000977</ele>
        <time>2021-03-30T12:17:11Z</time>
      </trkpt>
      <trkpt lat="42.2529977" lon="2.3380021">
        <ele>832.26000977</ele>
        <time>2021-03-30T12:17:12Z</time>
      </trkpt>
      <trkpt lat="42.2530128" lon="2.3379416">
        <ele>832.15997314</ele>
        <time>2021-03-30T12:17:13Z</time>
      </trkpt>
      <trkpt lat="42.2530259" lon="2.337888">
        <ele>832.09997559</ele>
        <time>2021-03-30T12:17:14Z</time>
      </trkpt>
      <trkpt lat="42.2530487" lon="2.3378279">
        <ele>831.75</ele>
        <time>2021-03-30T12:17:15Z</time>
      </trkpt>
      <trkpt lat="42.2530589" lon="2.3377819">
        <ele>831.60998535</ele>
        <time>2021-03-30T12:17:16Z</time>
      </trkpt>
      <trkpt lat="42.2530774" lon="2.3377237">
        <ele>831.02001953</ele>
        <time>2021-03-30T12:17:17Z</time>
      </trkpt>
      <trkpt lat="42.2530961" lon="2.3376767">
        <ele>830.4699707</ele>
        <time>2021-03-30T12:17:18Z</time>
      </trkpt>
      <trkpt lat="42.2531155" lon="2.3376333">
        <ele>830.02001953</ele>
        <time>2021-03-30T12:17:19Z</time>
      </trkpt>
      <trkpt lat="42.2531316" lon="2.3375845">
        <ele>829.63000488</ele>
        <time>2021-03-30T12:17:20Z</time>
      </trkpt>
      <trkpt lat="42.2531454" lon="2.3375322">
        <ele>829.29998779</ele>
        <time>2021-03-30T12:17:21Z</time>
      </trkpt>
      <trkpt lat="42.2531623" lon="2.3374959">
        <ele>829.01000977</ele>
        <time>2021-03-30T12:17:22Z</time>
      </trkpt>
      <trkpt lat="42.253175" lon="2.3374509">
        <ele>828.77001953</ele>
        <time>2021-03-30T12:17:23Z</time>
      </trkpt>
      <trkpt lat="42.2531878" lon="2.3374082">
        <ele>828.54998779</ele>
        <time>2021-03-30T12:17:24Z</time>
      </trkpt>
      <trkpt lat="42.2531934" lon="2.3373554">
        <ele>828.35998535</ele>
        <time>2021-03-30T12:17:25Z</time>
      </trkpt>
      <trkpt lat="42.2532035" lon="2.3372967">
        <ele>828.20001221</ele>
        <time>2021-03-30T12:17:26Z</time>
      </trkpt>
      <trkpt lat="42.2532066" lon="2.3372407">
        <ele>828.04998779</ele>
        <time>2021-03-30T12:17:27Z</time>
      </trkpt>
      <trkpt lat="42.253208" lon="2.3371674">
        <ele>827.91998291</ele>
        <time>2021-03-30T12:17:28Z</time>
      </trkpt>
      <trkpt lat="42.2531986" lon="2.3371085">
        <ele>827.75</ele>
        <time>2021-03-30T12:17:29Z</time>
      </trkpt>
      <trkpt lat="42.2531887" lon="2.3370442">
        <ele>827.5300293</ele>
        <time>2021-03-30T12:17:30Z</time>
      </trkpt>
      <trkpt lat="42.2531831" lon="2.3369751">
        <ele>827.28997803</ele>
        <time>2021-03-30T12:17:31Z</time>
      </trkpt>
      <trkpt lat="42.253173" lon="2.3369072">
        <ele>827.01000977</ele>
        <time>2021-03-30T12:17:32Z</time>
      </trkpt>
      <trkpt lat="42.2531609" lon="2.3368481">
        <ele>826.75</ele>
        <time>2021-03-30T12:17:33Z</time>
      </trkpt>
      <trkpt lat="42.2531411" lon="2.3367882">
        <ele>826.53997803</ele>
        <time>2021-03-30T12:17:34Z</time>
      </trkpt>
      <trkpt lat="42.2531216" lon="2.3367192">
        <ele>826.39001465</ele>
        <time>2021-03-30T12:17:35Z</time>
      </trkpt>
      <trkpt lat="42.2531111" lon="2.3366697">
        <ele>826.29998779</ele>
        <time>2021-03-30T12:17:36Z</time>
      </trkpt>
      <trkpt lat="42.2530985" lon="2.3366155">
        <ele>826.23999023</ele>
        <time>2021-03-30T12:17:37Z</time>
      </trkpt>
      <trkpt lat="42.2530874" lon="2.3365597">
        <ele>826.20001221</ele>
        <time>2021-03-30T12:17:38Z</time>
      </trkpt>
      <trkpt lat="42.2530804" lon="2.3365053">
        <ele>826.17999268</ele>
        <time>2021-03-30T12:17:39Z</time>
      </trkpt>
      <trkpt lat="42.2530726" lon="2.3364544">
        <ele>826.16998291</ele>
        <time>2021-03-30T12:17:40Z</time>
      </trkpt>
      <trkpt lat="42.2530594" lon="2.3364054">
        <ele>826.17999268</ele>
        <time>2021-03-30T12:17:41Z</time>
      </trkpt>
      <trkpt lat="42.2530494" lon="2.3363431">
        <ele>826.22998047</ele>
        <time>2021-03-30T12:17:42Z</time>
      </trkpt>
      <trkpt lat="42.2530411" lon="2.3362837">
        <ele>826.2199707</ele>
        <time>2021-03-30T12:17:43Z</time>
      </trkpt>
      <trkpt lat="42.2530254" lon="2.3362177">
        <ele>826.09002686</ele>
        <time>2021-03-30T12:17:44Z</time>
      </trkpt>
      <trkpt lat="42.2530126" lon="2.3361496">
        <ele>825.86999512</ele>
        <time>2021-03-30T12:17:45Z</time>
      </trkpt>
      <trkpt lat="42.2530007" lon="2.336093">
        <ele>825.55999756</ele>
        <time>2021-03-30T12:17:46Z</time>
      </trkpt>
      <trkpt lat="42.2529846" lon="2.3360275">
        <ele>825.23999023</ele>
        <time>2021-03-30T12:17:47Z</time>
      </trkpt>
      <trkpt lat="42.252966" lon="2.3359778">
        <ele>824.97998047</ele>
        <time>2021-03-30T12:17:48Z</time>
      </trkpt>
      <trkpt lat="42.2529488" lon="2.3359198">
        <ele>824.78997803</ele>
        <time>2021-03-30T12:17:49Z</time>
      </trkpt>
      <trkpt lat="42.2529405" lon="2.335858">
        <ele>824.65002441</ele>
        <time>2021-03-30T12:17:50Z</time>
      </trkpt>
      <trkpt lat="42.2529253" lon="2.3358072">
        <ele>824.54998779</ele>
        <time>2021-03-30T12:17:51Z</time>
      </trkpt>
      <trkpt lat="42.2529038" lon="2.3357558">
        <ele>824.48999023</ele>
        <time>2021-03-30T12:17:52Z</time>
      </trkpt>
      <trkpt lat="42.2528936" lon="2.3356996">
        <ele>824.4699707</ele>
        <time>2021-03-30T12:17:53Z</time>
      </trkpt>
      <trkpt lat="42.2528744" lon="2.33564">
        <ele>824.48999023</ele>
        <time>2021-03-30T12:17:54Z</time>
      </trkpt>
      <trkpt lat="42.2528522" lon="2.3355984">
        <ele>824.53997803</ele>
        <time>2021-03-30T12:17:55Z</time>
      </trkpt>
      <trkpt lat="42.2528559" lon="2.3355496">
        <ele>824.63000488</ele>
        <time>2021-03-30T12:17:56Z</time>
      </trkpt>
      <trkpt lat="42.2528704" lon="2.3354971">
        <ele>824.70001221</ele>
        <time>2021-03-30T12:17:57Z</time>
      </trkpt>
      <trkpt lat="42.252895" lon="2.3354651">
        <ele>824.63000488</ele>
        <time>2021-03-30T12:17:58Z</time>
      </trkpt>
      <trkpt lat="42.2529308" lon="2.3354406">
        <ele>824.45001221</ele>
        <time>2021-03-30T12:17:59Z</time>
      </trkpt>
      <trkpt lat="42.2529601" lon="2.3354265">
        <ele>824.15997314</ele>
        <time>2021-03-30T12:18:00Z</time>
      </trkpt>
      <trkpt lat="42.2529861" lon="2.3354183">
        <ele>823.80999756</ele>
        <time>2021-03-30T12:18:01Z</time>
      </trkpt>
      <trkpt lat="42.2530161" lon="2.335404">
        <ele>823.42999268</ele>
        <time>2021-03-30T12:18:02Z</time>
      </trkpt>
      <trkpt lat="42.2530482" lon="2.3353865">
        <ele>822.98999023</ele>
        <time>2021-03-30T12:18:03Z</time>
      </trkpt>
      <trkpt lat="42.2530828" lon="2.3353883">
        <ele>822.5</ele>
        <time>2021-03-30T12:18:04Z</time>
      </trkpt>
      <trkpt lat="42.2531088" lon="2.3353744">
        <ele>822.0300293</ele>
        <time>2021-03-30T12:18:05Z</time>
      </trkpt>
      <trkpt lat="42.2531377" lon="2.3353662">
        <ele>821.54998779</ele>
        <time>2021-03-30T12:18:06Z</time>
      </trkpt>
      <trkpt lat="42.2531676" lon="2.335351">
        <ele>821.09997559</ele>
        <time>2021-03-30T12:18:07Z</time>
      </trkpt>
      <trkpt lat="42.2531976" lon="2.335333">
        <ele>820.65997314</ele>
        <time>2021-03-30T12:18:08Z</time>
      </trkpt>
      <trkpt lat="42.2532284" lon="2.3353135">
        <ele>820.2199707</ele>
        <time>2021-03-30T12:18:09Z</time>
      </trkpt>
      <trkpt lat="42.2532532" lon="2.3352916">
        <ele>819.80999756</ele>
        <time>2021-03-30T12:18:10Z</time>
      </trkpt>
      <trkpt lat="42.2532816" lon="2.3352748">
        <ele>819.41998291</ele>
        <time>2021-03-30T12:18:11Z</time>
      </trkpt>
      <trkpt lat="42.2533129" lon="2.3352604">
        <ele>819.05999756</ele>
        <time>2021-03-30T12:18:12Z</time>
      </trkpt>
      <trkpt lat="42.253341" lon="2.3352463">
        <ele>818.73999023</ele>
        <time>2021-03-30T12:18:13Z</time>
      </trkpt>
      <trkpt lat="42.2533653" lon="2.3352302">
        <ele>818.48999023</ele>
        <time>2021-03-30T12:18:14Z</time>
      </trkpt>
      <trkpt lat="42.2533872" lon="2.3352178">
        <ele>818.35998535</ele>
        <time>2021-03-30T12:18:15Z</time>
      </trkpt>
      <trkpt lat="42.2534047" lon="2.335207">
        <ele>818.34997559</ele>
        <time>2021-03-30T12:18:16Z</time>
      </trkpt>
      <trkpt lat="42.2534223" lon="2.3351626">
        <ele>818.44000244</ele>
        <time>2021-03-30T12:18:17Z</time>
      </trkpt>
      <trkpt lat="42.2534241" lon="2.3351321">
        <ele>818.61999512</ele>
        <time>2021-03-30T12:18:18Z</time>
      </trkpt>
      <trkpt lat="42.253431" lon="2.3350948">
        <ele>818.82000732</ele>
        <time>2021-03-30T12:18:19Z</time>
      </trkpt>
      <trkpt lat="42.2534286" lon="2.33507">
        <ele>819.05999756</ele>
        <time>2021-03-30T12:18:20Z</time>
      </trkpt>
      <trkpt lat="42.2534326" lon="2.3350396">
        <ele>819.28997803</ele>
        <time>2021-03-30T12:18:21Z</time>
      </trkpt>
      <trkpt lat="42.253426" lon="2.3350093">
        <ele>819.5300293</ele>
        <time>2021-03-30T12:18:22Z</time>
      </trkpt>
      <trkpt lat="42.2534191" lon="2.334981">
        <ele>819.73999023</ele>
        <time>2021-03-30T12:18:23Z</time>
      </trkpt>
      <trkpt lat="42.2534312" lon="2.3349412">
        <ele>819.91998291</ele>
        <time>2021-03-30T12:18:24Z</time>
      </trkpt>
      <trkpt lat="42.2534362" lon="2.3349033">
        <ele>820.22998047</ele>
        <time>2021-03-30T12:18:25Z</time>
      </trkpt>
      <trkpt lat="42.2534322" lon="2.3348667">
        <ele>820.61999512</ele>
        <time>2021-03-30T12:18:26Z</time>
      </trkpt>
      <trkpt lat="42.253426" lon="2.3348208">
        <ele>821.02001953</ele>
        <time>2021-03-30T12:18:27Z</time>
      </trkpt>
      <trkpt lat="42.2534132" lon="2.3347739">
        <ele>821.44000244</ele>
        <time>2021-03-30T12:18:28Z</time>
      </trkpt>
      <trkpt lat="42.2534036" lon="2.3347262">
        <ele>821.84002686</ele>
        <time>2021-03-30T12:18:29Z</time>
      </trkpt>
      <trkpt lat="42.2533927" lon="2.3346864">
        <ele>822.22998047</ele>
        <time>2021-03-30T12:18:30Z</time>
      </trkpt>
      <trkpt lat="42.2533917" lon="2.3346473">
        <ele>822.58001709</ele>
        <time>2021-03-30T12:18:31Z</time>
      </trkpt>
      <trkpt lat="42.2533811" lon="2.3346127">
        <ele>822.94000244</ele>
        <time>2021-03-30T12:18:32Z</time>
      </trkpt>
      <trkpt lat="42.2533651" lon="2.3345898">
        <ele>823.27001953</ele>
        <time>2021-03-30T12:18:33Z</time>
      </trkpt>
      <trkpt lat="42.2533515" lon="2.3345586">
        <ele>823.5300293</ele>
        <time>2021-03-30T12:18:34Z</time>
      </trkpt>
      <trkpt lat="42.2533397" lon="2.3345318">
        <ele>823.73999023</ele>
        <time>2021-03-30T12:18:35Z</time>
      </trkpt>
      <trkpt lat="42.2533242" lon="2.3344899">
        <ele>823.92999268</ele>
        <time>2021-03-30T12:18:36Z</time>
      </trkpt>
      <trkpt lat="42.2533153" lon="2.3344525">
        <ele>824.10998535</ele>
        <time>2021-03-30T12:18:37Z</time>
      </trkpt>
      <trkpt lat="42.2533035" lon="2.3344159">
        <ele>824.32000732</ele>
        <time>2021-03-30T12:18:38Z</time>
      </trkpt>
      <trkpt lat="42.2533025" lon="2.334374">
        <ele>824.4699707</ele>
        <time>2021-03-30T12:18:39Z</time>
      </trkpt>
      <trkpt lat="42.2533067" lon="2.3343276">
        <ele>824.59997559</ele>
        <time>2021-03-30T12:18:40Z</time>
      </trkpt>
      <trkpt lat="42.2533063" lon="2.3343041">
        <ele>824.72998047</ele>
        <time>2021-03-30T12:18:41Z</time>
      </trkpt>
      <trkpt lat="42.253311" lon="2.3342738">
        <ele>824.84997559</ele>
        <time>2021-03-30T12:18:42Z</time>
      </trkpt>
      <trkpt lat="42.2533189" lon="2.3342461">
        <ele>824.9699707</ele>
        <time>2021-03-30T12:18:43Z</time>
      </trkpt>
      <trkpt lat="42.2533316" lon="2.3342098">
        <ele>825.10998535</ele>
        <time>2021-03-30T12:18:44Z</time>
      </trkpt>
      <trkpt lat="42.2533431" lon="2.3341773">
        <ele>825.28997803</ele>
        <time>2021-03-30T12:18:45Z</time>
      </trkpt>
      <trkpt lat="42.2533567" lon="2.3341506">
        <ele>825.48999023</ele>
        <time>2021-03-30T12:18:46Z</time>
      </trkpt>
      <trkpt lat="42.253367" lon="2.3341259">
        <ele>825.72998047</ele>
        <time>2021-03-30T12:18:47Z</time>
      </trkpt>
      <trkpt lat="42.253378" lon="2.3341143">
        <ele>825.98999023</ele>
        <time>2021-03-30T12:18:48Z</time>
      </trkpt>
      <trkpt lat="42.2533851" lon="2.3341058">
        <ele>826.27001953</ele>
        <time>2021-03-30T12:18:49Z</time>
      </trkpt>
      <trkpt lat="42.2534006" lon="2.3340999">
        <ele>826.54998779</ele>
        <time>2021-03-30T12:18:50Z</time>
      </trkpt>
      <trkpt lat="42.2534162" lon="2.3340947">
        <ele>826.85998535</ele>
        <time>2021-03-30T12:18:51Z</time>
      </trkpt>
      <trkpt lat="42.2534337" lon="2.3340811">
        <ele>827.20001221</ele>
        <time>2021-03-30T12:18:52Z</time>
      </trkpt>
      <trkpt lat="42.2534557" lon="2.3340634">
        <ele>827.57000732</ele>
        <time>2021-03-30T12:18:53Z</time>
      </trkpt>
      <trkpt lat="42.2534733" lon="2.3340452">
        <ele>828</ele>
        <time>2021-03-30T12:18:54Z</time>
      </trkpt>
      <trkpt lat="42.2534861" lon="2.3340174">
        <ele>828.46002197</ele>
        <time>2021-03-30T12:18:55Z</time>
      </trkpt>
      <trkpt lat="42.2535003" lon="2.3339902">
        <ele>828.91998291</ele>
        <time>2021-03-30T12:18:56Z</time>
      </trkpt>
      <trkpt lat="42.253505" lon="2.333957">
        <ele>829.39001465</ele>
        <time>2021-03-30T12:18:57Z</time>
      </trkpt>
      <trkpt lat="42.2534982" lon="2.3339352">
        <ele>829.83001709</ele>
        <time>2021-03-30T12:18:58Z</time>
      </trkpt>
      <trkpt lat="42.253477" lon="2.3339208">
        <ele>830.21002197</ele>
        <time>2021-03-30T12:18:59Z</time>
      </trkpt>
      <trkpt lat="42.2534481" lon="2.3339136">
        <ele>830.46002197</ele>
        <time>2021-03-30T12:19:00Z</time>
      </trkpt>
      <trkpt lat="42.2534217" lon="2.3339151">
        <ele>830.55999756</ele>
        <time>2021-03-30T12:19:01Z</time>
      </trkpt>
      <trkpt lat="42.2533943" lon="2.3339136">
        <ele>830.54998779</ele>
        <time>2021-03-30T12:19:02Z</time>
      </trkpt>
      <trkpt lat="42.2533683" lon="2.3339078">
        <ele>830.41998291</ele>
        <time>2021-03-30T12:19:03Z</time>
      </trkpt>
      <trkpt lat="42.2533512" lon="2.3339074">
        <ele>830.20001221</ele>
        <time>2021-03-30T12:19:04Z</time>
      </trkpt>
      <trkpt lat="42.2533277" lon="2.3339059">
        <ele>829.91998291</ele>
        <time>2021-03-30T12:19:05Z</time>
      </trkpt>
      <trkpt lat="42.2532944" lon="2.3338699">
        <ele>829.58001709</ele>
        <time>2021-03-30T12:19:06Z</time>
      </trkpt>
      <trkpt lat="42.2532613" lon="2.3338667">
        <ele>829.21002197</ele>
        <time>2021-03-30T12:19:07Z</time>
      </trkpt>
      <trkpt lat="42.2532403" lon="2.3338503">
        <ele>828.75</ele>
        <time>2021-03-30T12:19:08Z</time>
      </trkpt>
      <trkpt lat="42.2532143" lon="2.3338377">
        <ele>828.29998779</ele>
        <time>2021-03-30T12:19:09Z</time>
      </trkpt>
      <trkpt lat="42.2531847" lon="2.3338099">
        <ele>827.82000732</ele>
        <time>2021-03-30T12:19:10Z</time>
      </trkpt>
      <trkpt lat="42.2531596" lon="2.3337852">
        <ele>827.34997559</ele>
        <time>2021-03-30T12:19:11Z</time>
      </trkpt>
      <trkpt lat="42.253141" lon="2.3337308">
        <ele>826.86999512</ele>
        <time>2021-03-30T12:19:12Z</time>
      </trkpt>
      <trkpt lat="42.2531199" lon="2.3336669">
        <ele>826.48999023</ele>
        <time>2021-03-30T12:19:13Z</time>
      </trkpt>
      <trkpt lat="42.2530999" lon="2.3335882">
        <ele>826.21002197</ele>
        <time>2021-03-30T12:19:14Z</time>
      </trkpt>
      <trkpt lat="42.2530895" lon="2.333489">
        <ele>826.04998779</ele>
        <time>2021-03-30T12:19:15Z</time>
      </trkpt>
      <trkpt lat="42.2530694" lon="2.3334205">
        <ele>826.04998779</ele>
        <time>2021-03-30T12:19:16Z</time>
      </trkpt>
      <trkpt lat="42.2530438" lon="2.3333549">
        <ele>826.13000488</ele>
        <time>2021-03-30T12:19:17Z</time>
      </trkpt>
      <trkpt lat="42.2530341" lon="2.3332825">
        <ele>826.25</ele>
        <time>2021-03-30T12:19:18Z</time>
      </trkpt>
      <trkpt lat="42.2530208" lon="2.3332205">
        <ele>826.84002686</ele>
        <time>2021-03-30T12:19:19Z</time>
      </trkpt>
      <trkpt lat="42.2530126" lon="2.3331603">
        <ele>827.30999756</ele>
        <time>2021-03-30T12:19:20Z</time>
      </trkpt>
      <trkpt lat="42.2530121" lon="2.3331008">
        <ele>827.66998291</ele>
        <time>2021-03-30T12:19:21Z</time>
      </trkpt>
      <trkpt lat="42.2530126" lon="2.3330396">
        <ele>828</ele>
        <time>2021-03-30T12:19:22Z</time>
      </trkpt>
      <trkpt lat="42.2530093" lon="2.3329816">
        <ele>828.34002686</ele>
        <time>2021-03-30T12:19:23Z</time>
      </trkpt>
      <trkpt lat="42.2530061" lon="2.3329184">
        <ele>828.73999023</ele>
        <time>2021-03-30T12:19:24Z</time>
      </trkpt>
      <trkpt lat="42.2530146" lon="2.3328814">
        <ele>828.86999512</ele>
        <time>2021-03-30T12:19:25Z</time>
      </trkpt>
      <trkpt lat="42.2530186" lon="2.3328401">
        <ele>829.45001221</ele>
        <time>2021-03-30T12:19:26Z</time>
      </trkpt>
      <trkpt lat="42.253021" lon="2.3328077">
        <ele>830.09002686</ele>
        <time>2021-03-30T12:19:27Z</time>
      </trkpt>
      <trkpt lat="42.253018" lon="2.3327905">
        <ele>830.72998047</ele>
        <time>2021-03-30T12:19:28Z</time>
      </trkpt>
      <trkpt lat="42.2530073" lon="2.3327718">
        <ele>831.33001709</ele>
        <time>2021-03-30T12:19:29Z</time>
      </trkpt>
      <trkpt lat="42.2530028" lon="2.3327384">
        <ele>831.84002686</ele>
        <time>2021-03-30T12:19:30Z</time>
      </trkpt>
      <trkpt lat="42.2529855" lon="2.3326938">
        <ele>832.34997559</ele>
        <time>2021-03-30T12:19:31Z</time>
      </trkpt>
      <trkpt lat="42.2529435" lon="2.3326445">
        <ele>832.80999756</ele>
        <time>2021-03-30T12:19:32Z</time>
      </trkpt>
      <trkpt lat="42.2529023" lon="2.3325887">
        <ele>833.15997314</ele>
        <time>2021-03-30T12:19:33Z</time>
      </trkpt>
      <trkpt lat="42.2528672" lon="2.3325296">
        <ele>833.40997314</ele>
        <time>2021-03-30T12:19:34Z</time>
      </trkpt>
      <trkpt lat="42.2528289" lon="2.3324685">
        <ele>833.59997559</ele>
        <time>2021-03-30T12:19:35Z</time>
      </trkpt>
      <trkpt lat="42.2527909" lon="2.3324058">
        <ele>833.73999023</ele>
        <time>2021-03-30T12:19:36Z</time>
      </trkpt>
      <trkpt lat="42.2527523" lon="2.3323551">
        <ele>833.84002686</ele>
        <time>2021-03-30T12:19:37Z</time>
      </trkpt>
      <trkpt lat="42.2527193" lon="2.3323017">
        <ele>833.91998291</ele>
        <time>2021-03-30T12:19:38Z</time>
      </trkpt>
      <trkpt lat="42.2526801" lon="2.3322435">
        <ele>834.0300293</ele>
        <time>2021-03-30T12:19:39Z</time>
      </trkpt>
      <trkpt lat="42.2526368" lon="2.3321712">
        <ele>834.16998291</ele>
        <time>2021-03-30T12:19:40Z</time>
      </trkpt>
      <trkpt lat="42.2526001" lon="2.3321113">
        <ele>834.34997559</ele>
        <time>2021-03-30T12:19:41Z</time>
      </trkpt>
      <trkpt lat="42.252573" lon="2.3320642">
        <ele>834.55999756</ele>
        <time>2021-03-30T12:19:42Z</time>
      </trkpt>
      <trkpt lat="42.2525489" lon="2.3320244">
        <ele>834.78997803</ele>
        <time>2021-03-30T12:19:43Z</time>
      </trkpt>
      <trkpt lat="42.2525198" lon="2.3319806">
        <ele>835.0300293</ele>
        <time>2021-03-30T12:19:44Z</time>
      </trkpt>
      <trkpt lat="42.2524951" lon="2.3319448">
        <ele>835.2800293</ele>
        <time>2021-03-30T12:19:45Z</time>
      </trkpt>
      <trkpt lat="42.2524661" lon="2.3318933">
        <ele>835.51000977</ele>
        <time>2021-03-30T12:19:46Z</time>
      </trkpt>
      <trkpt lat="42.2524429" lon="2.3318289">
        <ele>835.54998779</ele>
        <time>2021-03-30T12:19:47Z</time>
      </trkpt>
      <trkpt lat="42.2524175" lon="2.3317701">
        <ele>835.59002686</ele>
        <time>2021-03-30T12:19:48Z</time>
      </trkpt>
      <trkpt lat="42.2523808" lon="2.3317097">
        <ele>835.58001709</ele>
        <time>2021-03-30T12:19:49Z</time>
      </trkpt>
      <trkpt lat="42.2523454" lon="2.331659">
        <ele>835.52001953</ele>
        <time>2021-03-30T12:19:50Z</time>
      </trkpt>
      <trkpt lat="42.2523101" lon="2.3316066">
        <ele>835.44000244</ele>
        <time>2021-03-30T12:19:51Z</time>
      </trkpt>
      <trkpt lat="42.2522703" lon="2.3315533">
        <ele>835.32000732</ele>
        <time>2021-03-30T12:19:52Z</time>
      </trkpt>
      <trkpt lat="42.2522348" lon="2.3314949">
        <ele>835.13000488</ele>
        <time>2021-03-30T12:19:53Z</time>
      </trkpt>
      <trkpt lat="42.2522041" lon="2.3314319">
        <ele>834.86999512</ele>
        <time>2021-03-30T12:19:54Z</time>
      </trkpt>
      <trkpt lat="42.2521677" lon="2.3313814">
        <ele>834.55999756</ele>
        <time>2021-03-30T12:19:55Z</time>
      </trkpt>
      <trkpt lat="42.2521318" lon="2.3313327">
        <ele>834.2199707</ele>
        <time>2021-03-30T12:19:56Z</time>
      </trkpt>
      <trkpt lat="42.2520952" lon="2.331277">
        <ele>833.92999268</ele>
        <time>2021-03-30T12:19:57Z</time>
      </trkpt>
      <trkpt lat="42.2520639" lon="2.3312158">
        <ele>833.71002197</ele>
        <time>2021-03-30T12:19:58Z</time>
      </trkpt>
      <trkpt lat="42.2520341" lon="2.3311712">
        <ele>833.58001709</ele>
        <time>2021-03-30T12:19:59Z</time>
      </trkpt>
      <trkpt lat="42.2519985" lon="2.331121">
        <ele>833.5</ele>
        <time>2021-03-30T12:20:00Z</time>
      </trkpt>
      <trkpt lat="42.2519731" lon="2.3310705">
        <ele>833.45001221</ele>
        <time>2021-03-30T12:20:01Z</time>
      </trkpt>
      <trkpt lat="42.2519504" lon="2.33102">
        <ele>833.39001465</ele>
        <time>2021-03-30T12:20:02Z</time>
      </trkpt>
      <trkpt lat="42.2519258" lon="2.330959">
        <ele>833.28997803</ele>
        <time>2021-03-30T12:20:03Z</time>
      </trkpt>
      <trkpt lat="42.2518943" lon="2.3309002">
        <ele>833.15002441</ele>
        <time>2021-03-30T12:20:04Z</time>
      </trkpt>
      <trkpt lat="42.2518708" lon="2.3308432">
        <ele>832.96002197</ele>
        <time>2021-03-30T12:20:05Z</time>
      </trkpt>
      <trkpt lat="42.2518465" lon="2.3307931">
        <ele>832.72998047</ele>
        <time>2021-03-30T12:20:06Z</time>
      </trkpt>
      <trkpt lat="42.2518215" lon="2.3307287">
        <ele>832.5300293</ele>
        <time>2021-03-30T12:20:07Z</time>
      </trkpt>
      <trkpt lat="42.2517928" lon="2.3306728">
        <ele>832.36999512</ele>
        <time>2021-03-30T12:20:08Z</time>
      </trkpt>
      <trkpt lat="42.2517633" lon="2.3306094">
        <ele>832.19000244</ele>
        <time>2021-03-30T12:20:09Z</time>
      </trkpt>
      <trkpt lat="42.251733" lon="2.3305557">
        <ele>831.98999023</ele>
        <time>2021-03-30T12:20:10Z</time>
      </trkpt>
      <trkpt lat="42.2517061" lon="2.3305129">
        <ele>831.72998047</ele>
        <time>2021-03-30T12:20:11Z</time>
      </trkpt>
      <trkpt lat="42.2516749" lon="2.330488">
        <ele>831.46002197</ele>
        <time>2021-03-30T12:20:12Z</time>
      </trkpt>
      <trkpt lat="42.2516373" lon="2.3304567">
        <ele>831.15002441</ele>
        <time>2021-03-30T12:20:13Z</time>
      </trkpt>
      <trkpt lat="42.2515954" lon="2.3304206">
        <ele>830.86999512</ele>
        <time>2021-03-30T12:20:14Z</time>
      </trkpt>
      <trkpt lat="42.2515502" lon="2.3303715">
        <ele>830.65002441</ele>
        <time>2021-03-30T12:20:15Z</time>
      </trkpt>
      <trkpt lat="42.2515016" lon="2.3303334">
        <ele>830.46002197</ele>
        <time>2021-03-30T12:20:16Z</time>
      </trkpt>
      <trkpt lat="42.2514553" lon="2.3302989">
        <ele>830.27001953</ele>
        <time>2021-03-30T12:20:17Z</time>
      </trkpt>
      <trkpt lat="42.2514082" lon="2.3302581">
        <ele>830.03997803</ele>
        <time>2021-03-30T12:20:18Z</time>
      </trkpt>
      <trkpt lat="42.2513615" lon="2.3302164">
        <ele>829.78997803</ele>
        <time>2021-03-30T12:20:19Z</time>
      </trkpt>
      <trkpt lat="42.2513034" lon="2.3301612">
        <ele>829.53997803</ele>
        <time>2021-03-30T12:20:20Z</time>
      </trkpt>
      <trkpt lat="42.251255" lon="2.330115">
        <ele>829.32000732</ele>
        <time>2021-03-30T12:20:21Z</time>
      </trkpt>
      <trkpt lat="42.251205" lon="2.3300772">
        <ele>829.11999512</ele>
        <time>2021-03-30T12:20:22Z</time>
      </trkpt>
      <trkpt lat="42.2511637" lon="2.3300419">
        <ele>828.90997314</ele>
        <time>2021-03-30T12:20:23Z</time>
      </trkpt>
      <trkpt lat="42.2511296" lon="2.3300021">
        <ele>828.7199707</ele>
        <time>2021-03-30T12:20:24Z</time>
      </trkpt>
      <trkpt lat="42.2511" lon="2.3299569">
        <ele>828.54998779</ele>
        <time>2021-03-30T12:20:25Z</time>
      </trkpt>
      <trkpt lat="42.251069" lon="2.3299048">
        <ele>828.34997559</ele>
        <time>2021-03-30T12:20:26Z</time>
      </trkpt>
      <trkpt lat="42.2510565" lon="2.3298408">
        <ele>828.10998535</ele>
        <time>2021-03-30T12:20:27Z</time>
      </trkpt>
      <trkpt lat="42.2510674" lon="2.3297758">
        <ele>827.86999512</ele>
        <time>2021-03-30T12:20:28Z</time>
      </trkpt>
      <trkpt lat="42.2510887" lon="2.3297207">
        <ele>827.66998291</ele>
        <time>2021-03-30T12:20:29Z</time>
      </trkpt>
      <trkpt lat="42.2510942" lon="2.32966">
        <ele>827.5300293</ele>
        <time>2021-03-30T12:20:30Z</time>
      </trkpt>
      <trkpt lat="42.2510658" lon="2.3296144">
        <ele>827.42999268</ele>
        <time>2021-03-30T12:20:31Z</time>
      </trkpt>
      <trkpt lat="42.2510311" lon="2.3295894">
        <ele>827.30999756</ele>
        <time>2021-03-30T12:20:32Z</time>
      </trkpt>
      <trkpt lat="42.2510061" lon="2.3295921">
        <ele>827.17999268</ele>
        <time>2021-03-30T12:20:33Z</time>
      </trkpt>
      <trkpt lat="42.2509808" lon="2.3296042">
        <ele>827.03997803</ele>
        <time>2021-03-30T12:20:34Z</time>
      </trkpt>
      <trkpt lat="42.250953" lon="2.3296208">
        <ele>826.86999512</ele>
        <time>2021-03-30T12:20:35Z</time>
      </trkpt>
      <trkpt lat="42.2509215" lon="2.329638">
        <ele>826.65997314</ele>
        <time>2021-03-30T12:20:36Z</time>
      </trkpt>
      <trkpt lat="42.2508924" lon="2.3296569">
        <ele>826.40997314</ele>
        <time>2021-03-30T12:20:37Z</time>
      </trkpt>
      <trkpt lat="42.2508574" lon="2.3296794">
        <ele>826.11999512</ele>
        <time>2021-03-30T12:20:38Z</time>
      </trkpt>
      <trkpt lat="42.2508215" lon="2.3296966">
        <ele>825.76000977</ele>
        <time>2021-03-30T12:20:39Z</time>
      </trkpt>
      <trkpt lat="42.2507782" lon="2.3296996">
        <ele>825.35998535</ele>
        <time>2021-03-30T12:20:40Z</time>
      </trkpt>
      <trkpt lat="42.250737" lon="2.329712">
        <ele>824.98999023</ele>
        <time>2021-03-30T12:20:41Z</time>
      </trkpt>
      <trkpt lat="42.2507108" lon="2.3297075">
        <ele>824.61999512</ele>
        <time>2021-03-30T12:20:42Z</time>
      </trkpt>
      <trkpt lat="42.2506806" lon="2.3296931">
        <ele>824.29998779</ele>
        <time>2021-03-30T12:20:43Z</time>
      </trkpt>
      <trkpt lat="42.2506522" lon="2.3296692">
        <ele>824.02001953</ele>
        <time>2021-03-30T12:20:44Z</time>
      </trkpt>
      <trkpt lat="42.250618" lon="2.3296404">
        <ele>823.78997803</ele>
        <time>2021-03-30T12:20:45Z</time>
      </trkpt>
      <trkpt lat="42.2505871" lon="2.3296157">
        <ele>823.58001709</ele>
        <time>2021-03-30T12:20:46Z</time>
      </trkpt>
      <trkpt lat="42.2505726" lon="2.3295717">
        <ele>823.38000488</ele>
        <time>2021-03-30T12:20:47Z</time>
      </trkpt>
      <trkpt lat="42.2505611" lon="2.3295233">
        <ele>823.19000244</ele>
        <time>2021-03-30T12:20:48Z</time>
      </trkpt>
      <trkpt lat="42.2505558" lon="2.329478">
        <ele>823.02001953</ele>
        <time>2021-03-30T12:20:49Z</time>
      </trkpt>
      <trkpt lat="42.2505487" lon="2.329427">
        <ele>822.84997559</ele>
        <time>2021-03-30T12:20:50Z</time>
      </trkpt>
      <trkpt lat="42.2505366" lon="2.3293715">
        <ele>822.73999023</ele>
        <time>2021-03-30T12:20:51Z</time>
      </trkpt>
      <trkpt lat="42.2505257" lon="2.3293283">
        <ele>822.72998047</ele>
        <time>2021-03-30T12:20:52Z</time>
      </trkpt>
      <trkpt lat="42.2505154" lon="2.3292894">
        <ele>822.80999756</ele>
        <time>2021-03-30T12:20:53Z</time>
      </trkpt>
      <trkpt lat="42.250507" lon="2.3292464">
        <ele>822.92999268</ele>
        <time>2021-03-30T12:20:54Z</time>
      </trkpt>
      <trkpt lat="42.2505077" lon="2.3292106">
        <ele>823.10998535</ele>
        <time>2021-03-30T12:20:55Z</time>
      </trkpt>
      <trkpt lat="42.2505073" lon="2.329169">
        <ele>823.33001709</ele>
        <time>2021-03-30T12:20:56Z</time>
      </trkpt>
      <trkpt lat="42.2504994" lon="2.329126">
        <ele>823.59997559</ele>
        <time>2021-03-30T12:20:57Z</time>
      </trkpt>
      <trkpt lat="42.2504811" lon="2.3290872">
        <ele>823.84002686</ele>
        <time>2021-03-30T12:20:58Z</time>
      </trkpt>
      <trkpt lat="42.250465" lon="2.3290448">
        <ele>824.01000977</ele>
        <time>2021-03-30T12:20:59Z</time>
      </trkpt>
      <trkpt lat="42.2504434" lon="2.3289973">
        <ele>824.13000488</ele>
        <time>2021-03-30T12:21:00Z</time>
      </trkpt>
      <trkpt lat="42.2504234" lon="2.3289538">
        <ele>824.20001221</ele>
        <time>2021-03-30T12:21:01Z</time>
      </trkpt>
      <trkpt lat="42.2504016" lon="2.3289031">
        <ele>824.2199707</ele>
        <time>2021-03-30T12:21:02Z</time>
      </trkpt>
      <trkpt lat="42.250376" lon="2.328857">
        <ele>824.17999268</ele>
        <time>2021-03-30T12:21:03Z</time>
      </trkpt>
      <trkpt lat="42.2503469" lon="2.3288136">
        <ele>824.13000488</ele>
        <time>2021-03-30T12:21:04Z</time>
      </trkpt>
      <trkpt lat="42.2503256" lon="2.3287744">
        <ele>824.0300293</ele>
        <time>2021-03-30T12:21:05Z</time>
      </trkpt>
      <trkpt lat="42.2502995" lon="2.3287299">
        <ele>823.90002441</ele>
        <time>2021-03-30T12:21:06Z</time>
      </trkpt>
      <trkpt lat="42.250274" lon="2.3286863">
        <ele>823.7199707</ele>
        <time>2021-03-30T12:21:07Z</time>
      </trkpt>
      <trkpt lat="42.2502457" lon="2.3286424">
        <ele>823.47998047</ele>
        <time>2021-03-30T12:21:08Z</time>
      </trkpt>
      <trkpt lat="42.2502207" lon="2.3285909">
        <ele>823.27001953</ele>
        <time>2021-03-30T12:21:09Z</time>
      </trkpt>
      <trkpt lat="42.2501963" lon="2.3285379">
        <ele>823.10998535</ele>
        <time>2021-03-30T12:21:10Z</time>
      </trkpt>
      <trkpt lat="42.2501702" lon="2.328495">
        <ele>823.0300293</ele>
        <time>2021-03-30T12:21:11Z</time>
      </trkpt>
      <trkpt lat="42.2501439" lon="2.3284597">
        <ele>823.01000977</ele>
        <time>2021-03-30T12:21:12Z</time>
      </trkpt>
      <trkpt lat="42.2501279" lon="2.3284295">
        <ele>823.01000977</ele>
        <time>2021-03-30T12:21:13Z</time>
      </trkpt>
      <trkpt lat="42.2501125" lon="2.3283914">
        <ele>823.01000977</ele>
        <time>2021-03-30T12:21:14Z</time>
      </trkpt>
      <trkpt lat="42.2500912" lon="2.3283441">
        <ele>823.0300293</ele>
        <time>2021-03-30T12:21:15Z</time>
      </trkpt>
      <trkpt lat="42.2500689" lon="2.3282968">
        <ele>823.04998779</ele>
        <time>2021-03-30T12:21:16Z</time>
      </trkpt>
      <trkpt lat="42.2500461" lon="2.3282555">
        <ele>823.04998779</ele>
        <time>2021-03-30T12:21:17Z</time>
      </trkpt>
      <trkpt lat="42.250019" lon="2.3282018">
        <ele>823</ele>
        <time>2021-03-30T12:21:18Z</time>
      </trkpt>
      <trkpt lat="42.2499937" lon="2.3281484">
        <ele>822.90997314</ele>
        <time>2021-03-30T12:21:19Z</time>
      </trkpt>
      <trkpt lat="42.2499815" lon="2.328093">
        <ele>822.75</ele>
        <time>2021-03-30T12:21:20Z</time>
      </trkpt>
      <trkpt lat="42.249963" lon="2.3280402">
        <ele>822.57000732</ele>
        <time>2021-03-30T12:21:21Z</time>
      </trkpt>
      <trkpt lat="42.249948" lon="2.3279895">
        <ele>822.40997314</ele>
        <time>2021-03-30T12:21:22Z</time>
      </trkpt>
      <trkpt lat="42.2499281" lon="2.3279397">
        <ele>822.33001709</ele>
        <time>2021-03-30T12:21:23Z</time>
      </trkpt>
      <trkpt lat="42.2499039" lon="2.3278808">
        <ele>822.33001709</ele>
        <time>2021-03-30T12:21:24Z</time>
      </trkpt>
      <trkpt lat="42.2498788" lon="2.3278188">
        <ele>822.39001465</ele>
        <time>2021-03-30T12:21:25Z</time>
      </trkpt>
      <trkpt lat="42.2498562" lon="2.3277574">
        <ele>822.5300293</ele>
        <time>2021-03-30T12:21:26Z</time>
      </trkpt>
      <trkpt lat="42.2498337" lon="2.327712">
        <ele>822.71002197</ele>
        <time>2021-03-30T12:21:27Z</time>
      </trkpt>
      <trkpt lat="42.2498047" lon="2.3276566">
        <ele>822.85998535</ele>
        <time>2021-03-30T12:21:28Z</time>
      </trkpt>
      <trkpt lat="42.2497867" lon="2.3275985">
        <ele>822.9699707</ele>
        <time>2021-03-30T12:21:29Z</time>
      </trkpt>
      <trkpt lat="42.2497628" lon="2.3275456">
        <ele>823.0300293</ele>
        <time>2021-03-30T12:21:30Z</time>
      </trkpt>
      <trkpt lat="42.2497484" lon="2.3275038">
        <ele>823.0300293</ele>
        <time>2021-03-30T12:21:31Z</time>
      </trkpt>
      <trkpt lat="42.2497287" lon="2.3274831">
        <ele>822.9699707</ele>
        <time>2021-03-30T12:21:32Z</time>
      </trkpt>
      <trkpt lat="42.249715" lon="2.3274559">
        <ele>822.88000488</ele>
        <time>2021-03-30T12:21:33Z</time>
      </trkpt>
      <trkpt lat="42.2496967" lon="2.3274336">
        <ele>822.80999756</ele>
        <time>2021-03-30T12:21:34Z</time>
      </trkpt>
      <trkpt lat="42.249679" lon="2.3274004">
        <ele>822.75</ele>
        <time>2021-03-30T12:21:35Z</time>
      </trkpt>
      <trkpt lat="42.2496494" lon="2.3273633">
        <ele>822.72998047</ele>
        <time>2021-03-30T12:21:36Z</time>
      </trkpt>
      <trkpt lat="42.2496272" lon="2.3273266">
        <ele>822.7199707</ele>
        <time>2021-03-30T12:21:37Z</time>
      </trkpt>
      <trkpt lat="42.2496078" lon="2.3272883">
        <ele>822.75</ele>
        <time>2021-03-30T12:21:38Z</time>
      </trkpt>
      <trkpt lat="42.2495817" lon="2.3272493">
        <ele>822.80999756</ele>
        <time>2021-03-30T12:21:39Z</time>
      </trkpt>
      <trkpt lat="42.2495546" lon="2.3272207">
        <ele>822.90002441</ele>
        <time>2021-03-30T12:21:40Z</time>
      </trkpt>
      <trkpt lat="42.2495239" lon="2.3271859">
        <ele>822.9699707</ele>
        <time>2021-03-30T12:21:41Z</time>
      </trkpt>
      <trkpt lat="42.2494928" lon="2.3271357">
        <ele>823</ele>
        <time>2021-03-30T12:21:42Z</time>
      </trkpt>
      <trkpt lat="42.2494687" lon="2.3271007">
        <ele>822.97998047</ele>
        <time>2021-03-30T12:21:43Z</time>
      </trkpt>
      <trkpt lat="42.2494414" lon="2.3270601">
        <ele>822.90002441</ele>
        <time>2021-03-30T12:21:44Z</time>
      </trkpt>
      <trkpt lat="42.2494205" lon="2.3270212">
        <ele>822.75</ele>
        <time>2021-03-30T12:21:45Z</time>
      </trkpt>
      <trkpt lat="42.2494044" lon="2.3269804">
        <ele>822.57000732</ele>
        <time>2021-03-30T12:21:46Z</time>
      </trkpt>
      <trkpt lat="42.2493809" lon="2.3269345">
        <ele>822.36999512</ele>
        <time>2021-03-30T12:21:47Z</time>
      </trkpt>
      <trkpt lat="42.2493578" lon="2.3268897">
        <ele>822.15997314</ele>
        <time>2021-03-30T12:21:48Z</time>
      </trkpt>
      <trkpt lat="42.2493402" lon="2.326846">
        <ele>821.97998047</ele>
        <time>2021-03-30T12:21:49Z</time>
      </trkpt>
      <trkpt lat="42.2493233" lon="2.3268064">
        <ele>821.84002686</ele>
        <time>2021-03-30T12:21:50Z</time>
      </trkpt>
      <trkpt lat="42.249309" lon="2.3267646">
        <ele>821.71002197</ele>
        <time>2021-03-30T12:21:51Z</time>
      </trkpt>
      <trkpt lat="42.2492942" lon="2.3267276">
        <ele>821.59002686</ele>
        <time>2021-03-30T12:21:52Z</time>
      </trkpt>
      <trkpt lat="42.2492797" lon="2.3266826">
        <ele>821.47998047</ele>
        <time>2021-03-30T12:21:53Z</time>
      </trkpt>
      <trkpt lat="42.249257" lon="2.3266179">
        <ele>821.35998535</ele>
        <time>2021-03-30T12:21:54Z</time>
      </trkpt>
      <trkpt lat="42.249232" lon="2.3265579">
        <ele>821.27001953</ele>
        <time>2021-03-30T12:21:55Z</time>
      </trkpt>
      <trkpt lat="42.2492049" lon="2.3264998">
        <ele>821.21002197</ele>
        <time>2021-03-30T12:21:56Z</time>
      </trkpt>
      <trkpt lat="42.2491759" lon="2.3264527">
        <ele>821.15997314</ele>
        <time>2021-03-30T12:21:57Z</time>
      </trkpt>
      <trkpt lat="42.2491481" lon="2.3264003">
        <ele>821.09997559</ele>
        <time>2021-03-30T12:21:58Z</time>
      </trkpt>
      <trkpt lat="42.2491351" lon="2.3263523">
        <ele>821.08001709</ele>
        <time>2021-03-30T12:21:59Z</time>
      </trkpt>
      <trkpt lat="42.2491089" lon="2.3263073">
        <ele>821.05999756</ele>
        <time>2021-03-30T12:22:00Z</time>
      </trkpt>
      <trkpt lat="42.2490874" lon="2.3262446">
        <ele>820.98999023</ele>
        <time>2021-03-30T12:22:01Z</time>
      </trkpt>
      <trkpt lat="42.2490594" lon="2.3261911">
        <ele>820.88000488</ele>
        <time>2021-03-30T12:22:02Z</time>
      </trkpt>
      <trkpt lat="42.2490274" lon="2.3261428">
        <ele>820.72998047</ele>
        <time>2021-03-30T12:22:03Z</time>
      </trkpt>
      <trkpt lat="42.2489955" lon="2.3260807">
        <ele>820.52001953</ele>
        <time>2021-03-30T12:22:04Z</time>
      </trkpt>
      <trkpt lat="42.248969" lon="2.3260253">
        <ele>820.29998779</ele>
        <time>2021-03-30T12:22:05Z</time>
      </trkpt>
      <trkpt lat="42.2489329" lon="2.3259537">
        <ele>820.07000732</ele>
        <time>2021-03-30T12:22:06Z</time>
      </trkpt>
      <trkpt lat="42.2488964" lon="2.3258764">
        <ele>819.78997803</ele>
        <time>2021-03-30T12:22:07Z</time>
      </trkpt>
      <trkpt lat="42.2488676" lon="2.3258025">
        <ele>819.42999268</ele>
        <time>2021-03-30T12:22:08Z</time>
      </trkpt>
      <trkpt lat="42.2488381" lon="2.3257289">
        <ele>819.03997803</ele>
        <time>2021-03-30T12:22:09Z</time>
      </trkpt>
      <trkpt lat="42.2488083" lon="2.3256541">
        <ele>818.65997314</ele>
        <time>2021-03-30T12:22:10Z</time>
      </trkpt>
      <trkpt lat="42.2487852" lon="2.3255825">
        <ele>818.32000732</ele>
        <time>2021-03-30T12:22:11Z</time>
      </trkpt>
      <trkpt lat="42.2487541" lon="2.3255064">
        <ele>818.05999756</ele>
        <time>2021-03-30T12:22:12Z</time>
      </trkpt>
      <trkpt lat="42.248721" lon="2.3254394">
        <ele>817.89001465</ele>
        <time>2021-03-30T12:22:13Z</time>
      </trkpt>
      <trkpt lat="42.2486903" lon="2.3253709">
        <ele>817.78997803</ele>
        <time>2021-03-30T12:22:14Z</time>
      </trkpt>
      <trkpt lat="42.2486581" lon="2.3253096">
        <ele>817.71002197</ele>
        <time>2021-03-30T12:22:15Z</time>
      </trkpt>
      <trkpt lat="42.2486361" lon="2.3252236">
        <ele>817.63000488</ele>
        <time>2021-03-30T12:22:16Z</time>
      </trkpt>
      <trkpt lat="42.2486138" lon="2.3251442">
        <ele>817.52001953</ele>
        <time>2021-03-30T12:22:17Z</time>
      </trkpt>
      <trkpt lat="42.2485981" lon="2.3250677">
        <ele>817.36999512</ele>
        <time>2021-03-30T12:22:18Z</time>
      </trkpt>
      <trkpt lat="42.2485808" lon="2.324996">
        <ele>817.20001221</ele>
        <time>2021-03-30T12:22:19Z</time>
      </trkpt>
      <trkpt lat="42.248564" lon="2.32494">
        <ele>817.02001953</ele>
        <time>2021-03-30T12:22:20Z</time>
      </trkpt>
      <trkpt lat="42.2485526" lon="2.3248811">
        <ele>816.83001709</ele>
        <time>2021-03-30T12:22:21Z</time>
      </trkpt>
      <trkpt lat="42.2485364" lon="2.3248236">
        <ele>816.63000488</ele>
        <time>2021-03-30T12:22:22Z</time>
      </trkpt>
      <trkpt lat="42.2485261" lon="2.3247517">
        <ele>816.41998291</ele>
        <time>2021-03-30T12:22:23Z</time>
      </trkpt>
      <trkpt lat="42.2485091" lon="2.324682">
        <ele>816.21002197</ele>
        <time>2021-03-30T12:22:24Z</time>
      </trkpt>
      <trkpt lat="42.2484994" lon="2.3246177">
        <ele>816.05999756</ele>
        <time>2021-03-30T12:22:25Z</time>
      </trkpt>
      <trkpt lat="42.24849" lon="2.3245482">
        <ele>816.03997803</ele>
        <time>2021-03-30T12:22:26Z</time>
      </trkpt>
      <trkpt lat="42.2484761" lon="2.3244933">
        <ele>816.07000732</ele>
        <time>2021-03-30T12:22:27Z</time>
      </trkpt>
      <trkpt lat="42.2484631" lon="2.3244275">
        <ele>816.27001953</ele>
        <time>2021-03-30T12:22:28Z</time>
      </trkpt>
      <trkpt lat="42.248448" lon="2.3243685">
        <ele>816.53997803</ele>
        <time>2021-03-30T12:22:29Z</time>
      </trkpt>
      <trkpt lat="42.2484317" lon="2.3242978">
        <ele>816.75</ele>
        <time>2021-03-30T12:22:30Z</time>
      </trkpt>
      <trkpt lat="42.2484113" lon="2.3242212">
        <ele>816.90002441</ele>
        <time>2021-03-30T12:22:31Z</time>
      </trkpt>
      <trkpt lat="42.2484011" lon="2.3241856">
        <ele>816.98999023</ele>
        <time>2021-03-30T12:22:32Z</time>
      </trkpt>
      <trkpt lat="42.2483954" lon="2.3241101">
        <ele>817.03997803</ele>
        <time>2021-03-30T12:22:33Z</time>
      </trkpt>
      <trkpt lat="42.2483815" lon="2.324035">
        <ele>817.09002686</ele>
        <time>2021-03-30T12:22:34Z</time>
      </trkpt>
      <trkpt lat="42.2483663" lon="2.3239683">
        <ele>817.13000488</ele>
        <time>2021-03-30T12:22:35Z</time>
      </trkpt>
      <trkpt lat="42.2483512" lon="2.3239011">
        <ele>817.14001465</ele>
        <time>2021-03-30T12:22:36Z</time>
      </trkpt>
      <trkpt lat="42.2483312" lon="2.3238241">
        <ele>817.10998535</ele>
        <time>2021-03-30T12:22:37Z</time>
      </trkpt>
      <trkpt lat="42.2483183" lon="2.3237415">
        <ele>817</ele>
        <time>2021-03-30T12:22:38Z</time>
      </trkpt>
      <trkpt lat="42.2483001" lon="2.3236795">
        <ele>816.89001465</ele>
        <time>2021-03-30T12:22:39Z</time>
      </trkpt>
      <trkpt lat="42.2482882" lon="2.3236338">
        <ele>816.7800293</ele>
        <time>2021-03-30T12:22:40Z</time>
      </trkpt>
      <trkpt lat="42.2482753" lon="2.3235784">
        <ele>816.70001221</ele>
        <time>2021-03-30T12:22:41Z</time>
      </trkpt>
      <trkpt lat="42.2482678" lon="2.3235215">
        <ele>816.67999268</ele>
        <time>2021-03-30T12:22:42Z</time>
      </trkpt>
      <trkpt lat="42.2482553" lon="2.323469">
        <ele>816.75</ele>
        <time>2021-03-30T12:22:43Z</time>
      </trkpt>
      <trkpt lat="42.2482557" lon="2.3234229">
        <ele>816.88000488</ele>
        <time>2021-03-30T12:22:44Z</time>
      </trkpt>
      <trkpt lat="42.2482357" lon="2.3233871">
        <ele>817.08001709</ele>
        <time>2021-03-30T12:22:45Z</time>
      </trkpt>
      <trkpt lat="42.2482182" lon="2.3233468">
        <ele>817.27001953</ele>
        <time>2021-03-30T12:22:46Z</time>
      </trkpt>
      <trkpt lat="42.2482015" lon="2.323304">
        <ele>817.46002197</ele>
        <time>2021-03-30T12:22:47Z</time>
      </trkpt>
      <trkpt lat="42.2481805" lon="2.3232701">
        <ele>817.65002441</ele>
        <time>2021-03-30T12:22:48Z</time>
      </trkpt>
      <trkpt lat="42.2481569" lon="2.323236">
        <ele>817.80999756</ele>
        <time>2021-03-30T12:22:49Z</time>
      </trkpt>
      <trkpt lat="42.2481435" lon="2.3232045">
        <ele>817.90997314</ele>
        <time>2021-03-30T12:22:50Z</time>
      </trkpt>
      <trkpt lat="42.2481226" lon="2.3231652">
        <ele>817.98999023</ele>
        <time>2021-03-30T12:22:51Z</time>
      </trkpt>
      <trkpt lat="42.2481086" lon="2.3231058">
        <ele>818.01000977</ele>
        <time>2021-03-30T12:22:52Z</time>
      </trkpt>
      <trkpt lat="42.2480926" lon="2.3230495">
        <ele>818.01000977</ele>
        <time>2021-03-30T12:22:53Z</time>
      </trkpt>
      <trkpt lat="42.2480801" lon="2.322994">
        <ele>817.9699707</ele>
        <time>2021-03-30T12:22:54Z</time>
      </trkpt>
      <trkpt lat="42.2480676" lon="2.3229391">
        <ele>817.98999023</ele>
        <time>2021-03-30T12:22:55Z</time>
      </trkpt>
      <trkpt lat="42.2480553" lon="2.3228842">
        <ele>818.08001709</ele>
        <time>2021-03-30T12:22:56Z</time>
      </trkpt>
      <trkpt lat="42.2480441" lon="2.3228356">
        <ele>818.21002197</ele>
        <time>2021-03-30T12:22:57Z</time>
      </trkpt>
      <trkpt lat="42.2480315" lon="2.3227827">
        <ele>818.40997314</ele>
        <time>2021-03-30T12:22:58Z</time>
      </trkpt>
      <trkpt lat="42.2480153" lon="2.322733">
        <ele>818.66998291</ele>
        <time>2021-03-30T12:22:59Z</time>
      </trkpt>
      <trkpt lat="42.2480055" lon="2.322677">
        <ele>818.89001465</ele>
        <time>2021-03-30T12:23:00Z</time>
      </trkpt>
      <trkpt lat="42.2479883" lon="2.3226226">
        <ele>819.07000732</ele>
        <time>2021-03-30T12:23:01Z</time>
      </trkpt>
      <trkpt lat="42.247979" lon="2.3225667">
        <ele>819.19000244</ele>
        <time>2021-03-30T12:23:02Z</time>
      </trkpt>
      <trkpt lat="42.2479685" lon="2.3225096">
        <ele>819.2800293</ele>
        <time>2021-03-30T12:23:03Z</time>
      </trkpt>
      <trkpt lat="42.2479535" lon="2.322458">
        <ele>819.34002686</ele>
        <time>2021-03-30T12:23:04Z</time>
      </trkpt>
      <trkpt lat="42.2479429" lon="2.3224076">
        <ele>819.35998535</ele>
        <time>2021-03-30T12:23:05Z</time>
      </trkpt>
      <trkpt lat="42.247932" lon="2.322359">
        <ele>819.34997559</ele>
        <time>2021-03-30T12:23:06Z</time>
      </trkpt>
      <trkpt lat="42.2479082" lon="2.3223114">
        <ele>819.33001709</ele>
        <time>2021-03-30T12:23:07Z</time>
      </trkpt>
      <trkpt lat="42.2478959" lon="2.3222411">
        <ele>819.26000977</ele>
        <time>2021-03-30T12:23:08Z</time>
      </trkpt>
      <trkpt lat="42.2478795" lon="2.3222036">
        <ele>819.15997314</ele>
        <time>2021-03-30T12:23:09Z</time>
      </trkpt>
      <trkpt lat="42.2478774" lon="2.322178">
        <ele>819.0300293</ele>
        <time>2021-03-30T12:23:10Z</time>
      </trkpt>
      <trkpt lat="42.2478762" lon="2.3221598">
        <ele>818.85998535</ele>
        <time>2021-03-30T12:23:11Z</time>
      </trkpt>
      <trkpt lat="42.2478719" lon="2.3221533">
        <ele>818.69000244</ele>
        <time>2021-03-30T12:23:12Z</time>
      </trkpt>
      <trkpt lat="42.2478608" lon="2.3221621">
        <ele>818.51000977</ele>
        <time>2021-03-30T12:23:13Z</time>
      </trkpt>
      <trkpt lat="42.2478662" lon="2.3221512">
        <ele>818.34002686</ele>
        <time>2021-03-30T12:23:14Z</time>
      </trkpt>
      <trkpt lat="42.2478601" lon="2.3221441">
        <ele>818.17999268</ele>
        <time>2021-03-30T12:23:15Z</time>
      </trkpt>
      <trkpt lat="42.2478589" lon="2.3221331">
        <ele>818.02001953</ele>
        <time>2021-03-30T12:23:16Z</time>
      </trkpt>
      <trkpt lat="42.2478551" lon="2.3221196">
        <ele>817.84997559</ele>
        <time>2021-03-30T12:23:17Z</time>
      </trkpt>
      <trkpt lat="42.2478422" lon="2.3221158">
        <ele>817.66998291</ele>
        <time>2021-03-30T12:23:18Z</time>
      </trkpt>
      <trkpt lat="42.2477668" lon="2.3221596">
        <ele>814.69000244</ele>
        <time>2021-03-30T12:24:10Z</time>
      </trkpt>
      <trkpt lat="42.2477686" lon="2.3221564">
        <ele>814.71002197</ele>
        <time>2021-03-30T12:24:11Z</time>
      </trkpt>
      <trkpt lat="42.2477814" lon="2.3221673">
        <ele>814.67999268</ele>
        <time>2021-03-30T12:24:12Z</time>
      </trkpt>
      <trkpt lat="42.2477953" lon="2.3221491">
        <ele>815.05999756</ele>
        <time>2021-03-30T12:24:13Z</time>
      </trkpt>
      <trkpt lat="42.2478117" lon="2.3221205">
        <ele>815.09002686</ele>
        <time>2021-03-30T12:24:14Z</time>
      </trkpt>
      <trkpt lat="42.2478326" lon="2.3220862">
        <ele>815.02001953</ele>
        <time>2021-03-30T12:24:15Z</time>
      </trkpt>
      <trkpt lat="42.2478496" lon="2.3220378">
        <ele>815.0300293</ele>
        <time>2021-03-30T12:24:16Z</time>
      </trkpt>
      <trkpt lat="42.2478562" lon="2.3219986">
        <ele>814.84997559</ele>
        <time>2021-03-30T12:24:17Z</time>
      </trkpt>
      <trkpt lat="42.2478617" lon="2.3219502">
        <ele>814.5300293</ele>
        <time>2021-03-30T12:24:18Z</time>
      </trkpt>
      <trkpt lat="42.2478668" lon="2.3218939">
        <ele>814.08001709</ele>
        <time>2021-03-30T12:24:19Z</time>
      </trkpt>
      <trkpt lat="42.247874" lon="2.3218423">
        <ele>814.14001465</ele>
        <time>2021-03-30T12:24:20Z</time>
      </trkpt>
      <trkpt lat="42.2478832" lon="2.32179">
        <ele>814.40002441</ele>
        <time>2021-03-30T12:24:21Z</time>
      </trkpt>
      <trkpt lat="42.2478893" lon="2.3217392">
        <ele>814.75</ele>
        <time>2021-03-30T12:24:22Z</time>
      </trkpt>
      <trkpt lat="42.2478987" lon="2.3216878">
        <ele>815</ele>
        <time>2021-03-30T12:24:23Z</time>
      </trkpt>
      <trkpt lat="42.2479116" lon="2.3216355">
        <ele>815.34997559</ele>
        <time>2021-03-30T12:24:24Z</time>
      </trkpt>
      <trkpt lat="42.2479187" lon="2.321591">
        <ele>815.84002686</ele>
        <time>2021-03-30T12:24:25Z</time>
      </trkpt>
      <trkpt lat="42.2479259" lon="2.3215385">
        <ele>816.13000488</ele>
        <time>2021-03-30T12:24:26Z</time>
      </trkpt>
      <trkpt lat="42.247928" lon="2.3214613">
        <ele>816.41998291</ele>
        <time>2021-03-30T12:24:27Z</time>
      </trkpt>
      <trkpt lat="42.2479236" lon="2.3214032">
        <ele>816.52001953</ele>
        <time>2021-03-30T12:24:28Z</time>
      </trkpt>
      <trkpt lat="42.2479137" lon="2.3213443">
        <ele>816.36999512</ele>
        <time>2021-03-30T12:24:29Z</time>
      </trkpt>
      <trkpt lat="42.2479104" lon="2.3212854">
        <ele>815.63000488</ele>
        <time>2021-03-30T12:24:30Z</time>
      </trkpt>
      <trkpt lat="42.2478975" lon="2.3212267">
        <ele>814.96002197</ele>
        <time>2021-03-30T12:24:31Z</time>
      </trkpt>
      <trkpt lat="42.2478876" lon="2.3211778">
        <ele>814.08001709</ele>
        <time>2021-03-30T12:24:32Z</time>
      </trkpt>
      <trkpt lat="42.2478852" lon="2.3211288">
        <ele>813.40997314</ele>
        <time>2021-03-30T12:24:33Z</time>
      </trkpt>
      <trkpt lat="42.2478655" lon="2.3210829">
        <ele>812.96002197</ele>
        <time>2021-03-30T12:24:34Z</time>
      </trkpt>
      <trkpt lat="42.2478509" lon="2.3210209">
        <ele>812.5300293</ele>
        <time>2021-03-30T12:24:35Z</time>
      </trkpt>
      <trkpt lat="42.2478335" lon="2.3209552">
        <ele>812.09002686</ele>
        <time>2021-03-30T12:24:36Z</time>
      </trkpt>
      <trkpt lat="42.2478163" lon="2.3208929">
        <ele>811.70001221</ele>
        <time>2021-03-30T12:24:37Z</time>
      </trkpt>
      <trkpt lat="42.2478286" lon="2.3208249">
        <ele>811.39001465</ele>
        <time>2021-03-30T12:24:38Z</time>
      </trkpt>
      <trkpt lat="42.2478177" lon="2.3207727">
        <ele>811.05999756</ele>
        <time>2021-03-30T12:24:39Z</time>
      </trkpt>
      <trkpt lat="42.2478001" lon="2.3207138">
        <ele>810.71002197</ele>
        <time>2021-03-30T12:24:40Z</time>
      </trkpt>
      <trkpt lat="42.2477881" lon="2.320657">
        <ele>810.33001709</ele>
        <time>2021-03-30T12:24:41Z</time>
      </trkpt>
      <trkpt lat="42.2477701" lon="2.3205979">
        <ele>809.90002441</ele>
        <time>2021-03-30T12:24:42Z</time>
      </trkpt>
      <trkpt lat="42.2477509" lon="2.3205436">
        <ele>809.41998291</ele>
        <time>2021-03-30T12:24:43Z</time>
      </trkpt>
      <trkpt lat="42.2477222" lon="2.32048">
        <ele>808.94000244</ele>
        <time>2021-03-30T12:24:44Z</time>
      </trkpt>
      <trkpt lat="42.2476871" lon="2.3204295">
        <ele>808.45001221</ele>
        <time>2021-03-30T12:24:45Z</time>
      </trkpt>
      <trkpt lat="42.2476321" lon="2.3203549">
        <ele>807.98999023</ele>
        <time>2021-03-30T12:24:46Z</time>
      </trkpt>
      <trkpt lat="42.2475851" lon="2.320293">
        <ele>807.54998779</ele>
        <time>2021-03-30T12:24:47Z</time>
      </trkpt>
      <trkpt lat="42.2475443" lon="2.3202285">
        <ele>807.14001465</ele>
        <time>2021-03-30T12:24:48Z</time>
      </trkpt>
      <trkpt lat="42.2475087" lon="2.3201528">
        <ele>806.76000977</ele>
        <time>2021-03-30T12:24:49Z</time>
      </trkpt>
      <trkpt lat="42.2474827" lon="2.3200864">
        <ele>806.33001709</ele>
        <time>2021-03-30T12:24:50Z</time>
      </trkpt>
      <trkpt lat="42.2474555" lon="2.3200235">
        <ele>806.19000244</ele>
        <time>2021-03-30T12:24:51Z</time>
      </trkpt>
      <trkpt lat="42.2474305" lon="2.3199749">
        <ele>806.0300293</ele>
        <time>2021-03-30T12:24:52Z</time>
      </trkpt>
      <trkpt lat="42.2474088" lon="2.3199232">
        <ele>805.35998535</ele>
        <time>2021-03-30T12:24:53Z</time>
      </trkpt>
      <trkpt lat="42.2473786" lon="2.3198756">
        <ele>804.82000732</ele>
        <time>2021-03-30T12:24:54Z</time>
      </trkpt>
      <trkpt lat="42.2473591" lon="2.3198341">
        <ele>804.39001465</ele>
        <time>2021-03-30T12:24:55Z</time>
      </trkpt>
      <trkpt lat="42.2473267" lon="2.3197891">
        <ele>804.03997803</ele>
        <time>2021-03-30T12:24:56Z</time>
      </trkpt>
      <trkpt lat="42.2472927" lon="2.3197497">
        <ele>803.75</ele>
        <time>2021-03-30T12:24:57Z</time>
      </trkpt>
      <trkpt lat="42.2472329" lon="2.3197221">
        <ele>803.45001221</ele>
        <time>2021-03-30T12:24:58Z</time>
      </trkpt>
      <trkpt lat="42.2471768" lon="2.3196731">
        <ele>803.09002686</ele>
        <time>2021-03-30T12:24:59Z</time>
      </trkpt>
      <trkpt lat="42.2471379" lon="2.3196212">
        <ele>802.65002441</ele>
        <time>2021-03-30T12:25:00Z</time>
      </trkpt>
      <trkpt lat="42.2471089" lon="2.3195626">
        <ele>802.17999268</ele>
        <time>2021-03-30T12:25:01Z</time>
      </trkpt>
      <trkpt lat="42.2470884" lon="2.3195045">
        <ele>801.69000244</ele>
        <time>2021-03-30T12:25:02Z</time>
      </trkpt>
      <trkpt lat="42.2470989" lon="2.3194428">
        <ele>801.2199707</ele>
        <time>2021-03-30T12:25:03Z</time>
      </trkpt>
      <trkpt lat="42.2471085" lon="2.3193868">
        <ele>800.82000732</ele>
        <time>2021-03-30T12:25:04Z</time>
      </trkpt>
      <trkpt lat="42.2471066" lon="2.319347">
        <ele>800.58001709</ele>
        <time>2021-03-30T12:25:05Z</time>
      </trkpt>
      <trkpt lat="42.2470883" lon="2.3193025">
        <ele>800.46002197</ele>
        <time>2021-03-30T12:25:06Z</time>
      </trkpt>
      <trkpt lat="42.2470776" lon="2.3192558">
        <ele>800.40997314</ele>
        <time>2021-03-30T12:25:07Z</time>
      </trkpt>
      <trkpt lat="42.2470722" lon="2.319202">
        <ele>800.44000244</ele>
        <time>2021-03-30T12:25:08Z</time>
      </trkpt>
      <trkpt lat="42.2470604" lon="2.3191643">
        <ele>800.57000732</ele>
        <time>2021-03-30T12:25:09Z</time>
      </trkpt>
      <trkpt lat="42.2470467" lon="2.3191243">
        <ele>800.73999023</ele>
        <time>2021-03-30T12:25:10Z</time>
      </trkpt>
      <trkpt lat="42.2470402" lon="2.319082">
        <ele>800.85998535</ele>
        <time>2021-03-30T12:25:11Z</time>
      </trkpt>
      <trkpt lat="42.2470233" lon="2.3190429">
        <ele>800.96002197</ele>
        <time>2021-03-30T12:25:12Z</time>
      </trkpt>
      <trkpt lat="42.2470202" lon="2.318981">
        <ele>801.02001953</ele>
        <time>2021-03-30T12:25:13Z</time>
      </trkpt>
      <trkpt lat="42.247017" lon="2.3189245">
        <ele>801.05999756</ele>
        <time>2021-03-30T12:25:14Z</time>
      </trkpt>
      <trkpt lat="42.2470099" lon="2.318859">
        <ele>801.09002686</ele>
        <time>2021-03-30T12:25:15Z</time>
      </trkpt>
      <trkpt lat="42.2470058" lon="2.318795">
        <ele>801.09997559</ele>
        <time>2021-03-30T12:25:16Z</time>
      </trkpt>
      <trkpt lat="42.2470016" lon="2.318743">
        <ele>801.09997559</ele>
        <time>2021-03-30T12:25:17Z</time>
      </trkpt>
      <trkpt lat="42.2470149" lon="2.318686">
        <ele>801.09002686</ele>
        <time>2021-03-30T12:25:18Z</time>
      </trkpt>
      <trkpt lat="42.2470299" lon="2.3186399">
        <ele>801.10998535</ele>
        <time>2021-03-30T12:25:19Z</time>
      </trkpt>
      <trkpt lat="42.2470474" lon="2.318592">
        <ele>801.15997314</ele>
        <time>2021-03-30T12:25:20Z</time>
      </trkpt>
      <trkpt lat="42.2470574" lon="2.3185355">
        <ele>801.22998047</ele>
        <time>2021-03-30T12:25:21Z</time>
      </trkpt>
      <trkpt lat="42.2470715" lon="2.3184805">
        <ele>801.32000732</ele>
        <time>2021-03-30T12:25:22Z</time>
      </trkpt>
      <trkpt lat="42.2470873" lon="2.3184205">
        <ele>801.42999268</ele>
        <time>2021-03-30T12:25:23Z</time>
      </trkpt>
      <trkpt lat="42.247105" lon="2.3183725">
        <ele>801.57000732</ele>
        <time>2021-03-30T12:25:24Z</time>
      </trkpt>
      <trkpt lat="42.2471145" lon="2.3183197">
        <ele>801.7199707</ele>
        <time>2021-03-30T12:25:25Z</time>
      </trkpt>
      <trkpt lat="42.2471225" lon="2.3182697">
        <ele>801.88000488</ele>
        <time>2021-03-30T12:25:26Z</time>
      </trkpt>
      <trkpt lat="42.2471258" lon="2.3182441">
        <ele>802.03997803</ele>
        <time>2021-03-30T12:25:27Z</time>
      </trkpt>
      <trkpt lat="42.2471294" lon="2.3182039">
        <ele>802.19000244</ele>
        <time>2021-03-30T12:25:28Z</time>
      </trkpt>
      <trkpt lat="42.2471409" lon="2.3181502">
        <ele>802.33001709</ele>
        <time>2021-03-30T12:25:29Z</time>
      </trkpt>
      <trkpt lat="42.2471417" lon="2.3181116">
        <ele>802.4699707</ele>
        <time>2021-03-30T12:25:30Z</time>
      </trkpt>
      <trkpt lat="42.2471432" lon="2.3180695">
        <ele>802.60998535</ele>
        <time>2021-03-30T12:25:31Z</time>
      </trkpt>
      <trkpt lat="42.2471453" lon="2.3180187">
        <ele>802.73999023</ele>
        <time>2021-03-30T12:25:32Z</time>
      </trkpt>
      <trkpt lat="42.2471493" lon="2.3179612">
        <ele>802.84997559</ele>
        <time>2021-03-30T12:25:33Z</time>
      </trkpt>
      <trkpt lat="42.2471392" lon="2.3178954">
        <ele>802.96002197</ele>
        <time>2021-03-30T12:25:34Z</time>
      </trkpt>
      <trkpt lat="42.2471279" lon="2.3178284">
        <ele>803.03997803</ele>
        <time>2021-03-30T12:25:35Z</time>
      </trkpt>
      <trkpt lat="42.2471163" lon="2.3177596">
        <ele>803.09002686</ele>
        <time>2021-03-30T12:25:36Z</time>
      </trkpt>
      <trkpt lat="42.2471192" lon="2.3176891">
        <ele>803.09997559</ele>
        <time>2021-03-30T12:25:37Z</time>
      </trkpt>
      <trkpt lat="42.2471147" lon="2.3176246">
        <ele>803.05999756</ele>
        <time>2021-03-30T12:25:38Z</time>
      </trkpt>
      <trkpt lat="42.2471092" lon="2.3175647">
        <ele>802.96002197</ele>
        <time>2021-03-30T12:25:39Z</time>
      </trkpt>
      <trkpt lat="42.2471042" lon="2.3174941">
        <ele>802.79998779</ele>
        <time>2021-03-30T12:25:40Z</time>
      </trkpt>
      <trkpt lat="42.2470928" lon="2.3174215">
        <ele>802.58001709</ele>
        <time>2021-03-30T12:25:41Z</time>
      </trkpt>
      <trkpt lat="42.2470921" lon="2.3173425">
        <ele>802.34002686</ele>
        <time>2021-03-30T12:25:42Z</time>
      </trkpt>
      <trkpt lat="42.2470957" lon="2.3172576">
        <ele>802.11999512</ele>
        <time>2021-03-30T12:25:43Z</time>
      </trkpt>
      <trkpt lat="42.2471088" lon="2.3171632">
        <ele>801.92999268</ele>
        <time>2021-03-30T12:25:44Z</time>
      </trkpt>
      <trkpt lat="42.2471086" lon="2.3170771">
        <ele>801.75</ele>
        <time>2021-03-30T12:25:45Z</time>
      </trkpt>
      <trkpt lat="42.2471042" lon="2.316999">
        <ele>801.48999023</ele>
        <time>2021-03-30T12:25:46Z</time>
      </trkpt>
      <trkpt lat="42.2471121" lon="2.316913">
        <ele>801.15002441</ele>
        <time>2021-03-30T12:25:47Z</time>
      </trkpt>
      <trkpt lat="42.2471297" lon="2.3168315">
        <ele>800.78997803</ele>
        <time>2021-03-30T12:25:48Z</time>
      </trkpt>
      <trkpt lat="42.2471422" lon="2.3167479">
        <ele>800.5</ele>
        <time>2021-03-30T12:25:49Z</time>
      </trkpt>
      <trkpt lat="42.2471597" lon="2.3166593">
        <ele>800.27001953</ele>
        <time>2021-03-30T12:25:50Z</time>
      </trkpt>
      <trkpt lat="42.2471773" lon="2.316578">
        <ele>800.08001709</ele>
        <time>2021-03-30T12:25:51Z</time>
      </trkpt>
      <trkpt lat="42.2471927" lon="2.3164803">
        <ele>799.83001709</ele>
        <time>2021-03-30T12:25:52Z</time>
      </trkpt>
      <trkpt lat="42.2472192" lon="2.3163763">
        <ele>799.7199707</ele>
        <time>2021-03-30T12:25:53Z</time>
      </trkpt>
      <trkpt lat="42.2472397" lon="2.3162826">
        <ele>799.16998291</ele>
        <time>2021-03-30T12:25:54Z</time>
      </trkpt>
      <trkpt lat="42.2472664" lon="2.316182">
        <ele>798.70001221</ele>
        <time>2021-03-30T12:25:55Z</time>
      </trkpt>
      <trkpt lat="42.2472897" lon="2.3160763">
        <ele>798.34002686</ele>
        <time>2021-03-30T12:25:56Z</time>
      </trkpt>
      <trkpt lat="42.2473201" lon="2.3160076">
        <ele>798.05999756</ele>
        <time>2021-03-30T12:25:57Z</time>
      </trkpt>
      <trkpt lat="42.2473439" lon="2.3159401">
        <ele>797.86999512</ele>
        <time>2021-03-30T12:25:58Z</time>
      </trkpt>
      <trkpt lat="42.2473615" lon="2.3158779">
        <ele>797.76000977</ele>
        <time>2021-03-30T12:25:59Z</time>
      </trkpt>
      <trkpt lat="42.2473736" lon="2.31581">
        <ele>797.69000244</ele>
        <time>2021-03-30T12:26:00Z</time>
      </trkpt>
      <trkpt lat="42.2473774" lon="2.3157575">
        <ele>797.64001465</ele>
        <time>2021-03-30T12:26:01Z</time>
      </trkpt>
      <trkpt lat="42.2473839" lon="2.3157073">
        <ele>797.55999756</ele>
        <time>2021-03-30T12:26:02Z</time>
      </trkpt>
      <trkpt lat="42.2473938" lon="2.315647">
        <ele>797.4699707</ele>
        <time>2021-03-30T12:26:03Z</time>
      </trkpt>
      <trkpt lat="42.2473957" lon="2.3156179">
        <ele>797.35998535</ele>
        <time>2021-03-30T12:26:04Z</time>
      </trkpt>
      <trkpt lat="42.2474012" lon="2.3155873">
        <ele>797.25</ele>
        <time>2021-03-30T12:26:05Z</time>
      </trkpt>
      <trkpt lat="42.2473958" lon="2.3155836">
        <ele>797.15002441</ele>
        <time>2021-03-30T12:26:06Z</time>
      </trkpt>
      <trkpt lat="42.2473937" lon="2.3155866">
        <ele>797.0300293</ele>
        <time>2021-03-30T12:26:07Z</time>
      </trkpt>
      <trkpt lat="42.2473937" lon="2.3155754">
        <ele>796.91998291</ele>
        <time>2021-03-30T12:26:08Z</time>
      </trkpt>
      <trkpt lat="42.2474001" lon="2.3155526">
        <ele>796.82000732</ele>
        <time>2021-03-30T12:26:09Z</time>
      </trkpt>
      <trkpt lat="42.2473687" lon="2.3154065">
        <ele>794.73999023</ele>
        <time>2021-03-30T12:28:24Z</time>
      </trkpt>
      <trkpt lat="42.2473669" lon="2.3154014">
        <ele>794.80999756</ele>
        <time>2021-03-30T12:28:25Z</time>
      </trkpt>
      <trkpt lat="42.247374" lon="2.3153953">
        <ele>794.75</ele>
        <time>2021-03-30T12:28:26Z</time>
      </trkpt>
      <trkpt lat="42.2473673" lon="2.3153916">
        <ele>795</ele>
        <time>2021-03-30T12:28:27Z</time>
      </trkpt>
      <trkpt lat="42.2473771" lon="2.3153841">
        <ele>794.7800293</ele>
        <time>2021-03-30T12:28:28Z</time>
      </trkpt>
      <trkpt lat="42.2473695" lon="2.3153641">
        <ele>795.09997559</ele>
        <time>2021-03-30T12:28:29Z</time>
      </trkpt>
      <trkpt lat="42.2473766" lon="2.3153462">
        <ele>794.86999512</ele>
        <time>2021-03-30T12:28:30Z</time>
      </trkpt>
      <trkpt lat="42.2473814" lon="2.3153279">
        <ele>795.09997559</ele>
        <time>2021-03-30T12:28:31Z</time>
      </trkpt>
      <trkpt lat="42.2473865" lon="2.3153164">
        <ele>795.28997803</ele>
        <time>2021-03-30T12:28:32Z</time>
      </trkpt>
      <trkpt lat="42.2473895" lon="2.315311">
        <ele>795.47998047</ele>
        <time>2021-03-30T12:28:33Z</time>
      </trkpt>
      <trkpt lat="42.247396" lon="2.3153105">
        <ele>795.60998535</ele>
        <time>2021-03-30T12:28:34Z</time>
      </trkpt>
      <trkpt lat="42.2473962" lon="2.3153069">
        <ele>795.84997559</ele>
        <time>2021-03-30T12:28:35Z</time>
      </trkpt>
      <trkpt lat="42.2474141" lon="2.3152689">
        <ele>796.58001709</ele>
        <time>2021-03-30T12:29:03Z</time>
      </trkpt>
      <trkpt lat="42.2474169" lon="2.3152717">
        <ele>796.59997559</ele>
        <time>2021-03-30T12:29:05Z</time>
      </trkpt>
      <trkpt lat="42.2474183" lon="2.3152672">
        <ele>796.67999268</ele>
        <time>2021-03-30T12:29:06Z</time>
      </trkpt>
      <trkpt lat="42.247421" lon="2.3152807">
        <ele>796.73999023</ele>
        <time>2021-03-30T12:29:07Z</time>
      </trkpt>
      <trkpt lat="42.247428" lon="2.3153087">
        <ele>796.83001709</ele>
        <time>2021-03-30T12:29:08Z</time>
      </trkpt>
      <trkpt lat="42.2474261" lon="2.3153263">
        <ele>797.09002686</ele>
        <time>2021-03-30T12:29:09Z</time>
      </trkpt>
      <trkpt lat="42.2474212" lon="2.3153446">
        <ele>797.04998779</ele>
        <time>2021-03-30T12:29:10Z</time>
      </trkpt>
      <trkpt lat="42.2474261" lon="2.3153665">
        <ele>796.86999512</ele>
        <time>2021-03-30T12:29:11Z</time>
      </trkpt>
      <trkpt lat="42.2474267" lon="2.3154033">
        <ele>797.0300293</ele>
        <time>2021-03-30T12:29:12Z</time>
      </trkpt>
      <trkpt lat="42.2474234" lon="2.3154494">
        <ele>797.05999756</ele>
        <time>2021-03-30T12:29:13Z</time>
      </trkpt>
      <trkpt lat="42.2474308" lon="2.3154913">
        <ele>796.95001221</ele>
        <time>2021-03-30T12:29:14Z</time>
      </trkpt>
      <trkpt lat="42.2474361" lon="2.3155238">
        <ele>797.20001221</ele>
        <time>2021-03-30T12:29:15Z</time>
      </trkpt>
      <trkpt lat="42.2474367" lon="2.3155584">
        <ele>797.40997314</ele>
        <time>2021-03-30T12:29:16Z</time>
      </trkpt>
      <trkpt lat="42.2474412" lon="2.3155972">
        <ele>797.46002197</ele>
        <time>2021-03-30T12:29:17Z</time>
      </trkpt>
      <trkpt lat="42.2474369" lon="2.3156338">
        <ele>797.77001953</ele>
        <time>2021-03-30T12:29:18Z</time>
      </trkpt>
      <trkpt lat="42.2474352" lon="2.3156739">
        <ele>797.79998779</ele>
        <time>2021-03-30T12:29:19Z</time>
      </trkpt>
      <trkpt lat="42.2474392" lon="2.315714">
        <ele>797.91998291</ele>
        <time>2021-03-30T12:29:20Z</time>
      </trkpt>
      <trkpt lat="42.2474447" lon="2.3157459">
        <ele>798.19000244</ele>
        <time>2021-03-30T12:29:21Z</time>
      </trkpt>
      <trkpt lat="42.2474392" lon="2.3157762">
        <ele>798.4699707</ele>
        <time>2021-03-30T12:29:22Z</time>
      </trkpt>
      <trkpt lat="42.2474368" lon="2.3158196">
        <ele>798.48999023</ele>
        <time>2021-03-30T12:29:23Z</time>
      </trkpt>
      <trkpt lat="42.247438" lon="2.3158507">
        <ele>798.60998535</ele>
        <time>2021-03-30T12:29:24Z</time>
      </trkpt>
      <trkpt lat="42.2474382" lon="2.3158841">
        <ele>798.70001221</ele>
        <time>2021-03-30T12:29:25Z</time>
      </trkpt>
      <trkpt lat="42.2474338" lon="2.3159135">
        <ele>798.71002197</ele>
        <time>2021-03-30T12:29:26Z</time>
      </trkpt>
      <trkpt lat="42.2474346" lon="2.3159548">
        <ele>798.63000488</ele>
        <time>2021-03-30T12:29:27Z</time>
      </trkpt>
      <trkpt lat="42.2474387" lon="2.315989">
        <ele>798.64001465</ele>
        <time>2021-03-30T12:29:28Z</time>
      </trkpt>
      <trkpt lat="42.247443" lon="2.3160297">
        <ele>798.71002197</ele>
        <time>2021-03-30T12:29:29Z</time>
      </trkpt>
      <trkpt lat="42.2474463" lon="2.31606">
        <ele>798.79998779</ele>
        <time>2021-03-30T12:29:30Z</time>
      </trkpt>
      <trkpt lat="42.2474515" lon="2.3160909">
        <ele>798.85998535</ele>
        <time>2021-03-30T12:29:31Z</time>
      </trkpt>
      <trkpt lat="42.2474612" lon="2.3161175">
        <ele>798.96002197</ele>
        <time>2021-03-30T12:29:32Z</time>
      </trkpt>
      <trkpt lat="42.2474726" lon="2.3161394">
        <ele>799.23999023</ele>
        <time>2021-03-30T12:29:33Z</time>
      </trkpt>
      <trkpt lat="42.247481" lon="2.316157">
        <ele>799.80999756</ele>
        <time>2021-03-30T12:29:34Z</time>
      </trkpt>
      <trkpt lat="42.247492" lon="2.3161711">
        <ele>800.32000732</ele>
        <time>2021-03-30T12:29:35Z</time>
      </trkpt>
      <trkpt lat="42.2475058" lon="2.3161869">
        <ele>800.83001709</ele>
        <time>2021-03-30T12:29:36Z</time>
      </trkpt>
      <trkpt lat="42.2475106" lon="2.3161768">
        <ele>801.5</ele>
        <time>2021-03-30T12:29:37Z</time>
      </trkpt>
      <trkpt lat="42.2475153" lon="2.3161638">
        <ele>801.54998779</ele>
        <time>2021-03-30T12:29:38Z</time>
      </trkpt>
      <trkpt lat="42.2475183" lon="2.3161326">
        <ele>801.47998047</ele>
        <time>2021-03-30T12:29:39Z</time>
      </trkpt>
      <trkpt lat="42.247517" lon="2.3161141">
        <ele>801.05999756</ele>
        <time>2021-03-30T12:29:40Z</time>
      </trkpt>
      <trkpt lat="42.2475203" lon="2.3160913">
        <ele>800.66998291</ele>
        <time>2021-03-30T12:29:41Z</time>
      </trkpt>
      <trkpt lat="42.2475326" lon="2.3160519">
        <ele>800.7199707</ele>
        <time>2021-03-30T12:29:42Z</time>
      </trkpt>
      <trkpt lat="42.2475285" lon="2.3160284">
        <ele>801.25</ele>
        <time>2021-03-30T12:29:43Z</time>
      </trkpt>
      <trkpt lat="42.2475302" lon="2.3159971">
        <ele>801.19000244</ele>
        <time>2021-03-30T12:29:44Z</time>
      </trkpt>
      <trkpt lat="42.2475283" lon="2.3159652">
        <ele>801.30999756</ele>
        <time>2021-03-30T12:29:45Z</time>
      </trkpt>
      <trkpt lat="42.2475389" lon="2.3159348">
        <ele>801.29998779</ele>
        <time>2021-03-30T12:29:46Z</time>
      </trkpt>
      <trkpt lat="42.2475333" lon="2.3159008">
        <ele>801.84002686</ele>
        <time>2021-03-30T12:29:47Z</time>
      </trkpt>
      <trkpt lat="42.2475429" lon="2.3158659">
        <ele>801.71002197</ele>
        <time>2021-03-30T12:29:48Z</time>
      </trkpt>
      <trkpt lat="42.247551" lon="2.3158357">
        <ele>802.25</ele>
        <time>2021-03-30T12:29:49Z</time>
      </trkpt>
      <trkpt lat="42.2475506" lon="2.3158045">
        <ele>802.80999756</ele>
        <time>2021-03-30T12:29:50Z</time>
      </trkpt>
      <trkpt lat="42.2475526" lon="2.3157714">
        <ele>802.84997559</ele>
        <time>2021-03-30T12:29:51Z</time>
      </trkpt>
      <trkpt lat="42.2475561" lon="2.3157355">
        <ele>802.96002197</ele>
        <time>2021-03-30T12:29:52Z</time>
      </trkpt>
      <trkpt lat="42.2475568" lon="2.3157015">
        <ele>803.15997314</ele>
        <time>2021-03-30T12:29:53Z</time>
      </trkpt>
      <trkpt lat="42.2475604" lon="2.3156688">
        <ele>803.21002197</ele>
        <time>2021-03-30T12:29:54Z</time>
      </trkpt>
      <trkpt lat="42.2475671" lon="2.3156362">
        <ele>803.40997314</ele>
        <time>2021-03-30T12:29:55Z</time>
      </trkpt>
      <trkpt lat="42.2475726" lon="2.3156077">
        <ele>803.7800293</ele>
        <time>2021-03-30T12:29:56Z</time>
      </trkpt>
      <trkpt lat="42.2475752" lon="2.3155737">
        <ele>804.09997559</ele>
        <time>2021-03-30T12:29:57Z</time>
      </trkpt>
      <trkpt lat="42.2475738" lon="2.3155395">
        <ele>804.27001953</ele>
        <time>2021-03-30T12:29:58Z</time>
      </trkpt>
      <trkpt lat="42.2475789" lon="2.315504">
        <ele>804.14001465</ele>
        <time>2021-03-30T12:29:59Z</time>
      </trkpt>
      <trkpt lat="42.2475842" lon="2.3154699">
        <ele>804.2199707</ele>
        <time>2021-03-30T12:30:00Z</time>
      </trkpt>
      <trkpt lat="42.2475907" lon="2.3154369">
        <ele>804.29998779</ele>
        <time>2021-03-30T12:30:01Z</time>
      </trkpt>
      <trkpt lat="42.2475947" lon="2.3154046">
        <ele>804.42999268</ele>
        <time>2021-03-30T12:30:02Z</time>
      </trkpt>
      <trkpt lat="42.247604" lon="2.315373">
        <ele>804.42999268</ele>
        <time>2021-03-30T12:30:03Z</time>
      </trkpt>
      <trkpt lat="42.247604" lon="2.3153431">
        <ele>804.61999512</ele>
        <time>2021-03-30T12:30:04Z</time>
      </trkpt>
      <trkpt lat="42.2476044" lon="2.3153129">
        <ele>804.44000244</ele>
        <time>2021-03-30T12:30:05Z</time>
      </trkpt>
      <trkpt lat="42.247606" lon="2.3152837">
        <ele>804.25</ele>
        <time>2021-03-30T12:30:06Z</time>
      </trkpt>
      <trkpt lat="42.2476107" lon="2.3152482">
        <ele>804.09002686</ele>
        <time>2021-03-30T12:30:07Z</time>
      </trkpt>
      <trkpt lat="42.2476142" lon="2.3152116">
        <ele>804.20001221</ele>
        <time>2021-03-30T12:30:08Z</time>
      </trkpt>
      <trkpt lat="42.2476213" lon="2.3151743">
        <ele>804.33001709</ele>
        <time>2021-03-30T12:30:09Z</time>
      </trkpt>
      <trkpt lat="42.2476293" lon="2.3151405">
        <ele>804.59002686</ele>
        <time>2021-03-30T12:30:10Z</time>
      </trkpt>
      <trkpt lat="42.2476378" lon="2.3150926">
        <ele>804.90002441</ele>
        <time>2021-03-30T12:30:11Z</time>
      </trkpt>
      <trkpt lat="42.2476406" lon="2.3150582">
        <ele>805.22998047</ele>
        <time>2021-03-30T12:30:12Z</time>
      </trkpt>
      <trkpt lat="42.2476427" lon="2.3150254">
        <ele>805.35998535</ele>
        <time>2021-03-30T12:30:13Z</time>
      </trkpt>
      <trkpt lat="42.247645" lon="2.314977">
        <ele>805.44000244</ele>
        <time>2021-03-30T12:30:14Z</time>
      </trkpt>
      <trkpt lat="42.2476422" lon="2.3149423">
        <ele>805.73999023</ele>
        <time>2021-03-30T12:30:15Z</time>
      </trkpt>
      <trkpt lat="42.2476338" lon="2.3149054">
        <ele>805.97998047</ele>
        <time>2021-03-30T12:30:16Z</time>
      </trkpt>
      <trkpt lat="42.247639" lon="2.3148707">
        <ele>805.98999023</ele>
        <time>2021-03-30T12:30:17Z</time>
      </trkpt>
      <trkpt lat="42.2476453" lon="2.314839">
        <ele>806.51000977</ele>
        <time>2021-03-30T12:30:18Z</time>
      </trkpt>
      <trkpt lat="42.2476426" lon="2.3148011">
        <ele>807.11999512</ele>
        <time>2021-03-30T12:30:19Z</time>
      </trkpt>
      <trkpt lat="42.2476335" lon="2.3147712">
        <ele>807.28997803</ele>
        <time>2021-03-30T12:30:20Z</time>
      </trkpt>
      <trkpt lat="42.2476319" lon="2.3147363">
        <ele>807.2800293</ele>
        <time>2021-03-30T12:30:21Z</time>
      </trkpt>
      <trkpt lat="42.2476231" lon="2.3147057">
        <ele>807.32000732</ele>
        <time>2021-03-30T12:30:22Z</time>
      </trkpt>
      <trkpt lat="42.2476209" lon="2.3146722">
        <ele>807.2800293</ele>
        <time>2021-03-30T12:30:23Z</time>
      </trkpt>
      <trkpt lat="42.2476156" lon="2.3146383">
        <ele>807.2199707</ele>
        <time>2021-03-30T12:30:24Z</time>
      </trkpt>
      <trkpt lat="42.2476072" lon="2.3146057">
        <ele>807.13000488</ele>
        <time>2021-03-30T12:30:25Z</time>
      </trkpt>
      <trkpt lat="42.2476032" lon="2.3145696">
        <ele>806.98999023</ele>
        <time>2021-03-30T12:30:26Z</time>
      </trkpt>
      <trkpt lat="42.2475995" lon="2.3145289">
        <ele>806.84002686</ele>
        <time>2021-03-30T12:30:27Z</time>
      </trkpt>
      <trkpt lat="42.2475973" lon="2.3144948">
        <ele>806.69000244</ele>
        <time>2021-03-30T12:30:28Z</time>
      </trkpt>
      <trkpt lat="42.2476046" lon="2.3144608">
        <ele>806.54998779</ele>
        <time>2021-03-30T12:30:29Z</time>
      </trkpt>
      <trkpt lat="42.2476136" lon="2.3144403">
        <ele>806.47998047</ele>
        <time>2021-03-30T12:30:30Z</time>
      </trkpt>
      <trkpt lat="42.2476141" lon="2.3144044">
        <ele>806.47998047</ele>
        <time>2021-03-30T12:30:31Z</time>
      </trkpt>
      <trkpt lat="42.2476122" lon="2.3143782">
        <ele>806.48999023</ele>
        <time>2021-03-30T12:30:32Z</time>
      </trkpt>
      <trkpt lat="42.2476129" lon="2.3143509">
        <ele>806.47998047</ele>
        <time>2021-03-30T12:30:33Z</time>
      </trkpt>
      <trkpt lat="42.2476045" lon="2.314313">
        <ele>806.47998047</ele>
        <time>2021-03-30T12:30:34Z</time>
      </trkpt>
      <trkpt lat="42.247605" lon="2.3142751">
        <ele>806.42999268</ele>
        <time>2021-03-30T12:30:35Z</time>
      </trkpt>
      <trkpt lat="42.2476099" lon="2.3142427">
        <ele>806.39001465</ele>
        <time>2021-03-30T12:30:36Z</time>
      </trkpt>
      <trkpt lat="42.2476164" lon="2.3142174">
        <ele>806.38000488</ele>
        <time>2021-03-30T12:30:37Z</time>
      </trkpt>
      <trkpt lat="42.2476171" lon="2.3141839">
        <ele>806.40997314</ele>
        <time>2021-03-30T12:30:38Z</time>
      </trkpt>
      <trkpt lat="42.2476216" lon="2.3141514">
        <ele>806.44000244</ele>
        <time>2021-03-30T12:30:39Z</time>
      </trkpt>
      <trkpt lat="42.2476343" lon="2.3141199">
        <ele>806.5</ele>
        <time>2021-03-30T12:30:40Z</time>
      </trkpt>
      <trkpt lat="42.2476476" lon="2.3140895">
        <ele>806.63000488</ele>
        <time>2021-03-30T12:30:41Z</time>
      </trkpt>
      <trkpt lat="42.2476516" lon="2.3140548">
        <ele>806.82000732</ele>
        <time>2021-03-30T12:30:42Z</time>
      </trkpt>
      <trkpt lat="42.2476581" lon="2.3140168">
        <ele>807.0300293</ele>
        <time>2021-03-30T12:30:43Z</time>
      </trkpt>
      <trkpt lat="42.2476482" lon="2.3139633">
        <ele>807.25</ele>
        <time>2021-03-30T12:30:44Z</time>
      </trkpt>
      <trkpt lat="42.2476441" lon="2.313953">
        <ele>807.39001465</ele>
        <time>2021-03-30T12:30:45Z</time>
      </trkpt>
      <trkpt lat="42.2476484" lon="2.3139326">
        <ele>807.5</ele>
        <time>2021-03-30T12:30:46Z</time>
      </trkpt>
      <trkpt lat="42.2476606" lon="2.3139113">
        <ele>807.60998535</ele>
        <time>2021-03-30T12:30:47Z</time>
      </trkpt>
      <trkpt lat="42.2476599" lon="2.3138783">
        <ele>807.7800293</ele>
        <time>2021-03-30T12:30:48Z</time>
      </trkpt>
      <trkpt lat="42.2476668" lon="2.3138464">
        <ele>807.95001221</ele>
        <time>2021-03-30T12:30:49Z</time>
      </trkpt>
      <trkpt lat="42.2476666" lon="2.3138269">
        <ele>808.16998291</ele>
        <time>2021-03-30T12:30:50Z</time>
      </trkpt>
      <trkpt lat="42.24767" lon="2.3138121">
        <ele>808.40002441</ele>
        <time>2021-03-30T12:30:51Z</time>
      </trkpt>
      <trkpt lat="42.2476765" lon="2.3137933">
        <ele>808.65002441</ele>
        <time>2021-03-30T12:30:52Z</time>
      </trkpt>
      <trkpt lat="42.2477071" lon="2.3137467">
        <ele>810.71002197</ele>
        <time>2021-03-30T12:30:59Z</time>
      </trkpt>
      <trkpt lat="42.2477034" lon="2.3137427">
        <ele>811.05999756</ele>
        <time>2021-03-30T12:31:00Z</time>
      </trkpt>
      <trkpt lat="42.2476939" lon="2.3137369">
        <ele>811.35998535</ele>
        <time>2021-03-30T12:31:01Z</time>
      </trkpt>
      <trkpt lat="42.2477004" lon="2.3137347">
        <ele>811.57000732</ele>
        <time>2021-03-30T12:31:02Z</time>
      </trkpt>
      <trkpt lat="42.2476967" lon="2.3137449">
        <ele>811.79998779</ele>
        <time>2021-03-30T12:31:03Z</time>
      </trkpt>
      <trkpt lat="42.2476986" lon="2.3137387">
        <ele>811.9699707</ele>
        <time>2021-03-30T12:31:04Z</time>
      </trkpt>
      <trkpt lat="42.2476946" lon="2.3137288">
        <ele>812.14001465</ele>
        <time>2021-03-30T12:31:05Z</time>
      </trkpt>
      <trkpt lat="42.2476863" lon="2.3137118">
        <ele>812.2800293</ele>
        <time>2021-03-30T12:31:06Z</time>
      </trkpt>
      <trkpt lat="42.2476814" lon="2.3136928">
        <ele>812.36999512</ele>
        <time>2021-03-30T12:31:07Z</time>
      </trkpt>
      <trkpt lat="42.2476703" lon="2.3136825">
        <ele>812.42999268</ele>
        <time>2021-03-30T12:31:08Z</time>
      </trkpt>
      <trkpt lat="42.2476855" lon="2.3135955">
        <ele>811.39001465</ele>
        <time>2021-03-30T12:31:20Z</time>
      </trkpt>
      <trkpt lat="42.2476895" lon="2.313589">
        <ele>811.2800293</ele>
        <time>2021-03-30T12:31:21Z</time>
      </trkpt>
      <trkpt lat="42.2476931" lon="2.313583">
        <ele>811.23999023</ele>
        <time>2021-03-30T12:31:22Z</time>
      </trkpt>
      <trkpt lat="42.2476918" lon="2.3135756">
        <ele>815.0300293</ele>
        <time>2021-03-30T12:31:23Z</time>
      </trkpt>
      <trkpt lat="42.2476886" lon="2.3135694">
        <ele>815.45001221</ele>
        <time>2021-03-30T12:31:24Z</time>
      </trkpt>
      <trkpt lat="42.2476854" lon="2.3135666">
        <ele>815.38000488</ele>
        <time>2021-03-30T12:31:25Z</time>
      </trkpt>
      <trkpt lat="42.247685" lon="2.3135563">
        <ele>815.19000244</ele>
        <time>2021-03-30T12:31:26Z</time>
      </trkpt>
      <trkpt lat="42.247688" lon="2.3135411">
        <ele>815.32000732</ele>
        <time>2021-03-30T12:31:27Z</time>
      </trkpt>
      <trkpt lat="42.2476835" lon="2.3135279">
        <ele>815.80999756</ele>
        <time>2021-03-30T12:31:28Z</time>
      </trkpt>
      <trkpt lat="42.2476856" lon="2.3135238">
        <ele>815.7800293</ele>
        <time>2021-03-30T12:31:29Z</time>
      </trkpt>
      <trkpt lat="42.2476865" lon="2.3135082">
        <ele>816</ele>
        <time>2021-03-30T12:31:30Z</time>
      </trkpt>
      <trkpt lat="42.2476938" lon="2.3134592">
        <ele>815.16998291</ele>
        <time>2021-03-30T12:31:32Z</time>
      </trkpt>
      <trkpt lat="42.2477028" lon="2.313447">
        <ele>814.2800293</ele>
        <time>2021-03-30T12:31:33Z</time>
      </trkpt>
      <trkpt lat="42.2477095" lon="2.3134389">
        <ele>813.67999268</ele>
        <time>2021-03-30T12:31:34Z</time>
      </trkpt>
      <trkpt lat="42.2477196" lon="2.3134268">
        <ele>813.38000488</ele>
        <time>2021-03-30T12:31:35Z</time>
      </trkpt>
      <trkpt lat="42.2477326" lon="2.313416">
        <ele>813.23999023</ele>
        <time>2021-03-30T12:31:36Z</time>
      </trkpt>
      <trkpt lat="42.2477414" lon="2.3134147">
        <ele>813.23999023</ele>
        <time>2021-03-30T12:31:37Z</time>
      </trkpt>
      <trkpt lat="42.2477471" lon="2.3134061">
        <ele>813.34997559</ele>
        <time>2021-03-30T12:31:38Z</time>
      </trkpt>
      <trkpt lat="42.2477485" lon="2.3133914">
        <ele>813.59002686</ele>
        <time>2021-03-30T12:31:39Z</time>
      </trkpt>
      <trkpt lat="42.247749" lon="2.3133821">
        <ele>813.90002441</ele>
        <time>2021-03-30T12:31:40Z</time>
      </trkpt>
      <trkpt lat="42.2477526" lon="2.3133778">
        <ele>814.23999023</ele>
        <time>2021-03-30T12:31:41Z</time>
      </trkpt>
      <trkpt lat="42.2477618" lon="2.3133813">
        <ele>814.65997314</ele>
        <time>2021-03-30T12:31:42Z</time>
      </trkpt>
      <trkpt lat="42.2477649" lon="2.3133768">
        <ele>823.70001221</ele>
        <time>2021-03-30T12:31:43Z</time>
      </trkpt>
      <trkpt lat="42.2477644" lon="2.3133706">
        <ele>824.90002441</ele>
        <time>2021-03-30T12:31:44Z</time>
      </trkpt>
      <trkpt lat="42.2477719" lon="2.313352">
        <ele>825.09002686</ele>
        <time>2021-03-30T12:31:45Z</time>
      </trkpt>
      <trkpt lat="42.2477733" lon="2.3133329">
        <ele>825.96002197</ele>
        <time>2021-03-30T12:31:46Z</time>
      </trkpt>
      <trkpt lat="42.2477685" lon="2.3133169">
        <ele>826.4699707</ele>
        <time>2021-03-30T12:31:47Z</time>
      </trkpt>
      <trkpt lat="42.2477671" lon="2.3133034">
        <ele>826.20001221</ele>
        <time>2021-03-30T12:31:48Z</time>
      </trkpt>
      <trkpt lat="42.2477581" lon="2.3133006">
        <ele>826.09997559</ele>
        <time>2021-03-30T12:31:49Z</time>
      </trkpt>
      <trkpt lat="42.2477519" lon="2.3132992">
        <ele>825.5</ele>
        <time>2021-03-30T12:31:50Z</time>
      </trkpt>
      <trkpt lat="42.2477486" lon="2.3132949">
        <ele>825</ele>
        <time>2021-03-30T12:31:52Z</time>
      </trkpt>
      <trkpt lat="42.2476883" lon="2.3132285">
        <ele>821.39001465</ele>
        <time>2021-03-30T12:32:02Z</time>
      </trkpt>
      <trkpt lat="42.2476887" lon="2.313217">
        <ele>821.25</ele>
        <time>2021-03-30T12:32:03Z</time>
      </trkpt>
      <trkpt lat="42.2476855" lon="2.3132015">
        <ele>821.39001465</ele>
        <time>2021-03-30T12:32:04Z</time>
      </trkpt>
      <trkpt lat="42.2476832" lon="2.3131935">
        <ele>821.40997314</ele>
        <time>2021-03-30T12:32:05Z</time>
      </trkpt>
      <trkpt lat="42.2476715" lon="2.313182">
        <ele>821.38000488</ele>
        <time>2021-03-30T12:32:06Z</time>
      </trkpt>
      <trkpt lat="42.2476579" lon="2.3131496">
        <ele>820.52001953</ele>
        <time>2021-03-30T12:32:25Z</time>
      </trkpt>
      <trkpt lat="42.2476507" lon="2.313137">
        <ele>820.63000488</ele>
        <time>2021-03-30T12:32:26Z</time>
      </trkpt>
      <trkpt lat="42.2476529" lon="2.3131206">
        <ele>820.5</ele>
        <time>2021-03-30T12:32:27Z</time>
      </trkpt>
      <trkpt lat="42.2476394" lon="2.3131046">
        <ele>820.84997559</ele>
        <time>2021-03-30T12:32:28Z</time>
      </trkpt>
      <trkpt lat="42.2476347" lon="2.3130974">
        <ele>820.58001709</ele>
        <time>2021-03-30T12:32:29Z</time>
      </trkpt>
      <trkpt lat="42.2476299" lon="2.3130939">
        <ele>820.48999023</ele>
        <time>2021-03-30T12:32:30Z</time>
      </trkpt>
      <trkpt lat="42.2476231" lon="2.3130904">
        <ele>820.35998535</ele>
        <time>2021-03-30T12:32:31Z</time>
      </trkpt>
      <trkpt lat="42.2476199" lon="2.3130798">
        <ele>820.14001465</ele>
        <time>2021-03-30T12:32:32Z</time>
      </trkpt>
      <trkpt lat="42.2476132" lon="2.3130701">
        <ele>820.20001221</ele>
        <time>2021-03-30T12:32:33Z</time>
      </trkpt>
      <trkpt lat="42.2476094" lon="2.3130657">
        <ele>820.15002441</ele>
        <time>2021-03-30T12:32:34Z</time>
      </trkpt>
      <trkpt lat="42.2476086" lon="2.3130454">
        <ele>820.35998535</ele>
        <time>2021-03-30T12:32:37Z</time>
      </trkpt>
      <trkpt lat="42.2476079" lon="2.3130324">
        <ele>820.59002686</ele>
        <time>2021-03-30T12:32:38Z</time>
      </trkpt>
      <trkpt lat="42.2476046" lon="2.3130216">
        <ele>820.96002197</ele>
        <time>2021-03-30T12:32:39Z</time>
      </trkpt>
      <trkpt lat="42.2475988" lon="2.3130062">
        <ele>821.19000244</ele>
        <time>2021-03-30T12:32:40Z</time>
      </trkpt>
      <trkpt lat="42.2475971" lon="2.3129893">
        <ele>821.4699707</ele>
        <time>2021-03-30T12:32:41Z</time>
      </trkpt>
      <trkpt lat="42.2476012" lon="2.3129844">
        <ele>821.92999268</ele>
        <time>2021-03-30T12:32:42Z</time>
      </trkpt>
      <trkpt lat="42.2475933" lon="2.3129739">
        <ele>822.0300293</ele>
        <time>2021-03-30T12:32:51Z</time>
      </trkpt>
      <trkpt lat="42.2475924" lon="2.3129563">
        <ele>822.32000732</ele>
        <time>2021-03-30T12:32:52Z</time>
      </trkpt>
      <trkpt lat="42.2475887" lon="2.3129354">
        <ele>822.83001709</ele>
        <time>2021-03-30T12:32:53Z</time>
      </trkpt>
      <trkpt lat="42.2475814" lon="2.3129175">
        <ele>823.39001465</ele>
        <time>2021-03-30T12:32:54Z</time>
      </trkpt>
      <trkpt lat="42.2475748" lon="2.3128973">
        <ele>823.7800293</ele>
        <time>2021-03-30T12:32:55Z</time>
      </trkpt>
      <trkpt lat="42.2475688" lon="2.3128718">
        <ele>824.25</ele>
        <time>2021-03-30T12:32:56Z</time>
      </trkpt>
      <trkpt lat="42.2475573" lon="2.3128505">
        <ele>824.92999268</ele>
        <time>2021-03-30T12:32:57Z</time>
      </trkpt>
      <trkpt lat="42.2475446" lon="2.3128361">
        <ele>825.40002441</ele>
        <time>2021-03-30T12:32:58Z</time>
      </trkpt>
      <trkpt lat="42.2475278" lon="2.3128202">
        <ele>825.63000488</ele>
        <time>2021-03-30T12:32:59Z</time>
      </trkpt>
      <trkpt lat="42.2475086" lon="2.3128014">
        <ele>825.82000732</ele>
        <time>2021-03-30T12:33:00Z</time>
      </trkpt>
      <trkpt lat="42.2474891" lon="2.3127787">
        <ele>826.09997559</ele>
        <time>2021-03-30T12:33:01Z</time>
      </trkpt>
      <trkpt lat="42.2474709" lon="2.3127474">
        <ele>826.38000488</ele>
        <time>2021-03-30T12:33:02Z</time>
      </trkpt>
      <trkpt lat="42.2474534" lon="2.3127093">
        <ele>826.39001465</ele>
        <time>2021-03-30T12:33:03Z</time>
      </trkpt>
      <trkpt lat="42.2474492" lon="2.3126749">
        <ele>826.59002686</ele>
        <time>2021-03-30T12:33:04Z</time>
      </trkpt>
      <trkpt lat="42.247439" lon="2.312645">
        <ele>827.19000244</ele>
        <time>2021-03-30T12:33:05Z</time>
      </trkpt>
      <trkpt lat="42.2474301" lon="2.3126277">
        <ele>827.59997559</ele>
        <time>2021-03-30T12:33:06Z</time>
      </trkpt>
      <trkpt lat="42.2474094" lon="2.3126142">
        <ele>827.7800293</ele>
        <time>2021-03-30T12:33:07Z</time>
      </trkpt>
      <trkpt lat="42.2473862" lon="2.3126044">
        <ele>827.58001709</ele>
        <time>2021-03-30T12:33:08Z</time>
      </trkpt>
      <trkpt lat="42.2473608" lon="2.3125899">
        <ele>827.22998047</ele>
        <time>2021-03-30T12:33:09Z</time>
      </trkpt>
      <trkpt lat="42.2473478" lon="2.3125825">
        <ele>826.9699707</ele>
        <time>2021-03-30T12:33:10Z</time>
      </trkpt>
      <trkpt lat="42.2473312" lon="2.3125758">
        <ele>826.84002686</ele>
        <time>2021-03-30T12:33:11Z</time>
      </trkpt>
      <trkpt lat="42.2473136" lon="2.312571">
        <ele>826.64001465</ele>
        <time>2021-03-30T12:33:12Z</time>
      </trkpt>
      <trkpt lat="42.2472909" lon="2.312563">
        <ele>826.36999512</ele>
        <time>2021-03-30T12:33:13Z</time>
      </trkpt>
      <trkpt lat="42.2472683" lon="2.3125598">
        <ele>826.09002686</ele>
        <time>2021-03-30T12:33:14Z</time>
      </trkpt>
      <trkpt lat="42.247244" lon="2.3125512">
        <ele>825.67999268</ele>
        <time>2021-03-30T12:33:15Z</time>
      </trkpt>
      <trkpt lat="42.2472163" lon="2.3125424">
        <ele>825.40997314</ele>
        <time>2021-03-30T12:33:16Z</time>
      </trkpt>
      <trkpt lat="42.2471896" lon="2.3125357">
        <ele>825.14001465</ele>
        <time>2021-03-30T12:33:17Z</time>
      </trkpt>
      <trkpt lat="42.247166" lon="2.3125341">
        <ele>824.88000488</ele>
        <time>2021-03-30T12:33:18Z</time>
      </trkpt>
      <trkpt lat="42.2471396" lon="2.3125425">
        <ele>824.5</ele>
        <time>2021-03-30T12:33:19Z</time>
      </trkpt>
      <trkpt lat="42.2471174" lon="2.3125484">
        <ele>823.70001221</ele>
        <time>2021-03-30T12:33:20Z</time>
      </trkpt>
      <trkpt lat="42.2471003" lon="2.3125609">
        <ele>823.0300293</ele>
        <time>2021-03-30T12:33:21Z</time>
      </trkpt>
      <trkpt lat="42.2470813" lon="2.3125778">
        <ele>822.22998047</ele>
        <time>2021-03-30T12:33:22Z</time>
      </trkpt>
      <trkpt lat="42.2470605" lon="2.3125942">
        <ele>821.2199707</ele>
        <time>2021-03-30T12:33:23Z</time>
      </trkpt>
      <trkpt lat="42.2470512" lon="2.3126039">
        <ele>820.19000244</ele>
        <time>2021-03-30T12:33:24Z</time>
      </trkpt>
      <trkpt lat="42.2470297" lon="2.3126156">
        <ele>819.58001709</ele>
        <time>2021-03-30T12:33:25Z</time>
      </trkpt>
      <trkpt lat="42.2470134" lon="2.3126282">
        <ele>818.73999023</ele>
        <time>2021-03-30T12:33:26Z</time>
      </trkpt>
      <trkpt lat="42.2469942" lon="2.3126328">
        <ele>817.92999268</ele>
        <time>2021-03-30T12:33:27Z</time>
      </trkpt>
      <trkpt lat="42.2469735" lon="2.3126376">
        <ele>817.34997559</ele>
        <time>2021-03-30T12:33:28Z</time>
      </trkpt>
      <trkpt lat="42.2469587" lon="2.3126469">
        <ele>816.77001953</ele>
        <time>2021-03-30T12:33:29Z</time>
      </trkpt>
      <trkpt lat="42.2469372" lon="2.3126482">
        <ele>816.11999512</ele>
        <time>2021-03-30T12:33:30Z</time>
      </trkpt>
      <trkpt lat="42.2469227" lon="2.312647">
        <ele>815.64001465</ele>
        <time>2021-03-30T12:33:31Z</time>
      </trkpt>
      <trkpt lat="42.2469058" lon="2.31265">
        <ele>815.38000488</ele>
        <time>2021-03-30T12:33:32Z</time>
      </trkpt>
      <trkpt lat="42.2468857" lon="2.3126474">
        <ele>814.95001221</ele>
        <time>2021-03-30T12:33:33Z</time>
      </trkpt>
      <trkpt lat="42.2468675" lon="2.3126445">
        <ele>814.65002441</ele>
        <time>2021-03-30T12:33:34Z</time>
      </trkpt>
      <trkpt lat="42.2468533" lon="2.3126479">
        <ele>814.40002441</ele>
        <time>2021-03-30T12:33:35Z</time>
      </trkpt>
      <trkpt lat="42.246851" lon="2.3126632">
        <ele>814.01000977</ele>
        <time>2021-03-30T12:33:36Z</time>
      </trkpt>
      <trkpt lat="42.2468446" lon="2.3126684">
        <ele>813.40002441</ele>
        <time>2021-03-30T12:33:37Z</time>
      </trkpt>
      <trkpt lat="42.2468397" lon="2.3126829">
        <ele>813.03997803</ele>
        <time>2021-03-30T12:33:38Z</time>
      </trkpt>
      <trkpt lat="42.2468294" lon="2.3126932">
        <ele>812.40997314</ele>
        <time>2021-03-30T12:33:39Z</time>
      </trkpt>
      <trkpt lat="42.2468206" lon="2.3126856">
        <ele>811.80999756</ele>
        <time>2021-03-30T12:33:40Z</time>
      </trkpt>
      <trkpt lat="42.2468134" lon="2.3126822">
        <ele>811.85998535</ele>
        <time>2021-03-30T12:33:41Z</time>
      </trkpt>
      <trkpt lat="42.2468082" lon="2.3126608">
        <ele>811.85998535</ele>
        <time>2021-03-30T12:33:42Z</time>
      </trkpt>
      <trkpt lat="42.2468005" lon="2.3126305">
        <ele>812.52001953</ele>
        <time>2021-03-30T12:33:43Z</time>
      </trkpt>
      <trkpt lat="42.246794" lon="2.3126077">
        <ele>813.51000977</ele>
        <time>2021-03-30T12:33:44Z</time>
      </trkpt>
      <trkpt lat="42.2467886" lon="2.3125963">
        <ele>814.28997803</ele>
        <time>2021-03-30T12:33:45Z</time>
      </trkpt>
      <trkpt lat="42.2467856" lon="2.3125877">
        <ele>814.66998291</ele>
        <time>2021-03-30T12:33:46Z</time>
      </trkpt>
      <trkpt lat="42.2467696" lon="2.3125698">
        <ele>814.96002197</ele>
        <time>2021-03-30T12:33:47Z</time>
      </trkpt>
      <trkpt lat="42.2467524" lon="2.3125605">
        <ele>815.33001709</ele>
        <time>2021-03-30T12:33:48Z</time>
      </trkpt>
      <trkpt lat="42.246727" lon="2.3125448">
        <ele>815.39001465</ele>
        <time>2021-03-30T12:33:49Z</time>
      </trkpt>
      <trkpt lat="42.2466955" lon="2.3125406">
        <ele>815.5</ele>
        <time>2021-03-30T12:33:50Z</time>
      </trkpt>
      <trkpt lat="42.2466646" lon="2.3125319">
        <ele>815.10998535</ele>
        <time>2021-03-30T12:33:51Z</time>
      </trkpt>
      <trkpt lat="42.246641" lon="2.312539">
        <ele>814.84002686</ele>
        <time>2021-03-30T12:33:52Z</time>
      </trkpt>
      <trkpt lat="42.2466258" lon="2.3125452">
        <ele>814.21002197</ele>
        <time>2021-03-30T12:33:53Z</time>
      </trkpt>
      <trkpt lat="42.2466118" lon="2.3125572">
        <ele>813.7199707</ele>
        <time>2021-03-30T12:33:54Z</time>
      </trkpt>
      <trkpt lat="42.2466017" lon="2.3125709">
        <ele>813.09002686</ele>
        <time>2021-03-30T12:33:55Z</time>
      </trkpt>
      <trkpt lat="42.246591" lon="2.312578">
        <ele>812.46002197</ele>
        <time>2021-03-30T12:33:56Z</time>
      </trkpt>
      <trkpt lat="42.2465786" lon="2.3125863">
        <ele>812.04998779</ele>
        <time>2021-03-30T12:33:57Z</time>
      </trkpt>
      <trkpt lat="42.2465543" lon="2.3125918">
        <ele>811.60998535</ele>
        <time>2021-03-30T12:33:58Z</time>
      </trkpt>
      <trkpt lat="42.2465394" lon="2.3125993">
        <ele>811.11999512</ele>
        <time>2021-03-30T12:33:59Z</time>
      </trkpt>
      <trkpt lat="42.2465213" lon="2.3126058">
        <ele>810.69000244</ele>
        <time>2021-03-30T12:34:00Z</time>
      </trkpt>
      <trkpt lat="42.246498" lon="2.3126079">
        <ele>810.2800293</ele>
        <time>2021-03-30T12:34:01Z</time>
      </trkpt>
      <trkpt lat="42.2464789" lon="2.3126122">
        <ele>809.92999268</ele>
        <time>2021-03-30T12:34:02Z</time>
      </trkpt>
      <trkpt lat="42.2464625" lon="2.3126243">
        <ele>809.59002686</ele>
        <time>2021-03-30T12:34:03Z</time>
      </trkpt>
      <trkpt lat="42.2464411" lon="2.3126371">
        <ele>809.11999512</ele>
        <time>2021-03-30T12:34:04Z</time>
      </trkpt>
      <trkpt lat="42.246422" lon="2.3126457">
        <ele>808.59997559</ele>
        <time>2021-03-30T12:34:05Z</time>
      </trkpt>
      <trkpt lat="42.2463954" lon="2.312654">
        <ele>808.21002197</ele>
        <time>2021-03-30T12:34:06Z</time>
      </trkpt>
      <trkpt lat="42.2463736" lon="2.3126523">
        <ele>807.80999756</ele>
        <time>2021-03-30T12:34:07Z</time>
      </trkpt>
      <trkpt lat="42.246359" lon="2.312631">
        <ele>807.59997559</ele>
        <time>2021-03-30T12:34:08Z</time>
      </trkpt>
      <trkpt lat="42.2463463" lon="2.3126052">
        <ele>807.84997559</ele>
        <time>2021-03-30T12:34:09Z</time>
      </trkpt>
      <trkpt lat="42.2463307" lon="2.3125885">
        <ele>808.28997803</ele>
        <time>2021-03-30T12:34:10Z</time>
      </trkpt>
      <trkpt lat="42.2463075" lon="2.3125793">
        <ele>808.58001709</ele>
        <time>2021-03-30T12:34:11Z</time>
      </trkpt>
      <trkpt lat="42.2462843" lon="2.3125749">
        <ele>808.69000244</ele>
        <time>2021-03-30T12:34:12Z</time>
      </trkpt>
      <trkpt lat="42.2462623" lon="2.3125722">
        <ele>808.69000244</ele>
        <time>2021-03-30T12:34:13Z</time>
      </trkpt>
      <trkpt lat="42.2462431" lon="2.3125779">
        <ele>808.65997314</ele>
        <time>2021-03-30T12:34:14Z</time>
      </trkpt>
      <trkpt lat="42.2462196" lon="2.3125779">
        <ele>808.41998291</ele>
        <time>2021-03-30T12:34:15Z</time>
      </trkpt>
      <trkpt lat="42.2462024" lon="2.3125838">
        <ele>808.2800293</ele>
        <time>2021-03-30T12:34:16Z</time>
      </trkpt>
      <trkpt lat="42.2461791" lon="2.3125777">
        <ele>808.01000977</ele>
        <time>2021-03-30T12:34:17Z</time>
      </trkpt>
      <trkpt lat="42.2461572" lon="2.3125733">
        <ele>808.03997803</ele>
        <time>2021-03-30T12:34:18Z</time>
      </trkpt>
      <trkpt lat="42.2461347" lon="2.3125641">
        <ele>808.08001709</ele>
        <time>2021-03-30T12:34:19Z</time>
      </trkpt>
      <trkpt lat="42.246118" lon="2.3125521">
        <ele>808.28997803</ele>
        <time>2021-03-30T12:34:20Z</time>
      </trkpt>
      <trkpt lat="42.2461061" lon="2.312546">
        <ele>808.65002441</ele>
        <time>2021-03-30T12:34:21Z</time>
      </trkpt>
      <trkpt lat="42.2460966" lon="2.3125326">
        <ele>808.72998047</ele>
        <time>2021-03-30T12:34:22Z</time>
      </trkpt>
      <trkpt lat="42.2460938" lon="2.3125272">
        <ele>808.88000488</ele>
        <time>2021-03-30T12:34:23Z</time>
      </trkpt>
      <trkpt lat="42.2460912" lon="2.3125164">
        <ele>808.98999023</ele>
        <time>2021-03-30T12:34:24Z</time>
      </trkpt>
      <trkpt lat="42.2460888" lon="2.3125146">
        <ele>809.2800293</ele>
        <time>2021-03-30T12:34:25Z</time>
      </trkpt>
      <trkpt lat="42.2460796" lon="2.3124941">
        <ele>809.25</ele>
        <time>2021-03-30T12:34:29Z</time>
      </trkpt>
      <trkpt lat="42.2460765" lon="2.3124879">
        <ele>809.54998779</ele>
        <time>2021-03-30T12:34:30Z</time>
      </trkpt>
      <trkpt lat="42.2460656" lon="2.3124847">
        <ele>809.58001709</ele>
        <time>2021-03-30T12:34:31Z</time>
      </trkpt>
      <trkpt lat="42.2460546" lon="2.3124731">
        <ele>809.26000977</ele>
        <time>2021-03-30T12:34:32Z</time>
      </trkpt>
      <trkpt lat="42.2460471" lon="2.3124647">
        <ele>809.04998779</ele>
        <time>2021-03-30T12:34:33Z</time>
      </trkpt>
      <trkpt lat="42.2460406" lon="2.3124579">
        <ele>808.90997314</ele>
        <time>2021-03-30T12:34:34Z</time>
      </trkpt>
      <trkpt lat="42.2460309" lon="2.3124422">
        <ele>808.78997803</ele>
        <time>2021-03-30T12:34:35Z</time>
      </trkpt>
      <trkpt lat="42.2460292" lon="2.3124304">
        <ele>808.71002197</ele>
        <time>2021-03-30T12:34:36Z</time>
      </trkpt>
      <trkpt lat="42.2460273" lon="2.3124338">
        <ele>808.84997559</ele>
        <time>2021-03-30T12:34:38Z</time>
      </trkpt>
      <trkpt lat="42.2460198" lon="2.312431">
        <ele>808.73999023</ele>
        <time>2021-03-30T12:34:39Z</time>
      </trkpt>
      <trkpt lat="42.2460103" lon="2.3124294">
        <ele>808.51000977</ele>
        <time>2021-03-30T12:34:40Z</time>
      </trkpt>
      <trkpt lat="42.2460073" lon="2.3124281">
        <ele>808.19000244</ele>
        <time>2021-03-30T12:34:41Z</time>
      </trkpt>
      <trkpt lat="42.24601" lon="2.3124233">
        <ele>808.07000732</ele>
        <time>2021-03-30T12:34:42Z</time>
      </trkpt>
      <trkpt lat="42.2460084" lon="2.3124199">
        <ele>808.23999023</ele>
        <time>2021-03-30T12:34:43Z</time>
      </trkpt>
      <trkpt lat="42.246009" lon="2.3124175">
        <ele>808.26000977</ele>
        <time>2021-03-30T12:34:44Z</time>
      </trkpt>
      <trkpt lat="42.2459328" lon="2.3123238">
        <ele>807.38000488</ele>
        <time>2021-03-30T12:34:59Z</time>
      </trkpt>
      <trkpt lat="42.2459209" lon="2.3123202">
        <ele>807.21002197</ele>
        <time>2021-03-30T12:35:00Z</time>
      </trkpt>
      <trkpt lat="42.2459116" lon="2.3123193">
        <ele>806.84002686</ele>
        <time>2021-03-30T12:35:01Z</time>
      </trkpt>
      <trkpt lat="42.2459089" lon="2.3123032">
        <ele>806.5</ele>
        <time>2021-03-30T12:35:02Z</time>
      </trkpt>
      <trkpt lat="42.2459026" lon="2.3123033">
        <ele>806.65002441</ele>
        <time>2021-03-30T12:35:03Z</time>
      </trkpt>
      <trkpt lat="42.2458977" lon="2.312303">
        <ele>806.44000244</ele>
        <time>2021-03-30T12:35:04Z</time>
      </trkpt>
      <trkpt lat="42.2458918" lon="2.3122953">
        <ele>806.26000977</ele>
        <time>2021-03-30T12:35:05Z</time>
      </trkpt>
      <trkpt lat="42.2458809" lon="2.3122822">
        <ele>806.16998291</ele>
        <time>2021-03-30T12:35:06Z</time>
      </trkpt>
      <trkpt lat="42.245865" lon="2.312266">
        <ele>806</ele>
        <time>2021-03-30T12:35:07Z</time>
      </trkpt>
      <trkpt lat="42.2458508" lon="2.3122571">
        <ele>805.71002197</ele>
        <time>2021-03-30T12:35:08Z</time>
      </trkpt>
      <trkpt lat="42.2458341" lon="2.3122546">
        <ele>805.34002686</ele>
        <time>2021-03-30T12:35:09Z</time>
      </trkpt>
      <trkpt lat="42.245828" lon="2.3122458">
        <ele>804.77001953</ele>
        <time>2021-03-30T12:35:10Z</time>
      </trkpt>
      <trkpt lat="42.2458006" lon="2.3122326">
        <ele>803.78997803</ele>
        <time>2021-03-30T12:35:15Z</time>
      </trkpt>
      <trkpt lat="42.245793" lon="2.3122315">
        <ele>803.83001709</ele>
        <time>2021-03-30T12:35:16Z</time>
      </trkpt>
      <trkpt lat="42.2457848" lon="2.3122304">
        <ele>803.59002686</ele>
        <time>2021-03-30T12:35:17Z</time>
      </trkpt>
      <trkpt lat="42.2457777" lon="2.3122281">
        <ele>803.28997803</ele>
        <time>2021-03-30T12:35:18Z</time>
      </trkpt>
      <trkpt lat="42.2457705" lon="2.3122175">
        <ele>803.05999756</ele>
        <time>2021-03-30T12:35:19Z</time>
      </trkpt>
      <trkpt lat="42.245772" lon="2.312199">
        <ele>802.96002197</ele>
        <time>2021-03-30T12:35:20Z</time>
      </trkpt>
      <trkpt lat="42.2457636" lon="2.3121913">
        <ele>803.33001709</ele>
        <time>2021-03-30T12:35:21Z</time>
      </trkpt>
      <trkpt lat="42.2457542" lon="2.3121873">
        <ele>803.21002197</ele>
        <time>2021-03-30T12:35:22Z</time>
      </trkpt>
      <trkpt lat="42.2457422" lon="2.3121887">
        <ele>802.94000244</ele>
        <time>2021-03-30T12:35:23Z</time>
      </trkpt>
      <trkpt lat="42.2457361" lon="2.3121846">
        <ele>802.4699707</ele>
        <time>2021-03-30T12:35:24Z</time>
      </trkpt>
      <trkpt lat="42.2457268" lon="2.3121811">
        <ele>802.2800293</ele>
        <time>2021-03-30T12:35:25Z</time>
      </trkpt>
      <trkpt lat="42.2457176" lon="2.3121795">
        <ele>802</ele>
        <time>2021-03-30T12:35:26Z</time>
      </trkpt>
      <trkpt lat="42.2457129" lon="2.3121791">
        <ele>801.66998291</ele>
        <time>2021-03-30T12:35:27Z</time>
      </trkpt>
      <trkpt lat="42.2456939" lon="2.3121521">
        <ele>801.28997803</ele>
        <time>2021-03-30T12:35:30Z</time>
      </trkpt>
      <trkpt lat="42.2456888" lon="2.3121414">
        <ele>801.26000977</ele>
        <time>2021-03-30T12:35:31Z</time>
      </trkpt>
      <trkpt lat="42.2456869" lon="2.3121473">
        <ele>801.26000977</ele>
        <time>2021-03-30T12:35:32Z</time>
      </trkpt>
      <trkpt lat="42.2456737" lon="2.3121369">
        <ele>801.09002686</ele>
        <time>2021-03-30T12:35:33Z</time>
      </trkpt>
      <trkpt lat="42.2456618" lon="2.3121264">
        <ele>800.79998779</ele>
        <time>2021-03-30T12:35:34Z</time>
      </trkpt>
      <trkpt lat="42.2456504" lon="2.3121214">
        <ele>800.5300293</ele>
        <time>2021-03-30T12:35:35Z</time>
      </trkpt>
      <trkpt lat="42.245643" lon="2.3121163">
        <ele>800.20001221</ele>
        <time>2021-03-30T12:35:36Z</time>
      </trkpt>
      <trkpt lat="42.2456366" lon="2.312108">
        <ele>799.98999023</ele>
        <time>2021-03-30T12:35:37Z</time>
      </trkpt>
      <trkpt lat="42.2456277" lon="2.3120993">
        <ele>799.90002441</ele>
        <time>2021-03-30T12:35:38Z</time>
      </trkpt>
      <trkpt lat="42.2456211" lon="2.3121005">
        <ele>799.72998047</ele>
        <time>2021-03-30T12:35:39Z</time>
      </trkpt>
      <trkpt lat="42.2456108" lon="2.3121086">
        <ele>799.45001221</ele>
        <time>2021-03-30T12:35:40Z</time>
      </trkpt>
      <trkpt lat="42.2456022" lon="2.3121016">
        <ele>798.92999268</ele>
        <time>2021-03-30T12:35:41Z</time>
      </trkpt>
      <trkpt lat="42.2456019" lon="2.3120967">
        <ele>798.70001221</ele>
        <time>2021-03-30T12:35:42Z</time>
      </trkpt>
      <trkpt lat="42.2455978" lon="2.3120883">
        <ele>798.75</ele>
        <time>2021-03-30T12:35:43Z</time>
      </trkpt>
      <trkpt lat="42.2455906" lon="2.3120832">
        <ele>798.76000977</ele>
        <time>2021-03-30T12:35:44Z</time>
      </trkpt>
      <trkpt lat="42.2455817" lon="2.3120773">
        <ele>798.59997559</ele>
        <time>2021-03-30T12:35:45Z</time>
      </trkpt>
      <trkpt lat="42.2455766" lon="2.3120759">
        <ele>798.36999512</ele>
        <time>2021-03-30T12:35:46Z</time>
      </trkpt>
      <trkpt lat="42.2455678" lon="2.31207">
        <ele>798.20001221</ele>
        <time>2021-03-30T12:35:47Z</time>
      </trkpt>
      <trkpt lat="42.2455642" lon="2.3120662">
        <ele>797.97998047</ele>
        <time>2021-03-30T12:35:48Z</time>
      </trkpt>
      <trkpt lat="42.2455548" lon="2.312046">
        <ele>797.89001465</ele>
        <time>2021-03-30T12:35:49Z</time>
      </trkpt>
      <trkpt lat="42.2455386" lon="2.3120091">
        <ele>797.91998291</ele>
        <time>2021-03-30T12:35:50Z</time>
      </trkpt>
      <trkpt lat="42.2455254" lon="2.3119978">
        <ele>798.28997803</ele>
        <time>2021-03-30T12:35:51Z</time>
      </trkpt>
      <trkpt lat="42.2455157" lon="2.311995">
        <ele>798.28997803</ele>
        <time>2021-03-30T12:35:52Z</time>
      </trkpt>
      <trkpt lat="42.2455021" lon="2.311986">
        <ele>798.16998291</ele>
        <time>2021-03-30T12:35:53Z</time>
      </trkpt>
      <trkpt lat="42.2454968" lon="2.311974">
        <ele>798.08001709</ele>
        <time>2021-03-30T12:35:54Z</time>
      </trkpt>
      <trkpt lat="42.2454825" lon="2.3119797">
        <ele>798.09002686</ele>
        <time>2021-03-30T12:35:56Z</time>
      </trkpt>
      <trkpt lat="42.2454776" lon="2.3119788">
        <ele>797.84002686</ele>
        <time>2021-03-30T12:35:57Z</time>
      </trkpt>
      <trkpt lat="42.2454804" lon="2.3119848">
        <ele>797.73999023</ele>
        <time>2021-03-30T12:35:58Z</time>
      </trkpt>
      <trkpt lat="42.2454805" lon="2.3119868">
        <ele>797.67999268</ele>
        <time>2021-03-30T12:35:59Z</time>
      </trkpt>
      <trkpt lat="42.245471" lon="2.3119856">
        <ele>797.64001465</ele>
        <time>2021-03-30T12:36:00Z</time>
      </trkpt>
      <trkpt lat="42.2454643" lon="2.3119811">
        <ele>797.48999023</ele>
        <time>2021-03-30T12:36:01Z</time>
      </trkpt>
      <trkpt lat="42.245459" lon="2.3119673">
        <ele>797.42999268</ele>
        <time>2021-03-30T12:36:02Z</time>
      </trkpt>
      <trkpt lat="42.2454523" lon="2.3119582">
        <ele>797.58001709</ele>
        <time>2021-03-30T12:36:03Z</time>
      </trkpt>
      <trkpt lat="42.2454517" lon="2.311956">
        <ele>797.63000488</ele>
        <time>2021-03-30T12:36:04Z</time>
      </trkpt>
      <trkpt lat="42.2454517" lon="2.3119426">
        <ele>797.66998291</ele>
        <time>2021-03-30T12:36:05Z</time>
      </trkpt>
      <trkpt lat="42.2454434" lon="2.3119337">
        <ele>797.90997314</ele>
        <time>2021-03-30T12:36:06Z</time>
      </trkpt>
      <trkpt lat="42.2454407" lon="2.3119213">
        <ele>797.97998047</ele>
        <time>2021-03-30T12:36:07Z</time>
      </trkpt>
      <trkpt lat="42.2454384" lon="2.3119058">
        <ele>798.19000244</ele>
        <time>2021-03-30T12:36:08Z</time>
      </trkpt>
      <trkpt lat="42.2454293" lon="2.3118968">
        <ele>798.4699707</ele>
        <time>2021-03-30T12:36:09Z</time>
      </trkpt>
      <trkpt lat="42.2454157" lon="2.3118967">
        <ele>798.4699707</ele>
        <time>2021-03-30T12:36:10Z</time>
      </trkpt>
      <trkpt lat="42.2454029" lon="2.3118939">
        <ele>798.15002441</ele>
        <time>2021-03-30T12:36:11Z</time>
      </trkpt>
      <trkpt lat="42.2453926" lon="2.3118964">
        <ele>797.85998535</ele>
        <time>2021-03-30T12:36:12Z</time>
      </trkpt>
      <trkpt lat="42.245385" lon="2.3118847">
        <ele>797.54998779</ele>
        <time>2021-03-30T12:36:13Z</time>
      </trkpt>
      <trkpt lat="42.2453822" lon="2.3118815">
        <ele>797.5</ele>
        <time>2021-03-30T12:36:14Z</time>
      </trkpt>
      <trkpt lat="42.2453698" lon="2.3118778">
        <ele>797.4699707</ele>
        <time>2021-03-30T12:36:15Z</time>
      </trkpt>
      <trkpt lat="42.2453578" lon="2.3118745">
        <ele>797.19000244</ele>
        <time>2021-03-30T12:36:16Z</time>
      </trkpt>
      <trkpt lat="42.245354" lon="2.3118737">
        <ele>796.89001465</ele>
        <time>2021-03-30T12:36:17Z</time>
      </trkpt>
      <trkpt lat="42.2453417" lon="2.3118689">
        <ele>796.77001953</ele>
        <time>2021-03-30T12:36:18Z</time>
      </trkpt>
      <trkpt lat="42.2453348" lon="2.3118543">
        <ele>796.4699707</ele>
        <time>2021-03-30T12:36:19Z</time>
      </trkpt>
      <trkpt lat="42.245333" lon="2.3118513">
        <ele>796.35998535</ele>
        <time>2021-03-30T12:36:20Z</time>
      </trkpt>
      <trkpt lat="42.2453258" lon="2.3118437">
        <ele>796.32000732</ele>
        <time>2021-03-30T12:36:21Z</time>
      </trkpt>
      <trkpt lat="42.2453173" lon="2.3118419">
        <ele>796.15002441</ele>
        <time>2021-03-30T12:36:22Z</time>
      </trkpt>
      <trkpt lat="42.245304" lon="2.3118448">
        <ele>795.88000488</ele>
        <time>2021-03-30T12:36:23Z</time>
      </trkpt>
      <trkpt lat="42.2452966" lon="2.3118431">
        <ele>795.44000244</ele>
        <time>2021-03-30T12:36:24Z</time>
      </trkpt>
      <trkpt lat="42.2452913" lon="2.3118339">
        <ele>795.17999268</ele>
        <time>2021-03-30T12:36:25Z</time>
      </trkpt>
      <trkpt lat="42.2452813" lon="2.3118298">
        <ele>795.01000977</ele>
        <time>2021-03-30T12:36:26Z</time>
      </trkpt>
      <trkpt lat="42.2452716" lon="2.3118258">
        <ele>794.67999268</ele>
        <time>2021-03-30T12:36:27Z</time>
      </trkpt>
      <trkpt lat="42.2452671" lon="2.3118217">
        <ele>794.42999268</ele>
        <time>2021-03-30T12:36:28Z</time>
      </trkpt>
      <trkpt lat="42.2452723" lon="2.31181">
        <ele>794.32000732</ele>
        <time>2021-03-30T12:36:29Z</time>
      </trkpt>
      <trkpt lat="42.2452672" lon="2.3117822">
        <ele>794.38000488</ele>
        <time>2021-03-30T12:36:33Z</time>
      </trkpt>
      <trkpt lat="42.2452698" lon="2.3117647">
        <ele>794.32000732</ele>
        <time>2021-03-30T12:36:34Z</time>
      </trkpt>
      <trkpt lat="42.2452697" lon="2.311743">
        <ele>794.35998535</ele>
        <time>2021-03-30T12:36:35Z</time>
      </trkpt>
      <trkpt lat="42.2452708" lon="2.3117268">
        <ele>794.35998535</ele>
        <time>2021-03-30T12:36:36Z</time>
      </trkpt>
      <trkpt lat="42.2452571" lon="2.3117143">
        <ele>794.38000488</ele>
        <time>2021-03-30T12:36:37Z</time>
      </trkpt>
      <trkpt lat="42.245261" lon="2.3116886">
        <ele>794.2199707</ele>
        <time>2021-03-30T12:36:46Z</time>
      </trkpt>
      <trkpt lat="42.2452461" lon="2.3116802">
        <ele>794.20001221</ele>
        <time>2021-03-30T12:36:47Z</time>
      </trkpt>
      <trkpt lat="42.2452426" lon="2.3116709">
        <ele>793.92999268</ele>
        <time>2021-03-30T12:36:48Z</time>
      </trkpt>
      <trkpt lat="42.2452307" lon="2.3116624">
        <ele>793.84997559</ele>
        <time>2021-03-30T12:36:49Z</time>
      </trkpt>
      <trkpt lat="42.2452256" lon="2.3116526">
        <ele>793.69000244</ele>
        <time>2021-03-30T12:36:50Z</time>
      </trkpt>
      <trkpt lat="42.2452084" lon="2.3116381">
        <ele>793.7199707</ele>
        <time>2021-03-30T12:36:51Z</time>
      </trkpt>
      <trkpt lat="42.2451974" lon="2.3116268">
        <ele>793.59997559</ele>
        <time>2021-03-30T12:36:52Z</time>
      </trkpt>
      <trkpt lat="42.2451837" lon="2.3116111">
        <ele>793.52001953</ele>
        <time>2021-03-30T12:36:53Z</time>
      </trkpt>
      <trkpt lat="42.2451743" lon="2.3115908">
        <ele>793.41998291</ele>
        <time>2021-03-30T12:36:54Z</time>
      </trkpt>
      <trkpt lat="42.2451671" lon="2.3115858">
        <ele>793.42999268</ele>
        <time>2021-03-30T12:36:55Z</time>
      </trkpt>
      <trkpt lat="42.2451572" lon="2.3115714">
        <ele>793.33001709</ele>
        <time>2021-03-30T12:36:56Z</time>
      </trkpt>
      <trkpt lat="42.245146" lon="2.3115465">
        <ele>793.23999023</ele>
        <time>2021-03-30T12:36:57Z</time>
      </trkpt>
      <trkpt lat="42.2451334" lon="2.3115136">
        <ele>793.19000244</ele>
        <time>2021-03-30T12:36:58Z</time>
      </trkpt>
      <trkpt lat="42.245124" lon="2.3114983">
        <ele>793.15002441</ele>
        <time>2021-03-30T12:36:59Z</time>
      </trkpt>
      <trkpt lat="42.2451133" lon="2.3114779">
        <ele>793.01000977</ele>
        <time>2021-03-30T12:37:00Z</time>
      </trkpt>
      <trkpt lat="42.2451105" lon="2.3114527">
        <ele>792.84002686</ele>
        <time>2021-03-30T12:37:01Z</time>
      </trkpt>
      <trkpt lat="42.2451025" lon="2.3114313">
        <ele>792.91998291</ele>
        <time>2021-03-30T12:37:02Z</time>
      </trkpt>
      <trkpt lat="42.2450908" lon="2.3114118">
        <ele>792.80999756</ele>
        <time>2021-03-30T12:37:03Z</time>
      </trkpt>
      <trkpt lat="42.2450871" lon="2.3113849">
        <ele>792.53997803</ele>
        <time>2021-03-30T12:37:04Z</time>
      </trkpt>
      <trkpt lat="42.2450819" lon="2.3113609">
        <ele>792.58001709</ele>
        <time>2021-03-30T12:37:05Z</time>
      </trkpt>
      <trkpt lat="42.2450784" lon="2.3113305">
        <ele>792.82000732</ele>
        <time>2021-03-30T12:37:06Z</time>
      </trkpt>
      <trkpt lat="42.2450468" lon="2.3113123">
        <ele>793.26000977</ele>
        <time>2021-03-30T12:37:07Z</time>
      </trkpt>
      <trkpt lat="42.2450233" lon="2.3112938">
        <ele>792.51000977</ele>
        <time>2021-03-30T12:37:08Z</time>
      </trkpt>
      <trkpt lat="42.2450044" lon="2.3112684">
        <ele>791.94000244</ele>
        <time>2021-03-30T12:37:09Z</time>
      </trkpt>
      <trkpt lat="42.2449841" lon="2.3112451">
        <ele>791.66998291</ele>
        <time>2021-03-30T12:37:10Z</time>
      </trkpt>
      <trkpt lat="42.2449664" lon="2.3112164">
        <ele>791.75</ele>
        <time>2021-03-30T12:37:11Z</time>
      </trkpt>
      <trkpt lat="42.2449549" lon="2.3111908">
        <ele>792.03997803</ele>
        <time>2021-03-30T12:37:12Z</time>
      </trkpt>
      <trkpt lat="42.2449499" lon="2.3111719">
        <ele>792.32000732</ele>
        <time>2021-03-30T12:37:13Z</time>
      </trkpt>
      <trkpt lat="42.244946" lon="2.3111451">
        <ele>792.54998779</ele>
        <time>2021-03-30T12:37:14Z</time>
      </trkpt>
      <trkpt lat="42.2449389" lon="2.3111152">
        <ele>792.90002441</ele>
        <time>2021-03-30T12:37:15Z</time>
      </trkpt>
      <trkpt lat="42.2449225" lon="2.311077">
        <ele>793.22998047</ele>
        <time>2021-03-30T12:37:16Z</time>
      </trkpt>
      <trkpt lat="42.2449152" lon="2.3110441">
        <ele>793.4699707</ele>
        <time>2021-03-30T12:37:17Z</time>
      </trkpt>
      <trkpt lat="42.2449087" lon="2.3110188">
        <ele>793.75</ele>
        <time>2021-03-30T12:37:18Z</time>
      </trkpt>
      <trkpt lat="42.2448976" lon="2.3109992">
        <ele>793.92999268</ele>
        <time>2021-03-30T12:37:19Z</time>
      </trkpt>
      <trkpt lat="42.2448844" lon="2.3109759">
        <ele>793.90002441</ele>
        <time>2021-03-30T12:37:20Z</time>
      </trkpt>
      <trkpt lat="42.2448722" lon="2.3109542">
        <ele>793.82000732</ele>
        <time>2021-03-30T12:37:21Z</time>
      </trkpt>
      <trkpt lat="42.2448621" lon="2.3109234">
        <ele>793.70001221</ele>
        <time>2021-03-30T12:37:22Z</time>
      </trkpt>
      <trkpt lat="42.2448495" lon="2.3108993">
        <ele>793.67999268</ele>
        <time>2021-03-30T12:37:23Z</time>
      </trkpt>
      <trkpt lat="42.2448331" lon="2.3108778">
        <ele>793.5</ele>
        <time>2021-03-30T12:37:24Z</time>
      </trkpt>
      <trkpt lat="42.2448214" lon="2.3108548">
        <ele>793.13000488</ele>
        <time>2021-03-30T12:37:25Z</time>
      </trkpt>
      <trkpt lat="42.2448071" lon="2.3108266">
        <ele>792.85998535</ele>
        <time>2021-03-30T12:37:26Z</time>
      </trkpt>
      <trkpt lat="42.2447906" lon="2.3108007">
        <ele>792.54998779</ele>
        <time>2021-03-30T12:37:27Z</time>
      </trkpt>
      <trkpt lat="42.2447805" lon="2.310775">
        <ele>792.28997803</ele>
        <time>2021-03-30T12:37:28Z</time>
      </trkpt>
      <trkpt lat="42.2447658" lon="2.3107443">
        <ele>792.2800293</ele>
        <time>2021-03-30T12:37:29Z</time>
      </trkpt>
      <trkpt lat="42.244759" lon="2.3107242">
        <ele>792.2800293</ele>
        <time>2021-03-30T12:37:30Z</time>
      </trkpt>
      <trkpt lat="42.2447452" lon="2.3107091">
        <ele>792.38000488</ele>
        <time>2021-03-30T12:37:31Z</time>
      </trkpt>
      <trkpt lat="42.2447293" lon="2.3106798">
        <ele>792.25</ele>
        <time>2021-03-30T12:37:32Z</time>
      </trkpt>
      <trkpt lat="42.24472" lon="2.3106538">
        <ele>792.29998779</ele>
        <time>2021-03-30T12:37:33Z</time>
      </trkpt>
      <trkpt lat="42.2447159" lon="2.3106387">
        <ele>792.54998779</ele>
        <time>2021-03-30T12:37:34Z</time>
      </trkpt>
      <trkpt lat="42.2447118" lon="2.3106397">
        <ele>792.78997803</ele>
        <time>2021-03-30T12:37:35Z</time>
      </trkpt>
      <trkpt lat="42.244715" lon="2.3106191">
        <ele>792.95001221</ele>
        <time>2021-03-30T12:37:39Z</time>
      </trkpt>
      <trkpt lat="42.2447229" lon="2.3106183">
        <ele>793.15002441</ele>
        <time>2021-03-30T12:37:40Z</time>
      </trkpt>
      <trkpt lat="42.2447347" lon="2.3106068">
        <ele>793.29998779</ele>
        <time>2021-03-30T12:37:41Z</time>
      </trkpt>
      <trkpt lat="42.2447435" lon="2.3106035">
        <ele>793.76000977</ele>
        <time>2021-03-30T12:37:42Z</time>
      </trkpt>
      <trkpt lat="42.2447501" lon="2.3106081">
        <ele>794.03997803</ele>
        <time>2021-03-30T12:37:43Z</time>
      </trkpt>
      <trkpt lat="42.2447601" lon="2.3106067">
        <ele>794.13000488</ele>
        <time>2021-03-30T12:37:44Z</time>
      </trkpt>
      <trkpt lat="42.2447708" lon="2.3106111">
        <ele>794.36999512</ele>
        <time>2021-03-30T12:37:45Z</time>
      </trkpt>
      <trkpt lat="42.2447733" lon="2.3106094">
        <ele>794.54998779</ele>
        <time>2021-03-30T12:37:46Z</time>
      </trkpt>
      <trkpt lat="42.2447871" lon="2.3106046">
        <ele>794.65002441</ele>
        <time>2021-03-30T12:37:47Z</time>
      </trkpt>
      <trkpt lat="42.2447909" lon="2.3106087">
        <ele>795.01000977</ele>
        <time>2021-03-30T12:37:48Z</time>
      </trkpt>
      <trkpt lat="42.2447925" lon="2.3106051">
        <ele>795.07000732</ele>
        <time>2021-03-30T12:37:49Z</time>
      </trkpt>
      <trkpt lat="42.2448031" lon="2.310601">
        <ele>795.15002441</ele>
        <time>2021-03-30T12:37:50Z</time>
      </trkpt>
      <trkpt lat="42.2448716" lon="2.3105596">
        <ele>797.33001709</ele>
        <time>2021-03-30T12:38:01Z</time>
      </trkpt>
      <trkpt lat="42.2448754" lon="2.3105664">
        <ele>797.38000488</ele>
        <time>2021-03-30T12:38:02Z</time>
      </trkpt>
      <trkpt lat="42.2448843" lon="2.3105657">
        <ele>797.40002441</ele>
        <time>2021-03-30T12:38:03Z</time>
      </trkpt>
      <trkpt lat="42.2448843" lon="2.3105696">
        <ele>797.59997559</ele>
        <time>2021-03-30T12:38:05Z</time>
      </trkpt>
      <trkpt lat="42.244887" lon="2.3105733">
        <ele>797.55999756</ele>
        <time>2021-03-30T12:38:06Z</time>
      </trkpt>
      <trkpt lat="42.2448839" lon="2.3105788">
        <ele>797.59002686</ele>
        <time>2021-03-30T12:38:08Z</time>
      </trkpt>
      <trkpt lat="42.2448848" lon="2.3105707">
        <ele>797.47998047</ele>
        <time>2021-03-30T12:38:09Z</time>
      </trkpt>
      <trkpt lat="42.2448873" lon="2.3104901">
        <ele>798.90002441</ele>
        <time>2021-03-30T12:38:55Z</time>
      </trkpt>
      <trkpt lat="42.244886" lon="2.3104864">
        <ele>798.97998047</ele>
        <time>2021-03-30T12:38:56Z</time>
      </trkpt>
      <trkpt lat="42.2448908" lon="2.3104815">
        <ele>799.03997803</ele>
        <time>2021-03-30T12:38:57Z</time>
      </trkpt>
      <trkpt lat="42.2448854" lon="2.3104802">
        <ele>799.21002197</ele>
        <time>2021-03-30T12:38:58Z</time>
      </trkpt>
      <trkpt lat="42.2448869" lon="2.3104695">
        <ele>799.15002441</ele>
        <time>2021-03-30T12:38:59Z</time>
      </trkpt>
      <trkpt lat="42.244884" lon="2.3104699">
        <ele>799.35998535</ele>
        <time>2021-03-30T12:39:00Z</time>
      </trkpt>
      <trkpt lat="42.2448794" lon="2.3104781">
        <ele>799.33001709</ele>
        <time>2021-03-30T12:39:01Z</time>
      </trkpt>
      <trkpt lat="42.2448704" lon="2.3104926">
        <ele>799.09997559</ele>
        <time>2021-03-30T12:39:02Z</time>
      </trkpt>
      <trkpt lat="42.244863" lon="2.3105031">
        <ele>798.65997314</ele>
        <time>2021-03-30T12:39:03Z</time>
      </trkpt>
      <trkpt lat="42.2448558" lon="2.3105054">
        <ele>798.30999756</ele>
        <time>2021-03-30T12:39:04Z</time>
      </trkpt>
      <trkpt lat="42.2448435" lon="2.3105143">
        <ele>798.10998535</ele>
        <time>2021-03-30T12:39:05Z</time>
      </trkpt>
      <trkpt lat="42.244826" lon="2.3105187">
        <ele>797.7199707</ele>
        <time>2021-03-30T12:39:06Z</time>
      </trkpt>
      <trkpt lat="42.244808" lon="2.3105262">
        <ele>797.29998779</ele>
        <time>2021-03-30T12:39:07Z</time>
      </trkpt>
      <trkpt lat="42.244793" lon="2.310529">
        <ele>796.80999756</ele>
        <time>2021-03-30T12:39:08Z</time>
      </trkpt>
      <trkpt lat="42.2447868" lon="2.3105327">
        <ele>796.45001221</ele>
        <time>2021-03-30T12:39:09Z</time>
      </trkpt>
      <trkpt lat="42.2447831" lon="2.3105371">
        <ele>796.23999023</ele>
        <time>2021-03-30T12:39:10Z</time>
      </trkpt>
      <trkpt lat="42.2447805" lon="2.3105378">
        <ele>796.08001709</ele>
        <time>2021-03-30T12:39:11Z</time>
      </trkpt>
      <trkpt lat="42.2447776" lon="2.3105337">
        <ele>796</ele>
        <time>2021-03-30T12:39:12Z</time>
      </trkpt>
      <trkpt lat="42.2447727" lon="2.310539">
        <ele>796.02001953</ele>
        <time>2021-03-30T12:39:13Z</time>
      </trkpt>
      <trkpt lat="42.2447663" lon="2.3105401">
        <ele>795.84002686</ele>
        <time>2021-03-30T12:39:14Z</time>
      </trkpt>
      <trkpt lat="42.2447566" lon="2.3105442">
        <ele>795.69000244</ele>
        <time>2021-03-30T12:39:15Z</time>
      </trkpt>
      <trkpt lat="42.2447428" lon="2.3105394">
        <ele>795.42999268</ele>
        <time>2021-03-30T12:39:16Z</time>
      </trkpt>
      <trkpt lat="42.2447266" lon="2.3105345">
        <ele>795.25</ele>
        <time>2021-03-30T12:39:17Z</time>
      </trkpt>
      <trkpt lat="42.2447116" lon="2.3105346">
        <ele>795.03997803</ele>
        <time>2021-03-30T12:39:18Z</time>
      </trkpt>
      <trkpt lat="42.2447004" lon="2.310534">
        <ele>794.75</ele>
        <time>2021-03-30T12:39:19Z</time>
      </trkpt>
      <trkpt lat="42.2446957" lon="2.3105294">
        <ele>794.53997803</ele>
        <time>2021-03-30T12:39:20Z</time>
      </trkpt>
      <trkpt lat="42.2446849" lon="2.3105137">
        <ele>794.51000977</ele>
        <time>2021-03-30T12:39:21Z</time>
      </trkpt>
      <trkpt lat="42.2446695" lon="2.3105023">
        <ele>794.59997559</ele>
        <time>2021-03-30T12:39:22Z</time>
      </trkpt>
      <trkpt lat="42.2446623" lon="2.3104934">
        <ele>794.53997803</ele>
        <time>2021-03-30T12:39:23Z</time>
      </trkpt>
      <trkpt lat="42.2446534" lon="2.3104937">
        <ele>794.55999756</ele>
        <time>2021-03-30T12:39:24Z</time>
      </trkpt>
      <trkpt lat="42.2446473" lon="2.3104937">
        <ele>794.40002441</ele>
        <time>2021-03-30T12:39:25Z</time>
      </trkpt>
      <trkpt lat="42.2446302" lon="2.3104835">
        <ele>794.2800293</ele>
        <time>2021-03-30T12:39:26Z</time>
      </trkpt>
      <trkpt lat="42.2446172" lon="2.3104753">
        <ele>794.15002441</ele>
        <time>2021-03-30T12:39:27Z</time>
      </trkpt>
      <trkpt lat="42.2446146" lon="2.3104761">
        <ele>794.04998779</ele>
        <time>2021-03-30T12:39:28Z</time>
      </trkpt>
      <trkpt lat="42.2446121" lon="2.3104741">
        <ele>793.97998047</ele>
        <time>2021-03-30T12:39:29Z</time>
      </trkpt>
      <trkpt lat="42.2446081" lon="2.3104888">
        <ele>793.7199707</ele>
        <time>2021-03-30T12:39:33Z</time>
      </trkpt>
      <trkpt lat="42.2445997" lon="2.3104828">
        <ele>793.60998535</ele>
        <time>2021-03-30T12:39:34Z</time>
      </trkpt>
      <trkpt lat="42.2445894" lon="2.3104792">
        <ele>793.55999756</ele>
        <time>2021-03-30T12:39:35Z</time>
      </trkpt>
      <trkpt lat="42.2445826" lon="2.3104785">
        <ele>793.44000244</ele>
        <time>2021-03-30T12:39:36Z</time>
      </trkpt>
      <trkpt lat="42.2445685" lon="2.3104705">
        <ele>793.32000732</ele>
        <time>2021-03-30T12:39:37Z</time>
      </trkpt>
      <trkpt lat="42.2445567" lon="2.3104581">
        <ele>793.20001221</ele>
        <time>2021-03-30T12:39:38Z</time>
      </trkpt>
      <trkpt lat="42.2445496" lon="2.3104428">
        <ele>793.20001221</ele>
        <time>2021-03-30T12:39:39Z</time>
      </trkpt>
      <trkpt lat="42.2445441" lon="2.3104355">
        <ele>793.34002686</ele>
        <time>2021-03-30T12:39:40Z</time>
      </trkpt>
      <trkpt lat="42.2445283" lon="2.3104156">
        <ele>793.39001465</ele>
        <time>2021-03-30T12:39:41Z</time>
      </trkpt>
      <trkpt lat="42.2445123" lon="2.3103958">
        <ele>793.46002197</ele>
        <time>2021-03-30T12:39:42Z</time>
      </trkpt>
      <trkpt lat="42.2445017" lon="2.3103731">
        <ele>793.53997803</ele>
        <time>2021-03-30T12:39:43Z</time>
      </trkpt>
      <trkpt lat="42.244511" lon="2.3103557">
        <ele>793.76000977</ele>
        <time>2021-03-30T12:39:44Z</time>
      </trkpt>
      <trkpt lat="42.2444933" lon="2.3103373">
        <ele>794.23999023</ele>
        <time>2021-03-30T12:39:45Z</time>
      </trkpt>
      <trkpt lat="42.2444924" lon="2.3103062">
        <ele>794.30999756</ele>
        <time>2021-03-30T12:39:46Z</time>
      </trkpt>
      <trkpt lat="42.2444862" lon="2.3102904">
        <ele>794.84002686</ele>
        <time>2021-03-30T12:39:47Z</time>
      </trkpt>
      <trkpt lat="42.2444789" lon="2.3102772">
        <ele>795.05999756</ele>
        <time>2021-03-30T12:39:48Z</time>
      </trkpt>
      <trkpt lat="42.244455" lon="2.3102544">
        <ele>795.21002197</ele>
        <time>2021-03-30T12:39:51Z</time>
      </trkpt>
      <trkpt lat="42.244447" lon="2.3102478">
        <ele>795.20001221</ele>
        <time>2021-03-30T12:39:52Z</time>
      </trkpt>
      <trkpt lat="42.2444398" lon="2.3102384">
        <ele>795.15997314</ele>
        <time>2021-03-30T12:39:53Z</time>
      </trkpt>
      <trkpt lat="42.2444333" lon="2.3102187">
        <ele>795.10998535</ele>
        <time>2021-03-30T12:39:54Z</time>
      </trkpt>
      <trkpt lat="42.2444305" lon="2.3102069">
        <ele>795.2199707</ele>
        <time>2021-03-30T12:39:55Z</time>
      </trkpt>
      <trkpt lat="42.2444278" lon="2.3101949">
        <ele>795.34002686</ele>
        <time>2021-03-30T12:39:56Z</time>
      </trkpt>
      <trkpt lat="42.2444181" lon="2.3101715">
        <ele>795.4699707</ele>
        <time>2021-03-30T12:39:57Z</time>
      </trkpt>
      <trkpt lat="42.2444046" lon="2.3101482">
        <ele>795.54998779</ele>
        <time>2021-03-30T12:39:58Z</time>
      </trkpt>
      <trkpt lat="42.2443932" lon="2.3101247">
        <ele>795.5</ele>
        <time>2021-03-30T12:39:59Z</time>
      </trkpt>
      <trkpt lat="42.2443842" lon="2.3101106">
        <ele>795.5</ele>
        <time>2021-03-30T12:40:00Z</time>
      </trkpt>
      <trkpt lat="42.2443802" lon="2.3101066">
        <ele>795.42999268</ele>
        <time>2021-03-30T12:40:01Z</time>
      </trkpt>
      <trkpt lat="42.2443773" lon="2.3100995">
        <ele>795.35998535</ele>
        <time>2021-03-30T12:40:02Z</time>
      </trkpt>
      <trkpt lat="42.2443746" lon="2.310081">
        <ele>795.36999512</ele>
        <time>2021-03-30T12:40:03Z</time>
      </trkpt>
      <trkpt lat="42.244368" lon="2.3100589">
        <ele>795.59997559</ele>
        <time>2021-03-30T12:40:04Z</time>
      </trkpt>
      <trkpt lat="42.2443574" lon="2.310043">
        <ele>795.7800293</ele>
        <time>2021-03-30T12:40:05Z</time>
      </trkpt>
      <trkpt lat="42.2443547" lon="2.3100328">
        <ele>795.71002197</ele>
        <time>2021-03-30T12:40:06Z</time>
      </trkpt>
      <trkpt lat="42.2443526" lon="2.3100147">
        <ele>795.7800293</ele>
        <time>2021-03-30T12:40:07Z</time>
      </trkpt>
      <trkpt lat="42.2443521" lon="2.3099994">
        <ele>796.0300293</ele>
        <time>2021-03-30T12:40:08Z</time>
      </trkpt>
      <trkpt lat="42.2443468" lon="2.3099905">
        <ele>796.30999756</ele>
        <time>2021-03-30T12:40:09Z</time>
      </trkpt>
      <trkpt lat="42.2443425" lon="2.3099777">
        <ele>796.25</ele>
        <time>2021-03-30T12:40:10Z</time>
      </trkpt>
      <trkpt lat="42.2443366" lon="2.3099661">
        <ele>796.22998047</ele>
        <time>2021-03-30T12:40:11Z</time>
      </trkpt>
      <trkpt lat="42.2443305" lon="2.3099566">
        <ele>796.14001465</ele>
        <time>2021-03-30T12:40:12Z</time>
      </trkpt>
      <trkpt lat="42.24433" lon="2.3099431">
        <ele>796</ele>
        <time>2021-03-30T12:40:13Z</time>
      </trkpt>
      <trkpt lat="42.2443282" lon="2.3099145">
        <ele>796.10998535</ele>
        <time>2021-03-30T12:40:14Z</time>
      </trkpt>
      <trkpt lat="42.2443316" lon="2.3099031">
        <ele>796.34002686</ele>
        <time>2021-03-30T12:40:15Z</time>
      </trkpt>
      <trkpt lat="42.2443295" lon="2.3098684">
        <ele>796.80999756</ele>
        <time>2021-03-30T12:40:21Z</time>
      </trkpt>
      <trkpt lat="42.2443225" lon="2.3098493">
        <ele>796.92999268</ele>
        <time>2021-03-30T12:40:22Z</time>
      </trkpt>
      <trkpt lat="42.2443176" lon="2.3098358">
        <ele>796.83001709</ele>
        <time>2021-03-30T12:40:23Z</time>
      </trkpt>
      <trkpt lat="42.2443182" lon="2.3098152">
        <ele>796.72998047</ele>
        <time>2021-03-30T12:40:24Z</time>
      </trkpt>
      <trkpt lat="42.2443148" lon="2.3097989">
        <ele>796.95001221</ele>
        <time>2021-03-30T12:40:25Z</time>
      </trkpt>
      <trkpt lat="42.2443102" lon="2.3097795">
        <ele>796.96002197</ele>
        <time>2021-03-30T12:40:26Z</time>
      </trkpt>
      <trkpt lat="42.2443115" lon="2.3097702">
        <ele>796.91998291</ele>
        <time>2021-03-30T12:40:27Z</time>
      </trkpt>
      <trkpt lat="42.2443082" lon="2.3097535">
        <ele>797.05999756</ele>
        <time>2021-03-30T12:40:28Z</time>
      </trkpt>
      <trkpt lat="42.2443058" lon="2.3097213">
        <ele>797.05999756</ele>
        <time>2021-03-30T12:40:29Z</time>
      </trkpt>
      <trkpt lat="42.244299" lon="2.3097028">
        <ele>797.22998047</ele>
        <time>2021-03-30T12:40:30Z</time>
      </trkpt>
      <trkpt lat="42.2442929" lon="2.3096851">
        <ele>797.21002197</ele>
        <time>2021-03-30T12:40:31Z</time>
      </trkpt>
      <trkpt lat="42.2442851" lon="2.3096648">
        <ele>797.20001221</ele>
        <time>2021-03-30T12:40:32Z</time>
      </trkpt>
      <trkpt lat="42.2442767" lon="2.3096448">
        <ele>797.14001465</ele>
        <time>2021-03-30T12:40:33Z</time>
      </trkpt>
      <trkpt lat="42.2442636" lon="2.3096221">
        <ele>797.04998779</ele>
        <time>2021-03-30T12:40:34Z</time>
      </trkpt>
      <trkpt lat="42.2442538" lon="2.3096071">
        <ele>796.75</ele>
        <time>2021-03-30T12:40:35Z</time>
      </trkpt>
      <trkpt lat="42.2442383" lon="2.3095787">
        <ele>796.4699707</ele>
        <time>2021-03-30T12:40:36Z</time>
      </trkpt>
      <trkpt lat="42.244225" lon="2.3095573">
        <ele>796.11999512</ele>
        <time>2021-03-30T12:40:37Z</time>
      </trkpt>
      <trkpt lat="42.244218" lon="2.3095347">
        <ele>795.76000977</ele>
        <time>2021-03-30T12:40:38Z</time>
      </trkpt>
      <trkpt lat="42.2442097" lon="2.3095104">
        <ele>795.76000977</ele>
        <time>2021-03-30T12:40:39Z</time>
      </trkpt>
      <trkpt lat="42.2442033" lon="2.3094935">
        <ele>795.75</ele>
        <time>2021-03-30T12:40:40Z</time>
      </trkpt>
      <trkpt lat="42.2441947" lon="2.3094649">
        <ele>795.70001221</ele>
        <time>2021-03-30T12:40:41Z</time>
      </trkpt>
      <trkpt lat="42.244183" lon="2.3094445">
        <ele>795.75</ele>
        <time>2021-03-30T12:40:42Z</time>
      </trkpt>
      <trkpt lat="42.2441723" lon="2.3094037">
        <ele>795.5</ele>
        <time>2021-03-30T12:40:43Z</time>
      </trkpt>
      <trkpt lat="42.2441624" lon="2.3093703">
        <ele>795.61999512</ele>
        <time>2021-03-30T12:40:44Z</time>
      </trkpt>
      <trkpt lat="42.2441584" lon="2.3093454">
        <ele>795.76000977</ele>
        <time>2021-03-30T12:40:45Z</time>
      </trkpt>
      <trkpt lat="42.2441555" lon="2.3093275">
        <ele>796.0300293</ele>
        <time>2021-03-30T12:40:46Z</time>
      </trkpt>
      <trkpt lat="42.2441517" lon="2.3093102">
        <ele>796.23999023</ele>
        <time>2021-03-30T12:40:47Z</time>
      </trkpt>
      <trkpt lat="42.2441471" lon="2.3092924">
        <ele>796.39001465</ele>
        <time>2021-03-30T12:40:48Z</time>
      </trkpt>
      <trkpt lat="42.244133" lon="2.3092679">
        <ele>796.48999023</ele>
        <time>2021-03-30T12:40:49Z</time>
      </trkpt>
      <trkpt lat="42.2441226" lon="2.3092355">
        <ele>796.25</ele>
        <time>2021-03-30T12:40:50Z</time>
      </trkpt>
      <trkpt lat="42.244117" lon="2.3092043">
        <ele>796.2199707</ele>
        <time>2021-03-30T12:40:51Z</time>
      </trkpt>
      <trkpt lat="42.2441097" lon="2.3091857">
        <ele>796.40002441</ele>
        <time>2021-03-30T12:40:52Z</time>
      </trkpt>
      <trkpt lat="42.2441049" lon="2.3091794">
        <ele>796.30999756</ele>
        <time>2021-03-30T12:40:53Z</time>
      </trkpt>
      <trkpt lat="42.2440936" lon="2.3091571">
        <ele>796.14001465</ele>
        <time>2021-03-30T12:40:54Z</time>
      </trkpt>
      <trkpt lat="42.2440846" lon="2.3091316">
        <ele>795.86999512</ele>
        <time>2021-03-30T12:40:55Z</time>
      </trkpt>
      <trkpt lat="42.2440861" lon="2.3091088">
        <ele>795.82000732</ele>
        <time>2021-03-30T12:40:56Z</time>
      </trkpt>
      <trkpt lat="42.2440811" lon="2.3090986">
        <ele>796.28997803</ele>
        <time>2021-03-30T12:40:57Z</time>
      </trkpt>
      <trkpt lat="42.2440751" lon="2.3090832">
        <ele>796.26000977</ele>
        <time>2021-03-30T12:40:58Z</time>
      </trkpt>
      <trkpt lat="42.244068" lon="2.3090652">
        <ele>796.21002197</ele>
        <time>2021-03-30T12:40:59Z</time>
      </trkpt>
      <trkpt lat="42.2440601" lon="2.309042">
        <ele>796.14001465</ele>
        <time>2021-03-30T12:41:00Z</time>
      </trkpt>
      <trkpt lat="42.2440547" lon="2.309017">
        <ele>796.13000488</ele>
        <time>2021-03-30T12:41:01Z</time>
      </trkpt>
      <trkpt lat="42.244046" lon="2.308987">
        <ele>796.2800293</ele>
        <time>2021-03-30T12:41:02Z</time>
      </trkpt>
      <trkpt lat="42.2440374" lon="2.3089541">
        <ele>796.36999512</ele>
        <time>2021-03-30T12:41:03Z</time>
      </trkpt>
      <trkpt lat="42.2440207" lon="2.3089111">
        <ele>796.48999023</ele>
        <time>2021-03-30T12:41:04Z</time>
      </trkpt>
      <trkpt lat="42.2440164" lon="2.3088886">
        <ele>796.39001465</ele>
        <time>2021-03-30T12:41:05Z</time>
      </trkpt>
      <trkpt lat="42.244007" lon="2.3088551">
        <ele>796.53997803</ele>
        <time>2021-03-30T12:41:06Z</time>
      </trkpt>
      <trkpt lat="42.2440004" lon="2.3088234">
        <ele>796.65002441</ele>
        <time>2021-03-30T12:41:07Z</time>
      </trkpt>
      <trkpt lat="42.2439948" lon="2.3087893">
        <ele>796.86999512</ele>
        <time>2021-03-30T12:41:08Z</time>
      </trkpt>
      <trkpt lat="42.2439925" lon="2.3087557">
        <ele>797.20001221</ele>
        <time>2021-03-30T12:41:09Z</time>
      </trkpt>
      <trkpt lat="42.2439925" lon="2.3087218">
        <ele>797.69000244</ele>
        <time>2021-03-30T12:41:10Z</time>
      </trkpt>
      <trkpt lat="42.2439822" lon="2.3086877">
        <ele>798.33001709</ele>
        <time>2021-03-30T12:41:11Z</time>
      </trkpt>
      <trkpt lat="42.2439814" lon="2.3086615">
        <ele>798.45001221</ele>
        <time>2021-03-30T12:41:12Z</time>
      </trkpt>
      <trkpt lat="42.2439775" lon="2.3086392">
        <ele>798.88000488</ele>
        <time>2021-03-30T12:41:13Z</time>
      </trkpt>
      <trkpt lat="42.2439677" lon="2.3086193">
        <ele>799.10998535</ele>
        <time>2021-03-30T12:41:14Z</time>
      </trkpt>
      <trkpt lat="42.243958" lon="2.3085871">
        <ele>798.9699707</ele>
        <time>2021-03-30T12:41:15Z</time>
      </trkpt>
      <trkpt lat="42.243951" lon="2.3085582">
        <ele>798.59002686</ele>
        <time>2021-03-30T12:41:16Z</time>
      </trkpt>
      <trkpt lat="42.2439549" lon="2.3085125">
        <ele>798.19000244</ele>
        <time>2021-03-30T12:41:17Z</time>
      </trkpt>
      <trkpt lat="42.2439571" lon="2.3084723">
        <ele>798.34997559</ele>
        <time>2021-03-30T12:41:18Z</time>
      </trkpt>
      <trkpt lat="42.243966" lon="2.3084457">
        <ele>798.47998047</ele>
        <time>2021-03-30T12:41:19Z</time>
      </trkpt>
      <trkpt lat="42.2439647" lon="2.3084189">
        <ele>798.96002197</ele>
        <time>2021-03-30T12:41:20Z</time>
      </trkpt>
      <trkpt lat="42.2439667" lon="2.3083896">
        <ele>798.94000244</ele>
        <time>2021-03-30T12:41:21Z</time>
      </trkpt>
      <trkpt lat="42.2439712" lon="2.3083543">
        <ele>799.03997803</ele>
        <time>2021-03-30T12:41:22Z</time>
      </trkpt>
      <trkpt lat="42.243989" lon="2.3083212">
        <ele>799.28997803</ele>
        <time>2021-03-30T12:41:23Z</time>
      </trkpt>
      <trkpt lat="42.2439944" lon="2.3082874">
        <ele>800.23999023</ele>
        <time>2021-03-30T12:41:24Z</time>
      </trkpt>
      <trkpt lat="42.2439963" lon="2.3082575">
        <ele>800.61999512</ele>
        <time>2021-03-30T12:41:25Z</time>
      </trkpt>
      <trkpt lat="42.2439933" lon="2.3082222">
        <ele>800.76000977</ele>
        <time>2021-03-30T12:41:26Z</time>
      </trkpt>
      <trkpt lat="42.2440005" lon="2.3081925">
        <ele>800.61999512</ele>
        <time>2021-03-30T12:41:27Z</time>
      </trkpt>
      <trkpt lat="42.2440065" lon="2.3081424">
        <ele>800.97998047</ele>
        <time>2021-03-30T12:41:28Z</time>
      </trkpt>
      <trkpt lat="42.2440083" lon="2.3081038">
        <ele>801.33001709</ele>
        <time>2021-03-30T12:41:29Z</time>
      </trkpt>
      <trkpt lat="42.2440074" lon="2.3080609">
        <ele>801.46002197</ele>
        <time>2021-03-30T12:41:30Z</time>
      </trkpt>
      <trkpt lat="42.2440109" lon="2.3080286">
        <ele>801.42999268</ele>
        <time>2021-03-30T12:41:31Z</time>
      </trkpt>
      <trkpt lat="42.244005" lon="2.3079796">
        <ele>801.40002441</ele>
        <time>2021-03-30T12:41:32Z</time>
      </trkpt>
      <trkpt lat="42.2440118" lon="2.307943">
        <ele>800.73999023</ele>
        <time>2021-03-30T12:41:33Z</time>
      </trkpt>
      <trkpt lat="42.2440196" lon="2.3079132">
        <ele>800.7199707</ele>
        <time>2021-03-30T12:41:34Z</time>
      </trkpt>
      <trkpt lat="42.2440282" lon="2.3078771">
        <ele>800.82000732</ele>
        <time>2021-03-30T12:41:35Z</time>
      </trkpt>
      <trkpt lat="42.2440295" lon="2.3078429">
        <ele>800.89001465</ele>
        <time>2021-03-30T12:41:36Z</time>
      </trkpt>
      <trkpt lat="42.2440382" lon="2.3078137">
        <ele>800.65002441</ele>
        <time>2021-03-30T12:41:37Z</time>
      </trkpt>
      <trkpt lat="42.2440419" lon="2.3077942">
        <ele>800.69000244</ele>
        <time>2021-03-30T12:41:38Z</time>
      </trkpt>
      <trkpt lat="42.2440406" lon="2.3077643">
        <ele>800.64001465</ele>
        <time>2021-03-30T12:41:39Z</time>
      </trkpt>
      <trkpt lat="42.2440463" lon="2.3077309">
        <ele>800.42999268</ele>
        <time>2021-03-30T12:41:40Z</time>
      </trkpt>
      <trkpt lat="42.2440483" lon="2.3076988">
        <ele>800.60998535</ele>
        <time>2021-03-30T12:41:41Z</time>
      </trkpt>
      <trkpt lat="42.2440497" lon="2.3076405">
        <ele>800.70001221</ele>
        <time>2021-03-30T12:41:42Z</time>
      </trkpt>
      <trkpt lat="42.244052" lon="2.3075859">
        <ele>800.72998047</ele>
        <time>2021-03-30T12:41:43Z</time>
      </trkpt>
      <trkpt lat="42.2440606" lon="2.3075357">
        <ele>800.77001953</ele>
        <time>2021-03-30T12:41:44Z</time>
      </trkpt>
      <trkpt lat="42.2440675" lon="2.3074977">
        <ele>800.86999512</ele>
        <time>2021-03-30T12:41:45Z</time>
      </trkpt>
      <trkpt lat="42.244074" lon="2.3074617">
        <ele>800.98999023</ele>
        <time>2021-03-30T12:41:46Z</time>
      </trkpt>
      <trkpt lat="42.2440799" lon="2.307431">
        <ele>801.11999512</ele>
        <time>2021-03-30T12:41:47Z</time>
      </trkpt>
      <trkpt lat="42.2440857" lon="2.3074003">
        <ele>801.26000977</ele>
        <time>2021-03-30T12:41:48Z</time>
      </trkpt>
      <trkpt lat="42.2440798" lon="2.3073792">
        <ele>801.39001465</ele>
        <time>2021-03-30T12:41:49Z</time>
      </trkpt>
      <trkpt lat="42.2440834" lon="2.307359">
        <ele>801.4699707</ele>
        <time>2021-03-30T12:41:50Z</time>
      </trkpt>
      <trkpt lat="42.2440823" lon="2.307341">
        <ele>801.54998779</ele>
        <time>2021-03-30T12:41:51Z</time>
      </trkpt>
      <trkpt lat="42.2440837" lon="2.3073235">
        <ele>801.60998535</ele>
        <time>2021-03-30T12:41:52Z</time>
      </trkpt>
      <trkpt lat="42.2440869" lon="2.3073054">
        <ele>801.66998291</ele>
        <time>2021-03-30T12:41:53Z</time>
      </trkpt>
      <trkpt lat="42.2440994" lon="2.3072871">
        <ele>801.72998047</ele>
        <time>2021-03-30T12:41:54Z</time>
      </trkpt>
      <trkpt lat="42.2441139" lon="2.307257">
        <ele>801.84002686</ele>
        <time>2021-03-30T12:41:55Z</time>
      </trkpt>
      <trkpt lat="42.2441185" lon="2.3072249">
        <ele>802</ele>
        <time>2021-03-30T12:41:56Z</time>
      </trkpt>
      <trkpt lat="42.2441134" lon="2.3071733">
        <ele>802.15997314</ele>
        <time>2021-03-30T12:41:57Z</time>
      </trkpt>
      <trkpt lat="42.244109" lon="2.3071168">
        <ele>802.2800293</ele>
        <time>2021-03-30T12:41:58Z</time>
      </trkpt>
      <trkpt lat="42.2441168" lon="2.3070655">
        <ele>802.36999512</ele>
        <time>2021-03-30T12:41:59Z</time>
      </trkpt>
      <trkpt lat="42.2441201" lon="2.3070227">
        <ele>802.47998047</ele>
        <time>2021-03-30T12:42:00Z</time>
      </trkpt>
      <trkpt lat="42.2441212" lon="2.3069923">
        <ele>802.59002686</ele>
        <time>2021-03-30T12:42:01Z</time>
      </trkpt>
      <trkpt lat="42.2441258" lon="2.3069692">
        <ele>802.69000244</ele>
        <time>2021-03-30T12:42:02Z</time>
      </trkpt>
      <trkpt lat="42.2441313" lon="2.306949">
        <ele>802.79998779</ele>
        <time>2021-03-30T12:42:03Z</time>
      </trkpt>
      <trkpt lat="42.2441323" lon="2.3069183">
        <ele>802.91998291</ele>
        <time>2021-03-30T12:42:04Z</time>
      </trkpt>
      <trkpt lat="42.244139" lon="2.3068864">
        <ele>802.98999023</ele>
        <time>2021-03-30T12:42:05Z</time>
      </trkpt>
      <trkpt lat="42.2441532" lon="2.3068467">
        <ele>803.02001953</ele>
        <time>2021-03-30T12:42:06Z</time>
      </trkpt>
      <trkpt lat="42.2441652" lon="2.3068191">
        <ele>803.02001953</ele>
        <time>2021-03-30T12:42:07Z</time>
      </trkpt>
      <trkpt lat="42.2441684" lon="2.3067873">
        <ele>803</ele>
        <time>2021-03-30T12:42:08Z</time>
      </trkpt>
      <trkpt lat="42.244167" lon="2.3067365">
        <ele>802.94000244</ele>
        <time>2021-03-30T12:42:09Z</time>
      </trkpt>
      <trkpt lat="42.2441627" lon="2.3066987">
        <ele>802.77001953</ele>
        <time>2021-03-30T12:42:10Z</time>
      </trkpt>
      <trkpt lat="42.2441571" lon="2.306671">
        <ele>802.5300293</ele>
        <time>2021-03-30T12:42:11Z</time>
      </trkpt>
      <trkpt lat="42.2441495" lon="2.3066498">
        <ele>802.23999023</ele>
        <time>2021-03-30T12:42:12Z</time>
      </trkpt>
      <trkpt lat="42.2441405" lon="2.3066244">
        <ele>801.98999023</ele>
        <time>2021-03-30T12:42:13Z</time>
      </trkpt>
      <trkpt lat="42.2441401" lon="2.3066167">
        <ele>801.78997803</ele>
        <time>2021-03-30T12:42:14Z</time>
      </trkpt>
      <trkpt lat="42.2441308" lon="2.306616">
        <ele>801.61999512</ele>
        <time>2021-03-30T12:42:15Z</time>
      </trkpt>
      <trkpt lat="42.2440846" lon="2.3065087">
        <ele>800.55999756</ele>
        <time>2021-03-30T12:43:27Z</time>
      </trkpt>
      <trkpt lat="42.2440808" lon="2.3065008">
        <ele>800.48999023</ele>
        <time>2021-03-30T12:43:28Z</time>
      </trkpt>
      <trkpt lat="42.2440741" lon="2.3064916">
        <ele>800.4699707</ele>
        <time>2021-03-30T12:43:29Z</time>
      </trkpt>
      <trkpt lat="42.2440672" lon="2.3064839">
        <ele>800.39001465</ele>
        <time>2021-03-30T12:43:30Z</time>
      </trkpt>
      <trkpt lat="42.2440632" lon="2.3064736">
        <ele>800.27001953</ele>
        <time>2021-03-30T12:43:31Z</time>
      </trkpt>
      <trkpt lat="42.2440545" lon="2.3064597">
        <ele>800.26000977</ele>
        <time>2021-03-30T12:43:32Z</time>
      </trkpt>
      <trkpt lat="42.2440473" lon="2.3064388">
        <ele>800.14001465</ele>
        <time>2021-03-30T12:43:33Z</time>
      </trkpt>
      <trkpt lat="42.2440423" lon="2.3064124">
        <ele>800.11999512</ele>
        <time>2021-03-30T12:43:34Z</time>
      </trkpt>
      <trkpt lat="42.2440372" lon="2.3064076">
        <ele>800.21002197</ele>
        <time>2021-03-30T12:43:35Z</time>
      </trkpt>
      <trkpt lat="42.2440459" lon="2.3063967">
        <ele>800.09997559</ele>
        <time>2021-03-30T12:43:36Z</time>
      </trkpt>
      <trkpt lat="42.2440484" lon="2.3063819">
        <ele>800.48999023</ele>
        <time>2021-03-30T12:43:37Z</time>
      </trkpt>
      <trkpt lat="42.2440428" lon="2.3063697">
        <ele>800.73999023</ele>
        <time>2021-03-30T12:43:38Z</time>
      </trkpt>
      <trkpt lat="42.244047" lon="2.3063768">
        <ele>800.66998291</ele>
        <time>2021-03-30T12:43:39Z</time>
      </trkpt>
      <trkpt lat="42.2440461" lon="2.3063704">
        <ele>800.75</ele>
        <time>2021-03-30T12:43:40Z</time>
      </trkpt>
      <trkpt lat="42.2440555" lon="2.3063552">
        <ele>801.08001709</ele>
        <time>2021-03-30T12:43:45Z</time>
      </trkpt>
      <trkpt lat="42.2440571" lon="2.3063516">
        <ele>801.22998047</ele>
        <time>2021-03-30T12:43:46Z</time>
      </trkpt>
      <trkpt lat="42.2440633" lon="2.3063454">
        <ele>801.33001709</ele>
        <time>2021-03-30T12:43:47Z</time>
      </trkpt>
      <trkpt lat="42.2440603" lon="2.3063364">
        <ele>801.58001709</ele>
        <time>2021-03-30T12:43:48Z</time>
      </trkpt>
      <trkpt lat="42.2440531" lon="2.3063094">
        <ele>801.57000732</ele>
        <time>2021-03-30T12:43:49Z</time>
      </trkpt>
      <trkpt lat="42.2440366" lon="2.3062804">
        <ele>801.5300293</ele>
        <time>2021-03-30T12:43:50Z</time>
      </trkpt>
      <trkpt lat="42.2440275" lon="2.3062477">
        <ele>801.27001953</ele>
        <time>2021-03-30T12:43:51Z</time>
      </trkpt>
      <trkpt lat="42.244032" lon="2.3062137">
        <ele>801.27001953</ele>
        <time>2021-03-30T12:43:52Z</time>
      </trkpt>
      <trkpt lat="42.2440286" lon="2.3061886">
        <ele>801.67999268</ele>
        <time>2021-03-30T12:43:53Z</time>
      </trkpt>
      <trkpt lat="42.2440252" lon="2.3061484">
        <ele>801.85998535</ele>
        <time>2021-03-30T12:43:54Z</time>
      </trkpt>
      <trkpt lat="42.2440197" lon="2.3061211">
        <ele>802.15997314</ele>
        <time>2021-03-30T12:43:55Z</time>
      </trkpt>
      <trkpt lat="42.2440124" lon="2.3061019">
        <ele>802.33001709</ele>
        <time>2021-03-30T12:43:56Z</time>
      </trkpt>
      <trkpt lat="42.2440023" lon="2.3060828">
        <ele>802.45001221</ele>
        <time>2021-03-30T12:43:57Z</time>
      </trkpt>
      <trkpt lat="42.2439827" lon="2.3060395">
        <ele>802.54998779</ele>
        <time>2021-03-30T12:43:58Z</time>
      </trkpt>
      <trkpt lat="42.2439709" lon="2.3060141">
        <ele>802.65997314</ele>
        <time>2021-03-30T12:43:59Z</time>
      </trkpt>
      <trkpt lat="42.2439615" lon="2.3059895">
        <ele>802.61999512</ele>
        <time>2021-03-30T12:44:00Z</time>
      </trkpt>
      <trkpt lat="42.2439502" lon="2.3059567">
        <ele>802.55999756</ele>
        <time>2021-03-30T12:44:01Z</time>
      </trkpt>
      <trkpt lat="42.2439426" lon="2.3059271">
        <ele>802.44000244</ele>
        <time>2021-03-30T12:44:02Z</time>
      </trkpt>
      <trkpt lat="42.243938" lon="2.3059006">
        <ele>802.34997559</ele>
        <time>2021-03-30T12:44:03Z</time>
      </trkpt>
      <trkpt lat="42.2439305" lon="2.3058601">
        <ele>802.30999756</ele>
        <time>2021-03-30T12:44:04Z</time>
      </trkpt>
      <trkpt lat="42.2439261" lon="2.305836">
        <ele>802.19000244</ele>
        <time>2021-03-30T12:44:05Z</time>
      </trkpt>
      <trkpt lat="42.2439247" lon="2.3058182">
        <ele>802.08001709</ele>
        <time>2021-03-30T12:44:06Z</time>
      </trkpt>
      <trkpt lat="42.2439172" lon="2.3057934">
        <ele>802.27001953</ele>
        <time>2021-03-30T12:44:07Z</time>
      </trkpt>
      <trkpt lat="42.2439092" lon="2.3057635">
        <ele>802.33001709</ele>
        <time>2021-03-30T12:44:08Z</time>
      </trkpt>
      <trkpt lat="42.2439006" lon="2.305734">
        <ele>802.44000244</ele>
        <time>2021-03-30T12:44:09Z</time>
      </trkpt>
      <trkpt lat="42.2438943" lon="2.3057009">
        <ele>802.52001953</ele>
        <time>2021-03-30T12:44:10Z</time>
      </trkpt>
      <trkpt lat="42.2438908" lon="2.3056712">
        <ele>802.77001953</ele>
        <time>2021-03-30T12:44:11Z</time>
      </trkpt>
      <trkpt lat="42.2438858" lon="2.3056283">
        <ele>803.13000488</ele>
        <time>2021-03-30T12:44:12Z</time>
      </trkpt>
      <trkpt lat="42.2438787" lon="2.3055928">
        <ele>803.7199707</ele>
        <time>2021-03-30T12:44:13Z</time>
      </trkpt>
      <trkpt lat="42.2438696" lon="2.3055504">
        <ele>804.15997314</ele>
        <time>2021-03-30T12:44:14Z</time>
      </trkpt>
      <trkpt lat="42.2438629" lon="2.3055292">
        <ele>804.52001953</ele>
        <time>2021-03-30T12:44:15Z</time>
      </trkpt>
      <trkpt lat="42.2438511" lon="2.3054997">
        <ele>804.32000732</ele>
        <time>2021-03-30T12:44:16Z</time>
      </trkpt>
      <trkpt lat="42.24384" lon="2.3054701">
        <ele>803.89001465</ele>
        <time>2021-03-30T12:44:17Z</time>
      </trkpt>
      <trkpt lat="42.2438306" lon="2.3054477">
        <ele>803.45001221</ele>
        <time>2021-03-30T12:44:18Z</time>
      </trkpt>
      <trkpt lat="42.2438269" lon="2.3054247">
        <ele>803.08001709</ele>
        <time>2021-03-30T12:44:19Z</time>
      </trkpt>
      <trkpt lat="42.2438253" lon="2.3053924">
        <ele>802.91998291</ele>
        <time>2021-03-30T12:44:20Z</time>
      </trkpt>
      <trkpt lat="42.2438264" lon="2.3053633">
        <ele>802.84002686</ele>
        <time>2021-03-30T12:44:21Z</time>
      </trkpt>
      <trkpt lat="42.2438231" lon="2.3053343">
        <ele>802.86999512</ele>
        <time>2021-03-30T12:44:22Z</time>
      </trkpt>
      <trkpt lat="42.2438186" lon="2.3053022">
        <ele>802.76000977</ele>
        <time>2021-03-30T12:44:23Z</time>
      </trkpt>
      <trkpt lat="42.243814" lon="2.3052727">
        <ele>802.59997559</ele>
        <time>2021-03-30T12:44:24Z</time>
      </trkpt>
      <trkpt lat="42.24381" lon="2.3052384">
        <ele>802.44000244</ele>
        <time>2021-03-30T12:44:25Z</time>
      </trkpt>
      <trkpt lat="42.2438067" lon="2.3052012">
        <ele>802.46002197</ele>
        <time>2021-03-30T12:44:26Z</time>
      </trkpt>
      <trkpt lat="42.2438044" lon="2.3051646">
        <ele>802.53997803</ele>
        <time>2021-03-30T12:44:27Z</time>
      </trkpt>
      <trkpt lat="42.2438009" lon="2.3051304">
        <ele>802.67999268</ele>
        <time>2021-03-30T12:44:28Z</time>
      </trkpt>
      <trkpt lat="42.2437967" lon="2.3050945">
        <ele>802.7800293</ele>
        <time>2021-03-30T12:44:29Z</time>
      </trkpt>
      <trkpt lat="42.2437921" lon="2.305061">
        <ele>802.89001465</ele>
        <time>2021-03-30T12:44:30Z</time>
      </trkpt>
      <trkpt lat="42.2437891" lon="2.3050322">
        <ele>803</ele>
        <time>2021-03-30T12:44:31Z</time>
      </trkpt>
      <trkpt lat="42.2437847" lon="2.3050097">
        <ele>803.13000488</ele>
        <time>2021-03-30T12:44:32Z</time>
      </trkpt>
      <trkpt lat="42.2437819" lon="2.3049839">
        <ele>803.20001221</ele>
        <time>2021-03-30T12:44:33Z</time>
      </trkpt>
      <trkpt lat="42.2437772" lon="2.3049591">
        <ele>803.2199707</ele>
        <time>2021-03-30T12:44:34Z</time>
      </trkpt>
      <trkpt lat="42.2437686" lon="2.3049277">
        <ele>803.14001465</ele>
        <time>2021-03-30T12:44:35Z</time>
      </trkpt>
      <trkpt lat="42.2437624" lon="2.3048941">
        <ele>802.98999023</ele>
        <time>2021-03-30T12:44:36Z</time>
      </trkpt>
      <trkpt lat="42.2437576" lon="2.3048553">
        <ele>802.85998535</ele>
        <time>2021-03-30T12:44:37Z</time>
      </trkpt>
      <trkpt lat="42.2437476" lon="2.3048181">
        <ele>802.77001953</ele>
        <time>2021-03-30T12:44:38Z</time>
      </trkpt>
      <trkpt lat="42.2437384" lon="2.3047833">
        <ele>802.58001709</ele>
        <time>2021-03-30T12:44:39Z</time>
      </trkpt>
      <trkpt lat="42.2437353" lon="2.3047481">
        <ele>802.40002441</ele>
        <time>2021-03-30T12:44:40Z</time>
      </trkpt>
      <trkpt lat="42.2437352" lon="2.3047133">
        <ele>802.33001709</ele>
        <time>2021-03-30T12:44:41Z</time>
      </trkpt>
      <trkpt lat="42.2437295" lon="2.3046888">
        <ele>802.39001465</ele>
        <time>2021-03-30T12:44:42Z</time>
      </trkpt>
      <trkpt lat="42.243729" lon="2.3046636">
        <ele>802.47998047</ele>
        <time>2021-03-30T12:44:43Z</time>
      </trkpt>
      <trkpt lat="42.2437353" lon="2.3046249">
        <ele>802.65997314</ele>
        <time>2021-03-30T12:44:44Z</time>
      </trkpt>
      <trkpt lat="42.2437288" lon="2.3045909">
        <ele>803.10998535</ele>
        <time>2021-03-30T12:44:45Z</time>
      </trkpt>
      <trkpt lat="42.2437214" lon="2.3045568">
        <ele>803.26000977</ele>
        <time>2021-03-30T12:44:46Z</time>
      </trkpt>
      <trkpt lat="42.2437159" lon="2.3045219">
        <ele>803.32000732</ele>
        <time>2021-03-30T12:44:47Z</time>
      </trkpt>
      <trkpt lat="42.2437065" lon="2.3044806">
        <ele>803.40997314</ele>
        <time>2021-03-30T12:44:48Z</time>
      </trkpt>
      <trkpt lat="42.2437019" lon="2.3044377">
        <ele>803.38000488</ele>
        <time>2021-03-30T12:44:49Z</time>
      </trkpt>
      <trkpt lat="42.2436947" lon="2.3043921">
        <ele>803.42999268</ele>
        <time>2021-03-30T12:44:50Z</time>
      </trkpt>
      <trkpt lat="42.243691" lon="2.3043501">
        <ele>803.17999268</ele>
        <time>2021-03-30T12:44:51Z</time>
      </trkpt>
      <trkpt lat="42.2436893" lon="2.3043018">
        <ele>803.0300293</ele>
        <time>2021-03-30T12:44:52Z</time>
      </trkpt>
      <trkpt lat="42.243684" lon="2.3042494">
        <ele>802.95001221</ele>
        <time>2021-03-30T12:44:53Z</time>
      </trkpt>
      <trkpt lat="42.2436749" lon="2.3041988">
        <ele>802.76000977</ele>
        <time>2021-03-30T12:44:54Z</time>
      </trkpt>
      <trkpt lat="42.2436628" lon="2.3041546">
        <ele>802.42999268</ele>
        <time>2021-03-30T12:44:55Z</time>
      </trkpt>
      <trkpt lat="42.2436593" lon="2.3041061">
        <ele>802.20001221</ele>
        <time>2021-03-30T12:44:56Z</time>
      </trkpt>
      <trkpt lat="42.2436539" lon="2.3040604">
        <ele>802.11999512</ele>
        <time>2021-03-30T12:44:57Z</time>
      </trkpt>
      <trkpt lat="42.2436558" lon="2.3040147">
        <ele>802.05999756</ele>
        <time>2021-03-30T12:44:58Z</time>
      </trkpt>
      <trkpt lat="42.2436464" lon="2.3039756">
        <ele>802.07000732</ele>
        <time>2021-03-30T12:44:59Z</time>
      </trkpt>
      <trkpt lat="42.2436435" lon="2.3039336">
        <ele>802.02001953</ele>
        <time>2021-03-30T12:45:00Z</time>
      </trkpt>
      <trkpt lat="42.2436347" lon="2.3038928">
        <ele>801.96002197</ele>
        <time>2021-03-30T12:45:01Z</time>
      </trkpt>
      <trkpt lat="42.2436296" lon="2.303857">
        <ele>801.86999512</ele>
        <time>2021-03-30T12:45:02Z</time>
      </trkpt>
      <trkpt lat="42.2436306" lon="2.3038234">
        <ele>801.75</ele>
        <time>2021-03-30T12:45:03Z</time>
      </trkpt>
      <trkpt lat="42.2436293" lon="2.3037891">
        <ele>801.66998291</ele>
        <time>2021-03-30T12:45:04Z</time>
      </trkpt>
      <trkpt lat="42.2436252" lon="2.3037521">
        <ele>801.59997559</ele>
        <time>2021-03-30T12:45:05Z</time>
      </trkpt>
      <trkpt lat="42.2436261" lon="2.3037156">
        <ele>801.51000977</ele>
        <time>2021-03-30T12:45:06Z</time>
      </trkpt>
      <trkpt lat="42.2436205" lon="2.3036797">
        <ele>801.44000244</ele>
        <time>2021-03-30T12:45:07Z</time>
      </trkpt>
      <trkpt lat="42.243609" lon="2.3036401">
        <ele>801.34997559</ele>
        <time>2021-03-30T12:45:08Z</time>
      </trkpt>
      <trkpt lat="42.2436075" lon="2.3036095">
        <ele>801.17999268</ele>
        <time>2021-03-30T12:45:09Z</time>
      </trkpt>
      <trkpt lat="42.2436079" lon="2.3035774">
        <ele>801.03997803</ele>
        <time>2021-03-30T12:45:10Z</time>
      </trkpt>
      <trkpt lat="42.2435985" lon="2.303551">
        <ele>800.9699707</ele>
        <time>2021-03-30T12:45:11Z</time>
      </trkpt>
      <trkpt lat="42.2435909" lon="2.3035238">
        <ele>800.94000244</ele>
        <time>2021-03-30T12:45:12Z</time>
      </trkpt>
      <trkpt lat="42.2435837" lon="2.3034929">
        <ele>800.96002197</ele>
        <time>2021-03-30T12:45:13Z</time>
      </trkpt>
      <trkpt lat="42.2435784" lon="2.3034619">
        <ele>801.01000977</ele>
        <time>2021-03-30T12:45:14Z</time>
      </trkpt>
      <trkpt lat="42.2435774" lon="2.303434">
        <ele>801.09002686</ele>
        <time>2021-03-30T12:45:15Z</time>
      </trkpt>
      <trkpt lat="42.2435815" lon="2.303399">
        <ele>801.2199707</ele>
        <time>2021-03-30T12:45:16Z</time>
      </trkpt>
      <trkpt lat="42.2435772" lon="2.3033675">
        <ele>801.40002441</ele>
        <time>2021-03-30T12:45:17Z</time>
      </trkpt>
      <trkpt lat="42.243576" lon="2.3033263">
        <ele>801.61999512</ele>
        <time>2021-03-30T12:45:18Z</time>
      </trkpt>
      <trkpt lat="42.2435721" lon="2.3032913">
        <ele>801.85998535</ele>
        <time>2021-03-30T12:45:19Z</time>
      </trkpt>
      <trkpt lat="42.2435702" lon="2.3032588">
        <ele>802.07000732</ele>
        <time>2021-03-30T12:45:20Z</time>
      </trkpt>
      <trkpt lat="42.2435628" lon="2.3032183">
        <ele>802.25</ele>
        <time>2021-03-30T12:45:21Z</time>
      </trkpt>
      <trkpt lat="42.2435559" lon="2.3031909">
        <ele>802.38000488</ele>
        <time>2021-03-30T12:45:22Z</time>
      </trkpt>
      <trkpt lat="42.243548" lon="2.3031527">
        <ele>802.4699707</ele>
        <time>2021-03-30T12:45:23Z</time>
      </trkpt>
      <trkpt lat="42.2435413" lon="2.3031208">
        <ele>802.51000977</ele>
        <time>2021-03-30T12:45:24Z</time>
      </trkpt>
      <trkpt lat="42.2435318" lon="2.3030829">
        <ele>802.5300293</ele>
        <time>2021-03-30T12:45:25Z</time>
      </trkpt>
      <trkpt lat="42.2435268" lon="2.3030474">
        <ele>802.5</ele>
        <time>2021-03-30T12:45:26Z</time>
      </trkpt>
      <trkpt lat="42.2435221" lon="2.3030149">
        <ele>802.45001221</ele>
        <time>2021-03-30T12:45:27Z</time>
      </trkpt>
      <trkpt lat="42.2435147" lon="2.3029804">
        <ele>802.39001465</ele>
        <time>2021-03-30T12:45:28Z</time>
      </trkpt>
      <trkpt lat="42.2435093" lon="2.3029523">
        <ele>802.29998779</ele>
        <time>2021-03-30T12:45:29Z</time>
      </trkpt>
      <trkpt lat="42.2435043" lon="2.302932">
        <ele>802.20001221</ele>
        <time>2021-03-30T12:45:30Z</time>
      </trkpt>
      <trkpt lat="42.2435017" lon="2.3029059">
        <ele>802.09002686</ele>
        <time>2021-03-30T12:45:31Z</time>
      </trkpt>
      <trkpt lat="42.2434963" lon="2.3028725">
        <ele>801.97998047</ele>
        <time>2021-03-30T12:45:32Z</time>
      </trkpt>
      <trkpt lat="42.2434987" lon="2.3028438">
        <ele>801.85998535</ele>
        <time>2021-03-30T12:45:33Z</time>
      </trkpt>
      <trkpt lat="42.2434974" lon="2.3028142">
        <ele>801.76000977</ele>
        <time>2021-03-30T12:45:34Z</time>
      </trkpt>
      <trkpt lat="42.2434912" lon="2.3027857">
        <ele>801.66998291</ele>
        <time>2021-03-30T12:45:35Z</time>
      </trkpt>
      <trkpt lat="42.2434888" lon="2.3027602">
        <ele>801.55999756</ele>
        <time>2021-03-30T12:45:36Z</time>
      </trkpt>
      <trkpt lat="42.2434743" lon="2.3027313">
        <ele>801.4699707</ele>
        <time>2021-03-30T12:45:37Z</time>
      </trkpt>
      <trkpt lat="42.24346" lon="2.302694">
        <ele>801.35998535</ele>
        <time>2021-03-30T12:45:38Z</time>
      </trkpt>
      <trkpt lat="42.243439" lon="2.3026562">
        <ele>801.25</ele>
        <time>2021-03-30T12:45:39Z</time>
      </trkpt>
      <trkpt lat="42.2434163" lon="2.3026193">
        <ele>801.13000488</ele>
        <time>2021-03-30T12:45:40Z</time>
      </trkpt>
      <trkpt lat="42.2433964" lon="2.3025695">
        <ele>801</ele>
        <time>2021-03-30T12:45:41Z</time>
      </trkpt>
      <trkpt lat="42.2433757" lon="2.3025181">
        <ele>800.90002441</ele>
        <time>2021-03-30T12:45:42Z</time>
      </trkpt>
      <trkpt lat="42.2433526" lon="2.3024643">
        <ele>800.84002686</ele>
        <time>2021-03-30T12:45:43Z</time>
      </trkpt>
      <trkpt lat="42.2433381" lon="2.3024111">
        <ele>800.78997803</ele>
        <time>2021-03-30T12:45:44Z</time>
      </trkpt>
      <trkpt lat="42.2433284" lon="2.302358">
        <ele>800.70001221</ele>
        <time>2021-03-30T12:45:45Z</time>
      </trkpt>
      <trkpt lat="42.2433202" lon="2.3023235">
        <ele>800.60998535</ele>
        <time>2021-03-30T12:45:46Z</time>
      </trkpt>
      <trkpt lat="42.2433174" lon="2.3022858">
        <ele>800.51000977</ele>
        <time>2021-03-30T12:45:47Z</time>
      </trkpt>
      <trkpt lat="42.2433156" lon="2.3022464">
        <ele>800.40997314</ele>
        <time>2021-03-30T12:45:48Z</time>
      </trkpt>
      <trkpt lat="42.2433131" lon="2.3022042">
        <ele>800.32000732</ele>
        <time>2021-03-30T12:45:49Z</time>
      </trkpt>
      <trkpt lat="42.243307" lon="2.3021644">
        <ele>800.23999023</ele>
        <time>2021-03-30T12:45:50Z</time>
      </trkpt>
      <trkpt lat="42.2432987" lon="2.3021272">
        <ele>800.15997314</ele>
        <time>2021-03-30T12:45:51Z</time>
      </trkpt>
      <trkpt lat="42.2432901" lon="2.3020915">
        <ele>800.09002686</ele>
        <time>2021-03-30T12:45:52Z</time>
      </trkpt>
      <trkpt lat="42.2432833" lon="2.302056">
        <ele>800.02001953</ele>
        <time>2021-03-30T12:45:53Z</time>
      </trkpt>
      <trkpt lat="42.2432813" lon="2.3020142">
        <ele>799.9699707</ele>
        <time>2021-03-30T12:45:54Z</time>
      </trkpt>
      <trkpt lat="42.2432811" lon="2.3019755">
        <ele>799.92999268</ele>
        <time>2021-03-30T12:45:55Z</time>
      </trkpt>
      <trkpt lat="42.2432847" lon="2.3019344">
        <ele>799.90997314</ele>
        <time>2021-03-30T12:45:56Z</time>
      </trkpt>
      <trkpt lat="42.2432885" lon="2.3018984">
        <ele>799.90997314</ele>
        <time>2021-03-30T12:45:57Z</time>
      </trkpt>
      <trkpt lat="42.2432928" lon="2.3018632">
        <ele>799.90002441</ele>
        <time>2021-03-30T12:45:58Z</time>
      </trkpt>
      <trkpt lat="42.2432982" lon="2.3018323">
        <ele>799.86999512</ele>
        <time>2021-03-30T12:45:59Z</time>
      </trkpt>
      <trkpt lat="42.2433026" lon="2.301806">
        <ele>799.84997559</ele>
        <time>2021-03-30T12:46:00Z</time>
      </trkpt>
      <trkpt lat="42.243315" lon="2.3017854">
        <ele>799.82000732</ele>
        <time>2021-03-30T12:46:01Z</time>
      </trkpt>
      <trkpt lat="42.243325" lon="2.3017609">
        <ele>799.80999756</ele>
        <time>2021-03-30T12:46:02Z</time>
      </trkpt>
      <trkpt lat="42.2433344" lon="2.3017351">
        <ele>799.80999756</ele>
        <time>2021-03-30T12:46:03Z</time>
      </trkpt>
      <trkpt lat="42.2433378" lon="2.3017087">
        <ele>799.82000732</ele>
        <time>2021-03-30T12:46:04Z</time>
      </trkpt>
      <trkpt lat="42.2433414" lon="2.3016794">
        <ele>799.83001709</ele>
        <time>2021-03-30T12:46:05Z</time>
      </trkpt>
      <trkpt lat="42.2433452" lon="2.3016438">
        <ele>799.84002686</ele>
        <time>2021-03-30T12:46:06Z</time>
      </trkpt>
      <trkpt lat="42.2433469" lon="2.3016047">
        <ele>799.84997559</ele>
        <time>2021-03-30T12:46:07Z</time>
      </trkpt>
      <trkpt lat="42.2433466" lon="2.3015631">
        <ele>799.84997559</ele>
        <time>2021-03-30T12:46:08Z</time>
      </trkpt>
      <trkpt lat="42.2433406" lon="2.3015283">
        <ele>799.85998535</ele>
        <time>2021-03-30T12:46:09Z</time>
      </trkpt>
      <trkpt lat="42.2433463" lon="2.3014889">
        <ele>799.86999512</ele>
        <time>2021-03-30T12:46:10Z</time>
      </trkpt>
      <trkpt lat="42.2433447" lon="2.3014443">
        <ele>799.86999512</ele>
        <time>2021-03-30T12:46:11Z</time>
      </trkpt>
      <trkpt lat="42.2433521" lon="2.3014106">
        <ele>799.86999512</ele>
        <time>2021-03-30T12:46:12Z</time>
      </trkpt>
      <trkpt lat="42.2433636" lon="2.3013772">
        <ele>799.88000488</ele>
        <time>2021-03-30T12:46:13Z</time>
      </trkpt>
      <trkpt lat="42.2433807" lon="2.3013533">
        <ele>799.88000488</ele>
        <time>2021-03-30T12:46:14Z</time>
      </trkpt>
      <trkpt lat="42.2434008" lon="2.3013266">
        <ele>799.89001465</ele>
        <time>2021-03-30T12:46:15Z</time>
      </trkpt>
      <trkpt lat="42.2434169" lon="2.3012975">
        <ele>799.89001465</ele>
        <time>2021-03-30T12:46:16Z</time>
      </trkpt>
      <trkpt lat="42.2434286" lon="2.3012813">
        <ele>799.89001465</ele>
        <time>2021-03-30T12:46:17Z</time>
      </trkpt>
      <trkpt lat="42.2434422" lon="2.3012637">
        <ele>799.89001465</ele>
        <time>2021-03-30T12:46:18Z</time>
      </trkpt>
      <trkpt lat="42.2434588" lon="2.3012472">
        <ele>799.89001465</ele>
        <time>2021-03-30T12:46:19Z</time>
      </trkpt>
      <trkpt lat="42.2434867" lon="2.3012419">
        <ele>799.90002441</ele>
        <time>2021-03-30T12:46:20Z</time>
      </trkpt>
      <trkpt lat="42.2435154" lon="2.3012401">
        <ele>799.90002441</ele>
        <time>2021-03-30T12:46:21Z</time>
      </trkpt>
      <trkpt lat="42.2435385" lon="2.3012357">
        <ele>799.90002441</ele>
        <time>2021-03-30T12:46:22Z</time>
      </trkpt>
      <trkpt lat="42.2435679" lon="2.3012505">
        <ele>799.90002441</ele>
        <time>2021-03-30T12:46:23Z</time>
      </trkpt>
      <trkpt lat="42.2435962" lon="2.3012531">
        <ele>799.90002441</ele>
        <time>2021-03-30T12:46:24Z</time>
      </trkpt>
      <trkpt lat="42.243623" lon="2.3012568">
        <ele>799.90002441</ele>
        <time>2021-03-30T12:46:25Z</time>
      </trkpt>
      <trkpt lat="42.2436596" lon="2.3012653">
        <ele>799.91998291</ele>
        <time>2021-03-30T12:46:26Z</time>
      </trkpt>
      <trkpt lat="42.2436896" lon="2.3012516">
        <ele>799.9699707</ele>
        <time>2021-03-30T12:46:27Z</time>
      </trkpt>
      <trkpt lat="42.2437285" lon="2.3012375">
        <ele>800.03997803</ele>
        <time>2021-03-30T12:46:28Z</time>
      </trkpt>
      <trkpt lat="42.2437562" lon="2.3012003">
        <ele>800.14001465</ele>
        <time>2021-03-30T12:46:29Z</time>
      </trkpt>
      <trkpt lat="42.2437661" lon="2.3011283">
        <ele>800.21002197</ele>
        <time>2021-03-30T12:46:30Z</time>
      </trkpt>
      <trkpt lat="42.243765" lon="2.301052">
        <ele>800.21002197</ele>
        <time>2021-03-30T12:46:31Z</time>
      </trkpt>
      <trkpt lat="42.2437532" lon="2.3009803">
        <ele>800.23999023</ele>
        <time>2021-03-30T12:46:32Z</time>
      </trkpt>
      <trkpt lat="42.24374" lon="2.3009207">
        <ele>800.33001709</ele>
        <time>2021-03-30T12:46:33Z</time>
      </trkpt>
      <trkpt lat="42.2437269" lon="2.3008774">
        <ele>800.4699707</ele>
        <time>2021-03-30T12:46:34Z</time>
      </trkpt>
      <trkpt lat="42.2437093" lon="2.3008552">
        <ele>800.60998535</ele>
        <time>2021-03-30T12:46:35Z</time>
      </trkpt>
      <trkpt lat="42.2436979" lon="2.300835">
        <ele>800.7199707</ele>
        <time>2021-03-30T12:46:36Z</time>
      </trkpt>
      <trkpt lat="42.2436943" lon="2.3007969">
        <ele>800.82000732</ele>
        <time>2021-03-30T12:46:37Z</time>
      </trkpt>
      <trkpt lat="42.2436909" lon="2.3007517">
        <ele>800.94000244</ele>
        <time>2021-03-30T12:46:38Z</time>
      </trkpt>
      <trkpt lat="42.243682" lon="2.3007093">
        <ele>801.10998535</ele>
        <time>2021-03-30T12:46:39Z</time>
      </trkpt>
      <trkpt lat="42.2436798" lon="2.3006657">
        <ele>801.32000732</ele>
        <time>2021-03-30T12:46:40Z</time>
      </trkpt>
      <trkpt lat="42.2436787" lon="2.3006259">
        <ele>801.57000732</ele>
        <time>2021-03-30T12:46:41Z</time>
      </trkpt>
      <trkpt lat="42.243684" lon="2.3005847">
        <ele>801.84997559</ele>
        <time>2021-03-30T12:46:42Z</time>
      </trkpt>
      <trkpt lat="42.243685" lon="2.3005523">
        <ele>802.16998291</ele>
        <time>2021-03-30T12:46:43Z</time>
      </trkpt>
      <trkpt lat="42.2436897" lon="2.3005138">
        <ele>802.51000977</ele>
        <time>2021-03-30T12:46:44Z</time>
      </trkpt>
      <trkpt lat="42.2436954" lon="2.3004805">
        <ele>802.83001709</ele>
        <time>2021-03-30T12:46:45Z</time>
      </trkpt>
      <trkpt lat="42.2436943" lon="2.3004355">
        <ele>803.14001465</ele>
        <time>2021-03-30T12:46:46Z</time>
      </trkpt>
      <trkpt lat="42.2437002" lon="2.3003942">
        <ele>803.44000244</ele>
        <time>2021-03-30T12:46:47Z</time>
      </trkpt>
      <trkpt lat="42.2437014" lon="2.3003559">
        <ele>803.75</ele>
        <time>2021-03-30T12:46:48Z</time>
      </trkpt>
      <trkpt lat="42.2436956" lon="2.3003228">
        <ele>804.04998779</ele>
        <time>2021-03-30T12:46:49Z</time>
      </trkpt>
      <trkpt lat="42.2436903" lon="2.3002878">
        <ele>804.33001709</ele>
        <time>2021-03-30T12:46:50Z</time>
      </trkpt>
      <trkpt lat="42.2436915" lon="2.3002471">
        <ele>804.59002686</ele>
        <time>2021-03-30T12:46:51Z</time>
      </trkpt>
      <trkpt lat="42.2436909" lon="2.3002105">
        <ele>804.84997559</ele>
        <time>2021-03-30T12:46:52Z</time>
      </trkpt>
      <trkpt lat="42.2436922" lon="2.300174">
        <ele>805.10998535</ele>
        <time>2021-03-30T12:46:53Z</time>
      </trkpt>
      <trkpt lat="42.2436866" lon="2.3001346">
        <ele>805.35998535</ele>
        <time>2021-03-30T12:46:54Z</time>
      </trkpt>
      <trkpt lat="42.2436799" lon="2.3000923">
        <ele>805.59002686</ele>
        <time>2021-03-30T12:46:55Z</time>
      </trkpt>
      <trkpt lat="42.2436868" lon="2.3000634">
        <ele>805.79998779</ele>
        <time>2021-03-30T12:46:56Z</time>
      </trkpt>
      <trkpt lat="42.243689" lon="2.3000331">
        <ele>806.02001953</ele>
        <time>2021-03-30T12:46:57Z</time>
      </trkpt>
      <trkpt lat="42.2436911" lon="2.3000059">
        <ele>806.25</ele>
        <time>2021-03-30T12:46:58Z</time>
      </trkpt>
      <trkpt lat="42.2437006" lon="2.2999724">
        <ele>806.47998047</ele>
        <time>2021-03-30T12:46:59Z</time>
      </trkpt>
      <trkpt lat="42.2437049" lon="2.2999347">
        <ele>806.7199707</ele>
        <time>2021-03-30T12:47:00Z</time>
      </trkpt>
      <trkpt lat="42.2437036" lon="2.2998981">
        <ele>806.96002197</ele>
        <time>2021-03-30T12:47:01Z</time>
      </trkpt>
      <trkpt lat="42.2437058" lon="2.2998664">
        <ele>807.16998291</ele>
        <time>2021-03-30T12:47:02Z</time>
      </trkpt>
      <trkpt lat="42.2437111" lon="2.2998361">
        <ele>807.35998535</ele>
        <time>2021-03-30T12:47:03Z</time>
      </trkpt>
      <trkpt lat="42.2437184" lon="2.2998054">
        <ele>807.54998779</ele>
        <time>2021-03-30T12:47:04Z</time>
      </trkpt>
      <trkpt lat="42.2437248" lon="2.299778">
        <ele>807.76000977</ele>
        <time>2021-03-30T12:47:05Z</time>
      </trkpt>
      <trkpt lat="42.2437409" lon="2.2997463">
        <ele>807.9699707</ele>
        <time>2021-03-30T12:47:06Z</time>
      </trkpt>
      <trkpt lat="42.2437557" lon="2.2997124">
        <ele>808.21002197</ele>
        <time>2021-03-30T12:47:07Z</time>
      </trkpt>
      <trkpt lat="42.243768" lon="2.2996796">
        <ele>808.5</ele>
        <time>2021-03-30T12:47:08Z</time>
      </trkpt>
      <trkpt lat="42.2437795" lon="2.2996505">
        <ele>808.79998779</ele>
        <time>2021-03-30T12:47:09Z</time>
      </trkpt>
      <trkpt lat="42.2437927" lon="2.2996081">
        <ele>809.13000488</ele>
        <time>2021-03-30T12:47:10Z</time>
      </trkpt>
      <trkpt lat="42.2438039" lon="2.299575">
        <ele>809.4699707</ele>
        <time>2021-03-30T12:47:11Z</time>
      </trkpt>
      <trkpt lat="42.2438139" lon="2.2995535">
        <ele>809.82000732</ele>
        <time>2021-03-30T12:47:12Z</time>
      </trkpt>
      <trkpt lat="42.2438384" lon="2.2995422">
        <ele>810.17999268</ele>
        <time>2021-03-30T12:47:13Z</time>
      </trkpt>
      <trkpt lat="42.2438586" lon="2.2995219">
        <ele>810.59002686</ele>
        <time>2021-03-30T12:47:14Z</time>
      </trkpt>
      <trkpt lat="42.2438729" lon="2.2995044">
        <ele>811.04998779</ele>
        <time>2021-03-30T12:47:15Z</time>
      </trkpt>
      <trkpt lat="42.2438835" lon="2.2994834">
        <ele>811.52001953</ele>
        <time>2021-03-30T12:47:16Z</time>
      </trkpt>
      <trkpt lat="42.2438904" lon="2.2994562">
        <ele>811.97998047</ele>
        <time>2021-03-30T12:47:17Z</time>
      </trkpt>
      <trkpt lat="42.2438846" lon="2.2994073">
        <ele>812.42999268</ele>
        <time>2021-03-30T12:47:18Z</time>
      </trkpt>
      <trkpt lat="42.2438781" lon="2.2993472">
        <ele>812.73999023</ele>
        <time>2021-03-30T12:47:19Z</time>
      </trkpt>
      <trkpt lat="42.2438746" lon="2.2992804">
        <ele>812.78997803</ele>
        <time>2021-03-30T12:47:20Z</time>
      </trkpt>
      <trkpt lat="42.2438797" lon="2.2991991">
        <ele>812.78997803</ele>
        <time>2021-03-30T12:47:21Z</time>
      </trkpt>
      <trkpt lat="42.2438909" lon="2.2991097">
        <ele>812.75</ele>
        <time>2021-03-30T12:47:22Z</time>
      </trkpt>
      <trkpt lat="42.2438905" lon="2.2990148">
        <ele>812.51000977</ele>
        <time>2021-03-30T12:47:23Z</time>
      </trkpt>
      <trkpt lat="42.2438799" lon="2.2989283">
        <ele>812.28997803</ele>
        <time>2021-03-30T12:47:24Z</time>
      </trkpt>
      <trkpt lat="42.2438555" lon="2.2988757">
        <ele>812.09997559</ele>
        <time>2021-03-30T12:47:25Z</time>
      </trkpt>
      <trkpt lat="42.2438234" lon="2.298848">
        <ele>811.96002197</ele>
        <time>2021-03-30T12:47:26Z</time>
      </trkpt>
      <trkpt lat="42.2437925" lon="2.2988327">
        <ele>811.89001465</ele>
        <time>2021-03-30T12:47:27Z</time>
      </trkpt>
      <trkpt lat="42.2437736" lon="2.2988243">
        <ele>811.88000488</ele>
        <time>2021-03-30T12:47:28Z</time>
      </trkpt>
      <trkpt lat="42.2437576" lon="2.2988119">
        <ele>811.88000488</ele>
        <time>2021-03-30T12:47:29Z</time>
      </trkpt>
      <trkpt lat="42.2437332" lon="2.2988018">
        <ele>811.90997314</ele>
        <time>2021-03-30T12:47:30Z</time>
      </trkpt>
      <trkpt lat="42.2437175" lon="2.2987989">
        <ele>811.96002197</ele>
        <time>2021-03-30T12:47:31Z</time>
      </trkpt>
      <trkpt lat="42.2437054" lon="2.2987939">
        <ele>812.02001953</ele>
        <time>2021-03-30T12:47:32Z</time>
      </trkpt>
      <trkpt lat="42.2436831" lon="2.2987962">
        <ele>812.07000732</ele>
        <time>2021-03-30T12:47:33Z</time>
      </trkpt>
      <trkpt lat="42.2436521" lon="2.298786">
        <ele>812.11999512</ele>
        <time>2021-03-30T12:47:34Z</time>
      </trkpt>
      <trkpt lat="42.2436226" lon="2.2987619">
        <ele>812.17999268</ele>
        <time>2021-03-30T12:47:35Z</time>
      </trkpt>
      <trkpt lat="42.2435815" lon="2.2987212">
        <ele>812.2800293</ele>
        <time>2021-03-30T12:47:36Z</time>
      </trkpt>
      <trkpt lat="42.243554" lon="2.2986913">
        <ele>812.35998535</ele>
        <time>2021-03-30T12:47:37Z</time>
      </trkpt>
      <trkpt lat="42.2435363" lon="2.2986669">
        <ele>812.40002441</ele>
        <time>2021-03-30T12:47:38Z</time>
      </trkpt>
      <trkpt lat="42.2435157" lon="2.298638">
        <ele>812.40002441</ele>
        <time>2021-03-30T12:47:39Z</time>
      </trkpt>
      <trkpt lat="42.2434907" lon="2.2985933">
        <ele>812.35998535</ele>
        <time>2021-03-30T12:47:40Z</time>
      </trkpt>
      <trkpt lat="42.2434672" lon="2.298549">
        <ele>812.29998779</ele>
        <time>2021-03-30T12:47:41Z</time>
      </trkpt>
      <trkpt lat="42.2434421" lon="2.2985157">
        <ele>812.23999023</ele>
        <time>2021-03-30T12:47:42Z</time>
      </trkpt>
      <trkpt lat="42.2434228" lon="2.2984853">
        <ele>812.15002441</ele>
        <time>2021-03-30T12:47:43Z</time>
      </trkpt>
      <trkpt lat="42.2434034" lon="2.2984487">
        <ele>812.04998779</ele>
        <time>2021-03-30T12:47:44Z</time>
      </trkpt>
      <trkpt lat="42.2433853" lon="2.2984076">
        <ele>811.96002197</ele>
        <time>2021-03-30T12:47:45Z</time>
      </trkpt>
      <trkpt lat="42.2433651" lon="2.2983709">
        <ele>811.88000488</ele>
        <time>2021-03-30T12:47:46Z</time>
      </trkpt>
      <trkpt lat="42.2433433" lon="2.2983332">
        <ele>811.80999756</ele>
        <time>2021-03-30T12:47:47Z</time>
      </trkpt>
      <trkpt lat="42.2433175" lon="2.2983016">
        <ele>811.73999023</ele>
        <time>2021-03-30T12:47:48Z</time>
      </trkpt>
      <trkpt lat="42.2432967" lon="2.2982596">
        <ele>811.77001953</ele>
        <time>2021-03-30T12:47:49Z</time>
      </trkpt>
      <trkpt lat="42.2432771" lon="2.2982109">
        <ele>811.7800293</ele>
        <time>2021-03-30T12:47:50Z</time>
      </trkpt>
      <trkpt lat="42.2432388" lon="2.2981479">
        <ele>811.80999756</ele>
        <time>2021-03-30T12:47:51Z</time>
      </trkpt>
      <trkpt lat="42.243215" lon="2.298096">
        <ele>811.82000732</ele>
        <time>2021-03-30T12:47:52Z</time>
      </trkpt>
      <trkpt lat="42.2431974" lon="2.2980357">
        <ele>811.79998779</ele>
        <time>2021-03-30T12:47:53Z</time>
      </trkpt>
      <trkpt lat="42.2431816" lon="2.2979783">
        <ele>811.79998779</ele>
        <time>2021-03-30T12:47:54Z</time>
      </trkpt>
      <trkpt lat="42.2431662" lon="2.2979207">
        <ele>811.84997559</ele>
        <time>2021-03-30T12:47:55Z</time>
      </trkpt>
      <trkpt lat="42.2431474" lon="2.2978555">
        <ele>811.95001221</ele>
        <time>2021-03-30T12:47:56Z</time>
      </trkpt>
      <trkpt lat="42.243124" lon="2.2977948">
        <ele>812.09002686</ele>
        <time>2021-03-30T12:47:57Z</time>
      </trkpt>
      <trkpt lat="42.2431021" lon="2.2977243">
        <ele>812.25</ele>
        <time>2021-03-30T12:47:58Z</time>
      </trkpt>
      <trkpt lat="42.2430785" lon="2.297667">
        <ele>812.42999268</ele>
        <time>2021-03-30T12:47:59Z</time>
      </trkpt>
      <trkpt lat="42.2430451" lon="2.297627">
        <ele>812.61999512</ele>
        <time>2021-03-30T12:48:00Z</time>
      </trkpt>
      <trkpt lat="42.243006" lon="2.2975869">
        <ele>812.77001953</ele>
        <time>2021-03-30T12:48:01Z</time>
      </trkpt>
      <trkpt lat="42.2429671" lon="2.2975577">
        <ele>812.90002441</ele>
        <time>2021-03-30T12:48:02Z</time>
      </trkpt>
      <trkpt lat="42.2429302" lon="2.297522">
        <ele>813.01000977</ele>
        <time>2021-03-30T12:48:03Z</time>
      </trkpt>
      <trkpt lat="42.2428843" lon="2.2974813">
        <ele>813.09002686</ele>
        <time>2021-03-30T12:48:04Z</time>
      </trkpt>
      <trkpt lat="42.2428436" lon="2.2974442">
        <ele>813.15997314</ele>
        <time>2021-03-30T12:48:05Z</time>
      </trkpt>
      <trkpt lat="42.2427969" lon="2.2973952">
        <ele>813.2199707</ele>
        <time>2021-03-30T12:48:06Z</time>
      </trkpt>
      <trkpt lat="42.2427588" lon="2.2973631">
        <ele>813.27001953</ele>
        <time>2021-03-30T12:48:07Z</time>
      </trkpt>
      <trkpt lat="42.2427301" lon="2.2973296">
        <ele>813.29998779</ele>
        <time>2021-03-30T12:48:08Z</time>
      </trkpt>
      <trkpt lat="42.242705" lon="2.297298">
        <ele>813.34002686</ele>
        <time>2021-03-30T12:48:09Z</time>
      </trkpt>
      <trkpt lat="42.2426892" lon="2.2972755">
        <ele>813.39001465</ele>
        <time>2021-03-30T12:48:10Z</time>
      </trkpt>
      <trkpt lat="42.2426706" lon="2.2972537">
        <ele>813.44000244</ele>
        <time>2021-03-30T12:48:11Z</time>
      </trkpt>
      <trkpt lat="42.2426508" lon="2.2972274">
        <ele>813.5</ele>
        <time>2021-03-30T12:48:12Z</time>
      </trkpt>
      <trkpt lat="42.2426137" lon="2.2972071">
        <ele>813.57000732</ele>
        <time>2021-03-30T12:48:13Z</time>
      </trkpt>
      <trkpt lat="42.2425857" lon="2.2971755">
        <ele>813.59002686</ele>
        <time>2021-03-30T12:48:14Z</time>
      </trkpt>
      <trkpt lat="42.2425521" lon="2.297133">
        <ele>813.61999512</ele>
        <time>2021-03-30T12:48:15Z</time>
      </trkpt>
      <trkpt lat="42.2425266" lon="2.2971008">
        <ele>813.65997314</ele>
        <time>2021-03-30T12:48:16Z</time>
      </trkpt>
      <trkpt lat="42.2424944" lon="2.2970682">
        <ele>813.7199707</ele>
        <time>2021-03-30T12:48:17Z</time>
      </trkpt>
      <trkpt lat="42.2424672" lon="2.2970342">
        <ele>813.76000977</ele>
        <time>2021-03-30T12:48:18Z</time>
      </trkpt>
      <trkpt lat="42.2424432" lon="2.2970019">
        <ele>813.82000732</ele>
        <time>2021-03-30T12:48:19Z</time>
      </trkpt>
      <trkpt lat="42.2424201" lon="2.2969723">
        <ele>813.89001465</ele>
        <time>2021-03-30T12:48:20Z</time>
      </trkpt>
      <trkpt lat="42.2423952" lon="2.2969346">
        <ele>813.96002197</ele>
        <time>2021-03-30T12:48:21Z</time>
      </trkpt>
      <trkpt lat="42.2423725" lon="2.2968956">
        <ele>814.04998779</ele>
        <time>2021-03-30T12:48:22Z</time>
      </trkpt>
      <trkpt lat="42.242352" lon="2.2968519">
        <ele>814.15997314</ele>
        <time>2021-03-30T12:48:23Z</time>
      </trkpt>
      <trkpt lat="42.2423261" lon="2.2967947">
        <ele>814.30999756</ele>
        <time>2021-03-30T12:48:24Z</time>
      </trkpt>
      <trkpt lat="42.2423115" lon="2.2967447">
        <ele>814.51000977</ele>
        <time>2021-03-30T12:48:25Z</time>
      </trkpt>
      <trkpt lat="42.2423058" lon="2.2967093">
        <ele>814.75</ele>
        <time>2021-03-30T12:48:26Z</time>
      </trkpt>
      <trkpt lat="42.2423002" lon="2.2966626">
        <ele>815.0300293</ele>
        <time>2021-03-30T12:48:27Z</time>
      </trkpt>
      <trkpt lat="42.2423028" lon="2.2966193">
        <ele>815.35998535</ele>
        <time>2021-03-30T12:48:28Z</time>
      </trkpt>
      <trkpt lat="42.2423061" lon="2.2965778">
        <ele>815.65997314</ele>
        <time>2021-03-30T12:48:29Z</time>
      </trkpt>
      <trkpt lat="42.2423087" lon="2.2965411">
        <ele>815.94000244</ele>
        <time>2021-03-30T12:48:30Z</time>
      </trkpt>
      <trkpt lat="42.2423168" lon="2.2965088">
        <ele>816.20001221</ele>
        <time>2021-03-30T12:48:31Z</time>
      </trkpt>
      <trkpt lat="42.2423216" lon="2.2964714">
        <ele>816.44000244</ele>
        <time>2021-03-30T12:48:32Z</time>
      </trkpt>
      <trkpt lat="42.2423399" lon="2.2964345">
        <ele>816.66998291</ele>
        <time>2021-03-30T12:48:33Z</time>
      </trkpt>
      <trkpt lat="42.2423556" lon="2.296392">
        <ele>816.90002441</ele>
        <time>2021-03-30T12:48:34Z</time>
      </trkpt>
      <trkpt lat="42.2423665" lon="2.2963569">
        <ele>817.15002441</ele>
        <time>2021-03-30T12:48:35Z</time>
      </trkpt>
      <trkpt lat="42.2423833" lon="2.2963202">
        <ele>817.41998291</ele>
        <time>2021-03-30T12:48:36Z</time>
      </trkpt>
      <trkpt lat="42.2423957" lon="2.2962926">
        <ele>817.7199707</ele>
        <time>2021-03-30T12:48:37Z</time>
      </trkpt>
      <trkpt lat="42.2423972" lon="2.2962584">
        <ele>818.0300293</ele>
        <time>2021-03-30T12:48:38Z</time>
      </trkpt>
      <trkpt lat="42.2424062" lon="2.2962315">
        <ele>818.34002686</ele>
        <time>2021-03-30T12:48:39Z</time>
      </trkpt>
      <trkpt lat="42.2424173" lon="2.2962191">
        <ele>818.65002441</ele>
        <time>2021-03-30T12:48:40Z</time>
      </trkpt>
      <trkpt lat="42.2424175" lon="2.2961699">
        <ele>818.94000244</ele>
        <time>2021-03-30T12:48:41Z</time>
      </trkpt>
      <trkpt lat="42.2424246" lon="2.2961142">
        <ele>819.22998047</ele>
        <time>2021-03-30T12:48:42Z</time>
      </trkpt>
      <trkpt lat="42.2424281" lon="2.2960707">
        <ele>819.52001953</ele>
        <time>2021-03-30T12:48:43Z</time>
      </trkpt>
      <trkpt lat="42.2424257" lon="2.2960206">
        <ele>819.84002686</ele>
        <time>2021-03-30T12:48:44Z</time>
      </trkpt>
      <trkpt lat="42.2424167" lon="2.295979">
        <ele>820.20001221</ele>
        <time>2021-03-30T12:48:45Z</time>
      </trkpt>
      <trkpt lat="42.2424041" lon="2.2959415">
        <ele>820.57000732</ele>
        <time>2021-03-30T12:48:46Z</time>
      </trkpt>
      <trkpt lat="42.2423869" lon="2.2959111">
        <ele>820.95001221</ele>
        <time>2021-03-30T12:48:47Z</time>
      </trkpt>
      <trkpt lat="42.2423692" lon="2.2958836">
        <ele>821.29998779</ele>
        <time>2021-03-30T12:48:48Z</time>
      </trkpt>
      <trkpt lat="42.2423438" lon="2.295858">
        <ele>821.61999512</ele>
        <time>2021-03-30T12:48:49Z</time>
      </trkpt>
      <trkpt lat="42.2423296" lon="2.2958458">
        <ele>821.89001465</ele>
        <time>2021-03-30T12:48:50Z</time>
      </trkpt>
      <trkpt lat="42.2423146" lon="2.295829">
        <ele>822.11999512</ele>
        <time>2021-03-30T12:48:51Z</time>
      </trkpt>
      <trkpt lat="42.2422901" lon="2.2958175">
        <ele>822.29998779</ele>
        <time>2021-03-30T12:48:52Z</time>
      </trkpt>
      <trkpt lat="42.242266" lon="2.2958103">
        <ele>822.44000244</ele>
        <time>2021-03-30T12:48:53Z</time>
      </trkpt>
      <trkpt lat="42.2422411" lon="2.2958009">
        <ele>822.53997803</ele>
        <time>2021-03-30T12:48:54Z</time>
      </trkpt>
      <trkpt lat="42.2422081" lon="2.29578">
        <ele>822.59002686</ele>
        <time>2021-03-30T12:48:55Z</time>
      </trkpt>
      <trkpt lat="42.2421804" lon="2.2957595">
        <ele>822.63000488</ele>
        <time>2021-03-30T12:48:56Z</time>
      </trkpt>
      <trkpt lat="42.2421573" lon="2.2957417">
        <ele>822.71002197</ele>
        <time>2021-03-30T12:48:57Z</time>
      </trkpt>
      <trkpt lat="42.2421312" lon="2.2957236">
        <ele>822.80999756</ele>
        <time>2021-03-30T12:48:58Z</time>
      </trkpt>
      <trkpt lat="42.2420993" lon="2.2957028">
        <ele>822.95001221</ele>
        <time>2021-03-30T12:48:59Z</time>
      </trkpt>
      <trkpt lat="42.2420699" lon="2.2956802">
        <ele>823.10998535</ele>
        <time>2021-03-30T12:49:00Z</time>
      </trkpt>
      <trkpt lat="42.2420406" lon="2.2956483">
        <ele>823.29998779</ele>
        <time>2021-03-30T12:49:01Z</time>
      </trkpt>
      <trkpt lat="42.2420194" lon="2.2956121">
        <ele>823.5300293</ele>
        <time>2021-03-30T12:49:02Z</time>
      </trkpt>
      <trkpt lat="42.242001" lon="2.295567">
        <ele>823.80999756</ele>
        <time>2021-03-30T12:49:03Z</time>
      </trkpt>
      <trkpt lat="42.2419963" lon="2.2955299">
        <ele>824.15002441</ele>
        <time>2021-03-30T12:49:04Z</time>
      </trkpt>
      <trkpt lat="42.2419911" lon="2.2954905">
        <ele>824.5</ele>
        <time>2021-03-30T12:49:05Z</time>
      </trkpt>
      <trkpt lat="42.2419823" lon="2.2954573">
        <ele>824.82000732</ele>
        <time>2021-03-30T12:49:06Z</time>
      </trkpt>
      <trkpt lat="42.2419759" lon="2.2954268">
        <ele>825.11999512</ele>
        <time>2021-03-30T12:49:07Z</time>
      </trkpt>
      <trkpt lat="42.2419645" lon="2.2953957">
        <ele>825.38000488</ele>
        <time>2021-03-30T12:49:08Z</time>
      </trkpt>
      <trkpt lat="42.2419566" lon="2.2953725">
        <ele>825.61999512</ele>
        <time>2021-03-30T12:49:09Z</time>
      </trkpt>
      <trkpt lat="42.2419421" lon="2.2953462">
        <ele>825.82000732</ele>
        <time>2021-03-30T12:49:10Z</time>
      </trkpt>
      <trkpt lat="42.241925" lon="2.295312">
        <ele>825.9699707</ele>
        <time>2021-03-30T12:49:11Z</time>
      </trkpt>
      <trkpt lat="42.2419141" lon="2.295289">
        <ele>826.08001709</ele>
        <time>2021-03-30T12:49:12Z</time>
      </trkpt>
      <trkpt lat="42.2418945" lon="2.2952639">
        <ele>826.15002441</ele>
        <time>2021-03-30T12:49:13Z</time>
      </trkpt>
      <trkpt lat="42.2418731" lon="2.295231">
        <ele>826.20001221</ele>
        <time>2021-03-30T12:49:14Z</time>
      </trkpt>
      <trkpt lat="42.2418435" lon="2.2951921">
        <ele>826.27001953</ele>
        <time>2021-03-30T12:49:15Z</time>
      </trkpt>
      <trkpt lat="42.2418144" lon="2.2951565">
        <ele>826.34997559</ele>
        <time>2021-03-30T12:49:16Z</time>
      </trkpt>
      <trkpt lat="42.2417978" lon="2.2951282">
        <ele>826.42999268</ele>
        <time>2021-03-30T12:49:17Z</time>
      </trkpt>
      <trkpt lat="42.241769" lon="2.2950847">
        <ele>826.5300293</ele>
        <time>2021-03-30T12:49:18Z</time>
      </trkpt>
      <trkpt lat="42.2417384" lon="2.2950456">
        <ele>826.65002441</ele>
        <time>2021-03-30T12:49:19Z</time>
      </trkpt>
      <trkpt lat="42.241706" lon="2.2949984">
        <ele>826.77001953</ele>
        <time>2021-03-30T12:49:20Z</time>
      </trkpt>
      <trkpt lat="42.2416743" lon="2.2949416">
        <ele>826.90997314</ele>
        <time>2021-03-30T12:49:21Z</time>
      </trkpt>
      <trkpt lat="42.241648" lon="2.2948775">
        <ele>826.97998047</ele>
        <time>2021-03-30T12:49:22Z</time>
      </trkpt>
      <trkpt lat="42.2416149" lon="2.2948278">
        <ele>826.97998047</ele>
        <time>2021-03-30T12:49:23Z</time>
      </trkpt>
      <trkpt lat="42.2415792" lon="2.2947844">
        <ele>826.91998291</ele>
        <time>2021-03-30T12:49:24Z</time>
      </trkpt>
      <trkpt lat="42.2415479" lon="2.2947339">
        <ele>826.78997803</ele>
        <time>2021-03-30T12:49:25Z</time>
      </trkpt>
      <trkpt lat="42.2415203" lon="2.2946735">
        <ele>826.59997559</ele>
        <time>2021-03-30T12:49:26Z</time>
      </trkpt>
      <trkpt lat="42.2414969" lon="2.2946191">
        <ele>826.4699707</ele>
        <time>2021-03-30T12:49:27Z</time>
      </trkpt>
      <trkpt lat="42.241473" lon="2.2945864">
        <ele>826.41998291</ele>
        <time>2021-03-30T12:49:28Z</time>
      </trkpt>
      <trkpt lat="42.241453" lon="2.2945436">
        <ele>826.39001465</ele>
        <time>2021-03-30T12:49:29Z</time>
      </trkpt>
      <trkpt lat="42.2414326" lon="2.2945048">
        <ele>826.40997314</ele>
        <time>2021-03-30T12:49:30Z</time>
      </trkpt>
      <trkpt lat="42.241415" lon="2.2944599">
        <ele>826.4699707</ele>
        <time>2021-03-30T12:49:31Z</time>
      </trkpt>
      <trkpt lat="42.2414009" lon="2.2944135">
        <ele>826.58001709</ele>
        <time>2021-03-30T12:49:32Z</time>
      </trkpt>
      <trkpt lat="42.2413777" lon="2.2943673">
        <ele>826.67999268</ele>
        <time>2021-03-30T12:49:33Z</time>
      </trkpt>
      <trkpt lat="42.2413601" lon="2.2943197">
        <ele>826.72998047</ele>
        <time>2021-03-30T12:49:34Z</time>
      </trkpt>
      <trkpt lat="42.241339" lon="2.2942801">
        <ele>826.73999023</ele>
        <time>2021-03-30T12:49:35Z</time>
      </trkpt>
      <trkpt lat="42.2413234" lon="2.2942372">
        <ele>826.70001221</ele>
        <time>2021-03-30T12:49:36Z</time>
      </trkpt>
      <trkpt lat="42.2413092" lon="2.2941961">
        <ele>826.64001465</ele>
        <time>2021-03-30T12:49:37Z</time>
      </trkpt>
      <trkpt lat="42.2412994" lon="2.294152">
        <ele>826.54998779</ele>
        <time>2021-03-30T12:49:38Z</time>
      </trkpt>
      <trkpt lat="42.2412895" lon="2.2940973">
        <ele>826.45001221</ele>
        <time>2021-03-30T12:49:39Z</time>
      </trkpt>
      <trkpt lat="42.2412693" lon="2.2940353">
        <ele>826.34002686</ele>
        <time>2021-03-30T12:49:40Z</time>
      </trkpt>
      <trkpt lat="42.2412675" lon="2.2939739">
        <ele>826.20001221</ele>
        <time>2021-03-30T12:49:41Z</time>
      </trkpt>
      <trkpt lat="42.2412656" lon="2.2939159">
        <ele>826.07000732</ele>
        <time>2021-03-30T12:49:42Z</time>
      </trkpt>
      <trkpt lat="42.2412556" lon="2.2938584">
        <ele>825.95001221</ele>
        <time>2021-03-30T12:49:43Z</time>
      </trkpt>
      <trkpt lat="42.2412422" lon="2.2937985">
        <ele>825.84997559</ele>
        <time>2021-03-30T12:49:44Z</time>
      </trkpt>
      <trkpt lat="42.2412369" lon="2.2937289">
        <ele>825.78997803</ele>
        <time>2021-03-30T12:49:45Z</time>
      </trkpt>
      <trkpt lat="42.2412327" lon="2.2936602">
        <ele>825.7800293</ele>
        <time>2021-03-30T12:49:46Z</time>
      </trkpt>
      <trkpt lat="42.2412213" lon="2.2935889">
        <ele>825.83001709</ele>
        <time>2021-03-30T12:49:47Z</time>
      </trkpt>
      <trkpt lat="42.241205" lon="2.293521">
        <ele>825.89001465</ele>
        <time>2021-03-30T12:49:48Z</time>
      </trkpt>
      <trkpt lat="42.241186" lon="2.2934731">
        <ele>825.97998047</ele>
        <time>2021-03-30T12:49:49Z</time>
      </trkpt>
      <trkpt lat="42.2411677" lon="2.2934203">
        <ele>826.07000732</ele>
        <time>2021-03-30T12:49:50Z</time>
      </trkpt>
      <trkpt lat="42.241139" lon="2.2933536">
        <ele>826.16998291</ele>
        <time>2021-03-30T12:49:51Z</time>
      </trkpt>
      <trkpt lat="42.2411238" lon="2.293299">
        <ele>826.30999756</ele>
        <time>2021-03-30T12:49:52Z</time>
      </trkpt>
      <trkpt lat="42.2410907" lon="2.2932417">
        <ele>826.44000244</ele>
        <time>2021-03-30T12:49:53Z</time>
      </trkpt>
      <trkpt lat="42.2410611" lon="2.2931792">
        <ele>826.5</ele>
        <time>2021-03-30T12:49:54Z</time>
      </trkpt>
      <trkpt lat="42.2410355" lon="2.2931281">
        <ele>826.48999023</ele>
        <time>2021-03-30T12:49:55Z</time>
      </trkpt>
      <trkpt lat="42.2410063" lon="2.2930798">
        <ele>826.42999268</ele>
        <time>2021-03-30T12:49:56Z</time>
      </trkpt>
      <trkpt lat="42.240977" lon="2.2930264">
        <ele>826.30999756</ele>
        <time>2021-03-30T12:49:57Z</time>
      </trkpt>
      <trkpt lat="42.2409466" lon="2.2929708">
        <ele>826.21002197</ele>
        <time>2021-03-30T12:49:58Z</time>
      </trkpt>
      <trkpt lat="42.2409215" lon="2.2929194">
        <ele>826.15002441</ele>
        <time>2021-03-30T12:49:59Z</time>
      </trkpt>
      <trkpt lat="42.2409041" lon="2.2928641">
        <ele>826.15997314</ele>
        <time>2021-03-30T12:50:00Z</time>
      </trkpt>
      <trkpt lat="42.2408867" lon="2.2928181">
        <ele>826.25</ele>
        <time>2021-03-30T12:50:01Z</time>
      </trkpt>
      <trkpt lat="42.2408658" lon="2.2927842">
        <ele>826.38000488</ele>
        <time>2021-03-30T12:50:02Z</time>
      </trkpt>
      <trkpt lat="42.240841" lon="2.2927603">
        <ele>826.5300293</ele>
        <time>2021-03-30T12:50:03Z</time>
      </trkpt>
      <trkpt lat="42.2408239" lon="2.2927447">
        <ele>826.63000488</ele>
        <time>2021-03-30T12:50:04Z</time>
      </trkpt>
      <trkpt lat="42.2408147" lon="2.2927183">
        <ele>826.67999268</ele>
        <time>2021-03-30T12:50:05Z</time>
      </trkpt>
      <trkpt lat="42.2407991" lon="2.2926877">
        <ele>826.67999268</ele>
        <time>2021-03-30T12:50:06Z</time>
      </trkpt>
      <trkpt lat="42.2407751" lon="2.2926445">
        <ele>826.63000488</ele>
        <time>2021-03-30T12:50:07Z</time>
      </trkpt>
      <trkpt lat="42.2407408" lon="2.2925894">
        <ele>826.5300293</ele>
        <time>2021-03-30T12:50:08Z</time>
      </trkpt>
      <trkpt lat="42.2407169" lon="2.2925377">
        <ele>826.36999512</ele>
        <time>2021-03-30T12:50:09Z</time>
      </trkpt>
      <trkpt lat="42.2406941" lon="2.2924801">
        <ele>826.20001221</ele>
        <time>2021-03-30T12:50:10Z</time>
      </trkpt>
      <trkpt lat="42.2406736" lon="2.292417">
        <ele>826.04998779</ele>
        <time>2021-03-30T12:50:11Z</time>
      </trkpt>
      <trkpt lat="42.240646" lon="2.2923411">
        <ele>825.92999268</ele>
        <time>2021-03-30T12:50:12Z</time>
      </trkpt>
      <trkpt lat="42.2406169" lon="2.2922805">
        <ele>825.79998779</ele>
        <time>2021-03-30T12:50:13Z</time>
      </trkpt>
      <trkpt lat="42.2405897" lon="2.2922034">
        <ele>825.61999512</ele>
        <time>2021-03-30T12:50:14Z</time>
      </trkpt>
      <trkpt lat="42.2405813" lon="2.2921353">
        <ele>825.38000488</ele>
        <time>2021-03-30T12:50:15Z</time>
      </trkpt>
      <trkpt lat="42.2405664" lon="2.292055">
        <ele>825.13000488</ele>
        <time>2021-03-30T12:50:16Z</time>
      </trkpt>
      <trkpt lat="42.2405559" lon="2.2919837">
        <ele>824.84002686</ele>
        <time>2021-03-30T12:50:17Z</time>
      </trkpt>
      <trkpt lat="42.2405378" lon="2.2918959">
        <ele>824.53997803</ele>
        <time>2021-03-30T12:50:18Z</time>
      </trkpt>
      <trkpt lat="42.2405171" lon="2.2917982">
        <ele>824.2800293</ele>
        <time>2021-03-30T12:50:19Z</time>
      </trkpt>
      <trkpt lat="42.2404934" lon="2.2916973">
        <ele>824.13000488</ele>
        <time>2021-03-30T12:50:20Z</time>
      </trkpt>
      <trkpt lat="42.2404629" lon="2.2915939">
        <ele>824.0300293</ele>
        <time>2021-03-30T12:50:21Z</time>
      </trkpt>
      <trkpt lat="42.2404364" lon="2.2915158">
        <ele>823.86999512</ele>
        <time>2021-03-30T12:50:22Z</time>
      </trkpt>
      <trkpt lat="42.2404082" lon="2.2914497">
        <ele>823.64001465</ele>
        <time>2021-03-30T12:50:23Z</time>
      </trkpt>
      <trkpt lat="42.2403667" lon="2.2913575">
        <ele>823.36999512</ele>
        <time>2021-03-30T12:50:24Z</time>
      </trkpt>
      <trkpt lat="42.2403346" lon="2.2912651">
        <ele>823.02001953</ele>
        <time>2021-03-30T12:50:25Z</time>
      </trkpt>
      <trkpt lat="42.2403172" lon="2.2911709">
        <ele>822.59002686</ele>
        <time>2021-03-30T12:50:26Z</time>
      </trkpt>
      <trkpt lat="42.2403032" lon="2.2910826">
        <ele>822.11999512</ele>
        <time>2021-03-30T12:50:27Z</time>
      </trkpt>
      <trkpt lat="42.2402835" lon="2.2909964">
        <ele>821.65002441</ele>
        <time>2021-03-30T12:50:28Z</time>
      </trkpt>
      <trkpt lat="42.240262" lon="2.2909208">
        <ele>821.15002441</ele>
        <time>2021-03-30T12:50:29Z</time>
      </trkpt>
      <trkpt lat="42.2402382" lon="2.2908497">
        <ele>820.58001709</ele>
        <time>2021-03-30T12:50:30Z</time>
      </trkpt>
      <trkpt lat="42.2402226" lon="2.2907912">
        <ele>820.39001465</ele>
        <time>2021-03-30T12:50:31Z</time>
      </trkpt>
      <trkpt lat="42.2402129" lon="2.2907316">
        <ele>819.65002441</ele>
        <time>2021-03-30T12:50:32Z</time>
      </trkpt>
      <trkpt lat="42.2401995" lon="2.2906779">
        <ele>818.90002441</ele>
        <time>2021-03-30T12:50:33Z</time>
      </trkpt>
      <trkpt lat="42.2401901" lon="2.2906289">
        <ele>818.14001465</ele>
        <time>2021-03-30T12:50:34Z</time>
      </trkpt>
      <trkpt lat="42.2401708" lon="2.2905772">
        <ele>817.41998291</ele>
        <time>2021-03-30T12:50:35Z</time>
      </trkpt>
      <trkpt lat="42.24015" lon="2.2905278">
        <ele>816.65997314</ele>
        <time>2021-03-30T12:50:36Z</time>
      </trkpt>
      <trkpt lat="42.2401336" lon="2.2904787">
        <ele>815.86999512</ele>
        <time>2021-03-30T12:50:37Z</time>
      </trkpt>
      <trkpt lat="42.2401025" lon="2.2904324">
        <ele>815.04998779</ele>
        <time>2021-03-30T12:50:38Z</time>
      </trkpt>
      <trkpt lat="42.2400848" lon="2.2903864">
        <ele>814.92999268</ele>
        <time>2021-03-30T12:50:39Z</time>
      </trkpt>
      <trkpt lat="42.2400702" lon="2.2903392">
        <ele>813.90997314</ele>
        <time>2021-03-30T12:50:40Z</time>
      </trkpt>
      <trkpt lat="42.2400712" lon="2.2902892">
        <ele>812.84997559</ele>
        <time>2021-03-30T12:50:41Z</time>
      </trkpt>
      <trkpt lat="42.2400608" lon="2.2902217">
        <ele>811.92999268</ele>
        <time>2021-03-30T12:50:42Z</time>
      </trkpt>
      <trkpt lat="42.2400987" lon="2.2901831">
        <ele>811.7800293</ele>
        <time>2021-03-30T12:50:43Z</time>
      </trkpt>
      <trkpt lat="42.2401362" lon="2.2901372">
        <ele>811.57000732</ele>
        <time>2021-03-30T12:50:44Z</time>
      </trkpt>
      <trkpt lat="42.2401704" lon="2.290093">
        <ele>810.72998047</ele>
        <time>2021-03-30T12:50:45Z</time>
      </trkpt>
      <trkpt lat="42.2402079" lon="2.2900791">
        <ele>809.97998047</ele>
        <time>2021-03-30T12:50:46Z</time>
      </trkpt>
      <trkpt lat="42.2402451" lon="2.2900553">
        <ele>809.47998047</ele>
        <time>2021-03-30T12:50:47Z</time>
      </trkpt>
      <trkpt lat="42.2402828" lon="2.2900163">
        <ele>809.14001465</ele>
        <time>2021-03-30T12:50:48Z</time>
      </trkpt>
      <trkpt lat="42.2403216" lon="2.2899743">
        <ele>808.85998535</ele>
        <time>2021-03-30T12:50:49Z</time>
      </trkpt>
      <trkpt lat="42.2403622" lon="2.289949">
        <ele>808.51000977</ele>
        <time>2021-03-30T12:50:50Z</time>
      </trkpt>
      <trkpt lat="42.2404055" lon="2.2899286">
        <ele>808.15997314</ele>
        <time>2021-03-30T12:50:51Z</time>
      </trkpt>
      <trkpt lat="42.2404489" lon="2.2899052">
        <ele>807.82000732</ele>
        <time>2021-03-30T12:50:52Z</time>
      </trkpt>
      <trkpt lat="42.2404936" lon="2.2898765">
        <ele>807.46002197</ele>
        <time>2021-03-30T12:50:53Z</time>
      </trkpt>
      <trkpt lat="42.2405387" lon="2.2898472">
        <ele>807.03997803</ele>
        <time>2021-03-30T12:50:54Z</time>
      </trkpt>
      <trkpt lat="42.240584" lon="2.2898196">
        <ele>806.90002441</ele>
        <time>2021-03-30T12:50:55Z</time>
      </trkpt>
      <trkpt lat="42.2406301" lon="2.2897905">
        <ele>806.73999023</ele>
        <time>2021-03-30T12:50:56Z</time>
      </trkpt>
      <trkpt lat="42.2406801" lon="2.2897722">
        <ele>806.53997803</ele>
        <time>2021-03-30T12:50:57Z</time>
      </trkpt>
      <trkpt lat="42.2407273" lon="2.289752">
        <ele>806.29998779</ele>
        <time>2021-03-30T12:50:58Z</time>
      </trkpt>
      <trkpt lat="42.2407715" lon="2.2897289">
        <ele>806.02001953</ele>
        <time>2021-03-30T12:50:59Z</time>
      </trkpt>
      <trkpt lat="42.2408206" lon="2.2897075">
        <ele>805.69000244</ele>
        <time>2021-03-30T12:51:00Z</time>
      </trkpt>
      <trkpt lat="42.2408739" lon="2.2896956">
        <ele>804.19000244</ele>
        <time>2021-03-30T12:51:01Z</time>
      </trkpt>
      <trkpt lat="42.240927" lon="2.2896808">
        <ele>802.80999756</ele>
        <time>2021-03-30T12:51:02Z</time>
      </trkpt>
      <trkpt lat="42.2409765" lon="2.2896718">
        <ele>801.60998535</ele>
        <time>2021-03-30T12:51:03Z</time>
      </trkpt>
      <trkpt lat="42.2410246" lon="2.2896635">
        <ele>800.57000732</ele>
        <time>2021-03-30T12:51:04Z</time>
      </trkpt>
      <trkpt lat="42.2410619" lon="2.2896426">
        <ele>799.65002441</ele>
        <time>2021-03-30T12:51:05Z</time>
      </trkpt>
      <trkpt lat="42.2410945" lon="2.2896197">
        <ele>798.77001953</ele>
        <time>2021-03-30T12:51:06Z</time>
      </trkpt>
      <trkpt lat="42.2411336" lon="2.289588">
        <ele>797.91998291</ele>
        <time>2021-03-30T12:51:07Z</time>
      </trkpt>
      <trkpt lat="42.2411793" lon="2.2895558">
        <ele>797.65997314</ele>
        <time>2021-03-30T12:51:08Z</time>
      </trkpt>
      <trkpt lat="42.241217" lon="2.2895187">
        <ele>797.41998291</ele>
        <time>2021-03-30T12:51:09Z</time>
      </trkpt>
      <trkpt lat="42.2412563" lon="2.289501">
        <ele>797.14001465</ele>
        <time>2021-03-30T12:51:10Z</time>
      </trkpt>
      <trkpt lat="42.2412959" lon="2.289482">
        <ele>795.84997559</ele>
        <time>2021-03-30T12:51:11Z</time>
      </trkpt>
      <trkpt lat="42.2413326" lon="2.2894534">
        <ele>794.59997559</ele>
        <time>2021-03-30T12:51:12Z</time>
      </trkpt>
      <trkpt lat="42.2413598" lon="2.2894198">
        <ele>793.40997314</ele>
        <time>2021-03-30T12:51:13Z</time>
      </trkpt>
      <trkpt lat="42.2413775" lon="2.2893868">
        <ele>792.34997559</ele>
        <time>2021-03-30T12:51:14Z</time>
      </trkpt>
      <trkpt lat="42.2413781" lon="2.2893632">
        <ele>791.42999268</ele>
        <time>2021-03-30T12:51:15Z</time>
      </trkpt>
      <trkpt lat="42.2413646" lon="2.2893391">
        <ele>790.63000488</ele>
        <time>2021-03-30T12:51:16Z</time>
      </trkpt>
      <trkpt lat="42.2413367" lon="2.2893068">
        <ele>789.92999268</ele>
        <time>2021-03-30T12:51:17Z</time>
      </trkpt>
      <trkpt lat="42.2413126" lon="2.2892638">
        <ele>789.2800293</ele>
        <time>2021-03-30T12:51:18Z</time>
      </trkpt>
      <trkpt lat="42.241318" lon="2.2891946">
        <ele>788.65997314</ele>
        <time>2021-03-30T12:51:19Z</time>
      </trkpt>
      <trkpt lat="42.241306" lon="2.2891542">
        <ele>788.09002686</ele>
        <time>2021-03-30T12:51:20Z</time>
      </trkpt>
      <trkpt lat="42.2413139" lon="2.2891079">
        <ele>787.55999756</ele>
        <time>2021-03-30T12:51:21Z</time>
      </trkpt>
      <trkpt lat="42.2413311" lon="2.289055">
        <ele>787.20001221</ele>
        <time>2021-03-30T12:51:22Z</time>
      </trkpt>
      <trkpt lat="42.2413677" lon="2.289033">
        <ele>787.02001953</ele>
        <time>2021-03-30T12:51:23Z</time>
      </trkpt>
      <trkpt lat="42.2414022" lon="2.2890122">
        <ele>786.97998047</ele>
        <time>2021-03-30T12:51:24Z</time>
      </trkpt>
      <trkpt lat="42.2414371" lon="2.2889977">
        <ele>787.07000732</ele>
        <time>2021-03-30T12:51:25Z</time>
      </trkpt>
      <trkpt lat="42.2414678" lon="2.2889848">
        <ele>787.25</ele>
        <time>2021-03-30T12:51:26Z</time>
      </trkpt>
      <trkpt lat="42.2414883" lon="2.2889533">
        <ele>787.5</ele>
        <time>2021-03-30T12:51:27Z</time>
      </trkpt>
      <trkpt lat="42.2415088" lon="2.2889293">
        <ele>787.83001709</ele>
        <time>2021-03-30T12:51:28Z</time>
      </trkpt>
      <trkpt lat="42.2415161" lon="2.2888942">
        <ele>788.2199707</ele>
        <time>2021-03-30T12:51:29Z</time>
      </trkpt>
      <trkpt lat="42.2415166" lon="2.2888561">
        <ele>788.65002441</ele>
        <time>2021-03-30T12:51:30Z</time>
      </trkpt>
      <trkpt lat="42.2415153" lon="2.2888221">
        <ele>789.09002686</ele>
        <time>2021-03-30T12:51:31Z</time>
      </trkpt>
      <trkpt lat="42.2415109" lon="2.2887819">
        <ele>789.52001953</ele>
        <time>2021-03-30T12:51:32Z</time>
      </trkpt>
      <trkpt lat="42.2415071" lon="2.288739">
        <ele>789.95001221</ele>
        <time>2021-03-30T12:51:33Z</time>
      </trkpt>
      <trkpt lat="42.2415159" lon="2.2886655">
        <ele>790.36999512</ele>
        <time>2021-03-30T12:51:34Z</time>
      </trkpt>
      <trkpt lat="42.2414993" lon="2.2886376">
        <ele>790.83001709</ele>
        <time>2021-03-30T12:51:35Z</time>
      </trkpt>
      <trkpt lat="42.2414764" lon="2.2886107">
        <ele>791.2800293</ele>
        <time>2021-03-30T12:51:36Z</time>
      </trkpt>
      <trkpt lat="42.2414608" lon="2.2885898">
        <ele>791.71002197</ele>
        <time>2021-03-30T12:51:37Z</time>
      </trkpt>
      <trkpt lat="42.2414486" lon="2.2885628">
        <ele>792.15002441</ele>
        <time>2021-03-30T12:51:38Z</time>
      </trkpt>
      <trkpt lat="42.2414306" lon="2.2885373">
        <ele>792.60998535</ele>
        <time>2021-03-30T12:51:39Z</time>
      </trkpt>
      <trkpt lat="42.2414075" lon="2.2885177">
        <ele>793.07000732</ele>
        <time>2021-03-30T12:51:40Z</time>
      </trkpt>
      <trkpt lat="42.2413859" lon="2.2885035">
        <ele>793.52001953</ele>
        <time>2021-03-30T12:51:41Z</time>
      </trkpt>
      <trkpt lat="42.2413636" lon="2.2884891">
        <ele>793.92999268</ele>
        <time>2021-03-30T12:51:42Z</time>
      </trkpt>
      <trkpt lat="42.2413431" lon="2.2884696">
        <ele>794.2800293</ele>
        <time>2021-03-30T12:51:43Z</time>
      </trkpt>
      <trkpt lat="42.2413235" lon="2.2884444">
        <ele>794.59002686</ele>
        <time>2021-03-30T12:51:44Z</time>
      </trkpt>
      <trkpt lat="42.2413073" lon="2.2884228">
        <ele>794.88000488</ele>
        <time>2021-03-30T12:51:45Z</time>
      </trkpt>
      <trkpt lat="42.2412985" lon="2.2883912">
        <ele>795.14001465</ele>
        <time>2021-03-30T12:51:46Z</time>
      </trkpt>
      <trkpt lat="42.2412878" lon="2.2883585">
        <ele>795.42999268</ele>
        <time>2021-03-30T12:51:47Z</time>
      </trkpt>
      <trkpt lat="42.241276" lon="2.2883291">
        <ele>795.7199707</ele>
        <time>2021-03-30T12:51:48Z</time>
      </trkpt>
      <trkpt lat="42.2412678" lon="2.2882964">
        <ele>796.0300293</ele>
        <time>2021-03-30T12:51:49Z</time>
      </trkpt>
      <trkpt lat="42.2412567" lon="2.2882692">
        <ele>796.34997559</ele>
        <time>2021-03-30T12:51:50Z</time>
      </trkpt>
      <trkpt lat="42.2412493" lon="2.288235">
        <ele>796.65997314</ele>
        <time>2021-03-30T12:51:51Z</time>
      </trkpt>
      <trkpt lat="42.2412395" lon="2.2881997">
        <ele>797</ele>
        <time>2021-03-30T12:51:52Z</time>
      </trkpt>
      <trkpt lat="42.2412238" lon="2.2881704">
        <ele>797.35998535</ele>
        <time>2021-03-30T12:51:53Z</time>
      </trkpt>
      <trkpt lat="42.2412101" lon="2.2881399">
        <ele>797.71002197</ele>
        <time>2021-03-30T12:51:54Z</time>
      </trkpt>
      <trkpt lat="42.2411986" lon="2.2881111">
        <ele>798.04998779</ele>
        <time>2021-03-30T12:51:55Z</time>
      </trkpt>
      <trkpt lat="42.2411953" lon="2.2880818">
        <ele>798.39001465</ele>
        <time>2021-03-30T12:51:56Z</time>
      </trkpt>
      <trkpt lat="42.2411793" lon="2.288061">
        <ele>798.75</ele>
        <time>2021-03-30T12:51:57Z</time>
      </trkpt>
      <trkpt lat="42.241171" lon="2.2880412">
        <ele>799.08001709</ele>
        <time>2021-03-30T12:51:58Z</time>
      </trkpt>
      <trkpt lat="42.2411682" lon="2.2880225">
        <ele>799.40002441</ele>
        <time>2021-03-30T12:51:59Z</time>
      </trkpt>
      <trkpt lat="42.2411738" lon="2.2879976">
        <ele>799.70001221</ele>
        <time>2021-03-30T12:52:00Z</time>
      </trkpt>
      <trkpt lat="42.2411715" lon="2.2879791">
        <ele>800.02001953</ele>
        <time>2021-03-30T12:52:01Z</time>
      </trkpt>
      <trkpt lat="42.2411617" lon="2.2879714">
        <ele>800.34002686</ele>
        <time>2021-03-30T12:52:02Z</time>
      </trkpt>
      <trkpt lat="42.2411532" lon="2.2879682">
        <ele>802.67999268</ele>
        <time>2021-03-30T12:52:03Z</time>
      </trkpt>
      <trkpt lat="42.2411438" lon="2.2879674">
        <ele>802.86999512</ele>
        <time>2021-03-30T12:52:04Z</time>
      </trkpt>
      <trkpt lat="42.2411361" lon="2.2879686">
        <ele>802.7800293</ele>
        <time>2021-03-30T12:52:05Z</time>
      </trkpt>
      <trkpt lat="42.2411301" lon="2.2879666">
        <ele>802.66998291</ele>
        <time>2021-03-30T12:52:06Z</time>
      </trkpt>
      <trkpt lat="42.2410931" lon="2.2879305">
        <ele>802.80999756</ele>
        <time>2021-03-30T12:52:52Z</time>
      </trkpt>
      <trkpt lat="42.2410953" lon="2.2879312">
        <ele>802.89001465</ele>
        <time>2021-03-30T12:52:53Z</time>
      </trkpt>
      <trkpt lat="42.241087" lon="2.2879315">
        <ele>802.90002441</ele>
        <time>2021-03-30T12:52:54Z</time>
      </trkpt>
      <trkpt lat="42.2410696" lon="2.2879332">
        <ele>802.84002686</ele>
        <time>2021-03-30T12:52:55Z</time>
      </trkpt>
      <trkpt lat="42.2410539" lon="2.2879465">
        <ele>802.66998291</ele>
        <time>2021-03-30T12:52:56Z</time>
      </trkpt>
      <trkpt lat="42.241037" lon="2.2879519">
        <ele>802.34997559</ele>
        <time>2021-03-30T12:52:57Z</time>
      </trkpt>
      <trkpt lat="42.2410141" lon="2.2879516">
        <ele>802.14001465</ele>
        <time>2021-03-30T12:52:58Z</time>
      </trkpt>
      <trkpt lat="42.2409848" lon="2.2879432">
        <ele>801.9699707</ele>
        <time>2021-03-30T12:52:59Z</time>
      </trkpt>
      <trkpt lat="42.2409522" lon="2.2879436">
        <ele>801.84002686</ele>
        <time>2021-03-30T12:53:00Z</time>
      </trkpt>
      <trkpt lat="42.2409267" lon="2.2879528">
        <ele>801.59997559</ele>
        <time>2021-03-30T12:53:01Z</time>
      </trkpt>
      <trkpt lat="42.240914" lon="2.287953">
        <ele>801.34997559</ele>
        <time>2021-03-30T12:53:02Z</time>
      </trkpt>
      <trkpt lat="42.240892" lon="2.2879482">
        <ele>801.23999023</ele>
        <time>2021-03-30T12:53:03Z</time>
      </trkpt>
      <trkpt lat="42.2408629" lon="2.287932">
        <ele>801.10998535</ele>
        <time>2021-03-30T12:53:04Z</time>
      </trkpt>
      <trkpt lat="42.2408357" lon="2.2879277">
        <ele>800.92999268</ele>
        <time>2021-03-30T12:53:05Z</time>
      </trkpt>
      <trkpt lat="42.2407965" lon="2.2879148">
        <ele>800.70001221</ele>
        <time>2021-03-30T12:53:06Z</time>
      </trkpt>
      <trkpt lat="42.2407558" lon="2.2879093">
        <ele>800.65997314</ele>
        <time>2021-03-30T12:53:07Z</time>
      </trkpt>
      <trkpt lat="42.240716" lon="2.2879027">
        <ele>800.65997314</ele>
        <time>2021-03-30T12:53:08Z</time>
      </trkpt>
      <trkpt lat="42.2406805" lon="2.2878964">
        <ele>800.65997314</ele>
        <time>2021-03-30T12:53:09Z</time>
      </trkpt>
      <trkpt lat="42.2406546" lon="2.2878838">
        <ele>800.65997314</ele>
        <time>2021-03-30T12:53:10Z</time>
      </trkpt>
      <trkpt lat="42.2406177" lon="2.2878601">
        <ele>800.65997314</ele>
        <time>2021-03-30T12:53:11Z</time>
      </trkpt>
      <trkpt lat="42.2405738" lon="2.2878362">
        <ele>800.65997314</ele>
        <time>2021-03-30T12:53:12Z</time>
      </trkpt>
      <trkpt lat="42.2405397" lon="2.2878222">
        <ele>800.65997314</ele>
        <time>2021-03-30T12:53:13Z</time>
      </trkpt>
      <trkpt lat="42.2404985" lon="2.2878106">
        <ele>800.63000488</ele>
        <time>2021-03-30T12:53:14Z</time>
      </trkpt>
      <trkpt lat="42.2404512" lon="2.2877696">
        <ele>800.59997559</ele>
        <time>2021-03-30T12:53:15Z</time>
      </trkpt>
      <trkpt lat="42.2404076" lon="2.2877491">
        <ele>800.60998535</ele>
        <time>2021-03-30T12:53:16Z</time>
      </trkpt>
      <trkpt lat="42.2403669" lon="2.2877279">
        <ele>800.61999512</ele>
        <time>2021-03-30T12:53:17Z</time>
      </trkpt>
      <trkpt lat="42.2403313" lon="2.2877044">
        <ele>800.63000488</ele>
        <time>2021-03-30T12:53:18Z</time>
      </trkpt>
      <trkpt lat="42.2402979" lon="2.2876776">
        <ele>800.63000488</ele>
        <time>2021-03-30T12:53:19Z</time>
      </trkpt>
      <trkpt lat="42.2402569" lon="2.2876524">
        <ele>800.63000488</ele>
        <time>2021-03-30T12:53:20Z</time>
      </trkpt>
      <trkpt lat="42.2402199" lon="2.2876141">
        <ele>800.60998535</ele>
        <time>2021-03-30T12:53:21Z</time>
      </trkpt>
      <trkpt lat="42.2401732" lon="2.2875865">
        <ele>800.55999756</ele>
        <time>2021-03-30T12:53:22Z</time>
      </trkpt>
      <trkpt lat="42.2401359" lon="2.2875583">
        <ele>800.48999023</ele>
        <time>2021-03-30T12:53:23Z</time>
      </trkpt>
      <trkpt lat="42.2400981" lon="2.2875403">
        <ele>800.44000244</ele>
        <time>2021-03-30T12:53:24Z</time>
      </trkpt>
      <trkpt lat="42.2400637" lon="2.2875165">
        <ele>800.40997314</ele>
        <time>2021-03-30T12:53:25Z</time>
      </trkpt>
      <trkpt lat="42.2400356" lon="2.2874718">
        <ele>800.40002441</ele>
        <time>2021-03-30T12:53:26Z</time>
      </trkpt>
      <trkpt lat="42.2400069" lon="2.2874483">
        <ele>800.48999023</ele>
        <time>2021-03-30T12:53:27Z</time>
      </trkpt>
      <trkpt lat="42.2399686" lon="2.2874225">
        <ele>800.60998535</ele>
        <time>2021-03-30T12:53:28Z</time>
      </trkpt>
      <trkpt lat="42.2399265" lon="2.2873863">
        <ele>800.7800293</ele>
        <time>2021-03-30T12:53:29Z</time>
      </trkpt>
      <trkpt lat="42.2398964" lon="2.2873513">
        <ele>801</ele>
        <time>2021-03-30T12:53:30Z</time>
      </trkpt>
      <trkpt lat="42.2398471" lon="2.2873089">
        <ele>801.27001953</ele>
        <time>2021-03-30T12:53:31Z</time>
      </trkpt>
      <trkpt lat="42.239814" lon="2.2872741">
        <ele>801.59997559</ele>
        <time>2021-03-30T12:53:32Z</time>
      </trkpt>
      <trkpt lat="42.2397873" lon="2.287245">
        <ele>801.96002197</ele>
        <time>2021-03-30T12:53:33Z</time>
      </trkpt>
      <trkpt lat="42.2397587" lon="2.2872108">
        <ele>802.34002686</ele>
        <time>2021-03-30T12:53:34Z</time>
      </trkpt>
      <trkpt lat="42.2397184" lon="2.287179">
        <ele>802.73999023</ele>
        <time>2021-03-30T12:53:35Z</time>
      </trkpt>
      <trkpt lat="42.2396907" lon="2.2871531">
        <ele>803.08001709</ele>
        <time>2021-03-30T12:53:36Z</time>
      </trkpt>
      <trkpt lat="42.2396668" lon="2.2871274">
        <ele>803.28997803</ele>
        <time>2021-03-30T12:53:37Z</time>
      </trkpt>
      <trkpt lat="42.2396428" lon="2.2871012">
        <ele>803.40002441</ele>
        <time>2021-03-30T12:53:38Z</time>
      </trkpt>
      <trkpt lat="42.2396121" lon="2.2870647">
        <ele>803.42999268</ele>
        <time>2021-03-30T12:53:39Z</time>
      </trkpt>
      <trkpt lat="42.2395973" lon="2.2870372">
        <ele>803.39001465</ele>
        <time>2021-03-30T12:53:40Z</time>
      </trkpt>
      <trkpt lat="42.2395761" lon="2.2870151">
        <ele>803.32000732</ele>
        <time>2021-03-30T12:53:41Z</time>
      </trkpt>
      <trkpt lat="42.2395544" lon="2.2869957">
        <ele>803.23999023</ele>
        <time>2021-03-30T12:53:42Z</time>
      </trkpt>
      <trkpt lat="42.2395471" lon="2.2869771">
        <ele>803.11999512</ele>
        <time>2021-03-30T12:53:43Z</time>
      </trkpt>
      <trkpt lat="42.2395263" lon="2.286945">
        <ele>803.0300293</ele>
        <time>2021-03-30T12:53:44Z</time>
      </trkpt>
      <trkpt lat="42.2395159" lon="2.2869301">
        <ele>802.94000244</ele>
        <time>2021-03-30T12:53:45Z</time>
      </trkpt>
      <trkpt lat="42.2395004" lon="2.2869218">
        <ele>802.86999512</ele>
        <time>2021-03-30T12:53:46Z</time>
      </trkpt>
      <trkpt lat="42.2394923" lon="2.2868921">
        <ele>802.79998779</ele>
        <time>2021-03-30T12:53:47Z</time>
      </trkpt>
      <trkpt lat="42.2394836" lon="2.286863">
        <ele>802.77001953</ele>
        <time>2021-03-30T12:53:48Z</time>
      </trkpt>
      <trkpt lat="42.2394619" lon="2.2868206">
        <ele>802.78997803</ele>
        <time>2021-03-30T12:53:49Z</time>
      </trkpt>
      <trkpt lat="42.2394343" lon="2.2867834">
        <ele>802.84002686</ele>
        <time>2021-03-30T12:53:50Z</time>
      </trkpt>
      <trkpt lat="42.2394076" lon="2.2867545">
        <ele>802.91998291</ele>
        <time>2021-03-30T12:53:51Z</time>
      </trkpt>
      <trkpt lat="42.2393734" lon="2.2867183">
        <ele>802.98999023</ele>
        <time>2021-03-30T12:53:52Z</time>
      </trkpt>
      <trkpt lat="42.2393427" lon="2.2866828">
        <ele>803.05999756</ele>
        <time>2021-03-30T12:53:53Z</time>
      </trkpt>
      <trkpt lat="42.2393048" lon="2.2866345">
        <ele>803.13000488</ele>
        <time>2021-03-30T12:53:54Z</time>
      </trkpt>
      <trkpt lat="42.2392863" lon="2.2865964">
        <ele>803.17999268</ele>
        <time>2021-03-30T12:53:55Z</time>
      </trkpt>
      <trkpt lat="42.2392659" lon="2.2865647">
        <ele>803.23999023</ele>
        <time>2021-03-30T12:53:56Z</time>
      </trkpt>
      <trkpt lat="42.2392487" lon="2.2865284">
        <ele>803.29998779</ele>
        <time>2021-03-30T12:53:57Z</time>
      </trkpt>
      <trkpt lat="42.2392352" lon="2.2864837">
        <ele>803.38000488</ele>
        <time>2021-03-30T12:53:58Z</time>
      </trkpt>
      <trkpt lat="42.2392201" lon="2.28645">
        <ele>803.51000977</ele>
        <time>2021-03-30T12:53:59Z</time>
      </trkpt>
      <trkpt lat="42.2392043" lon="2.286428">
        <ele>803.66998291</ele>
        <time>2021-03-30T12:54:00Z</time>
      </trkpt>
      <trkpt lat="42.2391898" lon="2.286405">
        <ele>803.84997559</ele>
        <time>2021-03-30T12:54:01Z</time>
      </trkpt>
      <trkpt lat="42.239164" lon="2.2863695">
        <ele>804.03997803</ele>
        <time>2021-03-30T12:54:02Z</time>
      </trkpt>
      <trkpt lat="42.2391402" lon="2.2863408">
        <ele>804.23999023</ele>
        <time>2021-03-30T12:54:03Z</time>
      </trkpt>
      <trkpt lat="42.2391232" lon="2.2862976">
        <ele>804.39001465</ele>
        <time>2021-03-30T12:54:04Z</time>
      </trkpt>
      <trkpt lat="42.2391048" lon="2.2862605">
        <ele>804.5</ele>
        <time>2021-03-30T12:54:05Z</time>
      </trkpt>
      <trkpt lat="42.2390803" lon="2.2862331">
        <ele>804.59002686</ele>
        <time>2021-03-30T12:54:06Z</time>
      </trkpt>
      <trkpt lat="42.2390531" lon="2.2862057">
        <ele>804.66998291</ele>
        <time>2021-03-30T12:54:07Z</time>
      </trkpt>
      <trkpt lat="42.239033" lon="2.2861727">
        <ele>804.72998047</ele>
        <time>2021-03-30T12:54:08Z</time>
      </trkpt>
      <trkpt lat="42.2390205" lon="2.2861406">
        <ele>804.79998779</ele>
        <time>2021-03-30T12:54:09Z</time>
      </trkpt>
      <trkpt lat="42.2389994" lon="2.2861149">
        <ele>804.89001465</ele>
        <time>2021-03-30T12:54:10Z</time>
      </trkpt>
      <trkpt lat="42.2389718" lon="2.286074">
        <ele>805</ele>
        <time>2021-03-30T12:54:11Z</time>
      </trkpt>
      <trkpt lat="42.2389565" lon="2.2860538">
        <ele>805.10998535</ele>
        <time>2021-03-30T12:54:12Z</time>
      </trkpt>
      <trkpt lat="42.2389423" lon="2.2860241">
        <ele>805.20001221</ele>
        <time>2021-03-30T12:54:13Z</time>
      </trkpt>
      <trkpt lat="42.2389225" lon="2.2859994">
        <ele>805.28997803</ele>
        <time>2021-03-30T12:54:14Z</time>
      </trkpt>
      <trkpt lat="42.2388934" lon="2.2859609">
        <ele>805.35998535</ele>
        <time>2021-03-30T12:54:15Z</time>
      </trkpt>
      <trkpt lat="42.2388756" lon="2.2859339">
        <ele>805.42999268</ele>
        <time>2021-03-30T12:54:16Z</time>
      </trkpt>
      <trkpt lat="42.2388588" lon="2.2859068">
        <ele>805.47998047</ele>
        <time>2021-03-30T12:54:17Z</time>
      </trkpt>
      <trkpt lat="42.2388378" lon="2.2858675">
        <ele>805.52001953</ele>
        <time>2021-03-30T12:54:18Z</time>
      </trkpt>
      <trkpt lat="42.2388119" lon="2.2858292">
        <ele>805.55999756</ele>
        <time>2021-03-30T12:54:19Z</time>
      </trkpt>
      <trkpt lat="42.2387857" lon="2.2857934">
        <ele>805.59997559</ele>
        <time>2021-03-30T12:54:20Z</time>
      </trkpt>
      <trkpt lat="42.2387685" lon="2.2857557">
        <ele>805.64001465</ele>
        <time>2021-03-30T12:54:21Z</time>
      </trkpt>
      <trkpt lat="42.2387499" lon="2.2857283">
        <ele>805.67999268</ele>
        <time>2021-03-30T12:54:22Z</time>
      </trkpt>
      <trkpt lat="42.2387317" lon="2.2856922">
        <ele>805.71002197</ele>
        <time>2021-03-30T12:54:23Z</time>
      </trkpt>
      <trkpt lat="42.2387196" lon="2.2856543">
        <ele>805.73999023</ele>
        <time>2021-03-30T12:54:24Z</time>
      </trkpt>
      <trkpt lat="42.2387037" lon="2.2856215">
        <ele>805.77001953</ele>
        <time>2021-03-30T12:54:25Z</time>
      </trkpt>
      <trkpt lat="42.2386913" lon="2.2855956">
        <ele>805.78997803</ele>
        <time>2021-03-30T12:54:26Z</time>
      </trkpt>
      <trkpt lat="42.2386755" lon="2.2855714">
        <ele>805.80999756</ele>
        <time>2021-03-30T12:54:27Z</time>
      </trkpt>
      <trkpt lat="42.2386608" lon="2.2855346">
        <ele>805.83001709</ele>
        <time>2021-03-30T12:54:28Z</time>
      </trkpt>
      <trkpt lat="42.23863" lon="2.2854938">
        <ele>805.84997559</ele>
        <time>2021-03-30T12:54:29Z</time>
      </trkpt>
      <trkpt lat="42.2386149" lon="2.2854548">
        <ele>805.85998535</ele>
        <time>2021-03-30T12:54:30Z</time>
      </trkpt>
      <trkpt lat="42.2385982" lon="2.2854213">
        <ele>805.88000488</ele>
        <time>2021-03-30T12:54:31Z</time>
      </trkpt>
      <trkpt lat="42.2385827" lon="2.2853951">
        <ele>805.85998535</ele>
        <time>2021-03-30T12:54:32Z</time>
      </trkpt>
      <trkpt lat="42.2385579" lon="2.2853613">
        <ele>805.82000732</ele>
        <time>2021-03-30T12:54:33Z</time>
      </trkpt>
      <trkpt lat="42.2385422" lon="2.2853269">
        <ele>805.73999023</ele>
        <time>2021-03-30T12:54:34Z</time>
      </trkpt>
      <trkpt lat="42.2385205" lon="2.2852878">
        <ele>805.61999512</ele>
        <time>2021-03-30T12:54:35Z</time>
      </trkpt>
      <trkpt lat="42.2385038" lon="2.2852586">
        <ele>805.47998047</ele>
        <time>2021-03-30T12:54:36Z</time>
      </trkpt>
      <trkpt lat="42.2384829" lon="2.2852202">
        <ele>805.34997559</ele>
        <time>2021-03-30T12:54:37Z</time>
      </trkpt>
      <trkpt lat="42.2384579" lon="2.2851827">
        <ele>805.27001953</ele>
        <time>2021-03-30T12:54:38Z</time>
      </trkpt>
      <trkpt lat="42.2384408" lon="2.2851469">
        <ele>805.22998047</ele>
        <time>2021-03-30T12:54:39Z</time>
      </trkpt>
      <trkpt lat="42.2384272" lon="2.2851085">
        <ele>805.2199707</ele>
        <time>2021-03-30T12:54:40Z</time>
      </trkpt>
      <trkpt lat="42.2384027" lon="2.2850762">
        <ele>805.27001953</ele>
        <time>2021-03-30T12:54:41Z</time>
      </trkpt>
      <trkpt lat="42.238383" lon="2.2850453">
        <ele>805.33001709</ele>
        <time>2021-03-30T12:54:42Z</time>
      </trkpt>
      <trkpt lat="42.2383627" lon="2.2850151">
        <ele>805.40997314</ele>
        <time>2021-03-30T12:54:43Z</time>
      </trkpt>
      <trkpt lat="42.2383376" lon="2.2849803">
        <ele>805.5</ele>
        <time>2021-03-30T12:54:44Z</time>
      </trkpt>
      <trkpt lat="42.2383207" lon="2.2849456">
        <ele>805.55999756</ele>
        <time>2021-03-30T12:54:45Z</time>
      </trkpt>
      <trkpt lat="42.2383055" lon="2.2849238">
        <ele>805.58001709</ele>
        <time>2021-03-30T12:54:46Z</time>
      </trkpt>
      <trkpt lat="42.2382881" lon="2.2848985">
        <ele>805.57000732</ele>
        <time>2021-03-30T12:54:47Z</time>
      </trkpt>
      <trkpt lat="42.2382762" lon="2.2848726">
        <ele>805.5300293</ele>
        <time>2021-03-30T12:54:48Z</time>
      </trkpt>
      <trkpt lat="42.2382689" lon="2.2848415">
        <ele>805.46002197</ele>
        <time>2021-03-30T12:54:49Z</time>
      </trkpt>
      <trkpt lat="42.2382514" lon="2.2848145">
        <ele>805.39001465</ele>
        <time>2021-03-30T12:54:50Z</time>
      </trkpt>
      <trkpt lat="42.2382312" lon="2.2847817">
        <ele>805.28997803</ele>
        <time>2021-03-30T12:54:51Z</time>
      </trkpt>
      <trkpt lat="42.2382138" lon="2.2847536">
        <ele>805.15997314</ele>
        <time>2021-03-30T12:54:52Z</time>
      </trkpt>
      <trkpt lat="42.238197" lon="2.2847242">
        <ele>805</ele>
        <time>2021-03-30T12:54:53Z</time>
      </trkpt>
      <trkpt lat="42.2381857" lon="2.2846978">
        <ele>804.83001709</ele>
        <time>2021-03-30T12:54:54Z</time>
      </trkpt>
      <trkpt lat="42.2381688" lon="2.2846694">
        <ele>804.65002441</ele>
        <time>2021-03-30T12:54:55Z</time>
      </trkpt>
      <trkpt lat="42.2381496" lon="2.2846419">
        <ele>804.46002197</ele>
        <time>2021-03-30T12:54:56Z</time>
      </trkpt>
      <trkpt lat="42.2381283" lon="2.2846219">
        <ele>804.25</ele>
        <time>2021-03-30T12:54:57Z</time>
      </trkpt>
      <trkpt lat="42.2381198" lon="2.2846035">
        <ele>804.02001953</ele>
        <time>2021-03-30T12:54:58Z</time>
      </trkpt>
      <trkpt lat="42.2381118" lon="2.2845929">
        <ele>803.78997803</ele>
        <time>2021-03-30T12:54:59Z</time>
      </trkpt>
      <trkpt lat="42.2380949" lon="2.2845798">
        <ele>803.57000732</ele>
        <time>2021-03-30T12:55:00Z</time>
      </trkpt>
      <trkpt lat="42.2380829" lon="2.2845579">
        <ele>803.34002686</ele>
        <time>2021-03-30T12:55:01Z</time>
      </trkpt>
      <trkpt lat="42.2380653" lon="2.2845484">
        <ele>803.10998535</ele>
        <time>2021-03-30T12:55:02Z</time>
      </trkpt>
      <trkpt lat="42.2380476" lon="2.2845501">
        <ele>802.86999512</ele>
        <time>2021-03-30T12:55:03Z</time>
      </trkpt>
      <trkpt lat="42.2380251" lon="2.2845244">
        <ele>802.64001465</ele>
        <time>2021-03-30T12:55:04Z</time>
      </trkpt>
      <trkpt lat="42.238021" lon="2.2845086">
        <ele>802.41998291</ele>
        <time>2021-03-30T12:55:05Z</time>
      </trkpt>
      <trkpt lat="42.2380128" lon="2.2844954">
        <ele>802.22998047</ele>
        <time>2021-03-30T12:55:06Z</time>
      </trkpt>
      <trkpt lat="42.2380085" lon="2.2844902">
        <ele>802.05999756</ele>
        <time>2021-03-30T12:55:07Z</time>
      </trkpt>
      <trkpt lat="42.2380029" lon="2.2844845">
        <ele>801.90997314</ele>
        <time>2021-03-30T12:55:08Z</time>
      </trkpt>
      <trkpt lat="42.2379849" lon="2.2844915">
        <ele>801.7800293</ele>
        <time>2021-03-30T12:55:09Z</time>
      </trkpt>
      <trkpt lat="42.2379748" lon="2.284491">
        <ele>801.65002441</ele>
        <time>2021-03-30T12:55:10Z</time>
      </trkpt>
      <trkpt lat="42.2379595" lon="2.284484">
        <ele>801.54998779</ele>
        <time>2021-03-30T12:55:11Z</time>
      </trkpt>
      <trkpt lat="42.2379497" lon="2.2844768">
        <ele>801.45001221</ele>
        <time>2021-03-30T12:55:12Z</time>
      </trkpt>
      <trkpt lat="42.2379496" lon="2.2844607">
        <ele>801.36999512</ele>
        <time>2021-03-30T12:55:13Z</time>
      </trkpt>
      <trkpt lat="42.2379471" lon="2.2844431">
        <ele>801.28997803</ele>
        <time>2021-03-30T12:55:14Z</time>
      </trkpt>
      <trkpt lat="42.2379477" lon="2.2844289">
        <ele>801.2199707</ele>
        <time>2021-03-30T12:55:15Z</time>
      </trkpt>
      <trkpt lat="42.2379432" lon="2.2844031">
        <ele>801.15997314</ele>
        <time>2021-03-30T12:55:16Z</time>
      </trkpt>
      <trkpt lat="42.23794" lon="2.2843661">
        <ele>801.10998535</ele>
        <time>2021-03-30T12:55:17Z</time>
      </trkpt>
      <trkpt lat="42.2379372" lon="2.2843339">
        <ele>801.05999756</ele>
        <time>2021-03-30T12:55:18Z</time>
      </trkpt>
      <trkpt lat="42.2379361" lon="2.2843076">
        <ele>801.01000977</ele>
        <time>2021-03-30T12:55:19Z</time>
      </trkpt>
      <trkpt lat="42.2379301" lon="2.2842797">
        <ele>800.97998047</ele>
        <time>2021-03-30T12:55:20Z</time>
      </trkpt>
      <trkpt lat="42.2379227" lon="2.2842625">
        <ele>800.94000244</ele>
        <time>2021-03-30T12:55:21Z</time>
      </trkpt>
      <trkpt lat="42.2379204" lon="2.2842434">
        <ele>800.90997314</ele>
        <time>2021-03-30T12:55:22Z</time>
      </trkpt>
      <trkpt lat="42.2379051" lon="2.2842216">
        <ele>800.88000488</ele>
        <time>2021-03-30T12:55:23Z</time>
      </trkpt>
      <trkpt lat="42.2378976" lon="2.2842023">
        <ele>800.85998535</ele>
        <time>2021-03-30T12:55:24Z</time>
      </trkpt>
      <trkpt lat="42.2378842" lon="2.2841815">
        <ele>800.84002686</ele>
        <time>2021-03-30T12:55:25Z</time>
      </trkpt>
      <trkpt lat="42.237876" lon="2.2841656">
        <ele>800.82000732</ele>
        <time>2021-03-30T12:55:26Z</time>
      </trkpt>
      <trkpt lat="42.237864" lon="2.2841535">
        <ele>800.79998779</ele>
        <time>2021-03-30T12:55:27Z</time>
      </trkpt>
      <trkpt lat="42.2378538" lon="2.2841373">
        <ele>800.80999756</ele>
        <time>2021-03-30T12:55:28Z</time>
      </trkpt>
      <trkpt lat="42.2378475" lon="2.2841254">
        <ele>800.84997559</ele>
        <time>2021-03-30T12:55:29Z</time>
      </trkpt>
      <trkpt lat="42.2378456" lon="2.2841114">
        <ele>800.90997314</ele>
        <time>2021-03-30T12:55:30Z</time>
      </trkpt>
      <trkpt lat="42.2378371" lon="2.2840888">
        <ele>801</ele>
        <time>2021-03-30T12:55:31Z</time>
      </trkpt>
      <trkpt lat="42.2378224" lon="2.284065">
        <ele>801.10998535</ele>
        <time>2021-03-30T12:55:32Z</time>
      </trkpt>
      <trkpt lat="42.2378108" lon="2.2840423">
        <ele>801.27001953</ele>
        <time>2021-03-30T12:55:33Z</time>
      </trkpt>
      <trkpt lat="42.2377876" lon="2.2840166">
        <ele>801.46002197</ele>
        <time>2021-03-30T12:55:34Z</time>
      </trkpt>
      <trkpt lat="42.2377658" lon="2.2839878">
        <ele>801.66998291</ele>
        <time>2021-03-30T12:55:35Z</time>
      </trkpt>
      <trkpt lat="42.237746" lon="2.2839605">
        <ele>801.90997314</ele>
        <time>2021-03-30T12:55:36Z</time>
      </trkpt>
      <trkpt lat="42.2377283" lon="2.2839255">
        <ele>802.15002441</ele>
        <time>2021-03-30T12:55:37Z</time>
      </trkpt>
      <trkpt lat="42.2377117" lon="2.283901">
        <ele>802.40002441</ele>
        <time>2021-03-30T12:55:38Z</time>
      </trkpt>
      <trkpt lat="42.2376926" lon="2.2838754">
        <ele>802.63000488</ele>
        <time>2021-03-30T12:55:39Z</time>
      </trkpt>
      <trkpt lat="42.2376784" lon="2.2838531">
        <ele>802.82000732</ele>
        <time>2021-03-30T12:55:40Z</time>
      </trkpt>
      <trkpt lat="42.2376715" lon="2.2838257">
        <ele>802.97998047</ele>
        <time>2021-03-30T12:55:41Z</time>
      </trkpt>
      <trkpt lat="42.2376465" lon="2.2838006">
        <ele>803.14001465</ele>
        <time>2021-03-30T12:55:42Z</time>
      </trkpt>
      <trkpt lat="42.2376276" lon="2.2837736">
        <ele>803.26000977</ele>
        <time>2021-03-30T12:55:43Z</time>
      </trkpt>
      <trkpt lat="42.2376101" lon="2.2837422">
        <ele>803.36999512</ele>
        <time>2021-03-30T12:55:44Z</time>
      </trkpt>
      <trkpt lat="42.2375986" lon="2.2837116">
        <ele>803.48999023</ele>
        <time>2021-03-30T12:55:45Z</time>
      </trkpt>
      <trkpt lat="42.2375766" lon="2.2836817">
        <ele>803.61999512</ele>
        <time>2021-03-30T12:55:46Z</time>
      </trkpt>
      <trkpt lat="42.2375592" lon="2.2836443">
        <ele>803.77001953</ele>
        <time>2021-03-30T12:55:47Z</time>
      </trkpt>
      <trkpt lat="42.237543" lon="2.2836126">
        <ele>803.95001221</ele>
        <time>2021-03-30T12:55:48Z</time>
      </trkpt>
      <trkpt lat="42.2375174" lon="2.2835833">
        <ele>804.15997314</ele>
        <time>2021-03-30T12:55:49Z</time>
      </trkpt>
      <trkpt lat="42.2374887" lon="2.2835455">
        <ele>804.34997559</ele>
        <time>2021-03-30T12:55:50Z</time>
      </trkpt>
      <trkpt lat="42.2374728" lon="2.2835141">
        <ele>804.51000977</ele>
        <time>2021-03-30T12:55:51Z</time>
      </trkpt>
      <trkpt lat="42.2374466" lon="2.2834755">
        <ele>804.60998535</ele>
        <time>2021-03-30T12:55:52Z</time>
      </trkpt>
      <trkpt lat="42.237428" lon="2.2834496">
        <ele>804.65997314</ele>
        <time>2021-03-30T12:55:53Z</time>
      </trkpt>
      <trkpt lat="42.2374067" lon="2.2834198">
        <ele>804.65997314</ele>
        <time>2021-03-30T12:55:54Z</time>
      </trkpt>
      <trkpt lat="42.2373867" lon="2.2833933">
        <ele>804.60998535</ele>
        <time>2021-03-30T12:55:55Z</time>
      </trkpt>
      <trkpt lat="42.2373666" lon="2.2833645">
        <ele>804.5300293</ele>
        <time>2021-03-30T12:55:56Z</time>
      </trkpt>
      <trkpt lat="42.237353" lon="2.2833352">
        <ele>804.41998291</ele>
        <time>2021-03-30T12:55:57Z</time>
      </trkpt>
      <trkpt lat="42.2373238" lon="2.2832988">
        <ele>804.2800293</ele>
        <time>2021-03-30T12:55:58Z</time>
      </trkpt>
      <trkpt lat="42.2372983" lon="2.2832635">
        <ele>804.10998535</ele>
        <time>2021-03-30T12:55:59Z</time>
      </trkpt>
      <trkpt lat="42.2372799" lon="2.2832356">
        <ele>803.90002441</ele>
        <time>2021-03-30T12:56:00Z</time>
      </trkpt>
      <trkpt lat="42.2372617" lon="2.2832048">
        <ele>803.67999268</ele>
        <time>2021-03-30T12:56:01Z</time>
      </trkpt>
      <trkpt lat="42.2372389" lon="2.2831749">
        <ele>803.44000244</ele>
        <time>2021-03-30T12:56:02Z</time>
      </trkpt>
      <trkpt lat="42.2372168" lon="2.2831376">
        <ele>803.17999268</ele>
        <time>2021-03-30T12:56:03Z</time>
      </trkpt>
      <trkpt lat="42.2372021" lon="2.2831041">
        <ele>802.90997314</ele>
        <time>2021-03-30T12:56:04Z</time>
      </trkpt>
      <trkpt lat="42.2371786" lon="2.2830638">
        <ele>802.65997314</ele>
        <time>2021-03-30T12:56:05Z</time>
      </trkpt>
      <trkpt lat="42.2371559" lon="2.2830412">
        <ele>802.44000244</ele>
        <time>2021-03-30T12:56:06Z</time>
      </trkpt>
      <trkpt lat="42.2371398" lon="2.2830126">
        <ele>802.25</ele>
        <time>2021-03-30T12:56:07Z</time>
      </trkpt>
      <trkpt lat="42.2371279" lon="2.2829748">
        <ele>802.07000732</ele>
        <time>2021-03-30T12:56:08Z</time>
      </trkpt>
      <trkpt lat="42.2371118" lon="2.2829487">
        <ele>801.91998291</ele>
        <time>2021-03-30T12:56:09Z</time>
      </trkpt>
      <trkpt lat="42.2370955" lon="2.2829253">
        <ele>801.78997803</ele>
        <time>2021-03-30T12:56:10Z</time>
      </trkpt>
      <trkpt lat="42.2370815" lon="2.2829047">
        <ele>801.65997314</ele>
        <time>2021-03-30T12:56:11Z</time>
      </trkpt>
      <trkpt lat="42.2370676" lon="2.2829018">
        <ele>801.55999756</ele>
        <time>2021-03-30T12:56:12Z</time>
      </trkpt>
      <trkpt lat="42.2370546" lon="2.2828786">
        <ele>801.46002197</ele>
        <time>2021-03-30T12:56:13Z</time>
      </trkpt>
      <trkpt lat="42.2370407" lon="2.2828649">
        <ele>801.36999512</ele>
        <time>2021-03-30T12:56:14Z</time>
      </trkpt>
      <trkpt lat="42.2370332" lon="2.2828413">
        <ele>801.28997803</ele>
        <time>2021-03-30T12:56:15Z</time>
      </trkpt>
      <trkpt lat="42.2370197" lon="2.2828169">
        <ele>801.22998047</ele>
        <time>2021-03-30T12:56:16Z</time>
      </trkpt>
      <trkpt lat="42.2370109" lon="2.2827953">
        <ele>801.15997314</ele>
        <time>2021-03-30T12:56:17Z</time>
      </trkpt>
      <trkpt lat="42.2370083" lon="2.2827728">
        <ele>801.10998535</ele>
        <time>2021-03-30T12:56:18Z</time>
      </trkpt>
      <trkpt lat="42.2369806" lon="2.2827405">
        <ele>801.05999756</ele>
        <time>2021-03-30T12:56:19Z</time>
      </trkpt>
      <trkpt lat="42.2369687" lon="2.2827217">
        <ele>801.02001953</ele>
        <time>2021-03-30T12:56:20Z</time>
      </trkpt>
      <trkpt lat="42.2369363" lon="2.2826699">
        <ele>800.97998047</ele>
        <time>2021-03-30T12:56:21Z</time>
      </trkpt>
      <trkpt lat="42.2369094" lon="2.2826274">
        <ele>800.92999268</ele>
        <time>2021-03-30T12:56:22Z</time>
      </trkpt>
      <trkpt lat="42.2368854" lon="2.2825833">
        <ele>800.83001709</ele>
        <time>2021-03-30T12:56:23Z</time>
      </trkpt>
      <trkpt lat="42.2368647" lon="2.2825492">
        <ele>800.70001221</ele>
        <time>2021-03-30T12:56:24Z</time>
      </trkpt>
      <trkpt lat="42.2368462" lon="2.2825196">
        <ele>800.5300293</ele>
        <time>2021-03-30T12:56:25Z</time>
      </trkpt>
      <trkpt lat="42.2368327" lon="2.2824867">
        <ele>800.34997559</ele>
        <time>2021-03-30T12:56:26Z</time>
      </trkpt>
      <trkpt lat="42.2368234" lon="2.2824571">
        <ele>800.15002441</ele>
        <time>2021-03-30T12:56:27Z</time>
      </trkpt>
      <trkpt lat="42.2368092" lon="2.2824216">
        <ele>799.96002197</ele>
        <time>2021-03-30T12:56:28Z</time>
      </trkpt>
      <trkpt lat="42.2367905" lon="2.2823854">
        <ele>799.76000977</ele>
        <time>2021-03-30T12:56:29Z</time>
      </trkpt>
      <trkpt lat="42.2367748" lon="2.2823619">
        <ele>799.53997803</ele>
        <time>2021-03-30T12:56:30Z</time>
      </trkpt>
      <trkpt lat="42.2367478" lon="2.2823259">
        <ele>799.30999756</ele>
        <time>2021-03-30T12:56:31Z</time>
      </trkpt>
      <trkpt lat="42.2367242" lon="2.2822849">
        <ele>799.05999756</ele>
        <time>2021-03-30T12:56:32Z</time>
      </trkpt>
      <trkpt lat="42.236708" lon="2.2822483">
        <ele>798.7800293</ele>
        <time>2021-03-30T12:56:33Z</time>
      </trkpt>
      <trkpt lat="42.2350885" lon="2.2821825">
        <ele>771.29998779</ele>
        <time>2021-03-30T12:58:51Z</time>
      </trkpt>
      <trkpt lat="42.2351428" lon="2.2822121">
        <ele>771.40997314</ele>
        <time>2021-03-30T12:58:52Z</time>
      </trkpt>
      <trkpt lat="42.2351993" lon="2.2822387">
        <ele>771.47998047</ele>
        <time>2021-03-30T12:58:53Z</time>
      </trkpt>
      <trkpt lat="42.2352515" lon="2.2822754">
        <ele>771.60998535</ele>
        <time>2021-03-30T12:58:54Z</time>
      </trkpt>
      <trkpt lat="42.2352981" lon="2.2823321">
        <ele>771.75</ele>
        <time>2021-03-30T12:58:55Z</time>
      </trkpt>
      <trkpt lat="42.2353372" lon="2.282376">
        <ele>771.84002686</ele>
        <time>2021-03-30T12:58:56Z</time>
      </trkpt>
      <trkpt lat="42.2353777" lon="2.2824218">
        <ele>771.89001465</ele>
        <time>2021-03-30T12:58:57Z</time>
      </trkpt>
      <trkpt lat="42.2354148" lon="2.2824682">
        <ele>771.91998291</ele>
        <time>2021-03-30T12:58:58Z</time>
      </trkpt>
      <trkpt lat="42.2354465" lon="2.2825161">
        <ele>771.91998291</ele>
        <time>2021-03-30T12:58:59Z</time>
      </trkpt>
      <trkpt lat="42.2354792" lon="2.2825682">
        <ele>771.89001465</ele>
        <time>2021-03-30T12:59:00Z</time>
      </trkpt>
      <trkpt lat="42.235525" lon="2.2826391">
        <ele>771.80999756</ele>
        <time>2021-03-30T12:59:01Z</time>
      </trkpt>
      <trkpt lat="42.2355706" lon="2.2827176">
        <ele>771.69000244</ele>
        <time>2021-03-30T12:59:02Z</time>
      </trkpt>
      <trkpt lat="42.2356095" lon="2.2827927">
        <ele>770.27001953</ele>
        <time>2021-03-30T12:59:03Z</time>
      </trkpt>
      <trkpt lat="42.2356397" lon="2.2828584">
        <ele>769.76000977</ele>
        <time>2021-03-30T12:59:04Z</time>
      </trkpt>
      <trkpt lat="42.2356699" lon="2.282916">
        <ele>770.22998047</ele>
        <time>2021-03-30T12:59:05Z</time>
      </trkpt>
      <trkpt lat="42.2356785" lon="2.2829806">
        <ele>770.79998779</ele>
        <time>2021-03-30T12:59:06Z</time>
      </trkpt>
      <trkpt lat="42.2356829" lon="2.2830396">
        <ele>771.01000977</ele>
        <time>2021-03-30T12:59:07Z</time>
      </trkpt>
      <trkpt lat="42.2356613" lon="2.2830944">
        <ele>771.10998535</ele>
        <time>2021-03-30T12:59:08Z</time>
      </trkpt>
      <trkpt lat="42.2356245" lon="2.2831591">
        <ele>770.73999023</ele>
        <time>2021-03-30T12:59:09Z</time>
      </trkpt>
      <trkpt lat="42.2355782" lon="2.2832179">
        <ele>770.07000732</ele>
        <time>2021-03-30T12:59:10Z</time>
      </trkpt>
      <trkpt lat="42.2355351" lon="2.2832697">
        <ele>769.20001221</ele>
        <time>2021-03-30T12:59:11Z</time>
      </trkpt>
      <trkpt lat="42.2354897" lon="2.2833164">
        <ele>768.28997803</ele>
        <time>2021-03-30T12:59:12Z</time>
      </trkpt>
      <trkpt lat="42.2354483" lon="2.2833706">
        <ele>767.42999268</ele>
        <time>2021-03-30T12:59:13Z</time>
      </trkpt>
      <trkpt lat="42.2354085" lon="2.2834204">
        <ele>766.70001221</ele>
        <time>2021-03-30T12:59:14Z</time>
      </trkpt>
      <trkpt lat="42.2353561" lon="2.2834621">
        <ele>765.94000244</ele>
        <time>2021-03-30T12:59:15Z</time>
      </trkpt>
      <trkpt lat="42.2353025" lon="2.2835039">
        <ele>764.95001221</ele>
        <time>2021-03-30T12:59:16Z</time>
      </trkpt>
      <trkpt lat="42.234852" lon="2.2838914">
        <ele>758.01000977</ele>
        <time>2021-03-30T12:59:24Z</time>
      </trkpt>
      <trkpt lat="42.2348014" lon="2.2839279">
        <ele>757.98999023</ele>
        <time>2021-03-30T12:59:25Z</time>
      </trkpt>
      <trkpt lat="42.2347522" lon="2.2839627">
        <ele>757.5300293</ele>
        <time>2021-03-30T12:59:26Z</time>
      </trkpt>
      <trkpt lat="42.2347074" lon="2.2840046">
        <ele>756.82000732</ele>
        <time>2021-03-30T12:59:27Z</time>
      </trkpt>
      <trkpt lat="42.2346661" lon="2.2840453">
        <ele>755.64001465</ele>
        <time>2021-03-30T12:59:28Z</time>
      </trkpt>
      <trkpt lat="42.2346235" lon="2.2840833">
        <ele>754.09997559</ele>
        <time>2021-03-30T12:59:29Z</time>
      </trkpt>
      <trkpt lat="42.2345813" lon="2.2841179">
        <ele>752.55999756</ele>
        <time>2021-03-30T12:59:30Z</time>
      </trkpt>
      <trkpt lat="42.2345418" lon="2.2841538">
        <ele>751.07000732</ele>
        <time>2021-03-30T12:59:31Z</time>
      </trkpt>
      <trkpt lat="42.2345051" lon="2.2841839">
        <ele>749.61999512</ele>
        <time>2021-03-30T12:59:32Z</time>
      </trkpt>
      <trkpt lat="42.2344695" lon="2.284213">
        <ele>748.85998535</ele>
        <time>2021-03-30T12:59:33Z</time>
      </trkpt>
      <trkpt lat="42.2344333" lon="2.2842424">
        <ele>748.65997314</ele>
        <time>2021-03-30T12:59:34Z</time>
      </trkpt>
      <trkpt lat="42.2343987" lon="2.2842779">
        <ele>748.97998047</ele>
        <time>2021-03-30T12:59:35Z</time>
      </trkpt>
      <trkpt lat="42.2343607" lon="2.2843064">
        <ele>750.2199707</ele>
        <time>2021-03-30T12:59:36Z</time>
      </trkpt>
      <trkpt lat="42.2343261" lon="2.2843372">
        <ele>751.5</ele>
        <time>2021-03-30T12:59:37Z</time>
      </trkpt>
      <trkpt lat="42.2342898" lon="2.2843675">
        <ele>752.75</ele>
        <time>2021-03-30T12:59:38Z</time>
      </trkpt>
      <trkpt lat="42.234254" lon="2.2843979">
        <ele>754.0300293</ele>
        <time>2021-03-30T12:59:39Z</time>
      </trkpt>
      <trkpt lat="42.2342186" lon="2.2844291">
        <ele>754.72998047</ele>
        <time>2021-03-30T12:59:40Z</time>
      </trkpt>
      <trkpt lat="42.2341828" lon="2.2844624">
        <ele>755.39001465</ele>
        <time>2021-03-30T12:59:41Z</time>
      </trkpt>
      <trkpt lat="42.2341559" lon="2.2844991">
        <ele>755.97998047</ele>
        <time>2021-03-30T12:59:42Z</time>
      </trkpt>
      <trkpt lat="42.2341256" lon="2.2845307">
        <ele>756.4699707</ele>
        <time>2021-03-30T12:59:43Z</time>
      </trkpt>
      <trkpt lat="42.234098" lon="2.2845611">
        <ele>756.94000244</ele>
        <time>2021-03-30T12:59:44Z</time>
      </trkpt>
      <trkpt lat="42.2340617" lon="2.2845973">
        <ele>757.41998291</ele>
        <time>2021-03-30T12:59:45Z</time>
      </trkpt>
      <trkpt lat="42.2340335" lon="2.2846313">
        <ele>757.58001709</ele>
        <time>2021-03-30T12:59:46Z</time>
      </trkpt>
      <trkpt lat="42.2339983" lon="2.2846665">
        <ele>758.25</ele>
        <time>2021-03-30T12:59:47Z</time>
      </trkpt>
      <trkpt lat="42.233976" lon="2.2846914">
        <ele>759.03997803</ele>
        <time>2021-03-30T12:59:48Z</time>
      </trkpt>
      <trkpt lat="42.2339447" lon="2.2847223">
        <ele>759.83001709</ele>
        <time>2021-03-30T12:59:49Z</time>
      </trkpt>
      <trkpt lat="42.23391" lon="2.2847613">
        <ele>760.67999268</ele>
        <time>2021-03-30T12:59:50Z</time>
      </trkpt>
      <trkpt lat="42.2353124" lon="2.2836272">
        <ele>765.20001221</ele>
        <time>2021-03-30T14:22:33Z</time>
      </trkpt>
      <trkpt lat="42.235317" lon="2.2836199">
        <ele>765.09997559</ele>
        <time>2021-03-30T14:22:34Z</time>
      </trkpt>
      <trkpt lat="42.2353209" lon="2.2836177">
        <ele>765.01000977</ele>
        <time>2021-03-30T14:22:35Z</time>
      </trkpt>
      <trkpt lat="42.2353249" lon="2.2836119">
        <ele>764.92999268</ele>
        <time>2021-03-30T14:22:36Z</time>
      </trkpt>
      <trkpt lat="42.2353272" lon="2.2836049">
        <ele>764.85998535</ele>
        <time>2021-03-30T14:22:37Z</time>
      </trkpt>
      <trkpt lat="42.2353451" lon="2.2835607">
        <ele>764.63000488</ele>
        <time>2021-03-30T14:22:45Z</time>
      </trkpt>
      <trkpt lat="42.2353466" lon="2.283546">
        <ele>764.63000488</ele>
        <time>2021-03-30T14:22:46Z</time>
      </trkpt>
      <trkpt lat="42.2353649" lon="2.2835203">
        <ele>764.63000488</ele>
        <time>2021-03-30T14:22:47Z</time>
      </trkpt>
      <trkpt lat="42.2353789" lon="2.2834985">
        <ele>764.66998291</ele>
        <time>2021-03-30T14:22:48Z</time>
      </trkpt>
      <trkpt lat="42.2353956" lon="2.2834843">
        <ele>764.72998047</ele>
        <time>2021-03-30T14:22:49Z</time>
      </trkpt>
      <trkpt lat="42.23541" lon="2.2834748">
        <ele>764.82000732</ele>
        <time>2021-03-30T14:22:50Z</time>
      </trkpt>
      <trkpt lat="42.2354358" lon="2.2834612">
        <ele>764.92999268</ele>
        <time>2021-03-30T14:22:51Z</time>
      </trkpt>
      <trkpt lat="42.2354587" lon="2.2834508">
        <ele>765.08001709</ele>
        <time>2021-03-30T14:22:52Z</time>
      </trkpt>
      <trkpt lat="42.2354713" lon="2.283436">
        <ele>765.26000977</ele>
        <time>2021-03-30T14:22:53Z</time>
      </trkpt>
      <trkpt lat="42.2354844" lon="2.2834288">
        <ele>765.45001221</ele>
        <time>2021-03-30T14:22:54Z</time>
      </trkpt>
      <trkpt lat="42.2355008" lon="2.283421">
        <ele>765.65002441</ele>
        <time>2021-03-30T14:22:55Z</time>
      </trkpt>
      <trkpt lat="42.2355273" lon="2.2834018">
        <ele>765.85998535</ele>
        <time>2021-03-30T14:22:56Z</time>
      </trkpt>
      <trkpt lat="42.2355502" lon="2.2833956">
        <ele>766.09997559</ele>
        <time>2021-03-30T14:22:57Z</time>
      </trkpt>
      <trkpt lat="42.2355799" lon="2.2833884">
        <ele>766.35998535</ele>
        <time>2021-03-30T14:22:58Z</time>
      </trkpt>
      <trkpt lat="42.2355932" lon="2.2833731">
        <ele>766.65002441</ele>
        <time>2021-03-30T14:22:59Z</time>
      </trkpt>
      <trkpt lat="42.2356115" lon="2.2833567">
        <ele>766.94000244</ele>
        <time>2021-03-30T14:23:00Z</time>
      </trkpt>
      <trkpt lat="42.2356266" lon="2.2833407">
        <ele>767.23999023</ele>
        <time>2021-03-30T14:23:01Z</time>
      </trkpt>
      <trkpt lat="42.2356421" lon="2.2833235">
        <ele>767.53997803</ele>
        <time>2021-03-30T14:23:02Z</time>
      </trkpt>
      <trkpt lat="42.2356789" lon="2.2833132">
        <ele>767.84002686</ele>
        <time>2021-03-30T14:23:03Z</time>
      </trkpt>
      <trkpt lat="42.235704" lon="2.2832955">
        <ele>768.16998291</ele>
        <time>2021-03-30T14:23:04Z</time>
      </trkpt>
      <trkpt lat="42.2357421" lon="2.2832782">
        <ele>768.5300293</ele>
        <time>2021-03-30T14:23:05Z</time>
      </trkpt>
      <trkpt lat="42.2357676" lon="2.2832646">
        <ele>768.91998291</ele>
        <time>2021-03-30T14:23:06Z</time>
      </trkpt>
      <trkpt lat="42.2357962" lon="2.2832443">
        <ele>769.33001709</ele>
        <time>2021-03-30T14:23:07Z</time>
      </trkpt>
      <trkpt lat="42.2358272" lon="2.2832284">
        <ele>769.75</ele>
        <time>2021-03-30T14:23:08Z</time>
      </trkpt>
      <trkpt lat="42.235851" lon="2.2832184">
        <ele>770.17999268</ele>
        <time>2021-03-30T14:23:09Z</time>
      </trkpt>
      <trkpt lat="42.2358753" lon="2.2832079">
        <ele>770.63000488</ele>
        <time>2021-03-30T14:23:10Z</time>
      </trkpt>
      <trkpt lat="42.2359044" lon="2.2831979">
        <ele>771.07000732</ele>
        <time>2021-03-30T14:23:11Z</time>
      </trkpt>
      <trkpt lat="42.2359275" lon="2.283198">
        <ele>771.5300293</ele>
        <time>2021-03-30T14:23:12Z</time>
      </trkpt>
      <trkpt lat="42.2359632" lon="2.2831903">
        <ele>771.97998047</ele>
        <time>2021-03-30T14:23:13Z</time>
      </trkpt>
      <trkpt lat="42.2359848" lon="2.283205">
        <ele>772.46002197</ele>
        <time>2021-03-30T14:23:14Z</time>
      </trkpt>
      <trkpt lat="42.2360078" lon="2.2832314">
        <ele>772.94000244</ele>
        <time>2021-03-30T14:23:15Z</time>
      </trkpt>
      <trkpt lat="42.2360304" lon="2.2832558">
        <ele>773.40997314</ele>
        <time>2021-03-30T14:23:16Z</time>
      </trkpt>
      <trkpt lat="42.2360554" lon="2.2832915">
        <ele>773.86999512</ele>
        <time>2021-03-30T14:23:17Z</time>
      </trkpt>
      <trkpt lat="42.2360775" lon="2.2833351">
        <ele>774.34002686</ele>
        <time>2021-03-30T14:23:18Z</time>
      </trkpt>
      <trkpt lat="42.2360987" lon="2.2833814">
        <ele>774.79998779</ele>
        <time>2021-03-30T14:23:19Z</time>
      </trkpt>
      <trkpt lat="42.2361235" lon="2.2834161">
        <ele>775.26000977</ele>
        <time>2021-03-30T14:23:20Z</time>
      </trkpt>
      <trkpt lat="42.2361458" lon="2.2834653">
        <ele>775.7199707</ele>
        <time>2021-03-30T14:23:21Z</time>
      </trkpt>
      <trkpt lat="42.2361627" lon="2.2834915">
        <ele>776.16998291</ele>
        <time>2021-03-30T14:23:22Z</time>
      </trkpt>
      <trkpt lat="42.2361924" lon="2.2835236">
        <ele>776.61999512</ele>
        <time>2021-03-30T14:23:23Z</time>
      </trkpt>
      <trkpt lat="42.2362076" lon="2.2835489">
        <ele>777.07000732</ele>
        <time>2021-03-30T14:23:24Z</time>
      </trkpt>
      <trkpt lat="42.236214" lon="2.2835821">
        <ele>777.51000977</ele>
        <time>2021-03-30T14:23:25Z</time>
      </trkpt>
      <trkpt lat="42.2362296" lon="2.2836157">
        <ele>777.91998291</ele>
        <time>2021-03-30T14:23:26Z</time>
      </trkpt>
      <trkpt lat="42.2362367" lon="2.2836544">
        <ele>778.30999756</ele>
        <time>2021-03-30T14:23:27Z</time>
      </trkpt>
      <trkpt lat="42.2362371" lon="2.2837073">
        <ele>778.67999268</ele>
        <time>2021-03-30T14:23:28Z</time>
      </trkpt>
      <trkpt lat="42.236254" lon="2.283759">
        <ele>779.01000977</ele>
        <time>2021-03-30T14:23:29Z</time>
      </trkpt>
      <trkpt lat="42.2362673" lon="2.2837942">
        <ele>779.34002686</ele>
        <time>2021-03-30T14:23:30Z</time>
      </trkpt>
      <trkpt lat="42.2362759" lon="2.2838097">
        <ele>779.65997314</ele>
        <time>2021-03-30T14:23:31Z</time>
      </trkpt>
      <trkpt lat="42.2363004" lon="2.283839">
        <ele>779.96002197</ele>
        <time>2021-03-30T14:23:32Z</time>
      </trkpt>
      <trkpt lat="42.2363169" lon="2.2838684">
        <ele>780.2800293</ele>
        <time>2021-03-30T14:23:33Z</time>
      </trkpt>
      <trkpt lat="42.2363462" lon="2.283888">
        <ele>780.59997559</ele>
        <time>2021-03-30T14:23:34Z</time>
      </trkpt>
      <trkpt lat="42.2363679" lon="2.2839247">
        <ele>780.94000244</ele>
        <time>2021-03-30T14:23:35Z</time>
      </trkpt>
      <trkpt lat="42.2363951" lon="2.2839674">
        <ele>781.22998047</ele>
        <time>2021-03-30T14:23:36Z</time>
      </trkpt>
      <trkpt lat="42.2364186" lon="2.2839926">
        <ele>781.44000244</ele>
        <time>2021-03-30T14:23:37Z</time>
      </trkpt>
      <trkpt lat="42.2364463" lon="2.2840225">
        <ele>781.59997559</ele>
        <time>2021-03-30T14:23:38Z</time>
      </trkpt>
      <trkpt lat="42.2364713" lon="2.2840498">
        <ele>781.7199707</ele>
        <time>2021-03-30T14:23:39Z</time>
      </trkpt>
      <trkpt lat="42.2364977" lon="2.2840717">
        <ele>781.79998779</ele>
        <time>2021-03-30T14:23:40Z</time>
      </trkpt>
      <trkpt lat="42.2365205" lon="2.2840915">
        <ele>781.88000488</ele>
        <time>2021-03-30T14:23:41Z</time>
      </trkpt>
      <trkpt lat="42.2365444" lon="2.284116">
        <ele>781.96002197</ele>
        <time>2021-03-30T14:23:42Z</time>
      </trkpt>
      <trkpt lat="42.2365593" lon="2.2841463">
        <ele>782.03997803</ele>
        <time>2021-03-30T14:23:43Z</time>
      </trkpt>
      <trkpt lat="42.236576" lon="2.284172">
        <ele>782.11999512</ele>
        <time>2021-03-30T14:23:44Z</time>
      </trkpt>
      <trkpt lat="42.2365875" lon="2.2841889">
        <ele>782.21002197</ele>
        <time>2021-03-30T14:23:45Z</time>
      </trkpt>
      <trkpt lat="42.2366007" lon="2.284217">
        <ele>782.34002686</ele>
        <time>2021-03-30T14:23:46Z</time>
      </trkpt>
      <trkpt lat="42.2366282" lon="2.2842442">
        <ele>782.52001953</ele>
        <time>2021-03-30T14:23:47Z</time>
      </trkpt>
      <trkpt lat="42.2366495" lon="2.2842673">
        <ele>782.79998779</ele>
        <time>2021-03-30T14:23:48Z</time>
      </trkpt>
      <trkpt lat="42.2366762" lon="2.2842736">
        <ele>783.15002441</ele>
        <time>2021-03-30T14:23:49Z</time>
      </trkpt>
      <trkpt lat="42.236698" lon="2.2842839">
        <ele>783.53997803</ele>
        <time>2021-03-30T14:23:50Z</time>
      </trkpt>
      <trkpt lat="42.23672" lon="2.2842931">
        <ele>783.92999268</ele>
        <time>2021-03-30T14:23:51Z</time>
      </trkpt>
      <trkpt lat="42.2367286" lon="2.2843155">
        <ele>784.33001709</ele>
        <time>2021-03-30T14:23:52Z</time>
      </trkpt>
      <trkpt lat="42.2367464" lon="2.2843229">
        <ele>784.72998047</ele>
        <time>2021-03-30T14:23:53Z</time>
      </trkpt>
      <trkpt lat="42.2367602" lon="2.2843074">
        <ele>785.10998535</ele>
        <time>2021-03-30T14:23:54Z</time>
      </trkpt>
      <trkpt lat="42.2367718" lon="2.2843038">
        <ele>785.45001221</ele>
        <time>2021-03-30T14:23:55Z</time>
      </trkpt>
      <trkpt lat="42.2360917" lon="2.2832455">
        <ele>781.42999268</ele>
        <time>2021-03-30T14:26:57Z</time>
      </trkpt>
      <trkpt lat="42.2360619" lon="2.2832195">
        <ele>781.15997314</ele>
        <time>2021-03-30T14:26:58Z</time>
      </trkpt>
      <trkpt lat="42.2360321" lon="2.2831987">
        <ele>780.85998535</ele>
        <time>2021-03-30T14:26:59Z</time>
      </trkpt>
      <trkpt lat="42.2359943" lon="2.2831849">
        <ele>780.5300293</ele>
        <time>2021-03-30T14:27:00Z</time>
      </trkpt>
      <trkpt lat="42.2359542" lon="2.2831751">
        <ele>780.16998291</ele>
        <time>2021-03-30T14:27:01Z</time>
      </trkpt>
      <trkpt lat="42.2359199" lon="2.2831741">
        <ele>779.76000977</ele>
        <time>2021-03-30T14:27:02Z</time>
      </trkpt>
      <trkpt lat="42.2358932" lon="2.2831613">
        <ele>779.32000732</ele>
        <time>2021-03-30T14:27:03Z</time>
      </trkpt>
      <trkpt lat="42.2358639" lon="2.2831552">
        <ele>778.86999512</ele>
        <time>2021-03-30T14:27:04Z</time>
      </trkpt>
      <trkpt lat="42.2358348" lon="2.2831809">
        <ele>778.41998291</ele>
        <time>2021-03-30T14:27:05Z</time>
      </trkpt>
      <trkpt lat="42.2358161" lon="2.2831761">
        <ele>777.95001221</ele>
        <time>2021-03-30T14:27:06Z</time>
      </trkpt>
      <trkpt lat="42.2357952" lon="2.2831824">
        <ele>777.48999023</ele>
        <time>2021-03-30T14:27:07Z</time>
      </trkpt>
      <trkpt lat="42.2357749" lon="2.2831999">
        <ele>777.03997803</ele>
        <time>2021-03-30T14:27:08Z</time>
      </trkpt>
      <trkpt lat="42.2357563" lon="2.2832031">
        <ele>776.59997559</ele>
        <time>2021-03-30T14:27:09Z</time>
      </trkpt>
      <trkpt lat="42.2357367" lon="2.2832212">
        <ele>776.15997314</ele>
        <time>2021-03-30T14:27:10Z</time>
      </trkpt>
      <trkpt lat="42.2357229" lon="2.2832182">
        <ele>775.72998047</ele>
        <time>2021-03-30T14:27:11Z</time>
      </trkpt>
      <trkpt lat="42.2357003" lon="2.283206">
        <ele>775.32000732</ele>
        <time>2021-03-30T14:27:12Z</time>
      </trkpt>
      <trkpt lat="42.2356857" lon="2.2831911">
        <ele>774.90997314</ele>
        <time>2021-03-30T14:27:13Z</time>
      </trkpt>
      <trkpt lat="42.2356866" lon="2.283153">
        <ele>774.51000977</ele>
        <time>2021-03-30T14:27:14Z</time>
      </trkpt>
      <trkpt lat="42.2356922" lon="2.283116">
        <ele>774.15002441</ele>
        <time>2021-03-30T14:27:15Z</time>
      </trkpt>
      <trkpt lat="42.2356962" lon="2.2830734">
        <ele>773.84002686</ele>
        <time>2021-03-30T14:27:16Z</time>
      </trkpt>
      <trkpt lat="42.2356924" lon="2.2830217">
        <ele>773.58001709</ele>
        <time>2021-03-30T14:27:17Z</time>
      </trkpt>
      <trkpt lat="42.2356932" lon="2.2829555">
        <ele>773.33001709</ele>
        <time>2021-03-30T14:27:18Z</time>
      </trkpt>
      <trkpt lat="42.2356912" lon="2.2828775">
        <ele>773.10998535</ele>
        <time>2021-03-30T14:27:19Z</time>
      </trkpt>
      <trkpt lat="42.2356688" lon="2.282816">
        <ele>772.91998291</ele>
        <time>2021-03-30T14:27:20Z</time>
      </trkpt>
      <trkpt lat="42.2356547" lon="2.2827445">
        <ele>772.70001221</ele>
        <time>2021-03-30T14:27:21Z</time>
      </trkpt>
      <trkpt lat="42.2356364" lon="2.2826728">
        <ele>772.5300293</ele>
        <time>2021-03-30T14:27:22Z</time>
      </trkpt>
      <trkpt lat="42.2356105" lon="2.2826093">
        <ele>772.48999023</ele>
        <time>2021-03-30T14:27:23Z</time>
      </trkpt>
      <trkpt lat="42.2355785" lon="2.2825508">
        <ele>772.5300293</ele>
        <time>2021-03-30T14:27:24Z</time>
      </trkpt>
      <trkpt lat="42.2355465" lon="2.2825005">
        <ele>772.63000488</ele>
        <time>2021-03-30T14:27:25Z</time>
      </trkpt>
      <trkpt lat="42.2355088" lon="2.2824522">
        <ele>772.75</ele>
        <time>2021-03-30T14:27:26Z</time>
      </trkpt>
      <trkpt lat="42.2354678" lon="2.2824043">
        <ele>772.88000488</ele>
        <time>2021-03-30T14:27:27Z</time>
      </trkpt>
      <trkpt lat="42.2354392" lon="2.2823501">
        <ele>773.02001953</ele>
        <time>2021-03-30T14:27:28Z</time>
      </trkpt>
      <trkpt lat="42.2354009" lon="2.2823037">
        <ele>773.19000244</ele>
        <time>2021-03-30T14:27:29Z</time>
      </trkpt>
      <trkpt lat="42.2353637" lon="2.2822648">
        <ele>773.35998535</ele>
        <time>2021-03-30T14:27:30Z</time>
      </trkpt>
      <trkpt lat="42.2353201" lon="2.2822317">
        <ele>773.52001953</ele>
        <time>2021-03-30T14:27:31Z</time>
      </trkpt>
      <trkpt lat="42.2352752" lon="2.2821987">
        <ele>773.64001465</ele>
        <time>2021-03-30T14:27:32Z</time>
      </trkpt>
      <trkpt lat="42.2352409" lon="2.282148">
        <ele>773.72998047</ele>
        <time>2021-03-30T14:27:33Z</time>
      </trkpt>
      <trkpt lat="42.2352041" lon="2.2821163">
        <ele>773.84997559</ele>
        <time>2021-03-30T14:27:34Z</time>
      </trkpt>
      <trkpt lat="42.2351644" lon="2.2820919">
        <ele>773.98999023</ele>
        <time>2021-03-30T14:27:35Z</time>
      </trkpt>
      <trkpt lat="42.2351236" lon="2.2820746">
        <ele>774.13000488</ele>
        <time>2021-03-30T14:27:36Z</time>
      </trkpt>
      <trkpt lat="42.2350829" lon="2.282062">
        <ele>774.27001953</ele>
        <time>2021-03-30T14:27:37Z</time>
      </trkpt>
      <trkpt lat="42.2350309" lon="2.282062">
        <ele>774.40002441</ele>
        <time>2021-03-30T14:27:38Z</time>
      </trkpt>
      <trkpt lat="42.2349776" lon="2.2820646">
        <ele>774.47998047</ele>
        <time>2021-03-30T14:27:39Z</time>
      </trkpt>
      <trkpt lat="42.2349285" lon="2.2820604">
        <ele>774.4699707</ele>
        <time>2021-03-30T14:27:40Z</time>
      </trkpt>
      <trkpt lat="42.2348813" lon="2.2820402">
        <ele>774.36999512</ele>
        <time>2021-03-30T14:27:41Z</time>
      </trkpt>
      <trkpt lat="42.2348445" lon="2.2820302">
        <ele>774.27001953</ele>
        <time>2021-03-30T14:27:42Z</time>
      </trkpt>
      <trkpt lat="42.2348078" lon="2.2820141">
        <ele>774.14001465</ele>
        <time>2021-03-30T14:27:43Z</time>
      </trkpt>
      <trkpt lat="42.2347726" lon="2.2819851">
        <ele>774.02001953</ele>
        <time>2021-03-30T14:27:44Z</time>
      </trkpt>
      <trkpt lat="42.2346991" lon="2.2819075">
        <ele>773.97998047</ele>
        <time>2021-03-30T14:27:45Z</time>
      </trkpt>
      <trkpt lat="42.2346734" lon="2.2818463">
        <ele>773.96002197</ele>
        <time>2021-03-30T14:27:46Z</time>
      </trkpt>
      <trkpt lat="42.2346639" lon="2.2817811">
        <ele>773.77001953</ele>
        <time>2021-03-30T14:27:47Z</time>
      </trkpt>
      <trkpt lat="42.2346491" lon="2.281729">
        <ele>773.54998779</ele>
        <time>2021-03-30T14:27:48Z</time>
      </trkpt>
      <trkpt lat="42.2346429" lon="2.2816671">
        <ele>773.28997803</ele>
        <time>2021-03-30T14:27:49Z</time>
      </trkpt>
      <trkpt lat="42.2346465" lon="2.2816145">
        <ele>773.0300293</ele>
        <time>2021-03-30T14:27:50Z</time>
      </trkpt>
      <trkpt lat="42.2346608" lon="2.2815702">
        <ele>772.84002686</ele>
        <time>2021-03-30T14:27:51Z</time>
      </trkpt>
      <trkpt lat="42.2346726" lon="2.2815465">
        <ele>772.75</ele>
        <time>2021-03-30T14:27:52Z</time>
      </trkpt>
      <trkpt lat="42.2346886" lon="2.2815562">
        <ele>772.7199707</ele>
        <time>2021-03-30T14:27:53Z</time>
      </trkpt>
      <trkpt lat="42.234706" lon="2.2815669">
        <ele>772.73999023</ele>
        <time>2021-03-30T14:27:54Z</time>
      </trkpt>
      <trkpt lat="42.2347313" lon="2.2815967">
        <ele>772.82000732</ele>
        <time>2021-03-30T14:27:55Z</time>
      </trkpt>
      <trkpt lat="42.2347651" lon="2.2816443">
        <ele>772.96002197</ele>
        <time>2021-03-30T14:27:56Z</time>
      </trkpt>
      <trkpt lat="42.2347963" lon="2.2816833">
        <ele>773.15002441</ele>
        <time>2021-03-30T14:27:57Z</time>
      </trkpt>
      <trkpt lat="42.2348223" lon="2.281728">
        <ele>773.39001465</ele>
        <time>2021-03-30T14:27:58Z</time>
      </trkpt>
      <trkpt lat="42.2348386" lon="2.281766">
        <ele>773.65997314</ele>
        <time>2021-03-30T14:27:59Z</time>
      </trkpt>
      <trkpt lat="42.2348495" lon="2.2817953">
        <ele>773.92999268</ele>
        <time>2021-03-30T14:28:00Z</time>
      </trkpt>
      <trkpt lat="42.2348622" lon="2.2818254">
        <ele>774.20001221</ele>
        <time>2021-03-30T14:28:01Z</time>
      </trkpt>
      <trkpt lat="42.2348798" lon="2.2818373">
        <ele>774.4699707</ele>
        <time>2021-03-30T14:28:02Z</time>
      </trkpt>
      <trkpt lat="42.2348921" lon="2.2818562">
        <ele>774.73999023</ele>
        <time>2021-03-30T14:28:03Z</time>
      </trkpt>
      <trkpt lat="42.2349147" lon="2.2818784">
        <ele>775.01000977</ele>
        <time>2021-03-30T14:28:04Z</time>
      </trkpt>
      <trkpt lat="42.2349323" lon="2.2818968">
        <ele>775.28997803</ele>
        <time>2021-03-30T14:28:05Z</time>
      </trkpt>
      <trkpt lat="42.234954" lon="2.2819084">
        <ele>775.58001709</ele>
        <time>2021-03-30T14:28:06Z</time>
      </trkpt>
      <trkpt lat="42.2349706" lon="2.2819203">
        <ele>775.89001465</ele>
        <time>2021-03-30T14:28:07Z</time>
      </trkpt>
      <trkpt lat="42.2349875" lon="2.2819301">
        <ele>776.20001221</ele>
        <time>2021-03-30T14:28:08Z</time>
      </trkpt>
      <trkpt lat="42.235003" lon="2.281946">
        <ele>776.5</ele>
        <time>2021-03-30T14:28:09Z</time>
      </trkpt>
      <trkpt lat="42.2350193" lon="2.2819617">
        <ele>776.79998779</ele>
        <time>2021-03-30T14:28:10Z</time>
      </trkpt>
      <trkpt lat="42.2350394" lon="2.281986">
        <ele>777.01000977</ele>
        <time>2021-03-30T14:28:11Z</time>
      </trkpt>
      <trkpt lat="42.2350694" lon="2.2820114">
        <ele>777.10998535</ele>
        <time>2021-03-30T14:28:12Z</time>
      </trkpt>
      <trkpt lat="42.2350926" lon="2.2820326">
        <ele>777.11999512</ele>
        <time>2021-03-30T14:28:13Z</time>
      </trkpt>
      <trkpt lat="42.2351196" lon="2.2820428">
        <ele>777.05999756</ele>
        <time>2021-03-30T14:28:14Z</time>
      </trkpt>
      <trkpt lat="42.2351383" lon="2.2820549">
        <ele>776.98999023</ele>
        <time>2021-03-30T14:28:15Z</time>
      </trkpt>
      <trkpt lat="42.2351603" lon="2.2820748">
        <ele>776.90002441</ele>
        <time>2021-03-30T14:28:16Z</time>
      </trkpt>
      <trkpt lat="42.2351847" lon="2.282099">
        <ele>776.7800293</ele>
        <time>2021-03-30T14:28:17Z</time>
      </trkpt>
      <trkpt lat="42.2352071" lon="2.2821133">
        <ele>776.63000488</ele>
        <time>2021-03-30T14:28:18Z</time>
      </trkpt>
      <trkpt lat="42.2352354" lon="2.2821249">
        <ele>776.48999023</ele>
        <time>2021-03-30T14:28:19Z</time>
      </trkpt>
      <trkpt lat="42.2352687" lon="2.2821279">
        <ele>776.35998535</ele>
        <time>2021-03-30T14:28:20Z</time>
      </trkpt>
      <trkpt lat="42.2352878" lon="2.282128">
        <ele>776.28997803</ele>
        <time>2021-03-30T14:28:21Z</time>
      </trkpt>
      <trkpt lat="42.2353107" lon="2.2821409">
        <ele>776.25</ele>
        <time>2021-03-30T14:28:22Z</time>
      </trkpt>
      <trkpt lat="42.2353348" lon="2.2821588">
        <ele>776.25</ele>
        <time>2021-03-30T14:28:23Z</time>
      </trkpt>
      <trkpt lat="42.2353654" lon="2.282162">
        <ele>776.25</ele>
        <time>2021-03-30T14:28:24Z</time>
      </trkpt>
      <trkpt lat="42.235393" lon="2.2821636">
        <ele>776.30999756</ele>
        <time>2021-03-30T14:28:25Z</time>
      </trkpt>
      <trkpt lat="42.2354213" lon="2.2821762">
        <ele>776.40997314</ele>
        <time>2021-03-30T14:28:26Z</time>
      </trkpt>
      <trkpt lat="42.2354475" lon="2.2821907">
        <ele>776.53997803</ele>
        <time>2021-03-30T14:28:27Z</time>
      </trkpt>
      <trkpt lat="42.235471" lon="2.2822209">
        <ele>776.67999268</ele>
        <time>2021-03-30T14:28:28Z</time>
      </trkpt>
      <trkpt lat="42.2354908" lon="2.2822593">
        <ele>776.79998779</ele>
        <time>2021-03-30T14:28:29Z</time>
      </trkpt>
      <trkpt lat="42.2355074" lon="2.2822955">
        <ele>776.85998535</ele>
        <time>2021-03-30T14:28:30Z</time>
      </trkpt>
      <trkpt lat="42.2355374" lon="2.2823253">
        <ele>776.88000488</ele>
        <time>2021-03-30T14:28:31Z</time>
      </trkpt>
      <trkpt lat="42.2355709" lon="2.2823492">
        <ele>776.90002441</ele>
        <time>2021-03-30T14:28:32Z</time>
      </trkpt>
      <trkpt lat="42.2355961" lon="2.2823769">
        <ele>776.90997314</ele>
        <time>2021-03-30T14:28:33Z</time>
      </trkpt>
      <trkpt lat="42.2356246" lon="2.2824134">
        <ele>776.90002441</ele>
        <time>2021-03-30T14:28:34Z</time>
      </trkpt>
      <trkpt lat="42.2356468" lon="2.2824392">
        <ele>776.86999512</ele>
        <time>2021-03-30T14:28:35Z</time>
      </trkpt>
      <trkpt lat="42.2356879" lon="2.2824381">
        <ele>776.83001709</ele>
        <time>2021-03-30T14:28:36Z</time>
      </trkpt>
      <trkpt lat="42.2357199" lon="2.2824136">
        <ele>776.85998535</ele>
        <time>2021-03-30T14:28:37Z</time>
      </trkpt>
      <trkpt lat="42.2357514" lon="2.2823875">
        <ele>776.96002197</ele>
        <time>2021-03-30T14:28:38Z</time>
      </trkpt>
      <trkpt lat="42.235779" lon="2.2823608">
        <ele>777.10998535</ele>
        <time>2021-03-30T14:28:39Z</time>
      </trkpt>
      <trkpt lat="42.2358039" lon="2.2823389">
        <ele>777.28997803</ele>
        <time>2021-03-30T14:28:40Z</time>
      </trkpt>
      <trkpt lat="42.2358371" lon="2.2823183">
        <ele>777.47998047</ele>
        <time>2021-03-30T14:28:41Z</time>
      </trkpt>
      <trkpt lat="42.2358663" lon="2.2822892">
        <ele>777.66998291</ele>
        <time>2021-03-30T14:28:42Z</time>
      </trkpt>
      <trkpt lat="42.2358908" lon="2.2822605">
        <ele>777.84997559</ele>
        <time>2021-03-30T14:28:43Z</time>
      </trkpt>
      <trkpt lat="42.2359193" lon="2.2822466">
        <ele>778.01000977</ele>
        <time>2021-03-30T14:28:44Z</time>
      </trkpt>
      <trkpt lat="42.2359525" lon="2.2822304">
        <ele>778.15002441</ele>
        <time>2021-03-30T14:28:45Z</time>
      </trkpt>
      <trkpt lat="42.2359743" lon="2.282213">
        <ele>778.2800293</ele>
        <time>2021-03-30T14:28:46Z</time>
      </trkpt>
      <trkpt lat="42.2359958" lon="2.2821949">
        <ele>778.40997314</ele>
        <time>2021-03-30T14:28:47Z</time>
      </trkpt>
      <trkpt lat="42.2360133" lon="2.2821718">
        <ele>778.55999756</ele>
        <time>2021-03-30T14:28:48Z</time>
      </trkpt>
      <trkpt lat="42.2360365" lon="2.2821506">
        <ele>778.73999023</ele>
        <time>2021-03-30T14:28:49Z</time>
      </trkpt>
      <trkpt lat="42.2360623" lon="2.2821271">
        <ele>778.95001221</ele>
        <time>2021-03-30T14:28:50Z</time>
      </trkpt>
      <trkpt lat="42.2360915" lon="2.2821066">
        <ele>779.17999268</ele>
        <time>2021-03-30T14:28:51Z</time>
      </trkpt>
      <trkpt lat="42.2361111" lon="2.2820849">
        <ele>779.42999268</ele>
        <time>2021-03-30T14:28:52Z</time>
      </trkpt>
      <trkpt lat="42.2361283" lon="2.2820607">
        <ele>779.70001221</ele>
        <time>2021-03-30T14:28:53Z</time>
      </trkpt>
      <trkpt lat="42.2361501" lon="2.2820386">
        <ele>780</ele>
        <time>2021-03-30T14:28:54Z</time>
      </trkpt>
      <trkpt lat="42.2361753" lon="2.2820279">
        <ele>780.33001709</ele>
        <time>2021-03-30T14:28:55Z</time>
      </trkpt>
      <trkpt lat="42.2361971" lon="2.2820095">
        <ele>780.65997314</ele>
        <time>2021-03-30T14:28:56Z</time>
      </trkpt>
      <trkpt lat="42.2362157" lon="2.2820016">
        <ele>780.98999023</ele>
        <time>2021-03-30T14:28:57Z</time>
      </trkpt>
      <trkpt lat="42.2362321" lon="2.2819864">
        <ele>781.30999756</ele>
        <time>2021-03-30T14:28:58Z</time>
      </trkpt>
      <trkpt lat="42.2362432" lon="2.2819656">
        <ele>781.61999512</ele>
        <time>2021-03-30T14:28:59Z</time>
      </trkpt>
      <trkpt lat="42.2362501" lon="2.2819583">
        <ele>781.91998291</ele>
        <time>2021-03-30T14:29:00Z</time>
      </trkpt>
      <trkpt lat="42.2362653" lon="2.281961">
        <ele>782.20001221</ele>
        <time>2021-03-30T14:29:01Z</time>
      </trkpt>
      <trkpt lat="42.236281" lon="2.2819569">
        <ele>782.45001221</ele>
        <time>2021-03-30T14:29:02Z</time>
      </trkpt>
      <trkpt lat="42.2362998" lon="2.2819684">
        <ele>782.67999268</ele>
        <time>2021-03-30T14:29:03Z</time>
      </trkpt>
      <trkpt lat="42.2363196" lon="2.2819855">
        <ele>782.88000488</ele>
        <time>2021-03-30T14:29:04Z</time>
      </trkpt>
      <trkpt lat="42.2363367" lon="2.2820089">
        <ele>783.04998779</ele>
        <time>2021-03-30T14:29:05Z</time>
      </trkpt>
      <trkpt lat="42.2363543" lon="2.2820439">
        <ele>783.20001221</ele>
        <time>2021-03-30T14:29:06Z</time>
      </trkpt>
      <trkpt lat="42.2363738" lon="2.2820794">
        <ele>783.33001709</ele>
        <time>2021-03-30T14:29:07Z</time>
      </trkpt>
      <trkpt lat="42.2363967" lon="2.2821035">
        <ele>783.46002197</ele>
        <time>2021-03-30T14:29:08Z</time>
      </trkpt>
      <trkpt lat="42.236423" lon="2.2821354">
        <ele>783.60998535</ele>
        <time>2021-03-30T14:29:09Z</time>
      </trkpt>
      <trkpt lat="42.2364433" lon="2.2821654">
        <ele>783.83001709</ele>
        <time>2021-03-30T14:29:10Z</time>
      </trkpt>
      <trkpt lat="42.2364601" lon="2.2821887">
        <ele>784.11999512</ele>
        <time>2021-03-30T14:29:11Z</time>
      </trkpt>
      <trkpt lat="42.2364788" lon="2.2822133">
        <ele>784.44000244</ele>
        <time>2021-03-30T14:29:12Z</time>
      </trkpt>
      <trkpt lat="42.2364947" lon="2.2822341">
        <ele>784.82000732</ele>
        <time>2021-03-30T14:29:13Z</time>
      </trkpt>
      <trkpt lat="42.2365144" lon="2.2822592">
        <ele>785.22998047</ele>
        <time>2021-03-30T14:29:14Z</time>
      </trkpt>
      <trkpt lat="42.2365322" lon="2.2822898">
        <ele>785.67999268</ele>
        <time>2021-03-30T14:29:15Z</time>
      </trkpt>
      <trkpt lat="42.236552" lon="2.2823166">
        <ele>786.15997314</ele>
        <time>2021-03-30T14:29:16Z</time>
      </trkpt>
      <trkpt lat="42.2365636" lon="2.2823405">
        <ele>786.65997314</ele>
        <time>2021-03-30T14:29:17Z</time>
      </trkpt>
      <trkpt lat="42.2365662" lon="2.2823797">
        <ele>787.15997314</ele>
        <time>2021-03-30T14:29:18Z</time>
      </trkpt>
      <trkpt lat="42.2365674" lon="2.2824108">
        <ele>787.63000488</ele>
        <time>2021-03-30T14:29:19Z</time>
      </trkpt>
      <trkpt lat="42.2365757" lon="2.2824643">
        <ele>788.03997803</ele>
        <time>2021-03-30T14:29:20Z</time>
      </trkpt>
      <trkpt lat="42.2365768" lon="2.2824993">
        <ele>788.45001221</ele>
        <time>2021-03-30T14:29:21Z</time>
      </trkpt>
      <trkpt lat="42.2365815" lon="2.2825288">
        <ele>788.82000732</ele>
        <time>2021-03-30T14:29:22Z</time>
      </trkpt>
      <trkpt lat="42.2365849" lon="2.2825647">
        <ele>789.15997314</ele>
        <time>2021-03-30T14:29:23Z</time>
      </trkpt>
      <trkpt lat="42.2365833" lon="2.2826062">
        <ele>789.48999023</ele>
        <time>2021-03-30T14:29:24Z</time>
      </trkpt>
      <trkpt lat="42.2365889" lon="2.2826668">
        <ele>789.77001953</ele>
        <time>2021-03-30T14:29:25Z</time>
      </trkpt>
      <trkpt lat="42.2365896" lon="2.2827025">
        <ele>790.04998779</ele>
        <time>2021-03-30T14:29:26Z</time>
      </trkpt>
      <trkpt lat="42.2365914" lon="2.2827402">
        <ele>790.29998779</ele>
        <time>2021-03-30T14:29:27Z</time>
      </trkpt>
      <trkpt lat="42.2365921" lon="2.2827804">
        <ele>790.5300293</ele>
        <time>2021-03-30T14:29:28Z</time>
      </trkpt>
      <trkpt lat="42.2366016" lon="2.2828194">
        <ele>790.72998047</ele>
        <time>2021-03-30T14:29:29Z</time>
      </trkpt>
      <trkpt lat="42.2366046" lon="2.2828613">
        <ele>790.89001465</ele>
        <time>2021-03-30T14:29:30Z</time>
      </trkpt>
      <trkpt lat="42.2366028" lon="2.2829021">
        <ele>790.98999023</ele>
        <time>2021-03-30T14:29:31Z</time>
      </trkpt>
      <trkpt lat="42.2365997" lon="2.2829358">
        <ele>791</ele>
        <time>2021-03-30T14:29:32Z</time>
      </trkpt>
      <trkpt lat="42.2365996" lon="2.282969">
        <ele>790.95001221</ele>
        <time>2021-03-30T14:29:33Z</time>
      </trkpt>
      <trkpt lat="42.2366045" lon="2.2830061">
        <ele>790.84997559</ele>
        <time>2021-03-30T14:29:34Z</time>
      </trkpt>
      <trkpt lat="42.2366038" lon="2.283041">
        <ele>790.71002197</ele>
        <time>2021-03-30T14:29:35Z</time>
      </trkpt>
      <trkpt lat="42.2366031" lon="2.2830783">
        <ele>790.5300293</ele>
        <time>2021-03-30T14:29:36Z</time>
      </trkpt>
      <trkpt lat="42.2366082" lon="2.2831089">
        <ele>790.34997559</ele>
        <time>2021-03-30T14:29:37Z</time>
      </trkpt>
      <trkpt lat="42.2366127" lon="2.2831447">
        <ele>790.19000244</ele>
        <time>2021-03-30T14:29:38Z</time>
      </trkpt>
      <trkpt lat="42.2366223" lon="2.2831775">
        <ele>790.05999756</ele>
        <time>2021-03-30T14:29:39Z</time>
      </trkpt>
      <trkpt lat="42.2366334" lon="2.2832259">
        <ele>789.95001221</ele>
        <time>2021-03-30T14:29:40Z</time>
      </trkpt>
      <trkpt lat="42.2366424" lon="2.2832789">
        <ele>789.89001465</ele>
        <time>2021-03-30T14:29:41Z</time>
      </trkpt>
      <trkpt lat="42.2366409" lon="2.283319">
        <ele>789.84997559</ele>
        <time>2021-03-30T14:29:42Z</time>
      </trkpt>
      <trkpt lat="42.2366851" lon="2.2837431">
        <ele>789.52001953</ele>
        <time>2021-03-30T14:29:50Z</time>
      </trkpt>
      <trkpt lat="42.2366823" lon="2.2838157">
        <ele>788.14001465</ele>
        <time>2021-03-30T14:29:51Z</time>
      </trkpt>
      <trkpt lat="42.2366747" lon="2.2838772">
        <ele>786.73999023</ele>
        <time>2021-03-30T14:29:52Z</time>
      </trkpt>
      <trkpt lat="42.2366597" lon="2.2839436">
        <ele>785.34997559</ele>
        <time>2021-03-30T14:29:53Z</time>
      </trkpt>
      <trkpt lat="42.2366494" lon="2.2839979">
        <ele>784.71002197</ele>
        <time>2021-03-30T14:29:54Z</time>
      </trkpt>
      <trkpt lat="42.2366446" lon="2.2840325">
        <ele>784.54998779</ele>
        <time>2021-03-30T14:29:55Z</time>
      </trkpt>
      <trkpt lat="42.2366423" lon="2.284065">
        <ele>784.46002197</ele>
        <time>2021-03-30T14:29:56Z</time>
      </trkpt>
      <trkpt lat="42.2366448" lon="2.2840938">
        <ele>784.38000488</ele>
        <time>2021-03-30T14:29:57Z</time>
      </trkpt>
      <trkpt lat="42.2366508" lon="2.2841205">
        <ele>784.35998535</ele>
        <time>2021-03-30T14:29:58Z</time>
      </trkpt>
      <trkpt lat="42.2366594" lon="2.2841511">
        <ele>784.40997314</ele>
        <time>2021-03-30T14:29:59Z</time>
      </trkpt>
      <trkpt lat="42.2366676" lon="2.2841933">
        <ele>784.52001953</ele>
        <time>2021-03-30T14:30:00Z</time>
      </trkpt>
      <trkpt lat="42.2366714" lon="2.2842318">
        <ele>785.13000488</ele>
        <time>2021-03-30T14:30:01Z</time>
      </trkpt>
      <trkpt lat="42.2366785" lon="2.2842653">
        <ele>785.90002441</ele>
        <time>2021-03-30T14:30:02Z</time>
      </trkpt>
      <trkpt lat="42.2367056" lon="2.284294">
        <ele>786.61999512</ele>
        <time>2021-03-30T14:30:03Z</time>
      </trkpt>
      <trkpt lat="42.2367341" lon="2.2843025">
        <ele>787.41998291</ele>
        <time>2021-03-30T14:30:04Z</time>
      </trkpt>
      <trkpt lat="42.2367619" lon="2.284333">
        <ele>787.88000488</ele>
        <time>2021-03-30T14:30:05Z</time>
      </trkpt>
      <trkpt lat="42.2367854" lon="2.2843659">
        <ele>788.52001953</ele>
        <time>2021-03-30T14:30:06Z</time>
      </trkpt>
      <trkpt lat="42.2368118" lon="2.2843895">
        <ele>789.07000732</ele>
        <time>2021-03-30T14:30:07Z</time>
      </trkpt>
      <trkpt lat="42.2368324" lon="2.2844107">
        <ele>789.45001221</ele>
        <time>2021-03-30T14:30:08Z</time>
      </trkpt>
      <trkpt lat="42.2368629" lon="2.2844318">
        <ele>789.70001221</ele>
        <time>2021-03-30T14:30:09Z</time>
      </trkpt>
      <trkpt lat="42.2368916" lon="2.2844396">
        <ele>789.90002441</ele>
        <time>2021-03-30T14:30:10Z</time>
      </trkpt>
      <trkpt lat="42.2369188" lon="2.2844708">
        <ele>789.9699707</ele>
        <time>2021-03-30T14:30:11Z</time>
      </trkpt>
      <trkpt lat="42.2369404" lon="2.284506">
        <ele>790.40997314</ele>
        <time>2021-03-30T14:30:12Z</time>
      </trkpt>
      <trkpt lat="42.2369656" lon="2.2845461">
        <ele>791.08001709</ele>
        <time>2021-03-30T14:30:13Z</time>
      </trkpt>
      <trkpt lat="42.2369918" lon="2.28458">
        <ele>791.61999512</ele>
        <time>2021-03-30T14:30:14Z</time>
      </trkpt>
      <trkpt lat="42.2370163" lon="2.2845983">
        <ele>792.09997559</ele>
        <time>2021-03-30T14:30:15Z</time>
      </trkpt>
      <trkpt lat="42.2370433" lon="2.2846386">
        <ele>792.47998047</ele>
        <time>2021-03-30T14:30:16Z</time>
      </trkpt>
      <trkpt lat="42.237067" lon="2.2846683">
        <ele>792.85998535</ele>
        <time>2021-03-30T14:30:17Z</time>
      </trkpt>
      <trkpt lat="42.2370875" lon="2.284694">
        <ele>793.21002197</ele>
        <time>2021-03-30T14:30:18Z</time>
      </trkpt>
      <trkpt lat="42.2371133" lon="2.2847296">
        <ele>793.51000977</ele>
        <time>2021-03-30T14:30:19Z</time>
      </trkpt>
      <trkpt lat="42.2371332" lon="2.2847611">
        <ele>793.78997803</ele>
        <time>2021-03-30T14:30:20Z</time>
      </trkpt>
      <trkpt lat="42.2371516" lon="2.2847903">
        <ele>794.01000977</ele>
        <time>2021-03-30T14:30:21Z</time>
      </trkpt>
      <trkpt lat="42.2371698" lon="2.284821">
        <ele>794.17999268</ele>
        <time>2021-03-30T14:30:22Z</time>
      </trkpt>
      <trkpt lat="42.2371965" lon="2.2848636">
        <ele>794.33001709</ele>
        <time>2021-03-30T14:30:23Z</time>
      </trkpt>
      <trkpt lat="42.2372207" lon="2.284901">
        <ele>794.45001221</ele>
        <time>2021-03-30T14:30:24Z</time>
      </trkpt>
      <trkpt lat="42.2372428" lon="2.2849343">
        <ele>794.55999756</ele>
        <time>2021-03-30T14:30:25Z</time>
      </trkpt>
      <trkpt lat="42.2372622" lon="2.2849657">
        <ele>794.69000244</ele>
        <time>2021-03-30T14:30:26Z</time>
      </trkpt>
      <trkpt lat="42.2372813" lon="2.2849979">
        <ele>794.84997559</ele>
        <time>2021-03-30T14:30:27Z</time>
      </trkpt>
      <trkpt lat="42.2373047" lon="2.285022">
        <ele>795.0300293</ele>
        <time>2021-03-30T14:30:28Z</time>
      </trkpt>
      <trkpt lat="42.2373301" lon="2.2850486">
        <ele>795.2199707</ele>
        <time>2021-03-30T14:30:29Z</time>
      </trkpt>
      <trkpt lat="42.2373475" lon="2.2850947">
        <ele>795.41998291</ele>
        <time>2021-03-30T14:30:30Z</time>
      </trkpt>
      <trkpt lat="42.2373709" lon="2.2851193">
        <ele>795.59002686</ele>
        <time>2021-03-30T14:30:31Z</time>
      </trkpt>
      <trkpt lat="42.2374043" lon="2.2851546">
        <ele>795.73999023</ele>
        <time>2021-03-30T14:30:32Z</time>
      </trkpt>
      <trkpt lat="42.2374276" lon="2.2851771">
        <ele>795.85998535</ele>
        <time>2021-03-30T14:30:33Z</time>
      </trkpt>
      <trkpt lat="42.2374553" lon="2.2851938">
        <ele>795.96002197</ele>
        <time>2021-03-30T14:30:34Z</time>
      </trkpt>
      <trkpt lat="42.2374912" lon="2.2851902">
        <ele>796.03997803</ele>
        <time>2021-03-30T14:30:35Z</time>
      </trkpt>
      <trkpt lat="42.2375111" lon="2.2851961">
        <ele>796.14001465</ele>
        <time>2021-03-30T14:30:36Z</time>
      </trkpt>
      <trkpt lat="42.2375391" lon="2.2851797">
        <ele>796.22998047</ele>
        <time>2021-03-30T14:30:37Z</time>
      </trkpt>
      <trkpt lat="42.2375674" lon="2.2851586">
        <ele>796.38000488</ele>
        <time>2021-03-30T14:30:38Z</time>
      </trkpt>
      <trkpt lat="42.2375907" lon="2.2851327">
        <ele>796.59002686</ele>
        <time>2021-03-30T14:30:39Z</time>
      </trkpt>
      <trkpt lat="42.2376183" lon="2.2850979">
        <ele>796.84002686</ele>
        <time>2021-03-30T14:30:40Z</time>
      </trkpt>
      <trkpt lat="42.2376478" lon="2.2850683">
        <ele>797.11999512</ele>
        <time>2021-03-30T14:30:41Z</time>
      </trkpt>
      <trkpt lat="42.2376738" lon="2.2850437">
        <ele>797.42999268</ele>
        <time>2021-03-30T14:30:42Z</time>
      </trkpt>
      <trkpt lat="42.2376885" lon="2.2850197">
        <ele>797.73999023</ele>
        <time>2021-03-30T14:30:43Z</time>
      </trkpt>
      <trkpt lat="42.2377194" lon="2.2850011">
        <ele>798.03997803</ele>
        <time>2021-03-30T14:30:44Z</time>
      </trkpt>
      <trkpt lat="42.2377393" lon="2.2849697">
        <ele>798.32000732</ele>
        <time>2021-03-30T14:30:45Z</time>
      </trkpt>
      <trkpt lat="42.2377533" lon="2.284958">
        <ele>798.57000732</ele>
        <time>2021-03-30T14:30:46Z</time>
      </trkpt>
      <trkpt lat="42.2377709" lon="2.2849553">
        <ele>798.79998779</ele>
        <time>2021-03-30T14:30:47Z</time>
      </trkpt>
      <trkpt lat="42.237786" lon="2.2849581">
        <ele>799</ele>
        <time>2021-03-30T14:30:48Z</time>
      </trkpt>
      <trkpt lat="42.2378095" lon="2.2849766">
        <ele>799.17999268</ele>
        <time>2021-03-30T14:30:49Z</time>
      </trkpt>
      <trkpt lat="42.2378214" lon="2.285011">
        <ele>799.34002686</ele>
        <time>2021-03-30T14:30:50Z</time>
      </trkpt>
      <trkpt lat="42.2378398" lon="2.285044">
        <ele>799.47998047</ele>
        <time>2021-03-30T14:30:51Z</time>
      </trkpt>
      <trkpt lat="42.2378556" lon="2.2850738">
        <ele>799.59997559</ele>
        <time>2021-03-30T14:30:52Z</time>
      </trkpt>
      <trkpt lat="42.2378677" lon="2.2851051">
        <ele>799.7199707</ele>
        <time>2021-03-30T14:30:53Z</time>
      </trkpt>
      <trkpt lat="42.2378858" lon="2.2851438">
        <ele>799.82000732</ele>
        <time>2021-03-30T14:30:54Z</time>
      </trkpt>
      <trkpt lat="42.2378988" lon="2.2851659">
        <ele>799.90997314</ele>
        <time>2021-03-30T14:30:55Z</time>
      </trkpt>
      <trkpt lat="42.2379078" lon="2.2851898">
        <ele>799.98999023</ele>
        <time>2021-03-30T14:30:56Z</time>
      </trkpt>
      <trkpt lat="42.2379174" lon="2.2852158">
        <ele>800.05999756</ele>
        <time>2021-03-30T14:30:57Z</time>
      </trkpt>
      <trkpt lat="42.2379293" lon="2.2852453">
        <ele>800.13000488</ele>
        <time>2021-03-30T14:30:58Z</time>
      </trkpt>
      <trkpt lat="42.2379519" lon="2.2852731">
        <ele>800.17999268</ele>
        <time>2021-03-30T14:30:59Z</time>
      </trkpt>
      <trkpt lat="42.237976" lon="2.28529">
        <ele>800.22998047</ele>
        <time>2021-03-30T14:31:00Z</time>
      </trkpt>
      <trkpt lat="42.2379874" lon="2.2853101">
        <ele>800.27001953</ele>
        <time>2021-03-30T14:31:01Z</time>
      </trkpt>
      <trkpt lat="42.2380019" lon="2.2853259">
        <ele>800.29998779</ele>
        <time>2021-03-30T14:31:02Z</time>
      </trkpt>
      <trkpt lat="42.238016" lon="2.2853379">
        <ele>800.32000732</ele>
        <time>2021-03-30T14:31:03Z</time>
      </trkpt>
      <trkpt lat="42.2380324" lon="2.2853474">
        <ele>800.34002686</ele>
        <time>2021-03-30T14:31:04Z</time>
      </trkpt>
      <trkpt lat="42.2380522" lon="2.2853745">
        <ele>800.35998535</ele>
        <time>2021-03-30T14:31:05Z</time>
      </trkpt>
      <trkpt lat="42.2380595" lon="2.2853874">
        <ele>800.39001465</ele>
        <time>2021-03-30T14:31:06Z</time>
      </trkpt>
      <trkpt lat="42.2380796" lon="2.2854145">
        <ele>800.41998291</ele>
        <time>2021-03-30T14:31:07Z</time>
      </trkpt>
      <trkpt lat="42.2380955" lon="2.2854311">
        <ele>800.44000244</ele>
        <time>2021-03-30T14:31:08Z</time>
      </trkpt>
      <trkpt lat="42.2381135" lon="2.2854566">
        <ele>800.46002197</ele>
        <time>2021-03-30T14:31:09Z</time>
      </trkpt>
      <trkpt lat="42.2381208" lon="2.2855042">
        <ele>800.47998047</ele>
        <time>2021-03-30T14:31:10Z</time>
      </trkpt>
      <trkpt lat="42.2381366" lon="2.2855143">
        <ele>800.5</ele>
        <time>2021-03-30T14:31:11Z</time>
      </trkpt>
      <trkpt lat="42.2381545" lon="2.2855408">
        <ele>800.52001953</ele>
        <time>2021-03-30T14:31:12Z</time>
      </trkpt>
      <trkpt lat="42.2381787" lon="2.2855639">
        <ele>800.5300293</ele>
        <time>2021-03-30T14:31:13Z</time>
      </trkpt>
      <trkpt lat="42.2381963" lon="2.2855855">
        <ele>800.54998779</ele>
        <time>2021-03-30T14:31:14Z</time>
      </trkpt>
      <trkpt lat="42.2382193" lon="2.2856047">
        <ele>800.55999756</ele>
        <time>2021-03-30T14:31:15Z</time>
      </trkpt>
      <trkpt lat="42.2382402" lon="2.2856213">
        <ele>800.57000732</ele>
        <time>2021-03-30T14:31:16Z</time>
      </trkpt>
      <trkpt lat="42.2382592" lon="2.2856366">
        <ele>800.58001709</ele>
        <time>2021-03-30T14:31:17Z</time>
      </trkpt>
      <trkpt lat="42.2382854" lon="2.2856479">
        <ele>800.59002686</ele>
        <time>2021-03-30T14:31:18Z</time>
      </trkpt>
      <trkpt lat="42.2383082" lon="2.2856636">
        <ele>800.59002686</ele>
        <time>2021-03-30T14:31:19Z</time>
      </trkpt>
      <trkpt lat="42.2383284" lon="2.2856716">
        <ele>800.59997559</ele>
        <time>2021-03-30T14:31:20Z</time>
      </trkpt>
      <trkpt lat="42.2383483" lon="2.2856912">
        <ele>800.60998535</ele>
        <time>2021-03-30T14:31:21Z</time>
      </trkpt>
      <trkpt lat="42.2383761" lon="2.2857226">
        <ele>800.64001465</ele>
        <time>2021-03-30T14:31:22Z</time>
      </trkpt>
      <trkpt lat="42.2383991" lon="2.2857402">
        <ele>800.7199707</ele>
        <time>2021-03-30T14:31:23Z</time>
      </trkpt>
      <trkpt lat="42.2384231" lon="2.2857447">
        <ele>800.84997559</ele>
        <time>2021-03-30T14:31:24Z</time>
      </trkpt>
      <trkpt lat="42.2384493" lon="2.2857384">
        <ele>801.01000977</ele>
        <time>2021-03-30T14:31:25Z</time>
      </trkpt>
      <trkpt lat="42.2384749" lon="2.2857322">
        <ele>801.20001221</ele>
        <time>2021-03-30T14:31:26Z</time>
      </trkpt>
      <trkpt lat="42.2384911" lon="2.2857228">
        <ele>801.42999268</ele>
        <time>2021-03-30T14:31:27Z</time>
      </trkpt>
      <trkpt lat="42.238498" lon="2.2856979">
        <ele>801.66998291</ele>
        <time>2021-03-30T14:31:28Z</time>
      </trkpt>
      <trkpt lat="42.2384943" lon="2.2856743">
        <ele>801.90002441</ele>
        <time>2021-03-30T14:31:29Z</time>
      </trkpt>
      <trkpt lat="42.2384768" lon="2.2856433">
        <ele>802.09997559</ele>
        <time>2021-03-30T14:31:30Z</time>
      </trkpt>
      <trkpt lat="42.2384547" lon="2.2856149">
        <ele>802.23999023</ele>
        <time>2021-03-30T14:31:31Z</time>
      </trkpt>
      <trkpt lat="42.2384336" lon="2.2855803">
        <ele>802.33001709</ele>
        <time>2021-03-30T14:31:32Z</time>
      </trkpt>
      <trkpt lat="42.2384153" lon="2.2855538">
        <ele>802.35998535</ele>
        <time>2021-03-30T14:31:33Z</time>
      </trkpt>
      <trkpt lat="42.2384007" lon="2.2855134">
        <ele>802.34997559</ele>
        <time>2021-03-30T14:31:34Z</time>
      </trkpt>
      <trkpt lat="42.2383977" lon="2.2854691">
        <ele>802.30999756</ele>
        <time>2021-03-30T14:31:35Z</time>
      </trkpt>
      <trkpt lat="42.2384071" lon="2.2854256">
        <ele>802.27001953</ele>
        <time>2021-03-30T14:31:36Z</time>
      </trkpt>
      <trkpt lat="42.2384318" lon="2.2854014">
        <ele>802.23999023</ele>
        <time>2021-03-30T14:31:37Z</time>
      </trkpt>
      <trkpt lat="42.2384601" lon="2.2853708">
        <ele>802.27001953</ele>
        <time>2021-03-30T14:31:38Z</time>
      </trkpt>
      <trkpt lat="42.2384748" lon="2.2853401">
        <ele>802.34997559</ele>
        <time>2021-03-30T14:31:39Z</time>
      </trkpt>
      <trkpt lat="42.2384829" lon="2.2853137">
        <ele>802.46002197</ele>
        <time>2021-03-30T14:31:40Z</time>
      </trkpt>
      <trkpt lat="42.2385089" lon="2.2852746">
        <ele>802.57000732</ele>
        <time>2021-03-30T14:31:41Z</time>
      </trkpt>
      <trkpt lat="42.2384987" lon="2.2852246">
        <ele>802.72998047</ele>
        <time>2021-03-30T14:31:42Z</time>
      </trkpt>
      <trkpt lat="42.2384791" lon="2.2851732">
        <ele>802.95001221</ele>
        <time>2021-03-30T14:31:43Z</time>
      </trkpt>
      <trkpt lat="42.2384524" lon="2.2851316">
        <ele>803.21002197</ele>
        <time>2021-03-30T14:31:44Z</time>
      </trkpt>
      <trkpt lat="42.2384242" lon="2.2850918">
        <ele>803.47998047</ele>
        <time>2021-03-30T14:31:45Z</time>
      </trkpt>
      <trkpt lat="42.2383975" lon="2.2850546">
        <ele>803.75</ele>
        <time>2021-03-30T14:31:46Z</time>
      </trkpt>
      <trkpt lat="42.2383706" lon="2.285014">
        <ele>804</ele>
        <time>2021-03-30T14:31:47Z</time>
      </trkpt>
      <trkpt lat="42.238345" lon="2.2849779">
        <ele>804.26000977</ele>
        <time>2021-03-30T14:31:48Z</time>
      </trkpt>
      <trkpt lat="42.2355828" lon="2.2802988">
        <ele>796.67999268</ele>
        <time>2021-03-30T14:34:07Z</time>
      </trkpt>
      <trkpt lat="42.2355551" lon="2.2802504">
        <ele>796.59997559</ele>
        <time>2021-03-30T14:34:08Z</time>
      </trkpt>
      <trkpt lat="42.23552" lon="2.280183">
        <ele>796.51000977</ele>
        <time>2021-03-30T14:34:09Z</time>
      </trkpt>
      <trkpt lat="42.2354917" lon="2.2801336">
        <ele>796.5</ele>
        <time>2021-03-30T14:34:10Z</time>
      </trkpt>
      <trkpt lat="42.23545" lon="2.2800731">
        <ele>796.53997803</ele>
        <time>2021-03-30T14:34:11Z</time>
      </trkpt>
      <trkpt lat="42.2354194" lon="2.2800164">
        <ele>796.60998535</ele>
        <time>2021-03-30T14:34:12Z</time>
      </trkpt>
      <trkpt lat="42.2353922" lon="2.2799685">
        <ele>796.7199707</ele>
        <time>2021-03-30T14:34:13Z</time>
      </trkpt>
      <trkpt lat="42.2353651" lon="2.2799166">
        <ele>796.80999756</ele>
        <time>2021-03-30T14:34:14Z</time>
      </trkpt>
      <trkpt lat="42.2353379" lon="2.2798656">
        <ele>796.84002686</ele>
        <time>2021-03-30T14:34:15Z</time>
      </trkpt>
      <trkpt lat="42.2353004" lon="2.2798252">
        <ele>796.79998779</ele>
        <time>2021-03-30T14:34:16Z</time>
      </trkpt>
      <trkpt lat="42.2352712" lon="2.279777">
        <ele>796.70001221</ele>
        <time>2021-03-30T14:34:17Z</time>
      </trkpt>
      <trkpt lat="42.23524" lon="2.2797244">
        <ele>796.53997803</ele>
        <time>2021-03-30T14:34:18Z</time>
      </trkpt>
      <trkpt lat="42.2352132" lon="2.2796983">
        <ele>796.34002686</ele>
        <time>2021-03-30T14:34:19Z</time>
      </trkpt>
      <trkpt lat="42.2351899" lon="2.2796642">
        <ele>796.10998535</ele>
        <time>2021-03-30T14:34:20Z</time>
      </trkpt>
      <trkpt lat="42.2351622" lon="2.2796175">
        <ele>795.84997559</ele>
        <time>2021-03-30T14:34:21Z</time>
      </trkpt>
      <trkpt lat="42.2351423" lon="2.2795588">
        <ele>795.55999756</ele>
        <time>2021-03-30T14:34:22Z</time>
      </trkpt>
      <trkpt lat="42.2351131" lon="2.2794924">
        <ele>795.26000977</ele>
        <time>2021-03-30T14:34:23Z</time>
      </trkpt>
      <trkpt lat="42.235077" lon="2.2794382">
        <ele>794.92999268</ele>
        <time>2021-03-30T14:34:24Z</time>
      </trkpt>
      <trkpt lat="42.2350458" lon="2.2793954">
        <ele>794.54998779</ele>
        <time>2021-03-30T14:34:25Z</time>
      </trkpt>
      <trkpt lat="42.2350102" lon="2.2793395">
        <ele>794.07000732</ele>
        <time>2021-03-30T14:34:26Z</time>
      </trkpt>
      <trkpt lat="42.2349764" lon="2.279278">
        <ele>793.90002441</ele>
        <time>2021-03-30T14:34:27Z</time>
      </trkpt>
      <trkpt lat="42.2349464" lon="2.279212">
        <ele>793.84002686</ele>
        <time>2021-03-30T14:34:28Z</time>
      </trkpt>
      <trkpt lat="42.234875" lon="2.2790888">
        <ele>793.66998291</ele>
        <time>2021-03-30T14:34:29Z</time>
      </trkpt>
      <trkpt lat="42.2348253" lon="2.279013">
        <ele>793.25</ele>
        <time>2021-03-30T14:34:30Z</time>
      </trkpt>
      <trkpt lat="42.2347838" lon="2.2789447">
        <ele>791.2800293</ele>
        <time>2021-03-30T14:34:31Z</time>
      </trkpt>
      <trkpt lat="42.2347461" lon="2.2788798">
        <ele>789.53997803</ele>
        <time>2021-03-30T14:34:32Z</time>
      </trkpt>
      <trkpt lat="42.2344628" lon="2.2783818">
        <ele>787.59002686</ele>
        <time>2021-03-30T14:34:39Z</time>
      </trkpt>
      <trkpt lat="42.2344299" lon="2.278328">
        <ele>787.64001465</ele>
        <time>2021-03-30T14:34:40Z</time>
      </trkpt>
      <trkpt lat="42.2343977" lon="2.2782623">
        <ele>787.96002197</ele>
        <time>2021-03-30T14:34:41Z</time>
      </trkpt>
      <trkpt lat="42.234364" lon="2.2781935">
        <ele>788.25</ele>
        <time>2021-03-30T14:34:42Z</time>
      </trkpt>
      <trkpt lat="42.2343309" lon="2.2781295">
        <ele>788.47998047</ele>
        <time>2021-03-30T14:34:43Z</time>
      </trkpt>
      <trkpt lat="42.2343006" lon="2.2780463">
        <ele>788.66998291</ele>
        <time>2021-03-30T14:34:44Z</time>
      </trkpt>
      <trkpt lat="42.2342713" lon="2.2779756">
        <ele>788.85998535</ele>
        <time>2021-03-30T14:34:45Z</time>
      </trkpt>
      <trkpt lat="42.2342328" lon="2.2778971">
        <ele>788.94000244</ele>
        <time>2021-03-30T14:34:46Z</time>
      </trkpt>
      <trkpt lat="42.2342057" lon="2.2778264">
        <ele>789.04998779</ele>
        <time>2021-03-30T14:34:47Z</time>
      </trkpt>
      <trkpt lat="42.2341751" lon="2.2777729">
        <ele>789.20001221</ele>
        <time>2021-03-30T14:34:48Z</time>
      </trkpt>
      <trkpt lat="42.2341391" lon="2.2777168">
        <ele>789.98999023</ele>
        <time>2021-03-30T14:34:49Z</time>
      </trkpt>
      <trkpt lat="42.2341011" lon="2.277659">
        <ele>790.63000488</ele>
        <time>2021-03-30T14:34:50Z</time>
      </trkpt>
      <trkpt lat="42.2340667" lon="2.2776026">
        <ele>791.08001709</ele>
        <time>2021-03-30T14:34:51Z</time>
      </trkpt>
      <trkpt lat="42.2340365" lon="2.2775344">
        <ele>791.38000488</ele>
        <time>2021-03-30T14:34:52Z</time>
      </trkpt>
      <trkpt lat="42.2340049" lon="2.2774796">
        <ele>791.55999756</ele>
        <time>2021-03-30T14:34:53Z</time>
      </trkpt>
      <trkpt lat="42.2339687" lon="2.2774303">
        <ele>791.64001465</ele>
        <time>2021-03-30T14:34:54Z</time>
      </trkpt>
      <trkpt lat="42.2339302" lon="2.2773643">
        <ele>791.64001465</ele>
        <time>2021-03-30T14:34:55Z</time>
      </trkpt>
      <trkpt lat="42.2338962" lon="2.2773064">
        <ele>791.54998779</ele>
        <time>2021-03-30T14:34:56Z</time>
      </trkpt>
      <trkpt lat="42.2338648" lon="2.2772454">
        <ele>791.40002441</ele>
        <time>2021-03-30T14:34:57Z</time>
      </trkpt>
      <trkpt lat="42.2338233" lon="2.2771708">
        <ele>791.25</ele>
        <time>2021-03-30T14:34:58Z</time>
      </trkpt>
      <trkpt lat="42.2337953" lon="2.2771189">
        <ele>791.17999268</ele>
        <time>2021-03-30T14:34:59Z</time>
      </trkpt>
      <trkpt lat="42.2337573" lon="2.2770538">
        <ele>791.19000244</ele>
        <time>2021-03-30T14:35:00Z</time>
      </trkpt>
      <trkpt lat="42.2337254" lon="2.2769749">
        <ele>791.23999023</ele>
        <time>2021-03-30T14:35:01Z</time>
      </trkpt>
      <trkpt lat="42.2336948" lon="2.276908">
        <ele>791.30999756</ele>
        <time>2021-03-30T14:35:02Z</time>
      </trkpt>
      <trkpt lat="42.2336556" lon="2.276826">
        <ele>791.34997559</ele>
        <time>2021-03-30T14:35:03Z</time>
      </trkpt>
      <trkpt lat="42.2336261" lon="2.2767578">
        <ele>791.29998779</ele>
        <time>2021-03-30T14:35:04Z</time>
      </trkpt>
      <trkpt lat="42.2335961" lon="2.2767033">
        <ele>791.20001221</ele>
        <time>2021-03-30T14:35:05Z</time>
      </trkpt>
      <trkpt lat="42.2333735" lon="2.2762688">
        <ele>790.53997803</ele>
        <time>2021-03-30T14:35:12Z</time>
      </trkpt>
      <trkpt lat="42.2333375" lon="2.2762001">
        <ele>790.47998047</ele>
        <time>2021-03-30T14:35:13Z</time>
      </trkpt>
      <trkpt lat="42.2333013" lon="2.2761233">
        <ele>790.42999268</ele>
        <time>2021-03-30T14:35:14Z</time>
      </trkpt>
      <trkpt lat="42.2332508" lon="2.2760363">
        <ele>790.38000488</ele>
        <time>2021-03-30T14:35:15Z</time>
      </trkpt>
      <trkpt lat="42.2332138" lon="2.2759719">
        <ele>790.34002686</ele>
        <time>2021-03-30T14:35:16Z</time>
      </trkpt>
      <trkpt lat="42.2331783" lon="2.275915">
        <ele>790.29998779</ele>
        <time>2021-03-30T14:35:17Z</time>
      </trkpt>
      <trkpt lat="42.2331406" lon="2.2758497">
        <ele>790.27001953</ele>
        <time>2021-03-30T14:35:18Z</time>
      </trkpt>
      <trkpt lat="42.2331102" lon="2.2757931">
        <ele>790.23999023</ele>
        <time>2021-03-30T14:35:19Z</time>
      </trkpt>
      <trkpt lat="42.2330675" lon="2.2757155">
        <ele>790.21002197</ele>
        <time>2021-03-30T14:35:20Z</time>
      </trkpt>
      <trkpt lat="42.2330331" lon="2.2756411">
        <ele>790.19000244</ele>
        <time>2021-03-30T14:35:21Z</time>
      </trkpt>
      <trkpt lat="42.2330003" lon="2.2755753">
        <ele>790.13000488</ele>
        <time>2021-03-30T14:35:22Z</time>
      </trkpt>
      <trkpt lat="42.2329615" lon="2.2755129">
        <ele>790.01000977</ele>
        <time>2021-03-30T14:35:23Z</time>
      </trkpt>
      <trkpt lat="42.2329202" lon="2.2754579">
        <ele>789.84997559</ele>
        <time>2021-03-30T14:35:24Z</time>
      </trkpt>
      <trkpt lat="42.2328818" lon="2.2753939">
        <ele>789.67999268</ele>
        <time>2021-03-30T14:35:25Z</time>
      </trkpt>
      <trkpt lat="42.2328543" lon="2.2753441">
        <ele>789.55999756</ele>
        <time>2021-03-30T14:35:26Z</time>
      </trkpt>
      <trkpt lat="42.2328252" lon="2.2752921">
        <ele>789.5</ele>
        <time>2021-03-30T14:35:27Z</time>
      </trkpt>
      <trkpt lat="42.2328144" lon="2.2752434">
        <ele>789.52001953</ele>
        <time>2021-03-30T14:35:28Z</time>
      </trkpt>
      <trkpt lat="42.2327874" lon="2.2751635">
        <ele>789.52001953</ele>
        <time>2021-03-30T14:35:29Z</time>
      </trkpt>
      <trkpt lat="42.2327519" lon="2.2750855">
        <ele>789.47998047</ele>
        <time>2021-03-30T14:35:30Z</time>
      </trkpt>
      <trkpt lat="42.2327351" lon="2.2750403">
        <ele>789.40002441</ele>
        <time>2021-03-30T14:35:31Z</time>
      </trkpt>
      <trkpt lat="42.2327181" lon="2.2749871">
        <ele>788.94000244</ele>
        <time>2021-03-30T14:35:32Z</time>
      </trkpt>
      <trkpt lat="42.2326964" lon="2.2749369">
        <ele>788.44000244</ele>
        <time>2021-03-30T14:35:33Z</time>
      </trkpt>
      <trkpt lat="42.232663" lon="2.274883">
        <ele>788</ele>
        <time>2021-03-30T14:35:34Z</time>
      </trkpt>
      <trkpt lat="42.2326355" lon="2.2748273">
        <ele>787.60998535</ele>
        <time>2021-03-30T14:35:35Z</time>
      </trkpt>
      <trkpt lat="42.2326045" lon="2.2747526">
        <ele>787.2800293</ele>
        <time>2021-03-30T14:35:36Z</time>
      </trkpt>
      <trkpt lat="42.2325679" lon="2.2746934">
        <ele>786.97998047</ele>
        <time>2021-03-30T14:35:37Z</time>
      </trkpt>
      <trkpt lat="42.2322531" lon="2.2741175">
        <ele>785.19000244</ele>
        <time>2021-03-30T14:35:46Z</time>
      </trkpt>
      <trkpt lat="42.2322182" lon="2.2740691">
        <ele>784.48999023</ele>
        <time>2021-03-30T14:35:47Z</time>
      </trkpt>
      <trkpt lat="42.2321833" lon="2.2740175">
        <ele>783.84002686</ele>
        <time>2021-03-30T14:35:48Z</time>
      </trkpt>
      <trkpt lat="42.2321494" lon="2.2739745">
        <ele>783.29998779</ele>
        <time>2021-03-30T14:35:49Z</time>
      </trkpt>
      <trkpt lat="42.2321135" lon="2.2739261">
        <ele>782.83001709</ele>
        <time>2021-03-30T14:35:50Z</time>
      </trkpt>
      <trkpt lat="42.232076" lon="2.2738694">
        <ele>782.41998291</ele>
        <time>2021-03-30T14:35:51Z</time>
      </trkpt>
      <trkpt lat="42.2320458" lon="2.2738134">
        <ele>782.09002686</ele>
        <time>2021-03-30T14:35:52Z</time>
      </trkpt>
      <trkpt lat="42.2320018" lon="2.2737536">
        <ele>781.83001709</ele>
        <time>2021-03-30T14:35:53Z</time>
      </trkpt>
      <trkpt lat="42.2319724" lon="2.2736743">
        <ele>781.60998535</ele>
        <time>2021-03-30T14:35:54Z</time>
      </trkpt>
      <trkpt lat="42.2319504" lon="2.2736161">
        <ele>781.40002441</ele>
        <time>2021-03-30T14:35:55Z</time>
      </trkpt>
      <trkpt lat="42.2319117" lon="2.2735528">
        <ele>781.19000244</ele>
        <time>2021-03-30T14:35:56Z</time>
      </trkpt>
      <trkpt lat="42.2318717" lon="2.2734898">
        <ele>781.09002686</ele>
        <time>2021-03-30T14:35:57Z</time>
      </trkpt>
      <trkpt lat="42.2318371" lon="2.2734357">
        <ele>781.07000732</ele>
        <time>2021-03-30T14:35:58Z</time>
      </trkpt>
      <trkpt lat="42.231805" lon="2.2733835">
        <ele>781.09997559</ele>
        <time>2021-03-30T14:35:59Z</time>
      </trkpt>
      <trkpt lat="42.231769" lon="2.2733277">
        <ele>781.15002441</ele>
        <time>2021-03-30T14:36:00Z</time>
      </trkpt>
      <trkpt lat="42.2317335" lon="2.2732694">
        <ele>781.16998291</ele>
        <time>2021-03-30T14:36:01Z</time>
      </trkpt>
      <trkpt lat="42.2317003" lon="2.2732164">
        <ele>781.21002197</ele>
        <time>2021-03-30T14:36:02Z</time>
      </trkpt>
      <trkpt lat="42.2316629" lon="2.2731491">
        <ele>781.28997803</ele>
        <time>2021-03-30T14:36:03Z</time>
      </trkpt>
      <trkpt lat="42.2316273" lon="2.2730875">
        <ele>781.44000244</ele>
        <time>2021-03-30T14:36:04Z</time>
      </trkpt>
      <trkpt lat="42.2315972" lon="2.2730337">
        <ele>781.63000488</ele>
        <time>2021-03-30T14:36:05Z</time>
      </trkpt>
      <trkpt lat="42.2315742" lon="2.2729658">
        <ele>781.82000732</ele>
        <time>2021-03-30T14:36:06Z</time>
      </trkpt>
      <trkpt lat="42.2315386" lon="2.2728871">
        <ele>781.94000244</ele>
        <time>2021-03-30T14:36:07Z</time>
      </trkpt>
      <trkpt lat="42.2315159" lon="2.2728208">
        <ele>781.9699707</ele>
        <time>2021-03-30T14:36:08Z</time>
      </trkpt>
      <trkpt lat="42.2314772" lon="2.2727479">
        <ele>781.96002197</ele>
        <time>2021-03-30T14:36:09Z</time>
      </trkpt>
      <trkpt lat="42.2314406" lon="2.2726919">
        <ele>781.86999512</ele>
        <time>2021-03-30T14:36:10Z</time>
      </trkpt>
      <trkpt lat="42.2313928" lon="2.2726202">
        <ele>781.71002197</ele>
        <time>2021-03-30T14:36:11Z</time>
      </trkpt>
      <trkpt lat="42.23114" lon="2.2721958">
        <ele>780.72998047</ele>
        <time>2021-03-30T14:36:18Z</time>
      </trkpt>
      <trkpt lat="42.2310929" lon="2.2721096">
        <ele>780.64001465</ele>
        <time>2021-03-30T14:36:19Z</time>
      </trkpt>
      <trkpt lat="42.2310543" lon="2.2720443">
        <ele>780.4699707</ele>
        <time>2021-03-30T14:36:20Z</time>
      </trkpt>
      <trkpt lat="42.2310062" lon="2.2719773">
        <ele>780.23999023</ele>
        <time>2021-03-30T14:36:21Z</time>
      </trkpt>
      <trkpt lat="42.2309749" lon="2.2719261">
        <ele>779.94000244</ele>
        <time>2021-03-30T14:36:22Z</time>
      </trkpt>
      <trkpt lat="42.2309384" lon="2.2718549">
        <ele>779.60998535</ele>
        <time>2021-03-30T14:36:23Z</time>
      </trkpt>
      <trkpt lat="42.2309089" lon="2.271798">
        <ele>779.34002686</ele>
        <time>2021-03-30T14:36:24Z</time>
      </trkpt>
      <trkpt lat="42.2308793" lon="2.2717264">
        <ele>779.14001465</ele>
        <time>2021-03-30T14:36:25Z</time>
      </trkpt>
      <trkpt lat="42.2308494" lon="2.2716699">
        <ele>779.04998779</ele>
        <time>2021-03-30T14:36:26Z</time>
      </trkpt>
      <trkpt lat="42.2307959" lon="2.2715802">
        <ele>779.05999756</ele>
        <time>2021-03-30T14:36:27Z</time>
      </trkpt>
      <trkpt lat="42.2307483" lon="2.2715037">
        <ele>778.9699707</ele>
        <time>2021-03-30T14:36:28Z</time>
      </trkpt>
      <trkpt lat="42.2307143" lon="2.2714378">
        <ele>778.77001953</ele>
        <time>2021-03-30T14:36:29Z</time>
      </trkpt>
      <trkpt lat="42.2306787" lon="2.2713801">
        <ele>778.54998779</ele>
        <time>2021-03-30T14:36:30Z</time>
      </trkpt>
      <trkpt lat="42.2306391" lon="2.2713117">
        <ele>778.32000732</ele>
        <time>2021-03-30T14:36:31Z</time>
      </trkpt>
      <trkpt lat="42.2306012" lon="2.2712479">
        <ele>778.0300293</ele>
        <time>2021-03-30T14:36:32Z</time>
      </trkpt>
      <trkpt lat="42.230566" lon="2.2711722">
        <ele>777.70001221</ele>
        <time>2021-03-30T14:36:33Z</time>
      </trkpt>
      <trkpt lat="42.2305412" lon="2.2711172">
        <ele>777.33001709</ele>
        <time>2021-03-30T14:36:34Z</time>
      </trkpt>
      <trkpt lat="42.2305124" lon="2.2710725">
        <ele>776.95001221</ele>
        <time>2021-03-30T14:36:35Z</time>
      </trkpt>
      <trkpt lat="42.2304965" lon="2.2710111">
        <ele>776.61999512</ele>
        <time>2021-03-30T14:36:36Z</time>
      </trkpt>
      <trkpt lat="42.2304631" lon="2.2709455">
        <ele>776.41998291</ele>
        <time>2021-03-30T14:36:37Z</time>
      </trkpt>
      <trkpt lat="42.2304081" lon="2.2708585">
        <ele>776.29998779</ele>
        <time>2021-03-30T14:36:38Z</time>
      </trkpt>
      <trkpt lat="42.2303741" lon="2.2707788">
        <ele>776.26000977</ele>
        <time>2021-03-30T14:36:39Z</time>
      </trkpt>
      <trkpt lat="42.2303413" lon="2.270711">
        <ele>776.2199707</ele>
        <time>2021-03-30T14:36:40Z</time>
      </trkpt>
      <trkpt lat="42.2303044" lon="2.2706388">
        <ele>776.11999512</ele>
        <time>2021-03-30T14:36:41Z</time>
      </trkpt>
      <trkpt lat="42.2302804" lon="2.2705822">
        <ele>775.95001221</ele>
        <time>2021-03-30T14:36:42Z</time>
      </trkpt>
      <trkpt lat="42.2302451" lon="2.2705122">
        <ele>775.75</ele>
        <time>2021-03-30T14:36:43Z</time>
      </trkpt>
      <trkpt lat="42.2302162" lon="2.2704525">
        <ele>775.58001709</ele>
        <time>2021-03-30T14:36:44Z</time>
      </trkpt>
      <trkpt lat="42.2297077" lon="2.2694497">
        <ele>768.25</ele>
        <time>2021-03-30T14:38:47Z</time>
      </trkpt>
      <trkpt lat="42.2296933" lon="2.2694227">
        <ele>768.38000488</ele>
        <time>2021-03-30T14:38:48Z</time>
      </trkpt>
      <trkpt lat="42.2296681" lon="2.2693421">
        <ele>788.21002197</ele>
        <time>2021-03-30T14:38:49Z</time>
      </trkpt>
      <trkpt lat="42.2296477" lon="2.2693104">
        <ele>769.4699707</ele>
        <time>2021-03-30T14:38:50Z</time>
      </trkpt>
      <trkpt lat="42.2296309" lon="2.2692625">
        <ele>769.96002197</ele>
        <time>2021-03-30T14:38:51Z</time>
      </trkpt>
      <trkpt lat="42.2296142" lon="2.2692434">
        <ele>770.35998535</ele>
        <time>2021-03-30T14:38:52Z</time>
      </trkpt>
      <trkpt lat="42.229599" lon="2.269223">
        <ele>770.45001221</ele>
        <time>2021-03-30T14:38:53Z</time>
      </trkpt>
      <trkpt lat="42.2295844" lon="2.2691962">
        <ele>770.54998779</ele>
        <time>2021-03-30T14:38:54Z</time>
      </trkpt>
      <trkpt lat="42.2295365" lon="2.2691324">
        <ele>770.95001221</ele>
        <time>2021-03-30T14:38:56Z</time>
      </trkpt>
      <trkpt lat="42.2295165" lon="2.2691166">
        <ele>770.48999023</ele>
        <time>2021-03-30T14:38:57Z</time>
      </trkpt>
      <trkpt lat="42.2294921" lon="2.2690817">
        <ele>770.09997559</ele>
        <time>2021-03-30T14:38:58Z</time>
      </trkpt>
      <trkpt lat="42.2294656" lon="2.269042">
        <ele>769.64001465</ele>
        <time>2021-03-30T14:38:59Z</time>
      </trkpt>
      <trkpt lat="42.2294482" lon="2.2689961">
        <ele>769.13000488</ele>
        <time>2021-03-30T14:39:00Z</time>
      </trkpt>
      <trkpt lat="42.2294242" lon="2.2689585">
        <ele>768.7800293</ele>
        <time>2021-03-30T14:39:01Z</time>
      </trkpt>
      <trkpt lat="42.2294069" lon="2.2689247">
        <ele>768.33001709</ele>
        <time>2021-03-30T14:39:02Z</time>
      </trkpt>
      <trkpt lat="42.2293905" lon="2.2688906">
        <ele>767.98999023</ele>
        <time>2021-03-30T14:39:03Z</time>
      </trkpt>
      <trkpt lat="42.2293633" lon="2.2688468">
        <ele>767.66998291</ele>
        <time>2021-03-30T14:39:04Z</time>
      </trkpt>
      <trkpt lat="42.2293439" lon="2.2688023">
        <ele>767.65997314</ele>
        <time>2021-03-30T14:39:05Z</time>
      </trkpt>
      <trkpt lat="42.2293291" lon="2.2687596">
        <ele>767.71002197</ele>
        <time>2021-03-30T14:39:06Z</time>
      </trkpt>
      <trkpt lat="42.2293106" lon="2.2687183">
        <ele>767.76000977</ele>
        <time>2021-03-30T14:39:07Z</time>
      </trkpt>
      <trkpt lat="42.2292956" lon="2.2686596">
        <ele>767.77001953</ele>
        <time>2021-03-30T14:39:08Z</time>
      </trkpt>
      <trkpt lat="42.2292689" lon="2.2686019">
        <ele>767.7800293</ele>
        <time>2021-03-30T14:39:09Z</time>
      </trkpt>
      <trkpt lat="42.2292431" lon="2.2685503">
        <ele>767.72998047</ele>
        <time>2021-03-30T14:39:10Z</time>
      </trkpt>
      <trkpt lat="42.2292197" lon="2.2685089">
        <ele>767.64001465</ele>
        <time>2021-03-30T14:39:11Z</time>
      </trkpt>
      <trkpt lat="42.229199" lon="2.2684553">
        <ele>767.53997803</ele>
        <time>2021-03-30T14:39:12Z</time>
      </trkpt>
      <trkpt lat="42.2291829" lon="2.2684088">
        <ele>767.5</ele>
        <time>2021-03-30T14:39:13Z</time>
      </trkpt>
      <trkpt lat="42.2291647" lon="2.2683634">
        <ele>767.51000977</ele>
        <time>2021-03-30T14:39:14Z</time>
      </trkpt>
      <trkpt lat="42.2291513" lon="2.2683008">
        <ele>767.57000732</ele>
        <time>2021-03-30T14:39:15Z</time>
      </trkpt>
      <trkpt lat="42.2291332" lon="2.2682508">
        <ele>767.65997314</ele>
        <time>2021-03-30T14:39:16Z</time>
      </trkpt>
      <trkpt lat="42.2291147" lon="2.2681934">
        <ele>767.71002197</ele>
        <time>2021-03-30T14:39:17Z</time>
      </trkpt>
      <trkpt lat="42.2291031" lon="2.2681469">
        <ele>767.71002197</ele>
        <time>2021-03-30T14:39:18Z</time>
      </trkpt>
      <trkpt lat="42.2290803" lon="2.2681051">
        <ele>767.67999268</ele>
        <time>2021-03-30T14:39:19Z</time>
      </trkpt>
      <trkpt lat="42.2290609" lon="2.2680537">
        <ele>767.60998535</ele>
        <time>2021-03-30T14:39:20Z</time>
      </trkpt>
      <trkpt lat="42.2290431" lon="2.2679943">
        <ele>767.51000977</ele>
        <time>2021-03-30T14:39:21Z</time>
      </trkpt>
      <trkpt lat="42.2290244" lon="2.2679366">
        <ele>767.38000488</ele>
        <time>2021-03-30T14:39:22Z</time>
      </trkpt>
      <trkpt lat="42.2290045" lon="2.2678734">
        <ele>767.22998047</ele>
        <time>2021-03-30T14:39:23Z</time>
      </trkpt>
      <trkpt lat="42.2289833" lon="2.2678119">
        <ele>767.04998779</ele>
        <time>2021-03-30T14:39:24Z</time>
      </trkpt>
      <trkpt lat="42.2289642" lon="2.2677497">
        <ele>766.84997559</ele>
        <time>2021-03-30T14:39:25Z</time>
      </trkpt>
      <trkpt lat="42.2289499" lon="2.2676854">
        <ele>766.60998535</ele>
        <time>2021-03-30T14:39:26Z</time>
      </trkpt>
      <trkpt lat="42.2289348" lon="2.2676242">
        <ele>766.34997559</ele>
        <time>2021-03-30T14:39:27Z</time>
      </trkpt>
      <trkpt lat="42.2289232" lon="2.2675665">
        <ele>766.07000732</ele>
        <time>2021-03-30T14:39:28Z</time>
      </trkpt>
      <trkpt lat="42.2289074" lon="2.2675232">
        <ele>765.78997803</ele>
        <time>2021-03-30T14:39:29Z</time>
      </trkpt>
      <trkpt lat="42.2288992" lon="2.2674758">
        <ele>765.5300293</ele>
        <time>2021-03-30T14:39:30Z</time>
      </trkpt>
      <trkpt lat="42.2288895" lon="2.2674291">
        <ele>765.29998779</ele>
        <time>2021-03-30T14:39:31Z</time>
      </trkpt>
      <trkpt lat="42.2288806" lon="2.2673766">
        <ele>765.09002686</ele>
        <time>2021-03-30T14:39:32Z</time>
      </trkpt>
      <trkpt lat="42.2288656" lon="2.2673181">
        <ele>764.88000488</ele>
        <time>2021-03-30T14:39:33Z</time>
      </trkpt>
      <trkpt lat="42.2288553" lon="2.2672605">
        <ele>764.66998291</ele>
        <time>2021-03-30T14:39:34Z</time>
      </trkpt>
      <trkpt lat="42.2288466" lon="2.2672028">
        <ele>764.46002197</ele>
        <time>2021-03-30T14:39:35Z</time>
      </trkpt>
      <trkpt lat="42.2288312" lon="2.2671561">
        <ele>764.25</ele>
        <time>2021-03-30T14:39:36Z</time>
      </trkpt>
      <trkpt lat="42.2288158" lon="2.2671065">
        <ele>764.03997803</ele>
        <time>2021-03-30T14:39:37Z</time>
      </trkpt>
      <trkpt lat="42.228813" lon="2.2670266">
        <ele>763.82000732</ele>
        <time>2021-03-30T14:39:38Z</time>
      </trkpt>
      <trkpt lat="42.228813" lon="2.2669574">
        <ele>763.60998535</ele>
        <time>2021-03-30T14:39:39Z</time>
      </trkpt>
      <trkpt lat="42.2288072" lon="2.2668895">
        <ele>763.41998291</ele>
        <time>2021-03-30T14:39:40Z</time>
      </trkpt>
      <trkpt lat="42.2288015" lon="2.2668213">
        <ele>763.32000732</ele>
        <time>2021-03-30T14:39:41Z</time>
      </trkpt>
      <trkpt lat="42.2287997" lon="2.2667536">
        <ele>763.30999756</ele>
        <time>2021-03-30T14:39:42Z</time>
      </trkpt>
      <trkpt lat="42.2287924" lon="2.2666833">
        <ele>763.38000488</ele>
        <time>2021-03-30T14:39:43Z</time>
      </trkpt>
      <trkpt lat="42.2287799" lon="2.2666257">
        <ele>763.52001953</ele>
        <time>2021-03-30T14:39:44Z</time>
      </trkpt>
      <trkpt lat="42.2287724" lon="2.2665657">
        <ele>763.65997314</ele>
        <time>2021-03-30T14:39:45Z</time>
      </trkpt>
      <trkpt lat="42.2287668" lon="2.266497">
        <ele>763.79998779</ele>
        <time>2021-03-30T14:39:46Z</time>
      </trkpt>
      <trkpt lat="42.2287643" lon="2.2664269">
        <ele>763.9699707</ele>
        <time>2021-03-30T14:39:47Z</time>
      </trkpt>
      <trkpt lat="42.228756" lon="2.2663628">
        <ele>764.17999268</ele>
        <time>2021-03-30T14:39:48Z</time>
      </trkpt>
      <trkpt lat="42.228752" lon="2.2662919">
        <ele>764.40997314</ele>
        <time>2021-03-30T14:39:49Z</time>
      </trkpt>
      <trkpt lat="42.2287422" lon="2.2662281">
        <ele>764.67999268</ele>
        <time>2021-03-30T14:39:50Z</time>
      </trkpt>
      <trkpt lat="42.2287351" lon="2.2661619">
        <ele>764.96002197</ele>
        <time>2021-03-30T14:39:51Z</time>
      </trkpt>
      <trkpt lat="42.22873" lon="2.2660991">
        <ele>765.25</ele>
        <time>2021-03-30T14:39:52Z</time>
      </trkpt>
      <trkpt lat="42.2287209" lon="2.26604">
        <ele>765.5300293</ele>
        <time>2021-03-30T14:39:53Z</time>
      </trkpt>
      <trkpt lat="42.2287156" lon="2.2659809">
        <ele>765.75</ele>
        <time>2021-03-30T14:39:54Z</time>
      </trkpt>
      <trkpt lat="42.2287012" lon="2.2659043">
        <ele>765.92999268</ele>
        <time>2021-03-30T14:39:55Z</time>
      </trkpt>
      <trkpt lat="42.2286853" lon="2.2658341">
        <ele>766.0300293</ele>
        <time>2021-03-30T14:39:56Z</time>
      </trkpt>
      <trkpt lat="42.2286739" lon="2.2657502">
        <ele>766.04998779</ele>
        <time>2021-03-30T14:39:57Z</time>
      </trkpt>
      <trkpt lat="42.2286681" lon="2.2656701">
        <ele>766.0300293</ele>
        <time>2021-03-30T14:39:58Z</time>
      </trkpt>
      <trkpt lat="42.2286634" lon="2.2655913">
        <ele>765.97998047</ele>
        <time>2021-03-30T14:39:59Z</time>
      </trkpt>
      <trkpt lat="42.2286582" lon="2.2655288">
        <ele>765.90997314</ele>
        <time>2021-03-30T14:40:00Z</time>
      </trkpt>
      <trkpt lat="42.2286459" lon="2.2654655">
        <ele>765.83001709</ele>
        <time>2021-03-30T14:40:01Z</time>
      </trkpt>
      <trkpt lat="42.228638" lon="2.2654013">
        <ele>765.71002197</ele>
        <time>2021-03-30T14:40:02Z</time>
      </trkpt>
      <trkpt lat="42.2286253" lon="2.2653485">
        <ele>765.57000732</ele>
        <time>2021-03-30T14:40:03Z</time>
      </trkpt>
      <trkpt lat="42.2286199" lon="2.2652881">
        <ele>765.40002441</ele>
        <time>2021-03-30T14:40:04Z</time>
      </trkpt>
      <trkpt lat="42.2286157" lon="2.2652147">
        <ele>765.21002197</ele>
        <time>2021-03-30T14:40:05Z</time>
      </trkpt>
      <trkpt lat="42.228606" lon="2.2651478">
        <ele>765.15002441</ele>
        <time>2021-03-30T14:40:06Z</time>
      </trkpt>
      <trkpt lat="42.2286015" lon="2.2650837">
        <ele>765.19000244</ele>
        <time>2021-03-30T14:40:07Z</time>
      </trkpt>
      <trkpt lat="42.2285911" lon="2.2650239">
        <ele>765.22998047</ele>
        <time>2021-03-30T14:40:08Z</time>
      </trkpt>
      <trkpt lat="42.2285878" lon="2.2649585">
        <ele>765.46002197</ele>
        <time>2021-03-30T14:40:09Z</time>
      </trkpt>
      <trkpt lat="42.2285789" lon="2.2648911">
        <ele>765.7199707</ele>
        <time>2021-03-30T14:40:10Z</time>
      </trkpt>
      <trkpt lat="42.2285681" lon="2.2648189">
        <ele>765.91998291</ele>
        <time>2021-03-30T14:40:11Z</time>
      </trkpt>
      <trkpt lat="42.2285578" lon="2.264754">
        <ele>766.04998779</ele>
        <time>2021-03-30T14:40:12Z</time>
      </trkpt>
      <trkpt lat="42.2285439" lon="2.2646974">
        <ele>766.11999512</ele>
        <time>2021-03-30T14:40:13Z</time>
      </trkpt>
      <trkpt lat="42.2285334" lon="2.2646309">
        <ele>766.11999512</ele>
        <time>2021-03-30T14:40:14Z</time>
      </trkpt>
      <trkpt lat="42.2285318" lon="2.2645646">
        <ele>766.08001709</ele>
        <time>2021-03-30T14:40:15Z</time>
      </trkpt>
      <trkpt lat="42.228522" lon="2.2644835">
        <ele>766.0300293</ele>
        <time>2021-03-30T14:40:16Z</time>
      </trkpt>
      <trkpt lat="42.2285158" lon="2.2644107">
        <ele>765.95001221</ele>
        <time>2021-03-30T14:40:17Z</time>
      </trkpt>
      <trkpt lat="42.2285055" lon="2.2643433">
        <ele>765.84997559</ele>
        <time>2021-03-30T14:40:18Z</time>
      </trkpt>
      <trkpt lat="42.2284994" lon="2.2642744">
        <ele>765.7199707</ele>
        <time>2021-03-30T14:40:19Z</time>
      </trkpt>
      <trkpt lat="42.2284946" lon="2.2642106">
        <ele>765.58001709</ele>
        <time>2021-03-30T14:40:20Z</time>
      </trkpt>
      <trkpt lat="42.2284872" lon="2.2641501">
        <ele>765.42999268</ele>
        <time>2021-03-30T14:40:21Z</time>
      </trkpt>
      <trkpt lat="42.2284796" lon="2.2640887">
        <ele>765.27001953</ele>
        <time>2021-03-30T14:40:22Z</time>
      </trkpt>
      <trkpt lat="42.2284664" lon="2.2640227">
        <ele>765.09997559</ele>
        <time>2021-03-30T14:40:23Z</time>
      </trkpt>
      <trkpt lat="42.2284634" lon="2.2639567">
        <ele>764.89001465</ele>
        <time>2021-03-30T14:40:24Z</time>
      </trkpt>
      <trkpt lat="42.2284594" lon="2.2638978">
        <ele>764.69000244</ele>
        <time>2021-03-30T14:40:25Z</time>
      </trkpt>
      <trkpt lat="42.2284565" lon="2.2638363">
        <ele>764.48999023</ele>
        <time>2021-03-30T14:40:26Z</time>
      </trkpt>
      <trkpt lat="42.2284493" lon="2.2637806">
        <ele>764.29998779</ele>
        <time>2021-03-30T14:40:27Z</time>
      </trkpt>
      <trkpt lat="42.2284419" lon="2.2637256">
        <ele>764.10998535</ele>
        <time>2021-03-30T14:40:28Z</time>
      </trkpt>
      <trkpt lat="42.2284391" lon="2.2636741">
        <ele>763.90002441</ele>
        <time>2021-03-30T14:40:29Z</time>
      </trkpt>
      <trkpt lat="42.2284331" lon="2.2636257">
        <ele>763.71002197</ele>
        <time>2021-03-30T14:40:30Z</time>
      </trkpt>
      <trkpt lat="42.2284294" lon="2.263572">
        <ele>763.51000977</ele>
        <time>2021-03-30T14:40:31Z</time>
      </trkpt>
      <trkpt lat="42.2284227" lon="2.2635216">
        <ele>763.32000732</ele>
        <time>2021-03-30T14:40:32Z</time>
      </trkpt>
      <trkpt lat="42.2284132" lon="2.2634672">
        <ele>763.11999512</ele>
        <time>2021-03-30T14:40:33Z</time>
      </trkpt>
      <trkpt lat="42.2284047" lon="2.2634155">
        <ele>762.90002441</ele>
        <time>2021-03-30T14:40:34Z</time>
      </trkpt>
      <trkpt lat="42.2283986" lon="2.2633605">
        <ele>762.66998291</ele>
        <time>2021-03-30T14:40:35Z</time>
      </trkpt>
      <trkpt lat="42.2283906" lon="2.2633119">
        <ele>762.44000244</ele>
        <time>2021-03-30T14:40:36Z</time>
      </trkpt>
      <trkpt lat="42.2283861" lon="2.2632708">
        <ele>762.21002197</ele>
        <time>2021-03-30T14:40:37Z</time>
      </trkpt>
      <trkpt lat="42.2283879" lon="2.2632086">
        <ele>761.97998047</ele>
        <time>2021-03-30T14:40:38Z</time>
      </trkpt>
      <trkpt lat="42.2283729" lon="2.2631531">
        <ele>761.77001953</ele>
        <time>2021-03-30T14:40:39Z</time>
      </trkpt>
      <trkpt lat="42.228358" lon="2.2630904">
        <ele>761.53997803</ele>
        <time>2021-03-30T14:40:40Z</time>
      </trkpt>
      <trkpt lat="42.2283445" lon="2.2630169">
        <ele>761.27001953</ele>
        <time>2021-03-30T14:40:41Z</time>
      </trkpt>
      <trkpt lat="42.228328" lon="2.2629574">
        <ele>760.9699707</ele>
        <time>2021-03-30T14:40:42Z</time>
      </trkpt>
      <trkpt lat="42.2283158" lon="2.2628902">
        <ele>760.64001465</ele>
        <time>2021-03-30T14:40:43Z</time>
      </trkpt>
      <trkpt lat="42.2283092" lon="2.2628282">
        <ele>760.28997803</ele>
        <time>2021-03-30T14:40:44Z</time>
      </trkpt>
      <trkpt lat="42.2283013" lon="2.2627668">
        <ele>759.95001221</ele>
        <time>2021-03-30T14:40:45Z</time>
      </trkpt>
      <trkpt lat="42.2282897" lon="2.2626997">
        <ele>759.60998535</ele>
        <time>2021-03-30T14:40:46Z</time>
      </trkpt>
      <trkpt lat="42.2282807" lon="2.2626248">
        <ele>759.26000977</ele>
        <time>2021-03-30T14:40:47Z</time>
      </trkpt>
      <trkpt lat="42.228271" lon="2.2625469">
        <ele>758.90997314</ele>
        <time>2021-03-30T14:40:48Z</time>
      </trkpt>
      <trkpt lat="42.2282591" lon="2.2624807">
        <ele>758.55999756</ele>
        <time>2021-03-30T14:40:49Z</time>
      </trkpt>
      <trkpt lat="42.2282563" lon="2.2624212">
        <ele>758.20001221</ele>
        <time>2021-03-30T14:40:50Z</time>
      </trkpt>
      <trkpt lat="42.2282525" lon="2.2623486">
        <ele>757.85998535</ele>
        <time>2021-03-30T14:40:51Z</time>
      </trkpt>
      <trkpt lat="42.2282434" lon="2.2622757">
        <ele>757.54998779</ele>
        <time>2021-03-30T14:40:52Z</time>
      </trkpt>
      <trkpt lat="42.2282301" lon="2.2621994">
        <ele>757.22998047</ele>
        <time>2021-03-30T14:40:53Z</time>
      </trkpt>
      <trkpt lat="42.2282201" lon="2.2621261">
        <ele>756.86999512</ele>
        <time>2021-03-30T14:40:54Z</time>
      </trkpt>
      <trkpt lat="42.2282103" lon="2.2620471">
        <ele>756.73999023</ele>
        <time>2021-03-30T14:40:55Z</time>
      </trkpt>
      <trkpt lat="42.2282075" lon="2.2619677">
        <ele>756.16998291</ele>
        <time>2021-03-30T14:40:56Z</time>
      </trkpt>
      <trkpt lat="42.228201" lon="2.2618726">
        <ele>755.53997803</ele>
        <time>2021-03-30T14:40:57Z</time>
      </trkpt>
      <trkpt lat="42.2281925" lon="2.2617725">
        <ele>755.30999756</ele>
        <time>2021-03-30T14:40:58Z</time>
      </trkpt>
      <trkpt lat="42.2281826" lon="2.2616892">
        <ele>755.22998047</ele>
        <time>2021-03-30T14:40:59Z</time>
      </trkpt>
      <trkpt lat="42.2281798" lon="2.2616036">
        <ele>755.14001465</ele>
        <time>2021-03-30T14:41:00Z</time>
      </trkpt>
      <trkpt lat="42.2281803" lon="2.2615158">
        <ele>754.72998047</ele>
        <time>2021-03-30T14:41:01Z</time>
      </trkpt>
      <trkpt lat="42.2281845" lon="2.2614454">
        <ele>754.22998047</ele>
        <time>2021-03-30T14:41:02Z</time>
      </trkpt>
      <trkpt lat="42.2281831" lon="2.2613705">
        <ele>753.66998291</ele>
        <time>2021-03-30T14:41:03Z</time>
      </trkpt>
      <trkpt lat="42.2281808" lon="2.2612956">
        <ele>751.2800293</ele>
        <time>2021-03-30T14:41:04Z</time>
      </trkpt>
      <trkpt lat="42.2281749" lon="2.2612176">
        <ele>749.28997803</ele>
        <time>2021-03-30T14:41:05Z</time>
      </trkpt>
      <trkpt lat="42.2281717" lon="2.2611543">
        <ele>747.76000977</ele>
        <time>2021-03-30T14:41:06Z</time>
      </trkpt>
      <trkpt lat="42.2281657" lon="2.2610881">
        <ele>746.54998779</ele>
        <time>2021-03-30T14:41:07Z</time>
      </trkpt>
      <trkpt lat="42.2281574" lon="2.2610296">
        <ele>745.65997314</ele>
        <time>2021-03-30T14:41:08Z</time>
      </trkpt>
      <trkpt lat="42.2281476" lon="2.2609719">
        <ele>745.09002686</ele>
        <time>2021-03-30T14:41:09Z</time>
      </trkpt>
      <trkpt lat="42.2281402" lon="2.2609224">
        <ele>744.80999756</ele>
        <time>2021-03-30T14:41:10Z</time>
      </trkpt>
      <trkpt lat="42.2281301" lon="2.260863">
        <ele>744.75</ele>
        <time>2021-03-30T14:41:11Z</time>
      </trkpt>
      <trkpt lat="42.2281209" lon="2.2607895">
        <ele>744.75</ele>
        <time>2021-03-30T14:41:12Z</time>
      </trkpt>
      <trkpt lat="42.2281015" lon="2.2607255">
        <ele>744.82000732</ele>
        <time>2021-03-30T14:41:13Z</time>
      </trkpt>
      <trkpt lat="42.2280893" lon="2.2606599">
        <ele>745.15997314</ele>
        <time>2021-03-30T14:41:14Z</time>
      </trkpt>
      <trkpt lat="42.2280775" lon="2.2605961">
        <ele>745.48999023</ele>
        <time>2021-03-30T14:41:15Z</time>
      </trkpt>
      <trkpt lat="42.2280664" lon="2.2605337">
        <ele>745.76000977</ele>
        <time>2021-03-30T14:41:16Z</time>
      </trkpt>
      <trkpt lat="42.228055" lon="2.2604645">
        <ele>746.02001953</ele>
        <time>2021-03-30T14:41:17Z</time>
      </trkpt>
      <trkpt lat="42.2280488" lon="2.260388">
        <ele>746.11999512</ele>
        <time>2021-03-30T14:41:18Z</time>
      </trkpt>
      <trkpt lat="42.2280449" lon="2.2603187">
        <ele>746.22998047</ele>
        <time>2021-03-30T14:41:19Z</time>
      </trkpt>
      <trkpt lat="42.2280437" lon="2.2602521">
        <ele>746.38000488</ele>
        <time>2021-03-30T14:41:20Z</time>
      </trkpt>
      <trkpt lat="42.2280383" lon="2.2601962">
        <ele>747.11999512</ele>
        <time>2021-03-30T14:41:21Z</time>
      </trkpt>
      <trkpt lat="42.2280345" lon="2.2601334">
        <ele>747.77001953</ele>
        <time>2021-03-30T14:41:22Z</time>
      </trkpt>
      <trkpt lat="42.2280307" lon="2.2600697">
        <ele>748.30999756</ele>
        <time>2021-03-30T14:41:23Z</time>
      </trkpt>
      <trkpt lat="42.2280214" lon="2.2599859">
        <ele>748.77001953</ele>
        <time>2021-03-30T14:41:24Z</time>
      </trkpt>
      <trkpt lat="42.2280142" lon="2.2599198">
        <ele>749.19000244</ele>
        <time>2021-03-30T14:41:25Z</time>
      </trkpt>
      <trkpt lat="42.2280023" lon="2.2598432">
        <ele>749.64001465</ele>
        <time>2021-03-30T14:41:26Z</time>
      </trkpt>
      <trkpt lat="42.2279913" lon="2.2597593">
        <ele>750.14001465</ele>
        <time>2021-03-30T14:41:27Z</time>
      </trkpt>
      <trkpt lat="42.2279799" lon="2.2596872">
        <ele>750.67999268</ele>
        <time>2021-03-30T14:41:28Z</time>
      </trkpt>
      <trkpt lat="42.2279664" lon="2.2596119">
        <ele>751.2199707</ele>
        <time>2021-03-30T14:41:29Z</time>
      </trkpt>
      <trkpt lat="42.2279571" lon="2.2595259">
        <ele>751.75</ele>
        <time>2021-03-30T14:41:30Z</time>
      </trkpt>
      <trkpt lat="42.227952" lon="2.2594573">
        <ele>752.28997803</ele>
        <time>2021-03-30T14:41:31Z</time>
      </trkpt>
      <trkpt lat="42.2279507" lon="2.2593791">
        <ele>752.82000732</ele>
        <time>2021-03-30T14:41:32Z</time>
      </trkpt>
      <trkpt lat="42.22794" lon="2.2593019">
        <ele>753</ele>
        <time>2021-03-30T14:41:33Z</time>
      </trkpt>
      <trkpt lat="42.2279195" lon="2.2592265">
        <ele>753.69000244</ele>
        <time>2021-03-30T14:41:34Z</time>
      </trkpt>
      <trkpt lat="42.2279009" lon="2.2591422">
        <ele>754.38000488</ele>
        <time>2021-03-30T14:41:35Z</time>
      </trkpt>
      <trkpt lat="42.2278813" lon="2.2590595">
        <ele>754.98999023</ele>
        <time>2021-03-30T14:41:36Z</time>
      </trkpt>
      <trkpt lat="42.2278634" lon="2.25899">
        <ele>755.40997314</ele>
        <time>2021-03-30T14:41:37Z</time>
      </trkpt>
      <trkpt lat="42.2278438" lon="2.2589096">
        <ele>755.66998291</ele>
        <time>2021-03-30T14:41:38Z</time>
      </trkpt>
      <trkpt lat="42.2278289" lon="2.2588324">
        <ele>755.7800293</ele>
        <time>2021-03-30T14:41:39Z</time>
      </trkpt>
      <trkpt lat="42.2278117" lon="2.2587602">
        <ele>755.85998535</ele>
        <time>2021-03-30T14:41:40Z</time>
      </trkpt>
      <trkpt lat="42.2277954" lon="2.2586863">
        <ele>755.96002197</ele>
        <time>2021-03-30T14:41:41Z</time>
      </trkpt>
      <trkpt lat="42.2277786" lon="2.2586065">
        <ele>756.09997559</ele>
        <time>2021-03-30T14:41:42Z</time>
      </trkpt>
      <trkpt lat="42.2277642" lon="2.258535">
        <ele>756.30999756</ele>
        <time>2021-03-30T14:41:43Z</time>
      </trkpt>
      <trkpt lat="42.2277539" lon="2.258452">
        <ele>756.44000244</ele>
        <time>2021-03-30T14:41:44Z</time>
      </trkpt>
      <trkpt lat="42.2277367" lon="2.2583721">
        <ele>756.52001953</ele>
        <time>2021-03-30T14:41:45Z</time>
      </trkpt>
      <trkpt lat="42.2277194" lon="2.2582956">
        <ele>756.51000977</ele>
        <time>2021-03-30T14:41:46Z</time>
      </trkpt>
      <trkpt lat="42.2277055" lon="2.2582078">
        <ele>756.46002197</ele>
        <time>2021-03-30T14:41:47Z</time>
      </trkpt>
      <trkpt lat="42.2276957" lon="2.2581158">
        <ele>756.39001465</ele>
        <time>2021-03-30T14:41:48Z</time>
      </trkpt>
      <trkpt lat="42.2276851" lon="2.2580451">
        <ele>756.35998535</ele>
        <time>2021-03-30T14:41:49Z</time>
      </trkpt>
      <trkpt lat="42.2276779" lon="2.2579727">
        <ele>756.34002686</ele>
        <time>2021-03-30T14:41:50Z</time>
      </trkpt>
      <trkpt lat="42.227665" lon="2.2578799">
        <ele>756.32000732</ele>
        <time>2021-03-30T14:41:51Z</time>
      </trkpt>
      <trkpt lat="42.2276508" lon="2.257805">
        <ele>756.27001953</ele>
        <time>2021-03-30T14:41:52Z</time>
      </trkpt>
      <trkpt lat="42.227632" lon="2.2577228">
        <ele>756.20001221</ele>
        <time>2021-03-30T14:41:53Z</time>
      </trkpt>
      <trkpt lat="42.2276158" lon="2.2576345">
        <ele>756.09997559</ele>
        <time>2021-03-30T14:41:54Z</time>
      </trkpt>
      <trkpt lat="42.2276007" lon="2.2575609">
        <ele>755.9699707</ele>
        <time>2021-03-30T14:41:55Z</time>
      </trkpt>
      <trkpt lat="42.2275883" lon="2.257488">
        <ele>755.83001709</ele>
        <time>2021-03-30T14:41:56Z</time>
      </trkpt>
      <trkpt lat="42.2275726" lon="2.2574172">
        <ele>755.66998291</ele>
        <time>2021-03-30T14:41:57Z</time>
      </trkpt>
      <trkpt lat="42.2275695" lon="2.2573189">
        <ele>755.51000977</ele>
        <time>2021-03-30T14:41:58Z</time>
      </trkpt>
      <trkpt lat="42.2275629" lon="2.2572216">
        <ele>755.34997559</ele>
        <time>2021-03-30T14:41:59Z</time>
      </trkpt>
      <trkpt lat="42.2275528" lon="2.2571314">
        <ele>755.19000244</ele>
        <time>2021-03-30T14:42:00Z</time>
      </trkpt>
      <trkpt lat="42.2275441" lon="2.2570429">
        <ele>755.0300293</ele>
        <time>2021-03-30T14:42:01Z</time>
      </trkpt>
      <trkpt lat="42.2275305" lon="2.2569525">
        <ele>754.86999512</ele>
        <time>2021-03-30T14:42:02Z</time>
      </trkpt>
      <trkpt lat="42.2275211" lon="2.2568725">
        <ele>754.70001221</ele>
        <time>2021-03-30T14:42:03Z</time>
      </trkpt>
      <trkpt lat="42.2275106" lon="2.2568005">
        <ele>754.5300293</ele>
        <time>2021-03-30T14:42:04Z</time>
      </trkpt>
      <trkpt lat="42.2275033" lon="2.2567133">
        <ele>754.34997559</ele>
        <time>2021-03-30T14:42:05Z</time>
      </trkpt>
      <trkpt lat="42.2274905" lon="2.2566311">
        <ele>754.17999268</ele>
        <time>2021-03-30T14:42:06Z</time>
      </trkpt>
      <trkpt lat="42.2274746" lon="2.2565325">
        <ele>754</ele>
        <time>2021-03-30T14:42:07Z</time>
      </trkpt>
      <trkpt lat="42.2274631" lon="2.2564418">
        <ele>753.80999756</ele>
        <time>2021-03-30T14:42:08Z</time>
      </trkpt>
      <trkpt lat="42.2274532" lon="2.2563584">
        <ele>753.61999512</ele>
        <time>2021-03-30T14:42:09Z</time>
      </trkpt>
      <trkpt lat="42.2274386" lon="2.2562699">
        <ele>753.41998291</ele>
        <time>2021-03-30T14:42:10Z</time>
      </trkpt>
      <trkpt lat="42.2274281" lon="2.2561899">
        <ele>753.2199707</ele>
        <time>2021-03-30T14:42:11Z</time>
      </trkpt>
      <trkpt lat="42.2274165" lon="2.2561104">
        <ele>753.01000977</ele>
        <time>2021-03-30T14:42:12Z</time>
      </trkpt>
      <trkpt lat="42.2274031" lon="2.2560252">
        <ele>752.80999756</ele>
        <time>2021-03-30T14:42:13Z</time>
      </trkpt>
      <trkpt lat="42.2273872" lon="2.2559447">
        <ele>752.65002441</ele>
        <time>2021-03-30T14:42:14Z</time>
      </trkpt>
      <trkpt lat="42.2273702" lon="2.2558706">
        <ele>752.55999756</ele>
        <time>2021-03-30T14:42:15Z</time>
      </trkpt>
      <trkpt lat="42.2273561" lon="2.2558147">
        <ele>752.5300293</ele>
        <time>2021-03-30T14:42:16Z</time>
      </trkpt>
      <trkpt lat="42.2273381" lon="2.2557482">
        <ele>752.53997803</ele>
        <time>2021-03-30T14:42:17Z</time>
      </trkpt>
      <trkpt lat="42.2273222" lon="2.2556958">
        <ele>752.55999756</ele>
        <time>2021-03-30T14:42:18Z</time>
      </trkpt>
      <trkpt lat="42.2273132" lon="2.2556629">
        <ele>752.57000732</ele>
        <time>2021-03-30T14:42:19Z</time>
      </trkpt>
      <trkpt lat="42.2273003" lon="2.2555986">
        <ele>752.58001709</ele>
        <time>2021-03-30T14:42:20Z</time>
      </trkpt>
      <trkpt lat="42.2272893" lon="2.255535">
        <ele>752.59002686</ele>
        <time>2021-03-30T14:42:21Z</time>
      </trkpt>
      <trkpt lat="42.227275" lon="2.25546">
        <ele>752.59997559</ele>
        <time>2021-03-30T14:42:22Z</time>
      </trkpt>
      <trkpt lat="42.2272533" lon="2.255395">
        <ele>752.60998535</ele>
        <time>2021-03-30T14:42:23Z</time>
      </trkpt>
      <trkpt lat="42.2272317" lon="2.255327">
        <ele>752.61999512</ele>
        <time>2021-03-30T14:42:24Z</time>
      </trkpt>
      <trkpt lat="42.2272136" lon="2.25527">
        <ele>752.61999512</ele>
        <time>2021-03-30T14:42:25Z</time>
      </trkpt>
      <trkpt lat="42.2272024" lon="2.2552064">
        <ele>752.60998535</ele>
        <time>2021-03-30T14:42:26Z</time>
      </trkpt>
      <trkpt lat="42.2271946" lon="2.2551475">
        <ele>752.59002686</ele>
        <time>2021-03-30T14:42:27Z</time>
      </trkpt>
      <trkpt lat="42.2271853" lon="2.2550716">
        <ele>752.57000732</ele>
        <time>2021-03-30T14:42:28Z</time>
      </trkpt>
      <trkpt lat="42.2271732" lon="2.2550049">
        <ele>752.55999756</ele>
        <time>2021-03-30T14:42:29Z</time>
      </trkpt>
      <trkpt lat="42.2271641" lon="2.2549578">
        <ele>752.57000732</ele>
        <time>2021-03-30T14:42:30Z</time>
      </trkpt>
      <trkpt lat="42.2271508" lon="2.2548946">
        <ele>752.58001709</ele>
        <time>2021-03-30T14:42:31Z</time>
      </trkpt>
      <trkpt lat="42.2271303" lon="2.2548192">
        <ele>752.59002686</ele>
        <time>2021-03-30T14:42:32Z</time>
      </trkpt>
      <trkpt lat="42.227115" lon="2.2547529">
        <ele>752.59997559</ele>
        <time>2021-03-30T14:42:33Z</time>
      </trkpt>
      <trkpt lat="42.2271064" lon="2.254647">
        <ele>752.60998535</ele>
        <time>2021-03-30T14:42:34Z</time>
      </trkpt>
      <trkpt lat="42.2271003" lon="2.2545762">
        <ele>752.55999756</ele>
        <time>2021-03-30T14:42:35Z</time>
      </trkpt>
      <trkpt lat="42.2270858" lon="2.2544921">
        <ele>752.45001221</ele>
        <time>2021-03-30T14:42:36Z</time>
      </trkpt>
      <trkpt lat="42.2270711" lon="2.2544">
        <ele>752.25</ele>
        <time>2021-03-30T14:42:37Z</time>
      </trkpt>
      <trkpt lat="42.2270617" lon="2.2543312">
        <ele>751.98999023</ele>
        <time>2021-03-30T14:42:38Z</time>
      </trkpt>
      <trkpt lat="42.2270493" lon="2.2542231">
        <ele>751.73999023</ele>
        <time>2021-03-30T14:42:39Z</time>
      </trkpt>
      <trkpt lat="42.2270393" lon="2.2541281">
        <ele>751.47998047</ele>
        <time>2021-03-30T14:42:40Z</time>
      </trkpt>
      <trkpt lat="42.2270277" lon="2.2540343">
        <ele>751.2800293</ele>
        <time>2021-03-30T14:42:41Z</time>
      </trkpt>
      <trkpt lat="42.2270185" lon="2.2539377">
        <ele>751.21002197</ele>
        <time>2021-03-30T14:42:42Z</time>
      </trkpt>
      <trkpt lat="42.2270105" lon="2.2538697">
        <ele>751.2800293</ele>
        <time>2021-03-30T14:42:43Z</time>
      </trkpt>
      <trkpt lat="42.2269927" lon="2.2537765">
        <ele>751.41998291</ele>
        <time>2021-03-30T14:42:44Z</time>
      </trkpt>
      <trkpt lat="42.2269783" lon="2.2536841">
        <ele>751.55999756</ele>
        <time>2021-03-30T14:42:45Z</time>
      </trkpt>
      <trkpt lat="42.2269648" lon="2.253591">
        <ele>751.67999268</ele>
        <time>2021-03-30T14:42:46Z</time>
      </trkpt>
      <trkpt lat="42.2269465" lon="2.2535021">
        <ele>751.78997803</ele>
        <time>2021-03-30T14:42:47Z</time>
      </trkpt>
      <trkpt lat="42.2269366" lon="2.2534436">
        <ele>751.88000488</ele>
        <time>2021-03-30T14:42:48Z</time>
      </trkpt>
      <trkpt lat="42.2269283" lon="2.2533675">
        <ele>751.95001221</ele>
        <time>2021-03-30T14:42:49Z</time>
      </trkpt>
      <trkpt lat="42.2269192" lon="2.2532874">
        <ele>752</ele>
        <time>2021-03-30T14:42:50Z</time>
      </trkpt>
      <trkpt lat="42.2269107" lon="2.2532081">
        <ele>752.02001953</ele>
        <time>2021-03-30T14:42:51Z</time>
      </trkpt>
      <trkpt lat="42.2269067" lon="2.25312">
        <ele>752.0300293</ele>
        <time>2021-03-30T14:42:52Z</time>
      </trkpt>
      <trkpt lat="42.2268852" lon="2.2530696">
        <ele>752.02001953</ele>
        <time>2021-03-30T14:42:53Z</time>
      </trkpt>
      <trkpt lat="42.2268619" lon="2.2530152">
        <ele>751.9699707</ele>
        <time>2021-03-30T14:42:54Z</time>
      </trkpt>
      <trkpt lat="42.2268435" lon="2.2529191">
        <ele>751.88000488</ele>
        <time>2021-03-30T14:42:55Z</time>
      </trkpt>
      <trkpt lat="42.2268281" lon="2.2528621">
        <ele>751.77001953</ele>
        <time>2021-03-30T14:42:56Z</time>
      </trkpt>
      <trkpt lat="42.2268143" lon="2.2527681">
        <ele>751.63000488</ele>
        <time>2021-03-30T14:42:57Z</time>
      </trkpt>
      <trkpt lat="42.2268025" lon="2.2526879">
        <ele>751.4699707</ele>
        <time>2021-03-30T14:42:58Z</time>
      </trkpt>
      <trkpt lat="42.2267884" lon="2.2526295">
        <ele>751.30999756</ele>
        <time>2021-03-30T14:42:59Z</time>
      </trkpt>
      <trkpt lat="42.2267663" lon="2.2525598">
        <ele>751.14001465</ele>
        <time>2021-03-30T14:43:00Z</time>
      </trkpt>
      <trkpt lat="42.2267501" lon="2.2524813">
        <ele>750.94000244</ele>
        <time>2021-03-30T14:43:01Z</time>
      </trkpt>
      <trkpt lat="42.2267321" lon="2.2523986">
        <ele>750.72998047</ele>
        <time>2021-03-30T14:43:02Z</time>
      </trkpt>
      <trkpt lat="42.2267139" lon="2.2523245">
        <ele>750.51000977</ele>
        <time>2021-03-30T14:43:03Z</time>
      </trkpt>
      <trkpt lat="42.2266938" lon="2.2522389">
        <ele>750.27001953</ele>
        <time>2021-03-30T14:43:04Z</time>
      </trkpt>
      <trkpt lat="42.2266784" lon="2.2521606">
        <ele>750.02001953</ele>
        <time>2021-03-30T14:43:05Z</time>
      </trkpt>
      <trkpt lat="42.2266679" lon="2.2520997">
        <ele>749.76000977</ele>
        <time>2021-03-30T14:43:06Z</time>
      </trkpt>
      <trkpt lat="42.226649" lon="2.2520236">
        <ele>749.5</ele>
        <time>2021-03-30T14:43:07Z</time>
      </trkpt>
      <trkpt lat="42.2266279" lon="2.2519421">
        <ele>749.27001953</ele>
        <time>2021-03-30T14:43:08Z</time>
      </trkpt>
      <trkpt lat="42.2266045" lon="2.2518695">
        <ele>749.07000732</ele>
        <time>2021-03-30T14:43:09Z</time>
      </trkpt>
      <trkpt lat="42.226585" lon="2.2518168">
        <ele>748.98999023</ele>
        <time>2021-03-30T14:43:10Z</time>
      </trkpt>
      <trkpt lat="42.2265588" lon="2.2517436">
        <ele>748.98999023</ele>
        <time>2021-03-30T14:43:11Z</time>
      </trkpt>
      <trkpt lat="42.2265325" lon="2.2516768">
        <ele>749.05999756</ele>
        <time>2021-03-30T14:43:12Z</time>
      </trkpt>
      <trkpt lat="42.2265062" lon="2.2516193">
        <ele>749.15997314</ele>
        <time>2021-03-30T14:43:13Z</time>
      </trkpt>
      <trkpt lat="42.2264752" lon="2.2515715">
        <ele>749.21002197</ele>
        <time>2021-03-30T14:43:14Z</time>
      </trkpt>
      <trkpt lat="42.2264463" lon="2.251513">
        <ele>749.20001221</ele>
        <time>2021-03-30T14:43:15Z</time>
      </trkpt>
      <trkpt lat="42.2264162" lon="2.2514509">
        <ele>749.11999512</ele>
        <time>2021-03-30T14:43:16Z</time>
      </trkpt>
      <trkpt lat="42.2263918" lon="2.2513873">
        <ele>748.98999023</ele>
        <time>2021-03-30T14:43:17Z</time>
      </trkpt>
      <trkpt lat="42.226376" lon="2.2513343">
        <ele>748.83001709</ele>
        <time>2021-03-30T14:43:18Z</time>
      </trkpt>
      <trkpt lat="42.2263604" lon="2.25128">
        <ele>748.65002441</ele>
        <time>2021-03-30T14:43:19Z</time>
      </trkpt>
      <trkpt lat="42.2263311" lon="2.2512131">
        <ele>748.47998047</ele>
        <time>2021-03-30T14:43:20Z</time>
      </trkpt>
      <trkpt lat="42.2263022" lon="2.2511451">
        <ele>748.30999756</ele>
        <time>2021-03-30T14:43:21Z</time>
      </trkpt>
      <trkpt lat="42.2262795" lon="2.2510923">
        <ele>748.19000244</ele>
        <time>2021-03-30T14:43:22Z</time>
      </trkpt>
      <trkpt lat="42.2262609" lon="2.2510471">
        <ele>748.09002686</ele>
        <time>2021-03-30T14:43:23Z</time>
      </trkpt>
      <trkpt lat="42.2262412" lon="2.2510231">
        <ele>748.01000977</ele>
        <time>2021-03-30T14:43:24Z</time>
      </trkpt>
      <trkpt lat="42.2262294" lon="2.2509829">
        <ele>747.94000244</ele>
        <time>2021-03-30T14:43:25Z</time>
      </trkpt>
      <trkpt lat="42.226219" lon="2.2509424">
        <ele>747.88000488</ele>
        <time>2021-03-30T14:43:26Z</time>
      </trkpt>
      <trkpt lat="42.2262105" lon="2.2509222">
        <ele>747.82000732</ele>
        <time>2021-03-30T14:43:27Z</time>
      </trkpt>
      <trkpt lat="42.2261925" lon="2.2508704">
        <ele>747.77001953</ele>
        <time>2021-03-30T14:43:28Z</time>
      </trkpt>
      <trkpt lat="42.2261836" lon="2.2508488">
        <ele>747.7199707</ele>
        <time>2021-03-30T14:43:29Z</time>
      </trkpt>
      <trkpt lat="42.2261711" lon="2.2508005">
        <ele>747.67999268</ele>
        <time>2021-03-30T14:43:30Z</time>
      </trkpt>
      <trkpt lat="42.2261594" lon="2.250759">
        <ele>747.65997314</ele>
        <time>2021-03-30T14:43:31Z</time>
      </trkpt>
      <trkpt lat="42.2261472" lon="2.2507267">
        <ele>747.65002441</ele>
        <time>2021-03-30T14:43:32Z</time>
      </trkpt>
      <trkpt lat="42.2261391" lon="2.2507034">
        <ele>747.65002441</ele>
        <time>2021-03-30T14:43:33Z</time>
      </trkpt>
      <trkpt lat="42.2261349" lon="2.2506926">
        <ele>747.64001465</ele>
        <time>2021-03-30T14:43:34Z</time>
      </trkpt>
      <trkpt lat="42.2261305" lon="2.2506769">
        <ele>747.64001465</ele>
        <time>2021-03-30T14:43:35Z</time>
      </trkpt>
      <trkpt lat="42.2261261" lon="2.2506603">
        <ele>747.63000488</ele>
        <time>2021-03-30T14:43:36Z</time>
      </trkpt>
      <trkpt lat="42.2261207" lon="2.2506438">
        <ele>747.61999512</ele>
        <time>2021-03-30T14:43:37Z</time>
      </trkpt>
      <trkpt lat="42.2261145" lon="2.2506232">
        <ele>747.59997559</ele>
        <time>2021-03-30T14:43:38Z</time>
      </trkpt>
      <trkpt lat="42.2261068" lon="2.2505969">
        <ele>747.58001709</ele>
        <time>2021-03-30T14:43:39Z</time>
      </trkpt>
      <trkpt lat="42.2260971" lon="2.2505695">
        <ele>747.54998779</ele>
        <time>2021-03-30T14:43:40Z</time>
      </trkpt>
      <trkpt lat="42.2260863" lon="2.2505376">
        <ele>747.5</ele>
        <time>2021-03-30T14:43:41Z</time>
      </trkpt>
      <trkpt lat="42.226073" lon="2.250508">
        <ele>747.44000244</ele>
        <time>2021-03-30T14:43:42Z</time>
      </trkpt>
      <trkpt lat="42.2260589" lon="2.2504737">
        <ele>747.36999512</ele>
        <time>2021-03-30T14:43:43Z</time>
      </trkpt>
      <trkpt lat="42.226043" lon="2.2504374">
        <ele>747.28997803</ele>
        <time>2021-03-30T14:43:44Z</time>
      </trkpt>
      <trkpt lat="42.2260267" lon="2.2503954">
        <ele>747.2199707</ele>
        <time>2021-03-30T14:43:45Z</time>
      </trkpt>
      <trkpt lat="42.2260047" lon="2.2503474">
        <ele>747.15997314</ele>
        <time>2021-03-30T14:43:46Z</time>
      </trkpt>
      <trkpt lat="42.2259818" lon="2.2502958">
        <ele>747.11999512</ele>
        <time>2021-03-30T14:43:47Z</time>
      </trkpt>
      <trkpt lat="42.2259565" lon="2.2502397">
        <ele>747.11999512</ele>
        <time>2021-03-30T14:43:48Z</time>
      </trkpt>
      <trkpt lat="42.2259311" lon="2.2501737">
        <ele>747.17999268</ele>
        <time>2021-03-30T14:43:49Z</time>
      </trkpt>
      <trkpt lat="42.2259041" lon="2.2501052">
        <ele>747.27001953</ele>
        <time>2021-03-30T14:43:50Z</time>
      </trkpt>
      <trkpt lat="42.2258762" lon="2.2500302">
        <ele>747.35998535</ele>
        <time>2021-03-30T14:43:51Z</time>
      </trkpt>
      <trkpt lat="42.2258457" lon="2.2499589">
        <ele>747.44000244</ele>
        <time>2021-03-30T14:43:52Z</time>
      </trkpt>
      <trkpt lat="42.2258138" lon="2.2498869">
        <ele>747.4699707</ele>
        <time>2021-03-30T14:43:53Z</time>
      </trkpt>
      <trkpt lat="42.2257794" lon="2.2498126">
        <ele>747.41998291</ele>
        <time>2021-03-30T14:43:54Z</time>
      </trkpt>
      <trkpt lat="42.2257151" lon="2.2496564">
        <ele>747.14001465</ele>
        <time>2021-03-30T14:43:56Z</time>
      </trkpt>
      <trkpt lat="42.2256894" lon="2.2495835">
        <ele>747.04998779</ele>
        <time>2021-03-30T14:43:57Z</time>
      </trkpt>
      <trkpt lat="42.2256646" lon="2.2495088">
        <ele>747.04998779</ele>
        <time>2021-03-30T14:43:58Z</time>
      </trkpt>
      <trkpt lat="42.2256434" lon="2.2494331">
        <ele>746.98999023</ele>
        <time>2021-03-30T14:43:59Z</time>
      </trkpt>
      <trkpt lat="42.2256486" lon="2.2493417">
        <ele>746.71002197</ele>
        <time>2021-03-30T14:44:00Z</time>
      </trkpt>
      <trkpt lat="42.2256455" lon="2.2492651">
        <ele>748.89001465</ele>
        <time>2021-03-30T14:44:01Z</time>
      </trkpt>
      <trkpt lat="42.2256279" lon="2.2492224">
        <ele>749.08001709</ele>
        <time>2021-03-30T14:44:02Z</time>
      </trkpt>
      <trkpt lat="42.2255992" lon="2.249159">
        <ele>748.98999023</ele>
        <time>2021-03-30T14:44:03Z</time>
      </trkpt>
      <trkpt lat="42.2255769" lon="2.2491171">
        <ele>748.78997803</ele>
        <time>2021-03-30T14:44:04Z</time>
      </trkpt>
      <trkpt lat="42.2255475" lon="2.249078">
        <ele>748.58001709</ele>
        <time>2021-03-30T14:44:05Z</time>
      </trkpt>
      <trkpt lat="42.2255196" lon="2.2490226">
        <ele>748.32000732</ele>
        <time>2021-03-30T14:44:06Z</time>
      </trkpt>
      <trkpt lat="42.2255022" lon="2.2489804">
        <ele>748</ele>
        <time>2021-03-30T14:44:07Z</time>
      </trkpt>
      <trkpt lat="42.2254819" lon="2.2489431">
        <ele>747.65002441</ele>
        <time>2021-03-30T14:44:08Z</time>
      </trkpt>
      <trkpt lat="42.2254493" lon="2.2488797">
        <ele>747.26000977</ele>
        <time>2021-03-30T14:44:09Z</time>
      </trkpt>
      <trkpt lat="42.2254235" lon="2.248823">
        <ele>747.10998535</ele>
        <time>2021-03-30T14:44:10Z</time>
      </trkpt>
      <trkpt lat="42.2254059" lon="2.2487822">
        <ele>746.94000244</ele>
        <time>2021-03-30T14:44:11Z</time>
      </trkpt>
      <trkpt lat="42.2253841" lon="2.2487433">
        <ele>746.09997559</ele>
        <time>2021-03-30T14:44:12Z</time>
      </trkpt>
      <trkpt lat="42.2253668" lon="2.2487066">
        <ele>745.23999023</ele>
        <time>2021-03-30T14:44:13Z</time>
      </trkpt>
      <trkpt lat="42.2253476" lon="2.2486647">
        <ele>744.42999268</ele>
        <time>2021-03-30T14:44:14Z</time>
      </trkpt>
      <trkpt lat="42.2253166" lon="2.2486004">
        <ele>743.66998291</ele>
        <time>2021-03-30T14:44:15Z</time>
      </trkpt>
      <trkpt lat="42.2252879" lon="2.2485442">
        <ele>742.94000244</ele>
        <time>2021-03-30T14:44:16Z</time>
      </trkpt>
      <trkpt lat="42.2252587" lon="2.2484948">
        <ele>742.35998535</ele>
        <time>2021-03-30T14:44:17Z</time>
      </trkpt>
      <trkpt lat="42.2252343" lon="2.2484573">
        <ele>741.92999268</ele>
        <time>2021-03-30T14:44:18Z</time>
      </trkpt>
      <trkpt lat="42.2252081" lon="2.2484031">
        <ele>741.60998535</ele>
        <time>2021-03-30T14:44:19Z</time>
      </trkpt>
      <trkpt lat="42.2251763" lon="2.2483343">
        <ele>741.38000488</ele>
        <time>2021-03-30T14:44:20Z</time>
      </trkpt>
      <trkpt lat="42.2251671" lon="2.2482515">
        <ele>741.22998047</ele>
        <time>2021-03-30T14:44:21Z</time>
      </trkpt>
      <trkpt lat="42.2251391" lon="2.2481639">
        <ele>741.14001465</ele>
        <time>2021-03-30T14:44:22Z</time>
      </trkpt>
      <trkpt lat="42.2251107" lon="2.2480933">
        <ele>741.11999512</ele>
        <time>2021-03-30T14:44:23Z</time>
      </trkpt>
      <trkpt lat="42.2250873" lon="2.2480212">
        <ele>741.15997314</ele>
        <time>2021-03-30T14:44:24Z</time>
      </trkpt>
      <trkpt lat="42.2250661" lon="2.2479557">
        <ele>741.27001953</ele>
        <time>2021-03-30T14:44:25Z</time>
      </trkpt>
      <trkpt lat="42.2250312" lon="2.2478872">
        <ele>741.40002441</ele>
        <time>2021-03-30T14:44:26Z</time>
      </trkpt>
      <trkpt lat="42.224997" lon="2.2478233">
        <ele>741.51000977</ele>
        <time>2021-03-30T14:44:27Z</time>
      </trkpt>
      <trkpt lat="42.2249666" lon="2.2477676">
        <ele>741.55999756</ele>
        <time>2021-03-30T14:44:28Z</time>
      </trkpt>
      <trkpt lat="42.2249384" lon="2.2477139">
        <ele>741.54998779</ele>
        <time>2021-03-30T14:44:29Z</time>
      </trkpt>
      <trkpt lat="42.2249073" lon="2.2476504">
        <ele>741.51000977</ele>
        <time>2021-03-30T14:44:30Z</time>
      </trkpt>
      <trkpt lat="42.2248742" lon="2.2475892">
        <ele>741.46002197</ele>
        <time>2021-03-30T14:44:31Z</time>
      </trkpt>
      <trkpt lat="42.2248513" lon="2.2475329">
        <ele>741.42999268</ele>
        <time>2021-03-30T14:44:32Z</time>
      </trkpt>
      <trkpt lat="42.2248216" lon="2.2474693">
        <ele>741.46002197</ele>
        <time>2021-03-30T14:44:33Z</time>
      </trkpt>
      <trkpt lat="42.2247962" lon="2.247402">
        <ele>741.5300293</ele>
        <time>2021-03-30T14:44:34Z</time>
      </trkpt>
      <trkpt lat="42.2247733" lon="2.247339">
        <ele>741.63000488</ele>
        <time>2021-03-30T14:44:35Z</time>
      </trkpt>
      <trkpt lat="42.2247444" lon="2.2472709">
        <ele>741.73999023</ele>
        <time>2021-03-30T14:44:36Z</time>
      </trkpt>
      <trkpt lat="42.2247235" lon="2.2472171">
        <ele>741.80999756</ele>
        <time>2021-03-30T14:44:37Z</time>
      </trkpt>
      <trkpt lat="42.2246919" lon="2.2471584">
        <ele>741.84002686</ele>
        <time>2021-03-30T14:44:38Z</time>
      </trkpt>
      <trkpt lat="42.2246632" lon="2.2470957">
        <ele>741.79998779</ele>
        <time>2021-03-30T14:44:39Z</time>
      </trkpt>
      <trkpt lat="42.2246358" lon="2.2470315">
        <ele>741.71002197</ele>
        <time>2021-03-30T14:44:40Z</time>
      </trkpt>
      <trkpt lat="42.2246067" lon="2.246968">
        <ele>741.57000732</ele>
        <time>2021-03-30T14:44:41Z</time>
      </trkpt>
      <trkpt lat="42.2245779" lon="2.2469045">
        <ele>741.39001465</ele>
        <time>2021-03-30T14:44:42Z</time>
      </trkpt>
      <trkpt lat="42.2245532" lon="2.246843">
        <ele>741.20001221</ele>
        <time>2021-03-30T14:44:43Z</time>
      </trkpt>
      <trkpt lat="42.2245267" lon="2.246782">
        <ele>741.05999756</ele>
        <time>2021-03-30T14:44:44Z</time>
      </trkpt>
      <trkpt lat="42.2245007" lon="2.2467178">
        <ele>740.98999023</ele>
        <time>2021-03-30T14:44:45Z</time>
      </trkpt>
      <trkpt lat="42.224474" lon="2.2466616">
        <ele>741.01000977</ele>
        <time>2021-03-30T14:44:46Z</time>
      </trkpt>
      <trkpt lat="42.2244413" lon="2.2465859">
        <ele>741.10998535</ele>
        <time>2021-03-30T14:44:47Z</time>
      </trkpt>
      <trkpt lat="42.224408" lon="2.2465258">
        <ele>741.20001221</ele>
        <time>2021-03-30T14:44:48Z</time>
      </trkpt>
      <trkpt lat="42.2243838" lon="2.2464609">
        <ele>741.2199707</ele>
        <time>2021-03-30T14:44:49Z</time>
      </trkpt>
      <trkpt lat="42.2243604" lon="2.2463894">
        <ele>741.19000244</ele>
        <time>2021-03-30T14:44:50Z</time>
      </trkpt>
      <trkpt lat="42.2243365" lon="2.2463253">
        <ele>741.10998535</ele>
        <time>2021-03-30T14:44:51Z</time>
      </trkpt>
      <trkpt lat="42.224313" lon="2.2462623">
        <ele>740.98999023</ele>
        <time>2021-03-30T14:44:52Z</time>
      </trkpt>
      <trkpt lat="42.2242856" lon="2.2461977">
        <ele>740.83001709</ele>
        <time>2021-03-30T14:44:53Z</time>
      </trkpt>
      <trkpt lat="42.224262" lon="2.2461293">
        <ele>740.64001465</ele>
        <time>2021-03-30T14:44:54Z</time>
      </trkpt>
      <trkpt lat="42.2242238" lon="2.2460449">
        <ele>740.41998291</ele>
        <time>2021-03-30T14:44:55Z</time>
      </trkpt>
      <trkpt lat="42.2241989" lon="2.2459856">
        <ele>740.14001465</ele>
        <time>2021-03-30T14:44:56Z</time>
      </trkpt>
      <trkpt lat="42.2241691" lon="2.2459175">
        <ele>739.84002686</ele>
        <time>2021-03-30T14:44:57Z</time>
      </trkpt>
      <trkpt lat="42.2241457" lon="2.2458625">
        <ele>739.51000977</ele>
        <time>2021-03-30T14:44:58Z</time>
      </trkpt>
      <trkpt lat="42.2241227" lon="2.2457992">
        <ele>739.21002197</ele>
        <time>2021-03-30T14:44:59Z</time>
      </trkpt>
      <trkpt lat="42.2240988" lon="2.2457332">
        <ele>739</ele>
        <time>2021-03-30T14:45:00Z</time>
      </trkpt>
      <trkpt lat="42.2240752" lon="2.2456656">
        <ele>738.9699707</ele>
        <time>2021-03-30T14:45:01Z</time>
      </trkpt>
      <trkpt lat="42.2240487" lon="2.2456045">
        <ele>738.98999023</ele>
        <time>2021-03-30T14:45:02Z</time>
      </trkpt>
      <trkpt lat="42.2240208" lon="2.2455443">
        <ele>739.04998779</ele>
        <time>2021-03-30T14:45:03Z</time>
      </trkpt>
      <trkpt lat="42.2239942" lon="2.2454915">
        <ele>739.40002441</ele>
        <time>2021-03-30T14:45:04Z</time>
      </trkpt>
      <trkpt lat="42.2239664" lon="2.2454217">
        <ele>739.7199707</ele>
        <time>2021-03-30T14:45:05Z</time>
      </trkpt>
      <trkpt lat="42.2239448" lon="2.2453602">
        <ele>740</ele>
        <time>2021-03-30T14:45:06Z</time>
      </trkpt>
      <trkpt lat="42.2239213" lon="2.245307">
        <ele>740.23999023</ele>
        <time>2021-03-30T14:45:07Z</time>
      </trkpt>
      <trkpt lat="42.2238976" lon="2.2452689">
        <ele>740.45001221</ele>
        <time>2021-03-30T14:45:08Z</time>
      </trkpt>
      <trkpt lat="42.2238754" lon="2.2452183">
        <ele>740.63000488</ele>
        <time>2021-03-30T14:45:09Z</time>
      </trkpt>
      <trkpt lat="42.223847" lon="2.2451786">
        <ele>740.76000977</ele>
        <time>2021-03-30T14:45:10Z</time>
      </trkpt>
      <trkpt lat="42.2238237" lon="2.2451212">
        <ele>740.82000732</ele>
        <time>2021-03-30T14:45:11Z</time>
      </trkpt>
      <trkpt lat="42.2238014" lon="2.2450653">
        <ele>740.82000732</ele>
        <time>2021-03-30T14:45:12Z</time>
      </trkpt>
      <trkpt lat="42.2237821" lon="2.2450008">
        <ele>740.77001953</ele>
        <time>2021-03-30T14:45:13Z</time>
      </trkpt>
      <trkpt lat="42.2237633" lon="2.2449385">
        <ele>740.69000244</ele>
        <time>2021-03-30T14:45:14Z</time>
      </trkpt>
      <trkpt lat="42.2237457" lon="2.244876">
        <ele>740.57000732</ele>
        <time>2021-03-30T14:45:15Z</time>
      </trkpt>
      <trkpt lat="42.2237204" lon="2.2447999">
        <ele>740.44000244</ele>
        <time>2021-03-30T14:45:16Z</time>
      </trkpt>
      <trkpt lat="42.2236989" lon="2.2447342">
        <ele>740.26000977</ele>
        <time>2021-03-30T14:45:17Z</time>
      </trkpt>
      <trkpt lat="42.2236802" lon="2.2446663">
        <ele>740.05999756</ele>
        <time>2021-03-30T14:45:18Z</time>
      </trkpt>
      <trkpt lat="42.2236587" lon="2.2445959">
        <ele>739.84002686</ele>
        <time>2021-03-30T14:45:19Z</time>
      </trkpt>
      <trkpt lat="42.2236327" lon="2.2445283">
        <ele>739.60998535</ele>
        <time>2021-03-30T14:45:20Z</time>
      </trkpt>
      <trkpt lat="42.2236053" lon="2.2444672">
        <ele>739.34002686</ele>
        <time>2021-03-30T14:45:21Z</time>
      </trkpt>
      <trkpt lat="42.2235694" lon="2.2444184">
        <ele>739.05999756</ele>
        <time>2021-03-30T14:45:22Z</time>
      </trkpt>
      <trkpt lat="42.2235411" lon="2.2443661">
        <ele>738.84997559</ele>
        <time>2021-03-30T14:45:23Z</time>
      </trkpt>
      <trkpt lat="42.223506" lon="2.2442984">
        <ele>738.72998047</ele>
        <time>2021-03-30T14:45:24Z</time>
      </trkpt>
      <trkpt lat="42.2234692" lon="2.2442325">
        <ele>738.69000244</ele>
        <time>2021-03-30T14:45:25Z</time>
      </trkpt>
      <trkpt lat="42.2234459" lon="2.2441683">
        <ele>738.67999268</ele>
        <time>2021-03-30T14:45:26Z</time>
      </trkpt>
      <trkpt lat="42.2234285" lon="2.2441031">
        <ele>738.70001221</ele>
        <time>2021-03-30T14:45:27Z</time>
      </trkpt>
      <trkpt lat="42.2234103" lon="2.244033">
        <ele>738.67999268</ele>
        <time>2021-03-30T14:45:28Z</time>
      </trkpt>
      <trkpt lat="42.2233882" lon="2.2439635">
        <ele>738.63000488</ele>
        <time>2021-03-30T14:45:29Z</time>
      </trkpt>
      <trkpt lat="42.2233686" lon="2.2438948">
        <ele>738.53997803</ele>
        <time>2021-03-30T14:45:30Z</time>
      </trkpt>
      <trkpt lat="42.2233415" lon="2.2438288">
        <ele>738.41998291</ele>
        <time>2021-03-30T14:45:31Z</time>
      </trkpt>
      <trkpt lat="42.223316" lon="2.2437622">
        <ele>738.25</ele>
        <time>2021-03-30T14:45:32Z</time>
      </trkpt>
      <trkpt lat="42.2232891" lon="2.2436988">
        <ele>738.09002686</ele>
        <time>2021-03-30T14:45:33Z</time>
      </trkpt>
      <trkpt lat="42.2232619" lon="2.2436345">
        <ele>737.94000244</ele>
        <time>2021-03-30T14:45:34Z</time>
      </trkpt>
      <trkpt lat="42.2232305" lon="2.2435579">
        <ele>737.79998779</ele>
        <time>2021-03-30T14:45:35Z</time>
      </trkpt>
      <trkpt lat="42.2231978" lon="2.24349">
        <ele>737.73999023</ele>
        <time>2021-03-30T14:45:36Z</time>
      </trkpt>
      <trkpt lat="42.2231652" lon="2.2434305">
        <ele>737.75</ele>
        <time>2021-03-30T14:45:37Z</time>
      </trkpt>
      <trkpt lat="42.2231319" lon="2.2433669">
        <ele>737.7800293</ele>
        <time>2021-03-30T14:45:38Z</time>
      </trkpt>
      <trkpt lat="42.2231055" lon="2.2432996">
        <ele>737.79998779</ele>
        <time>2021-03-30T14:45:39Z</time>
      </trkpt>
      <trkpt lat="42.2230863" lon="2.2432445">
        <ele>737.78997803</ele>
        <time>2021-03-30T14:45:40Z</time>
      </trkpt>
      <trkpt lat="42.2230651" lon="2.2431758">
        <ele>737.73999023</ele>
        <time>2021-03-30T14:45:41Z</time>
      </trkpt>
      <trkpt lat="42.223047" lon="2.2431143">
        <ele>737.65002441</ele>
        <time>2021-03-30T14:45:42Z</time>
      </trkpt>
      <trkpt lat="42.22303" lon="2.2430588">
        <ele>737.54998779</ele>
        <time>2021-03-30T14:45:43Z</time>
      </trkpt>
      <trkpt lat="42.2230082" lon="2.2430051">
        <ele>737.46002197</ele>
        <time>2021-03-30T14:45:44Z</time>
      </trkpt>
      <trkpt lat="42.2229769" lon="2.2429452">
        <ele>737.36999512</ele>
        <time>2021-03-30T14:45:45Z</time>
      </trkpt>
      <trkpt lat="42.2229518" lon="2.2428918">
        <ele>737.29998779</ele>
        <time>2021-03-30T14:45:46Z</time>
      </trkpt>
      <trkpt lat="42.2229179" lon="2.2428395">
        <ele>737.22998047</ele>
        <time>2021-03-30T14:45:47Z</time>
      </trkpt>
      <trkpt lat="42.2228894" lon="2.2427857">
        <ele>737.16998291</ele>
        <time>2021-03-30T14:45:48Z</time>
      </trkpt>
      <trkpt lat="42.222856" lon="2.2427398">
        <ele>737.11999512</ele>
        <time>2021-03-30T14:45:49Z</time>
      </trkpt>
      <trkpt lat="42.222832" lon="2.242701">
        <ele>737.08001709</ele>
        <time>2021-03-30T14:45:50Z</time>
      </trkpt>
      <trkpt lat="42.2227982" lon="2.2426321">
        <ele>737.0300293</ele>
        <time>2021-03-30T14:45:51Z</time>
      </trkpt>
      <trkpt lat="42.2227756" lon="2.2425693">
        <ele>737</ele>
        <time>2021-03-30T14:45:52Z</time>
      </trkpt>
      <trkpt lat="42.2227486" lon="2.2425127">
        <ele>736.96002197</ele>
        <time>2021-03-30T14:45:53Z</time>
      </trkpt>
      <trkpt lat="42.2227272" lon="2.2424446">
        <ele>736.92999268</ele>
        <time>2021-03-30T14:45:54Z</time>
      </trkpt>
      <trkpt lat="42.2227079" lon="2.2423841">
        <ele>736.90997314</ele>
        <time>2021-03-30T14:45:55Z</time>
      </trkpt>
      <trkpt lat="42.2226871" lon="2.242323">
        <ele>736.88000488</ele>
        <time>2021-03-30T14:45:56Z</time>
      </trkpt>
      <trkpt lat="42.2226624" lon="2.24227">
        <ele>736.85998535</ele>
        <time>2021-03-30T14:45:57Z</time>
      </trkpt>
      <trkpt lat="42.2226396" lon="2.242209">
        <ele>736.84002686</ele>
        <time>2021-03-30T14:45:58Z</time>
      </trkpt>
      <trkpt lat="42.2226134" lon="2.242147">
        <ele>736.83001709</ele>
        <time>2021-03-30T14:45:59Z</time>
      </trkpt>
      <trkpt lat="42.2225913" lon="2.2420851">
        <ele>736.80999756</ele>
        <time>2021-03-30T14:46:00Z</time>
      </trkpt>
      <trkpt lat="42.2225689" lon="2.2420201">
        <ele>736.79998779</ele>
        <time>2021-03-30T14:46:01Z</time>
      </trkpt>
      <trkpt lat="42.2225423" lon="2.2419582">
        <ele>736.78997803</ele>
        <time>2021-03-30T14:46:02Z</time>
      </trkpt>
      <trkpt lat="42.2225127" lon="2.2418892">
        <ele>736.7800293</ele>
        <time>2021-03-30T14:46:03Z</time>
      </trkpt>
      <trkpt lat="42.2224814" lon="2.2418386">
        <ele>736.77001953</ele>
        <time>2021-03-30T14:46:04Z</time>
      </trkpt>
      <trkpt lat="42.2224552" lon="2.2417828">
        <ele>736.7199707</ele>
        <time>2021-03-30T14:46:05Z</time>
      </trkpt>
      <trkpt lat="42.2224307" lon="2.2417328">
        <ele>736.63000488</ele>
        <time>2021-03-30T14:46:06Z</time>
      </trkpt>
      <trkpt lat="42.222406" lon="2.2416832">
        <ele>736.5</ele>
        <time>2021-03-30T14:46:07Z</time>
      </trkpt>
      <trkpt lat="42.2223747" lon="2.2416377">
        <ele>736.33001709</ele>
        <time>2021-03-30T14:46:08Z</time>
      </trkpt>
      <trkpt lat="42.2223457" lon="2.24159">
        <ele>736.11999512</ele>
        <time>2021-03-30T14:46:09Z</time>
      </trkpt>
      <trkpt lat="42.2223144" lon="2.2415479">
        <ele>735.86999512</ele>
        <time>2021-03-30T14:46:10Z</time>
      </trkpt>
      <trkpt lat="42.2222872" lon="2.2414981">
        <ele>735.58001709</ele>
        <time>2021-03-30T14:46:11Z</time>
      </trkpt>
      <trkpt lat="42.2222621" lon="2.2414503">
        <ele>735.27001953</ele>
        <time>2021-03-30T14:46:12Z</time>
      </trkpt>
      <trkpt lat="42.2222433" lon="2.2414083">
        <ele>734.92999268</ele>
        <time>2021-03-30T14:46:13Z</time>
      </trkpt>
      <trkpt lat="42.2222199" lon="2.2413663">
        <ele>734.59997559</ele>
        <time>2021-03-30T14:46:14Z</time>
      </trkpt>
      <trkpt lat="42.2221934" lon="2.2413273">
        <ele>734.25</ele>
        <time>2021-03-30T14:46:15Z</time>
      </trkpt>
      <trkpt lat="42.2221651" lon="2.2412924">
        <ele>733.94000244</ele>
        <time>2021-03-30T14:46:16Z</time>
      </trkpt>
      <trkpt lat="42.2221419" lon="2.2412437">
        <ele>733.65997314</ele>
        <time>2021-03-30T14:46:17Z</time>
      </trkpt>
      <trkpt lat="42.2221243" lon="2.2411978">
        <ele>733.40997314</ele>
        <time>2021-03-30T14:46:18Z</time>
      </trkpt>
      <trkpt lat="42.2221081" lon="2.2411513">
        <ele>733.19000244</ele>
        <time>2021-03-30T14:46:19Z</time>
      </trkpt>
      <trkpt lat="42.2220851" lon="2.2411122">
        <ele>732.98999023</ele>
        <time>2021-03-30T14:46:20Z</time>
      </trkpt>
      <trkpt lat="42.222062" lon="2.241071">
        <ele>732.82000732</ele>
        <time>2021-03-30T14:46:21Z</time>
      </trkpt>
      <trkpt lat="42.2220306" lon="2.2410334">
        <ele>732.69000244</ele>
        <time>2021-03-30T14:46:23Z</time>
      </trkpt>
      <trkpt lat="42.2220014" lon="2.2409978">
        <ele>732.59997559</ele>
        <time>2021-03-30T14:46:24Z</time>
      </trkpt>
      <trkpt lat="42.221973" lon="2.2409563">
        <ele>732.51000977</ele>
        <time>2021-03-30T14:46:25Z</time>
      </trkpt>
      <trkpt lat="42.2219409" lon="2.2409136">
        <ele>732.41998291</ele>
        <time>2021-03-30T14:46:26Z</time>
      </trkpt>
      <trkpt lat="42.2219189" lon="2.240878">
        <ele>732.30999756</ele>
        <time>2021-03-30T14:46:27Z</time>
      </trkpt>
      <trkpt lat="42.2218894" lon="2.2408316">
        <ele>732.21002197</ele>
        <time>2021-03-30T14:46:28Z</time>
      </trkpt>
      <trkpt lat="42.2218588" lon="2.2407896">
        <ele>732.11999512</ele>
        <time>2021-03-30T14:46:29Z</time>
      </trkpt>
      <trkpt lat="42.2218208" lon="2.2407507">
        <ele>732.0300293</ele>
        <time>2021-03-30T14:46:30Z</time>
      </trkpt>
      <trkpt lat="42.2217813" lon="2.2407086">
        <ele>731.96002197</ele>
        <time>2021-03-30T14:46:31Z</time>
      </trkpt>
      <trkpt lat="42.221738" lon="2.2406659">
        <ele>731.90002441</ele>
        <time>2021-03-30T14:46:32Z</time>
      </trkpt>
      <trkpt lat="42.2216943" lon="2.2406263">
        <ele>731.84002686</ele>
        <time>2021-03-30T14:46:33Z</time>
      </trkpt>
      <trkpt lat="42.2216543" lon="2.2405959">
        <ele>731.78997803</ele>
        <time>2021-03-30T14:46:34Z</time>
      </trkpt>
      <trkpt lat="42.2216141" lon="2.2405723">
        <ele>731.73999023</ele>
        <time>2021-03-30T14:46:35Z</time>
      </trkpt>
      <trkpt lat="42.2215671" lon="2.2405424">
        <ele>731.69000244</ele>
        <time>2021-03-30T14:46:36Z</time>
      </trkpt>
      <trkpt lat="42.2215226" lon="2.2405129">
        <ele>731.65002441</ele>
        <time>2021-03-30T14:46:37Z</time>
      </trkpt>
      <trkpt lat="42.2214809" lon="2.2404842">
        <ele>731.61999512</ele>
        <time>2021-03-30T14:46:38Z</time>
      </trkpt>
      <trkpt lat="42.2214399" lon="2.2404565">
        <ele>731.59002686</ele>
        <time>2021-03-30T14:46:39Z</time>
      </trkpt>
      <trkpt lat="42.2214024" lon="2.240422">
        <ele>731.57000732</ele>
        <time>2021-03-30T14:46:40Z</time>
      </trkpt>
      <trkpt lat="42.2213568" lon="2.2403872">
        <ele>731.53997803</ele>
        <time>2021-03-30T14:46:41Z</time>
      </trkpt>
      <trkpt lat="42.2213119" lon="2.2403578">
        <ele>731.46002197</ele>
        <time>2021-03-30T14:46:42Z</time>
      </trkpt>
      <trkpt lat="42.2212766" lon="2.2403269">
        <ele>731.29998779</ele>
        <time>2021-03-30T14:46:43Z</time>
      </trkpt>
      <trkpt lat="42.2212391" lon="2.240284">
        <ele>731.09002686</ele>
        <time>2021-03-30T14:46:44Z</time>
      </trkpt>
      <trkpt lat="42.2212025" lon="2.2402506">
        <ele>730.80999756</ele>
        <time>2021-03-30T14:46:45Z</time>
      </trkpt>
      <trkpt lat="42.2211609" lon="2.2402141">
        <ele>730.47998047</ele>
        <time>2021-03-30T14:46:46Z</time>
      </trkpt>
      <trkpt lat="42.2211196" lon="2.2401816">
        <ele>730.09002686</ele>
        <time>2021-03-30T14:46:47Z</time>
      </trkpt>
      <trkpt lat="42.2210774" lon="2.240146">
        <ele>729.66998291</ele>
        <time>2021-03-30T14:46:48Z</time>
      </trkpt>
      <trkpt lat="42.2210358" lon="2.2401234">
        <ele>729.2199707</ele>
        <time>2021-03-30T14:46:49Z</time>
      </trkpt>
      <trkpt lat="42.220989" lon="2.2400962">
        <ele>728.72998047</ele>
        <time>2021-03-30T14:46:50Z</time>
      </trkpt>
      <trkpt lat="42.2209437" lon="2.2400633">
        <ele>728.20001221</ele>
        <time>2021-03-30T14:46:51Z</time>
      </trkpt>
      <trkpt lat="42.2209076" lon="2.2400337">
        <ele>727.63000488</ele>
        <time>2021-03-30T14:46:52Z</time>
      </trkpt>
      <trkpt lat="42.2208725" lon="2.2400029">
        <ele>727.03997803</ele>
        <time>2021-03-30T14:46:53Z</time>
      </trkpt>
      <trkpt lat="42.2208419" lon="2.2399799">
        <ele>726.45001221</ele>
        <time>2021-03-30T14:46:54Z</time>
      </trkpt>
      <trkpt lat="42.2208153" lon="2.2399547">
        <ele>725.82000732</ele>
        <time>2021-03-30T14:46:55Z</time>
      </trkpt>
      <trkpt lat="42.220788" lon="2.2399219">
        <ele>725.19000244</ele>
        <time>2021-03-30T14:46:56Z</time>
      </trkpt>
      <trkpt lat="42.2207636" lon="2.2398914">
        <ele>724.59997559</ele>
        <time>2021-03-30T14:46:57Z</time>
      </trkpt>
      <trkpt lat="42.2207324" lon="2.2398491">
        <ele>724.07000732</ele>
        <time>2021-03-30T14:46:58Z</time>
      </trkpt>
      <trkpt lat="42.2207026" lon="2.239819">
        <ele>723.61999512</ele>
        <time>2021-03-30T14:46:59Z</time>
      </trkpt>
      <trkpt lat="42.2206861" lon="2.2397941">
        <ele>723.27001953</ele>
        <time>2021-03-30T14:47:00Z</time>
      </trkpt>
      <trkpt lat="42.2206658" lon="2.2397717">
        <ele>723.02001953</ele>
        <time>2021-03-30T14:47:01Z</time>
      </trkpt>
      <trkpt lat="42.2206386" lon="2.2397502">
        <ele>722.85998535</ele>
        <time>2021-03-30T14:47:02Z</time>
      </trkpt>
      <trkpt lat="42.2206094" lon="2.2397415">
        <ele>722.82000732</ele>
        <time>2021-03-30T14:47:03Z</time>
      </trkpt>
      <trkpt lat="42.2205765" lon="2.2397369">
        <ele>722.90002441</ele>
        <time>2021-03-30T14:47:04Z</time>
      </trkpt>
      <trkpt lat="42.2205404" lon="2.2397263">
        <ele>723.10998535</ele>
        <time>2021-03-30T14:47:05Z</time>
      </trkpt>
      <trkpt lat="42.2205117" lon="2.2397095">
        <ele>723.42999268</ele>
        <time>2021-03-30T14:47:06Z</time>
      </trkpt>
      <trkpt lat="42.2204965" lon="2.2396918">
        <ele>723.79998779</ele>
        <time>2021-03-30T14:47:07Z</time>
      </trkpt>
      <trkpt lat="42.2204835" lon="2.2396748">
        <ele>724.15002441</ele>
        <time>2021-03-30T14:47:08Z</time>
      </trkpt>
      <trkpt lat="42.2204669" lon="2.2396563">
        <ele>724.5</ele>
        <time>2021-03-30T14:47:09Z</time>
      </trkpt>
      <trkpt lat="42.2204419" lon="2.2396332">
        <ele>724.84002686</ele>
        <time>2021-03-30T14:47:10Z</time>
      </trkpt>
      <trkpt lat="42.2204086" lon="2.2396001">
        <ele>725.20001221</ele>
        <time>2021-03-30T14:47:11Z</time>
      </trkpt>
      <trkpt lat="42.2203714" lon="2.2395638">
        <ele>725.59002686</ele>
        <time>2021-03-30T14:47:12Z</time>
      </trkpt>
      <trkpt lat="42.2203458" lon="2.2395309">
        <ele>726.01000977</ele>
        <time>2021-03-30T14:47:13Z</time>
      </trkpt>
      <trkpt lat="42.2202933" lon="2.239512">
        <ele>726.44000244</ele>
        <time>2021-03-30T14:47:14Z</time>
      </trkpt>
      <trkpt lat="42.220252" lon="2.2394877">
        <ele>726.91998291</ele>
        <time>2021-03-30T14:47:15Z</time>
      </trkpt>
      <trkpt lat="42.2202188" lon="2.2394587">
        <ele>727.39001465</ele>
        <time>2021-03-30T14:47:16Z</time>
      </trkpt>
      <trkpt lat="42.2201823" lon="2.2394334">
        <ele>727.82000732</ele>
        <time>2021-03-30T14:47:17Z</time>
      </trkpt>
      <trkpt lat="42.2201479" lon="2.239409">
        <ele>728.20001221</ele>
        <time>2021-03-30T14:47:18Z</time>
      </trkpt>
      <trkpt lat="42.2201122" lon="2.2393777">
        <ele>728.53997803</ele>
        <time>2021-03-30T14:47:19Z</time>
      </trkpt>
      <trkpt lat="42.2200757" lon="2.2393468">
        <ele>728.84002686</ele>
        <time>2021-03-30T14:47:20Z</time>
      </trkpt>
      <trkpt lat="42.2200396" lon="2.2393125">
        <ele>729.11999512</ele>
        <time>2021-03-30T14:47:21Z</time>
      </trkpt>
      <trkpt lat="42.2200059" lon="2.2392739">
        <ele>729.35998535</ele>
        <time>2021-03-30T14:47:22Z</time>
      </trkpt>
      <trkpt lat="42.2199683" lon="2.2392422">
        <ele>729.57000732</ele>
        <time>2021-03-30T14:47:23Z</time>
      </trkpt>
      <trkpt lat="42.2199302" lon="2.2392106">
        <ele>729.76000977</ele>
        <time>2021-03-30T14:47:24Z</time>
      </trkpt>
      <trkpt lat="42.2198918" lon="2.2391866">
        <ele>729.94000244</ele>
        <time>2021-03-30T14:47:25Z</time>
      </trkpt>
      <trkpt lat="42.2198473" lon="2.2391657">
        <ele>730.09002686</ele>
        <time>2021-03-30T14:47:26Z</time>
      </trkpt>
      <trkpt lat="42.21981" lon="2.2391529">
        <ele>730.22998047</ele>
        <time>2021-03-30T14:47:27Z</time>
      </trkpt>
      <trkpt lat="42.2197776" lon="2.2391398">
        <ele>730.34997559</ele>
        <time>2021-03-30T14:47:28Z</time>
      </trkpt>
      <trkpt lat="42.2197414" lon="2.2391193">
        <ele>730.46002197</ele>
        <time>2021-03-30T14:47:29Z</time>
      </trkpt>
      <trkpt lat="42.2197006" lon="2.2390977">
        <ele>730.54998779</ele>
        <time>2021-03-30T14:47:30Z</time>
      </trkpt>
      <trkpt lat="42.2196612" lon="2.2390702">
        <ele>730.64001465</ele>
        <time>2021-03-30T14:47:31Z</time>
      </trkpt>
      <trkpt lat="42.2196393" lon="2.2390378">
        <ele>730.7199707</ele>
        <time>2021-03-30T14:47:32Z</time>
      </trkpt>
      <trkpt lat="42.2196117" lon="2.2390071">
        <ele>730.78997803</ele>
        <time>2021-03-30T14:47:33Z</time>
      </trkpt>
      <trkpt lat="42.2195855" lon="2.2389791">
        <ele>730.84997559</ele>
        <time>2021-03-30T14:47:34Z</time>
      </trkpt>
      <trkpt lat="42.2195295" lon="2.2389142">
        <ele>730.95001221</ele>
        <time>2021-03-30T14:47:35Z</time>
      </trkpt>
      <trkpt lat="42.2195017" lon="2.2388899">
        <ele>730.98999023</ele>
        <time>2021-03-30T14:47:36Z</time>
      </trkpt>
      <trkpt lat="42.2194738" lon="2.2388733">
        <ele>731.0300293</ele>
        <time>2021-03-30T14:47:37Z</time>
      </trkpt>
      <trkpt lat="42.219439" lon="2.2388402">
        <ele>731.07000732</ele>
        <time>2021-03-30T14:47:38Z</time>
      </trkpt>
      <trkpt lat="42.219403" lon="2.2388081">
        <ele>731.09997559</ele>
        <time>2021-03-30T14:47:39Z</time>
      </trkpt>
      <trkpt lat="42.2193753" lon="2.2387782">
        <ele>731.13000488</ele>
        <time>2021-03-30T14:47:40Z</time>
      </trkpt>
      <trkpt lat="42.2193393" lon="2.2387469">
        <ele>731.15002441</ele>
        <time>2021-03-30T14:47:41Z</time>
      </trkpt>
      <trkpt lat="42.219301" lon="2.2387269">
        <ele>731.16998291</ele>
        <time>2021-03-30T14:47:42Z</time>
      </trkpt>
      <trkpt lat="42.2192615" lon="2.2386768">
        <ele>731.19000244</ele>
        <time>2021-03-30T14:47:43Z</time>
      </trkpt>
      <trkpt lat="42.2192207" lon="2.2386419">
        <ele>731.21002197</ele>
        <time>2021-03-30T14:47:44Z</time>
      </trkpt>
      <trkpt lat="42.2191805" lon="2.2386088">
        <ele>731.22998047</ele>
        <time>2021-03-30T14:47:45Z</time>
      </trkpt>
      <trkpt lat="42.2191407" lon="2.2385754">
        <ele>731.23999023</ele>
        <time>2021-03-30T14:47:46Z</time>
      </trkpt>
      <trkpt lat="42.2190999" lon="2.2385417">
        <ele>731.25</ele>
        <time>2021-03-30T14:47:47Z</time>
      </trkpt>
      <trkpt lat="42.2190626" lon="2.2385085">
        <ele>731.26000977</ele>
        <time>2021-03-30T14:47:48Z</time>
      </trkpt>
      <trkpt lat="42.2190399" lon="2.2384698">
        <ele>731.27001953</ele>
        <time>2021-03-30T14:47:49Z</time>
      </trkpt>
      <trkpt lat="42.219011" lon="2.2384293">
        <ele>731.2800293</ele>
        <time>2021-03-30T14:47:50Z</time>
      </trkpt>
      <trkpt lat="42.2189782" lon="2.2383753">
        <ele>731.28997803</ele>
        <time>2021-03-30T14:47:51Z</time>
      </trkpt>
      <trkpt lat="42.2189374" lon="2.2383218">
        <ele>731.29998779</ele>
        <time>2021-03-30T14:47:52Z</time>
      </trkpt>
      <trkpt lat="42.2188951" lon="2.2382702">
        <ele>731.29998779</ele>
        <time>2021-03-30T14:47:53Z</time>
      </trkpt>
      <trkpt lat="42.2188533" lon="2.2382294">
        <ele>731.30999756</ele>
        <time>2021-03-30T14:47:54Z</time>
      </trkpt>
      <trkpt lat="42.2188153" lon="2.2381891">
        <ele>731.32000732</ele>
        <time>2021-03-30T14:47:55Z</time>
      </trkpt>
      <trkpt lat="42.2187882" lon="2.2381506">
        <ele>731.32000732</ele>
        <time>2021-03-30T14:47:56Z</time>
      </trkpt>
      <trkpt lat="42.2187556" lon="2.2380957">
        <ele>731.32000732</ele>
        <time>2021-03-30T14:47:57Z</time>
      </trkpt>
      <trkpt lat="42.218724" lon="2.2380485">
        <ele>731.33001709</ele>
        <time>2021-03-30T14:47:58Z</time>
      </trkpt>
      <trkpt lat="42.2186942" lon="2.238002">
        <ele>731.32000732</ele>
        <time>2021-03-30T14:47:59Z</time>
      </trkpt>
      <trkpt lat="42.2186599" lon="2.2379531">
        <ele>731.26000977</ele>
        <time>2021-03-30T14:48:00Z</time>
      </trkpt>
      <trkpt lat="42.2186202" lon="2.2379125">
        <ele>731.09997559</ele>
        <time>2021-03-30T14:48:01Z</time>
      </trkpt>
      <trkpt lat="42.2185876" lon="2.2378602">
        <ele>731.03997803</ele>
        <time>2021-03-30T14:48:02Z</time>
      </trkpt>
      <trkpt lat="42.2185531" lon="2.2378176">
        <ele>730.95001221</ele>
        <time>2021-03-30T14:48:03Z</time>
      </trkpt>
      <trkpt lat="42.2185237" lon="2.2377608">
        <ele>730.46002197</ele>
        <time>2021-03-30T14:48:04Z</time>
      </trkpt>
      <trkpt lat="42.2184957" lon="2.2377071">
        <ele>729.94000244</ele>
        <time>2021-03-30T14:48:05Z</time>
      </trkpt>
      <trkpt lat="42.2184677" lon="2.2376614">
        <ele>729.47998047</ele>
        <time>2021-03-30T14:48:06Z</time>
      </trkpt>
      <trkpt lat="42.2184384" lon="2.2376078">
        <ele>729.08001709</ele>
        <time>2021-03-30T14:48:07Z</time>
      </trkpt>
      <trkpt lat="42.2184115" lon="2.2375486">
        <ele>728.72998047</ele>
        <time>2021-03-30T14:48:08Z</time>
      </trkpt>
      <trkpt lat="42.2183842" lon="2.2375005">
        <ele>728.42999268</ele>
        <time>2021-03-30T14:48:09Z</time>
      </trkpt>
      <trkpt lat="42.2183493" lon="2.2374564">
        <ele>728.15997314</ele>
        <time>2021-03-30T14:48:10Z</time>
      </trkpt>
      <trkpt lat="42.2183249" lon="2.2374177">
        <ele>727.91998291</ele>
        <time>2021-03-30T14:48:11Z</time>
      </trkpt>
      <trkpt lat="42.2182986" lon="2.2373735">
        <ele>727.7199707</ele>
        <time>2021-03-30T14:48:12Z</time>
      </trkpt>
      <trkpt lat="42.2182738" lon="2.2373233">
        <ele>727.5300293</ele>
        <time>2021-03-30T14:48:13Z</time>
      </trkpt>
      <trkpt lat="42.2182472" lon="2.2372648">
        <ele>727.36999512</ele>
        <time>2021-03-30T14:48:14Z</time>
      </trkpt>
      <trkpt lat="42.2182169" lon="2.2372095">
        <ele>727.2199707</ele>
        <time>2021-03-30T14:48:15Z</time>
      </trkpt>
      <trkpt lat="42.2181879" lon="2.2371572">
        <ele>727.09002686</ele>
        <time>2021-03-30T14:48:16Z</time>
      </trkpt>
      <trkpt lat="42.2181614" lon="2.2371048">
        <ele>726.9699707</ele>
        <time>2021-03-30T14:48:17Z</time>
      </trkpt>
      <trkpt lat="42.2181367" lon="2.2370567">
        <ele>726.86999512</ele>
        <time>2021-03-30T14:48:18Z</time>
      </trkpt>
      <trkpt lat="42.2181166" lon="2.2370093">
        <ele>726.7800293</ele>
        <time>2021-03-30T14:48:19Z</time>
      </trkpt>
      <trkpt lat="42.218092" lon="2.2369511">
        <ele>726.70001221</ele>
        <time>2021-03-30T14:48:20Z</time>
      </trkpt>
      <trkpt lat="42.2180687" lon="2.2369028">
        <ele>726.63000488</ele>
        <time>2021-03-30T14:48:21Z</time>
      </trkpt>
      <trkpt lat="42.2180371" lon="2.2368362">
        <ele>726.47998047</ele>
        <time>2021-03-30T14:48:22Z</time>
      </trkpt>
      <trkpt lat="42.2180033" lon="2.236763">
        <ele>726.23999023</ele>
        <time>2021-03-30T14:48:23Z</time>
      </trkpt>
      <trkpt lat="42.2179727" lon="2.2367027">
        <ele>725.91998291</ele>
        <time>2021-03-30T14:48:24Z</time>
      </trkpt>
      <trkpt lat="42.2179417" lon="2.236648">
        <ele>725.59002686</ele>
        <time>2021-03-30T14:48:25Z</time>
      </trkpt>
      <trkpt lat="42.2179171" lon="2.236599">
        <ele>725.28997803</ele>
        <time>2021-03-30T14:48:26Z</time>
      </trkpt>
      <trkpt lat="42.2178976" lon="2.2365275">
        <ele>725.08001709</ele>
        <time>2021-03-30T14:48:27Z</time>
      </trkpt>
      <trkpt lat="42.2178736" lon="2.2364648">
        <ele>724.92999268</ele>
        <time>2021-03-30T14:48:28Z</time>
      </trkpt>
      <trkpt lat="42.2178517" lon="2.23641">
        <ele>724.84002686</ele>
        <time>2021-03-30T14:48:29Z</time>
      </trkpt>
      <trkpt lat="42.2178242" lon="2.2363392">
        <ele>724.80999756</ele>
        <time>2021-03-30T14:48:30Z</time>
      </trkpt>
      <trkpt lat="42.2177966" lon="2.2362759">
        <ele>724.84002686</ele>
        <time>2021-03-30T14:48:31Z</time>
      </trkpt>
      <trkpt lat="42.2177687" lon="2.2362166">
        <ele>724.91998291</ele>
        <time>2021-03-30T14:48:32Z</time>
      </trkpt>
      <trkpt lat="42.2177427" lon="2.2361502">
        <ele>725.03997803</ele>
        <time>2021-03-30T14:48:33Z</time>
      </trkpt>
      <trkpt lat="42.2177176" lon="2.2360801">
        <ele>725.14001465</ele>
        <time>2021-03-30T14:48:34Z</time>
      </trkpt>
      <trkpt lat="42.2176925" lon="2.2360164">
        <ele>725.23999023</ele>
        <time>2021-03-30T14:48:35Z</time>
      </trkpt>
      <trkpt lat="42.2176652" lon="2.2359517">
        <ele>725.32000732</ele>
        <time>2021-03-30T14:48:36Z</time>
      </trkpt>
      <trkpt lat="42.2176338" lon="2.2358715">
        <ele>725.40002441</ele>
        <time>2021-03-30T14:48:37Z</time>
      </trkpt>
      <trkpt lat="42.2176093" lon="2.2358072">
        <ele>725.4699707</ele>
        <time>2021-03-30T14:48:38Z</time>
      </trkpt>
      <trkpt lat="42.2175798" lon="2.2357522">
        <ele>725.51000977</ele>
        <time>2021-03-30T14:48:39Z</time>
      </trkpt>
      <trkpt lat="42.2175514" lon="2.2356921">
        <ele>725.52001953</ele>
        <time>2021-03-30T14:48:40Z</time>
      </trkpt>
      <trkpt lat="42.2175227" lon="2.2356298">
        <ele>725.52001953</ele>
        <time>2021-03-30T14:48:41Z</time>
      </trkpt>
      <trkpt lat="42.2174922" lon="2.2355584">
        <ele>725.53997803</ele>
        <time>2021-03-30T14:48:42Z</time>
      </trkpt>
      <trkpt lat="42.2174669" lon="2.2354976">
        <ele>725.59002686</ele>
        <time>2021-03-30T14:48:43Z</time>
      </trkpt>
      <trkpt lat="42.2174403" lon="2.2354282">
        <ele>725.53997803</ele>
        <time>2021-03-30T14:48:44Z</time>
      </trkpt>
      <trkpt lat="42.2174121" lon="2.23536">
        <ele>725.40002441</ele>
        <time>2021-03-30T14:48:45Z</time>
      </trkpt>
      <trkpt lat="42.2173792" lon="2.2352942">
        <ele>725.20001221</ele>
        <time>2021-03-30T14:48:46Z</time>
      </trkpt>
      <trkpt lat="42.2173498" lon="2.2352372">
        <ele>724.97998047</ele>
        <time>2021-03-30T14:48:47Z</time>
      </trkpt>
      <trkpt lat="42.2173173" lon="2.2351641">
        <ele>724.83001709</ele>
        <time>2021-03-30T14:48:48Z</time>
      </trkpt>
      <trkpt lat="42.2172897" lon="2.2351001">
        <ele>724.75</ele>
        <time>2021-03-30T14:48:49Z</time>
      </trkpt>
      <trkpt lat="42.217273" lon="2.2350374">
        <ele>724.73999023</ele>
        <time>2021-03-30T14:48:50Z</time>
      </trkpt>
      <trkpt lat="42.2172458" lon="2.2349611">
        <ele>724.77001953</ele>
        <time>2021-03-30T14:48:51Z</time>
      </trkpt>
      <trkpt lat="42.217217" lon="2.2348926">
        <ele>724.88000488</ele>
        <time>2021-03-30T14:48:52Z</time>
      </trkpt>
      <trkpt lat="42.2171867" lon="2.2348271">
        <ele>724.09002686</ele>
        <time>2021-03-30T14:48:53Z</time>
      </trkpt>
      <trkpt lat="42.2171531" lon="2.2347653">
        <ele>723.22998047</ele>
        <time>2021-03-30T14:48:54Z</time>
      </trkpt>
      <trkpt lat="42.2171159" lon="2.2347043">
        <ele>722.91998291</ele>
        <time>2021-03-30T14:48:55Z</time>
      </trkpt>
      <trkpt lat="42.2170583" lon="2.2345719">
        <ele>722.92999268</ele>
        <time>2021-03-30T14:48:57Z</time>
      </trkpt>
      <trkpt lat="42.2170322" lon="2.2345095">
        <ele>723.10998535</ele>
        <time>2021-03-30T14:48:58Z</time>
      </trkpt>
      <trkpt lat="42.217008" lon="2.2344592">
        <ele>723.33001709</ele>
        <time>2021-03-30T14:48:59Z</time>
      </trkpt>
      <trkpt lat="42.2169801" lon="2.2344016">
        <ele>723.57000732</ele>
        <time>2021-03-30T14:49:00Z</time>
      </trkpt>
      <trkpt lat="42.216954" lon="2.2343507">
        <ele>723.7199707</ele>
        <time>2021-03-30T14:49:01Z</time>
      </trkpt>
      <trkpt lat="42.2169268" lon="2.2342996">
        <ele>723.77001953</ele>
        <time>2021-03-30T14:49:02Z</time>
      </trkpt>
      <trkpt lat="42.2169039" lon="2.2342454">
        <ele>723.73999023</ele>
        <time>2021-03-30T14:49:03Z</time>
      </trkpt>
      <trkpt lat="42.2168746" lon="2.2341733">
        <ele>723.61999512</ele>
        <time>2021-03-30T14:49:04Z</time>
      </trkpt>
      <trkpt lat="42.2168559" lon="2.2341092">
        <ele>723.45001221</ele>
        <time>2021-03-30T14:49:05Z</time>
      </trkpt>
      <trkpt lat="42.2168386" lon="2.2340609">
        <ele>723.32000732</ele>
        <time>2021-03-30T14:49:06Z</time>
      </trkpt>
      <trkpt lat="42.2168056" lon="2.2339856">
        <ele>723.23999023</ele>
        <time>2021-03-30T14:49:07Z</time>
      </trkpt>
      <trkpt lat="42.2167804" lon="2.2339186">
        <ele>723.25</ele>
        <time>2021-03-30T14:49:08Z</time>
      </trkpt>
      <trkpt lat="42.2167576" lon="2.2338641">
        <ele>723.30999756</ele>
        <time>2021-03-30T14:49:09Z</time>
      </trkpt>
      <trkpt lat="42.2167209" lon="2.2338103">
        <ele>723.40002441</ele>
        <time>2021-03-30T14:49:10Z</time>
      </trkpt>
      <trkpt lat="42.2166857" lon="2.2337546">
        <ele>723.5300293</ele>
        <time>2021-03-30T14:49:11Z</time>
      </trkpt>
      <trkpt lat="42.216645" lon="2.2336937">
        <ele>723.73999023</ele>
        <time>2021-03-30T14:49:12Z</time>
      </trkpt>
      <trkpt lat="42.2166082" lon="2.2336349">
        <ele>723.83001709</ele>
        <time>2021-03-30T14:49:13Z</time>
      </trkpt>
      <trkpt lat="42.2165783" lon="2.2335724">
        <ele>723.94000244</ele>
        <time>2021-03-30T14:49:14Z</time>
      </trkpt>
      <trkpt lat="42.2165484" lon="2.2335041">
        <ele>724.48999023</ele>
        <time>2021-03-30T14:49:15Z</time>
      </trkpt>
      <trkpt lat="42.216529" lon="2.2334327">
        <ele>724.9699707</ele>
        <time>2021-03-30T14:49:16Z</time>
      </trkpt>
      <trkpt lat="42.2165046" lon="2.2333493">
        <ele>725.33001709</ele>
        <time>2021-03-30T14:49:17Z</time>
      </trkpt>
      <trkpt lat="42.2164822" lon="2.2332641">
        <ele>725.55999756</ele>
        <time>2021-03-30T14:49:18Z</time>
      </trkpt>
      <trkpt lat="42.2164537" lon="2.2331919">
        <ele>725.58001709</ele>
        <time>2021-03-30T14:49:19Z</time>
      </trkpt>
      <trkpt lat="42.2164222" lon="2.2331316">
        <ele>725.53997803</ele>
        <time>2021-03-30T14:49:20Z</time>
      </trkpt>
      <trkpt lat="42.2163949" lon="2.2330722">
        <ele>725.4699707</ele>
        <time>2021-03-30T14:49:21Z</time>
      </trkpt>
      <trkpt lat="42.2163596" lon="2.2330039">
        <ele>725.34997559</ele>
        <time>2021-03-30T14:49:22Z</time>
      </trkpt>
      <trkpt lat="42.2163308" lon="2.232939">
        <ele>724.76000977</ele>
        <time>2021-03-30T14:49:23Z</time>
      </trkpt>
      <trkpt lat="42.2162999" lon="2.2328738">
        <ele>724.2199707</ele>
        <time>2021-03-30T14:49:24Z</time>
      </trkpt>
      <trkpt lat="42.2162711" lon="2.2328148">
        <ele>723.75</ele>
        <time>2021-03-30T14:49:25Z</time>
      </trkpt>
      <trkpt lat="42.2162428" lon="2.2327579">
        <ele>723.35998535</ele>
        <time>2021-03-30T14:49:26Z</time>
      </trkpt>
      <trkpt lat="42.216213" lon="2.2327046">
        <ele>723.04998779</ele>
        <time>2021-03-30T14:49:27Z</time>
      </trkpt>
      <trkpt lat="42.2161853" lon="2.2326505">
        <ele>722.83001709</ele>
        <time>2021-03-30T14:49:28Z</time>
      </trkpt>
      <trkpt lat="42.2161495" lon="2.2325977">
        <ele>722.65997314</ele>
        <time>2021-03-30T14:49:29Z</time>
      </trkpt>
      <trkpt lat="42.2161166" lon="2.2325466">
        <ele>722.5300293</ele>
        <time>2021-03-30T14:49:30Z</time>
      </trkpt>
      <trkpt lat="42.2160947" lon="2.2324925">
        <ele>722.40997314</ele>
        <time>2021-03-30T14:49:31Z</time>
      </trkpt>
      <trkpt lat="42.2160721" lon="2.2324399">
        <ele>722.2800293</ele>
        <time>2021-03-30T14:49:32Z</time>
      </trkpt>
      <trkpt lat="42.2160509" lon="2.2323805">
        <ele>722.15997314</ele>
        <time>2021-03-30T14:49:33Z</time>
      </trkpt>
      <trkpt lat="42.2160232" lon="2.2323126">
        <ele>722.04998779</ele>
        <time>2021-03-30T14:49:34Z</time>
      </trkpt>
      <trkpt lat="42.2159918" lon="2.232244">
        <ele>722</ele>
        <time>2021-03-30T14:49:35Z</time>
      </trkpt>
      <trkpt lat="42.2159678" lon="2.2321802">
        <ele>722.03997803</ele>
        <time>2021-03-30T14:49:36Z</time>
      </trkpt>
      <trkpt lat="42.2159409" lon="2.2321178">
        <ele>722.15997314</ele>
        <time>2021-03-30T14:49:37Z</time>
      </trkpt>
      <trkpt lat="42.2159127" lon="2.2320524">
        <ele>722.34002686</ele>
        <time>2021-03-30T14:49:38Z</time>
      </trkpt>
      <trkpt lat="42.2158866" lon="2.2319869">
        <ele>722.57000732</ele>
        <time>2021-03-30T14:49:39Z</time>
      </trkpt>
      <trkpt lat="42.2158573" lon="2.2319316">
        <ele>722.78997803</ele>
        <time>2021-03-30T14:49:40Z</time>
      </trkpt>
      <trkpt lat="42.2158312" lon="2.2318797">
        <ele>723.01000977</ele>
        <time>2021-03-30T14:49:41Z</time>
      </trkpt>
      <trkpt lat="42.2158081" lon="2.23182">
        <ele>723.21002197</ele>
        <time>2021-03-30T14:49:42Z</time>
      </trkpt>
      <trkpt lat="42.2157858" lon="2.2317584">
        <ele>723.35998535</ele>
        <time>2021-03-30T14:49:43Z</time>
      </trkpt>
      <trkpt lat="42.2157627" lon="2.2316894">
        <ele>723.4699707</ele>
        <time>2021-03-30T14:49:44Z</time>
      </trkpt>
      <trkpt lat="42.2157358" lon="2.2316346">
        <ele>723.51000977</ele>
        <time>2021-03-30T14:49:45Z</time>
      </trkpt>
      <trkpt lat="42.2157091" lon="2.2315661">
        <ele>723.54998779</ele>
        <time>2021-03-30T14:49:46Z</time>
      </trkpt>
      <trkpt lat="42.2156838" lon="2.2315012">
        <ele>723.54998779</ele>
        <time>2021-03-30T14:49:47Z</time>
      </trkpt>
      <trkpt lat="42.2156576" lon="2.2314403">
        <ele>723.52001953</ele>
        <time>2021-03-30T14:49:48Z</time>
      </trkpt>
      <trkpt lat="42.2156345" lon="2.2313723">
        <ele>723.47998047</ele>
        <time>2021-03-30T14:49:49Z</time>
      </trkpt>
      <trkpt lat="42.2156064" lon="2.2313096">
        <ele>723.39001465</ele>
        <time>2021-03-30T14:49:50Z</time>
      </trkpt>
      <trkpt lat="42.2155797" lon="2.2312507">
        <ele>723.30999756</ele>
        <time>2021-03-30T14:49:51Z</time>
      </trkpt>
      <trkpt lat="42.2155645" lon="2.2311879">
        <ele>723.21002197</ele>
        <time>2021-03-30T14:49:52Z</time>
      </trkpt>
      <trkpt lat="42.2155353" lon="2.2311278">
        <ele>723.07000732</ele>
        <time>2021-03-30T14:49:53Z</time>
      </trkpt>
      <trkpt lat="42.2155107" lon="2.2310717">
        <ele>722.9699707</ele>
        <time>2021-03-30T14:49:54Z</time>
      </trkpt>
      <trkpt lat="42.2154973" lon="2.2310134">
        <ele>722.91998291</ele>
        <time>2021-03-30T14:49:55Z</time>
      </trkpt>
      <trkpt lat="42.2154765" lon="2.230949">
        <ele>722.84002686</ele>
        <time>2021-03-30T14:49:56Z</time>
      </trkpt>
      <trkpt lat="42.2154581" lon="2.230881">
        <ele>722.76000977</ele>
        <time>2021-03-30T14:49:57Z</time>
      </trkpt>
      <trkpt lat="42.2154481" lon="2.230813">
        <ele>722.66998291</ele>
        <time>2021-03-30T14:49:58Z</time>
      </trkpt>
      <trkpt lat="42.2154353" lon="2.2307451">
        <ele>722.55999756</ele>
        <time>2021-03-30T14:49:59Z</time>
      </trkpt>
      <trkpt lat="42.2154135" lon="2.2306747">
        <ele>722.52001953</ele>
        <time>2021-03-30T14:50:00Z</time>
      </trkpt>
      <trkpt lat="42.215388" lon="2.2306083">
        <ele>722.53997803</ele>
        <time>2021-03-30T14:50:01Z</time>
      </trkpt>
      <trkpt lat="42.2153636" lon="2.2305414">
        <ele>722.59997559</ele>
        <time>2021-03-30T14:50:02Z</time>
      </trkpt>
      <trkpt lat="42.2153586" lon="2.2304833">
        <ele>722.69000244</ele>
        <time>2021-03-30T14:50:03Z</time>
      </trkpt>
      <trkpt lat="42.2153637" lon="2.2304178">
        <ele>723.04998779</ele>
        <time>2021-03-30T14:50:04Z</time>
      </trkpt>
      <trkpt lat="42.2153617" lon="2.2303453">
        <ele>723.13000488</ele>
        <time>2021-03-30T14:50:05Z</time>
      </trkpt>
      <trkpt lat="42.2153622" lon="2.2302851">
        <ele>723.20001221</ele>
        <time>2021-03-30T14:50:06Z</time>
      </trkpt>
      <trkpt lat="42.2153587" lon="2.2302167">
        <ele>723.16998291</ele>
        <time>2021-03-30T14:50:07Z</time>
      </trkpt>
      <trkpt lat="42.215347" lon="2.2301451">
        <ele>723.14001465</ele>
        <time>2021-03-30T14:50:08Z</time>
      </trkpt>
      <trkpt lat="42.2153401" lon="2.2300832">
        <ele>723.15997314</ele>
        <time>2021-03-30T14:50:09Z</time>
      </trkpt>
      <trkpt lat="42.215338" lon="2.2300206">
        <ele>723.21002197</ele>
        <time>2021-03-30T14:50:10Z</time>
      </trkpt>
      <trkpt lat="42.2153283" lon="2.2299526">
        <ele>723.27001953</ele>
        <time>2021-03-30T14:50:11Z</time>
      </trkpt>
      <trkpt lat="42.2153287" lon="2.2298912">
        <ele>723.30999756</ele>
        <time>2021-03-30T14:50:12Z</time>
      </trkpt>
      <trkpt lat="42.2153264" lon="2.2298233">
        <ele>723.36999512</ele>
        <time>2021-03-30T14:50:13Z</time>
      </trkpt>
      <trkpt lat="42.2153312" lon="2.2297553">
        <ele>723.4699707</ele>
        <time>2021-03-30T14:50:14Z</time>
      </trkpt>
      <trkpt lat="42.2153354" lon="2.2296881">
        <ele>724</ele>
        <time>2021-03-30T14:50:15Z</time>
      </trkpt>
      <trkpt lat="42.2153296" lon="2.2296221">
        <ele>724.52001953</ele>
        <time>2021-03-30T14:50:16Z</time>
      </trkpt>
      <trkpt lat="42.2153248" lon="2.2295569">
        <ele>724.98999023</ele>
        <time>2021-03-30T14:50:17Z</time>
      </trkpt>
      <trkpt lat="42.2153215" lon="2.2294903">
        <ele>725.42999268</ele>
        <time>2021-03-30T14:50:18Z</time>
      </trkpt>
      <trkpt lat="42.2153172" lon="2.2294365">
        <ele>725.83001709</ele>
        <time>2021-03-30T14:50:19Z</time>
      </trkpt>
      <trkpt lat="42.2153162" lon="2.2293996">
        <ele>726.20001221</ele>
        <time>2021-03-30T14:50:20Z</time>
      </trkpt>
      <trkpt lat="42.2153103" lon="2.2293689">
        <ele>726.53997803</ele>
        <time>2021-03-30T14:50:21Z</time>
      </trkpt>
      <trkpt lat="42.2153065" lon="2.2293366">
        <ele>726.86999512</ele>
        <time>2021-03-30T14:50:22Z</time>
      </trkpt>
      <trkpt lat="42.2153007" lon="2.2292833">
        <ele>727.17999268</ele>
        <time>2021-03-30T14:50:23Z</time>
      </trkpt>
      <trkpt lat="42.2152963" lon="2.2292337">
        <ele>721.38000488</ele>
        <time>2021-03-30T14:50:24Z</time>
      </trkpt>
      <trkpt lat="42.2152949" lon="2.2291855">
        <ele>726.9699707</ele>
        <time>2021-03-30T14:50:25Z</time>
      </trkpt>
      <trkpt lat="42.2152971" lon="2.2290617">
        <ele>727.82000732</ele>
        <time>2021-03-30T14:50:26Z</time>
      </trkpt>
      <trkpt lat="42.2153121" lon="2.2290065">
        <ele>728.15002441</ele>
        <time>2021-03-30T14:50:27Z</time>
      </trkpt>
      <trkpt lat="42.2153379" lon="2.2289558">
        <ele>728.29998779</ele>
        <time>2021-03-30T14:50:28Z</time>
      </trkpt>
      <trkpt lat="42.2153622" lon="2.2288268">
        <ele>728.30999756</ele>
        <time>2021-03-30T14:50:29Z</time>
      </trkpt>
      <trkpt lat="42.2154006" lon="2.2286983">
        <ele>728.23999023</ele>
        <time>2021-03-30T14:50:30Z</time>
      </trkpt>
      <trkpt lat="42.2154336" lon="2.2286105">
        <ele>728.20001221</ele>
        <time>2021-03-30T14:50:31Z</time>
      </trkpt>
      <trkpt lat="42.2154441" lon="2.2285311">
        <ele>728.15002441</ele>
        <time>2021-03-30T14:50:32Z</time>
      </trkpt>
      <trkpt lat="42.2154711" lon="2.2284523">
        <ele>728.03997803</ele>
        <time>2021-03-30T14:50:33Z</time>
      </trkpt>
      <trkpt lat="42.2154782" lon="2.228389">
        <ele>727.9699707</ele>
        <time>2021-03-30T14:50:34Z</time>
      </trkpt>
      <trkpt lat="42.2154861" lon="2.2283287">
        <ele>727.65997314</ele>
        <time>2021-03-30T14:50:35Z</time>
      </trkpt>
      <trkpt lat="42.2154987" lon="2.2282483">
        <ele>727.32000732</ele>
        <time>2021-03-30T14:50:36Z</time>
      </trkpt>
      <trkpt lat="42.2155142" lon="2.2281813">
        <ele>726.94000244</ele>
        <time>2021-03-30T14:50:37Z</time>
      </trkpt>
      <trkpt lat="42.2155276" lon="2.2281046">
        <ele>726.51000977</ele>
        <time>2021-03-30T14:50:38Z</time>
      </trkpt>
      <trkpt lat="42.2155441" lon="2.2280117">
        <ele>726.03997803</ele>
        <time>2021-03-30T14:50:39Z</time>
      </trkpt>
      <trkpt lat="42.2155645" lon="2.2279191">
        <ele>725.5300293</ele>
        <time>2021-03-30T14:50:40Z</time>
      </trkpt>
      <trkpt lat="42.2155803" lon="2.2278432">
        <ele>724.9699707</ele>
        <time>2021-03-30T14:50:41Z</time>
      </trkpt>
      <trkpt lat="42.215589" lon="2.2277726">
        <ele>724.40002441</ele>
        <time>2021-03-30T14:50:42Z</time>
      </trkpt>
      <trkpt lat="42.2155987" lon="2.2277084">
        <ele>723.85998535</ele>
        <time>2021-03-30T14:50:43Z</time>
      </trkpt>
      <trkpt lat="42.2156059" lon="2.2276508">
        <ele>723.34002686</ele>
        <time>2021-03-30T14:50:44Z</time>
      </trkpt>
      <trkpt lat="42.2156206" lon="2.2275749">
        <ele>722.84002686</ele>
        <time>2021-03-30T14:50:45Z</time>
      </trkpt>
      <trkpt lat="42.2156421" lon="2.227503">
        <ele>722.34002686</ele>
        <time>2021-03-30T14:50:46Z</time>
      </trkpt>
      <trkpt lat="42.2156612" lon="2.2274334">
        <ele>721.80999756</ele>
        <time>2021-03-30T14:50:47Z</time>
      </trkpt>
      <trkpt lat="42.2156804" lon="2.2273777">
        <ele>721.38000488</ele>
        <time>2021-03-30T14:50:48Z</time>
      </trkpt>
      <trkpt lat="42.2156987" lon="2.2273101">
        <ele>721.03997803</ele>
        <time>2021-03-30T14:50:49Z</time>
      </trkpt>
      <trkpt lat="42.215714" lon="2.2272434">
        <ele>720.79998779</ele>
        <time>2021-03-30T14:50:50Z</time>
      </trkpt>
      <trkpt lat="42.2157203" lon="2.227181">
        <ele>720.65002441</ele>
        <time>2021-03-30T14:50:51Z</time>
      </trkpt>
      <trkpt lat="42.2157317" lon="2.2271131">
        <ele>720.54998779</ele>
        <time>2021-03-30T14:50:52Z</time>
      </trkpt>
      <trkpt lat="42.2157507" lon="2.2270558">
        <ele>720.40997314</ele>
        <time>2021-03-30T14:50:53Z</time>
      </trkpt>
      <trkpt lat="42.2157512" lon="2.2269846">
        <ele>720.2199707</ele>
        <time>2021-03-30T14:50:54Z</time>
      </trkpt>
      <trkpt lat="42.2157605" lon="2.2269148">
        <ele>720.03997803</ele>
        <time>2021-03-30T14:50:55Z</time>
      </trkpt>
      <trkpt lat="42.2157686" lon="2.2268507">
        <ele>719.84002686</ele>
        <time>2021-03-30T14:50:56Z</time>
      </trkpt>
      <trkpt lat="42.2157782" lon="2.2267841">
        <ele>719.63000488</ele>
        <time>2021-03-30T14:50:57Z</time>
      </trkpt>
      <trkpt lat="42.2157985" lon="2.2267329">
        <ele>719.40002441</ele>
        <time>2021-03-30T14:50:58Z</time>
      </trkpt>
      <trkpt lat="42.2158082" lon="2.2266762">
        <ele>719.11999512</ele>
        <time>2021-03-30T14:50:59Z</time>
      </trkpt>
      <trkpt lat="42.2158142" lon="2.2266262">
        <ele>718.82000732</ele>
        <time>2021-03-30T14:51:00Z</time>
      </trkpt>
      <trkpt lat="42.2158213" lon="2.2265764">
        <ele>718.5300293</ele>
        <time>2021-03-30T14:51:01Z</time>
      </trkpt>
      <trkpt lat="42.2158306" lon="2.2265207">
        <ele>718.23999023</ele>
        <time>2021-03-30T14:51:02Z</time>
      </trkpt>
      <trkpt lat="42.215846" lon="2.2264569">
        <ele>717.95001221</ele>
        <time>2021-03-30T14:51:03Z</time>
      </trkpt>
      <trkpt lat="42.215861" lon="2.2263886">
        <ele>717.65002441</ele>
        <time>2021-03-30T14:51:04Z</time>
      </trkpt>
      <trkpt lat="42.2158734" lon="2.2263171">
        <ele>717.34997559</ele>
        <time>2021-03-30T14:51:05Z</time>
      </trkpt>
      <trkpt lat="42.2158861" lon="2.2262522">
        <ele>717.04998779</ele>
        <time>2021-03-30T14:51:06Z</time>
      </trkpt>
      <trkpt lat="42.2158931" lon="2.2261908">
        <ele>716.77001953</ele>
        <time>2021-03-30T14:51:07Z</time>
      </trkpt>
      <trkpt lat="42.2158915" lon="2.2261113">
        <ele>716.48999023</ele>
        <time>2021-03-30T14:51:08Z</time>
      </trkpt>
      <trkpt lat="42.2159007" lon="2.2260518">
        <ele>716.25</ele>
        <time>2021-03-30T14:51:09Z</time>
      </trkpt>
      <trkpt lat="42.2159142" lon="2.2259942">
        <ele>716.09997559</ele>
        <time>2021-03-30T14:51:10Z</time>
      </trkpt>
      <trkpt lat="42.2159193" lon="2.2259266">
        <ele>716.02001953</ele>
        <time>2021-03-30T14:51:11Z</time>
      </trkpt>
      <trkpt lat="42.2159292" lon="2.2258683">
        <ele>716.0300293</ele>
        <time>2021-03-30T14:51:12Z</time>
      </trkpt>
      <trkpt lat="42.2159395" lon="2.2258094">
        <ele>716.08001709</ele>
        <time>2021-03-30T14:51:13Z</time>
      </trkpt>
      <trkpt lat="42.2159559" lon="2.2257476">
        <ele>716.14001465</ele>
        <time>2021-03-30T14:51:14Z</time>
      </trkpt>
      <trkpt lat="42.2159647" lon="2.2256845">
        <ele>716.13000488</ele>
        <time>2021-03-30T14:51:15Z</time>
      </trkpt>
      <trkpt lat="42.2159792" lon="2.2256211">
        <ele>716.08001709</ele>
        <time>2021-03-30T14:51:16Z</time>
      </trkpt>
      <trkpt lat="42.215993" lon="2.2255662">
        <ele>715.97998047</ele>
        <time>2021-03-30T14:51:17Z</time>
      </trkpt>
      <trkpt lat="42.2160085" lon="2.2255085">
        <ele>715.83001709</ele>
        <time>2021-03-30T14:51:18Z</time>
      </trkpt>
      <trkpt lat="42.2160209" lon="2.2254497">
        <ele>715.70001221</ele>
        <time>2021-03-30T14:51:19Z</time>
      </trkpt>
      <trkpt lat="42.2160409" lon="2.2254027">
        <ele>715.59997559</ele>
        <time>2021-03-30T14:51:20Z</time>
      </trkpt>
      <trkpt lat="42.2160589" lon="2.2253316">
        <ele>715.5300293</ele>
        <time>2021-03-30T14:51:21Z</time>
      </trkpt>
      <trkpt lat="42.2160775" lon="2.2252659">
        <ele>715.52001953</ele>
        <time>2021-03-30T14:51:22Z</time>
      </trkpt>
      <trkpt lat="42.2160974" lon="2.2252002">
        <ele>715.57000732</ele>
        <time>2021-03-30T14:51:23Z</time>
      </trkpt>
      <trkpt lat="42.2161109" lon="2.2251469">
        <ele>715.58001709</ele>
        <time>2021-03-30T14:51:24Z</time>
      </trkpt>
      <trkpt lat="42.2161351" lon="2.2250807">
        <ele>715.55999756</ele>
        <time>2021-03-30T14:51:25Z</time>
      </trkpt>
      <trkpt lat="42.2161552" lon="2.2250221">
        <ele>715.48999023</ele>
        <time>2021-03-30T14:51:26Z</time>
      </trkpt>
      <trkpt lat="42.2161825" lon="2.2249622">
        <ele>715.39001465</ele>
        <time>2021-03-30T14:51:27Z</time>
      </trkpt>
      <trkpt lat="42.2162102" lon="2.2249068">
        <ele>715.25</ele>
        <time>2021-03-30T14:51:28Z</time>
      </trkpt>
      <trkpt lat="42.2162364" lon="2.2248349">
        <ele>715.05999756</ele>
        <time>2021-03-30T14:51:29Z</time>
      </trkpt>
      <trkpt lat="42.2162531" lon="2.2247696">
        <ele>714.84002686</ele>
        <time>2021-03-30T14:51:30Z</time>
      </trkpt>
      <trkpt lat="42.2162683" lon="2.2247048">
        <ele>714.60998535</ele>
        <time>2021-03-30T14:51:31Z</time>
      </trkpt>
      <trkpt lat="42.2162867" lon="2.2246485">
        <ele>714.40002441</ele>
        <time>2021-03-30T14:51:32Z</time>
      </trkpt>
      <trkpt lat="42.2163017" lon="2.2245899">
        <ele>714.28997803</ele>
        <time>2021-03-30T14:51:33Z</time>
      </trkpt>
      <trkpt lat="42.2163241" lon="2.2245265">
        <ele>714.27001953</ele>
        <time>2021-03-30T14:51:34Z</time>
      </trkpt>
      <trkpt lat="42.2163501" lon="2.2244731">
        <ele>714.34002686</ele>
        <time>2021-03-30T14:51:35Z</time>
      </trkpt>
      <trkpt lat="42.2163758" lon="2.2244215">
        <ele>714.4699707</ele>
        <time>2021-03-30T14:51:36Z</time>
      </trkpt>
      <trkpt lat="42.2163971" lon="2.224368">
        <ele>714.59002686</ele>
        <time>2021-03-30T14:51:37Z</time>
      </trkpt>
      <trkpt lat="42.2164149" lon="2.2243114">
        <ele>714.65997314</ele>
        <time>2021-03-30T14:51:38Z</time>
      </trkpt>
      <trkpt lat="42.2164338" lon="2.2242547">
        <ele>714.69000244</ele>
        <time>2021-03-30T14:51:39Z</time>
      </trkpt>
      <trkpt lat="42.2164581" lon="2.2241875">
        <ele>714.66998291</ele>
        <time>2021-03-30T14:51:40Z</time>
      </trkpt>
      <trkpt lat="42.2164755" lon="2.2241248">
        <ele>714.60998535</ele>
        <time>2021-03-30T14:51:41Z</time>
      </trkpt>
      <trkpt lat="42.2164954" lon="2.2240713">
        <ele>714.59002686</ele>
        <time>2021-03-30T14:51:42Z</time>
      </trkpt>
      <trkpt lat="42.2165186" lon="2.2240063">
        <ele>714.65002441</ele>
        <time>2021-03-30T14:51:43Z</time>
      </trkpt>
      <trkpt lat="42.2165433" lon="2.223944">
        <ele>714.7800293</ele>
        <time>2021-03-30T14:51:44Z</time>
      </trkpt>
      <trkpt lat="42.216565" lon="2.2238847">
        <ele>714.9699707</ele>
        <time>2021-03-30T14:51:45Z</time>
      </trkpt>
      <trkpt lat="42.2165903" lon="2.2238203">
        <ele>715.2199707</ele>
        <time>2021-03-30T14:51:46Z</time>
      </trkpt>
      <trkpt lat="42.2166268" lon="2.2237731">
        <ele>715.42999268</ele>
        <time>2021-03-30T14:51:47Z</time>
      </trkpt>
      <trkpt lat="42.2166513" lon="2.223717">
        <ele>715.54998779</ele>
        <time>2021-03-30T14:51:48Z</time>
      </trkpt>
      <trkpt lat="42.2166729" lon="2.2236662">
        <ele>715.59002686</ele>
        <time>2021-03-30T14:51:49Z</time>
      </trkpt>
      <trkpt lat="42.2166966" lon="2.2236132">
        <ele>715.55999756</ele>
        <time>2021-03-30T14:51:50Z</time>
      </trkpt>
      <trkpt lat="42.2167183" lon="2.2235605">
        <ele>715.47998047</ele>
        <time>2021-03-30T14:51:51Z</time>
      </trkpt>
      <trkpt lat="42.216738" lon="2.2235105">
        <ele>715.44000244</ele>
        <time>2021-03-30T14:51:52Z</time>
      </trkpt>
      <trkpt lat="42.2167569" lon="2.2234562">
        <ele>715.44000244</ele>
        <time>2021-03-30T14:51:53Z</time>
      </trkpt>
      <trkpt lat="42.2167795" lon="2.2233998">
        <ele>715.46002197</ele>
        <time>2021-03-30T14:51:54Z</time>
      </trkpt>
      <trkpt lat="42.2167986" lon="2.2233416">
        <ele>715.4699707</ele>
        <time>2021-03-30T14:51:55Z</time>
      </trkpt>
      <trkpt lat="42.2168266" lon="2.2232843">
        <ele>715.47998047</ele>
        <time>2021-03-30T14:51:56Z</time>
      </trkpt>
      <trkpt lat="42.2168461" lon="2.2232332">
        <ele>715.47998047</ele>
        <time>2021-03-30T14:51:57Z</time>
      </trkpt>
      <trkpt lat="42.2168745" lon="2.2231975">
        <ele>715.51000977</ele>
        <time>2021-03-30T14:51:58Z</time>
      </trkpt>
      <trkpt lat="42.2168907" lon="2.2231511">
        <ele>715.48999023</ele>
        <time>2021-03-30T14:51:59Z</time>
      </trkpt>
      <trkpt lat="42.2169045" lon="2.2231266">
        <ele>715.5</ele>
        <time>2021-03-30T14:52:00Z</time>
      </trkpt>
      <trkpt lat="42.2169282" lon="2.2230754">
        <ele>715.5</ele>
        <time>2021-03-30T14:52:01Z</time>
      </trkpt>
      <trkpt lat="42.216957" lon="2.2230314">
        <ele>715.51000977</ele>
        <time>2021-03-30T14:52:02Z</time>
      </trkpt>
      <trkpt lat="42.2169902" lon="2.2229829">
        <ele>715.5</ele>
        <time>2021-03-30T14:52:03Z</time>
      </trkpt>
      <trkpt lat="42.2170125" lon="2.2229323">
        <ele>715.45001221</ele>
        <time>2021-03-30T14:52:04Z</time>
      </trkpt>
      <trkpt lat="42.2170378" lon="2.2228726">
        <ele>715.40997314</ele>
        <time>2021-03-30T14:52:05Z</time>
      </trkpt>
      <trkpt lat="42.2170746" lon="2.2228245">
        <ele>715.40002441</ele>
        <time>2021-03-30T14:52:06Z</time>
      </trkpt>
      <trkpt lat="42.2170998" lon="2.222763">
        <ele>715.34002686</ele>
        <time>2021-03-30T14:52:07Z</time>
      </trkpt>
      <trkpt lat="42.2171355" lon="2.2227122">
        <ele>715.28997803</ele>
        <time>2021-03-30T14:52:08Z</time>
      </trkpt>
      <trkpt lat="42.2171666" lon="2.2226475">
        <ele>715.17999268</ele>
        <time>2021-03-30T14:52:09Z</time>
      </trkpt>
      <trkpt lat="42.2171908" lon="2.2225782">
        <ele>715.07000732</ele>
        <time>2021-03-30T14:52:10Z</time>
      </trkpt>
      <trkpt lat="42.2172198" lon="2.2225184">
        <ele>715.02001953</ele>
        <time>2021-03-30T14:52:11Z</time>
      </trkpt>
      <trkpt lat="42.217257" lon="2.2224644">
        <ele>715.02001953</ele>
        <time>2021-03-30T14:52:12Z</time>
      </trkpt>
      <trkpt lat="42.2172882" lon="2.2224091">
        <ele>714.92999268</ele>
        <time>2021-03-30T14:52:13Z</time>
      </trkpt>
      <trkpt lat="42.2173244" lon="2.2223573">
        <ele>714.76000977</ele>
        <time>2021-03-30T14:52:14Z</time>
      </trkpt>
      <trkpt lat="42.2173572" lon="2.2223001">
        <ele>714.52001953</ele>
        <time>2021-03-30T14:52:15Z</time>
      </trkpt>
      <trkpt lat="42.2173974" lon="2.2222487">
        <ele>714.26000977</ele>
        <time>2021-03-30T14:52:16Z</time>
      </trkpt>
      <trkpt lat="42.2174244" lon="2.2221833">
        <ele>713.98999023</ele>
        <time>2021-03-30T14:52:17Z</time>
      </trkpt>
      <trkpt lat="42.2174501" lon="2.2221261">
        <ele>713.73999023</ele>
        <time>2021-03-30T14:52:18Z</time>
      </trkpt>
      <trkpt lat="42.2174796" lon="2.2220611">
        <ele>713.47998047</ele>
        <time>2021-03-30T14:52:19Z</time>
      </trkpt>
      <trkpt lat="42.2175131" lon="2.2219887">
        <ele>713.19000244</ele>
        <time>2021-03-30T14:52:20Z</time>
      </trkpt>
      <trkpt lat="42.2175364" lon="2.2219144">
        <ele>712.83001709</ele>
        <time>2021-03-30T14:52:21Z</time>
      </trkpt>
      <trkpt lat="42.2175607" lon="2.2218363">
        <ele>712.51000977</ele>
        <time>2021-03-30T14:52:22Z</time>
      </trkpt>
      <trkpt lat="42.2175946" lon="2.2217743">
        <ele>712.2800293</ele>
        <time>2021-03-30T14:52:23Z</time>
      </trkpt>
      <trkpt lat="42.2176258" lon="2.2217066">
        <ele>712.08001709</ele>
        <time>2021-03-30T14:52:24Z</time>
      </trkpt>
      <trkpt lat="42.2176596" lon="2.221632">
        <ele>711.86999512</ele>
        <time>2021-03-30T14:52:25Z</time>
      </trkpt>
      <trkpt lat="42.2176869" lon="2.221551">
        <ele>711.63000488</ele>
        <time>2021-03-30T14:52:26Z</time>
      </trkpt>
      <trkpt lat="42.2177191" lon="2.2214847">
        <ele>711.41998291</ele>
        <time>2021-03-30T14:52:27Z</time>
      </trkpt>
      <trkpt lat="42.2177444" lon="2.2214114">
        <ele>711.23999023</ele>
        <time>2021-03-30T14:52:28Z</time>
      </trkpt>
      <trkpt lat="42.2177718" lon="2.221348">
        <ele>711.13000488</ele>
        <time>2021-03-30T14:52:29Z</time>
      </trkpt>
      <trkpt lat="42.2178046" lon="2.2212866">
        <ele>711.09997559</ele>
        <time>2021-03-30T14:52:30Z</time>
      </trkpt>
      <trkpt lat="42.2178399" lon="2.2212273">
        <ele>711.13000488</ele>
        <time>2021-03-30T14:52:31Z</time>
      </trkpt>
      <trkpt lat="42.2178632" lon="2.2211469">
        <ele>711.2199707</ele>
        <time>2021-03-30T14:52:32Z</time>
      </trkpt>
      <trkpt lat="42.2178814" lon="2.2210665">
        <ele>711.40002441</ele>
        <time>2021-03-30T14:52:33Z</time>
      </trkpt>
      <trkpt lat="42.2179069" lon="2.2209957">
        <ele>711.60998535</ele>
        <time>2021-03-30T14:52:34Z</time>
      </trkpt>
      <trkpt lat="42.2179296" lon="2.2209374">
        <ele>711.75</ele>
        <time>2021-03-30T14:52:35Z</time>
      </trkpt>
      <trkpt lat="42.217959" lon="2.220857">
        <ele>711.83001709</ele>
        <time>2021-03-30T14:52:36Z</time>
      </trkpt>
      <trkpt lat="42.2179803" lon="2.2207844">
        <ele>711.84002686</ele>
        <time>2021-03-30T14:52:37Z</time>
      </trkpt>
      <trkpt lat="42.2179974" lon="2.2207114">
        <ele>711.80999756</ele>
        <time>2021-03-30T14:52:38Z</time>
      </trkpt>
      <trkpt lat="42.2180374" lon="2.2206502">
        <ele>711.73999023</ele>
        <time>2021-03-30T14:52:39Z</time>
      </trkpt>
      <trkpt lat="42.2180558" lon="2.2205797">
        <ele>711.59997559</ele>
        <time>2021-03-30T14:52:40Z</time>
      </trkpt>
      <trkpt lat="42.2180705" lon="2.2204988">
        <ele>711.44000244</ele>
        <time>2021-03-30T14:52:41Z</time>
      </trkpt>
      <trkpt lat="42.2180931" lon="2.2204202">
        <ele>711.26000977</ele>
        <time>2021-03-30T14:52:42Z</time>
      </trkpt>
      <trkpt lat="42.2180975" lon="2.220336">
        <ele>711.04998779</ele>
        <time>2021-03-30T14:52:43Z</time>
      </trkpt>
      <trkpt lat="42.2181079" lon="2.2202617">
        <ele>710.85998535</ele>
        <time>2021-03-30T14:52:44Z</time>
      </trkpt>
      <trkpt lat="42.2181337" lon="2.2201964">
        <ele>710.65997314</ele>
        <time>2021-03-30T14:52:45Z</time>
      </trkpt>
      <trkpt lat="42.218151" lon="2.2201298">
        <ele>710.44000244</ele>
        <time>2021-03-30T14:52:46Z</time>
      </trkpt>
      <trkpt lat="42.2181599" lon="2.2200531">
        <ele>710.20001221</ele>
        <time>2021-03-30T14:52:47Z</time>
      </trkpt>
      <trkpt lat="42.2181733" lon="2.2199814">
        <ele>709.9699707</ele>
        <time>2021-03-30T14:52:48Z</time>
      </trkpt>
      <trkpt lat="42.2181929" lon="2.2199075">
        <ele>709.76000977</ele>
        <time>2021-03-30T14:52:49Z</time>
      </trkpt>
      <trkpt lat="42.2182041" lon="2.2198275">
        <ele>709.59997559</ele>
        <time>2021-03-30T14:52:50Z</time>
      </trkpt>
      <trkpt lat="42.2182191" lon="2.2197509">
        <ele>709.5</ele>
        <time>2021-03-30T14:52:51Z</time>
      </trkpt>
      <trkpt lat="42.2182348" lon="2.2196782">
        <ele>709.42999268</ele>
        <time>2021-03-30T14:52:52Z</time>
      </trkpt>
      <trkpt lat="42.2182461" lon="2.2196134">
        <ele>709.33001709</ele>
        <time>2021-03-30T14:52:53Z</time>
      </trkpt>
      <trkpt lat="42.2182604" lon="2.2195544">
        <ele>709.20001221</ele>
        <time>2021-03-30T14:52:54Z</time>
      </trkpt>
      <trkpt lat="42.2182606" lon="2.2194819">
        <ele>709.02001953</ele>
        <time>2021-03-30T14:52:55Z</time>
      </trkpt>
      <trkpt lat="42.2182656" lon="2.2194034">
        <ele>708.85998535</ele>
        <time>2021-03-30T14:52:56Z</time>
      </trkpt>
      <trkpt lat="42.218268" lon="2.2193364">
        <ele>708.69000244</ele>
        <time>2021-03-30T14:52:57Z</time>
      </trkpt>
      <trkpt lat="42.2182715" lon="2.2192762">
        <ele>708.5300293</ele>
        <time>2021-03-30T14:52:58Z</time>
      </trkpt>
      <trkpt lat="42.2182724" lon="2.2192099">
        <ele>708.38000488</ele>
        <time>2021-03-30T14:52:59Z</time>
      </trkpt>
      <trkpt lat="42.2182732" lon="2.2191522">
        <ele>708.22998047</ele>
        <time>2021-03-30T14:53:00Z</time>
      </trkpt>
      <trkpt lat="42.2182779" lon="2.2190926">
        <ele>708.11999512</ele>
        <time>2021-03-30T14:53:01Z</time>
      </trkpt>
      <trkpt lat="42.218281" lon="2.2190265">
        <ele>708.09997559</ele>
        <time>2021-03-30T14:53:02Z</time>
      </trkpt>
      <trkpt lat="42.2182844" lon="2.2189652">
        <ele>708.16998291</ele>
        <time>2021-03-30T14:53:03Z</time>
      </trkpt>
      <trkpt lat="42.2182867" lon="2.2189166">
        <ele>708.33001709</ele>
        <time>2021-03-30T14:53:04Z</time>
      </trkpt>
      <trkpt lat="42.218286" lon="2.2188572">
        <ele>708.55999756</ele>
        <time>2021-03-30T14:53:05Z</time>
      </trkpt>
      <trkpt lat="42.2182793" lon="2.2187944">
        <ele>708.80999756</ele>
        <time>2021-03-30T14:53:06Z</time>
      </trkpt>
      <trkpt lat="42.218272" lon="2.2187337">
        <ele>709.04998779</ele>
        <time>2021-03-30T14:53:07Z</time>
      </trkpt>
      <trkpt lat="42.2182775" lon="2.2186599">
        <ele>709.2800293</ele>
        <time>2021-03-30T14:53:08Z</time>
      </trkpt>
      <trkpt lat="42.2182832" lon="2.2185808">
        <ele>709.47998047</ele>
        <time>2021-03-30T14:53:10Z</time>
      </trkpt>
      <trkpt lat="42.2182865" lon="2.2184997">
        <ele>709.64001465</ele>
        <time>2021-03-30T14:53:11Z</time>
      </trkpt>
      <trkpt lat="42.2182917" lon="2.2184096">
        <ele>709.7800293</ele>
        <time>2021-03-30T14:53:12Z</time>
      </trkpt>
      <trkpt lat="42.2182942" lon="2.218332">
        <ele>709.90002441</ele>
        <time>2021-03-30T14:53:13Z</time>
      </trkpt>
      <trkpt lat="42.2182943" lon="2.2182618">
        <ele>709.98999023</ele>
        <time>2021-03-30T14:53:14Z</time>
      </trkpt>
      <trkpt lat="42.2182913" lon="2.2181869">
        <ele>710.08001709</ele>
        <time>2021-03-30T14:53:15Z</time>
      </trkpt>
      <trkpt lat="42.2182991" lon="2.2181222">
        <ele>710.15997314</ele>
        <time>2021-03-30T14:53:16Z</time>
      </trkpt>
      <trkpt lat="42.2183031" lon="2.2180547">
        <ele>710.2199707</ele>
        <time>2021-03-30T14:53:17Z</time>
      </trkpt>
      <trkpt lat="42.2183006" lon="2.2179781">
        <ele>710.26000977</ele>
        <time>2021-03-30T14:53:18Z</time>
      </trkpt>
      <trkpt lat="42.218297" lon="2.217908">
        <ele>710.29998779</ele>
        <time>2021-03-30T14:53:19Z</time>
      </trkpt>
      <trkpt lat="42.2182897" lon="2.2178326">
        <ele>710.34997559</ele>
        <time>2021-03-30T14:53:20Z</time>
      </trkpt>
      <trkpt lat="42.2182869" lon="2.2177692">
        <ele>710.40002441</ele>
        <time>2021-03-30T14:53:21Z</time>
      </trkpt>
      <trkpt lat="42.218289" lon="2.2177023">
        <ele>710.46002197</ele>
        <time>2021-03-30T14:53:22Z</time>
      </trkpt>
      <trkpt lat="42.2182848" lon="2.2176428">
        <ele>710.51000977</ele>
        <time>2021-03-30T14:53:23Z</time>
      </trkpt>
      <trkpt lat="42.2182777" lon="2.2175894">
        <ele>710.54998779</ele>
        <time>2021-03-30T14:53:24Z</time>
      </trkpt>
      <trkpt lat="42.2182708" lon="2.2175329">
        <ele>710.60998535</ele>
        <time>2021-03-30T14:53:25Z</time>
      </trkpt>
      <trkpt lat="42.2182601" lon="2.2174773">
        <ele>710.67999268</ele>
        <time>2021-03-30T14:53:26Z</time>
      </trkpt>
      <trkpt lat="42.2182426" lon="2.2174131">
        <ele>710.76000977</ele>
        <time>2021-03-30T14:53:27Z</time>
      </trkpt>
      <trkpt lat="42.2182316" lon="2.217343">
        <ele>710.85998535</ele>
        <time>2021-03-30T14:53:28Z</time>
      </trkpt>
      <trkpt lat="42.2182214" lon="2.2172739">
        <ele>710.97998047</ele>
        <time>2021-03-30T14:53:29Z</time>
      </trkpt>
      <trkpt lat="42.2182151" lon="2.217208">
        <ele>711.10998535</ele>
        <time>2021-03-30T14:53:30Z</time>
      </trkpt>
      <trkpt lat="42.2182042" lon="2.2171472">
        <ele>711.22998047</ele>
        <time>2021-03-30T14:53:31Z</time>
      </trkpt>
      <trkpt lat="42.2181941" lon="2.2170798">
        <ele>711.36999512</ele>
        <time>2021-03-30T14:53:32Z</time>
      </trkpt>
      <trkpt lat="42.2181824" lon="2.2170062">
        <ele>711.51000977</ele>
        <time>2021-03-30T14:53:33Z</time>
      </trkpt>
      <trkpt lat="42.2181692" lon="2.2169339">
        <ele>711.65997314</ele>
        <time>2021-03-30T14:53:34Z</time>
      </trkpt>
      <trkpt lat="42.2181555" lon="2.2168614">
        <ele>711.82000732</ele>
        <time>2021-03-30T14:53:35Z</time>
      </trkpt>
      <trkpt lat="42.2181406" lon="2.2167968">
        <ele>711.98999023</ele>
        <time>2021-03-30T14:53:36Z</time>
      </trkpt>
      <trkpt lat="42.2181258" lon="2.2167376">
        <ele>712.17999268</ele>
        <time>2021-03-30T14:53:37Z</time>
      </trkpt>
      <trkpt lat="42.2181137" lon="2.2166836">
        <ele>712.36999512</ele>
        <time>2021-03-30T14:53:38Z</time>
      </trkpt>
      <trkpt lat="42.2181015" lon="2.2166331">
        <ele>712.57000732</ele>
        <time>2021-03-30T14:53:39Z</time>
      </trkpt>
      <trkpt lat="42.2180822" lon="2.2165591">
        <ele>712.7199707</ele>
        <time>2021-03-30T14:53:40Z</time>
      </trkpt>
      <trkpt lat="42.2180731" lon="2.2165023">
        <ele>712.76000977</ele>
        <time>2021-03-30T14:53:41Z</time>
      </trkpt>
      <trkpt lat="42.21806" lon="2.2164373">
        <ele>712.70001221</ele>
        <time>2021-03-30T14:53:42Z</time>
      </trkpt>
      <trkpt lat="42.2180461" lon="2.2163739">
        <ele>712.65997314</ele>
        <time>2021-03-30T14:53:43Z</time>
      </trkpt>
      <trkpt lat="42.2180196" lon="2.2163015">
        <ele>712.41998291</ele>
        <time>2021-03-30T14:53:44Z</time>
      </trkpt>
      <trkpt lat="42.2180063" lon="2.2162482">
        <ele>712.28997803</ele>
        <time>2021-03-30T14:53:45Z</time>
      </trkpt>
      <trkpt lat="42.2179901" lon="2.2161896">
        <ele>712.23999023</ele>
        <time>2021-03-30T14:53:46Z</time>
      </trkpt>
      <trkpt lat="42.2179755" lon="2.2161328">
        <ele>712.27001953</ele>
        <time>2021-03-30T14:53:47Z</time>
      </trkpt>
      <trkpt lat="42.2179494" lon="2.2160788">
        <ele>712.35998535</ele>
        <time>2021-03-30T14:53:48Z</time>
      </trkpt>
      <trkpt lat="42.2179301" lon="2.2160142">
        <ele>712.51000977</ele>
        <time>2021-03-30T14:53:49Z</time>
      </trkpt>
      <trkpt lat="42.2179106" lon="2.2159405">
        <ele>712.66998291</ele>
        <time>2021-03-30T14:53:50Z</time>
      </trkpt>
      <trkpt lat="42.2178941" lon="2.2158804">
        <ele>712.80999756</ele>
        <time>2021-03-30T14:53:51Z</time>
      </trkpt>
      <trkpt lat="42.2178763" lon="2.2158165">
        <ele>712.90002441</ele>
        <time>2021-03-30T14:53:52Z</time>
      </trkpt>
      <trkpt lat="42.2178569" lon="2.2157529">
        <ele>712.96002197</ele>
        <time>2021-03-30T14:53:53Z</time>
      </trkpt>
      <trkpt lat="42.2178416" lon="2.2156952">
        <ele>713.01000977</ele>
        <time>2021-03-30T14:53:54Z</time>
      </trkpt>
      <trkpt lat="42.2178292" lon="2.2156219">
        <ele>713.05999756</ele>
        <time>2021-03-30T14:53:55Z</time>
      </trkpt>
      <trkpt lat="42.2178059" lon="2.2155661">
        <ele>713.11999512</ele>
        <time>2021-03-30T14:53:56Z</time>
      </trkpt>
      <trkpt lat="42.2177862" lon="2.2155089">
        <ele>713.23999023</ele>
        <time>2021-03-30T14:53:57Z</time>
      </trkpt>
      <trkpt lat="42.2177655" lon="2.2154357">
        <ele>713.34002686</ele>
        <time>2021-03-30T14:53:58Z</time>
      </trkpt>
      <trkpt lat="42.2177497" lon="2.2153692">
        <ele>713.35998535</ele>
        <time>2021-03-30T14:53:59Z</time>
      </trkpt>
      <trkpt lat="42.2177147" lon="2.2153286">
        <ele>713.28997803</ele>
        <time>2021-03-30T14:54:00Z</time>
      </trkpt>
      <trkpt lat="42.2176844" lon="2.215269">
        <ele>713.2800293</ele>
        <time>2021-03-30T14:54:01Z</time>
      </trkpt>
      <trkpt lat="42.2176545" lon="2.2152111">
        <ele>713.28997803</ele>
        <time>2021-03-30T14:54:02Z</time>
      </trkpt>
      <trkpt lat="42.2176284" lon="2.2151674">
        <ele>713.30999756</ele>
        <time>2021-03-30T14:54:03Z</time>
      </trkpt>
      <trkpt lat="42.2175967" lon="2.2151243">
        <ele>713.34997559</ele>
        <time>2021-03-30T14:54:04Z</time>
      </trkpt>
      <trkpt lat="42.2175786" lon="2.2150687">
        <ele>713.41998291</ele>
        <time>2021-03-30T14:54:05Z</time>
      </trkpt>
      <trkpt lat="42.2175512" lon="2.2150142">
        <ele>713.45001221</ele>
        <time>2021-03-30T14:54:06Z</time>
      </trkpt>
      <trkpt lat="42.2175381" lon="2.2149685">
        <ele>713.4699707</ele>
        <time>2021-03-30T14:54:07Z</time>
      </trkpt>
      <trkpt lat="42.2175096" lon="2.2149202">
        <ele>713.4699707</ele>
        <time>2021-03-30T14:54:08Z</time>
      </trkpt>
      <trkpt lat="42.2174896" lon="2.2148621">
        <ele>713.4699707</ele>
        <time>2021-03-30T14:54:09Z</time>
      </trkpt>
      <trkpt lat="42.2174628" lon="2.2148145">
        <ele>713.44000244</ele>
        <time>2021-03-30T14:54:10Z</time>
      </trkpt>
      <trkpt lat="42.217441" lon="2.2147726">
        <ele>713.40997314</ele>
        <time>2021-03-30T14:54:11Z</time>
      </trkpt>
      <trkpt lat="42.2174176" lon="2.2147313">
        <ele>713.40002441</ele>
        <time>2021-03-30T14:54:12Z</time>
      </trkpt>
      <trkpt lat="42.2174078" lon="2.2146916">
        <ele>713.39001465</ele>
        <time>2021-03-30T14:54:13Z</time>
      </trkpt>
      <trkpt lat="42.2173987" lon="2.2146621">
        <ele>713.33001709</ele>
        <time>2021-03-30T14:54:14Z</time>
      </trkpt>
      <trkpt lat="42.2173931" lon="2.2146294">
        <ele>713.22998047</ele>
        <time>2021-03-30T14:54:15Z</time>
      </trkpt>
      <trkpt lat="42.2173825" lon="2.2145879">
        <ele>713.07000732</ele>
        <time>2021-03-30T14:54:16Z</time>
      </trkpt>
      <trkpt lat="42.2173766" lon="2.2145196">
        <ele>712.84997559</ele>
        <time>2021-03-30T14:54:17Z</time>
      </trkpt>
      <trkpt lat="42.2173434" lon="2.2144728">
        <ele>712.73999023</ele>
        <time>2021-03-30T14:54:18Z</time>
      </trkpt>
      <trkpt lat="42.217313" lon="2.2144083">
        <ele>712.29998779</ele>
        <time>2021-03-30T14:54:19Z</time>
      </trkpt>
      <trkpt lat="42.2172834" lon="2.2143662">
        <ele>711.7800293</ele>
        <time>2021-03-30T14:54:20Z</time>
      </trkpt>
      <trkpt lat="42.2172516" lon="2.2143211">
        <ele>711.2800293</ele>
        <time>2021-03-30T14:54:21Z</time>
      </trkpt>
      <trkpt lat="42.2172171" lon="2.2142503">
        <ele>710.82000732</ele>
        <time>2021-03-30T14:54:22Z</time>
      </trkpt>
      <trkpt lat="42.2171925" lon="2.2141915">
        <ele>710.34997559</ele>
        <time>2021-03-30T14:54:23Z</time>
      </trkpt>
      <trkpt lat="42.2171665" lon="2.2141267">
        <ele>709.90997314</ele>
        <time>2021-03-30T14:54:24Z</time>
      </trkpt>
      <trkpt lat="42.2171308" lon="2.2140647">
        <ele>709.5</ele>
        <time>2021-03-30T14:54:25Z</time>
      </trkpt>
      <trkpt lat="42.217096" lon="2.2140053">
        <ele>709.14001465</ele>
        <time>2021-03-30T14:54:26Z</time>
      </trkpt>
      <trkpt lat="42.217064" lon="2.2139481">
        <ele>708.84002686</ele>
        <time>2021-03-30T14:54:27Z</time>
      </trkpt>
      <trkpt lat="42.2170499" lon="2.2138714">
        <ele>708.59997559</ele>
        <time>2021-03-30T14:54:28Z</time>
      </trkpt>
      <trkpt lat="42.2170216" lon="2.2138005">
        <ele>708.29998779</ele>
        <time>2021-03-30T14:54:29Z</time>
      </trkpt>
      <trkpt lat="42.2169955" lon="2.2137464">
        <ele>708.0300293</ele>
        <time>2021-03-30T14:54:30Z</time>
      </trkpt>
      <trkpt lat="42.2169793" lon="2.2136789">
        <ele>706.05999756</ele>
        <time>2021-03-30T14:54:31Z</time>
      </trkpt>
      <trkpt lat="42.2169527" lon="2.2136191">
        <ele>705.26000977</ele>
        <time>2021-03-30T14:54:32Z</time>
      </trkpt>
      <trkpt lat="42.2169257" lon="2.2135699">
        <ele>704.75</ele>
        <time>2021-03-30T14:54:33Z</time>
      </trkpt>
      <trkpt lat="42.2168997" lon="2.2135099">
        <ele>705.34997559</ele>
        <time>2021-03-30T14:54:34Z</time>
      </trkpt>
      <trkpt lat="42.2168831" lon="2.213459">
        <ele>706.30999756</ele>
        <time>2021-03-30T14:54:35Z</time>
      </trkpt>
      <trkpt lat="42.2168645" lon="2.2134135">
        <ele>706.97998047</ele>
        <time>2021-03-30T14:54:36Z</time>
      </trkpt>
      <trkpt lat="42.216849" lon="2.2133601">
        <ele>707.36999512</ele>
        <time>2021-03-30T14:54:37Z</time>
      </trkpt>
      <trkpt lat="42.2168299" lon="2.2132999">
        <ele>707.70001221</ele>
        <time>2021-03-30T14:54:38Z</time>
      </trkpt>
      <trkpt lat="42.2168152" lon="2.2132369">
        <ele>707.90002441</ele>
        <time>2021-03-30T14:54:39Z</time>
      </trkpt>
      <trkpt lat="42.2167964" lon="2.2131673">
        <ele>707.90002441</ele>
        <time>2021-03-30T14:54:40Z</time>
      </trkpt>
      <trkpt lat="42.2167812" lon="2.2131017">
        <ele>707.7800293</ele>
        <time>2021-03-30T14:54:41Z</time>
      </trkpt>
      <trkpt lat="42.2167668" lon="2.2130376">
        <ele>707.59002686</ele>
        <time>2021-03-30T14:54:42Z</time>
      </trkpt>
      <trkpt lat="42.2167361" lon="2.2129673">
        <ele>707.38000488</ele>
        <time>2021-03-30T14:54:43Z</time>
      </trkpt>
      <trkpt lat="42.2167162" lon="2.2128968">
        <ele>707.35998535</ele>
        <time>2021-03-30T14:54:44Z</time>
      </trkpt>
      <trkpt lat="42.2166939" lon="2.2128274">
        <ele>707.45001221</ele>
        <time>2021-03-30T14:54:45Z</time>
      </trkpt>
      <trkpt lat="42.2166676" lon="2.2127527">
        <ele>707.63000488</ele>
        <time>2021-03-30T14:54:46Z</time>
      </trkpt>
      <trkpt lat="42.2166495" lon="2.2126664">
        <ele>707.85998535</ele>
        <time>2021-03-30T14:54:47Z</time>
      </trkpt>
      <trkpt lat="42.2166285" lon="2.2125865">
        <ele>707.96002197</ele>
        <time>2021-03-30T14:54:48Z</time>
      </trkpt>
      <trkpt lat="42.2166159" lon="2.2125183">
        <ele>707.95001221</ele>
        <time>2021-03-30T14:54:49Z</time>
      </trkpt>
      <trkpt lat="42.2166045" lon="2.2124551">
        <ele>707.84997559</ele>
        <time>2021-03-30T14:54:50Z</time>
      </trkpt>
      <trkpt lat="42.2165904" lon="2.2124052">
        <ele>707.70001221</ele>
        <time>2021-03-30T14:54:51Z</time>
      </trkpt>
      <trkpt lat="42.2165612" lon="2.2123438">
        <ele>707.53997803</ele>
        <time>2021-03-30T14:54:52Z</time>
      </trkpt>
      <trkpt lat="42.21653" lon="2.2122793">
        <ele>707.46002197</ele>
        <time>2021-03-30T14:54:53Z</time>
      </trkpt>
      <trkpt lat="42.2165098" lon="2.212219">
        <ele>707.48999023</ele>
        <time>2021-03-30T14:54:54Z</time>
      </trkpt>
      <trkpt lat="42.2164849" lon="2.2121589">
        <ele>707.58001709</ele>
        <time>2021-03-30T14:54:55Z</time>
      </trkpt>
      <trkpt lat="42.2164575" lon="2.212103">
        <ele>707.72998047</ele>
        <time>2021-03-30T14:54:56Z</time>
      </trkpt>
      <trkpt lat="42.2164362" lon="2.2120448">
        <ele>707.94000244</ele>
        <time>2021-03-30T14:54:57Z</time>
      </trkpt>
      <trkpt lat="42.2164224" lon="2.2119753">
        <ele>708.14001465</ele>
        <time>2021-03-30T14:54:58Z</time>
      </trkpt>
      <trkpt lat="42.2164067" lon="2.2119099">
        <ele>708.27001953</ele>
        <time>2021-03-30T14:54:59Z</time>
      </trkpt>
      <trkpt lat="42.2163876" lon="2.2118495">
        <ele>708.32000732</ele>
        <time>2021-03-30T14:55:00Z</time>
      </trkpt>
      <trkpt lat="42.2163673" lon="2.211792">
        <ele>708.32000732</ele>
        <time>2021-03-30T14:55:01Z</time>
      </trkpt>
      <trkpt lat="42.2163452" lon="2.2117366">
        <ele>708.2800293</ele>
        <time>2021-03-30T14:55:02Z</time>
      </trkpt>
      <trkpt lat="42.2163221" lon="2.2116891">
        <ele>708.22998047</ele>
        <time>2021-03-30T14:55:03Z</time>
      </trkpt>
      <trkpt lat="42.2163034" lon="2.2116373">
        <ele>708.16998291</ele>
        <time>2021-03-30T14:55:04Z</time>
      </trkpt>
      <trkpt lat="42.2162785" lon="2.2115823">
        <ele>708.09002686</ele>
        <time>2021-03-30T14:55:05Z</time>
      </trkpt>
      <trkpt lat="42.2162579" lon="2.2115353">
        <ele>708.01000977</ele>
        <time>2021-03-30T14:55:06Z</time>
      </trkpt>
      <trkpt lat="42.2162412" lon="2.2114763">
        <ele>707.92999268</ele>
        <time>2021-03-30T14:55:07Z</time>
      </trkpt>
      <trkpt lat="42.2162153" lon="2.2114184">
        <ele>707.79998779</ele>
        <time>2021-03-30T14:55:08Z</time>
      </trkpt>
      <trkpt lat="42.2161953" lon="2.2113619">
        <ele>707.66998291</ele>
        <time>2021-03-30T14:55:09Z</time>
      </trkpt>
      <trkpt lat="42.2161787" lon="2.2113087">
        <ele>707.53997803</ele>
        <time>2021-03-30T14:55:10Z</time>
      </trkpt>
      <trkpt lat="42.2161402" lon="2.2112498">
        <ele>707.40997314</ele>
        <time>2021-03-30T14:55:11Z</time>
      </trkpt>
      <trkpt lat="42.2161164" lon="2.2111981">
        <ele>707.30999756</ele>
        <time>2021-03-30T14:55:12Z</time>
      </trkpt>
      <trkpt lat="42.2160923" lon="2.2111432">
        <ele>707.20001221</ele>
        <time>2021-03-30T14:55:13Z</time>
      </trkpt>
      <trkpt lat="42.2160783" lon="2.2110642">
        <ele>707.10998535</ele>
        <time>2021-03-30T14:55:14Z</time>
      </trkpt>
      <trkpt lat="42.2160593" lon="2.211016">
        <ele>707.03997803</ele>
        <time>2021-03-30T14:55:15Z</time>
      </trkpt>
      <trkpt lat="42.2160385" lon="2.2109671">
        <ele>707.05999756</ele>
        <time>2021-03-30T14:55:16Z</time>
      </trkpt>
      <trkpt lat="42.216017" lon="2.2109219">
        <ele>707.16998291</ele>
        <time>2021-03-30T14:55:17Z</time>
      </trkpt>
      <trkpt lat="42.2159829" lon="2.2108647">
        <ele>707.34997559</ele>
        <time>2021-03-30T14:55:18Z</time>
      </trkpt>
      <trkpt lat="42.215954" lon="2.2108034">
        <ele>707.60998535</ele>
        <time>2021-03-30T14:55:19Z</time>
      </trkpt>
      <trkpt lat="42.2159297" lon="2.2107495">
        <ele>707.88000488</ele>
        <time>2021-03-30T14:55:20Z</time>
      </trkpt>
      <trkpt lat="42.2159134" lon="2.2106882">
        <ele>708.11999512</ele>
        <time>2021-03-30T14:55:21Z</time>
      </trkpt>
      <trkpt lat="42.2158901" lon="2.2106419">
        <ele>708.27001953</ele>
        <time>2021-03-30T14:55:22Z</time>
      </trkpt>
      <trkpt lat="42.215858" lon="2.21059">
        <ele>708.40997314</ele>
        <time>2021-03-30T14:55:23Z</time>
      </trkpt>
      <trkpt lat="42.2158329" lon="2.2105369">
        <ele>708.54998779</ele>
        <time>2021-03-30T14:55:24Z</time>
      </trkpt>
      <trkpt lat="42.2158095" lon="2.2104868">
        <ele>708.66998291</ele>
        <time>2021-03-30T14:55:25Z</time>
      </trkpt>
      <trkpt lat="42.2157801" lon="2.2104367">
        <ele>708.7800293</ele>
        <time>2021-03-30T14:55:26Z</time>
      </trkpt>
      <trkpt lat="42.2157356" lon="2.2103354">
        <ele>708.97998047</ele>
        <time>2021-03-30T14:55:27Z</time>
      </trkpt>
      <trkpt lat="42.2157075" lon="2.2102823">
        <ele>709.04998779</ele>
        <time>2021-03-30T14:55:28Z</time>
      </trkpt>
      <trkpt lat="42.2156791" lon="2.2102291">
        <ele>709.10998535</ele>
        <time>2021-03-30T14:55:29Z</time>
      </trkpt>
      <trkpt lat="42.2156523" lon="2.210178">
        <ele>709.11999512</ele>
        <time>2021-03-30T14:55:30Z</time>
      </trkpt>
      <trkpt lat="42.2156277" lon="2.2101319">
        <ele>709.05999756</ele>
        <time>2021-03-30T14:55:31Z</time>
      </trkpt>
      <trkpt lat="42.2155959" lon="2.2100708">
        <ele>708.92999268</ele>
        <time>2021-03-30T14:55:32Z</time>
      </trkpt>
      <trkpt lat="42.2155639" lon="2.2100251">
        <ele>708.85998535</ele>
        <time>2021-03-30T14:55:33Z</time>
      </trkpt>
      <trkpt lat="42.21552" lon="2.2099682">
        <ele>708.7800293</ele>
        <time>2021-03-30T14:55:34Z</time>
      </trkpt>
      <trkpt lat="42.2154807" lon="2.2099258">
        <ele>708.45001221</ele>
        <time>2021-03-30T14:55:35Z</time>
      </trkpt>
      <trkpt lat="42.2154433" lon="2.2098856">
        <ele>708.25</ele>
        <time>2021-03-30T14:55:36Z</time>
      </trkpt>
      <trkpt lat="42.2154113" lon="2.2098441">
        <ele>708.11999512</ele>
        <time>2021-03-30T14:55:37Z</time>
      </trkpt>
      <trkpt lat="42.2153854" lon="2.2098055">
        <ele>708.01000977</ele>
        <time>2021-03-30T14:55:38Z</time>
      </trkpt>
      <trkpt lat="42.2153587" lon="2.2097612">
        <ele>707.85998535</ele>
        <time>2021-03-30T14:55:39Z</time>
      </trkpt>
      <trkpt lat="42.2153244" lon="2.2097239">
        <ele>707.63000488</ele>
        <time>2021-03-30T14:55:40Z</time>
      </trkpt>
      <trkpt lat="42.215281" lon="2.2097008">
        <ele>707.33001709</ele>
        <time>2021-03-30T14:55:41Z</time>
      </trkpt>
      <trkpt lat="42.2152435" lon="2.209671">
        <ele>707.03997803</ele>
        <time>2021-03-30T14:55:42Z</time>
      </trkpt>
      <trkpt lat="42.2152071" lon="2.209643">
        <ele>706.83001709</ele>
        <time>2021-03-30T14:55:43Z</time>
      </trkpt>
      <trkpt lat="42.2151783" lon="2.209595">
        <ele>706.70001221</ele>
        <time>2021-03-30T14:55:44Z</time>
      </trkpt>
      <trkpt lat="42.2151444" lon="2.2095623">
        <ele>706.59002686</ele>
        <time>2021-03-30T14:55:45Z</time>
      </trkpt>
      <trkpt lat="42.2151078" lon="2.2095188">
        <ele>706.51000977</ele>
        <time>2021-03-30T14:55:46Z</time>
      </trkpt>
      <trkpt lat="42.2150687" lon="2.2094763">
        <ele>706.40997314</ele>
        <time>2021-03-30T14:55:47Z</time>
      </trkpt>
      <trkpt lat="42.2150327" lon="2.2094375">
        <ele>706.2800293</ele>
        <time>2021-03-30T14:55:48Z</time>
      </trkpt>
      <trkpt lat="42.2150006" lon="2.2094061">
        <ele>706.10998535</ele>
        <time>2021-03-30T14:55:49Z</time>
      </trkpt>
      <trkpt lat="42.2149572" lon="2.2093648">
        <ele>705.96002197</ele>
        <time>2021-03-30T14:55:50Z</time>
      </trkpt>
      <trkpt lat="42.2149119" lon="2.2093213">
        <ele>705.88000488</ele>
        <time>2021-03-30T14:55:51Z</time>
      </trkpt>
      <trkpt lat="42.214867" lon="2.2092872">
        <ele>705.84997559</ele>
        <time>2021-03-30T14:55:52Z</time>
      </trkpt>
      <trkpt lat="42.2148222" lon="2.2092586">
        <ele>705.84002686</ele>
        <time>2021-03-30T14:55:53Z</time>
      </trkpt>
      <trkpt lat="42.2147919" lon="2.2092244">
        <ele>705.84002686</ele>
        <time>2021-03-30T14:55:54Z</time>
      </trkpt>
      <trkpt lat="42.2147588" lon="2.2091818">
        <ele>705.80999756</ele>
        <time>2021-03-30T14:55:55Z</time>
      </trkpt>
      <trkpt lat="42.214723" lon="2.2091539">
        <ele>705.72998047</ele>
        <time>2021-03-30T14:55:56Z</time>
      </trkpt>
      <trkpt lat="42.2146905" lon="2.2091195">
        <ele>705.61999512</ele>
        <time>2021-03-30T14:55:57Z</time>
      </trkpt>
      <trkpt lat="42.2146598" lon="2.209075">
        <ele>705.57000732</ele>
        <time>2021-03-30T14:55:58Z</time>
      </trkpt>
      <trkpt lat="42.2146191" lon="2.2090458">
        <ele>705.55999756</ele>
        <time>2021-03-30T14:55:59Z</time>
      </trkpt>
      <trkpt lat="42.2145896" lon="2.2090088">
        <ele>705.58001709</ele>
        <time>2021-03-30T14:56:00Z</time>
      </trkpt>
      <trkpt lat="42.2145562" lon="2.2089783">
        <ele>705.60998535</ele>
        <time>2021-03-30T14:56:01Z</time>
      </trkpt>
      <trkpt lat="42.2145096" lon="2.2089373">
        <ele>705.61999512</ele>
        <time>2021-03-30T14:56:02Z</time>
      </trkpt>
      <trkpt lat="42.2144723" lon="2.2089041">
        <ele>705.59997559</ele>
        <time>2021-03-30T14:56:03Z</time>
      </trkpt>
      <trkpt lat="42.2144372" lon="2.2088712">
        <ele>705.53997803</ele>
        <time>2021-03-30T14:56:04Z</time>
      </trkpt>
      <trkpt lat="42.2144038" lon="2.2088466">
        <ele>705.46002197</ele>
        <time>2021-03-30T14:56:05Z</time>
      </trkpt>
      <trkpt lat="42.2143638" lon="2.2088203">
        <ele>705.45001221</ele>
        <time>2021-03-30T14:56:06Z</time>
      </trkpt>
      <trkpt lat="42.2143334" lon="2.2087961">
        <ele>705.48999023</ele>
        <time>2021-03-30T14:56:07Z</time>
      </trkpt>
      <trkpt lat="42.2142878" lon="2.2087629">
        <ele>705.54998779</ele>
        <time>2021-03-30T14:56:08Z</time>
      </trkpt>
      <trkpt lat="42.2142473" lon="2.2087339">
        <ele>705.64001465</ele>
        <time>2021-03-30T14:56:09Z</time>
      </trkpt>
      <trkpt lat="42.2142091" lon="2.2087094">
        <ele>705.71002197</ele>
        <time>2021-03-30T14:56:10Z</time>
      </trkpt>
      <trkpt lat="42.2141679" lon="2.2086844">
        <ele>705.7800293</ele>
        <time>2021-03-30T14:56:11Z</time>
      </trkpt>
      <trkpt lat="42.2141255" lon="2.2086536">
        <ele>705.82000732</ele>
        <time>2021-03-30T14:56:12Z</time>
      </trkpt>
      <trkpt lat="42.2140887" lon="2.2086206">
        <ele>705.88000488</ele>
        <time>2021-03-30T14:56:13Z</time>
      </trkpt>
      <trkpt lat="42.2140408" lon="2.2085755">
        <ele>705.94000244</ele>
        <time>2021-03-30T14:56:14Z</time>
      </trkpt>
      <trkpt lat="42.214005" lon="2.2085507">
        <ele>706.0300293</ele>
        <time>2021-03-30T14:56:15Z</time>
      </trkpt>
      <trkpt lat="42.2139612" lon="2.2085177">
        <ele>706.14001465</ele>
        <time>2021-03-30T14:56:16Z</time>
      </trkpt>
      <trkpt lat="42.2139178" lon="2.2084847">
        <ele>706.27001953</ele>
        <time>2021-03-30T14:56:17Z</time>
      </trkpt>
      <trkpt lat="42.2138746" lon="2.2084565">
        <ele>706.38000488</ele>
        <time>2021-03-30T14:56:18Z</time>
      </trkpt>
      <trkpt lat="42.213834" lon="2.2084244">
        <ele>706.48999023</ele>
        <time>2021-03-30T14:56:19Z</time>
      </trkpt>
      <trkpt lat="42.2137907" lon="2.2083969">
        <ele>706.64001465</ele>
        <time>2021-03-30T14:56:20Z</time>
      </trkpt>
      <trkpt lat="42.2137419" lon="2.2083637">
        <ele>706.79998779</ele>
        <time>2021-03-30T14:56:21Z</time>
      </trkpt>
      <trkpt lat="42.2137006" lon="2.2083429">
        <ele>706.9699707</ele>
        <time>2021-03-30T14:56:22Z</time>
      </trkpt>
      <trkpt lat="42.2136632" lon="2.2083023">
        <ele>707.15002441</ele>
        <time>2021-03-30T14:56:23Z</time>
      </trkpt>
      <trkpt lat="42.2136272" lon="2.2082823">
        <ele>707.29998779</ele>
        <time>2021-03-30T14:56:24Z</time>
      </trkpt>
      <trkpt lat="42.2135948" lon="2.2082564">
        <ele>707.46002197</ele>
        <time>2021-03-30T14:56:25Z</time>
      </trkpt>
      <trkpt lat="42.2135629" lon="2.2082258">
        <ele>707.60998535</ele>
        <time>2021-03-30T14:56:26Z</time>
      </trkpt>
      <trkpt lat="42.2135288" lon="2.208192">
        <ele>707.75</ele>
        <time>2021-03-30T14:56:27Z</time>
      </trkpt>
      <trkpt lat="42.2135042" lon="2.2081433">
        <ele>707.86999512</ele>
        <time>2021-03-30T14:56:28Z</time>
      </trkpt>
      <trkpt lat="42.2134674" lon="2.2081034">
        <ele>707.94000244</ele>
        <time>2021-03-30T14:56:29Z</time>
      </trkpt>
      <trkpt lat="42.2134242" lon="2.2080554">
        <ele>707.98999023</ele>
        <time>2021-03-30T14:56:30Z</time>
      </trkpt>
      <trkpt lat="42.213385" lon="2.2080184">
        <ele>708.02001953</ele>
        <time>2021-03-30T14:56:31Z</time>
      </trkpt>
      <trkpt lat="42.2133508" lon="2.2079761">
        <ele>708.07000732</ele>
        <time>2021-03-30T14:56:32Z</time>
      </trkpt>
      <trkpt lat="42.2133048" lon="2.207955">
        <ele>708.09002686</ele>
        <time>2021-03-30T14:56:33Z</time>
      </trkpt>
      <trkpt lat="42.2132675" lon="2.2079214">
        <ele>708.15002441</ele>
        <time>2021-03-30T14:56:34Z</time>
      </trkpt>
      <trkpt lat="42.2132278" lon="2.2078855">
        <ele>708.21002197</ele>
        <time>2021-03-30T14:56:35Z</time>
      </trkpt>
      <trkpt lat="42.2131912" lon="2.2078504">
        <ele>708.27001953</ele>
        <time>2021-03-30T14:56:36Z</time>
      </trkpt>
      <trkpt lat="42.2131539" lon="2.2078181">
        <ele>708.33001709</ele>
        <time>2021-03-30T14:56:37Z</time>
      </trkpt>
      <trkpt lat="42.2131194" lon="2.2077811">
        <ele>708.39001465</ele>
        <time>2021-03-30T14:56:38Z</time>
      </trkpt>
      <trkpt lat="42.2130731" lon="2.2077577">
        <ele>708.44000244</ele>
        <time>2021-03-30T14:56:39Z</time>
      </trkpt>
      <trkpt lat="42.2130296" lon="2.2077373">
        <ele>708.53997803</ele>
        <time>2021-03-30T14:56:40Z</time>
      </trkpt>
      <trkpt lat="42.2129859" lon="2.2077057">
        <ele>708.65002441</ele>
        <time>2021-03-30T14:56:41Z</time>
      </trkpt>
      <trkpt lat="42.2129516" lon="2.207676">
        <ele>708.76000977</ele>
        <time>2021-03-30T14:56:42Z</time>
      </trkpt>
      <trkpt lat="42.2129166" lon="2.2076338">
        <ele>708.83001709</ele>
        <time>2021-03-30T14:56:43Z</time>
      </trkpt>
      <trkpt lat="42.2128846" lon="2.2075971">
        <ele>708.80999756</ele>
        <time>2021-03-30T14:56:44Z</time>
      </trkpt>
      <trkpt lat="42.2128381" lon="2.2075761">
        <ele>708.70001221</ele>
        <time>2021-03-30T14:56:45Z</time>
      </trkpt>
      <trkpt lat="42.2127931" lon="2.2075577">
        <ele>708.54998779</ele>
        <time>2021-03-30T14:56:46Z</time>
      </trkpt>
      <trkpt lat="42.212756" lon="2.2075399">
        <ele>708.38000488</ele>
        <time>2021-03-30T14:56:47Z</time>
      </trkpt>
      <trkpt lat="42.2127148" lon="2.2075136">
        <ele>708.19000244</ele>
        <time>2021-03-30T14:56:48Z</time>
      </trkpt>
      <trkpt lat="42.2126857" lon="2.2074826">
        <ele>708.01000977</ele>
        <time>2021-03-30T14:56:49Z</time>
      </trkpt>
      <trkpt lat="42.2126509" lon="2.2074478">
        <ele>707.83001709</ele>
        <time>2021-03-30T14:56:50Z</time>
      </trkpt>
      <trkpt lat="42.2126169" lon="2.2074187">
        <ele>707.70001221</ele>
        <time>2021-03-30T14:56:51Z</time>
      </trkpt>
      <trkpt lat="42.2125796" lon="2.2073963">
        <ele>707.60998535</ele>
        <time>2021-03-30T14:56:52Z</time>
      </trkpt>
      <trkpt lat="42.2125366" lon="2.2073699">
        <ele>707.54998779</ele>
        <time>2021-03-30T14:56:53Z</time>
      </trkpt>
      <trkpt lat="42.2124908" lon="2.2073385">
        <ele>707.51000977</ele>
        <time>2021-03-30T14:56:54Z</time>
      </trkpt>
      <trkpt lat="42.2124499" lon="2.2073085">
        <ele>707.4699707</ele>
        <time>2021-03-30T14:56:55Z</time>
      </trkpt>
      <trkpt lat="42.2124087" lon="2.207271">
        <ele>707.45001221</ele>
        <time>2021-03-30T14:56:56Z</time>
      </trkpt>
      <trkpt lat="42.2123634" lon="2.2072398">
        <ele>707.44000244</ele>
        <time>2021-03-30T14:56:57Z</time>
      </trkpt>
      <trkpt lat="42.2123181" lon="2.2072202">
        <ele>707.46002197</ele>
        <time>2021-03-30T14:56:58Z</time>
      </trkpt>
      <trkpt lat="42.2122749" lon="2.2071942">
        <ele>707.5300293</ele>
        <time>2021-03-30T14:56:59Z</time>
      </trkpt>
      <trkpt lat="42.2122333" lon="2.207162">
        <ele>707.63000488</ele>
        <time>2021-03-30T14:57:00Z</time>
      </trkpt>
      <trkpt lat="42.2121746" lon="2.2071543">
        <ele>707.73999023</ele>
        <time>2021-03-30T14:57:01Z</time>
      </trkpt>
      <trkpt lat="42.2121379" lon="2.2071165">
        <ele>707.90997314</ele>
        <time>2021-03-30T14:57:02Z</time>
      </trkpt>
      <trkpt lat="42.212094" lon="2.2071133">
        <ele>708.0300293</ele>
        <time>2021-03-30T14:57:03Z</time>
      </trkpt>
      <trkpt lat="42.2120484" lon="2.2070901">
        <ele>708.17999268</ele>
        <time>2021-03-30T14:57:04Z</time>
      </trkpt>
      <trkpt lat="42.2119992" lon="2.2070632">
        <ele>708.29998779</ele>
        <time>2021-03-30T14:57:05Z</time>
      </trkpt>
      <trkpt lat="42.211951" lon="2.2070319">
        <ele>708.35998535</ele>
        <time>2021-03-30T14:57:06Z</time>
      </trkpt>
      <trkpt lat="42.211906" lon="2.2070051">
        <ele>708.33001709</ele>
        <time>2021-03-30T14:57:07Z</time>
      </trkpt>
      <trkpt lat="42.2118574" lon="2.2069963">
        <ele>708.26000977</ele>
        <time>2021-03-30T14:57:08Z</time>
      </trkpt>
      <trkpt lat="42.2118094" lon="2.2069655">
        <ele>708.22998047</ele>
        <time>2021-03-30T14:57:09Z</time>
      </trkpt>
      <trkpt lat="42.2117672" lon="2.2069418">
        <ele>708.20001221</ele>
        <time>2021-03-30T14:57:10Z</time>
      </trkpt>
      <trkpt lat="42.2117238" lon="2.2069129">
        <ele>708.17999268</ele>
        <time>2021-03-30T14:57:11Z</time>
      </trkpt>
      <trkpt lat="42.2116794" lon="2.2068909">
        <ele>708.21002197</ele>
        <time>2021-03-30T14:57:12Z</time>
      </trkpt>
      <trkpt lat="42.2116302" lon="2.2068626">
        <ele>708.27001953</ele>
        <time>2021-03-30T14:57:13Z</time>
      </trkpt>
      <trkpt lat="42.2115869" lon="2.2068301">
        <ele>708.28997803</ele>
        <time>2021-03-30T14:57:14Z</time>
      </trkpt>
      <trkpt lat="42.2115452" lon="2.2067974">
        <ele>708.25</ele>
        <time>2021-03-30T14:57:15Z</time>
      </trkpt>
      <trkpt lat="42.2115017" lon="2.2067701">
        <ele>708.15002441</ele>
        <time>2021-03-30T14:57:16Z</time>
      </trkpt>
      <trkpt lat="42.2114638" lon="2.2067379">
        <ele>708</ele>
        <time>2021-03-30T14:57:17Z</time>
      </trkpt>
      <trkpt lat="42.21143" lon="2.2067118">
        <ele>707.79998779</ele>
        <time>2021-03-30T14:57:18Z</time>
      </trkpt>
      <trkpt lat="42.2114019" lon="2.2066782">
        <ele>707.55999756</ele>
        <time>2021-03-30T14:57:19Z</time>
      </trkpt>
      <trkpt lat="42.2113664" lon="2.2066549">
        <ele>707.28997803</ele>
        <time>2021-03-30T14:57:20Z</time>
      </trkpt>
      <trkpt lat="42.2113334" lon="2.2066312">
        <ele>707.0300293</ele>
        <time>2021-03-30T14:57:21Z</time>
      </trkpt>
      <trkpt lat="42.2112953" lon="2.2066066">
        <ele>706.82000732</ele>
        <time>2021-03-30T14:57:22Z</time>
      </trkpt>
      <trkpt lat="42.2112567" lon="2.2065725">
        <ele>706.65997314</ele>
        <time>2021-03-30T14:57:23Z</time>
      </trkpt>
      <trkpt lat="42.2112181" lon="2.2065418">
        <ele>706.52001953</ele>
        <time>2021-03-30T14:57:24Z</time>
      </trkpt>
      <trkpt lat="42.211187" lon="2.2065097">
        <ele>706.41998291</ele>
        <time>2021-03-30T14:57:25Z</time>
      </trkpt>
      <trkpt lat="42.2111626" lon="2.2064771">
        <ele>706.33001709</ele>
        <time>2021-03-30T14:57:26Z</time>
      </trkpt>
      <trkpt lat="42.2111342" lon="2.2064535">
        <ele>706.22998047</ele>
        <time>2021-03-30T14:57:27Z</time>
      </trkpt>
      <trkpt lat="42.211088" lon="2.2064178">
        <ele>706.15002441</ele>
        <time>2021-03-30T14:57:28Z</time>
      </trkpt>
      <trkpt lat="42.2110523" lon="2.2063941">
        <ele>706.05999756</ele>
        <time>2021-03-30T14:57:29Z</time>
      </trkpt>
      <trkpt lat="42.2110144" lon="2.2063669">
        <ele>705.94000244</ele>
        <time>2021-03-30T14:57:30Z</time>
      </trkpt>
      <trkpt lat="42.2109803" lon="2.2063202">
        <ele>705.7800293</ele>
        <time>2021-03-30T14:57:31Z</time>
      </trkpt>
      <trkpt lat="42.210939" lon="2.2062826">
        <ele>705.59002686</ele>
        <time>2021-03-30T14:57:32Z</time>
      </trkpt>
      <trkpt lat="42.2109034" lon="2.2062485">
        <ele>705.40997314</ele>
        <time>2021-03-30T14:57:33Z</time>
      </trkpt>
      <trkpt lat="42.2108583" lon="2.2062331">
        <ele>705.26000977</ele>
        <time>2021-03-30T14:57:34Z</time>
      </trkpt>
      <trkpt lat="42.2108166" lon="2.2062093">
        <ele>705.16998291</ele>
        <time>2021-03-30T14:57:35Z</time>
      </trkpt>
      <trkpt lat="42.2107688" lon="2.2061921">
        <ele>705.13000488</ele>
        <time>2021-03-30T14:57:36Z</time>
      </trkpt>
      <trkpt lat="42.2107224" lon="2.2061691">
        <ele>705.11999512</ele>
        <time>2021-03-30T14:57:37Z</time>
      </trkpt>
      <trkpt lat="42.2106739" lon="2.206137">
        <ele>705.11999512</ele>
        <time>2021-03-30T14:57:38Z</time>
      </trkpt>
      <trkpt lat="42.2106302" lon="2.2061205">
        <ele>705.10998535</ele>
        <time>2021-03-30T14:57:39Z</time>
      </trkpt>
      <trkpt lat="42.2105889" lon="2.2060885">
        <ele>705.08001709</ele>
        <time>2021-03-30T14:57:40Z</time>
      </trkpt>
      <trkpt lat="42.2105499" lon="2.2060602">
        <ele>705</ele>
        <time>2021-03-30T14:57:41Z</time>
      </trkpt>
      <trkpt lat="42.2105155" lon="2.2060355">
        <ele>704.88000488</ele>
        <time>2021-03-30T14:57:42Z</time>
      </trkpt>
      <trkpt lat="42.2104814" lon="2.2060077">
        <ele>704.7800293</ele>
        <time>2021-03-30T14:57:43Z</time>
      </trkpt>
      <trkpt lat="42.210445" lon="2.2059743">
        <ele>704.71002197</ele>
        <time>2021-03-30T14:57:44Z</time>
      </trkpt>
      <trkpt lat="42.2104085" lon="2.2059444">
        <ele>704.65997314</ele>
        <time>2021-03-30T14:57:45Z</time>
      </trkpt>
      <trkpt lat="42.210376" lon="2.2059116">
        <ele>704.61999512</ele>
        <time>2021-03-30T14:57:46Z</time>
      </trkpt>
      <trkpt lat="42.2103479" lon="2.2058754">
        <ele>704.59002686</ele>
        <time>2021-03-30T14:57:47Z</time>
      </trkpt>
      <trkpt lat="42.210313" lon="2.205858">
        <ele>704.53997803</ele>
        <time>2021-03-30T14:57:48Z</time>
      </trkpt>
      <trkpt lat="42.2102795" lon="2.2058495">
        <ele>704.53997803</ele>
        <time>2021-03-30T14:57:49Z</time>
      </trkpt>
      <trkpt lat="42.2102407" lon="2.2058375">
        <ele>704.58001709</ele>
        <time>2021-03-30T14:57:50Z</time>
      </trkpt>
      <trkpt lat="42.2102011" lon="2.2058119">
        <ele>704.59997559</ele>
        <time>2021-03-30T14:57:51Z</time>
      </trkpt>
      <trkpt lat="42.2101658" lon="2.2057852">
        <ele>704.58001709</ele>
        <time>2021-03-30T14:57:52Z</time>
      </trkpt>
      <trkpt lat="42.2101234" lon="2.2057527">
        <ele>704.5</ele>
        <time>2021-03-30T14:57:53Z</time>
      </trkpt>
      <trkpt lat="42.2100799" lon="2.2057143">
        <ele>704.35998535</ele>
        <time>2021-03-30T14:57:54Z</time>
      </trkpt>
      <trkpt lat="42.2100342" lon="2.2056778">
        <ele>704.15997314</ele>
        <time>2021-03-30T14:57:55Z</time>
      </trkpt>
      <trkpt lat="42.2099882" lon="2.2056474">
        <ele>703.90002441</ele>
        <time>2021-03-30T14:57:56Z</time>
      </trkpt>
      <trkpt lat="42.2099396" lon="2.2056236">
        <ele>703.60998535</ele>
        <time>2021-03-30T14:57:57Z</time>
      </trkpt>
      <trkpt lat="42.209876" lon="2.2055824">
        <ele>703.29998779</ele>
        <time>2021-03-30T14:57:58Z</time>
      </trkpt>
      <trkpt lat="42.2098191" lon="2.2055451">
        <ele>702.94000244</ele>
        <time>2021-03-30T14:57:59Z</time>
      </trkpt>
      <trkpt lat="42.2097606" lon="2.2055099">
        <ele>702.57000732</ele>
        <time>2021-03-30T14:58:00Z</time>
      </trkpt>
      <trkpt lat="42.2097032" lon="2.2054763">
        <ele>702.2199707</ele>
        <time>2021-03-30T14:58:01Z</time>
      </trkpt>
      <trkpt lat="42.2096409" lon="2.2054378">
        <ele>701.91998291</ele>
        <time>2021-03-30T14:58:02Z</time>
      </trkpt>
      <trkpt lat="42.2095812" lon="2.2053987">
        <ele>701.64001465</ele>
        <time>2021-03-30T14:58:03Z</time>
      </trkpt>
      <trkpt lat="42.2095222" lon="2.2053635">
        <ele>701.40002441</ele>
        <time>2021-03-30T14:58:04Z</time>
      </trkpt>
      <trkpt lat="42.2094812" lon="2.2053396">
        <ele>701.17999268</ele>
        <time>2021-03-30T14:58:05Z</time>
      </trkpt>
      <trkpt lat="42.209441" lon="2.2053165">
        <ele>700.97998047</ele>
        <time>2021-03-30T14:58:06Z</time>
      </trkpt>
      <trkpt lat="42.2094018" lon="2.2052897">
        <ele>700.80999756</ele>
        <time>2021-03-30T14:58:07Z</time>
      </trkpt>
      <trkpt lat="42.2093675" lon="2.2052648">
        <ele>700.65997314</ele>
        <time>2021-03-30T14:58:08Z</time>
      </trkpt>
      <trkpt lat="42.2093449" lon="2.2052149">
        <ele>700.52001953</ele>
        <time>2021-03-30T14:58:09Z</time>
      </trkpt>
      <trkpt lat="42.2093424" lon="2.2051397">
        <ele>700.39001465</ele>
        <time>2021-03-30T14:58:10Z</time>
      </trkpt>
      <trkpt lat="42.2093796" lon="2.2050784">
        <ele>700.2800293</ele>
        <time>2021-03-30T14:58:11Z</time>
      </trkpt>
      <trkpt lat="42.2094045" lon="2.2050417">
        <ele>700.19000244</ele>
        <time>2021-03-30T14:58:12Z</time>
      </trkpt>
      <trkpt lat="42.2094234" lon="2.2050082">
        <ele>700.09997559</ele>
        <time>2021-03-30T14:58:13Z</time>
      </trkpt>
      <trkpt lat="42.2094494" lon="2.2049346">
        <ele>700.02001953</ele>
        <time>2021-03-30T14:58:14Z</time>
      </trkpt>
      <trkpt lat="42.2094741" lon="2.2048714">
        <ele>699.95001221</ele>
        <time>2021-03-30T14:58:15Z</time>
      </trkpt>
      <trkpt lat="42.2094872" lon="2.2048111">
        <ele>699.89001465</ele>
        <time>2021-03-30T14:58:16Z</time>
      </trkpt>
      <trkpt lat="42.2094863" lon="2.2047361">
        <ele>699.83001709</ele>
        <time>2021-03-30T14:58:17Z</time>
      </trkpt>
      <trkpt lat="42.2094626" lon="2.2046768">
        <ele>699.7800293</ele>
        <time>2021-03-30T14:58:18Z</time>
      </trkpt>
      <trkpt lat="42.2094356" lon="2.2046502">
        <ele>699.73999023</ele>
        <time>2021-03-30T14:58:19Z</time>
      </trkpt>
      <trkpt lat="42.2093773" lon="2.2046252">
        <ele>699.70001221</ele>
        <time>2021-03-30T14:58:20Z</time>
      </trkpt>
      <trkpt lat="42.2093381" lon="2.2046007">
        <ele>699.65997314</ele>
        <time>2021-03-30T14:58:21Z</time>
      </trkpt>
      <trkpt lat="42.2092889" lon="2.204577">
        <ele>699.63000488</ele>
        <time>2021-03-30T14:58:22Z</time>
      </trkpt>
      <trkpt lat="42.2092408" lon="2.2045481">
        <ele>699.59997559</ele>
        <time>2021-03-30T14:58:23Z</time>
      </trkpt>
      <trkpt lat="42.2092072" lon="2.2045285">
        <ele>699.58001709</ele>
        <time>2021-03-30T14:58:24Z</time>
      </trkpt>
      <trkpt lat="42.2091776" lon="2.2045103">
        <ele>699.55999756</ele>
        <time>2021-03-30T14:58:25Z</time>
      </trkpt>
      <trkpt lat="42.2091361" lon="2.2044717">
        <ele>699.53997803</ele>
        <time>2021-03-30T14:58:26Z</time>
      </trkpt>
      <trkpt lat="42.2090958" lon="2.2044492">
        <ele>699.52001953</ele>
        <time>2021-03-30T14:58:27Z</time>
      </trkpt>
      <trkpt lat="42.2090528" lon="2.2044236">
        <ele>699.5</ele>
        <time>2021-03-30T14:58:28Z</time>
      </trkpt>
      <trkpt lat="42.2090239" lon="2.2044006">
        <ele>699.48999023</ele>
        <time>2021-03-30T14:58:29Z</time>
      </trkpt>
      <trkpt lat="42.2089912" lon="2.2043761">
        <ele>699.47998047</ele>
        <time>2021-03-30T14:58:30Z</time>
      </trkpt>
      <trkpt lat="42.2089514" lon="2.2043403">
        <ele>699.4699707</ele>
        <time>2021-03-30T14:58:31Z</time>
      </trkpt>
      <trkpt lat="42.2089146" lon="2.2043">
        <ele>699.46002197</ele>
        <time>2021-03-30T14:58:32Z</time>
      </trkpt>
      <trkpt lat="42.2088841" lon="2.2042551">
        <ele>699.45001221</ele>
        <time>2021-03-30T14:58:33Z</time>
      </trkpt>
      <trkpt lat="42.2088584" lon="2.2042204">
        <ele>699.44000244</ele>
        <time>2021-03-30T14:58:34Z</time>
      </trkpt>
      <trkpt lat="42.2088273" lon="2.2041943">
        <ele>699.42999268</ele>
        <time>2021-03-30T14:58:35Z</time>
      </trkpt>
      <trkpt lat="42.2087984" lon="2.2041704">
        <ele>699.42999268</ele>
        <time>2021-03-30T14:58:36Z</time>
      </trkpt>
      <trkpt lat="42.2087615" lon="2.2041371">
        <ele>699.41998291</ele>
        <time>2021-03-30T14:58:37Z</time>
      </trkpt>
      <trkpt lat="42.2087229" lon="2.2040987">
        <ele>699.40997314</ele>
        <time>2021-03-30T14:58:38Z</time>
      </trkpt>
      <trkpt lat="42.2086932" lon="2.2040653">
        <ele>699.40997314</ele>
        <time>2021-03-30T14:58:39Z</time>
      </trkpt>
      <trkpt lat="42.2086635" lon="2.2040395">
        <ele>699.40997314</ele>
        <time>2021-03-30T14:58:40Z</time>
      </trkpt>
      <trkpt lat="42.2086382" lon="2.2040017">
        <ele>699.40002441</ele>
        <time>2021-03-30T14:58:41Z</time>
      </trkpt>
      <trkpt lat="42.2086028" lon="2.2039496">
        <ele>699.40002441</ele>
        <time>2021-03-30T14:58:42Z</time>
      </trkpt>
      <trkpt lat="42.2085734" lon="2.2039093">
        <ele>699.40002441</ele>
        <time>2021-03-30T14:58:43Z</time>
      </trkpt>
      <trkpt lat="42.2085454" lon="2.2038693">
        <ele>699.39001465</ele>
        <time>2021-03-30T14:58:44Z</time>
      </trkpt>
      <trkpt lat="42.2085135" lon="2.2038285">
        <ele>699.39001465</ele>
        <time>2021-03-30T14:58:45Z</time>
      </trkpt>
      <trkpt lat="42.2084793" lon="2.2037803">
        <ele>699.39001465</ele>
        <time>2021-03-30T14:58:46Z</time>
      </trkpt>
      <trkpt lat="42.2084488" lon="2.2037363">
        <ele>699.39001465</ele>
        <time>2021-03-30T14:58:47Z</time>
      </trkpt>
      <trkpt lat="42.2084124" lon="2.2036912">
        <ele>699.39001465</ele>
        <time>2021-03-30T14:58:48Z</time>
      </trkpt>
      <trkpt lat="42.2083878" lon="2.2036523">
        <ele>699.38000488</ele>
        <time>2021-03-30T14:58:49Z</time>
      </trkpt>
      <trkpt lat="42.2083638" lon="2.2036158">
        <ele>699.38000488</ele>
        <time>2021-03-30T14:58:50Z</time>
      </trkpt>
      <trkpt lat="42.2083373" lon="2.2035697">
        <ele>699.38000488</ele>
        <time>2021-03-30T14:58:51Z</time>
      </trkpt>
      <trkpt lat="42.2083009" lon="2.2035209">
        <ele>699.38000488</ele>
        <time>2021-03-30T14:58:52Z</time>
      </trkpt>
      <trkpt lat="42.2082803" lon="2.2034688">
        <ele>699.38000488</ele>
        <time>2021-03-30T14:58:53Z</time>
      </trkpt>
      <trkpt lat="42.2082613" lon="2.2034333">
        <ele>699.38000488</ele>
        <time>2021-03-30T14:58:54Z</time>
      </trkpt>
      <trkpt lat="42.2082404" lon="2.2033981">
        <ele>699.38000488</ele>
        <time>2021-03-30T14:58:55Z</time>
      </trkpt>
      <trkpt lat="42.2082204" lon="2.2033557">
        <ele>699.38000488</ele>
        <time>2021-03-30T14:58:56Z</time>
      </trkpt>
      <trkpt lat="42.2081638" lon="2.2032607">
        <ele>699.35998535</ele>
        <time>2021-03-30T14:58:58Z</time>
      </trkpt>
      <trkpt lat="42.2081258" lon="2.2032111">
        <ele>699.30999756</ele>
        <time>2021-03-30T14:58:59Z</time>
      </trkpt>
      <trkpt lat="42.2081014" lon="2.2031657">
        <ele>699.25</ele>
        <time>2021-03-30T14:59:00Z</time>
      </trkpt>
      <trkpt lat="42.2080768" lon="2.2031182">
        <ele>699.21002197</ele>
        <time>2021-03-30T14:59:01Z</time>
      </trkpt>
      <trkpt lat="42.2080549" lon="2.2030737">
        <ele>699.19000244</ele>
        <time>2021-03-30T14:59:02Z</time>
      </trkpt>
      <trkpt lat="42.2080301" lon="2.203023">
        <ele>699.20001221</ele>
        <time>2021-03-30T14:59:03Z</time>
      </trkpt>
      <trkpt lat="42.2080061" lon="2.2029784">
        <ele>699.16998291</ele>
        <time>2021-03-30T14:59:04Z</time>
      </trkpt>
      <trkpt lat="42.2079769" lon="2.2029313">
        <ele>699.07000732</ele>
        <time>2021-03-30T14:59:05Z</time>
      </trkpt>
      <trkpt lat="42.207952" lon="2.2028904">
        <ele>698.91998291</ele>
        <time>2021-03-30T14:59:06Z</time>
      </trkpt>
      <trkpt lat="42.2079225" lon="2.2028262">
        <ele>698.76000977</ele>
        <time>2021-03-30T14:59:07Z</time>
      </trkpt>
      <trkpt lat="42.2079104" lon="2.2027965">
        <ele>698.58001709</ele>
        <time>2021-03-30T14:59:08Z</time>
      </trkpt>
      <trkpt lat="42.2078944" lon="2.2027664">
        <ele>698.40997314</ele>
        <time>2021-03-30T14:59:09Z</time>
      </trkpt>
      <trkpt lat="42.2078725" lon="2.2027183">
        <ele>698.26000977</ele>
        <time>2021-03-30T14:59:10Z</time>
      </trkpt>
      <trkpt lat="42.2078479" lon="2.2026735">
        <ele>698.10998535</ele>
        <time>2021-03-30T14:59:11Z</time>
      </trkpt>
      <trkpt lat="42.2078172" lon="2.2026333">
        <ele>697.94000244</ele>
        <time>2021-03-30T14:59:12Z</time>
      </trkpt>
      <trkpt lat="42.207791" lon="2.2025881">
        <ele>697.76000977</ele>
        <time>2021-03-30T14:59:13Z</time>
      </trkpt>
      <trkpt lat="42.2077682" lon="2.2025402">
        <ele>697.53997803</ele>
        <time>2021-03-30T14:59:14Z</time>
      </trkpt>
      <trkpt lat="42.2077476" lon="2.2024967">
        <ele>697.27001953</ele>
        <time>2021-03-30T14:59:15Z</time>
      </trkpt>
      <trkpt lat="42.2077294" lon="2.202469">
        <ele>696.98999023</ele>
        <time>2021-03-30T14:59:16Z</time>
      </trkpt>
      <trkpt lat="42.207714" lon="2.2024315">
        <ele>696.76000977</ele>
        <time>2021-03-30T14:59:17Z</time>
      </trkpt>
      <trkpt lat="42.2076917" lon="2.2023942">
        <ele>696.55999756</ele>
        <time>2021-03-30T14:59:18Z</time>
      </trkpt>
      <trkpt lat="42.2076647" lon="2.2023591">
        <ele>696.40002441</ele>
        <time>2021-03-30T14:59:19Z</time>
      </trkpt>
      <trkpt lat="42.2076383" lon="2.2023311">
        <ele>696.26000977</ele>
        <time>2021-03-30T14:59:20Z</time>
      </trkpt>
      <trkpt lat="42.2076187" lon="2.202305">
        <ele>696.14001465</ele>
        <time>2021-03-30T14:59:21Z</time>
      </trkpt>
      <trkpt lat="42.2076091" lon="2.202271">
        <ele>696.01000977</ele>
        <time>2021-03-30T14:59:22Z</time>
      </trkpt>
      <trkpt lat="42.2076074" lon="2.2022174">
        <ele>695.85998535</ele>
        <time>2021-03-30T14:59:23Z</time>
      </trkpt>
      <trkpt lat="42.2076258" lon="2.2021647">
        <ele>695.67999268</ele>
        <time>2021-03-30T14:59:24Z</time>
      </trkpt>
      <trkpt lat="42.2076408" lon="2.2021259">
        <ele>695.55999756</ele>
        <time>2021-03-30T14:59:25Z</time>
      </trkpt>
      <trkpt lat="42.2076488" lon="2.2020916">
        <ele>695.48999023</ele>
        <time>2021-03-30T14:59:26Z</time>
      </trkpt>
      <trkpt lat="42.2076456" lon="2.2020432">
        <ele>695.46002197</ele>
        <time>2021-03-30T14:59:27Z</time>
      </trkpt>
      <trkpt lat="42.2076246" lon="2.2020037">
        <ele>695.47998047</ele>
        <time>2021-03-30T14:59:28Z</time>
      </trkpt>
      <trkpt lat="42.207609" lon="2.2019684">
        <ele>695.55999756</ele>
        <time>2021-03-30T14:59:29Z</time>
      </trkpt>
      <trkpt lat="42.2075874" lon="2.2019286">
        <ele>695.71002197</ele>
        <time>2021-03-30T14:59:30Z</time>
      </trkpt>
      <trkpt lat="42.2075728" lon="2.2018834">
        <ele>695.90002441</ele>
        <time>2021-03-30T14:59:31Z</time>
      </trkpt>
      <trkpt lat="42.207563" lon="2.2018248">
        <ele>696.0300293</ele>
        <time>2021-03-30T14:59:32Z</time>
      </trkpt>
      <trkpt lat="42.2075308" lon="2.2017817">
        <ele>696.08001709</ele>
        <time>2021-03-30T14:59:33Z</time>
      </trkpt>
      <trkpt lat="42.2074925" lon="2.2017518">
        <ele>696.07000732</ele>
        <time>2021-03-30T14:59:34Z</time>
      </trkpt>
      <trkpt lat="42.2074558" lon="2.2017198">
        <ele>696.03997803</ele>
        <time>2021-03-30T14:59:35Z</time>
      </trkpt>
      <trkpt lat="42.207426" lon="2.2016935">
        <ele>695.94000244</ele>
        <time>2021-03-30T14:59:36Z</time>
      </trkpt>
      <trkpt lat="42.2073953" lon="2.2016761">
        <ele>695.78997803</ele>
        <time>2021-03-30T14:59:37Z</time>
      </trkpt>
      <trkpt lat="42.2073542" lon="2.2016525">
        <ele>695.63000488</ele>
        <time>2021-03-30T14:59:38Z</time>
      </trkpt>
      <trkpt lat="42.207319" lon="2.2016416">
        <ele>695.46002197</ele>
        <time>2021-03-30T14:59:39Z</time>
      </trkpt>
      <trkpt lat="42.2072838" lon="2.2016305">
        <ele>695.30999756</ele>
        <time>2021-03-30T14:59:40Z</time>
      </trkpt>
      <trkpt lat="42.2072439" lon="2.201618">
        <ele>695.16998291</ele>
        <time>2021-03-30T14:59:41Z</time>
      </trkpt>
      <trkpt lat="42.2072064" lon="2.2015979">
        <ele>695.04998779</ele>
        <time>2021-03-30T14:59:42Z</time>
      </trkpt>
      <trkpt lat="42.2071686" lon="2.2015719">
        <ele>694.96002197</ele>
        <time>2021-03-30T14:59:43Z</time>
      </trkpt>
      <trkpt lat="42.2071458" lon="2.2015281">
        <ele>694.92999268</ele>
        <time>2021-03-30T14:59:44Z</time>
      </trkpt>
      <trkpt lat="42.2071142" lon="2.2014727">
        <ele>694.90997314</ele>
        <time>2021-03-30T14:59:45Z</time>
      </trkpt>
      <trkpt lat="42.2070848" lon="2.2014188">
        <ele>694.89001465</ele>
        <time>2021-03-30T14:59:46Z</time>
      </trkpt>
      <trkpt lat="42.2070643" lon="2.2013581">
        <ele>694.83001709</ele>
        <time>2021-03-30T14:59:47Z</time>
      </trkpt>
      <trkpt lat="42.207036" lon="2.2013167">
        <ele>694.75</ele>
        <time>2021-03-30T14:59:48Z</time>
      </trkpt>
      <trkpt lat="42.207015" lon="2.2012775">
        <ele>694.66998291</ele>
        <time>2021-03-30T14:59:49Z</time>
      </trkpt>
      <trkpt lat="42.2069898" lon="2.2012274">
        <ele>694.60998535</ele>
        <time>2021-03-30T14:59:50Z</time>
      </trkpt>
      <trkpt lat="42.2069602" lon="2.2011791">
        <ele>694.54998779</ele>
        <time>2021-03-30T14:59:51Z</time>
      </trkpt>
      <trkpt lat="42.2069322" lon="2.2011348">
        <ele>694.48999023</ele>
        <time>2021-03-30T14:59:52Z</time>
      </trkpt>
      <trkpt lat="42.2069047" lon="2.2010909">
        <ele>694.44000244</ele>
        <time>2021-03-30T14:59:53Z</time>
      </trkpt>
      <trkpt lat="42.2068719" lon="2.2010396">
        <ele>694.40002441</ele>
        <time>2021-03-30T14:59:54Z</time>
      </trkpt>
      <trkpt lat="42.2068393" lon="2.2009879">
        <ele>694.35998535</ele>
        <time>2021-03-30T14:59:55Z</time>
      </trkpt>
      <trkpt lat="42.2068014" lon="2.2009344">
        <ele>694.33001709</ele>
        <time>2021-03-30T14:59:56Z</time>
      </trkpt>
      <trkpt lat="42.206769" lon="2.2008736">
        <ele>694.29998779</ele>
        <time>2021-03-30T14:59:57Z</time>
      </trkpt>
      <trkpt lat="42.2067371" lon="2.200814">
        <ele>694.27001953</ele>
        <time>2021-03-30T14:59:58Z</time>
      </trkpt>
      <trkpt lat="42.2067069" lon="2.2007655">
        <ele>694.23999023</ele>
        <time>2021-03-30T14:59:59Z</time>
      </trkpt>
      <trkpt lat="42.2066852" lon="2.2007115">
        <ele>694.2199707</ele>
        <time>2021-03-30T15:00:00Z</time>
      </trkpt>
      <trkpt lat="42.2066609" lon="2.2006614">
        <ele>694.20001221</ele>
        <time>2021-03-30T15:00:01Z</time>
      </trkpt>
      <trkpt lat="42.2066313" lon="2.2006061">
        <ele>694.19000244</ele>
        <time>2021-03-30T15:00:02Z</time>
      </trkpt>
      <trkpt lat="42.2066043" lon="2.2005519">
        <ele>694.16998291</ele>
        <time>2021-03-30T15:00:03Z</time>
      </trkpt>
      <trkpt lat="42.2065633" lon="2.2004974">
        <ele>694.15997314</ele>
        <time>2021-03-30T15:00:04Z</time>
      </trkpt>
      <trkpt lat="42.2065459" lon="2.2004429">
        <ele>694.14001465</ele>
        <time>2021-03-30T15:00:05Z</time>
      </trkpt>
      <trkpt lat="42.2065166" lon="2.200381">
        <ele>694.13000488</ele>
        <time>2021-03-30T15:00:06Z</time>
      </trkpt>
      <trkpt lat="42.2064805" lon="2.2003148">
        <ele>694.11999512</ele>
        <time>2021-03-30T15:00:07Z</time>
      </trkpt>
      <trkpt lat="42.2064463" lon="2.2002521">
        <ele>694.10998535</ele>
        <time>2021-03-30T15:00:08Z</time>
      </trkpt>
      <trkpt lat="42.2064165" lon="2.2001812">
        <ele>694.09997559</ele>
        <time>2021-03-30T15:00:09Z</time>
      </trkpt>
      <trkpt lat="42.2063868" lon="2.2001241">
        <ele>694.07000732</ele>
        <time>2021-03-30T15:00:10Z</time>
      </trkpt>
      <trkpt lat="42.2063542" lon="2.2000668">
        <ele>694.07000732</ele>
        <time>2021-03-30T15:00:11Z</time>
      </trkpt>
      <trkpt lat="42.2063147" lon="2.1999929">
        <ele>694.05999756</ele>
        <time>2021-03-30T15:00:12Z</time>
      </trkpt>
      <trkpt lat="42.2062784" lon="2.1999292">
        <ele>694.04998779</ele>
        <time>2021-03-30T15:00:13Z</time>
      </trkpt>
      <trkpt lat="42.2062363" lon="2.1998759">
        <ele>693.9699707</ele>
        <time>2021-03-30T15:00:14Z</time>
      </trkpt>
      <trkpt lat="42.2062038" lon="2.1998123">
        <ele>693.86999512</ele>
        <time>2021-03-30T15:00:15Z</time>
      </trkpt>
      <trkpt lat="42.2061587" lon="2.1997292">
        <ele>693.76000977</ele>
        <time>2021-03-30T15:00:16Z</time>
      </trkpt>
      <trkpt lat="42.206123" lon="2.1996617">
        <ele>693.69000244</ele>
        <time>2021-03-30T15:00:17Z</time>
      </trkpt>
      <trkpt lat="42.2060881" lon="2.1996">
        <ele>693.59002686</ele>
        <time>2021-03-30T15:00:18Z</time>
      </trkpt>
      <trkpt lat="42.2060484" lon="2.1995463">
        <ele>693.40997314</ele>
        <time>2021-03-30T15:00:20Z</time>
      </trkpt>
      <trkpt lat="42.206009" lon="2.1994795">
        <ele>693.21002197</ele>
        <time>2021-03-30T15:00:21Z</time>
      </trkpt>
      <trkpt lat="42.2059867" lon="2.199428">
        <ele>692.97998047</ele>
        <time>2021-03-30T15:00:22Z</time>
      </trkpt>
      <trkpt lat="42.2059609" lon="2.1993756">
        <ele>692.7800293</ele>
        <time>2021-03-30T15:00:23Z</time>
      </trkpt>
      <trkpt lat="42.2059369" lon="2.1993326">
        <ele>692.65002441</ele>
        <time>2021-03-30T15:00:24Z</time>
      </trkpt>
      <trkpt lat="42.2059195" lon="2.1993025">
        <ele>692.58001709</ele>
        <time>2021-03-30T15:00:25Z</time>
      </trkpt>
      <trkpt lat="42.2059184" lon="2.1992907">
        <ele>692.54998779</ele>
        <time>2021-03-30T15:00:26Z</time>
      </trkpt>
      <trkpt lat="42.2059153" lon="2.1992567">
        <ele>692.53997803</ele>
        <time>2021-03-30T15:00:27Z</time>
      </trkpt>
      <trkpt lat="42.2058913" lon="2.1992089">
        <ele>692.5300293</ele>
        <time>2021-03-30T15:00:28Z</time>
      </trkpt>
      <trkpt lat="42.2058724" lon="2.1991866">
        <ele>692.57000732</ele>
        <time>2021-03-30T15:00:29Z</time>
      </trkpt>
      <trkpt lat="42.2058566" lon="2.1991585">
        <ele>692.64001465</ele>
        <time>2021-03-30T15:00:30Z</time>
      </trkpt>
      <trkpt lat="42.2058311" lon="2.1991063">
        <ele>692.7199707</ele>
        <time>2021-03-30T15:00:31Z</time>
      </trkpt>
      <trkpt lat="42.2058125" lon="2.1990663">
        <ele>692.75</ele>
        <time>2021-03-30T15:00:32Z</time>
      </trkpt>
      <trkpt lat="42.2057805" lon="2.1990232">
        <ele>692.72998047</ele>
        <time>2021-03-30T15:00:33Z</time>
      </trkpt>
      <trkpt lat="42.2057594" lon="2.198981">
        <ele>692.69000244</ele>
        <time>2021-03-30T15:00:34Z</time>
      </trkpt>
      <trkpt lat="42.2057528" lon="2.1989691">
        <ele>692.60998535</ele>
        <time>2021-03-30T15:00:35Z</time>
      </trkpt>
      <trkpt lat="42.2057326" lon="2.1989394">
        <ele>692.52001953</ele>
        <time>2021-03-30T15:00:36Z</time>
      </trkpt>
      <trkpt lat="42.2057043" lon="2.1989016">
        <ele>692.42999268</ele>
        <time>2021-03-30T15:00:37Z</time>
      </trkpt>
      <trkpt lat="42.2056715" lon="2.1988516">
        <ele>692.32000732</ele>
        <time>2021-03-30T15:00:38Z</time>
      </trkpt>
      <trkpt lat="42.205642" lon="2.1988056">
        <ele>692.19000244</ele>
        <time>2021-03-30T15:00:39Z</time>
      </trkpt>
      <trkpt lat="42.2056182" lon="2.1987666">
        <ele>692.04998779</ele>
        <time>2021-03-30T15:00:40Z</time>
      </trkpt>
      <trkpt lat="42.2055993" lon="2.1987203">
        <ele>691.88000488</ele>
        <time>2021-03-30T15:00:41Z</time>
      </trkpt>
      <trkpt lat="42.205584" lon="2.1986755">
        <ele>691.67999268</ele>
        <time>2021-03-30T15:00:42Z</time>
      </trkpt>
      <trkpt lat="42.2055622" lon="2.1986308">
        <ele>691.44000244</ele>
        <time>2021-03-30T15:00:43Z</time>
      </trkpt>
      <trkpt lat="42.2055365" lon="2.1985964">
        <ele>691.17999268</ele>
        <time>2021-03-30T15:00:44Z</time>
      </trkpt>
      <trkpt lat="42.205512" lon="2.1985609">
        <ele>690.96002197</ele>
        <time>2021-03-30T15:00:45Z</time>
      </trkpt>
      <trkpt lat="42.205489" lon="2.1985206">
        <ele>690.78997803</ele>
        <time>2021-03-30T15:00:46Z</time>
      </trkpt>
      <trkpt lat="42.2054678" lon="2.1984868">
        <ele>690.65002441</ele>
        <time>2021-03-30T15:00:47Z</time>
      </trkpt>
      <trkpt lat="42.2054349" lon="2.1984325">
        <ele>690.54998779</ele>
        <time>2021-03-30T15:00:48Z</time>
      </trkpt>
      <trkpt lat="42.205406" lon="2.1983811">
        <ele>690.47998047</ele>
        <time>2021-03-30T15:00:49Z</time>
      </trkpt>
      <trkpt lat="42.2053778" lon="2.1983232">
        <ele>690.42999268</ele>
        <time>2021-03-30T15:00:50Z</time>
      </trkpt>
      <trkpt lat="42.2053496" lon="2.1982735">
        <ele>690.34997559</ele>
        <time>2021-03-30T15:00:51Z</time>
      </trkpt>
      <trkpt lat="42.2053158" lon="2.1982226">
        <ele>690.26000977</ele>
        <time>2021-03-30T15:00:52Z</time>
      </trkpt>
      <trkpt lat="42.205283" lon="2.1981683">
        <ele>690.14001465</ele>
        <time>2021-03-30T15:00:53Z</time>
      </trkpt>
      <trkpt lat="42.2052535" lon="2.1981132">
        <ele>689.97998047</ele>
        <time>2021-03-30T15:00:54Z</time>
      </trkpt>
      <trkpt lat="42.2052403" lon="2.1980676">
        <ele>689.84997559</ele>
        <time>2021-03-30T15:00:55Z</time>
      </trkpt>
      <trkpt lat="42.2052167" lon="2.1979954">
        <ele>689.69000244</ele>
        <time>2021-03-30T15:00:56Z</time>
      </trkpt>
      <trkpt lat="42.2052033" lon="2.1979459">
        <ele>689.48999023</ele>
        <time>2021-03-30T15:00:57Z</time>
      </trkpt>
      <trkpt lat="42.2051832" lon="2.1979062">
        <ele>689.27001953</ele>
        <time>2021-03-30T15:00:58Z</time>
      </trkpt>
      <trkpt lat="42.2051465" lon="2.1978476">
        <ele>689.07000732</ele>
        <time>2021-03-30T15:00:59Z</time>
      </trkpt>
      <trkpt lat="42.2051114" lon="2.1977808">
        <ele>688.91998291</ele>
        <time>2021-03-30T15:01:00Z</time>
      </trkpt>
      <trkpt lat="42.2050742" lon="2.1977194">
        <ele>688.78997803</ele>
        <time>2021-03-30T15:01:01Z</time>
      </trkpt>
      <trkpt lat="42.2050348" lon="2.1976737">
        <ele>688.72998047</ele>
        <time>2021-03-30T15:01:02Z</time>
      </trkpt>
      <trkpt lat="42.204994" lon="2.1976187">
        <ele>688.73999023</ele>
        <time>2021-03-30T15:01:03Z</time>
      </trkpt>
      <trkpt lat="42.2049615" lon="2.1975709">
        <ele>688.77001953</ele>
        <time>2021-03-30T15:01:04Z</time>
      </trkpt>
      <trkpt lat="42.2049222" lon="2.1975312">
        <ele>688.7800293</ele>
        <time>2021-03-30T15:01:05Z</time>
      </trkpt>
      <trkpt lat="42.2048743" lon="2.1974936">
        <ele>688.78997803</ele>
        <time>2021-03-30T15:01:06Z</time>
      </trkpt>
      <trkpt lat="42.2048386" lon="2.1974648">
        <ele>688.79998779</ele>
        <time>2021-03-30T15:01:07Z</time>
      </trkpt>
      <trkpt lat="42.2048144" lon="2.197424">
        <ele>688.82000732</ele>
        <time>2021-03-30T15:01:08Z</time>
      </trkpt>
      <trkpt lat="42.2047893" lon="2.197391">
        <ele>688.80999756</ele>
        <time>2021-03-30T15:01:09Z</time>
      </trkpt>
      <trkpt lat="42.2047627" lon="2.1973558">
        <ele>688.78997803</ele>
        <time>2021-03-30T15:01:10Z</time>
      </trkpt>
      <trkpt lat="42.2047367" lon="2.1973168">
        <ele>688.75</ele>
        <time>2021-03-30T15:01:11Z</time>
      </trkpt>
      <trkpt lat="42.2047121" lon="2.1972866">
        <ele>688.69000244</ele>
        <time>2021-03-30T15:01:12Z</time>
      </trkpt>
      <trkpt lat="42.2046811" lon="2.1972486">
        <ele>688.64001465</ele>
        <time>2021-03-30T15:01:13Z</time>
      </trkpt>
      <trkpt lat="42.2046526" lon="2.1972189">
        <ele>688.65002441</ele>
        <time>2021-03-30T15:01:14Z</time>
      </trkpt>
      <trkpt lat="42.2046274" lon="2.197186">
        <ele>688.71002197</ele>
        <time>2021-03-30T15:01:15Z</time>
      </trkpt>
      <trkpt lat="42.2046003" lon="2.1971527">
        <ele>688.84002686</ele>
        <time>2021-03-30T15:01:16Z</time>
      </trkpt>
      <trkpt lat="42.2045656" lon="2.1971216">
        <ele>689.02001953</ele>
        <time>2021-03-30T15:01:17Z</time>
      </trkpt>
      <trkpt lat="42.2045312" lon="2.1970872">
        <ele>689.2800293</ele>
        <time>2021-03-30T15:01:18Z</time>
      </trkpt>
      <trkpt lat="42.2045035" lon="2.1970476">
        <ele>689.57000732</ele>
        <time>2021-03-30T15:01:19Z</time>
      </trkpt>
      <trkpt lat="42.204474" lon="2.1970018">
        <ele>689.84997559</ele>
        <time>2021-03-30T15:01:20Z</time>
      </trkpt>
      <trkpt lat="42.204422" lon="2.1969699">
        <ele>690.10998535</ele>
        <time>2021-03-30T15:01:21Z</time>
      </trkpt>
      <trkpt lat="42.2043854" lon="2.1969456">
        <ele>690.39001465</ele>
        <time>2021-03-30T15:01:22Z</time>
      </trkpt>
      <trkpt lat="42.204344" lon="2.1969169">
        <ele>690.66998291</ele>
        <time>2021-03-30T15:01:23Z</time>
      </trkpt>
      <trkpt lat="42.20431" lon="2.1968922">
        <ele>690.94000244</ele>
        <time>2021-03-30T15:01:24Z</time>
      </trkpt>
      <trkpt lat="42.2042809" lon="2.1968626">
        <ele>691.20001221</ele>
        <time>2021-03-30T15:01:25Z</time>
      </trkpt>
      <trkpt lat="42.2042413" lon="2.1968302">
        <ele>691.42999268</ele>
        <time>2021-03-30T15:01:26Z</time>
      </trkpt>
      <trkpt lat="42.2041975" lon="2.1967936">
        <ele>691.65997314</ele>
        <time>2021-03-30T15:01:27Z</time>
      </trkpt>
      <trkpt lat="42.20416" lon="2.1967528">
        <ele>691.86999512</ele>
        <time>2021-03-30T15:01:28Z</time>
      </trkpt>
      <trkpt lat="42.204125" lon="2.1967029">
        <ele>692.07000732</ele>
        <time>2021-03-30T15:01:29Z</time>
      </trkpt>
      <trkpt lat="42.2040976" lon="2.1966485">
        <ele>692.28997803</ele>
        <time>2021-03-30T15:01:30Z</time>
      </trkpt>
      <trkpt lat="42.2040703" lon="2.1965931">
        <ele>692.47998047</ele>
        <time>2021-03-30T15:01:31Z</time>
      </trkpt>
      <trkpt lat="42.2040408" lon="2.1965401">
        <ele>692.59997559</ele>
        <time>2021-03-30T15:01:32Z</time>
      </trkpt>
      <trkpt lat="42.204012" lon="2.196487">
        <ele>692.65997314</ele>
        <time>2021-03-30T15:01:33Z</time>
      </trkpt>
      <trkpt lat="42.2039794" lon="2.196445">
        <ele>692.64001465</ele>
        <time>2021-03-30T15:01:34Z</time>
      </trkpt>
      <trkpt lat="42.2039445" lon="2.196402">
        <ele>692.57000732</ele>
        <time>2021-03-30T15:01:35Z</time>
      </trkpt>
      <trkpt lat="42.2039126" lon="2.1963579">
        <ele>692.42999268</ele>
        <time>2021-03-30T15:01:36Z</time>
      </trkpt>
      <trkpt lat="42.2038798" lon="2.1963115">
        <ele>692.27001953</ele>
        <time>2021-03-30T15:01:37Z</time>
      </trkpt>
      <trkpt lat="42.2038478" lon="2.1962597">
        <ele>692.09997559</ele>
        <time>2021-03-30T15:01:38Z</time>
      </trkpt>
      <trkpt lat="42.2038112" lon="2.1962087">
        <ele>691.94000244</ele>
        <time>2021-03-30T15:01:39Z</time>
      </trkpt>
      <trkpt lat="42.2037791" lon="2.1961563">
        <ele>691.7800293</ele>
        <time>2021-03-30T15:01:40Z</time>
      </trkpt>
      <trkpt lat="42.2037479" lon="2.1961079">
        <ele>691.58001709</ele>
        <time>2021-03-30T15:01:41Z</time>
      </trkpt>
      <trkpt lat="42.2037167" lon="2.196069">
        <ele>691.34002686</ele>
        <time>2021-03-30T15:01:42Z</time>
      </trkpt>
      <trkpt lat="42.2036907" lon="2.1960176">
        <ele>691.09997559</ele>
        <time>2021-03-30T15:01:43Z</time>
      </trkpt>
      <trkpt lat="42.2036621" lon="2.195974">
        <ele>690.84002686</ele>
        <time>2021-03-30T15:01:44Z</time>
      </trkpt>
      <trkpt lat="42.203629" lon="2.1959197">
        <ele>690.57000732</ele>
        <time>2021-03-30T15:01:45Z</time>
      </trkpt>
      <trkpt lat="42.2036049" lon="2.1958672">
        <ele>690.28997803</ele>
        <time>2021-03-30T15:01:46Z</time>
      </trkpt>
      <trkpt lat="42.203583" lon="2.1958141">
        <ele>690</ele>
        <time>2021-03-30T15:01:47Z</time>
      </trkpt>
      <trkpt lat="42.2035593" lon="2.1957593">
        <ele>689.7199707</ele>
        <time>2021-03-30T15:01:48Z</time>
      </trkpt>
      <trkpt lat="42.2035293" lon="2.1957212">
        <ele>689.45001221</ele>
        <time>2021-03-30T15:01:49Z</time>
      </trkpt>
      <trkpt lat="42.2034933" lon="2.195684">
        <ele>689.25</ele>
        <time>2021-03-30T15:01:50Z</time>
      </trkpt>
      <trkpt lat="42.2034629" lon="2.1956653">
        <ele>689.14001465</ele>
        <time>2021-03-30T15:01:51Z</time>
      </trkpt>
      <trkpt lat="42.2034529" lon="2.1956233">
        <ele>689.11999512</ele>
        <time>2021-03-30T15:01:52Z</time>
      </trkpt>
      <trkpt lat="42.2034256" lon="2.1955854">
        <ele>689.07000732</ele>
        <time>2021-03-30T15:01:53Z</time>
      </trkpt>
      <trkpt lat="42.2034063" lon="2.1955494">
        <ele>689.05999756</ele>
        <time>2021-03-30T15:01:54Z</time>
      </trkpt>
      <trkpt lat="42.2033823" lon="2.1955037">
        <ele>689.04998779</ele>
        <time>2021-03-30T15:01:55Z</time>
      </trkpt>
      <trkpt lat="42.2033744" lon="2.1954757">
        <ele>689.07000732</ele>
        <time>2021-03-30T15:01:56Z</time>
      </trkpt>
      <trkpt lat="42.2033798" lon="2.1954375">
        <ele>689.07000732</ele>
        <time>2021-03-30T15:01:57Z</time>
      </trkpt>
      <trkpt lat="42.2033851" lon="2.1953952">
        <ele>688.98999023</ele>
        <time>2021-03-30T15:01:58Z</time>
      </trkpt>
      <trkpt lat="42.2033812" lon="2.1953362">
        <ele>688.84002686</ele>
        <time>2021-03-30T15:01:59Z</time>
      </trkpt>
      <trkpt lat="42.2033794" lon="2.1952789">
        <ele>688.60998535</ele>
        <time>2021-03-30T15:02:00Z</time>
      </trkpt>
      <trkpt lat="42.2033747" lon="2.1952307">
        <ele>688.32000732</ele>
        <time>2021-03-30T15:02:01Z</time>
      </trkpt>
      <trkpt lat="42.2033611" lon="2.1951925">
        <ele>688.05999756</ele>
        <time>2021-03-30T15:02:02Z</time>
      </trkpt>
      <trkpt lat="42.2033468" lon="2.1951439">
        <ele>687.84997559</ele>
        <time>2021-03-30T15:02:03Z</time>
      </trkpt>
      <trkpt lat="42.2033373" lon="2.1951244">
        <ele>687.69000244</ele>
        <time>2021-03-30T15:02:04Z</time>
      </trkpt>
      <trkpt lat="42.203327" lon="2.1951052">
        <ele>687.57000732</ele>
        <time>2021-03-30T15:02:05Z</time>
      </trkpt>
      <trkpt lat="42.2033146" lon="2.1950919">
        <ele>687.48999023</ele>
        <time>2021-03-30T15:02:06Z</time>
      </trkpt>
      <trkpt lat="42.2033085" lon="2.1950694">
        <ele>687.42999268</ele>
        <time>2021-03-30T15:02:07Z</time>
      </trkpt>
      <trkpt lat="42.2033113" lon="2.195034">
        <ele>687.40002441</ele>
        <time>2021-03-30T15:02:08Z</time>
      </trkpt>
      <trkpt lat="42.2033047" lon="2.1950032">
        <ele>687.35998535</ele>
        <time>2021-03-30T15:02:09Z</time>
      </trkpt>
      <trkpt lat="42.2033024" lon="2.1949754">
        <ele>687.34002686</ele>
        <time>2021-03-30T15:02:10Z</time>
      </trkpt>
      <trkpt lat="42.2032878" lon="2.1949475">
        <ele>687.33001709</ele>
        <time>2021-03-30T15:02:11Z</time>
      </trkpt>
      <trkpt lat="42.203278" lon="2.1949164">
        <ele>687.33001709</ele>
        <time>2021-03-30T15:02:12Z</time>
      </trkpt>
      <trkpt lat="42.2032747" lon="2.194878">
        <ele>687.33001709</ele>
        <time>2021-03-30T15:02:13Z</time>
      </trkpt>
      <trkpt lat="42.203256" lon="2.1948398">
        <ele>687.33001709</ele>
        <time>2021-03-30T15:02:14Z</time>
      </trkpt>
      <trkpt lat="42.2032538" lon="2.1948156">
        <ele>687.32000732</ele>
        <time>2021-03-30T15:02:15Z</time>
      </trkpt>
      <trkpt lat="42.2032432" lon="2.1947805">
        <ele>687.30999756</ele>
        <time>2021-03-30T15:02:16Z</time>
      </trkpt>
      <trkpt lat="42.2032326" lon="2.1947462">
        <ele>687.2800293</ele>
        <time>2021-03-30T15:02:17Z</time>
      </trkpt>
      <trkpt lat="42.2032273" lon="2.1947036">
        <ele>687.22998047</ele>
        <time>2021-03-30T15:02:18Z</time>
      </trkpt>
      <trkpt lat="42.2032126" lon="2.194651">
        <ele>687.15002441</ele>
        <time>2021-03-30T15:02:19Z</time>
      </trkpt>
      <trkpt lat="42.2031958" lon="2.1946004">
        <ele>687.02001953</ele>
        <time>2021-03-30T15:02:20Z</time>
      </trkpt>
      <trkpt lat="42.2031823" lon="2.1945405">
        <ele>686.86999512</ele>
        <time>2021-03-30T15:02:21Z</time>
      </trkpt>
      <trkpt lat="42.2031665" lon="2.1945039">
        <ele>686.67999268</ele>
        <time>2021-03-30T15:02:22Z</time>
      </trkpt>
      <trkpt lat="42.2031623" lon="2.1944504">
        <ele>686.51000977</ele>
        <time>2021-03-30T15:02:23Z</time>
      </trkpt>
      <trkpt lat="42.2031535" lon="2.1943953">
        <ele>686.32000732</ele>
        <time>2021-03-30T15:02:24Z</time>
      </trkpt>
      <trkpt lat="42.203141" lon="2.194353">
        <ele>686.15997314</ele>
        <time>2021-03-30T15:02:25Z</time>
      </trkpt>
      <trkpt lat="42.2031257" lon="2.19431">
        <ele>686.03997803</ele>
        <time>2021-03-30T15:02:26Z</time>
      </trkpt>
      <trkpt lat="42.2031205" lon="2.1942884">
        <ele>685.96002197</ele>
        <time>2021-03-30T15:02:27Z</time>
      </trkpt>
      <trkpt lat="42.2031184" lon="2.1942673">
        <ele>685.90002441</ele>
        <time>2021-03-30T15:02:28Z</time>
      </trkpt>
      <trkpt lat="42.2031126" lon="2.1942318">
        <ele>685.85998535</ele>
        <time>2021-03-30T15:02:29Z</time>
      </trkpt>
      <trkpt lat="42.2030978" lon="2.1941854">
        <ele>685.83001709</ele>
        <time>2021-03-30T15:02:30Z</time>
      </trkpt>
      <trkpt lat="42.2030792" lon="2.1941485">
        <ele>685.83001709</ele>
        <time>2021-03-30T15:02:31Z</time>
      </trkpt>
      <trkpt lat="42.2030562" lon="2.1940922">
        <ele>685.86999512</ele>
        <time>2021-03-30T15:02:32Z</time>
      </trkpt>
      <trkpt lat="42.203029" lon="2.1940369">
        <ele>685.95001221</ele>
        <time>2021-03-30T15:02:33Z</time>
      </trkpt>
      <trkpt lat="42.2029982" lon="2.1939854">
        <ele>686.02001953</ele>
        <time>2021-03-30T15:02:34Z</time>
      </trkpt>
      <trkpt lat="42.2029714" lon="2.1939444">
        <ele>686.09002686</ele>
        <time>2021-03-30T15:02:35Z</time>
      </trkpt>
      <trkpt lat="42.2029418" lon="2.193906">
        <ele>686.15002441</ele>
        <time>2021-03-30T15:02:36Z</time>
      </trkpt>
      <trkpt lat="42.2029111" lon="2.1938671">
        <ele>686.21002197</ele>
        <time>2021-03-30T15:02:37Z</time>
      </trkpt>
      <trkpt lat="42.2028826" lon="2.19383">
        <ele>686.23999023</ele>
        <time>2021-03-30T15:02:38Z</time>
      </trkpt>
      <trkpt lat="42.2028599" lon="2.1937969">
        <ele>686.23999023</ele>
        <time>2021-03-30T15:02:39Z</time>
      </trkpt>
      <trkpt lat="42.2028381" lon="2.193755">
        <ele>686.23999023</ele>
        <time>2021-03-30T15:02:40Z</time>
      </trkpt>
      <trkpt lat="42.2028168" lon="2.1937108">
        <ele>686.2199707</ele>
        <time>2021-03-30T15:02:41Z</time>
      </trkpt>
      <trkpt lat="42.2027941" lon="2.1936644">
        <ele>686.2199707</ele>
        <time>2021-03-30T15:02:42Z</time>
      </trkpt>
      <trkpt lat="42.2027683" lon="2.1936159">
        <ele>686.23999023</ele>
        <time>2021-03-30T15:02:43Z</time>
      </trkpt>
      <trkpt lat="42.2027354" lon="2.1935779">
        <ele>686.2800293</ele>
        <time>2021-03-30T15:02:44Z</time>
      </trkpt>
      <trkpt lat="42.2026976" lon="2.193531">
        <ele>686.27001953</ele>
        <time>2021-03-30T15:02:45Z</time>
      </trkpt>
      <trkpt lat="42.2026655" lon="2.193497">
        <ele>686.21002197</ele>
        <time>2021-03-30T15:02:46Z</time>
      </trkpt>
      <trkpt lat="42.2026431" lon="2.1934464">
        <ele>686.11999512</ele>
        <time>2021-03-30T15:02:47Z</time>
      </trkpt>
      <trkpt lat="42.2026194" lon="2.1934152">
        <ele>686.01000977</ele>
        <time>2021-03-30T15:02:48Z</time>
      </trkpt>
      <trkpt lat="42.2025944" lon="2.193379">
        <ele>685.90997314</ele>
        <time>2021-03-30T15:02:49Z</time>
      </trkpt>
      <trkpt lat="42.2025636" lon="2.1933474">
        <ele>685.83001709</ele>
        <time>2021-03-30T15:02:50Z</time>
      </trkpt>
      <trkpt lat="42.2025284" lon="2.1933218">
        <ele>685.79998779</ele>
        <time>2021-03-30T15:02:51Z</time>
      </trkpt>
      <trkpt lat="42.2024936" lon="2.1933045">
        <ele>685.80999756</ele>
        <time>2021-03-30T15:02:52Z</time>
      </trkpt>
      <trkpt lat="42.2024569" lon="2.1932915">
        <ele>685.84002686</ele>
        <time>2021-03-30T15:02:53Z</time>
      </trkpt>
      <trkpt lat="42.2024163" lon="2.1932897">
        <ele>685.84997559</ele>
        <time>2021-03-30T15:02:54Z</time>
      </trkpt>
      <trkpt lat="42.2023772" lon="2.1932857">
        <ele>685.84997559</ele>
        <time>2021-03-30T15:02:55Z</time>
      </trkpt>
      <trkpt lat="42.2023363" lon="2.1932913">
        <ele>685.84002686</ele>
        <time>2021-03-30T15:02:56Z</time>
      </trkpt>
      <trkpt lat="42.2022992" lon="2.1932908">
        <ele>685.84997559</ele>
        <time>2021-03-30T15:02:57Z</time>
      </trkpt>
      <trkpt lat="42.2022661" lon="2.1932845">
        <ele>685.84997559</ele>
        <time>2021-03-30T15:02:58Z</time>
      </trkpt>
      <trkpt lat="42.2022286" lon="2.1932792">
        <ele>685.84002686</ele>
        <time>2021-03-30T15:02:59Z</time>
      </trkpt>
      <trkpt lat="42.2021928" lon="2.1932801">
        <ele>685.82000732</ele>
        <time>2021-03-30T15:03:00Z</time>
      </trkpt>
      <trkpt lat="42.2021579" lon="2.1932786">
        <ele>685.79998779</ele>
        <time>2021-03-30T15:03:01Z</time>
      </trkpt>
      <trkpt lat="42.2021291" lon="2.1932854">
        <ele>685.78997803</ele>
        <time>2021-03-30T15:03:02Z</time>
      </trkpt>
      <trkpt lat="42.202086" lon="2.1932767">
        <ele>685.7800293</ele>
        <time>2021-03-30T15:03:03Z</time>
      </trkpt>
      <trkpt lat="42.2020504" lon="2.1932828">
        <ele>685.77001953</ele>
        <time>2021-03-30T15:03:04Z</time>
      </trkpt>
      <trkpt lat="42.202019" lon="2.1932877">
        <ele>685.76000977</ele>
        <time>2021-03-30T15:03:05Z</time>
      </trkpt>
      <trkpt lat="42.2019783" lon="2.1932917">
        <ele>685.77001953</ele>
        <time>2021-03-30T15:03:06Z</time>
      </trkpt>
      <trkpt lat="42.2019356" lon="2.1932886">
        <ele>685.7800293</ele>
        <time>2021-03-30T15:03:07Z</time>
      </trkpt>
      <trkpt lat="42.2018978" lon="2.1932559">
        <ele>685.7800293</ele>
        <time>2021-03-30T15:03:08Z</time>
      </trkpt>
      <trkpt lat="42.201862" lon="2.193227">
        <ele>685.72998047</ele>
        <time>2021-03-30T15:03:09Z</time>
      </trkpt>
      <trkpt lat="42.2018251" lon="2.1931956">
        <ele>685.61999512</ele>
        <time>2021-03-30T15:03:10Z</time>
      </trkpt>
      <trkpt lat="42.2017878" lon="2.1931671">
        <ele>685.4699707</ele>
        <time>2021-03-30T15:03:11Z</time>
      </trkpt>
      <trkpt lat="42.2017461" lon="2.1931519">
        <ele>685.27001953</ele>
        <time>2021-03-30T15:03:12Z</time>
      </trkpt>
      <trkpt lat="42.2017179" lon="2.1931382">
        <ele>685.05999756</ele>
        <time>2021-03-30T15:03:13Z</time>
      </trkpt>
      <trkpt lat="42.2016844" lon="2.1931181">
        <ele>684.84002686</ele>
        <time>2021-03-30T15:03:14Z</time>
      </trkpt>
      <trkpt lat="42.2016587" lon="2.1930979">
        <ele>684.60998535</ele>
        <time>2021-03-30T15:03:15Z</time>
      </trkpt>
      <trkpt lat="42.2016205" lon="2.1930741">
        <ele>684.36999512</ele>
        <time>2021-03-30T15:03:16Z</time>
      </trkpt>
      <trkpt lat="42.2015902" lon="2.1930428">
        <ele>684.17999268</ele>
        <time>2021-03-30T15:03:17Z</time>
      </trkpt>
      <trkpt lat="42.2015688" lon="2.1929993">
        <ele>684.03997803</ele>
        <time>2021-03-30T15:03:18Z</time>
      </trkpt>
      <trkpt lat="42.2015522" lon="2.1929565">
        <ele>683.91998291</ele>
        <time>2021-03-30T15:03:19Z</time>
      </trkpt>
      <trkpt lat="42.2015462" lon="2.1929313">
        <ele>683.79998779</ele>
        <time>2021-03-30T15:03:20Z</time>
      </trkpt>
      <trkpt lat="42.201555" lon="2.1929014">
        <ele>683.69000244</ele>
        <time>2021-03-30T15:03:21Z</time>
      </trkpt>
      <trkpt lat="42.2015554" lon="2.1928755">
        <ele>683.54998779</ele>
        <time>2021-03-30T15:03:22Z</time>
      </trkpt>
      <trkpt lat="42.2015602" lon="2.1928464">
        <ele>683.40997314</ele>
        <time>2021-03-30T15:03:23Z</time>
      </trkpt>
      <trkpt lat="42.2015573" lon="2.1928028">
        <ele>683.26000977</ele>
        <time>2021-03-30T15:03:24Z</time>
      </trkpt>
      <trkpt lat="42.2015525" lon="2.1927693">
        <ele>683.09002686</ele>
        <time>2021-03-30T15:03:25Z</time>
      </trkpt>
      <trkpt lat="42.2015609" lon="2.1927435">
        <ele>682.90002441</ele>
        <time>2021-03-30T15:03:26Z</time>
      </trkpt>
      <trkpt lat="42.2015652" lon="2.1927171">
        <ele>682.69000244</ele>
        <time>2021-03-30T15:03:27Z</time>
      </trkpt>
      <trkpt lat="42.2015688" lon="2.1926916">
        <ele>682.44000244</ele>
        <time>2021-03-30T15:03:28Z</time>
      </trkpt>
      <trkpt lat="42.2015611" lon="2.192667">
        <ele>682.16998291</ele>
        <time>2021-03-30T15:03:29Z</time>
      </trkpt>
      <trkpt lat="42.201557" lon="2.1926344">
        <ele>681.88000488</ele>
        <time>2021-03-30T15:03:30Z</time>
      </trkpt>
      <trkpt lat="42.2015463" lon="2.1925483">
        <ele>681.17999268</ele>
        <time>2021-03-30T15:03:31Z</time>
      </trkpt>
      <trkpt lat="42.2015459" lon="2.1925121">
        <ele>680.76000977</ele>
        <time>2021-03-30T15:03:32Z</time>
      </trkpt>
      <trkpt lat="42.2015418" lon="2.1924885">
        <ele>680.32000732</ele>
        <time>2021-03-30T15:03:33Z</time>
      </trkpt>
      <trkpt lat="42.2015378" lon="2.1924632">
        <ele>679.90997314</ele>
        <time>2021-03-30T15:03:34Z</time>
      </trkpt>
      <trkpt lat="42.2015403" lon="2.192432">
        <ele>679.59002686</ele>
        <time>2021-03-30T15:03:35Z</time>
      </trkpt>
      <trkpt lat="42.2015378" lon="2.1923965">
        <ele>679.35998535</ele>
        <time>2021-03-30T15:03:36Z</time>
      </trkpt>
      <trkpt lat="42.2015205" lon="2.1923788">
        <ele>679.22998047</ele>
        <time>2021-03-30T15:03:37Z</time>
      </trkpt>
      <trkpt lat="42.2015025" lon="2.1923685">
        <ele>679.15997314</ele>
        <time>2021-03-30T15:03:38Z</time>
      </trkpt>
      <trkpt lat="42.201475" lon="2.1923677">
        <ele>679.10998535</ele>
        <time>2021-03-30T15:03:39Z</time>
      </trkpt>
      <trkpt lat="42.2014521" lon="2.1923668">
        <ele>679.07000732</ele>
        <time>2021-03-30T15:03:40Z</time>
      </trkpt>
      <trkpt lat="42.2014233" lon="2.19235">
        <ele>679.03997803</ele>
        <time>2021-03-30T15:03:41Z</time>
      </trkpt>
      <trkpt lat="42.2013934" lon="2.1923295">
        <ele>679.03997803</ele>
        <time>2021-03-30T15:03:42Z</time>
      </trkpt>
      <trkpt lat="42.2013679" lon="2.192307">
        <ele>679.09002686</ele>
        <time>2021-03-30T15:03:43Z</time>
      </trkpt>
      <trkpt lat="42.2013397" lon="2.1923012">
        <ele>679.16998291</ele>
        <time>2021-03-30T15:03:44Z</time>
      </trkpt>
      <trkpt lat="42.2013164" lon="2.1922895">
        <ele>679.26000977</ele>
        <time>2021-03-30T15:03:45Z</time>
      </trkpt>
      <trkpt lat="42.2012778" lon="2.1922926">
        <ele>679.35998535</ele>
        <time>2021-03-30T15:03:46Z</time>
      </trkpt>
      <trkpt lat="42.2012641" lon="2.1922878">
        <ele>679.45001221</ele>
        <time>2021-03-30T15:03:47Z</time>
      </trkpt>
      <trkpt lat="42.2012419" lon="2.1922654">
        <ele>679.5300293</ele>
        <time>2021-03-30T15:03:48Z</time>
      </trkpt>
      <trkpt lat="42.2012237" lon="2.1922415">
        <ele>679.65002441</ele>
        <time>2021-03-30T15:03:49Z</time>
      </trkpt>
      <trkpt lat="42.2012143" lon="2.1922143">
        <ele>679.79998779</ele>
        <time>2021-03-30T15:03:50Z</time>
      </trkpt>
      <trkpt lat="42.2011995" lon="2.1922083">
        <ele>679.98999023</ele>
        <time>2021-03-30T15:03:51Z</time>
      </trkpt>
      <trkpt lat="42.2011637" lon="2.1922085">
        <ele>680.17999268</ele>
        <time>2021-03-30T15:03:52Z</time>
      </trkpt>
      <trkpt lat="42.2011306" lon="2.1921971">
        <ele>680.34997559</ele>
        <time>2021-03-30T15:03:53Z</time>
      </trkpt>
      <trkpt lat="42.2010992" lon="2.1921789">
        <ele>680.52001953</ele>
        <time>2021-03-30T15:03:54Z</time>
      </trkpt>
      <trkpt lat="42.2010607" lon="2.1921521">
        <ele>680.70001221</ele>
        <time>2021-03-30T15:03:55Z</time>
      </trkpt>
      <trkpt lat="42.2010266" lon="2.1921363">
        <ele>680.91998291</ele>
        <time>2021-03-30T15:03:56Z</time>
      </trkpt>
      <trkpt lat="42.2009511" lon="2.1921171">
        <ele>681.39001465</ele>
        <time>2021-03-30T15:03:58Z</time>
      </trkpt>
      <trkpt lat="42.200916" lon="2.1921054">
        <ele>681.60998535</ele>
        <time>2021-03-30T15:03:59Z</time>
      </trkpt>
      <trkpt lat="42.2008772" lon="2.1921012">
        <ele>681.83001709</ele>
        <time>2021-03-30T15:04:00Z</time>
      </trkpt>
      <trkpt lat="42.2008336" lon="2.1921049">
        <ele>682.0300293</ele>
        <time>2021-03-30T15:04:01Z</time>
      </trkpt>
      <trkpt lat="42.2007949" lon="2.1920824">
        <ele>682.21002197</ele>
        <time>2021-03-30T15:04:02Z</time>
      </trkpt>
      <trkpt lat="42.2007536" lon="2.1920793">
        <ele>682.34002686</ele>
        <time>2021-03-30T15:04:03Z</time>
      </trkpt>
      <trkpt lat="42.2007172" lon="2.1920688">
        <ele>682.38000488</ele>
        <time>2021-03-30T15:04:04Z</time>
      </trkpt>
      <trkpt lat="42.2006804" lon="2.192054">
        <ele>682.36999512</ele>
        <time>2021-03-30T15:04:05Z</time>
      </trkpt>
      <trkpt lat="42.2006458" lon="2.1920472">
        <ele>682.30999756</ele>
        <time>2021-03-30T15:04:06Z</time>
      </trkpt>
      <trkpt lat="42.2006172" lon="2.1920382">
        <ele>682.20001221</ele>
        <time>2021-03-30T15:04:07Z</time>
      </trkpt>
      <trkpt lat="42.2005963" lon="2.1920249">
        <ele>682.05999756</ele>
        <time>2021-03-30T15:04:08Z</time>
      </trkpt>
      <trkpt lat="42.2005884" lon="2.1920252">
        <ele>681.78997803</ele>
        <time>2021-03-30T15:04:10Z</time>
      </trkpt>
      <trkpt lat="42.2005922" lon="2.1919914">
        <ele>681.66998291</ele>
        <time>2021-03-30T15:04:11Z</time>
      </trkpt>
      <trkpt lat="42.2005746" lon="2.1919858">
        <ele>681.61999512</ele>
        <time>2021-03-30T15:04:12Z</time>
      </trkpt>
      <trkpt lat="42.200549" lon="2.1919653">
        <ele>681.55999756</ele>
        <time>2021-03-30T15:04:13Z</time>
      </trkpt>
      <trkpt lat="42.2005132" lon="2.1919507">
        <ele>681.51000977</ele>
        <time>2021-03-30T15:04:14Z</time>
      </trkpt>
      <trkpt lat="42.2004765" lon="2.1919375">
        <ele>681.48999023</ele>
        <time>2021-03-30T15:04:15Z</time>
      </trkpt>
      <trkpt lat="42.2004418" lon="2.1919245">
        <ele>681.5</ele>
        <time>2021-03-30T15:04:16Z</time>
      </trkpt>
      <trkpt lat="42.2004143" lon="2.191905">
        <ele>681.53997803</ele>
        <time>2021-03-30T15:04:17Z</time>
      </trkpt>
      <trkpt lat="42.2003888" lon="2.1919007">
        <ele>681.59997559</ele>
        <time>2021-03-30T15:04:18Z</time>
      </trkpt>
      <trkpt lat="42.2003593" lon="2.1919005">
        <ele>681.67999268</ele>
        <time>2021-03-30T15:04:19Z</time>
      </trkpt>
      <trkpt lat="42.2003278" lon="2.1919084">
        <ele>681.73999023</ele>
        <time>2021-03-30T15:04:20Z</time>
      </trkpt>
      <trkpt lat="42.2003072" lon="2.1919055">
        <ele>681.78997803</ele>
        <time>2021-03-30T15:04:21Z</time>
      </trkpt>
      <trkpt lat="42.2002962" lon="2.1918534">
        <ele>681.83001709</ele>
        <time>2021-03-30T15:04:22Z</time>
      </trkpt>
      <trkpt lat="42.2002662" lon="2.1918303">
        <ele>681.9699707</ele>
        <time>2021-03-30T15:04:23Z</time>
      </trkpt>
      <trkpt lat="42.2002272" lon="2.1918183">
        <ele>682.13000488</ele>
        <time>2021-03-30T15:04:24Z</time>
      </trkpt>
      <trkpt lat="42.2001983" lon="2.191796">
        <ele>682.26000977</ele>
        <time>2021-03-30T15:04:25Z</time>
      </trkpt>
      <trkpt lat="42.200163" lon="2.1917902">
        <ele>682.40002441</ele>
        <time>2021-03-30T15:04:26Z</time>
      </trkpt>
      <trkpt lat="42.2001397" lon="2.1917835">
        <ele>682.51000977</ele>
        <time>2021-03-30T15:04:27Z</time>
      </trkpt>
      <trkpt lat="42.2001179" lon="2.1917738">
        <ele>682.59997559</ele>
        <time>2021-03-30T15:04:28Z</time>
      </trkpt>
      <trkpt lat="42.2000981" lon="2.1917593">
        <ele>682.70001221</ele>
        <time>2021-03-30T15:04:29Z</time>
      </trkpt>
      <trkpt lat="42.2000928" lon="2.1917161">
        <ele>683.70001221</ele>
        <time>2021-03-30T15:04:30Z</time>
      </trkpt>
      <trkpt lat="42.2000736" lon="2.1917021">
        <ele>684.97998047</ele>
        <time>2021-03-30T15:04:31Z</time>
      </trkpt>
      <trkpt lat="42.2000528" lon="2.1916857">
        <ele>685.46002197</ele>
        <time>2021-03-30T15:04:32Z</time>
      </trkpt>
      <trkpt lat="42.2000311" lon="2.1916719">
        <ele>685.96002197</ele>
        <time>2021-03-30T15:04:33Z</time>
      </trkpt>
      <trkpt lat="42.2000135" lon="2.1916654">
        <ele>686.42999268</ele>
        <time>2021-03-30T15:04:34Z</time>
      </trkpt>
      <trkpt lat="42.2000002" lon="2.1916519">
        <ele>686.64001465</ele>
        <time>2021-03-30T15:04:35Z</time>
      </trkpt>
      <trkpt lat="42.1999812" lon="2.1916354">
        <ele>686.65997314</ele>
        <time>2021-03-30T15:04:36Z</time>
      </trkpt>
      <trkpt lat="42.1999576" lon="2.1916086">
        <ele>686.65997314</ele>
        <time>2021-03-30T15:04:37Z</time>
      </trkpt>
      <trkpt lat="42.1999371" lon="2.1915964">
        <ele>686.65997314</ele>
        <time>2021-03-30T15:04:38Z</time>
      </trkpt>
      <trkpt lat="42.1999184" lon="2.1915995">
        <ele>686.65997314</ele>
        <time>2021-03-30T15:04:39Z</time>
      </trkpt>
      <trkpt lat="42.1998985" lon="2.1915848">
        <ele>686.65997314</ele>
        <time>2021-03-30T15:04:40Z</time>
      </trkpt>
      <trkpt lat="42.1998825" lon="2.1915838">
        <ele>686.65997314</ele>
        <time>2021-03-30T15:04:41Z</time>
      </trkpt>
      <trkpt lat="42.1998683" lon="2.1915793">
        <ele>686.65997314</ele>
        <time>2021-03-30T15:04:42Z</time>
      </trkpt>
      <trkpt lat="42.1998509" lon="2.1915699">
        <ele>686.65997314</ele>
        <time>2021-03-30T15:04:43Z</time>
      </trkpt>
      <trkpt lat="42.1998352" lon="2.1915631">
        <ele>686.65997314</ele>
        <time>2021-03-30T15:04:44Z</time>
      </trkpt>
      <trkpt lat="42.1998232" lon="2.1915499">
        <ele>686.65997314</ele>
        <time>2021-03-30T15:04:45Z</time>
      </trkpt>
      <trkpt lat="42.1998055" lon="2.1915359">
        <ele>686.65997314</ele>
        <time>2021-03-30T15:04:46Z</time>
      </trkpt>
      <trkpt lat="42.199789" lon="2.1915077">
        <ele>686.65997314</ele>
        <time>2021-03-30T15:04:47Z</time>
      </trkpt>
      <trkpt lat="42.1997677" lon="2.1914867">
        <ele>686.65997314</ele>
        <time>2021-03-30T15:04:48Z</time>
      </trkpt>
      <trkpt lat="42.1997509" lon="2.1914692">
        <ele>686.65997314</ele>
        <time>2021-03-30T15:04:49Z</time>
      </trkpt>
      <trkpt lat="42.1997341" lon="2.1914512">
        <ele>686.65997314</ele>
        <time>2021-03-30T15:04:50Z</time>
      </trkpt>
      <trkpt lat="42.1997154" lon="2.1914288">
        <ele>686.65997314</ele>
        <time>2021-03-30T15:04:51Z</time>
      </trkpt>
      <trkpt lat="42.1996889" lon="2.1914032">
        <ele>686.65002441</ele>
        <time>2021-03-30T15:04:52Z</time>
      </trkpt>
      <trkpt lat="42.1996688" lon="2.1913752">
        <ele>686.63000488</ele>
        <time>2021-03-30T15:04:53Z</time>
      </trkpt>
      <trkpt lat="42.199651" lon="2.1913574">
        <ele>686.65997314</ele>
        <time>2021-03-30T15:04:54Z</time>
      </trkpt>
      <trkpt lat="42.199643" lon="2.1913061">
        <ele>686.65997314</ele>
        <time>2021-03-30T15:04:55Z</time>
      </trkpt>
      <trkpt lat="42.1996329" lon="2.1912824">
        <ele>686.65997314</ele>
        <time>2021-03-30T15:04:56Z</time>
      </trkpt>
      <trkpt lat="42.1996187" lon="2.1912691">
        <ele>686.65997314</ele>
        <time>2021-03-30T15:04:57Z</time>
      </trkpt>
      <trkpt lat="42.1996118" lon="2.1912406">
        <ele>686.65997314</ele>
        <time>2021-03-30T15:04:58Z</time>
      </trkpt>
      <trkpt lat="42.1995968" lon="2.1912075">
        <ele>686.65997314</ele>
        <time>2021-03-30T15:04:59Z</time>
      </trkpt>
      <trkpt lat="42.1995842" lon="2.191179">
        <ele>686.65997314</ele>
        <time>2021-03-30T15:05:00Z</time>
      </trkpt>
      <trkpt lat="42.1995547" lon="2.1911444">
        <ele>686.65997314</ele>
        <time>2021-03-30T15:05:01Z</time>
      </trkpt>
      <trkpt lat="42.1995295" lon="2.1911036">
        <ele>686.65997314</ele>
        <time>2021-03-30T15:05:02Z</time>
      </trkpt>
      <trkpt lat="42.199517" lon="2.1910818">
        <ele>686.65997314</ele>
        <time>2021-03-30T15:05:03Z</time>
      </trkpt>
      <trkpt lat="42.1995082" lon="2.1910752">
        <ele>686.65997314</ele>
        <time>2021-03-30T15:05:04Z</time>
      </trkpt>
      <trkpt lat="42.1995005" lon="2.1910686">
        <ele>686.65997314</ele>
        <time>2021-03-30T15:05:05Z</time>
      </trkpt>
      <trkpt lat="42.1994709" lon="2.1910855">
        <ele>686.65997314</ele>
        <time>2021-03-30T15:05:06Z</time>
      </trkpt>
      <trkpt lat="42.1994294" lon="2.1911208">
        <ele>686.65997314</ele>
        <time>2021-03-30T15:05:07Z</time>
      </trkpt>
      <trkpt lat="42.1994129" lon="2.1911136">
        <ele>686.65997314</ele>
        <time>2021-03-30T15:05:08Z</time>
      </trkpt>
      <trkpt lat="42.1994046" lon="2.1910965">
        <ele>686.65997314</ele>
        <time>2021-03-30T15:05:09Z</time>
      </trkpt>
      <trkpt lat="42.1993922" lon="2.1910758">
        <ele>686.65997314</ele>
        <time>2021-03-30T15:05:10Z</time>
      </trkpt>
      <trkpt lat="42.1993954" lon="2.1910494">
        <ele>686.65997314</ele>
        <time>2021-03-30T15:05:11Z</time>
      </trkpt>
      <trkpt lat="42.1994011" lon="2.1910312">
        <ele>686.65997314</ele>
        <time>2021-03-30T15:05:12Z</time>
      </trkpt>
      <trkpt lat="42.1994162" lon="2.1910158">
        <ele>686.65997314</ele>
        <time>2021-03-30T15:05:13Z</time>
      </trkpt>
      <trkpt lat="42.1994236" lon="2.1910096">
        <ele>686.65997314</ele>
        <time>2021-03-30T15:05:14Z</time>
      </trkpt>
      <trkpt lat="42.19943" lon="2.191">
        <ele>686.65997314</ele>
        <time>2021-03-30T15:05:15Z</time>
      </trkpt>
      <trkpt lat="42.1994406" lon="2.1909938">
        <ele>686.65997314</ele>
        <time>2021-03-30T15:05:16Z</time>
      </trkpt>
      <trkpt lat="42.1994477" lon="2.1909751">
        <ele>686.65997314</ele>
        <time>2021-03-30T15:05:17Z</time>
      </trkpt>
      <trkpt lat="42.1994669" lon="2.1909607">
        <ele>686.65997314</ele>
        <time>2021-03-30T15:05:18Z</time>
      </trkpt>
      <trkpt lat="42.1994713" lon="2.1909431">
        <ele>686.65997314</ele>
        <time>2021-03-30T15:05:19Z</time>
      </trkpt>
      <trkpt lat="42.1994698" lon="2.1909306">
        <ele>686.65997314</ele>
        <time>2021-03-30T15:05:20Z</time>
      </trkpt>
      <trkpt lat="42.1994608" lon="2.19092">
        <ele>686.65997314</ele>
        <time>2021-03-30T15:05:21Z</time>
      </trkpt>
      <trkpt lat="42.1994558" lon="2.1909112">
        <ele>686.65997314</ele>
        <time>2021-03-30T15:05:22Z</time>
      </trkpt>
      <trkpt lat="42.1994547" lon="2.1909018">
        <ele>686.65997314</ele>
        <time>2021-03-30T15:05:23Z</time>
      </trkpt>
      <trkpt lat="42.1994667" lon="2.1908747">
        <ele>686.65997314</ele>
        <time>2021-03-30T15:05:24Z</time>
      </trkpt>
      <trkpt lat="42.1994794" lon="2.1908498">
        <ele>686.65997314</ele>
        <time>2021-03-30T15:05:25Z</time>
      </trkpt>
      <trkpt lat="42.1994894" lon="2.1908276">
        <ele>686.65997314</ele>
        <time>2021-03-30T15:05:26Z</time>
      </trkpt>
      <trkpt lat="42.1995" lon="2.1908046">
        <ele>686.65997314</ele>
        <time>2021-03-30T15:05:27Z</time>
      </trkpt>
      <trkpt lat="42.1995134" lon="2.1907759">
        <ele>686.65997314</ele>
        <time>2021-03-30T15:05:28Z</time>
      </trkpt>
      <trkpt lat="42.1995274" lon="2.1907514">
        <ele>686.65997314</ele>
        <time>2021-03-30T15:05:29Z</time>
      </trkpt>
      <trkpt lat="42.1995314" lon="2.1907358">
        <ele>686.65997314</ele>
        <time>2021-03-30T15:05:30Z</time>
      </trkpt>
      <trkpt lat="42.1995452" lon="2.190719">
        <ele>686.65997314</ele>
        <time>2021-03-30T15:05:31Z</time>
      </trkpt>
      <trkpt lat="42.1995574" lon="2.1906959">
        <ele>686.65997314</ele>
        <time>2021-03-30T15:05:32Z</time>
      </trkpt>
      <trkpt lat="42.1995679" lon="2.1906809">
        <ele>686.65997314</ele>
        <time>2021-03-30T15:05:33Z</time>
      </trkpt>
      <trkpt lat="42.1995858" lon="2.190663">
        <ele>686.65997314</ele>
        <time>2021-03-30T15:05:34Z</time>
      </trkpt>
      <trkpt lat="42.1996051" lon="2.1906447">
        <ele>686.65997314</ele>
        <time>2021-03-30T15:05:35Z</time>
      </trkpt>
      <trkpt lat="42.1996221" lon="2.190619">
        <ele>686.65997314</ele>
        <time>2021-03-30T15:05:36Z</time>
      </trkpt>
      <trkpt lat="42.199641" lon="2.1905967">
        <ele>686.65997314</ele>
        <time>2021-03-30T15:05:37Z</time>
      </trkpt>
      <trkpt lat="42.1996545" lon="2.1905713">
        <ele>686.65997314</ele>
        <time>2021-03-30T15:05:38Z</time>
      </trkpt>
      <trkpt lat="42.1996665" lon="2.1905478">
        <ele>686.65997314</ele>
        <time>2021-03-30T15:05:39Z</time>
      </trkpt>
      <trkpt lat="42.1996739" lon="2.1905229">
        <ele>686.65997314</ele>
        <time>2021-03-30T15:05:40Z</time>
      </trkpt>
      <trkpt lat="42.1996828" lon="2.1905042">
        <ele>686.65997314</ele>
        <time>2021-03-30T15:05:41Z</time>
      </trkpt>
      <trkpt lat="42.1996928" lon="2.1904939">
        <ele>686.65997314</ele>
        <time>2021-03-30T15:05:42Z</time>
      </trkpt>
      <trkpt lat="42.1997098" lon="2.1904786">
        <ele>686.65997314</ele>
        <time>2021-03-30T15:05:43Z</time>
      </trkpt>
      <trkpt lat="42.1997198" lon="2.1904683">
        <ele>686.65997314</ele>
        <time>2021-03-30T15:05:44Z</time>
      </trkpt>
      <trkpt lat="42.1997291" lon="2.1904581">
        <ele>686.65997314</ele>
        <time>2021-03-30T15:05:45Z</time>
      </trkpt>
      <trkpt lat="42.1997441" lon="2.1904452">
        <ele>686.65997314</ele>
        <time>2021-03-30T15:05:46Z</time>
      </trkpt>
      <trkpt lat="42.1997628" lon="2.1904239">
        <ele>686.65997314</ele>
        <time>2021-03-30T15:05:47Z</time>
      </trkpt>
      <trkpt lat="42.1997775" lon="2.1904128">
        <ele>686.65997314</ele>
        <time>2021-03-30T15:05:48Z</time>
      </trkpt>
      <trkpt lat="42.1997927" lon="2.1904052">
        <ele>686.65997314</ele>
        <time>2021-03-30T15:05:49Z</time>
      </trkpt>
      <trkpt lat="42.1997979" lon="2.1903966">
        <ele>686.65997314</ele>
        <time>2021-03-30T15:05:50Z</time>
      </trkpt>
      <trkpt lat="42.1998083" lon="2.1903842">
        <ele>686.65997314</ele>
        <time>2021-03-30T15:05:51Z</time>
      </trkpt>
      <trkpt lat="42.1998158" lon="2.1903814">
        <ele>686.65997314</ele>
        <time>2021-03-30T15:05:52Z</time>
      </trkpt>
      <trkpt lat="42.1998237" lon="2.1903819">
        <ele>686.65997314</ele>
        <time>2021-03-30T15:05:53Z</time>
      </trkpt>
      <trkpt lat="42.1998267" lon="2.1903805">
        <ele>686.65997314</ele>
        <time>2021-03-30T15:05:54Z</time>
      </trkpt>
      <trkpt lat="42.1998374" lon="2.1903772">
        <ele>686.65997314</ele>
        <time>2021-03-30T15:05:55Z</time>
      </trkpt>
      <trkpt lat="42.199852" lon="2.1903751">
        <ele>686.65997314</ele>
        <time>2021-03-30T15:05:56Z</time>
      </trkpt>
      <trkpt lat="42.1998728" lon="2.1903699">
        <ele>686.65997314</ele>
        <time>2021-03-30T15:05:57Z</time>
      </trkpt>
      <trkpt lat="42.1998944" lon="2.1903631">
        <ele>686.65997314</ele>
        <time>2021-03-30T15:05:58Z</time>
      </trkpt>
      <trkpt lat="42.1999127" lon="2.1903605">
        <ele>686.65997314</ele>
        <time>2021-03-30T15:05:59Z</time>
      </trkpt>
      <trkpt lat="42.1999289" lon="2.19036">
        <ele>686.65997314</ele>
        <time>2021-03-30T15:06:00Z</time>
      </trkpt>
      <trkpt lat="42.1999477" lon="2.1903636">
        <ele>686.65997314</ele>
        <time>2021-03-30T15:06:01Z</time>
      </trkpt>
      <trkpt lat="42.1999726" lon="2.190356">
        <ele>686.65997314</ele>
        <time>2021-03-30T15:06:02Z</time>
      </trkpt>
      <trkpt lat="42.1999913" lon="2.190344">
        <ele>686.65997314</ele>
        <time>2021-03-30T15:06:03Z</time>
      </trkpt>
      <trkpt lat="42.2000094" lon="2.1903335">
        <ele>686.65997314</ele>
        <time>2021-03-30T15:06:04Z</time>
      </trkpt>
      <trkpt lat="42.2000454" lon="2.1903731">
        <ele>686.65997314</ele>
        <time>2021-03-30T15:06:05Z</time>
      </trkpt>
      <trkpt lat="42.2000781" lon="2.1904">
        <ele>686.65997314</ele>
        <time>2021-03-30T15:06:06Z</time>
      </trkpt>
      <trkpt lat="42.2001073" lon="2.1904168">
        <ele>686.65997314</ele>
        <time>2021-03-30T15:06:07Z</time>
      </trkpt>
      <trkpt lat="42.2001259" lon="2.1904061">
        <ele>686.65997314</ele>
        <time>2021-03-30T15:06:08Z</time>
      </trkpt>
      <trkpt lat="42.2001365" lon="2.1903978">
        <ele>686.65997314</ele>
        <time>2021-03-30T15:06:09Z</time>
      </trkpt>
      <trkpt lat="42.2001418" lon="2.1903835">
        <ele>686.65997314</ele>
        <time>2021-03-30T15:06:10Z</time>
      </trkpt>
      <trkpt lat="42.200149" lon="2.1903718">
        <ele>686.65997314</ele>
        <time>2021-03-30T15:06:11Z</time>
      </trkpt>
      <trkpt lat="42.200165" lon="2.19036">
        <ele>686.65997314</ele>
        <time>2021-03-30T15:06:12Z</time>
      </trkpt>
      <trkpt lat="42.2001872" lon="2.1903327">
        <ele>686.65997314</ele>
        <time>2021-03-30T15:06:13Z</time>
      </trkpt>
      <trkpt lat="42.2002102" lon="2.1903131">
        <ele>686.65997314</ele>
        <time>2021-03-30T15:06:14Z</time>
      </trkpt>
      <trkpt lat="42.2002346" lon="2.1902965">
        <ele>686.65997314</ele>
        <time>2021-03-30T15:06:15Z</time>
      </trkpt>
      <trkpt lat="42.2002599" lon="2.1902874">
        <ele>686.65997314</ele>
        <time>2021-03-30T15:06:16Z</time>
      </trkpt>
      <trkpt lat="42.20029" lon="2.190283">
        <ele>686.65997314</ele>
        <time>2021-03-30T15:06:17Z</time>
      </trkpt>
      <trkpt lat="42.2003126" lon="2.1902789">
        <ele>686.65997314</ele>
        <time>2021-03-30T15:06:18Z</time>
      </trkpt>
      <trkpt lat="42.200358" lon="2.1903263">
        <ele>686.65997314</ele>
        <time>2021-03-30T15:06:19Z</time>
      </trkpt>
      <trkpt lat="42.2003765" lon="2.1903545">
        <ele>686.65997314</ele>
        <time>2021-03-30T15:06:20Z</time>
      </trkpt>
      <trkpt lat="42.2004011" lon="2.1903685">
        <ele>686.65997314</ele>
        <time>2021-03-30T15:06:21Z</time>
      </trkpt>
      <trkpt lat="42.2004254" lon="2.1903764">
        <ele>686.65997314</ele>
        <time>2021-03-30T15:06:22Z</time>
      </trkpt>
      <trkpt lat="42.2004528" lon="2.190376">
        <ele>686.65997314</ele>
        <time>2021-03-30T15:06:23Z</time>
      </trkpt>
      <trkpt lat="42.2004682" lon="2.1903861">
        <ele>686.65997314</ele>
        <time>2021-03-30T15:06:24Z</time>
      </trkpt>
      <trkpt lat="42.2004948" lon="2.1903934">
        <ele>686.65997314</ele>
        <time>2021-03-30T15:06:25Z</time>
      </trkpt>
      <trkpt lat="42.2005378" lon="2.1903382">
        <ele>686.65997314</ele>
        <time>2021-03-30T15:06:26Z</time>
      </trkpt>
      <trkpt lat="42.200573" lon="2.190305">
        <ele>686.65997314</ele>
        <time>2021-03-30T15:06:27Z</time>
      </trkpt>
      <trkpt lat="42.2006126" lon="2.1902596">
        <ele>686.65997314</ele>
        <time>2021-03-30T15:06:28Z</time>
      </trkpt>
      <trkpt lat="42.2006484" lon="2.1902136">
        <ele>686.65997314</ele>
        <time>2021-03-30T15:06:29Z</time>
      </trkpt>
      <trkpt lat="42.2006758" lon="2.1902007">
        <ele>686.65997314</ele>
        <time>2021-03-30T15:06:30Z</time>
      </trkpt>
      <trkpt lat="42.2006924" lon="2.1901946">
        <ele>686.65997314</ele>
        <time>2021-03-30T15:06:31Z</time>
      </trkpt>
      <trkpt lat="42.200705" lon="2.1901852">
        <ele>686.65997314</ele>
        <time>2021-03-30T15:06:32Z</time>
      </trkpt>
      <trkpt lat="42.2007086" lon="2.1901726">
        <ele>686.65997314</ele>
        <time>2021-03-30T15:06:33Z</time>
      </trkpt>
      <trkpt lat="42.2007124" lon="2.1901702">
        <ele>686.65997314</ele>
        <time>2021-03-30T15:06:34Z</time>
      </trkpt>
      <trkpt lat="42.2007353" lon="2.1901542">
        <ele>686.65997314</ele>
        <time>2021-03-30T15:06:47Z</time>
      </trkpt>
      <trkpt lat="42.2007482" lon="2.1901382">
        <ele>686.65997314</ele>
        <time>2021-03-30T15:06:48Z</time>
      </trkpt>
      <trkpt lat="42.2007625" lon="2.1901243">
        <ele>686.65997314</ele>
        <time>2021-03-30T15:06:49Z</time>
      </trkpt>
      <trkpt lat="42.2007785" lon="2.1901185">
        <ele>686.65997314</ele>
        <time>2021-03-30T15:06:50Z</time>
      </trkpt>
      <trkpt lat="42.200797" lon="2.1901146">
        <ele>686.65997314</ele>
        <time>2021-03-30T15:06:51Z</time>
      </trkpt>
      <trkpt lat="42.2008172" lon="2.1901212">
        <ele>686.65997314</ele>
        <time>2021-03-30T15:06:52Z</time>
      </trkpt>
      <trkpt lat="42.2008378" lon="2.190129">
        <ele>686.65997314</ele>
        <time>2021-03-30T15:06:53Z</time>
      </trkpt>
      <trkpt lat="42.2008624" lon="2.1901429">
        <ele>686.73999023</ele>
        <time>2021-03-30T15:06:54Z</time>
      </trkpt>
      <trkpt lat="42.2008817" lon="2.1901506">
        <ele>687.15997314</ele>
        <time>2021-03-30T15:06:55Z</time>
      </trkpt>
      <trkpt lat="42.2009028" lon="2.1901582">
        <ele>687.5300293</ele>
        <time>2021-03-30T15:06:56Z</time>
      </trkpt>
      <trkpt lat="42.2009099" lon="2.1901757">
        <ele>687.91998291</ele>
        <time>2021-03-30T15:06:57Z</time>
      </trkpt>
      <trkpt lat="42.2009184" lon="2.1901923">
        <ele>688.08001709</ele>
        <time>2021-03-30T15:06:58Z</time>
      </trkpt>
      <trkpt lat="42.2009191" lon="2.1901979">
        <ele>688.22998047</ele>
        <time>2021-03-30T15:06:59Z</time>
      </trkpt>
      <trkpt lat="42.2009155" lon="2.19021">
        <ele>688.26000977</ele>
        <time>2021-03-30T15:07:00Z</time>
      </trkpt>
      <trkpt lat="42.2009075" lon="2.1902137">
        <ele>688.20001221</ele>
        <time>2021-03-30T15:07:01Z</time>
      </trkpt>
      <trkpt lat="42.2008478" lon="2.1902033">
        <ele>686.97998047</ele>
        <time>2021-03-30T15:11:54Z</time>
      </trkpt>
      <trkpt lat="42.2008466" lon="2.1902018">
        <ele>686.94000244</ele>
        <time>2021-03-30T15:11:55Z</time>
      </trkpt>
      <trkpt lat="42.2008549" lon="2.1902242">
        <ele>686.91998291</ele>
        <time>2021-03-30T15:11:56Z</time>
      </trkpt>
      <trkpt lat="42.2008506" lon="2.1902284">
        <ele>687.04998779</ele>
        <time>2021-03-30T15:11:57Z</time>
      </trkpt>
      <trkpt lat="42.2008465" lon="2.1902319">
        <ele>686.98999023</ele>
        <time>2021-03-30T15:11:58Z</time>
      </trkpt>
      <trkpt lat="42.20084" lon="2.1902419">
        <ele>686.91998291</ele>
        <time>2021-03-30T15:11:59Z</time>
      </trkpt>
      <trkpt lat="42.200835" lon="2.1902502">
        <ele>686.79998779</ele>
        <time>2021-03-30T15:12:00Z</time>
      </trkpt>
      <trkpt lat="42.2008297" lon="2.190261">
        <ele>686.71002197</ele>
        <time>2021-03-30T15:12:01Z</time>
      </trkpt>
      <trkpt lat="42.2008212" lon="2.1902775">
        <ele>686.66998291</ele>
        <time>2021-03-30T15:12:02Z</time>
      </trkpt>
      <trkpt lat="42.2008136" lon="2.1902958">
        <ele>686.65997314</ele>
        <time>2021-03-30T15:12:03Z</time>
      </trkpt>
      <trkpt lat="42.2007909" lon="2.1902746">
        <ele>686.65997314</ele>
        <time>2021-03-30T15:12:04Z</time>
      </trkpt>
      <trkpt lat="42.2007851" lon="2.1902787">
        <ele>686.65997314</ele>
        <time>2021-03-30T15:12:05Z</time>
      </trkpt>
      <trkpt lat="42.2007808" lon="2.1902778">
        <ele>686.65997314</ele>
        <time>2021-03-30T15:12:06Z</time>
      </trkpt>
      <trkpt lat="42.20077" lon="2.190285">
        <ele>686.65997314</ele>
        <time>2021-03-30T15:12:07Z</time>
      </trkpt>
      <trkpt lat="42.2007605" lon="2.1902922">
        <ele>686.65997314</ele>
        <time>2021-03-30T15:12:08Z</time>
      </trkpt>
      <trkpt lat="42.2007456" lon="2.1902927">
        <ele>686.65997314</ele>
        <time>2021-03-30T15:12:09Z</time>
      </trkpt>
      <trkpt lat="42.2007357" lon="2.1903007">
        <ele>686.65997314</ele>
        <time>2021-03-30T15:12:10Z</time>
      </trkpt>
      <trkpt lat="42.2007234" lon="2.1903033">
        <ele>686.65997314</ele>
        <time>2021-03-30T15:12:11Z</time>
      </trkpt>
      <trkpt lat="42.2007161" lon="2.190315">
        <ele>686.65997314</ele>
        <time>2021-03-30T15:12:12Z</time>
      </trkpt>
      <trkpt lat="42.2006976" lon="2.190333">
        <ele>686.65997314</ele>
        <time>2021-03-30T15:12:14Z</time>
      </trkpt>
      <trkpt lat="42.2006846" lon="2.1903418">
        <ele>686.65997314</ele>
        <time>2021-03-30T15:12:15Z</time>
      </trkpt>
      <trkpt lat="42.200676" lon="2.1903443">
        <ele>686.65997314</ele>
        <time>2021-03-30T15:12:16Z</time>
      </trkpt>
      <trkpt lat="42.2006664" lon="2.1903585">
        <ele>686.65997314</ele>
        <time>2021-03-30T15:12:17Z</time>
      </trkpt>
      <trkpt lat="42.2006567" lon="2.19037">
        <ele>686.65997314</ele>
        <time>2021-03-30T15:12:18Z</time>
      </trkpt>
      <trkpt lat="42.2006491" lon="2.1903879">
        <ele>686.65997314</ele>
        <time>2021-03-30T15:12:19Z</time>
      </trkpt>
      <trkpt lat="42.2006464" lon="2.1903941">
        <ele>686.65997314</ele>
        <time>2021-03-30T15:12:20Z</time>
      </trkpt>
      <trkpt lat="42.200646" lon="2.1903992">
        <ele>686.65997314</ele>
        <time>2021-03-30T15:12:21Z</time>
      </trkpt>
      <trkpt lat="42.2006397" lon="2.190415">
        <ele>686.65997314</ele>
        <time>2021-03-30T15:12:22Z</time>
      </trkpt>
      <trkpt lat="42.2006326" lon="2.1904201">
        <ele>686.65997314</ele>
        <time>2021-03-30T15:12:23Z</time>
      </trkpt>
      <trkpt lat="42.2006283" lon="2.1904287">
        <ele>686.65997314</ele>
        <time>2021-03-30T15:12:24Z</time>
      </trkpt>
      <trkpt lat="42.2006254" lon="2.1904375">
        <ele>686.65997314</ele>
        <time>2021-03-30T15:12:25Z</time>
      </trkpt>
      <trkpt lat="42.2006248" lon="2.1904421">
        <ele>686.65997314</ele>
        <time>2021-03-30T15:12:26Z</time>
      </trkpt>
      <trkpt lat="42.2006219" lon="2.1904397">
        <ele>686.65997314</ele>
        <time>2021-03-30T15:12:27Z</time>
      </trkpt>
      <trkpt lat="42.2006309" lon="2.1905674">
        <ele>686.65997314</ele>
        <time>2021-03-30T15:13:37Z</time>
      </trkpt>
      <trkpt lat="42.2006299" lon="2.1905686">
        <ele>686.65997314</ele>
        <time>2021-03-30T15:13:38Z</time>
      </trkpt>
      <trkpt lat="42.2006281" lon="2.1905742">
        <ele>686.65997314</ele>
        <time>2021-03-30T15:13:39Z</time>
      </trkpt>
      <trkpt lat="42.2006229" lon="2.1905927">
        <ele>686.65997314</ele>
        <time>2021-03-30T15:13:40Z</time>
      </trkpt>
      <trkpt lat="42.2006153" lon="2.1906007">
        <ele>686.65997314</ele>
        <time>2021-03-30T15:13:41Z</time>
      </trkpt>
      <trkpt lat="42.2006033" lon="2.1906129">
        <ele>686.65997314</ele>
        <time>2021-03-30T15:13:42Z</time>
      </trkpt>
      <trkpt lat="42.2005905" lon="2.1906316">
        <ele>686.65997314</ele>
        <time>2021-03-30T15:13:43Z</time>
      </trkpt>
      <trkpt lat="42.2005807" lon="2.1906408">
        <ele>686.65997314</ele>
        <time>2021-03-30T15:13:44Z</time>
      </trkpt>
      <trkpt lat="42.2005698" lon="2.1906522">
        <ele>686.65997314</ele>
        <time>2021-03-30T15:13:45Z</time>
      </trkpt>
      <trkpt lat="42.2005594" lon="2.1906641">
        <ele>686.65997314</ele>
        <time>2021-03-30T15:13:46Z</time>
      </trkpt>
      <trkpt lat="42.2005495" lon="2.1906752">
        <ele>686.65997314</ele>
        <time>2021-03-30T15:13:47Z</time>
      </trkpt>
      <trkpt lat="42.2005391" lon="2.1906842">
        <ele>686.65997314</ele>
        <time>2021-03-30T15:13:48Z</time>
      </trkpt>
      <trkpt lat="42.200528" lon="2.1906986">
        <ele>686.65997314</ele>
        <time>2021-03-30T15:13:49Z</time>
      </trkpt>
      <trkpt lat="42.200522" lon="2.1907091">
        <ele>686.65997314</ele>
        <time>2021-03-30T15:13:50Z</time>
      </trkpt>
      <trkpt lat="42.2005106" lon="2.1907298">
        <ele>686.65997314</ele>
        <time>2021-03-30T15:13:51Z</time>
      </trkpt>
      <trkpt lat="42.2005033" lon="2.190746">
        <ele>686.65997314</ele>
        <time>2021-03-30T15:13:52Z</time>
      </trkpt>
      <trkpt lat="42.2004956" lon="2.1907608">
        <ele>686.65997314</ele>
        <time>2021-03-30T15:13:53Z</time>
      </trkpt>
      <trkpt lat="42.2004925" lon="2.1907734">
        <ele>686.65997314</ele>
        <time>2021-03-30T15:13:54Z</time>
      </trkpt>
      <trkpt lat="42.2004885" lon="2.1907863">
        <ele>686.65997314</ele>
        <time>2021-03-30T15:13:55Z</time>
      </trkpt>
      <trkpt lat="42.2004865" lon="2.1908022">
        <ele>686.65997314</ele>
        <time>2021-03-30T15:13:56Z</time>
      </trkpt>
      <trkpt lat="42.200485" lon="2.190835">
        <ele>686.65997314</ele>
        <time>2021-03-30T15:13:57Z</time>
      </trkpt>
      <trkpt lat="42.2004847" lon="2.1908567">
        <ele>686.65997314</ele>
        <time>2021-03-30T15:13:58Z</time>
      </trkpt>
      <trkpt lat="42.200484" lon="2.1908751">
        <ele>686.65997314</ele>
        <time>2021-03-30T15:13:59Z</time>
      </trkpt>
      <trkpt lat="42.2004871" lon="2.1908901">
        <ele>686.65997314</ele>
        <time>2021-03-30T15:14:00Z</time>
      </trkpt>
      <trkpt lat="42.2004917" lon="2.1909065">
        <ele>686.65997314</ele>
        <time>2021-03-30T15:14:01Z</time>
      </trkpt>
      <trkpt lat="42.2004895" lon="2.1909146">
        <ele>686.65997314</ele>
        <time>2021-03-30T15:14:02Z</time>
      </trkpt>
      <trkpt lat="42.2004819" lon="2.1909292">
        <ele>686.65997314</ele>
        <time>2021-03-30T15:14:03Z</time>
      </trkpt>
      <trkpt lat="42.2004725" lon="2.1909455">
        <ele>686.65997314</ele>
        <time>2021-03-30T15:14:04Z</time>
      </trkpt>
      <trkpt lat="42.2004626" lon="2.1909645">
        <ele>686.65997314</ele>
        <time>2021-03-30T15:14:05Z</time>
      </trkpt>
      <trkpt lat="42.2004562" lon="2.1909866">
        <ele>686.65997314</ele>
        <time>2021-03-30T15:14:06Z</time>
      </trkpt>
      <trkpt lat="42.2004522" lon="2.1910047">
        <ele>686.65997314</ele>
        <time>2021-03-30T15:14:07Z</time>
      </trkpt>
      <trkpt lat="42.2004524" lon="2.1910155">
        <ele>686.65997314</ele>
        <time>2021-03-30T15:14:08Z</time>
      </trkpt>
      <trkpt lat="42.2004509" lon="2.1910224">
        <ele>686.65997314</ele>
        <time>2021-03-30T15:14:09Z</time>
      </trkpt>
      <trkpt lat="42.2004461" lon="2.1910324">
        <ele>686.65997314</ele>
        <time>2021-03-30T15:14:10Z</time>
      </trkpt>
      <trkpt lat="42.200441" lon="2.1910448">
        <ele>686.65997314</ele>
        <time>2021-03-30T15:14:11Z</time>
      </trkpt>
      <trkpt lat="42.2004324" lon="2.191061">
        <ele>686.65997314</ele>
        <time>2021-03-30T15:14:12Z</time>
      </trkpt>
      <trkpt lat="42.200424" lon="2.191077">
        <ele>686.65997314</ele>
        <time>2021-03-30T15:14:13Z</time>
      </trkpt>
      <trkpt lat="42.2004123" lon="2.191093">
        <ele>686.65997314</ele>
        <time>2021-03-30T15:14:14Z</time>
      </trkpt>
      <trkpt lat="42.2004068" lon="2.1910993">
        <ele>686.65997314</ele>
        <time>2021-03-30T15:14:15Z</time>
      </trkpt>
      <trkpt lat="42.2003955" lon="2.1911049">
        <ele>686.65997314</ele>
        <time>2021-03-30T15:14:16Z</time>
      </trkpt>
      <trkpt lat="42.200384" lon="2.1911109">
        <ele>686.65997314</ele>
        <time>2021-03-30T15:14:17Z</time>
      </trkpt>
      <trkpt lat="42.2003737" lon="2.1911161">
        <ele>686.65997314</ele>
        <time>2021-03-30T15:14:19Z</time>
      </trkpt>
      <trkpt lat="42.2003622" lon="2.1911194">
        <ele>686.65997314</ele>
        <time>2021-03-30T15:14:20Z</time>
      </trkpt>
      <trkpt lat="42.2003496" lon="2.1911218">
        <ele>686.65997314</ele>
        <time>2021-03-30T15:14:21Z</time>
      </trkpt>
      <trkpt lat="42.2003432" lon="2.1911296">
        <ele>686.65997314</ele>
        <time>2021-03-30T15:14:22Z</time>
      </trkpt>
      <trkpt lat="42.2003388" lon="2.1911386">
        <ele>686.65997314</ele>
        <time>2021-03-30T15:14:23Z</time>
      </trkpt>
      <trkpt lat="42.2003331" lon="2.1911523">
        <ele>686.65997314</ele>
        <time>2021-03-30T15:14:24Z</time>
      </trkpt>
      <trkpt lat="42.200324" lon="2.1911628">
        <ele>686.65997314</ele>
        <time>2021-03-30T15:14:25Z</time>
      </trkpt>
      <trkpt lat="42.2003229" lon="2.1911914">
        <ele>686.65997314</ele>
        <time>2021-03-30T15:14:26Z</time>
      </trkpt>
      <trkpt lat="42.2003265" lon="2.1912174">
        <ele>686.65997314</ele>
        <time>2021-03-30T15:14:27Z</time>
      </trkpt>
      <trkpt lat="42.2003294" lon="2.1912324">
        <ele>686.65997314</ele>
        <time>2021-03-30T15:14:28Z</time>
      </trkpt>
      <trkpt lat="42.2003236" lon="2.1912455">
        <ele>686.65997314</ele>
        <time>2021-03-30T15:14:29Z</time>
      </trkpt>
      <trkpt lat="42.2003186" lon="2.1912482">
        <ele>686.65997314</ele>
        <time>2021-03-30T15:14:30Z</time>
      </trkpt>
      <trkpt lat="42.2003101" lon="2.1912533">
        <ele>686.65997314</ele>
        <time>2021-03-30T15:14:31Z</time>
      </trkpt>
      <trkpt lat="42.2003024" lon="2.1912566">
        <ele>686.65997314</ele>
        <time>2021-03-30T15:14:32Z</time>
      </trkpt>
      <trkpt lat="42.2002969" lon="2.1912645">
        <ele>686.65997314</ele>
        <time>2021-03-30T15:14:33Z</time>
      </trkpt>
      <trkpt lat="42.2002868" lon="2.1912792">
        <ele>686.65997314</ele>
        <time>2021-03-30T15:14:34Z</time>
      </trkpt>
      <trkpt lat="42.2002746" lon="2.1912937">
        <ele>686.65997314</ele>
        <time>2021-03-30T15:14:35Z</time>
      </trkpt>
      <trkpt lat="42.2002647" lon="2.1913121">
        <ele>686.65997314</ele>
        <time>2021-03-30T15:14:36Z</time>
      </trkpt>
      <trkpt lat="42.2002593" lon="2.191328">
        <ele>686.65997314</ele>
        <time>2021-03-30T15:14:37Z</time>
      </trkpt>
      <trkpt lat="42.2002525" lon="2.1913391">
        <ele>686.65997314</ele>
        <time>2021-03-30T15:14:38Z</time>
      </trkpt>
      <trkpt lat="42.2002445" lon="2.1913502">
        <ele>686.65997314</ele>
        <time>2021-03-30T15:14:39Z</time>
      </trkpt>
      <trkpt lat="42.20024" lon="2.1913605">
        <ele>686.65997314</ele>
        <time>2021-03-30T15:14:40Z</time>
      </trkpt>
      <trkpt lat="42.200232" lon="2.1913751">
        <ele>686.65997314</ele>
        <time>2021-03-30T15:14:41Z</time>
      </trkpt>
      <trkpt lat="42.2002229" lon="2.191383">
        <ele>686.65997314</ele>
        <time>2021-03-30T15:14:42Z</time>
      </trkpt>
      <trkpt lat="42.2002127" lon="2.1913927">
        <ele>686.65997314</ele>
        <time>2021-03-30T15:14:43Z</time>
      </trkpt>
      <trkpt lat="42.200208" lon="2.1913991">
        <ele>686.65997314</ele>
        <time>2021-03-30T15:14:44Z</time>
      </trkpt>
      <trkpt lat="42.200203" lon="2.191406">
        <ele>686.65997314</ele>
        <time>2021-03-30T15:14:45Z</time>
      </trkpt>
      <trkpt lat="42.2001962" lon="2.1914171">
        <ele>686.65997314</ele>
        <time>2021-03-30T15:14:46Z</time>
      </trkpt>
      <trkpt lat="42.2001904" lon="2.1914305">
        <ele>686.65997314</ele>
        <time>2021-03-30T15:14:47Z</time>
      </trkpt>
      <trkpt lat="42.200181" lon="2.1914378">
        <ele>686.65997314</ele>
        <time>2021-03-30T15:14:48Z</time>
      </trkpt>
      <trkpt lat="42.2001754" lon="2.1914505">
        <ele>686.65997314</ele>
        <time>2021-03-30T15:14:49Z</time>
      </trkpt>
      <trkpt lat="42.2001702" lon="2.1914631">
        <ele>686.65997314</ele>
        <time>2021-03-30T15:14:50Z</time>
      </trkpt>
      <trkpt lat="42.2001622" lon="2.1914798">
        <ele>686.65997314</ele>
        <time>2021-03-30T15:14:51Z</time>
      </trkpt>
      <trkpt lat="42.2001583" lon="2.1914949">
        <ele>686.65997314</ele>
        <time>2021-03-30T15:14:52Z</time>
      </trkpt>
      <trkpt lat="42.2001519" lon="2.1915116">
        <ele>686.65997314</ele>
        <time>2021-03-30T15:14:53Z</time>
      </trkpt>
      <trkpt lat="42.2001483" lon="2.1915237">
        <ele>686.65997314</ele>
        <time>2021-03-30T15:14:54Z</time>
      </trkpt>
      <trkpt lat="42.2001434" lon="2.1915412">
        <ele>686.65997314</ele>
        <time>2021-03-30T15:14:55Z</time>
      </trkpt>
      <trkpt lat="42.2001449" lon="2.1915606">
        <ele>686.65997314</ele>
        <time>2021-03-30T15:14:56Z</time>
      </trkpt>
      <trkpt lat="42.2001403" lon="2.191581">
        <ele>686.65997314</ele>
        <time>2021-03-30T15:14:57Z</time>
      </trkpt>
      <trkpt lat="42.2001375" lon="2.191599">
        <ele>686.65997314</ele>
        <time>2021-03-30T15:14:58Z</time>
      </trkpt>
      <trkpt lat="42.2001328" lon="2.191621">
        <ele>686.65997314</ele>
        <time>2021-03-30T15:14:59Z</time>
      </trkpt>
      <trkpt lat="42.2001294" lon="2.1916304">
        <ele>686.65997314</ele>
        <time>2021-03-30T15:15:00Z</time>
      </trkpt>
      <trkpt lat="42.2001247" lon="2.1916409">
        <ele>686.65997314</ele>
        <time>2021-03-30T15:15:01Z</time>
      </trkpt>
      <trkpt lat="42.2001271" lon="2.191672">
        <ele>686.65997314</ele>
        <time>2021-03-30T15:15:02Z</time>
      </trkpt>
      <trkpt lat="42.2001248" lon="2.1916937">
        <ele>686.52001953</ele>
        <time>2021-03-30T15:15:03Z</time>
      </trkpt>
      <trkpt lat="42.2001143" lon="2.1916992">
        <ele>685.94000244</ele>
        <time>2021-03-30T15:15:04Z</time>
      </trkpt>
      <trkpt lat="42.2001065" lon="2.191708">
        <ele>685.7199707</ele>
        <time>2021-03-30T15:15:05Z</time>
      </trkpt>
      <trkpt lat="42.2000993" lon="2.1917151">
        <ele>685.45001221</ele>
        <time>2021-03-30T15:15:06Z</time>
      </trkpt>
      <trkpt lat="42.2000976" lon="2.1917274">
        <ele>685.21002197</ele>
        <time>2021-03-30T15:15:07Z</time>
      </trkpt>
      <trkpt lat="42.200091" lon="2.19173">
        <ele>684.84002686</ele>
        <time>2021-03-30T15:15:08Z</time>
      </trkpt>
      <trkpt lat="42.2000841" lon="2.1917395">
        <ele>684.70001221</ele>
        <time>2021-03-30T15:15:09Z</time>
      </trkpt>
      <trkpt lat="42.2000759" lon="2.1917432">
        <ele>684.39001465</ele>
        <time>2021-03-30T15:15:10Z</time>
      </trkpt>
      <trkpt lat="42.2000665" lon="2.1917528">
        <ele>684.2199707</ele>
        <time>2021-03-30T15:15:11Z</time>
      </trkpt>
      <trkpt lat="42.2000573" lon="2.1917524">
        <ele>683.86999512</ele>
        <time>2021-03-30T15:15:12Z</time>
      </trkpt>
      <trkpt lat="42.2000459" lon="2.1917542">
        <ele>683.76000977</ele>
        <time>2021-03-30T15:15:14Z</time>
      </trkpt>
      <trkpt lat="42.2000415" lon="2.1917675">
        <ele>683.67999268</ele>
        <time>2021-03-30T15:15:15Z</time>
      </trkpt>
      <trkpt lat="42.2000259" lon="2.1917733">
        <ele>683.22998047</ele>
        <time>2021-03-30T15:15:16Z</time>
      </trkpt>
      <trkpt lat="42.2000203" lon="2.1917808">
        <ele>682.90002441</ele>
        <time>2021-03-30T15:15:17Z</time>
      </trkpt>
      <trkpt lat="42.2000043" lon="2.1917839">
        <ele>682.59002686</ele>
        <time>2021-03-30T15:15:18Z</time>
      </trkpt>
      <trkpt lat="42.1999971" lon="2.1917999">
        <ele>682.34997559</ele>
        <time>2021-03-30T15:15:19Z</time>
      </trkpt>
      <trkpt lat="42.1999886" lon="2.1918172">
        <ele>681.75</ele>
        <time>2021-03-30T15:15:20Z</time>
      </trkpt>
      <trkpt lat="42.1999819" lon="2.1918279">
        <ele>681.11999512</ele>
        <time>2021-03-30T15:15:21Z</time>
      </trkpt>
      <trkpt lat="42.1999753" lon="2.1918429">
        <ele>680.69000244</ele>
        <time>2021-03-30T15:15:22Z</time>
      </trkpt>
      <trkpt lat="42.1999698" lon="2.1918618">
        <ele>680.15002441</ele>
        <time>2021-03-30T15:15:23Z</time>
      </trkpt>
      <trkpt lat="42.1999627" lon="2.1918765">
        <ele>679.46002197</ele>
        <time>2021-03-30T15:15:24Z</time>
      </trkpt>
      <trkpt lat="42.1999552" lon="2.1918916">
        <ele>678.89001465</ele>
        <time>2021-03-30T15:15:25Z</time>
      </trkpt>
      <trkpt lat="42.1999417" lon="2.1919001">
        <ele>678.33001709</ele>
        <time>2021-03-30T15:15:26Z</time>
      </trkpt>
      <trkpt lat="42.199943" lon="2.1919122">
        <ele>677.98999023</ele>
        <time>2021-03-30T15:15:27Z</time>
      </trkpt>
      <trkpt lat="42.1999327" lon="2.1919201">
        <ele>677.54998779</ele>
        <time>2021-03-30T15:15:28Z</time>
      </trkpt>
      <trkpt lat="42.199919" lon="2.1919312">
        <ele>677.23999023</ele>
        <time>2021-03-30T15:15:29Z</time>
      </trkpt>
      <trkpt lat="42.199912" lon="2.1919456">
        <ele>676.83001709</ele>
        <time>2021-03-30T15:15:30Z</time>
      </trkpt>
      <trkpt lat="42.1999028" lon="2.1919531">
        <ele>676.36999512</ele>
        <time>2021-03-30T15:15:31Z</time>
      </trkpt>
      <trkpt lat="42.1998899" lon="2.191962">
        <ele>676.45001221</ele>
        <time>2021-03-30T15:15:32Z</time>
      </trkpt>
      <trkpt lat="42.1998807" lon="2.191972">
        <ele>676.60998535</ele>
        <time>2021-03-30T15:15:33Z</time>
      </trkpt>
      <trkpt lat="42.1998756" lon="2.191989">
        <ele>676.78997803</ele>
        <time>2021-03-30T15:15:34Z</time>
      </trkpt>
      <trkpt lat="42.1998777" lon="2.1920087">
        <ele>677.09997559</ele>
        <time>2021-03-30T15:15:35Z</time>
      </trkpt>
      <trkpt lat="42.1998712" lon="2.1920195">
        <ele>677.46002197</ele>
        <time>2021-03-30T15:15:36Z</time>
      </trkpt>
      <trkpt lat="42.1998647" lon="2.1920308">
        <ele>677.67999268</ele>
        <time>2021-03-30T15:15:37Z</time>
      </trkpt>
      <trkpt lat="42.1998569" lon="2.1920439">
        <ele>677.89001465</ele>
        <time>2021-03-30T15:15:38Z</time>
      </trkpt>
      <trkpt lat="42.1998461" lon="2.1920504">
        <ele>678.13000488</ele>
        <time>2021-03-30T15:15:39Z</time>
      </trkpt>
      <trkpt lat="42.1998367" lon="2.1920561">
        <ele>678.26000977</ele>
        <time>2021-03-30T15:15:40Z</time>
      </trkpt>
      <trkpt lat="42.1998229" lon="2.1920581">
        <ele>678.36999512</ele>
        <time>2021-03-30T15:15:41Z</time>
      </trkpt>
      <trkpt lat="42.1998136" lon="2.1920717">
        <ele>678.40997314</ele>
        <time>2021-03-30T15:15:42Z</time>
      </trkpt>
      <trkpt lat="42.1998055" lon="2.1920806">
        <ele>678.65002441</ele>
        <time>2021-03-30T15:15:43Z</time>
      </trkpt>
      <trkpt lat="42.1998033" lon="2.1920905">
        <ele>678.82000732</ele>
        <time>2021-03-30T15:15:44Z</time>
      </trkpt>
      <trkpt lat="42.1998004" lon="2.192099">
        <ele>679</ele>
        <time>2021-03-30T15:15:45Z</time>
      </trkpt>
      <trkpt lat="42.1997974" lon="2.1921147">
        <ele>679.15997314</ele>
        <time>2021-03-30T15:15:46Z</time>
      </trkpt>
      <trkpt lat="42.1997943" lon="2.1921331">
        <ele>679.44000244</ele>
        <time>2021-03-30T15:15:47Z</time>
      </trkpt>
      <trkpt lat="42.1997898" lon="2.1921453">
        <ele>679.7800293</ele>
        <time>2021-03-30T15:15:48Z</time>
      </trkpt>
      <trkpt lat="42.199789" lon="2.1921572">
        <ele>680.02001953</ele>
        <time>2021-03-30T15:15:49Z</time>
      </trkpt>
      <trkpt lat="42.1997862" lon="2.1921688">
        <ele>680.23999023</ele>
        <time>2021-03-30T15:15:50Z</time>
      </trkpt>
      <trkpt lat="42.1997838" lon="2.192194">
        <ele>680.46002197</ele>
        <time>2021-03-30T15:15:51Z</time>
      </trkpt>
      <trkpt lat="42.1997828" lon="2.192204">
        <ele>680.90002441</ele>
        <time>2021-03-30T15:15:52Z</time>
      </trkpt>
      <trkpt lat="42.1997827" lon="2.1922142">
        <ele>681.11999512</ele>
        <time>2021-03-30T15:15:53Z</time>
      </trkpt>
      <trkpt lat="42.1997835" lon="2.1922255">
        <ele>681.30999756</ele>
        <time>2021-03-30T15:15:54Z</time>
      </trkpt>
      <trkpt lat="42.199782" lon="2.1922343">
        <ele>681.46002197</ele>
        <time>2021-03-30T15:15:55Z</time>
      </trkpt>
      <trkpt lat="42.1997832" lon="2.192246">
        <ele>681.47998047</ele>
        <time>2021-03-30T15:15:56Z</time>
      </trkpt>
      <trkpt lat="42.1998007" lon="2.192265">
        <ele>681.47998047</ele>
        <time>2021-03-30T15:16:02Z</time>
      </trkpt>
      <trkpt lat="42.1998018" lon="2.1922679">
        <ele>681.47998047</ele>
        <time>2021-03-30T15:16:03Z</time>
      </trkpt>
      <trkpt lat="42.1998017" lon="2.1922719">
        <ele>681.47998047</ele>
        <time>2021-03-30T15:16:04Z</time>
      </trkpt>
      <trkpt lat="42.1998028" lon="2.1922762">
        <ele>681.47998047</ele>
        <time>2021-03-30T15:16:05Z</time>
      </trkpt>
      <trkpt lat="42.1997985" lon="2.1922926">
        <ele>681.47998047</ele>
        <time>2021-03-30T15:16:06Z</time>
      </trkpt>
      <trkpt lat="42.1997989" lon="2.1923075">
        <ele>681.47998047</ele>
        <time>2021-03-30T15:16:07Z</time>
      </trkpt>
      <trkpt lat="42.1998052" lon="2.1923248">
        <ele>681.47998047</ele>
        <time>2021-03-30T15:16:08Z</time>
      </trkpt>
      <trkpt lat="42.1998064" lon="2.1923384">
        <ele>681.47998047</ele>
        <time>2021-03-30T15:16:09Z</time>
      </trkpt>
      <trkpt lat="42.1998113" lon="2.1923571">
        <ele>681.47998047</ele>
        <time>2021-03-30T15:16:10Z</time>
      </trkpt>
      <trkpt lat="42.1998094" lon="2.1923807">
        <ele>681.47998047</ele>
        <time>2021-03-30T15:16:11Z</time>
      </trkpt>
      <trkpt lat="42.1998118" lon="2.1924027">
        <ele>681.47998047</ele>
        <time>2021-03-30T15:16:12Z</time>
      </trkpt>
      <trkpt lat="42.1998134" lon="2.1924224">
        <ele>681.47998047</ele>
        <time>2021-03-30T15:16:13Z</time>
      </trkpt>
      <trkpt lat="42.199816" lon="2.1924295">
        <ele>681.47998047</ele>
        <time>2021-03-30T15:16:14Z</time>
      </trkpt>
      <trkpt lat="42.1998158" lon="2.1924383">
        <ele>681.47998047</ele>
        <time>2021-03-30T15:16:15Z</time>
      </trkpt>
      <trkpt lat="42.1998151" lon="2.1924502">
        <ele>681.47998047</ele>
        <time>2021-03-30T15:16:16Z</time>
      </trkpt>
      <trkpt lat="42.1998175" lon="2.1924683">
        <ele>681.47998047</ele>
        <time>2021-03-30T15:16:17Z</time>
      </trkpt>
      <trkpt lat="42.1998179" lon="2.1924814">
        <ele>681.47998047</ele>
        <time>2021-03-30T15:16:18Z</time>
      </trkpt>
      <trkpt lat="42.1998202" lon="2.192493">
        <ele>681.47998047</ele>
        <time>2021-03-30T15:16:19Z</time>
      </trkpt>
      <trkpt lat="42.1998274" lon="2.1925034">
        <ele>681.47998047</ele>
        <time>2021-03-30T15:16:20Z</time>
      </trkpt>
      <trkpt lat="42.1998379" lon="2.1925059">
        <ele>681.53997803</ele>
        <time>2021-03-30T15:16:21Z</time>
      </trkpt>
      <trkpt lat="42.1998531" lon="2.1925082">
        <ele>681.59002686</ele>
        <time>2021-03-30T15:16:22Z</time>
      </trkpt>
      <trkpt lat="42.1998666" lon="2.1925065">
        <ele>681.63000488</ele>
        <time>2021-03-30T15:16:23Z</time>
      </trkpt>
      <trkpt lat="42.1998804" lon="2.1925099">
        <ele>681.59997559</ele>
        <time>2021-03-30T15:16:24Z</time>
      </trkpt>
      <trkpt lat="42.1998905" lon="2.1925138">
        <ele>681.65997314</ele>
        <time>2021-03-30T15:16:25Z</time>
      </trkpt>
      <trkpt lat="42.1998996" lon="2.1925165">
        <ele>681.72998047</ele>
        <time>2021-03-30T15:16:26Z</time>
      </trkpt>
      <trkpt lat="42.199906" lon="2.1925113">
        <ele>681.7800293</ele>
        <time>2021-03-30T15:16:27Z</time>
      </trkpt>
      <trkpt lat="42.1999121" lon="2.192517">
        <ele>681.70001221</ele>
        <time>2021-03-30T15:16:28Z</time>
      </trkpt>
      <trkpt lat="42.1999246" lon="2.1925272">
        <ele>681.78997803</ele>
        <time>2021-03-30T15:16:29Z</time>
      </trkpt>
      <trkpt lat="42.1999408" lon="2.192539">
        <ele>681.9699707</ele>
        <time>2021-03-30T15:16:30Z</time>
      </trkpt>
      <trkpt lat="42.1999518" lon="2.1925282">
        <ele>682.17999268</ele>
        <time>2021-03-30T15:16:31Z</time>
      </trkpt>
      <trkpt lat="42.1999685" lon="2.1925144">
        <ele>682.0300293</ele>
        <time>2021-03-30T15:16:32Z</time>
      </trkpt>
      <trkpt lat="42.1999827" lon="2.1925066">
        <ele>681.7800293</ele>
        <time>2021-03-30T15:16:33Z</time>
      </trkpt>
      <trkpt lat="42.1999978" lon="2.1925106">
        <ele>681.61999512</ele>
        <time>2021-03-30T15:16:34Z</time>
      </trkpt>
      <trkpt lat="42.2000028" lon="2.1925139">
        <ele>681.66998291</ele>
        <time>2021-03-30T15:16:35Z</time>
      </trkpt>
      <trkpt lat="42.2000131" lon="2.1925199">
        <ele>681.72998047</ele>
        <time>2021-03-30T15:16:36Z</time>
      </trkpt>
      <trkpt lat="42.2000195" lon="2.1925221">
        <ele>681.84002686</ele>
        <time>2021-03-30T15:16:37Z</time>
      </trkpt>
      <trkpt lat="42.2000367" lon="2.1925182">
        <ele>681.89001465</ele>
        <time>2021-03-30T15:16:38Z</time>
      </trkpt>
      <trkpt lat="42.2000456" lon="2.1925205">
        <ele>681.83001709</ele>
        <time>2021-03-30T15:16:39Z</time>
      </trkpt>
      <trkpt lat="42.2000561" lon="2.1925221">
        <ele>681.85998535</ele>
        <time>2021-03-30T15:16:40Z</time>
      </trkpt>
      <trkpt lat="42.2000659" lon="2.1925291">
        <ele>681.89001465</ele>
        <time>2021-03-30T15:16:41Z</time>
      </trkpt>
      <trkpt lat="42.200063" lon="2.1925251">
        <ele>682.01000977</ele>
        <time>2021-03-30T15:16:42Z</time>
      </trkpt>
      <trkpt lat="42.2000647" lon="2.1925273">
        <ele>681.96002197</ele>
        <time>2021-03-30T15:16:43Z</time>
      </trkpt>
      <trkpt lat="42.2000679" lon="2.1925323">
        <ele>681.98999023</ele>
        <time>2021-03-30T15:16:44Z</time>
      </trkpt>
      <trkpt lat="42.2000784" lon="2.1925459">
        <ele>682.07000732</ele>
        <time>2021-03-30T15:16:45Z</time>
      </trkpt>
      <trkpt lat="42.2000789" lon="2.1925632">
        <ele>682.30999756</ele>
        <time>2021-03-30T15:16:46Z</time>
      </trkpt>
      <trkpt lat="42.2000762" lon="2.1925708">
        <ele>682.63000488</ele>
        <time>2021-03-30T15:16:47Z</time>
      </trkpt>
      <trkpt lat="42.2000812" lon="2.1925886">
        <ele>682.78997803</ele>
        <time>2021-03-30T15:16:48Z</time>
      </trkpt>
      <trkpt lat="42.2000805" lon="2.1925989">
        <ele>683.09997559</ele>
        <time>2021-03-30T15:16:49Z</time>
      </trkpt>
      <trkpt lat="42.2000854" lon="2.1926299">
        <ele>683.29998779</ele>
        <time>2021-03-30T15:16:50Z</time>
      </trkpt>
      <trkpt lat="42.2000941" lon="2.1926527">
        <ele>683.84002686</ele>
        <time>2021-03-30T15:16:51Z</time>
      </trkpt>
      <trkpt lat="42.2000976" lon="2.1926681">
        <ele>684.2800293</ele>
        <time>2021-03-30T15:16:52Z</time>
      </trkpt>
      <trkpt lat="42.2000973" lon="2.19269">
        <ele>684.59002686</ele>
        <time>2021-03-30T15:16:53Z</time>
      </trkpt>
      <trkpt lat="42.2000973" lon="2.1927051">
        <ele>684.97998047</ele>
        <time>2021-03-30T15:16:54Z</time>
      </trkpt>
      <trkpt lat="42.2000959" lon="2.1927268">
        <ele>685.2800293</ele>
        <time>2021-03-30T15:16:55Z</time>
      </trkpt>
      <trkpt lat="42.2000959" lon="2.1927479">
        <ele>685.66998291</ele>
        <time>2021-03-30T15:16:56Z</time>
      </trkpt>
      <trkpt lat="42.2000953" lon="2.192746">
        <ele>686.05999756</ele>
        <time>2021-03-30T15:16:57Z</time>
      </trkpt>
      <trkpt lat="42.2001053" lon="2.1927455">
        <ele>686.07000732</ele>
        <time>2021-03-30T15:16:58Z</time>
      </trkpt>
      <trkpt lat="42.2001154" lon="2.1927434">
        <ele>686.05999756</ele>
        <time>2021-03-30T15:16:59Z</time>
      </trkpt>
      <trkpt lat="42.2001238" lon="2.1927517">
        <ele>686.0300293</ele>
        <time>2021-03-30T15:17:00Z</time>
      </trkpt>
      <trkpt lat="42.2001333" lon="2.192761">
        <ele>686.15997314</ele>
        <time>2021-03-30T15:17:01Z</time>
      </trkpt>
      <trkpt lat="42.2001474" lon="2.1927655">
        <ele>686.33001709</ele>
        <time>2021-03-30T15:17:02Z</time>
      </trkpt>
      <trkpt lat="42.2001533" lon="2.192766">
        <ele>686.42999268</ele>
        <time>2021-03-30T15:17:03Z</time>
      </trkpt>
      <trkpt lat="42.2001614" lon="2.1927692">
        <ele>686.44000244</ele>
        <time>2021-03-30T15:17:04Z</time>
      </trkpt>
      <trkpt lat="42.2001723" lon="2.1927725">
        <ele>686.5</ele>
        <time>2021-03-30T15:17:05Z</time>
      </trkpt>
      <trkpt lat="42.2001836" lon="2.1927705">
        <ele>686.55999756</ele>
        <time>2021-03-30T15:17:06Z</time>
      </trkpt>
      <trkpt lat="42.200197" lon="2.192775">
        <ele>686.5300293</ele>
        <time>2021-03-30T15:17:07Z</time>
      </trkpt>
      <trkpt lat="42.2002077" lon="2.1927759">
        <ele>686.60998535</ele>
        <time>2021-03-30T15:17:08Z</time>
      </trkpt>
      <trkpt lat="42.2002165" lon="2.1927724">
        <ele>686.63000488</ele>
        <time>2021-03-30T15:17:09Z</time>
      </trkpt>
      <trkpt lat="42.2002204" lon="2.1927768">
        <ele>686.57000732</ele>
        <time>2021-03-30T15:17:10Z</time>
      </trkpt>
      <trkpt lat="42.2002258" lon="2.1927739">
        <ele>686.64001465</ele>
        <time>2021-03-30T15:17:11Z</time>
      </trkpt>
      <trkpt lat="42.2002911" lon="2.1927421">
        <ele>686.17999268</ele>
        <time>2021-03-30T15:17:22Z</time>
      </trkpt>
      <trkpt lat="42.2003013" lon="2.1927459">
        <ele>686.02001953</ele>
        <time>2021-03-30T15:17:23Z</time>
      </trkpt>
      <trkpt lat="42.2003117" lon="2.1927517">
        <ele>686.05999756</ele>
        <time>2021-03-30T15:17:24Z</time>
      </trkpt>
      <trkpt lat="42.2003246" lon="2.1927489">
        <ele>686.16998291</ele>
        <time>2021-03-30T15:17:25Z</time>
      </trkpt>
      <trkpt lat="42.2003357" lon="2.1927461">
        <ele>686.13000488</ele>
        <time>2021-03-30T15:17:26Z</time>
      </trkpt>
      <trkpt lat="42.200345" lon="2.1927457">
        <ele>686.08001709</ele>
        <time>2021-03-30T15:17:27Z</time>
      </trkpt>
      <trkpt lat="42.2003518" lon="2.1927451">
        <ele>686.07000732</ele>
        <time>2021-03-30T15:17:28Z</time>
      </trkpt>
      <trkpt lat="42.2003595" lon="2.1927413">
        <ele>686.05999756</ele>
        <time>2021-03-30T15:17:29Z</time>
      </trkpt>
      <trkpt lat="42.2004191" lon="2.1929872">
        <ele>692.48999023</ele>
        <time>2021-03-30T15:21:19Z</time>
      </trkpt>
      <trkpt lat="42.2004314" lon="2.1929901">
        <ele>692.48999023</ele>
        <time>2021-03-30T15:21:20Z</time>
      </trkpt>
      <trkpt lat="42.2004429" lon="2.192997">
        <ele>692.40997314</ele>
        <time>2021-03-30T15:21:21Z</time>
      </trkpt>
      <trkpt lat="42.200459" lon="2.1930049">
        <ele>692.40997314</ele>
        <time>2021-03-30T15:21:22Z</time>
      </trkpt>
      <trkpt lat="42.2004718" lon="2.193007">
        <ele>692.38000488</ele>
        <time>2021-03-30T15:21:23Z</time>
      </trkpt>
      <trkpt lat="42.2004744" lon="2.1930124">
        <ele>692.23999023</ele>
        <time>2021-03-30T15:21:25Z</time>
      </trkpt>
      <trkpt lat="42.2004814" lon="2.1930141">
        <ele>692.30999756</ele>
        <time>2021-03-30T15:21:26Z</time>
      </trkpt>
      <trkpt lat="42.2004867" lon="2.1930165">
        <ele>692.26000977</ele>
        <time>2021-03-30T15:21:27Z</time>
      </trkpt>
      <trkpt lat="42.2004961" lon="2.1930297">
        <ele>692.22998047</ele>
        <time>2021-03-30T15:21:28Z</time>
      </trkpt>
      <trkpt lat="42.2005021" lon="2.1930467">
        <ele>692.35998535</ele>
        <time>2021-03-30T15:21:29Z</time>
      </trkpt>
      <trkpt lat="42.2005091" lon="2.1930629">
        <ele>692.61999512</ele>
        <time>2021-03-30T15:21:30Z</time>
      </trkpt>
      <trkpt lat="42.200522" lon="2.1930646">
        <ele>692.83001709</ele>
        <time>2021-03-30T15:21:31Z</time>
      </trkpt>
      <trkpt lat="42.2005323" lon="2.1930606">
        <ele>692.65997314</ele>
        <time>2021-03-30T15:21:32Z</time>
      </trkpt>
      <trkpt lat="42.2005383" lon="2.1930657">
        <ele>692.40002441</ele>
        <time>2021-03-30T15:21:33Z</time>
      </trkpt>
      <trkpt lat="42.2005432" lon="2.1930735">
        <ele>692.35998535</ele>
        <time>2021-03-30T15:21:34Z</time>
      </trkpt>
      <trkpt lat="42.2005499" lon="2.1930773">
        <ele>692.40997314</ele>
        <time>2021-03-30T15:21:35Z</time>
      </trkpt>
      <trkpt lat="42.2005516" lon="2.1930729">
        <ele>692.35998535</ele>
        <time>2021-03-30T15:21:36Z</time>
      </trkpt>
      <trkpt lat="42.2005551" lon="2.1930684">
        <ele>692.26000977</ele>
        <time>2021-03-30T15:21:37Z</time>
      </trkpt>
      <trkpt lat="42.2005389" lon="2.1930855">
        <ele>692.44000244</ele>
        <time>2021-03-30T15:22:46Z</time>
      </trkpt>
      <trkpt lat="42.2005272" lon="2.1930848">
        <ele>692.69000244</ele>
        <time>2021-03-30T15:22:47Z</time>
      </trkpt>
      <trkpt lat="42.200515" lon="2.1930861">
        <ele>692.90002441</ele>
        <time>2021-03-30T15:22:48Z</time>
      </trkpt>
      <trkpt lat="42.2005064" lon="2.1930947">
        <ele>693.15002441</ele>
        <time>2021-03-30T15:22:49Z</time>
      </trkpt>
      <trkpt lat="42.2005027" lon="2.1931045">
        <ele>693.46002197</ele>
        <time>2021-03-30T15:22:50Z</time>
      </trkpt>
      <trkpt lat="42.2004987" lon="2.1931017">
        <ele>693.7199707</ele>
        <time>2021-03-30T15:22:51Z</time>
      </trkpt>
      <trkpt lat="42.2004962" lon="2.1930946">
        <ele>693.76000977</ele>
        <time>2021-03-30T15:22:52Z</time>
      </trkpt>
      <trkpt lat="42.2004884" lon="2.1930932">
        <ele>693.69000244</ele>
        <time>2021-03-30T15:22:53Z</time>
      </trkpt>
      <trkpt lat="42.2003651" lon="2.193284">
        <ele>699.69000244</ele>
        <time>2021-03-30T15:24:31Z</time>
      </trkpt>
      <trkpt lat="42.2003645" lon="2.1932852">
        <ele>699.66998291</ele>
        <time>2021-03-30T15:24:32Z</time>
      </trkpt>
      <trkpt lat="42.2003638" lon="2.1932908">
        <ele>699.69000244</ele>
        <time>2021-03-30T15:24:33Z</time>
      </trkpt>
      <trkpt lat="42.2003591" lon="2.1932899">
        <ele>699.79998779</ele>
        <time>2021-03-30T15:24:34Z</time>
      </trkpt>
    </trkseg>
  </trk>
</gpx>
